<?xml version="1.0" encoding="UTF-8" standalone="no" ?>
<gpx xmlns="http://www.topografix.com/GPX/1/1" xmlns:xsi="http://www.w3.org/2001/XMLSchema-instance" xsi:schemaLocation="http://www.topografix.com/GPX/1/1 http://www.topografix.com/GPX/1/1/gpx.xsd" version="1.1" creator="VisuGPX - https://www.visugpx.com">
  <metadata>
    <name>Méricourt-en-vimeux, Warlus</name>
  </metadata>
  <trk>
    <name><![CDATA[Méricourt-en-vimeux, Warlus_1]]></name>
    <trkseg>
      <trkpt lat="49.89809" lon="1.94881">
        <ele>109.9</ele>
        <time>2022-05-25T12:00:46Z</time>
      </trkpt>
      <trkpt lat="49.89809" lon="1.94881">
        <ele>109.9</ele>
        <time>2022-05-25T12:00:47Z</time>
      </trkpt>
      <trkpt lat="49.89809" lon="1.94881">
        <ele>109.9</ele>
        <time>2022-05-25T12:00:48Z</time>
      </trkpt>
      <trkpt lat="49.89809" lon="1.94881">
        <ele>109.9</ele>
        <time>2022-05-25T12:00:49Z</time>
      </trkpt>
      <trkpt lat="49.89809" lon="1.94881">
        <ele>109.9</ele>
        <time>2022-05-25T12:00:50Z</time>
      </trkpt>
      <trkpt lat="49.89809" lon="1.94881">
        <ele>109.9</ele>
        <time>2022-05-25T12:00:51Z</time>
      </trkpt>
      <trkpt lat="49.89809" lon="1.94881">
        <ele>109.9</ele>
        <time>2022-05-25T12:00:52Z</time>
      </trkpt>
      <trkpt lat="49.89809" lon="1.94881">
        <ele>109.9</ele>
        <time>2022-05-25T12:00:53Z</time>
      </trkpt>
      <trkpt lat="49.89809" lon="1.94881">
        <ele>109.9</ele>
        <time>2022-05-25T12:00:54Z</time>
      </trkpt>
      <trkpt lat="49.89809" lon="1.94881">
        <ele>109.9</ele>
        <time>2022-05-25T12:00:55Z</time>
      </trkpt>
      <trkpt lat="49.89809" lon="1.94881">
        <ele>109.9</ele>
        <time>2022-05-25T12:00:56Z</time>
      </trkpt>
      <trkpt lat="49.89809" lon="1.94881">
        <ele>109.9</ele>
        <time>2022-05-25T12:00:57Z</time>
      </trkpt>
      <trkpt lat="49.89809" lon="1.94881">
        <ele>109.9</ele>
        <time>2022-05-25T12:00:58Z</time>
      </trkpt>
      <trkpt lat="49.89809" lon="1.94881">
        <ele>109.9</ele>
        <time>2022-05-25T12:00:59Z</time>
      </trkpt>
      <trkpt lat="49.89809" lon="1.94881">
        <ele>109.9</ele>
        <time>2022-05-25T12:01:00Z</time>
      </trkpt>
      <trkpt lat="49.89809" lon="1.94881">
        <ele>109.9</ele>
        <time>2022-05-25T12:01:02Z</time>
      </trkpt>
      <trkpt lat="49.89809" lon="1.94881">
        <ele>109.9</ele>
        <time>2022-05-25T12:01:03Z</time>
      </trkpt>
      <trkpt lat="49.89809" lon="1.94881">
        <ele>109.9</ele>
        <time>2022-05-25T12:01:05Z</time>
      </trkpt>
      <trkpt lat="49.89809" lon="1.94881">
        <ele>109.9</ele>
        <time>2022-05-25T12:01:06Z</time>
      </trkpt>
      <trkpt lat="49.89809" lon="1.94881">
        <ele>109.9</ele>
        <time>2022-05-25T12:01:07Z</time>
      </trkpt>
      <trkpt lat="49.89809" lon="1.94881">
        <ele>109.9</ele>
        <time>2022-05-25T12:01:09Z</time>
      </trkpt>
      <trkpt lat="49.89809" lon="1.94881">
        <ele>109.9</ele>
        <time>2022-05-25T12:01:11Z</time>
      </trkpt>
      <trkpt lat="49.89809" lon="1.94881">
        <ele>109.9</ele>
        <time>2022-05-25T12:01:12Z</time>
      </trkpt>
      <trkpt lat="49.89809" lon="1.94881">
        <ele>109.9</ele>
        <time>2022-05-25T12:01:13Z</time>
      </trkpt>
      <trkpt lat="49.89809" lon="1.94881">
        <ele>109.9</ele>
        <time>2022-05-25T12:01:14Z</time>
      </trkpt>
      <trkpt lat="49.89809" lon="1.94881">
        <ele>109.9</ele>
        <time>2022-05-25T12:01:15Z</time>
      </trkpt>
      <trkpt lat="49.89809" lon="1.94881">
        <ele>109.9</ele>
        <time>2022-05-25T12:01:16Z</time>
      </trkpt>
      <trkpt lat="49.89809" lon="1.94881">
        <ele>109.9</ele>
        <time>2022-05-25T12:01:17Z</time>
      </trkpt>
      <trkpt lat="49.89809" lon="1.94881">
        <ele>109.9</ele>
        <time>2022-05-25T12:01:18Z</time>
      </trkpt>
      <trkpt lat="49.89809" lon="1.94881">
        <ele>109.9</ele>
        <time>2022-05-25T12:01:19Z</time>
      </trkpt>
      <trkpt lat="49.89809" lon="1.94881">
        <ele>109.9</ele>
        <time>2022-05-25T12:01:20Z</time>
      </trkpt>
      <trkpt lat="49.89809" lon="1.94881">
        <ele>109.9</ele>
        <time>2022-05-25T12:01:21Z</time>
      </trkpt>
      <trkpt lat="49.89809" lon="1.94881">
        <ele>109.9</ele>
        <time>2022-05-25T12:01:22Z</time>
      </trkpt>
      <trkpt lat="49.89809" lon="1.94881">
        <ele>109.9</ele>
        <time>2022-05-25T12:01:23Z</time>
      </trkpt>
      <trkpt lat="49.89809" lon="1.94881">
        <ele>109.9</ele>
        <time>2022-05-25T12:01:24Z</time>
      </trkpt>
      <trkpt lat="49.89809" lon="1.94881">
        <ele>109.9</ele>
        <time>2022-05-25T12:01:26Z</time>
      </trkpt>
      <trkpt lat="49.89809" lon="1.94881">
        <ele>109.9</ele>
        <time>2022-05-25T12:01:27Z</time>
      </trkpt>
      <trkpt lat="49.89809" lon="1.94881">
        <ele>109.9</ele>
        <time>2022-05-25T12:01:28Z</time>
      </trkpt>
      <trkpt lat="49.89809" lon="1.94881">
        <ele>109.9</ele>
        <time>2022-05-25T12:01:29Z</time>
      </trkpt>
      <trkpt lat="49.89809" lon="1.94881">
        <ele>109.9</ele>
        <time>2022-05-25T12:01:30Z</time>
      </trkpt>
      <trkpt lat="49.89809" lon="1.94881">
        <ele>109.9</ele>
        <time>2022-05-25T12:01:31Z</time>
      </trkpt>
      <trkpt lat="49.89809" lon="1.94881">
        <ele>109.9</ele>
        <time>2022-05-25T12:01:32Z</time>
      </trkpt>
      <trkpt lat="49.89809" lon="1.94881">
        <ele>109.9</ele>
        <time>2022-05-25T12:01:33Z</time>
      </trkpt>
      <trkpt lat="49.89809" lon="1.94881">
        <ele>109.9</ele>
        <time>2022-05-25T12:01:34Z</time>
      </trkpt>
      <trkpt lat="49.89809" lon="1.94881">
        <ele>109.9</ele>
        <time>2022-05-25T12:01:35Z</time>
      </trkpt>
      <trkpt lat="49.89809" lon="1.94881">
        <ele>109.9</ele>
        <time>2022-05-25T12:01:36Z</time>
      </trkpt>
      <trkpt lat="49.89809" lon="1.94881">
        <ele>109.9</ele>
        <time>2022-05-25T12:01:37Z</time>
      </trkpt>
      <trkpt lat="49.89809" lon="1.94881">
        <ele>109.9</ele>
        <time>2022-05-25T12:01:38Z</time>
      </trkpt>
      <trkpt lat="49.89809" lon="1.94881">
        <ele>109.9</ele>
        <time>2022-05-25T12:01:39Z</time>
      </trkpt>
      <trkpt lat="49.89809" lon="1.94881">
        <ele>109.9</ele>
        <time>2022-05-25T12:01:40Z</time>
      </trkpt>
      <trkpt lat="49.89809" lon="1.94881">
        <ele>109.9</ele>
        <time>2022-05-25T12:01:41Z</time>
      </trkpt>
      <trkpt lat="49.89809" lon="1.94881">
        <ele>109.9</ele>
        <time>2022-05-25T12:01:42Z</time>
      </trkpt>
      <trkpt lat="49.89809" lon="1.94881">
        <ele>109.9</ele>
        <time>2022-05-25T12:01:43Z</time>
      </trkpt>
      <trkpt lat="49.89809" lon="1.94881">
        <ele>109.9</ele>
        <time>2022-05-25T12:01:44Z</time>
      </trkpt>
      <trkpt lat="49.89809" lon="1.94881">
        <ele>109.9</ele>
        <time>2022-05-25T12:01:45Z</time>
      </trkpt>
      <trkpt lat="49.89809" lon="1.94881">
        <ele>109.9</ele>
        <time>2022-05-25T12:01:46Z</time>
      </trkpt>
      <trkpt lat="49.89809" lon="1.94881">
        <ele>109.9</ele>
        <time>2022-05-25T12:01:47Z</time>
      </trkpt>
      <trkpt lat="49.89809" lon="1.94881">
        <ele>109.9</ele>
        <time>2022-05-25T12:01:48Z</time>
      </trkpt>
      <trkpt lat="49.89809" lon="1.94881">
        <ele>109.9</ele>
        <time>2022-05-25T12:01:49Z</time>
      </trkpt>
      <trkpt lat="49.89809" lon="1.94881">
        <ele>109.9</ele>
        <time>2022-05-25T12:01:50Z</time>
      </trkpt>
      <trkpt lat="49.89809" lon="1.94881">
        <ele>109.9</ele>
        <time>2022-05-25T12:01:51Z</time>
      </trkpt>
      <trkpt lat="49.89809" lon="1.94881">
        <ele>109.9</ele>
        <time>2022-05-25T12:01:52Z</time>
      </trkpt>
      <trkpt lat="49.89809" lon="1.94881">
        <ele>109.9</ele>
        <time>2022-05-25T12:01:53Z</time>
      </trkpt>
      <trkpt lat="49.89809" lon="1.94881">
        <ele>109.9</ele>
        <time>2022-05-25T12:01:54Z</time>
      </trkpt>
      <trkpt lat="49.89809" lon="1.94881">
        <ele>109.9</ele>
        <time>2022-05-25T12:01:55Z</time>
      </trkpt>
      <trkpt lat="49.89809" lon="1.94881">
        <ele>109.9</ele>
        <time>2022-05-25T12:01:56Z</time>
      </trkpt>
      <trkpt lat="49.89809" lon="1.94881">
        <ele>109.9</ele>
        <time>2022-05-25T12:01:57Z</time>
      </trkpt>
      <trkpt lat="49.89809" lon="1.94881">
        <ele>109.9</ele>
        <time>2022-05-25T12:01:58Z</time>
      </trkpt>
      <trkpt lat="49.89809" lon="1.94881">
        <ele>109.9</ele>
        <time>2022-05-25T12:01:59Z</time>
      </trkpt>
      <trkpt lat="49.89809" lon="1.94881">
        <ele>109.9</ele>
        <time>2022-05-25T12:02:00Z</time>
      </trkpt>
      <trkpt lat="49.89809" lon="1.94881">
        <ele>109.9</ele>
        <time>2022-05-25T12:02:01Z</time>
      </trkpt>
      <trkpt lat="49.89809" lon="1.94881">
        <ele>109.9</ele>
        <time>2022-05-25T12:02:02Z</time>
      </trkpt>
      <trkpt lat="49.89809" lon="1.94881">
        <ele>109.9</ele>
        <time>2022-05-25T12:02:03Z</time>
      </trkpt>
      <trkpt lat="49.89809" lon="1.94881">
        <ele>109.9</ele>
        <time>2022-05-25T12:02:04Z</time>
      </trkpt>
      <trkpt lat="49.89809" lon="1.94881">
        <ele>109.9</ele>
        <time>2022-05-25T12:02:05Z</time>
      </trkpt>
      <trkpt lat="49.89809" lon="1.94881">
        <ele>109.9</ele>
        <time>2022-05-25T12:02:06Z</time>
      </trkpt>
      <trkpt lat="49.89809" lon="1.94881">
        <ele>109.9</ele>
        <time>2022-05-25T12:02:07Z</time>
      </trkpt>
      <trkpt lat="49.89809" lon="1.94881">
        <ele>109.9</ele>
        <time>2022-05-25T12:02:08Z</time>
      </trkpt>
      <trkpt lat="49.89809" lon="1.94881">
        <ele>109.9</ele>
        <time>2022-05-25T12:02:09Z</time>
      </trkpt>
      <trkpt lat="49.89809" lon="1.94881">
        <ele>109.9</ele>
        <time>2022-05-25T12:02:10Z</time>
      </trkpt>
      <trkpt lat="49.89809" lon="1.94881">
        <ele>109.9</ele>
        <time>2022-05-25T12:02:11Z</time>
      </trkpt>
      <trkpt lat="49.89809" lon="1.94881">
        <ele>109.9</ele>
        <time>2022-05-25T12:02:12Z</time>
      </trkpt>
      <trkpt lat="49.89809" lon="1.94881">
        <ele>109.9</ele>
        <time>2022-05-25T12:02:13Z</time>
      </trkpt>
      <trkpt lat="49.89809" lon="1.94881">
        <ele>109.9</ele>
        <time>2022-05-25T12:02:14Z</time>
      </trkpt>
      <trkpt lat="49.89809" lon="1.94881">
        <ele>109.9</ele>
        <time>2022-05-25T12:02:15Z</time>
      </trkpt>
      <trkpt lat="49.89809" lon="1.94881">
        <ele>109.9</ele>
        <time>2022-05-25T12:02:16Z</time>
      </trkpt>
      <trkpt lat="49.89809" lon="1.94881">
        <ele>109.9</ele>
        <time>2022-05-25T12:02:17Z</time>
      </trkpt>
      <trkpt lat="49.89809" lon="1.94881">
        <ele>109.9</ele>
        <time>2022-05-25T12:02:18Z</time>
      </trkpt>
      <trkpt lat="49.89809" lon="1.94881">
        <ele>109.9</ele>
        <time>2022-05-25T12:02:19Z</time>
      </trkpt>
      <trkpt lat="49.89809" lon="1.94881">
        <ele>109.9</ele>
        <time>2022-05-25T12:02:20Z</time>
      </trkpt>
      <trkpt lat="49.89809" lon="1.94881">
        <ele>109.9</ele>
        <time>2022-05-25T12:02:21Z</time>
      </trkpt>
      <trkpt lat="49.89809" lon="1.94881">
        <ele>109.9</ele>
        <time>2022-05-25T12:02:22Z</time>
      </trkpt>
      <trkpt lat="49.89809" lon="1.94881">
        <ele>109.9</ele>
        <time>2022-05-25T12:02:23Z</time>
      </trkpt>
      <trkpt lat="49.89809" lon="1.94881">
        <ele>109.9</ele>
        <time>2022-05-25T12:02:24Z</time>
      </trkpt>
      <trkpt lat="49.89809" lon="1.94881">
        <ele>109.9</ele>
        <time>2022-05-25T12:02:25Z</time>
      </trkpt>
      <trkpt lat="49.89809" lon="1.94881">
        <ele>109.9</ele>
        <time>2022-05-25T12:02:26Z</time>
      </trkpt>
      <trkpt lat="49.89809" lon="1.94881">
        <ele>109.9</ele>
        <time>2022-05-25T12:02:27Z</time>
      </trkpt>
      <trkpt lat="49.89809" lon="1.94881">
        <ele>109.9</ele>
        <time>2022-05-25T12:02:28Z</time>
      </trkpt>
      <trkpt lat="49.89809" lon="1.94881">
        <ele>109.9</ele>
        <time>2022-05-25T12:02:29Z</time>
      </trkpt>
      <trkpt lat="49.89809" lon="1.94881">
        <ele>109.9</ele>
        <time>2022-05-25T12:02:30Z</time>
      </trkpt>
      <trkpt lat="49.89809" lon="1.94881">
        <ele>109.9</ele>
        <time>2022-05-25T12:02:31Z</time>
      </trkpt>
      <trkpt lat="49.89809" lon="1.94881">
        <ele>109.9</ele>
        <time>2022-05-25T12:02:32Z</time>
      </trkpt>
      <trkpt lat="49.89809" lon="1.94881">
        <ele>109.9</ele>
        <time>2022-05-25T12:02:33Z</time>
      </trkpt>
      <trkpt lat="49.89809" lon="1.94881">
        <ele>109.9</ele>
        <time>2022-05-25T12:02:34Z</time>
      </trkpt>
      <trkpt lat="49.89809" lon="1.94881">
        <ele>109.9</ele>
        <time>2022-05-25T12:02:35Z</time>
      </trkpt>
      <trkpt lat="49.89809" lon="1.94881">
        <ele>109.9</ele>
        <time>2022-05-25T12:02:36Z</time>
      </trkpt>
      <trkpt lat="49.89809" lon="1.94881">
        <ele>109.9</ele>
        <time>2022-05-25T12:02:37Z</time>
      </trkpt>
      <trkpt lat="49.89809" lon="1.94881">
        <ele>109.9</ele>
        <time>2022-05-25T12:02:38Z</time>
      </trkpt>
      <trkpt lat="49.89809" lon="1.94881">
        <ele>109.9</ele>
        <time>2022-05-25T12:02:39Z</time>
      </trkpt>
      <trkpt lat="49.89809" lon="1.94881">
        <ele>109.9</ele>
        <time>2022-05-25T12:02:40Z</time>
      </trkpt>
      <trkpt lat="49.89809" lon="1.94881">
        <ele>109.9</ele>
        <time>2022-05-25T12:02:41Z</time>
      </trkpt>
      <trkpt lat="49.89809" lon="1.94881">
        <ele>109.9</ele>
        <time>2022-05-25T12:02:42Z</time>
      </trkpt>
      <trkpt lat="49.89809" lon="1.94881">
        <ele>109.9</ele>
        <time>2022-05-25T12:02:43Z</time>
      </trkpt>
      <trkpt lat="49.89809" lon="1.94881">
        <ele>109.9</ele>
        <time>2022-05-25T12:02:44Z</time>
      </trkpt>
      <trkpt lat="49.89809" lon="1.94881">
        <ele>109.9</ele>
        <time>2022-05-25T12:02:45Z</time>
      </trkpt>
      <trkpt lat="49.89809" lon="1.94881">
        <ele>109.9</ele>
        <time>2022-05-25T12:02:47Z</time>
      </trkpt>
      <trkpt lat="49.89809" lon="1.94881">
        <ele>109.9</ele>
        <time>2022-05-25T12:02:48Z</time>
      </trkpt>
      <trkpt lat="49.89809" lon="1.94881">
        <ele>109.9</ele>
        <time>2022-05-25T12:02:49Z</time>
      </trkpt>
      <trkpt lat="49.89809" lon="1.94881">
        <ele>109.9</ele>
        <time>2022-05-25T12:02:50Z</time>
      </trkpt>
      <trkpt lat="49.89809" lon="1.94881">
        <ele>109.9</ele>
        <time>2022-05-25T12:02:51Z</time>
      </trkpt>
      <trkpt lat="49.89809" lon="1.94881">
        <ele>109.9</ele>
        <time>2022-05-25T12:02:52Z</time>
      </trkpt>
      <trkpt lat="49.89809" lon="1.94881">
        <ele>109.9</ele>
        <time>2022-05-25T12:02:53Z</time>
      </trkpt>
      <trkpt lat="49.89809" lon="1.94881">
        <ele>109.9</ele>
        <time>2022-05-25T12:02:54Z</time>
      </trkpt>
      <trkpt lat="49.89809" lon="1.94881">
        <ele>109.9</ele>
        <time>2022-05-25T12:02:55Z</time>
      </trkpt>
      <trkpt lat="49.89809" lon="1.94881">
        <ele>109.9</ele>
        <time>2022-05-25T12:02:56Z</time>
      </trkpt>
      <trkpt lat="49.89809" lon="1.94881">
        <ele>109.9</ele>
        <time>2022-05-25T12:02:57Z</time>
      </trkpt>
      <trkpt lat="49.89809" lon="1.94881">
        <ele>109.9</ele>
        <time>2022-05-25T12:02:58Z</time>
      </trkpt>
      <trkpt lat="49.89809" lon="1.94881">
        <ele>109.9</ele>
        <time>2022-05-25T12:02:59Z</time>
      </trkpt>
      <trkpt lat="49.89809" lon="1.94881">
        <ele>109.8</ele>
        <time>2022-05-25T12:03:00Z</time>
      </trkpt>
      <trkpt lat="49.89807" lon="1.94882">
        <ele>109.8</ele>
        <time>2022-05-25T12:03:01Z</time>
      </trkpt>
      <trkpt lat="49.89806" lon="1.94883">
        <ele>109.7</ele>
        <time>2022-05-25T12:03:02Z</time>
      </trkpt>
      <trkpt lat="49.89805" lon="1.94884">
        <ele>109.6</ele>
        <time>2022-05-25T12:03:03Z</time>
      </trkpt>
      <trkpt lat="49.89804" lon="1.94885">
        <ele>109.6</ele>
        <time>2022-05-25T12:03:04Z</time>
      </trkpt>
      <trkpt lat="49.89803" lon="1.94885">
        <ele>109.6</ele>
        <time>2022-05-25T12:03:05Z</time>
      </trkpt>
      <trkpt lat="49.89802" lon="1.94886">
        <ele>109.5</ele>
        <time>2022-05-25T12:03:06Z</time>
      </trkpt>
      <trkpt lat="49.89802" lon="1.94886">
        <ele>109.5</ele>
        <time>2022-05-25T12:03:07Z</time>
      </trkpt>
      <trkpt lat="49.89802" lon="1.94887">
        <ele>109.5</ele>
        <time>2022-05-25T12:03:08Z</time>
      </trkpt>
      <trkpt lat="49.89801" lon="1.94887">
        <ele>109.5</ele>
        <time>2022-05-25T12:03:09Z</time>
      </trkpt>
      <trkpt lat="49.898" lon="1.94888">
        <ele>109.4</ele>
        <time>2022-05-25T12:03:10Z</time>
      </trkpt>
      <trkpt lat="49.89799" lon="1.94889">
        <ele>109.3</ele>
        <time>2022-05-25T12:03:11Z</time>
      </trkpt>
      <trkpt lat="49.89798" lon="1.94891">
        <ele>109.3</ele>
        <time>2022-05-25T12:03:12Z</time>
      </trkpt>
      <trkpt lat="49.89797" lon="1.94893">
        <ele>109.2</ele>
        <time>2022-05-25T12:03:13Z</time>
      </trkpt>
      <trkpt lat="49.89798" lon="1.94894">
        <ele>109.2</ele>
        <time>2022-05-25T12:03:15Z</time>
      </trkpt>
      <trkpt lat="49.89798" lon="1.94895">
        <ele>109.2</ele>
        <time>2022-05-25T12:03:16Z</time>
      </trkpt>
      <trkpt lat="49.89798" lon="1.94897">
        <ele>109.1</ele>
        <time>2022-05-25T12:03:18Z</time>
      </trkpt>
      <trkpt lat="49.89798" lon="1.94898">
        <ele>109.1</ele>
        <time>2022-05-25T12:03:19Z</time>
      </trkpt>
      <trkpt lat="49.89798" lon="1.94899">
        <ele>109</ele>
        <time>2022-05-25T12:03:20Z</time>
      </trkpt>
      <trkpt lat="49.89798" lon="1.949">
        <ele>109</ele>
        <time>2022-05-25T12:03:21Z</time>
      </trkpt>
      <trkpt lat="49.89799" lon="1.94902">
        <ele>109</ele>
        <time>2022-05-25T12:03:22Z</time>
      </trkpt>
      <trkpt lat="49.89799" lon="1.94903">
        <ele>108.9</ele>
        <time>2022-05-25T12:03:23Z</time>
      </trkpt>
      <trkpt lat="49.898" lon="1.94904">
        <ele>108.9</ele>
        <time>2022-05-25T12:03:24Z</time>
      </trkpt>
      <trkpt lat="49.89801" lon="1.94905">
        <ele>108.8</ele>
        <time>2022-05-25T12:03:25Z</time>
      </trkpt>
      <trkpt lat="49.89802" lon="1.94905">
        <ele>108.8</ele>
        <time>2022-05-25T12:03:27Z</time>
      </trkpt>
      <trkpt lat="49.89803" lon="1.94905">
        <ele>108.7</ele>
        <time>2022-05-25T12:03:28Z</time>
      </trkpt>
      <trkpt lat="49.89804" lon="1.94905">
        <ele>108.7</ele>
        <time>2022-05-25T12:03:29Z</time>
      </trkpt>
      <trkpt lat="49.89805" lon="1.94905">
        <ele>108.7</ele>
        <time>2022-05-25T12:03:30Z</time>
      </trkpt>
      <trkpt lat="49.89806" lon="1.94905">
        <ele>108.6</ele>
        <time>2022-05-25T12:03:31Z</time>
      </trkpt>
      <trkpt lat="49.89806" lon="1.94905">
        <ele>108.6</ele>
        <time>2022-05-25T12:03:32Z</time>
      </trkpt>
      <trkpt lat="49.89807" lon="1.94906">
        <ele>108.6</ele>
        <time>2022-05-25T12:03:33Z</time>
      </trkpt>
      <trkpt lat="49.89808" lon="1.94907">
        <ele>108.5</ele>
        <time>2022-05-25T12:03:35Z</time>
      </trkpt>
      <trkpt lat="49.89809" lon="1.94907">
        <ele>108.5</ele>
        <time>2022-05-25T12:03:36Z</time>
      </trkpt>
      <trkpt lat="49.89809" lon="1.94907">
        <ele>108.5</ele>
        <time>2022-05-25T12:03:37Z</time>
      </trkpt>
      <trkpt lat="49.8981" lon="1.94907">
        <ele>108.4</ele>
        <time>2022-05-25T12:03:38Z</time>
      </trkpt>
      <trkpt lat="49.89811" lon="1.94906">
        <ele>108.4</ele>
        <time>2022-05-25T12:03:39Z</time>
      </trkpt>
      <trkpt lat="49.89812" lon="1.94906">
        <ele>108.3</ele>
        <time>2022-05-25T12:03:40Z</time>
      </trkpt>
      <trkpt lat="49.89813" lon="1.94906">
        <ele>108.3</ele>
        <time>2022-05-25T12:03:41Z</time>
      </trkpt>
      <trkpt lat="49.89815" lon="1.94906">
        <ele>108.2</ele>
        <time>2022-05-25T12:03:43Z</time>
      </trkpt>
      <trkpt lat="49.89817" lon="1.94905">
        <ele>108.2</ele>
        <time>2022-05-25T12:03:44Z</time>
      </trkpt>
      <trkpt lat="49.89818" lon="1.94905">
        <ele>108.1</ele>
        <time>2022-05-25T12:03:45Z</time>
      </trkpt>
      <trkpt lat="49.89822" lon="1.94903">
        <ele>107.9</ele>
        <time>2022-05-25T12:03:46Z</time>
      </trkpt>
      <trkpt lat="49.89823" lon="1.94903">
        <ele>107.9</ele>
        <time>2022-05-25T12:03:47Z</time>
      </trkpt>
      <trkpt lat="49.89826" lon="1.94901">
        <ele>107.7</ele>
        <time>2022-05-25T12:03:48Z</time>
      </trkpt>
      <trkpt lat="49.89827" lon="1.94901">
        <ele>107.7</ele>
        <time>2022-05-25T12:03:49Z</time>
      </trkpt>
      <trkpt lat="49.89829" lon="1.949">
        <ele>107.6</ele>
        <time>2022-05-25T12:03:51Z</time>
      </trkpt>
      <trkpt lat="49.8983" lon="1.94899">
        <ele>107.5</ele>
        <time>2022-05-25T12:03:52Z</time>
      </trkpt>
      <trkpt lat="49.89832" lon="1.94898">
        <ele>107.5</ele>
        <time>2022-05-25T12:03:53Z</time>
      </trkpt>
      <trkpt lat="49.89833" lon="1.94898">
        <ele>107.4</ele>
        <time>2022-05-25T12:03:54Z</time>
      </trkpt>
      <trkpt lat="49.89835" lon="1.94897">
        <ele>107.3</ele>
        <time>2022-05-25T12:03:55Z</time>
      </trkpt>
      <trkpt lat="49.89836" lon="1.94897">
        <ele>107.3</ele>
        <time>2022-05-25T12:03:56Z</time>
      </trkpt>
      <trkpt lat="49.89837" lon="1.94896">
        <ele>107.2</ele>
        <time>2022-05-25T12:03:57Z</time>
      </trkpt>
      <trkpt lat="49.89839" lon="1.94896">
        <ele>107.1</ele>
        <time>2022-05-25T12:03:58Z</time>
      </trkpt>
      <trkpt lat="49.8984" lon="1.94896">
        <ele>107.1</ele>
        <time>2022-05-25T12:04:00Z</time>
      </trkpt>
      <trkpt lat="49.89841" lon="1.94895">
        <ele>107</ele>
        <time>2022-05-25T12:04:01Z</time>
      </trkpt>
      <trkpt lat="49.89843" lon="1.94895">
        <ele>106.9</ele>
        <time>2022-05-25T12:04:02Z</time>
      </trkpt>
      <trkpt lat="49.89844" lon="1.94894">
        <ele>106.9</ele>
        <time>2022-05-25T12:04:03Z</time>
      </trkpt>
      <trkpt lat="49.89845" lon="1.94893">
        <ele>106.8</ele>
        <time>2022-05-25T12:04:04Z</time>
      </trkpt>
      <trkpt lat="49.89847" lon="1.94892">
        <ele>106.7</ele>
        <time>2022-05-25T12:04:05Z</time>
      </trkpt>
      <trkpt lat="49.89848" lon="1.94891">
        <ele>106.7</ele>
        <time>2022-05-25T12:04:06Z</time>
      </trkpt>
      <trkpt lat="49.89849" lon="1.9489">
        <ele>106.6</ele>
        <time>2022-05-25T12:04:07Z</time>
      </trkpt>
      <trkpt lat="49.8985" lon="1.94888">
        <ele>106.5</ele>
        <time>2022-05-25T12:04:08Z</time>
      </trkpt>
      <trkpt lat="49.89851" lon="1.94887">
        <ele>106.5</ele>
        <time>2022-05-25T12:04:10Z</time>
      </trkpt>
      <trkpt lat="49.89852" lon="1.94885">
        <ele>106.4</ele>
        <time>2022-05-25T12:04:11Z</time>
      </trkpt>
      <trkpt lat="49.89854" lon="1.94883">
        <ele>106.3</ele>
        <time>2022-05-25T12:04:12Z</time>
      </trkpt>
      <trkpt lat="49.89854" lon="1.94883">
        <ele>106.3</ele>
        <time>2022-05-25T12:04:13Z</time>
      </trkpt>
      <trkpt lat="49.89855" lon="1.94882">
        <ele>106.3</ele>
        <time>2022-05-25T12:04:14Z</time>
      </trkpt>
      <trkpt lat="49.89857" lon="1.94881">
        <ele>106.2</ele>
        <time>2022-05-25T12:04:15Z</time>
      </trkpt>
      <trkpt lat="49.89858" lon="1.94881">
        <ele>106.2</ele>
        <time>2022-05-25T12:04:16Z</time>
      </trkpt>
      <trkpt lat="49.89859" lon="1.94881">
        <ele>106.1</ele>
        <time>2022-05-25T12:04:17Z</time>
      </trkpt>
      <trkpt lat="49.89861" lon="1.9488">
        <ele>106</ele>
        <time>2022-05-25T12:04:18Z</time>
      </trkpt>
      <trkpt lat="49.89862" lon="1.94879">
        <ele>106</ele>
        <time>2022-05-25T12:04:19Z</time>
      </trkpt>
      <trkpt lat="49.89863" lon="1.94879">
        <ele>106</ele>
        <time>2022-05-25T12:04:20Z</time>
      </trkpt>
      <trkpt lat="49.89865" lon="1.94877">
        <ele>105.9</ele>
        <time>2022-05-25T12:04:22Z</time>
      </trkpt>
      <trkpt lat="49.89866" lon="1.94877">
        <ele>105.8</ele>
        <time>2022-05-25T12:04:23Z</time>
      </trkpt>
      <trkpt lat="49.89867" lon="1.94876">
        <ele>105.8</ele>
        <time>2022-05-25T12:04:24Z</time>
      </trkpt>
      <trkpt lat="49.89869" lon="1.94875">
        <ele>105.7</ele>
        <time>2022-05-25T12:04:25Z</time>
      </trkpt>
      <trkpt lat="49.89869" lon="1.94875">
        <ele>105.7</ele>
        <time>2022-05-25T12:04:26Z</time>
      </trkpt>
      <trkpt lat="49.8987" lon="1.94875">
        <ele>105.7</ele>
        <time>2022-05-25T12:04:27Z</time>
      </trkpt>
      <trkpt lat="49.89872" lon="1.94874">
        <ele>105.6</ele>
        <time>2022-05-25T12:04:28Z</time>
      </trkpt>
      <trkpt lat="49.89873" lon="1.94874">
        <ele>105.5</ele>
        <time>2022-05-25T12:04:29Z</time>
      </trkpt>
      <trkpt lat="49.90345" lon="1.94088">
        <ele>72.8</ele>
        <time>2022-05-25T12:16:21Z</time>
      </trkpt>
      <trkpt lat="49.90344" lon="1.94089">
        <ele>72.8</ele>
        <time>2022-05-25T12:16:22Z</time>
      </trkpt>
      <trkpt lat="49.90344" lon="1.94089">
        <ele>72.8</ele>
        <time>2022-05-25T12:16:23Z</time>
      </trkpt>
      <trkpt lat="49.90344" lon="1.94089">
        <ele>72.8</ele>
        <time>2022-05-25T12:16:24Z</time>
      </trkpt>
      <trkpt lat="49.90344" lon="1.94089">
        <ele>72.8</ele>
        <time>2022-05-25T12:16:25Z</time>
      </trkpt>
      <trkpt lat="49.90344" lon="1.94088">
        <ele>72.8</ele>
        <time>2022-05-25T12:16:26Z</time>
      </trkpt>
      <trkpt lat="49.90343" lon="1.94086">
        <ele>72.8</ele>
        <time>2022-05-25T12:16:27Z</time>
      </trkpt>
      <trkpt lat="49.90343" lon="1.94084">
        <ele>72.9</ele>
        <time>2022-05-25T12:16:28Z</time>
      </trkpt>
      <trkpt lat="49.90343" lon="1.94083">
        <ele>72.9</ele>
        <time>2022-05-25T12:16:29Z</time>
      </trkpt>
      <trkpt lat="49.90343" lon="1.94081">
        <ele>72.9</ele>
        <time>2022-05-25T12:16:31Z</time>
      </trkpt>
      <trkpt lat="49.90344" lon="1.94081">
        <ele>72.9</ele>
        <time>2022-05-25T12:16:32Z</time>
      </trkpt>
      <trkpt lat="49.90345" lon="1.9408">
        <ele>73</ele>
        <time>2022-05-25T12:16:33Z</time>
      </trkpt>
      <trkpt lat="49.90347" lon="1.94078">
        <ele>73</ele>
        <time>2022-05-25T12:16:34Z</time>
      </trkpt>
      <trkpt lat="49.90348" lon="1.94078">
        <ele>73</ele>
        <time>2022-05-25T12:16:35Z</time>
      </trkpt>
      <trkpt lat="49.90349" lon="1.94077">
        <ele>73.1</ele>
        <time>2022-05-25T12:16:36Z</time>
      </trkpt>
      <trkpt lat="49.90352" lon="1.94074">
        <ele>73.1</ele>
        <time>2022-05-25T12:16:38Z</time>
      </trkpt>
      <trkpt lat="49.90353" lon="1.94073">
        <ele>73.2</ele>
        <time>2022-05-25T12:16:39Z</time>
      </trkpt>
      <trkpt lat="49.90354" lon="1.94071">
        <ele>73.2</ele>
        <time>2022-05-25T12:16:40Z</time>
      </trkpt>
      <trkpt lat="49.90355" lon="1.9407">
        <ele>73.2</ele>
        <time>2022-05-25T12:16:41Z</time>
      </trkpt>
      <trkpt lat="49.90358" lon="1.94068">
        <ele>73.3</ele>
        <time>2022-05-25T12:16:42Z</time>
      </trkpt>
      <trkpt lat="49.90359" lon="1.94067">
        <ele>73.3</ele>
        <time>2022-05-25T12:16:44Z</time>
      </trkpt>
      <trkpt lat="49.9036" lon="1.94067">
        <ele>73.3</ele>
        <time>2022-05-25T12:16:45Z</time>
      </trkpt>
      <trkpt lat="49.9036" lon="1.94066">
        <ele>73.4</ele>
        <time>2022-05-25T12:16:46Z</time>
      </trkpt>
      <trkpt lat="49.90361" lon="1.94066">
        <ele>73.4</ele>
        <time>2022-05-25T12:16:47Z</time>
      </trkpt>
      <trkpt lat="49.90363" lon="1.94064">
        <ele>73.4</ele>
        <time>2022-05-25T12:16:48Z</time>
      </trkpt>
      <trkpt lat="49.90364" lon="1.94064">
        <ele>73.4</ele>
        <time>2022-05-25T12:16:49Z</time>
      </trkpt>
      <trkpt lat="49.90365" lon="1.94063">
        <ele>73.5</ele>
        <time>2022-05-25T12:16:51Z</time>
      </trkpt>
      <trkpt lat="49.90366" lon="1.94063">
        <ele>73.5</ele>
        <time>2022-05-25T12:16:52Z</time>
      </trkpt>
      <trkpt lat="49.90367" lon="1.94062">
        <ele>73.5</ele>
        <time>2022-05-25T12:16:53Z</time>
      </trkpt>
      <trkpt lat="49.90368" lon="1.94061">
        <ele>73.5</ele>
        <time>2022-05-25T12:16:54Z</time>
      </trkpt>
      <trkpt lat="49.90369" lon="1.94061">
        <ele>73.6</ele>
        <time>2022-05-25T12:16:55Z</time>
      </trkpt>
      <trkpt lat="49.9037" lon="1.9406">
        <ele>73.6</ele>
        <time>2022-05-25T12:16:56Z</time>
      </trkpt>
      <trkpt lat="49.90371" lon="1.94059">
        <ele>73.6</ele>
        <time>2022-05-25T12:16:58Z</time>
      </trkpt>
      <trkpt lat="49.90371" lon="1.94058">
        <ele>73.6</ele>
        <time>2022-05-25T12:16:59Z</time>
      </trkpt>
      <trkpt lat="49.90372" lon="1.94058">
        <ele>73.7</ele>
        <time>2022-05-25T12:17:00Z</time>
      </trkpt>
      <trkpt lat="49.90374" lon="1.94057">
        <ele>73.7</ele>
        <time>2022-05-25T12:17:01Z</time>
      </trkpt>
      <trkpt lat="49.90376" lon="1.94056">
        <ele>73.8</ele>
        <time>2022-05-25T12:17:02Z</time>
      </trkpt>
      <trkpt lat="49.90376" lon="1.94055">
        <ele>73.8</ele>
        <time>2022-05-25T12:17:04Z</time>
      </trkpt>
      <trkpt lat="49.90377" lon="1.94055">
        <ele>73.8</ele>
        <time>2022-05-25T12:17:05Z</time>
      </trkpt>
      <trkpt lat="49.90379" lon="1.94053">
        <ele>73.9</ele>
        <time>2022-05-25T12:17:06Z</time>
      </trkpt>
      <trkpt lat="49.9038" lon="1.94052">
        <ele>73.9</ele>
        <time>2022-05-25T12:17:07Z</time>
      </trkpt>
      <trkpt lat="49.90381" lon="1.94051">
        <ele>73.9</ele>
        <time>2022-05-25T12:17:08Z</time>
      </trkpt>
      <trkpt lat="49.90382" lon="1.94051">
        <ele>74</ele>
        <time>2022-05-25T12:17:09Z</time>
      </trkpt>
      <trkpt lat="49.90384" lon="1.9405">
        <ele>74</ele>
        <time>2022-05-25T12:17:11Z</time>
      </trkpt>
      <trkpt lat="49.90385" lon="1.94049">
        <ele>74.1</ele>
        <time>2022-05-25T12:17:12Z</time>
      </trkpt>
      <trkpt lat="49.90386" lon="1.94048">
        <ele>74.1</ele>
        <time>2022-05-25T12:17:13Z</time>
      </trkpt>
      <trkpt lat="49.90387" lon="1.94047">
        <ele>74.2</ele>
        <time>2022-05-25T12:17:14Z</time>
      </trkpt>
      <trkpt lat="49.90388" lon="1.94046">
        <ele>74.2</ele>
        <time>2022-05-25T12:17:15Z</time>
      </trkpt>
      <trkpt lat="49.90389" lon="1.94045">
        <ele>74.3</ele>
        <time>2022-05-25T12:17:17Z</time>
      </trkpt>
      <trkpt lat="49.9039" lon="1.94044">
        <ele>74.3</ele>
        <time>2022-05-25T12:17:18Z</time>
      </trkpt>
      <trkpt lat="49.90392" lon="1.94044">
        <ele>74.4</ele>
        <time>2022-05-25T12:17:19Z</time>
      </trkpt>
      <trkpt lat="49.90392" lon="1.94043">
        <ele>74.4</ele>
        <time>2022-05-25T12:17:20Z</time>
      </trkpt>
      <trkpt lat="49.90394" lon="1.94043">
        <ele>74.5</ele>
        <time>2022-05-25T12:17:21Z</time>
      </trkpt>
      <trkpt lat="49.90395" lon="1.94042">
        <ele>74.5</ele>
        <time>2022-05-25T12:17:22Z</time>
      </trkpt>
      <trkpt lat="49.90396" lon="1.94042">
        <ele>74.6</ele>
        <time>2022-05-25T12:17:24Z</time>
      </trkpt>
      <trkpt lat="49.90397" lon="1.94041">
        <ele>74.6</ele>
        <time>2022-05-25T12:17:25Z</time>
      </trkpt>
      <trkpt lat="49.90398" lon="1.9404">
        <ele>74.7</ele>
        <time>2022-05-25T12:17:26Z</time>
      </trkpt>
      <trkpt lat="49.90399" lon="1.9404">
        <ele>74.7</ele>
        <time>2022-05-25T12:17:27Z</time>
      </trkpt>
      <trkpt lat="49.90401" lon="1.94039">
        <ele>74.8</ele>
        <time>2022-05-25T12:17:29Z</time>
      </trkpt>
      <trkpt lat="49.90401" lon="1.94039">
        <ele>74.9</ele>
        <time>2022-05-25T12:17:30Z</time>
      </trkpt>
      <trkpt lat="49.90402" lon="1.94038">
        <ele>74.9</ele>
        <time>2022-05-25T12:17:31Z</time>
      </trkpt>
      <trkpt lat="49.90403" lon="1.94038">
        <ele>74.9</ele>
        <time>2022-05-25T12:17:32Z</time>
      </trkpt>
      <trkpt lat="49.90404" lon="1.94037">
        <ele>75</ele>
        <time>2022-05-25T12:17:33Z</time>
      </trkpt>
      <trkpt lat="49.90405" lon="1.94037">
        <ele>75.1</ele>
        <time>2022-05-25T12:17:35Z</time>
      </trkpt>
      <trkpt lat="49.90406" lon="1.94036">
        <ele>75.1</ele>
        <time>2022-05-25T12:17:36Z</time>
      </trkpt>
      <trkpt lat="49.90408" lon="1.94035">
        <ele>75.2</ele>
        <time>2022-05-25T12:17:37Z</time>
      </trkpt>
      <trkpt lat="49.90409" lon="1.94034">
        <ele>75.3</ele>
        <time>2022-05-25T12:17:38Z</time>
      </trkpt>
      <trkpt lat="49.9041" lon="1.94033">
        <ele>75.3</ele>
        <time>2022-05-25T12:17:39Z</time>
      </trkpt>
      <trkpt lat="49.90411" lon="1.94033">
        <ele>75.4</ele>
        <time>2022-05-25T12:17:40Z</time>
      </trkpt>
      <trkpt lat="49.90412" lon="1.94032">
        <ele>75.5</ele>
        <time>2022-05-25T12:17:42Z</time>
      </trkpt>
      <trkpt lat="49.90413" lon="1.94031">
        <ele>75.5</ele>
        <time>2022-05-25T12:17:43Z</time>
      </trkpt>
      <trkpt lat="49.90414" lon="1.94031">
        <ele>75.6</ele>
        <time>2022-05-25T12:17:44Z</time>
      </trkpt>
      <trkpt lat="49.90416" lon="1.94029">
        <ele>75.7</ele>
        <time>2022-05-25T12:17:45Z</time>
      </trkpt>
      <trkpt lat="49.90417" lon="1.94028">
        <ele>75.8</ele>
        <time>2022-05-25T12:17:46Z</time>
      </trkpt>
      <trkpt lat="49.90418" lon="1.94027">
        <ele>75.8</ele>
        <time>2022-05-25T12:17:48Z</time>
      </trkpt>
      <trkpt lat="49.90419" lon="1.94027">
        <ele>75.9</ele>
        <time>2022-05-25T12:17:49Z</time>
      </trkpt>
      <trkpt lat="49.90419" lon="1.94026">
        <ele>75.9</ele>
        <time>2022-05-25T12:17:50Z</time>
      </trkpt>
      <trkpt lat="49.9042" lon="1.94025">
        <ele>76</ele>
        <time>2022-05-25T12:17:51Z</time>
      </trkpt>
      <trkpt lat="49.90422" lon="1.94024">
        <ele>76</ele>
        <time>2022-05-25T12:17:52Z</time>
      </trkpt>
      <trkpt lat="49.90422" lon="1.94023">
        <ele>76.1</ele>
        <time>2022-05-25T12:17:54Z</time>
      </trkpt>
      <trkpt lat="49.90423" lon="1.94022">
        <ele>76.1</ele>
        <time>2022-05-25T12:17:55Z</time>
      </trkpt>
      <trkpt lat="49.90424" lon="1.94022">
        <ele>76.2</ele>
        <time>2022-05-25T12:17:56Z</time>
      </trkpt>
      <trkpt lat="49.90425" lon="1.94021">
        <ele>76.2</ele>
        <time>2022-05-25T12:17:57Z</time>
      </trkpt>
      <trkpt lat="49.90426" lon="1.9402">
        <ele>76.3</ele>
        <time>2022-05-25T12:17:59Z</time>
      </trkpt>
      <trkpt lat="49.90427" lon="1.9402">
        <ele>76.4</ele>
        <time>2022-05-25T12:18:00Z</time>
      </trkpt>
      <trkpt lat="49.90428" lon="1.94019">
        <ele>76.4</ele>
        <time>2022-05-25T12:18:01Z</time>
      </trkpt>
      <trkpt lat="49.90429" lon="1.94019">
        <ele>76.5</ele>
        <time>2022-05-25T12:18:02Z</time>
      </trkpt>
      <trkpt lat="49.9043" lon="1.94018">
        <ele>76.5</ele>
        <time>2022-05-25T12:18:03Z</time>
      </trkpt>
      <trkpt lat="49.90431" lon="1.94016">
        <ele>76.6</ele>
        <time>2022-05-25T12:18:04Z</time>
      </trkpt>
      <trkpt lat="49.90432" lon="1.94016">
        <ele>76.7</ele>
        <time>2022-05-25T12:18:05Z</time>
      </trkpt>
      <trkpt lat="49.90433" lon="1.94015">
        <ele>76.7</ele>
        <time>2022-05-25T12:18:06Z</time>
      </trkpt>
      <trkpt lat="49.90434" lon="1.94015">
        <ele>76.8</ele>
        <time>2022-05-25T12:18:08Z</time>
      </trkpt>
      <trkpt lat="49.90434" lon="1.94014">
        <ele>76.8</ele>
        <time>2022-05-25T12:18:09Z</time>
      </trkpt>
      <trkpt lat="49.90435" lon="1.94014">
        <ele>76.9</ele>
        <time>2022-05-25T12:18:10Z</time>
      </trkpt>
      <trkpt lat="49.90436" lon="1.94013">
        <ele>76.9</ele>
        <time>2022-05-25T12:18:11Z</time>
      </trkpt>
      <trkpt lat="49.90438" lon="1.94013">
        <ele>77</ele>
        <time>2022-05-25T12:18:12Z</time>
      </trkpt>
      <trkpt lat="49.90439" lon="1.94012">
        <ele>77.1</ele>
        <time>2022-05-25T12:18:13Z</time>
      </trkpt>
      <trkpt lat="49.90441" lon="1.9401">
        <ele>77.2</ele>
        <time>2022-05-25T12:18:14Z</time>
      </trkpt>
      <trkpt lat="49.90442" lon="1.9401">
        <ele>77.3</ele>
        <time>2022-05-25T12:18:15Z</time>
      </trkpt>
      <trkpt lat="49.90443" lon="1.94009">
        <ele>77.3</ele>
        <time>2022-05-25T12:18:16Z</time>
      </trkpt>
      <trkpt lat="49.90444" lon="1.94008">
        <ele>77.4</ele>
        <time>2022-05-25T12:18:18Z</time>
      </trkpt>
      <trkpt lat="49.90445" lon="1.94007">
        <ele>77.5</ele>
        <time>2022-05-25T12:18:19Z</time>
      </trkpt>
      <trkpt lat="49.90446" lon="1.94006">
        <ele>77.5</ele>
        <time>2022-05-25T12:18:20Z</time>
      </trkpt>
      <trkpt lat="49.90447" lon="1.94006">
        <ele>77.6</ele>
        <time>2022-05-25T12:18:21Z</time>
      </trkpt>
      <trkpt lat="49.90448" lon="1.94005">
        <ele>77.6</ele>
        <time>2022-05-25T12:18:23Z</time>
      </trkpt>
      <trkpt lat="49.90449" lon="1.94004">
        <ele>77.7</ele>
        <time>2022-05-25T12:18:24Z</time>
      </trkpt>
      <trkpt lat="49.90451" lon="1.94003">
        <ele>77.8</ele>
        <time>2022-05-25T12:18:26Z</time>
      </trkpt>
      <trkpt lat="49.90452" lon="1.94002">
        <ele>77.9</ele>
        <time>2022-05-25T12:18:27Z</time>
      </trkpt>
      <trkpt lat="49.90454" lon="1.94001">
        <ele>78</ele>
        <time>2022-05-25T12:18:28Z</time>
      </trkpt>
      <trkpt lat="49.90454" lon="1.94">
        <ele>78.1</ele>
        <time>2022-05-25T12:18:29Z</time>
      </trkpt>
      <trkpt lat="49.90455" lon="1.94">
        <ele>78.1</ele>
        <time>2022-05-25T12:18:30Z</time>
      </trkpt>
      <trkpt lat="49.90456" lon="1.93999">
        <ele>78.1</ele>
        <time>2022-05-25T12:18:32Z</time>
      </trkpt>
      <trkpt lat="49.90456" lon="1.93999">
        <ele>78.2</ele>
        <time>2022-05-25T12:18:33Z</time>
      </trkpt>
      <trkpt lat="49.90458" lon="1.93998">
        <ele>78.3</ele>
        <time>2022-05-25T12:18:34Z</time>
      </trkpt>
      <trkpt lat="49.90459" lon="1.93997">
        <ele>78.4</ele>
        <time>2022-05-25T12:18:36Z</time>
      </trkpt>
      <trkpt lat="49.9046" lon="1.93995">
        <ele>78.4</ele>
        <time>2022-05-25T12:18:37Z</time>
      </trkpt>
      <trkpt lat="49.90461" lon="1.93994">
        <ele>78.5</ele>
        <time>2022-05-25T12:18:38Z</time>
      </trkpt>
      <trkpt lat="49.90461" lon="1.93992">
        <ele>78.5</ele>
        <time>2022-05-25T12:18:39Z</time>
      </trkpt>
      <trkpt lat="49.90461" lon="1.93991">
        <ele>78.6</ele>
        <time>2022-05-25T12:18:40Z</time>
      </trkpt>
      <trkpt lat="49.90462" lon="1.9399">
        <ele>78.6</ele>
        <time>2022-05-25T12:18:42Z</time>
      </trkpt>
      <trkpt lat="49.90462" lon="1.9399">
        <ele>78.7</ele>
        <time>2022-05-25T12:18:43Z</time>
      </trkpt>
      <trkpt lat="49.90463" lon="1.93989">
        <ele>78.7</ele>
        <time>2022-05-25T12:18:44Z</time>
      </trkpt>
      <trkpt lat="49.90464" lon="1.93988">
        <ele>78.8</ele>
        <time>2022-05-25T12:18:45Z</time>
      </trkpt>
      <trkpt lat="49.90465" lon="1.93988">
        <ele>78.8</ele>
        <time>2022-05-25T12:18:47Z</time>
      </trkpt>
      <trkpt lat="49.90465" lon="1.93987">
        <ele>78.9</ele>
        <time>2022-05-25T12:18:48Z</time>
      </trkpt>
      <trkpt lat="49.90466" lon="1.93987">
        <ele>78.9</ele>
        <time>2022-05-25T12:18:49Z</time>
      </trkpt>
      <trkpt lat="49.90467" lon="1.93987">
        <ele>78.9</ele>
        <time>2022-05-25T12:18:50Z</time>
      </trkpt>
      <trkpt lat="49.90468" lon="1.93987">
        <ele>79</ele>
        <time>2022-05-25T12:18:51Z</time>
      </trkpt>
      <trkpt lat="49.90469" lon="1.93987">
        <ele>79.1</ele>
        <time>2022-05-25T12:18:53Z</time>
      </trkpt>
      <trkpt lat="49.90471" lon="1.93986">
        <ele>79.2</ele>
        <time>2022-05-25T12:18:54Z</time>
      </trkpt>
      <trkpt lat="49.90472" lon="1.93986">
        <ele>79.3</ele>
        <time>2022-05-25T12:18:56Z</time>
      </trkpt>
      <trkpt lat="49.90473" lon="1.93986">
        <ele>79.3</ele>
        <time>2022-05-25T12:18:57Z</time>
      </trkpt>
      <trkpt lat="49.90474" lon="1.93985">
        <ele>79.4</ele>
        <time>2022-05-25T12:18:58Z</time>
      </trkpt>
      <trkpt lat="49.90475" lon="1.93984">
        <ele>79.4</ele>
        <time>2022-05-25T12:18:59Z</time>
      </trkpt>
      <trkpt lat="49.90476" lon="1.93983">
        <ele>79.5</ele>
        <time>2022-05-25T12:19:00Z</time>
      </trkpt>
      <trkpt lat="49.90477" lon="1.93981">
        <ele>79.6</ele>
        <time>2022-05-25T12:19:01Z</time>
      </trkpt>
      <trkpt lat="49.90478" lon="1.9398">
        <ele>79.6</ele>
        <time>2022-05-25T12:19:03Z</time>
      </trkpt>
      <trkpt lat="49.90479" lon="1.9398">
        <ele>79.7</ele>
        <time>2022-05-25T12:19:04Z</time>
      </trkpt>
      <trkpt lat="49.90481" lon="1.93979">
        <ele>79.8</ele>
        <time>2022-05-25T12:19:05Z</time>
      </trkpt>
      <trkpt lat="49.90484" lon="1.93977">
        <ele>80</ele>
        <time>2022-05-25T12:19:06Z</time>
      </trkpt>
      <trkpt lat="49.90486" lon="1.93976">
        <ele>80.1</ele>
        <time>2022-05-25T12:19:07Z</time>
      </trkpt>
      <trkpt lat="49.90488" lon="1.93974">
        <ele>80.2</ele>
        <time>2022-05-25T12:19:08Z</time>
      </trkpt>
      <trkpt lat="49.90489" lon="1.93973">
        <ele>80.3</ele>
        <time>2022-05-25T12:19:10Z</time>
      </trkpt>
      <trkpt lat="49.90491" lon="1.93972">
        <ele>80.4</ele>
        <time>2022-05-25T12:19:11Z</time>
      </trkpt>
      <trkpt lat="49.90492" lon="1.93971">
        <ele>80.4</ele>
        <time>2022-05-25T12:19:12Z</time>
      </trkpt>
      <trkpt lat="49.90494" lon="1.9397">
        <ele>80.5</ele>
        <time>2022-05-25T12:19:13Z</time>
      </trkpt>
      <trkpt lat="49.90494" lon="1.9397">
        <ele>80.6</ele>
        <time>2022-05-25T12:19:14Z</time>
      </trkpt>
      <trkpt lat="49.90495" lon="1.93969">
        <ele>80.6</ele>
        <time>2022-05-25T12:19:15Z</time>
      </trkpt>
      <trkpt lat="49.90497" lon="1.93968">
        <ele>80.7</ele>
        <time>2022-05-25T12:19:16Z</time>
      </trkpt>
      <trkpt lat="49.90498" lon="1.93967">
        <ele>80.8</ele>
        <time>2022-05-25T12:19:18Z</time>
      </trkpt>
      <trkpt lat="49.90499" lon="1.93966">
        <ele>80.8</ele>
        <time>2022-05-25T12:19:19Z</time>
      </trkpt>
      <trkpt lat="49.90501" lon="1.93965">
        <ele>80.9</ele>
        <time>2022-05-25T12:19:20Z</time>
      </trkpt>
      <trkpt lat="49.90502" lon="1.93964">
        <ele>80.9</ele>
        <time>2022-05-25T12:19:21Z</time>
      </trkpt>
      <trkpt lat="49.90503" lon="1.93963">
        <ele>81</ele>
        <time>2022-05-25T12:19:22Z</time>
      </trkpt>
      <trkpt lat="49.90504" lon="1.93962">
        <ele>81.1</ele>
        <time>2022-05-25T12:19:23Z</time>
      </trkpt>
      <trkpt lat="49.90505" lon="1.93961">
        <ele>81.1</ele>
        <time>2022-05-25T12:19:24Z</time>
      </trkpt>
      <trkpt lat="49.90506" lon="1.93961">
        <ele>81.2</ele>
        <time>2022-05-25T12:19:26Z</time>
      </trkpt>
      <trkpt lat="49.90508" lon="1.9396">
        <ele>81.2</ele>
        <time>2022-05-25T12:19:27Z</time>
      </trkpt>
      <trkpt lat="49.90509" lon="1.9396">
        <ele>81.3</ele>
        <time>2022-05-25T12:19:28Z</time>
      </trkpt>
      <trkpt lat="49.90511" lon="1.93959">
        <ele>81.4</ele>
        <time>2022-05-25T12:19:29Z</time>
      </trkpt>
      <trkpt lat="49.90512" lon="1.93958">
        <ele>81.4</ele>
        <time>2022-05-25T12:19:30Z</time>
      </trkpt>
      <trkpt lat="49.90513" lon="1.93958">
        <ele>81.4</ele>
        <time>2022-05-25T12:19:31Z</time>
      </trkpt>
      <trkpt lat="49.90515" lon="1.93958">
        <ele>81.5</ele>
        <time>2022-05-25T12:19:33Z</time>
      </trkpt>
      <trkpt lat="49.90516" lon="1.93958">
        <ele>81.5</ele>
        <time>2022-05-25T12:19:34Z</time>
      </trkpt>
      <trkpt lat="49.90516" lon="1.93957">
        <ele>81.6</ele>
        <time>2022-05-25T12:19:35Z</time>
      </trkpt>
      <trkpt lat="49.90518" lon="1.93957">
        <ele>81.6</ele>
        <time>2022-05-25T12:19:36Z</time>
      </trkpt>
      <trkpt lat="49.90519" lon="1.93956">
        <ele>81.7</ele>
        <time>2022-05-25T12:19:37Z</time>
      </trkpt>
      <trkpt lat="49.90519" lon="1.93955">
        <ele>81.7</ele>
        <time>2022-05-25T12:19:38Z</time>
      </trkpt>
      <trkpt lat="49.90521" lon="1.93954">
        <ele>81.8</ele>
        <time>2022-05-25T12:19:40Z</time>
      </trkpt>
      <trkpt lat="49.90522" lon="1.93953">
        <ele>81.8</ele>
        <time>2022-05-25T12:19:41Z</time>
      </trkpt>
      <trkpt lat="49.90523" lon="1.93952">
        <ele>81.9</ele>
        <time>2022-05-25T12:19:42Z</time>
      </trkpt>
      <trkpt lat="49.90525" lon="1.9395">
        <ele>82</ele>
        <time>2022-05-25T12:19:43Z</time>
      </trkpt>
      <trkpt lat="49.90525" lon="1.93949">
        <ele>82</ele>
        <time>2022-05-25T12:19:45Z</time>
      </trkpt>
      <trkpt lat="49.90526" lon="1.93949">
        <ele>82.1</ele>
        <time>2022-05-25T12:19:46Z</time>
      </trkpt>
      <trkpt lat="49.90528" lon="1.93948">
        <ele>82.1</ele>
        <time>2022-05-25T12:19:47Z</time>
      </trkpt>
      <trkpt lat="49.90529" lon="1.93947">
        <ele>82.2</ele>
        <time>2022-05-25T12:19:48Z</time>
      </trkpt>
      <trkpt lat="49.9053" lon="1.93947">
        <ele>82.2</ele>
        <time>2022-05-25T12:19:49Z</time>
      </trkpt>
      <trkpt lat="49.90531" lon="1.93946">
        <ele>82.3</ele>
        <time>2022-05-25T12:19:50Z</time>
      </trkpt>
      <trkpt lat="49.90532" lon="1.93945">
        <ele>82.3</ele>
        <time>2022-05-25T12:19:52Z</time>
      </trkpt>
      <trkpt lat="49.90534" lon="1.93942">
        <ele>82.5</ele>
        <time>2022-05-25T12:19:53Z</time>
      </trkpt>
      <trkpt lat="49.90535" lon="1.93942">
        <ele>82.5</ele>
        <time>2022-05-25T12:19:54Z</time>
      </trkpt>
      <trkpt lat="49.90535" lon="1.93941">
        <ele>82.5</ele>
        <time>2022-05-25T12:19:55Z</time>
      </trkpt>
      <trkpt lat="49.90536" lon="1.9394">
        <ele>82.6</ele>
        <time>2022-05-25T12:19:56Z</time>
      </trkpt>
      <trkpt lat="49.90537" lon="1.9394">
        <ele>82.6</ele>
        <time>2022-05-25T12:19:57Z</time>
      </trkpt>
      <trkpt lat="49.90538" lon="1.93939">
        <ele>82.6</ele>
        <time>2022-05-25T12:19:59Z</time>
      </trkpt>
      <trkpt lat="49.90539" lon="1.93938">
        <ele>82.7</ele>
        <time>2022-05-25T12:20:00Z</time>
      </trkpt>
      <trkpt lat="49.9054" lon="1.93938">
        <ele>82.7</ele>
        <time>2022-05-25T12:20:01Z</time>
      </trkpt>
      <trkpt lat="49.90541" lon="1.93936">
        <ele>82.8</ele>
        <time>2022-05-25T12:20:02Z</time>
      </trkpt>
      <trkpt lat="49.90543" lon="1.93935">
        <ele>82.9</ele>
        <time>2022-05-25T12:20:03Z</time>
      </trkpt>
      <trkpt lat="49.90544" lon="1.93934">
        <ele>82.9</ele>
        <time>2022-05-25T12:20:04Z</time>
      </trkpt>
      <trkpt lat="49.90545" lon="1.93933">
        <ele>83</ele>
        <time>2022-05-25T12:20:06Z</time>
      </trkpt>
      <trkpt lat="49.90545" lon="1.93932">
        <ele>83</ele>
        <time>2022-05-25T12:20:07Z</time>
      </trkpt>
      <trkpt lat="49.90546" lon="1.93931">
        <ele>83</ele>
        <time>2022-05-25T12:20:08Z</time>
      </trkpt>
      <trkpt lat="49.90547" lon="1.9393">
        <ele>83.1</ele>
        <time>2022-05-25T12:20:09Z</time>
      </trkpt>
      <trkpt lat="49.90549" lon="1.93929">
        <ele>83.2</ele>
        <time>2022-05-25T12:20:10Z</time>
      </trkpt>
      <trkpt lat="49.9055" lon="1.93928">
        <ele>83.2</ele>
        <time>2022-05-25T12:20:11Z</time>
      </trkpt>
      <trkpt lat="49.90551" lon="1.93927">
        <ele>83.3</ele>
        <time>2022-05-25T12:20:12Z</time>
      </trkpt>
      <trkpt lat="49.90551" lon="1.93926">
        <ele>83.3</ele>
        <time>2022-05-25T12:20:14Z</time>
      </trkpt>
      <trkpt lat="49.90552" lon="1.93925">
        <ele>83.3</ele>
        <time>2022-05-25T12:20:15Z</time>
      </trkpt>
      <trkpt lat="49.90553" lon="1.93924">
        <ele>83.4</ele>
        <time>2022-05-25T12:20:16Z</time>
      </trkpt>
      <trkpt lat="49.90555" lon="1.93923">
        <ele>83.5</ele>
        <time>2022-05-25T12:20:17Z</time>
      </trkpt>
      <trkpt lat="49.90556" lon="1.93923">
        <ele>83.5</ele>
        <time>2022-05-25T12:20:18Z</time>
      </trkpt>
      <trkpt lat="49.90558" lon="1.93922">
        <ele>83.6</ele>
        <time>2022-05-25T12:20:19Z</time>
      </trkpt>
      <trkpt lat="49.90559" lon="1.93922">
        <ele>83.6</ele>
        <time>2022-05-25T12:20:21Z</time>
      </trkpt>
      <trkpt lat="49.9056" lon="1.93922">
        <ele>83.7</ele>
        <time>2022-05-25T12:20:22Z</time>
      </trkpt>
      <trkpt lat="49.90561" lon="1.93921">
        <ele>83.7</ele>
        <time>2022-05-25T12:20:23Z</time>
      </trkpt>
      <trkpt lat="49.90562" lon="1.9392">
        <ele>83.8</ele>
        <time>2022-05-25T12:20:24Z</time>
      </trkpt>
      <trkpt lat="49.90563" lon="1.9392">
        <ele>83.8</ele>
        <time>2022-05-25T12:20:25Z</time>
      </trkpt>
      <trkpt lat="49.90564" lon="1.93919">
        <ele>83.9</ele>
        <time>2022-05-25T12:20:26Z</time>
      </trkpt>
      <trkpt lat="49.90566" lon="1.93918">
        <ele>83.9</ele>
        <time>2022-05-25T12:20:28Z</time>
      </trkpt>
      <trkpt lat="49.90566" lon="1.93917">
        <ele>84</ele>
        <time>2022-05-25T12:20:29Z</time>
      </trkpt>
      <trkpt lat="49.90567" lon="1.93916">
        <ele>84</ele>
        <time>2022-05-25T12:20:30Z</time>
      </trkpt>
      <trkpt lat="49.90568" lon="1.93915">
        <ele>84</ele>
        <time>2022-05-25T12:20:31Z</time>
      </trkpt>
      <trkpt lat="49.9057" lon="1.93914">
        <ele>84.1</ele>
        <time>2022-05-25T12:20:32Z</time>
      </trkpt>
      <trkpt lat="49.90571" lon="1.93914">
        <ele>84.1</ele>
        <time>2022-05-25T12:20:33Z</time>
      </trkpt>
      <trkpt lat="49.90572" lon="1.93913">
        <ele>84.2</ele>
        <time>2022-05-25T12:20:35Z</time>
      </trkpt>
      <trkpt lat="49.90573" lon="1.93912">
        <ele>84.3</ele>
        <time>2022-05-25T12:20:36Z</time>
      </trkpt>
      <trkpt lat="49.90574" lon="1.93911">
        <ele>84.3</ele>
        <time>2022-05-25T12:20:37Z</time>
      </trkpt>
      <trkpt lat="49.90575" lon="1.93911">
        <ele>84.3</ele>
        <time>2022-05-25T12:20:38Z</time>
      </trkpt>
      <trkpt lat="49.90577" lon="1.93909">
        <ele>84.4</ele>
        <time>2022-05-25T12:20:39Z</time>
      </trkpt>
      <trkpt lat="49.90578" lon="1.93908">
        <ele>84.4</ele>
        <time>2022-05-25T12:20:40Z</time>
      </trkpt>
      <trkpt lat="49.90579" lon="1.93907">
        <ele>84.5</ele>
        <time>2022-05-25T12:20:42Z</time>
      </trkpt>
      <trkpt lat="49.90579" lon="1.93907">
        <ele>84.5</ele>
        <time>2022-05-25T12:20:43Z</time>
      </trkpt>
      <trkpt lat="49.9058" lon="1.93906">
        <ele>84.6</ele>
        <time>2022-05-25T12:20:44Z</time>
      </trkpt>
      <trkpt lat="49.90581" lon="1.93905">
        <ele>84.6</ele>
        <time>2022-05-25T12:20:45Z</time>
      </trkpt>
      <trkpt lat="49.90582" lon="1.93905">
        <ele>84.6</ele>
        <time>2022-05-25T12:20:46Z</time>
      </trkpt>
      <trkpt lat="49.90584" lon="1.93904">
        <ele>84.7</ele>
        <time>2022-05-25T12:20:47Z</time>
      </trkpt>
      <trkpt lat="49.90585" lon="1.93903">
        <ele>84.7</ele>
        <time>2022-05-25T12:20:49Z</time>
      </trkpt>
      <trkpt lat="49.90586" lon="1.93903">
        <ele>84.8</ele>
        <time>2022-05-25T12:20:50Z</time>
      </trkpt>
      <trkpt lat="49.90587" lon="1.93902">
        <ele>84.8</ele>
        <time>2022-05-25T12:20:51Z</time>
      </trkpt>
      <trkpt lat="49.90588" lon="1.93902">
        <ele>84.9</ele>
        <time>2022-05-25T12:20:52Z</time>
      </trkpt>
      <trkpt lat="49.90589" lon="1.939">
        <ele>84.9</ele>
        <time>2022-05-25T12:20:53Z</time>
      </trkpt>
      <trkpt lat="49.90589" lon="1.93899">
        <ele>85</ele>
        <time>2022-05-25T12:20:55Z</time>
      </trkpt>
      <trkpt lat="49.90589" lon="1.93897">
        <ele>85</ele>
        <time>2022-05-25T12:20:56Z</time>
      </trkpt>
      <trkpt lat="49.90588" lon="1.93894">
        <ele>85.1</ele>
        <time>2022-05-25T12:20:57Z</time>
      </trkpt>
      <trkpt lat="49.90587" lon="1.93893">
        <ele>85.1</ele>
        <time>2022-05-25T12:20:58Z</time>
      </trkpt>
      <trkpt lat="49.90587" lon="1.93892">
        <ele>85.2</ele>
        <time>2022-05-25T12:20:59Z</time>
      </trkpt>
      <trkpt lat="49.90587" lon="1.93891">
        <ele>85.2</ele>
        <time>2022-05-25T12:21:00Z</time>
      </trkpt>
      <trkpt lat="49.90587" lon="1.9389">
        <ele>85.2</ele>
        <time>2022-05-25T12:21:01Z</time>
      </trkpt>
      <trkpt lat="49.90586" lon="1.93888">
        <ele>85.3</ele>
        <time>2022-05-25T12:21:03Z</time>
      </trkpt>
      <trkpt lat="49.90585" lon="1.93889">
        <ele>85.3</ele>
        <time>2022-05-25T12:21:05Z</time>
      </trkpt>
      <trkpt lat="49.90585" lon="1.93889">
        <ele>85.4</ele>
        <time>2022-05-25T12:21:06Z</time>
      </trkpt>
      <trkpt lat="49.90584" lon="1.93889">
        <ele>85.4</ele>
        <time>2022-05-25T12:21:07Z</time>
      </trkpt>
      <trkpt lat="49.90584" lon="1.9389">
        <ele>85.4</ele>
        <time>2022-05-25T12:21:08Z</time>
      </trkpt>
      <trkpt lat="49.90584" lon="1.9389">
        <ele>85.4</ele>
        <time>2022-05-25T12:21:10Z</time>
      </trkpt>
      <trkpt lat="49.90584" lon="1.9389">
        <ele>85.4</ele>
        <time>2022-05-25T12:21:11Z</time>
      </trkpt>
      <trkpt lat="49.90584" lon="1.9389">
        <ele>85.4</ele>
        <time>2022-05-25T12:21:12Z</time>
      </trkpt>
      <trkpt lat="49.90585" lon="1.9389">
        <ele>85.4</ele>
        <time>2022-05-25T12:21:13Z</time>
      </trkpt>
      <trkpt lat="49.90585" lon="1.9389">
        <ele>85.4</ele>
        <time>2022-05-25T12:21:15Z</time>
      </trkpt>
      <trkpt lat="49.90585" lon="1.9389">
        <ele>85.4</ele>
        <time>2022-05-25T12:21:17Z</time>
      </trkpt>
      <trkpt lat="49.90585" lon="1.9389">
        <ele>85.5</ele>
        <time>2022-05-25T12:21:18Z</time>
      </trkpt>
      <trkpt lat="49.90586" lon="1.9389">
        <ele>85.5</ele>
        <time>2022-05-25T12:21:19Z</time>
      </trkpt>
      <trkpt lat="49.90586" lon="1.9389">
        <ele>85.5</ele>
        <time>2022-05-25T12:21:20Z</time>
      </trkpt>
      <trkpt lat="49.90586" lon="1.93891">
        <ele>85.5</ele>
        <time>2022-05-25T12:21:21Z</time>
      </trkpt>
      <trkpt lat="49.90586" lon="1.93891">
        <ele>85.5</ele>
        <time>2022-05-25T12:21:23Z</time>
      </trkpt>
      <trkpt lat="49.90586" lon="1.93892">
        <ele>85.5</ele>
        <time>2022-05-25T12:21:24Z</time>
      </trkpt>
      <trkpt lat="49.90586" lon="1.93892">
        <ele>85.5</ele>
        <time>2022-05-25T12:21:25Z</time>
      </trkpt>
      <trkpt lat="49.90586" lon="1.93892">
        <ele>85.5</ele>
        <time>2022-05-25T12:21:26Z</time>
      </trkpt>
      <trkpt lat="49.90586" lon="1.93892">
        <ele>85.5</ele>
        <time>2022-05-25T12:21:28Z</time>
      </trkpt>
      <trkpt lat="49.90587" lon="1.93893">
        <ele>85.6</ele>
        <time>2022-05-25T12:21:29Z</time>
      </trkpt>
      <trkpt lat="49.90587" lon="1.93893">
        <ele>85.6</ele>
        <time>2022-05-25T12:21:30Z</time>
      </trkpt>
      <trkpt lat="49.90587" lon="1.93893">
        <ele>85.6</ele>
        <time>2022-05-25T12:21:31Z</time>
      </trkpt>
      <trkpt lat="49.90587" lon="1.93894">
        <ele>85.6</ele>
        <time>2022-05-25T12:21:32Z</time>
      </trkpt>
      <trkpt lat="49.90588" lon="1.93894">
        <ele>85.6</ele>
        <time>2022-05-25T12:21:33Z</time>
      </trkpt>
      <trkpt lat="49.90589" lon="1.93894">
        <ele>85.7</ele>
        <time>2022-05-25T12:21:34Z</time>
      </trkpt>
      <trkpt lat="49.9059" lon="1.93893">
        <ele>85.8</ele>
        <time>2022-05-25T12:21:36Z</time>
      </trkpt>
      <trkpt lat="49.90592" lon="1.93892">
        <ele>85.9</ele>
        <time>2022-05-25T12:21:37Z</time>
      </trkpt>
      <trkpt lat="49.90594" lon="1.93892">
        <ele>85.9</ele>
        <time>2022-05-25T12:21:38Z</time>
      </trkpt>
      <trkpt lat="49.90594" lon="1.93891">
        <ele>85.9</ele>
        <time>2022-05-25T12:21:39Z</time>
      </trkpt>
      <trkpt lat="49.90595" lon="1.93891">
        <ele>86</ele>
        <time>2022-05-25T12:21:41Z</time>
      </trkpt>
      <trkpt lat="49.90596" lon="1.9389">
        <ele>86</ele>
        <time>2022-05-25T12:21:42Z</time>
      </trkpt>
      <trkpt lat="49.90598" lon="1.9389">
        <ele>86.1</ele>
        <time>2022-05-25T12:21:43Z</time>
      </trkpt>
      <trkpt lat="49.906" lon="1.93888">
        <ele>86.2</ele>
        <time>2022-05-25T12:21:45Z</time>
      </trkpt>
      <trkpt lat="49.906" lon="1.93887">
        <ele>86.3</ele>
        <time>2022-05-25T12:21:47Z</time>
      </trkpt>
      <trkpt lat="49.90602" lon="1.93886">
        <ele>86.3</ele>
        <time>2022-05-25T12:21:48Z</time>
      </trkpt>
      <trkpt lat="49.90603" lon="1.93885">
        <ele>86.4</ele>
        <time>2022-05-25T12:21:49Z</time>
      </trkpt>
      <trkpt lat="49.90604" lon="1.93885">
        <ele>86.4</ele>
        <time>2022-05-25T12:21:50Z</time>
      </trkpt>
      <trkpt lat="49.90604" lon="1.93884">
        <ele>86.4</ele>
        <time>2022-05-25T12:21:51Z</time>
      </trkpt>
      <trkpt lat="49.90605" lon="1.93883">
        <ele>86.5</ele>
        <time>2022-05-25T12:21:53Z</time>
      </trkpt>
      <trkpt lat="49.90606" lon="1.93883">
        <ele>86.5</ele>
        <time>2022-05-25T12:21:54Z</time>
      </trkpt>
      <trkpt lat="49.90606" lon="1.93882">
        <ele>86.6</ele>
        <time>2022-05-25T12:21:55Z</time>
      </trkpt>
      <trkpt lat="49.90608" lon="1.9388">
        <ele>86.6</ele>
        <time>2022-05-25T12:21:56Z</time>
      </trkpt>
      <trkpt lat="49.90608" lon="1.9388">
        <ele>86.7</ele>
        <time>2022-05-25T12:21:57Z</time>
      </trkpt>
      <trkpt lat="49.90609" lon="1.93879">
        <ele>86.7</ele>
        <time>2022-05-25T12:21:59Z</time>
      </trkpt>
      <trkpt lat="49.90609" lon="1.93878">
        <ele>86.7</ele>
        <time>2022-05-25T12:22:00Z</time>
      </trkpt>
      <trkpt lat="49.9061" lon="1.93877">
        <ele>86.8</ele>
        <time>2022-05-25T12:22:01Z</time>
      </trkpt>
      <trkpt lat="49.90611" lon="1.93876">
        <ele>86.8</ele>
        <time>2022-05-25T12:22:02Z</time>
      </trkpt>
      <trkpt lat="49.90612" lon="1.93875">
        <ele>86.9</ele>
        <time>2022-05-25T12:22:04Z</time>
      </trkpt>
      <trkpt lat="49.90613" lon="1.93875">
        <ele>86.9</ele>
        <time>2022-05-25T12:22:05Z</time>
      </trkpt>
      <trkpt lat="49.90614" lon="1.93874">
        <ele>87</ele>
        <time>2022-05-25T12:22:06Z</time>
      </trkpt>
      <trkpt lat="49.90615" lon="1.93873">
        <ele>87</ele>
        <time>2022-05-25T12:22:07Z</time>
      </trkpt>
      <trkpt lat="49.90616" lon="1.93873">
        <ele>87.1</ele>
        <time>2022-05-25T12:22:09Z</time>
      </trkpt>
      <trkpt lat="49.90618" lon="1.93873">
        <ele>87.1</ele>
        <time>2022-05-25T12:22:10Z</time>
      </trkpt>
      <trkpt lat="49.90619" lon="1.93873">
        <ele>87.2</ele>
        <time>2022-05-25T12:22:12Z</time>
      </trkpt>
      <trkpt lat="49.9062" lon="1.93873">
        <ele>87.2</ele>
        <time>2022-05-25T12:22:13Z</time>
      </trkpt>
      <trkpt lat="49.9062" lon="1.93873">
        <ele>87.2</ele>
        <time>2022-05-25T12:22:14Z</time>
      </trkpt>
      <trkpt lat="49.90621" lon="1.93873">
        <ele>87.3</ele>
        <time>2022-05-25T12:22:15Z</time>
      </trkpt>
      <trkpt lat="49.90622" lon="1.93873">
        <ele>87.3</ele>
        <time>2022-05-25T12:22:16Z</time>
      </trkpt>
      <trkpt lat="49.90623" lon="1.93873">
        <ele>87.3</ele>
        <time>2022-05-25T12:22:17Z</time>
      </trkpt>
      <trkpt lat="49.90624" lon="1.93872">
        <ele>87.4</ele>
        <time>2022-05-25T12:22:19Z</time>
      </trkpt>
      <trkpt lat="49.90625" lon="1.93872">
        <ele>87.4</ele>
        <time>2022-05-25T12:22:20Z</time>
      </trkpt>
      <trkpt lat="49.90626" lon="1.93871">
        <ele>87.4</ele>
        <time>2022-05-25T12:22:21Z</time>
      </trkpt>
      <trkpt lat="49.90626" lon="1.93871">
        <ele>87.4</ele>
        <time>2022-05-25T12:22:22Z</time>
      </trkpt>
      <trkpt lat="49.90627" lon="1.9387">
        <ele>87.4</ele>
        <time>2022-05-25T12:22:24Z</time>
      </trkpt>
      <trkpt lat="49.90628" lon="1.9387">
        <ele>87.5</ele>
        <time>2022-05-25T12:22:26Z</time>
      </trkpt>
      <trkpt lat="49.90629" lon="1.9387">
        <ele>87.5</ele>
        <time>2022-05-25T12:22:27Z</time>
      </trkpt>
      <trkpt lat="49.90629" lon="1.9387">
        <ele>87.5</ele>
        <time>2022-05-25T12:22:28Z</time>
      </trkpt>
      <trkpt lat="49.9063" lon="1.9387">
        <ele>87.5</ele>
        <time>2022-05-25T12:22:29Z</time>
      </trkpt>
      <trkpt lat="49.9063" lon="1.93871">
        <ele>87.5</ele>
        <time>2022-05-25T12:22:30Z</time>
      </trkpt>
      <trkpt lat="49.9063" lon="1.93871">
        <ele>87.5</ele>
        <time>2022-05-25T12:22:31Z</time>
      </trkpt>
      <trkpt lat="49.90629" lon="1.93871">
        <ele>87.5</ele>
        <time>2022-05-25T12:22:32Z</time>
      </trkpt>
      <trkpt lat="49.90629" lon="1.93871">
        <ele>87.5</ele>
        <time>2022-05-25T12:22:33Z</time>
      </trkpt>
      <trkpt lat="49.90629" lon="1.93871">
        <ele>87.5</ele>
        <time>2022-05-25T12:22:35Z</time>
      </trkpt>
      <trkpt lat="49.90629" lon="1.93871">
        <ele>87.5</ele>
        <time>2022-05-25T12:22:36Z</time>
      </trkpt>
      <trkpt lat="49.90629" lon="1.93871">
        <ele>87.5</ele>
        <time>2022-05-25T12:22:37Z</time>
      </trkpt>
      <trkpt lat="49.90629" lon="1.93871">
        <ele>87.5</ele>
        <time>2022-05-25T12:22:38Z</time>
      </trkpt>
      <trkpt lat="49.90629" lon="1.93871">
        <ele>87.5</ele>
        <time>2022-05-25T12:22:39Z</time>
      </trkpt>
      <trkpt lat="49.90629" lon="1.93871">
        <ele>87.5</ele>
        <time>2022-05-25T12:22:40Z</time>
      </trkpt>
      <trkpt lat="49.90629" lon="1.93871">
        <ele>87.5</ele>
        <time>2022-05-25T12:22:41Z</time>
      </trkpt>
      <trkpt lat="49.90629" lon="1.93871">
        <ele>87.5</ele>
        <time>2022-05-25T12:22:42Z</time>
      </trkpt>
      <trkpt lat="49.90629" lon="1.93871">
        <ele>87.5</ele>
        <time>2022-05-25T12:22:43Z</time>
      </trkpt>
      <trkpt lat="49.90628" lon="1.93871">
        <ele>87.5</ele>
        <time>2022-05-25T12:22:45Z</time>
      </trkpt>
      <trkpt lat="49.90628" lon="1.93871">
        <ele>87.5</ele>
        <time>2022-05-25T12:22:46Z</time>
      </trkpt>
      <trkpt lat="49.90628" lon="1.93871">
        <ele>87.5</ele>
        <time>2022-05-25T12:22:47Z</time>
      </trkpt>
      <trkpt lat="49.90628" lon="1.93871">
        <ele>87.5</ele>
        <time>2022-05-25T12:22:48Z</time>
      </trkpt>
      <trkpt lat="49.90628" lon="1.93871">
        <ele>87.5</ele>
        <time>2022-05-25T12:22:49Z</time>
      </trkpt>
      <trkpt lat="49.90627" lon="1.93871">
        <ele>87.5</ele>
        <time>2022-05-25T12:22:50Z</time>
      </trkpt>
      <trkpt lat="49.90627" lon="1.93871">
        <ele>87.5</ele>
        <time>2022-05-25T12:22:51Z</time>
      </trkpt>
      <trkpt lat="49.90627" lon="1.93871">
        <ele>87.5</ele>
        <time>2022-05-25T12:22:52Z</time>
      </trkpt>
      <trkpt lat="49.90627" lon="1.93871">
        <ele>87.5</ele>
        <time>2022-05-25T12:22:53Z</time>
      </trkpt>
      <trkpt lat="49.90627" lon="1.93871">
        <ele>87.5</ele>
        <time>2022-05-25T12:22:54Z</time>
      </trkpt>
      <trkpt lat="49.90627" lon="1.93871">
        <ele>87.5</ele>
        <time>2022-05-25T12:22:55Z</time>
      </trkpt>
      <trkpt lat="49.90627" lon="1.93871">
        <ele>87.5</ele>
        <time>2022-05-25T12:22:56Z</time>
      </trkpt>
      <trkpt lat="49.90627" lon="1.93871">
        <ele>87.5</ele>
        <time>2022-05-25T12:22:57Z</time>
      </trkpt>
      <trkpt lat="49.90627" lon="1.93871">
        <ele>87.5</ele>
        <time>2022-05-25T12:22:58Z</time>
      </trkpt>
      <trkpt lat="49.90627" lon="1.93871">
        <ele>87.5</ele>
        <time>2022-05-25T12:22:59Z</time>
      </trkpt>
      <trkpt lat="49.90627" lon="1.93871">
        <ele>87.5</ele>
        <time>2022-05-25T12:23:00Z</time>
      </trkpt>
      <trkpt lat="49.90627" lon="1.93871">
        <ele>87.5</ele>
        <time>2022-05-25T12:23:01Z</time>
      </trkpt>
      <trkpt lat="49.90627" lon="1.93871">
        <ele>87.5</ele>
        <time>2022-05-25T12:23:02Z</time>
      </trkpt>
      <trkpt lat="49.90627" lon="1.93871">
        <ele>87.5</ele>
        <time>2022-05-25T12:23:03Z</time>
      </trkpt>
      <trkpt lat="49.90627" lon="1.93871">
        <ele>87.5</ele>
        <time>2022-05-25T12:23:04Z</time>
      </trkpt>
      <trkpt lat="49.90627" lon="1.93871">
        <ele>87.5</ele>
        <time>2022-05-25T12:23:05Z</time>
      </trkpt>
      <trkpt lat="49.90627" lon="1.93871">
        <ele>87.5</ele>
        <time>2022-05-25T12:23:06Z</time>
      </trkpt>
      <trkpt lat="49.90627" lon="1.93871">
        <ele>87.5</ele>
        <time>2022-05-25T12:23:07Z</time>
      </trkpt>
      <trkpt lat="49.90627" lon="1.93871">
        <ele>87.5</ele>
        <time>2022-05-25T12:23:08Z</time>
      </trkpt>
      <trkpt lat="49.90627" lon="1.93871">
        <ele>87.5</ele>
        <time>2022-05-25T12:23:09Z</time>
      </trkpt>
      <trkpt lat="49.90627" lon="1.93871">
        <ele>87.5</ele>
        <time>2022-05-25T12:23:10Z</time>
      </trkpt>
      <trkpt lat="49.90627" lon="1.93871">
        <ele>87.5</ele>
        <time>2022-05-25T12:23:11Z</time>
      </trkpt>
      <trkpt lat="49.90627" lon="1.93871">
        <ele>87.5</ele>
        <time>2022-05-25T12:23:12Z</time>
      </trkpt>
      <trkpt lat="49.90627" lon="1.93871">
        <ele>87.5</ele>
        <time>2022-05-25T12:23:13Z</time>
      </trkpt>
      <trkpt lat="49.90627" lon="1.93871">
        <ele>87.5</ele>
        <time>2022-05-25T12:23:14Z</time>
      </trkpt>
      <trkpt lat="49.90627" lon="1.93871">
        <ele>87.5</ele>
        <time>2022-05-25T12:23:15Z</time>
      </trkpt>
      <trkpt lat="49.90627" lon="1.93871">
        <ele>87.5</ele>
        <time>2022-05-25T12:23:16Z</time>
      </trkpt>
      <trkpt lat="49.90627" lon="1.93871">
        <ele>87.5</ele>
        <time>2022-05-25T12:23:17Z</time>
      </trkpt>
      <trkpt lat="49.90627" lon="1.93871">
        <ele>87.5</ele>
        <time>2022-05-25T12:23:18Z</time>
      </trkpt>
      <trkpt lat="49.90627" lon="1.93871">
        <ele>87.5</ele>
        <time>2022-05-25T12:23:19Z</time>
      </trkpt>
      <trkpt lat="49.90627" lon="1.93871">
        <ele>87.5</ele>
        <time>2022-05-25T12:23:20Z</time>
      </trkpt>
      <trkpt lat="49.90627" lon="1.93871">
        <ele>87.5</ele>
        <time>2022-05-25T12:23:21Z</time>
      </trkpt>
      <trkpt lat="49.90627" lon="1.93871">
        <ele>87.5</ele>
        <time>2022-05-25T12:23:22Z</time>
      </trkpt>
      <trkpt lat="49.90627" lon="1.93871">
        <ele>87.5</ele>
        <time>2022-05-25T12:23:23Z</time>
      </trkpt>
      <trkpt lat="49.90629" lon="1.9387">
        <ele>87.6</ele>
        <time>2022-05-25T12:23:24Z</time>
      </trkpt>
      <trkpt lat="49.90631" lon="1.93868">
        <ele>87.6</ele>
        <time>2022-05-25T12:23:25Z</time>
      </trkpt>
      <trkpt lat="49.90631" lon="1.93868">
        <ele>87.6</ele>
        <time>2022-05-25T12:23:26Z</time>
      </trkpt>
      <trkpt lat="49.90631" lon="1.93868">
        <ele>87.6</ele>
        <time>2022-05-25T12:23:27Z</time>
      </trkpt>
      <trkpt lat="49.90631" lon="1.93867">
        <ele>87.6</ele>
        <time>2022-05-25T12:23:28Z</time>
      </trkpt>
      <trkpt lat="49.90631" lon="1.93868">
        <ele>87.6</ele>
        <time>2022-05-25T12:23:29Z</time>
      </trkpt>
      <trkpt lat="49.90631" lon="1.93868">
        <ele>87.6</ele>
        <time>2022-05-25T12:23:30Z</time>
      </trkpt>
      <trkpt lat="49.90631" lon="1.93868">
        <ele>87.6</ele>
        <time>2022-05-25T12:23:31Z</time>
      </trkpt>
      <trkpt lat="49.90631" lon="1.93868">
        <ele>87.6</ele>
        <time>2022-05-25T12:23:32Z</time>
      </trkpt>
      <trkpt lat="49.90631" lon="1.93868">
        <ele>87.6</ele>
        <time>2022-05-25T12:23:33Z</time>
      </trkpt>
      <trkpt lat="49.90631" lon="1.93868">
        <ele>87.6</ele>
        <time>2022-05-25T12:23:34Z</time>
      </trkpt>
      <trkpt lat="49.90631" lon="1.93868">
        <ele>87.6</ele>
        <time>2022-05-25T12:23:35Z</time>
      </trkpt>
      <trkpt lat="49.90631" lon="1.93867">
        <ele>87.6</ele>
        <time>2022-05-25T12:23:36Z</time>
      </trkpt>
      <trkpt lat="49.90631" lon="1.93867">
        <ele>87.6</ele>
        <time>2022-05-25T12:23:37Z</time>
      </trkpt>
      <trkpt lat="49.90631" lon="1.93867">
        <ele>87.6</ele>
        <time>2022-05-25T12:23:38Z</time>
      </trkpt>
      <trkpt lat="49.90632" lon="1.93868">
        <ele>87.6</ele>
        <time>2022-05-25T12:23:39Z</time>
      </trkpt>
      <trkpt lat="49.90632" lon="1.93867">
        <ele>87.6</ele>
        <time>2022-05-25T12:23:40Z</time>
      </trkpt>
      <trkpt lat="49.90633" lon="1.93865">
        <ele>87.6</ele>
        <time>2022-05-25T12:23:41Z</time>
      </trkpt>
      <trkpt lat="49.90633" lon="1.93863">
        <ele>87.5</ele>
        <time>2022-05-25T12:23:43Z</time>
      </trkpt>
      <trkpt lat="49.90632" lon="1.93857">
        <ele>87.4</ele>
        <time>2022-05-25T12:23:44Z</time>
      </trkpt>
      <trkpt lat="49.90632" lon="1.93855">
        <ele>87.3</ele>
        <time>2022-05-25T12:23:46Z</time>
      </trkpt>
      <trkpt lat="49.90631" lon="1.93853">
        <ele>87.3</ele>
        <time>2022-05-25T12:23:47Z</time>
      </trkpt>
      <trkpt lat="49.9063" lon="1.93851">
        <ele>87.3</ele>
        <time>2022-05-25T12:23:48Z</time>
      </trkpt>
      <trkpt lat="49.90628" lon="1.9385">
        <ele>87.2</ele>
        <time>2022-05-25T12:23:49Z</time>
      </trkpt>
      <trkpt lat="49.90627" lon="1.93849">
        <ele>87.2</ele>
        <time>2022-05-25T12:23:51Z</time>
      </trkpt>
      <trkpt lat="49.90626" lon="1.93848">
        <ele>87.1</ele>
        <time>2022-05-25T12:23:52Z</time>
      </trkpt>
      <trkpt lat="49.90626" lon="1.93846">
        <ele>87.1</ele>
        <time>2022-05-25T12:23:53Z</time>
      </trkpt>
      <trkpt lat="49.90625" lon="1.93844">
        <ele>87</ele>
        <time>2022-05-25T12:23:55Z</time>
      </trkpt>
      <trkpt lat="49.90624" lon="1.93843">
        <ele>87</ele>
        <time>2022-05-25T12:23:56Z</time>
      </trkpt>
      <trkpt lat="49.90624" lon="1.93843">
        <ele>87</ele>
        <time>2022-05-25T12:23:57Z</time>
      </trkpt>
      <trkpt lat="49.90623" lon="1.93843">
        <ele>86.9</ele>
        <time>2022-05-25T12:23:59Z</time>
      </trkpt>
      <trkpt lat="49.90621" lon="1.93842">
        <ele>86.9</ele>
        <time>2022-05-25T12:24:00Z</time>
      </trkpt>
      <trkpt lat="49.9062" lon="1.93842">
        <ele>86.9</ele>
        <time>2022-05-25T12:24:01Z</time>
      </trkpt>
      <trkpt lat="49.90619" lon="1.93842">
        <ele>86.8</ele>
        <time>2022-05-25T12:24:02Z</time>
      </trkpt>
      <trkpt lat="49.90618" lon="1.93841">
        <ele>86.8</ele>
        <time>2022-05-25T12:24:04Z</time>
      </trkpt>
      <trkpt lat="49.90617" lon="1.9384">
        <ele>86.8</ele>
        <time>2022-05-25T12:24:05Z</time>
      </trkpt>
      <trkpt lat="49.90615" lon="1.93839">
        <ele>86.7</ele>
        <time>2022-05-25T12:24:07Z</time>
      </trkpt>
      <trkpt lat="49.90614" lon="1.93838">
        <ele>86.7</ele>
        <time>2022-05-25T12:24:08Z</time>
      </trkpt>
      <trkpt lat="49.90612" lon="1.93837">
        <ele>86.7</ele>
        <time>2022-05-25T12:24:10Z</time>
      </trkpt>
      <trkpt lat="49.9061" lon="1.93836">
        <ele>86.6</ele>
        <time>2022-05-25T12:24:11Z</time>
      </trkpt>
      <trkpt lat="49.90609" lon="1.93835">
        <ele>86.6</ele>
        <time>2022-05-25T12:24:13Z</time>
      </trkpt>
      <trkpt lat="49.90608" lon="1.93834">
        <ele>86.6</ele>
        <time>2022-05-25T12:24:14Z</time>
      </trkpt>
      <trkpt lat="49.90606" lon="1.93833">
        <ele>86.6</ele>
        <time>2022-05-25T12:24:15Z</time>
      </trkpt>
      <trkpt lat="49.90605" lon="1.93832">
        <ele>86.6</ele>
        <time>2022-05-25T12:24:16Z</time>
      </trkpt>
      <trkpt lat="49.90603" lon="1.9383">
        <ele>86.5</ele>
        <time>2022-05-25T12:24:17Z</time>
      </trkpt>
      <trkpt lat="49.90602" lon="1.93829">
        <ele>86.5</ele>
        <time>2022-05-25T12:24:18Z</time>
      </trkpt>
      <trkpt lat="49.90601" lon="1.93828">
        <ele>86.5</ele>
        <time>2022-05-25T12:24:19Z</time>
      </trkpt>
      <trkpt lat="49.906" lon="1.93827">
        <ele>86.5</ele>
        <time>2022-05-25T12:24:21Z</time>
      </trkpt>
      <trkpt lat="49.90599" lon="1.93826">
        <ele>86.5</ele>
        <time>2022-05-25T12:24:22Z</time>
      </trkpt>
      <trkpt lat="49.90599" lon="1.93825">
        <ele>86.5</ele>
        <time>2022-05-25T12:24:23Z</time>
      </trkpt>
      <trkpt lat="49.90598" lon="1.93824">
        <ele>86.5</ele>
        <time>2022-05-25T12:24:24Z</time>
      </trkpt>
      <trkpt lat="49.90596" lon="1.93822">
        <ele>86.5</ele>
        <time>2022-05-25T12:24:25Z</time>
      </trkpt>
      <trkpt lat="49.90596" lon="1.93821">
        <ele>86.5</ele>
        <time>2022-05-25T12:24:26Z</time>
      </trkpt>
      <trkpt lat="49.90596" lon="1.9382">
        <ele>86.5</ele>
        <time>2022-05-25T12:24:27Z</time>
      </trkpt>
      <trkpt lat="49.90595" lon="1.93818">
        <ele>86.5</ele>
        <time>2022-05-25T12:24:28Z</time>
      </trkpt>
      <trkpt lat="49.90594" lon="1.93816">
        <ele>86.5</ele>
        <time>2022-05-25T12:24:29Z</time>
      </trkpt>
      <trkpt lat="49.90594" lon="1.93815">
        <ele>86.5</ele>
        <time>2022-05-25T12:24:30Z</time>
      </trkpt>
      <trkpt lat="49.90593" lon="1.93814">
        <ele>86.5</ele>
        <time>2022-05-25T12:24:31Z</time>
      </trkpt>
      <trkpt lat="49.90592" lon="1.93812">
        <ele>86.5</ele>
        <time>2022-05-25T12:24:32Z</time>
      </trkpt>
      <trkpt lat="49.90591" lon="1.93811">
        <ele>86.5</ele>
        <time>2022-05-25T12:24:34Z</time>
      </trkpt>
      <trkpt lat="49.9059" lon="1.9381">
        <ele>86.6</ele>
        <time>2022-05-25T12:24:35Z</time>
      </trkpt>
      <trkpt lat="49.90589" lon="1.93809">
        <ele>86.6</ele>
        <time>2022-05-25T12:24:36Z</time>
      </trkpt>
      <trkpt lat="49.90588" lon="1.93808">
        <ele>86.6</ele>
        <time>2022-05-25T12:24:37Z</time>
      </trkpt>
      <trkpt lat="49.90587" lon="1.93808">
        <ele>86.6</ele>
        <time>2022-05-25T12:24:38Z</time>
      </trkpt>
      <trkpt lat="49.90586" lon="1.93807">
        <ele>86.6</ele>
        <time>2022-05-25T12:24:39Z</time>
      </trkpt>
      <trkpt lat="49.90585" lon="1.93806">
        <ele>86.6</ele>
        <time>2022-05-25T12:24:41Z</time>
      </trkpt>
      <trkpt lat="49.90583" lon="1.93805">
        <ele>86.6</ele>
        <time>2022-05-25T12:24:42Z</time>
      </trkpt>
      <trkpt lat="49.90582" lon="1.93804">
        <ele>86.7</ele>
        <time>2022-05-25T12:24:43Z</time>
      </trkpt>
      <trkpt lat="49.9058" lon="1.93802">
        <ele>86.7</ele>
        <time>2022-05-25T12:24:44Z</time>
      </trkpt>
      <trkpt lat="49.90579" lon="1.93802">
        <ele>86.7</ele>
        <time>2022-05-25T12:24:45Z</time>
      </trkpt>
      <trkpt lat="49.90579" lon="1.93801">
        <ele>86.7</ele>
        <time>2022-05-25T12:24:46Z</time>
      </trkpt>
      <trkpt lat="49.90577" lon="1.938">
        <ele>86.8</ele>
        <time>2022-05-25T12:24:48Z</time>
      </trkpt>
      <trkpt lat="49.90576" lon="1.93799">
        <ele>86.8</ele>
        <time>2022-05-25T12:24:49Z</time>
      </trkpt>
      <trkpt lat="49.90575" lon="1.93798">
        <ele>86.8</ele>
        <time>2022-05-25T12:24:50Z</time>
      </trkpt>
      <trkpt lat="49.90574" lon="1.93798">
        <ele>86.8</ele>
        <time>2022-05-25T12:24:51Z</time>
      </trkpt>
      <trkpt lat="49.90573" lon="1.93797">
        <ele>86.9</ele>
        <time>2022-05-25T12:24:52Z</time>
      </trkpt>
      <trkpt lat="49.90572" lon="1.93796">
        <ele>86.9</ele>
        <time>2022-05-25T12:24:53Z</time>
      </trkpt>
      <trkpt lat="49.90571" lon="1.93795">
        <ele>86.9</ele>
        <time>2022-05-25T12:24:54Z</time>
      </trkpt>
      <trkpt lat="49.9057" lon="1.93794">
        <ele>86.9</ele>
        <time>2022-05-25T12:24:56Z</time>
      </trkpt>
      <trkpt lat="49.9057" lon="1.93794">
        <ele>86.9</ele>
        <time>2022-05-25T12:24:57Z</time>
      </trkpt>
      <trkpt lat="49.90569" lon="1.93793">
        <ele>87</ele>
        <time>2022-05-25T12:24:58Z</time>
      </trkpt>
      <trkpt lat="49.90568" lon="1.93792">
        <ele>87</ele>
        <time>2022-05-25T12:24:59Z</time>
      </trkpt>
      <trkpt lat="49.90566" lon="1.9379">
        <ele>87.1</ele>
        <time>2022-05-25T12:25:00Z</time>
      </trkpt>
      <trkpt lat="49.90565" lon="1.93788">
        <ele>87.1</ele>
        <time>2022-05-25T12:25:01Z</time>
      </trkpt>
      <trkpt lat="49.90564" lon="1.93788">
        <ele>87.1</ele>
        <time>2022-05-25T12:25:02Z</time>
      </trkpt>
      <trkpt lat="49.90564" lon="1.93787">
        <ele>87.2</ele>
        <time>2022-05-25T12:25:03Z</time>
      </trkpt>
      <trkpt lat="49.90563" lon="1.93785">
        <ele>87.2</ele>
        <time>2022-05-25T12:25:04Z</time>
      </trkpt>
      <trkpt lat="49.90561" lon="1.93784">
        <ele>87.2</ele>
        <time>2022-05-25T12:25:05Z</time>
      </trkpt>
      <trkpt lat="49.9056" lon="1.93783">
        <ele>87.3</ele>
        <time>2022-05-25T12:25:07Z</time>
      </trkpt>
      <trkpt lat="49.90559" lon="1.93781">
        <ele>87.3</ele>
        <time>2022-05-25T12:25:08Z</time>
      </trkpt>
      <trkpt lat="49.90558" lon="1.9378">
        <ele>87.4</ele>
        <time>2022-05-25T12:25:09Z</time>
      </trkpt>
      <trkpt lat="49.90556" lon="1.93778">
        <ele>87.4</ele>
        <time>2022-05-25T12:25:10Z</time>
      </trkpt>
      <trkpt lat="49.90554" lon="1.93776">
        <ele>87.5</ele>
        <time>2022-05-25T12:25:12Z</time>
      </trkpt>
      <trkpt lat="49.90554" lon="1.93775">
        <ele>87.6</ele>
        <time>2022-05-25T12:25:13Z</time>
      </trkpt>
      <trkpt lat="49.90553" lon="1.93773">
        <ele>87.6</ele>
        <time>2022-05-25T12:25:14Z</time>
      </trkpt>
      <trkpt lat="49.90551" lon="1.93771">
        <ele>87.7</ele>
        <time>2022-05-25T12:25:16Z</time>
      </trkpt>
      <trkpt lat="49.90551" lon="1.9377">
        <ele>87.7</ele>
        <time>2022-05-25T12:25:17Z</time>
      </trkpt>
      <trkpt lat="49.9055" lon="1.93769">
        <ele>87.7</ele>
        <time>2022-05-25T12:25:18Z</time>
      </trkpt>
      <trkpt lat="49.90549" lon="1.93768">
        <ele>87.8</ele>
        <time>2022-05-25T12:25:20Z</time>
      </trkpt>
      <trkpt lat="49.90548" lon="1.93767">
        <ele>87.8</ele>
        <time>2022-05-25T12:25:21Z</time>
      </trkpt>
      <trkpt lat="49.90547" lon="1.93766">
        <ele>87.9</ele>
        <time>2022-05-25T12:25:22Z</time>
      </trkpt>
      <trkpt lat="49.90546" lon="1.93765">
        <ele>87.9</ele>
        <time>2022-05-25T12:25:23Z</time>
      </trkpt>
      <trkpt lat="49.90545" lon="1.93764">
        <ele>88</ele>
        <time>2022-05-25T12:25:24Z</time>
      </trkpt>
      <trkpt lat="49.90545" lon="1.93764">
        <ele>88</ele>
        <time>2022-05-25T12:25:25Z</time>
      </trkpt>
      <trkpt lat="49.90543" lon="1.93762">
        <ele>88.1</ele>
        <time>2022-05-25T12:25:26Z</time>
      </trkpt>
      <trkpt lat="49.90542" lon="1.93761">
        <ele>88.1</ele>
        <time>2022-05-25T12:25:27Z</time>
      </trkpt>
      <trkpt lat="49.90542" lon="1.93761">
        <ele>88.1</ele>
        <time>2022-05-25T12:25:28Z</time>
      </trkpt>
      <trkpt lat="49.90541" lon="1.9376">
        <ele>88.2</ele>
        <time>2022-05-25T12:25:30Z</time>
      </trkpt>
      <trkpt lat="49.9054" lon="1.93759">
        <ele>88.2</ele>
        <time>2022-05-25T12:25:31Z</time>
      </trkpt>
      <trkpt lat="49.90539" lon="1.93758">
        <ele>88.3</ele>
        <time>2022-05-25T12:25:32Z</time>
      </trkpt>
      <trkpt lat="49.90537" lon="1.93757">
        <ele>88.3</ele>
        <time>2022-05-25T12:25:33Z</time>
      </trkpt>
      <trkpt lat="49.90536" lon="1.93756">
        <ele>88.4</ele>
        <time>2022-05-25T12:25:35Z</time>
      </trkpt>
      <trkpt lat="49.90535" lon="1.93754">
        <ele>88.4</ele>
        <time>2022-05-25T12:25:36Z</time>
      </trkpt>
      <trkpt lat="49.90534" lon="1.93753">
        <ele>88.5</ele>
        <time>2022-05-25T12:25:37Z</time>
      </trkpt>
      <trkpt lat="49.90532" lon="1.93751">
        <ele>88.6</ele>
        <time>2022-05-25T12:25:38Z</time>
      </trkpt>
      <trkpt lat="49.90531" lon="1.9375">
        <ele>88.6</ele>
        <time>2022-05-25T12:25:39Z</time>
      </trkpt>
      <trkpt lat="49.9053" lon="1.93748">
        <ele>88.8</ele>
        <time>2022-05-25T12:25:40Z</time>
      </trkpt>
      <trkpt lat="49.90529" lon="1.93748">
        <ele>88.8</ele>
        <time>2022-05-25T12:25:41Z</time>
      </trkpt>
      <trkpt lat="49.90528" lon="1.93747">
        <ele>88.9</ele>
        <time>2022-05-25T12:25:42Z</time>
      </trkpt>
      <trkpt lat="49.90527" lon="1.93745">
        <ele>88.9</ele>
        <time>2022-05-25T12:25:43Z</time>
      </trkpt>
      <trkpt lat="49.90526" lon="1.93744">
        <ele>89</ele>
        <time>2022-05-25T12:25:44Z</time>
      </trkpt>
      <trkpt lat="49.90524" lon="1.93743">
        <ele>89.1</ele>
        <time>2022-05-25T12:25:46Z</time>
      </trkpt>
      <trkpt lat="49.90523" lon="1.93742">
        <ele>89.2</ele>
        <time>2022-05-25T12:25:47Z</time>
      </trkpt>
      <trkpt lat="49.90522" lon="1.93741">
        <ele>89.3</ele>
        <time>2022-05-25T12:25:48Z</time>
      </trkpt>
      <trkpt lat="49.90521" lon="1.9374">
        <ele>89.3</ele>
        <time>2022-05-25T12:25:50Z</time>
      </trkpt>
      <trkpt lat="49.9052" lon="1.93739">
        <ele>89.4</ele>
        <time>2022-05-25T12:25:51Z</time>
      </trkpt>
      <trkpt lat="49.90518" lon="1.93738">
        <ele>89.5</ele>
        <time>2022-05-25T12:25:52Z</time>
      </trkpt>
      <trkpt lat="49.90517" lon="1.93736">
        <ele>89.6</ele>
        <time>2022-05-25T12:25:53Z</time>
      </trkpt>
      <trkpt lat="49.90515" lon="1.93734">
        <ele>89.8</ele>
        <time>2022-05-25T12:25:55Z</time>
      </trkpt>
      <trkpt lat="49.90514" lon="1.93733">
        <ele>89.8</ele>
        <time>2022-05-25T12:25:56Z</time>
      </trkpt>
      <trkpt lat="49.90514" lon="1.93732">
        <ele>89.9</ele>
        <time>2022-05-25T12:25:57Z</time>
      </trkpt>
      <trkpt lat="49.90512" lon="1.9373">
        <ele>90</ele>
        <time>2022-05-25T12:25:58Z</time>
      </trkpt>
      <trkpt lat="49.90511" lon="1.93729">
        <ele>90.1</ele>
        <time>2022-05-25T12:25:59Z</time>
      </trkpt>
      <trkpt lat="49.9051" lon="1.93728">
        <ele>90.2</ele>
        <time>2022-05-25T12:26:01Z</time>
      </trkpt>
      <trkpt lat="49.90509" lon="1.93727">
        <ele>90.3</ele>
        <time>2022-05-25T12:26:02Z</time>
      </trkpt>
      <trkpt lat="49.90506" lon="1.93724">
        <ele>90.5</ele>
        <time>2022-05-25T12:26:03Z</time>
      </trkpt>
      <trkpt lat="49.90505" lon="1.93722">
        <ele>90.6</ele>
        <time>2022-05-25T12:26:05Z</time>
      </trkpt>
      <trkpt lat="49.90504" lon="1.93722">
        <ele>90.7</ele>
        <time>2022-05-25T12:26:06Z</time>
      </trkpt>
      <trkpt lat="49.90503" lon="1.93721">
        <ele>90.7</ele>
        <time>2022-05-25T12:26:07Z</time>
      </trkpt>
      <trkpt lat="49.90502" lon="1.9372">
        <ele>90.8</ele>
        <time>2022-05-25T12:26:08Z</time>
      </trkpt>
      <trkpt lat="49.90501" lon="1.93718">
        <ele>90.9</ele>
        <time>2022-05-25T12:26:09Z</time>
      </trkpt>
      <trkpt lat="49.905" lon="1.93717">
        <ele>91</ele>
        <time>2022-05-25T12:26:10Z</time>
      </trkpt>
      <trkpt lat="49.90499" lon="1.93716">
        <ele>91</ele>
        <time>2022-05-25T12:26:12Z</time>
      </trkpt>
      <trkpt lat="49.90498" lon="1.93715">
        <ele>91.1</ele>
        <time>2022-05-25T12:26:13Z</time>
      </trkpt>
      <trkpt lat="49.90497" lon="1.93713">
        <ele>91.2</ele>
        <time>2022-05-25T12:26:14Z</time>
      </trkpt>
      <trkpt lat="49.90497" lon="1.93712">
        <ele>91.3</ele>
        <time>2022-05-25T12:26:15Z</time>
      </trkpt>
      <trkpt lat="49.90496" lon="1.93711">
        <ele>91.3</ele>
        <time>2022-05-25T12:26:16Z</time>
      </trkpt>
      <trkpt lat="49.90495" lon="1.93709">
        <ele>91.5</ele>
        <time>2022-05-25T12:26:17Z</time>
      </trkpt>
      <trkpt lat="49.90494" lon="1.93708">
        <ele>91.5</ele>
        <time>2022-05-25T12:26:18Z</time>
      </trkpt>
      <trkpt lat="49.90493" lon="1.93707">
        <ele>91.6</ele>
        <time>2022-05-25T12:26:20Z</time>
      </trkpt>
      <trkpt lat="49.90492" lon="1.93706">
        <ele>91.6</ele>
        <time>2022-05-25T12:26:21Z</time>
      </trkpt>
      <trkpt lat="49.90491" lon="1.93705">
        <ele>91.7</ele>
        <time>2022-05-25T12:26:22Z</time>
      </trkpt>
      <trkpt lat="49.90491" lon="1.93704">
        <ele>91.8</ele>
        <time>2022-05-25T12:26:23Z</time>
      </trkpt>
      <trkpt lat="49.9049" lon="1.93703">
        <ele>91.8</ele>
        <time>2022-05-25T12:26:25Z</time>
      </trkpt>
      <trkpt lat="49.90489" lon="1.93702">
        <ele>91.9</ele>
        <time>2022-05-25T12:26:26Z</time>
      </trkpt>
      <trkpt lat="49.90488" lon="1.93701">
        <ele>92</ele>
        <time>2022-05-25T12:26:27Z</time>
      </trkpt>
      <trkpt lat="49.90487" lon="1.93699">
        <ele>92.1</ele>
        <time>2022-05-25T12:26:28Z</time>
      </trkpt>
      <trkpt lat="49.90486" lon="1.93698">
        <ele>92.1</ele>
        <time>2022-05-25T12:26:29Z</time>
      </trkpt>
      <trkpt lat="49.90484" lon="1.93697">
        <ele>92.2</ele>
        <time>2022-05-25T12:26:30Z</time>
      </trkpt>
      <trkpt lat="49.90483" lon="1.93696">
        <ele>92.3</ele>
        <time>2022-05-25T12:26:31Z</time>
      </trkpt>
      <trkpt lat="49.90482" lon="1.93696">
        <ele>92.4</ele>
        <time>2022-05-25T12:26:33Z</time>
      </trkpt>
      <trkpt lat="49.90481" lon="1.93694">
        <ele>92.5</ele>
        <time>2022-05-25T12:26:34Z</time>
      </trkpt>
      <trkpt lat="49.9048" lon="1.93693">
        <ele>92.5</ele>
        <time>2022-05-25T12:26:35Z</time>
      </trkpt>
      <trkpt lat="49.90479" lon="1.93693">
        <ele>92.6</ele>
        <time>2022-05-25T12:26:36Z</time>
      </trkpt>
      <trkpt lat="49.90479" lon="1.93692">
        <ele>92.6</ele>
        <time>2022-05-25T12:26:37Z</time>
      </trkpt>
      <trkpt lat="49.90478" lon="1.93691">
        <ele>92.7</ele>
        <time>2022-05-25T12:26:38Z</time>
      </trkpt>
      <trkpt lat="49.90477" lon="1.9369">
        <ele>92.8</ele>
        <time>2022-05-25T12:26:39Z</time>
      </trkpt>
      <trkpt lat="49.90476" lon="1.93689">
        <ele>92.8</ele>
        <time>2022-05-25T12:26:41Z</time>
      </trkpt>
      <trkpt lat="49.90475" lon="1.93688">
        <ele>92.9</ele>
        <time>2022-05-25T12:26:42Z</time>
      </trkpt>
      <trkpt lat="49.90474" lon="1.93687">
        <ele>93</ele>
        <time>2022-05-25T12:26:43Z</time>
      </trkpt>
      <trkpt lat="49.90472" lon="1.93686">
        <ele>93.1</ele>
        <time>2022-05-25T12:26:44Z</time>
      </trkpt>
      <trkpt lat="49.90471" lon="1.93685">
        <ele>93.2</ele>
        <time>2022-05-25T12:26:45Z</time>
      </trkpt>
      <trkpt lat="49.9047" lon="1.93684">
        <ele>93.3</ele>
        <time>2022-05-25T12:26:46Z</time>
      </trkpt>
      <trkpt lat="49.90469" lon="1.93683">
        <ele>93.3</ele>
        <time>2022-05-25T12:26:47Z</time>
      </trkpt>
      <trkpt lat="49.90468" lon="1.93682">
        <ele>93.4</ele>
        <time>2022-05-25T12:26:49Z</time>
      </trkpt>
      <trkpt lat="49.90467" lon="1.93681">
        <ele>93.5</ele>
        <time>2022-05-25T12:26:50Z</time>
      </trkpt>
      <trkpt lat="49.90466" lon="1.9368">
        <ele>93.6</ele>
        <time>2022-05-25T12:26:51Z</time>
      </trkpt>
      <trkpt lat="49.90465" lon="1.93679">
        <ele>93.7</ele>
        <time>2022-05-25T12:26:52Z</time>
      </trkpt>
      <trkpt lat="49.90464" lon="1.93677">
        <ele>93.8</ele>
        <time>2022-05-25T12:26:53Z</time>
      </trkpt>
      <trkpt lat="49.90463" lon="1.93676">
        <ele>93.8</ele>
        <time>2022-05-25T12:26:55Z</time>
      </trkpt>
      <trkpt lat="49.90462" lon="1.93675">
        <ele>93.9</ele>
        <time>2022-05-25T12:26:56Z</time>
      </trkpt>
      <trkpt lat="49.90461" lon="1.93675">
        <ele>94</ele>
        <time>2022-05-25T12:26:57Z</time>
      </trkpt>
      <trkpt lat="49.9046" lon="1.93671">
        <ele>94.1</ele>
        <time>2022-05-25T12:26:58Z</time>
      </trkpt>
      <trkpt lat="49.9046" lon="1.9367">
        <ele>94.2</ele>
        <time>2022-05-25T12:26:59Z</time>
      </trkpt>
      <trkpt lat="49.9046" lon="1.93669">
        <ele>94.2</ele>
        <time>2022-05-25T12:27:00Z</time>
      </trkpt>
      <trkpt lat="49.9046" lon="1.93667">
        <ele>94.3</ele>
        <time>2022-05-25T12:27:02Z</time>
      </trkpt>
      <trkpt lat="49.90459" lon="1.93667">
        <ele>94.3</ele>
        <time>2022-05-25T12:27:03Z</time>
      </trkpt>
      <trkpt lat="49.90458" lon="1.93666">
        <ele>94.4</ele>
        <time>2022-05-25T12:27:04Z</time>
      </trkpt>
      <trkpt lat="49.90457" lon="1.93666">
        <ele>94.5</ele>
        <time>2022-05-25T12:27:05Z</time>
      </trkpt>
      <trkpt lat="49.90456" lon="1.93666">
        <ele>94.5</ele>
        <time>2022-05-25T12:27:06Z</time>
      </trkpt>
      <trkpt lat="49.90455" lon="1.93665">
        <ele>94.6</ele>
        <time>2022-05-25T12:27:07Z</time>
      </trkpt>
      <trkpt lat="49.90453" lon="1.93664">
        <ele>94.7</ele>
        <time>2022-05-25T12:27:08Z</time>
      </trkpt>
      <trkpt lat="49.90453" lon="1.93663">
        <ele>94.7</ele>
        <time>2022-05-25T12:27:10Z</time>
      </trkpt>
      <trkpt lat="49.90453" lon="1.93661">
        <ele>94.8</ele>
        <time>2022-05-25T12:27:11Z</time>
      </trkpt>
      <trkpt lat="49.90452" lon="1.9366">
        <ele>94.8</ele>
        <time>2022-05-25T12:27:12Z</time>
      </trkpt>
      <trkpt lat="49.90451" lon="1.93659">
        <ele>94.9</ele>
        <time>2022-05-25T12:27:13Z</time>
      </trkpt>
      <trkpt lat="49.9045" lon="1.93658">
        <ele>95</ele>
        <time>2022-05-25T12:27:14Z</time>
      </trkpt>
      <trkpt lat="49.9045" lon="1.93657">
        <ele>95</ele>
        <time>2022-05-25T12:27:16Z</time>
      </trkpt>
      <trkpt lat="49.90449" lon="1.93656">
        <ele>95.1</ele>
        <time>2022-05-25T12:27:17Z</time>
      </trkpt>
      <trkpt lat="49.90448" lon="1.93656">
        <ele>95.1</ele>
        <time>2022-05-25T12:27:18Z</time>
      </trkpt>
      <trkpt lat="49.90448" lon="1.93656">
        <ele>95.1</ele>
        <time>2022-05-25T12:27:19Z</time>
      </trkpt>
      <trkpt lat="49.90447" lon="1.93656">
        <ele>95.2</ele>
        <time>2022-05-25T12:27:20Z</time>
      </trkpt>
      <trkpt lat="49.90446" lon="1.93655">
        <ele>95.2</ele>
        <time>2022-05-25T12:27:21Z</time>
      </trkpt>
      <trkpt lat="49.90445" lon="1.93654">
        <ele>95.3</ele>
        <time>2022-05-25T12:27:22Z</time>
      </trkpt>
      <trkpt lat="49.90444" lon="1.93653">
        <ele>95.3</ele>
        <time>2022-05-25T12:27:23Z</time>
      </trkpt>
      <trkpt lat="49.90442" lon="1.93652">
        <ele>95.4</ele>
        <time>2022-05-25T12:27:24Z</time>
      </trkpt>
      <trkpt lat="49.90441" lon="1.9365">
        <ele>95.5</ele>
        <time>2022-05-25T12:27:25Z</time>
      </trkpt>
      <trkpt lat="49.9044" lon="1.93649">
        <ele>95.5</ele>
        <time>2022-05-25T12:27:26Z</time>
      </trkpt>
      <trkpt lat="49.90439" lon="1.93648">
        <ele>95.6</ele>
        <time>2022-05-25T12:27:28Z</time>
      </trkpt>
      <trkpt lat="49.90438" lon="1.93646">
        <ele>95.7</ele>
        <time>2022-05-25T12:27:29Z</time>
      </trkpt>
      <trkpt lat="49.90437" lon="1.93645">
        <ele>95.7</ele>
        <time>2022-05-25T12:27:31Z</time>
      </trkpt>
      <trkpt lat="49.90436" lon="1.93643">
        <ele>95.8</ele>
        <time>2022-05-25T12:27:33Z</time>
      </trkpt>
      <trkpt lat="49.90435" lon="1.93642">
        <ele>95.8</ele>
        <time>2022-05-25T12:27:34Z</time>
      </trkpt>
      <trkpt lat="49.90434" lon="1.93641">
        <ele>95.9</ele>
        <time>2022-05-25T12:27:35Z</time>
      </trkpt>
      <trkpt lat="49.90433" lon="1.9364">
        <ele>95.9</ele>
        <time>2022-05-25T12:27:36Z</time>
      </trkpt>
      <trkpt lat="49.90432" lon="1.93639">
        <ele>96</ele>
        <time>2022-05-25T12:27:38Z</time>
      </trkpt>
      <trkpt lat="49.90431" lon="1.93638">
        <ele>96.1</ele>
        <time>2022-05-25T12:27:39Z</time>
      </trkpt>
      <trkpt lat="49.9043" lon="1.93636">
        <ele>96.1</ele>
        <time>2022-05-25T12:27:40Z</time>
      </trkpt>
      <trkpt lat="49.9043" lon="1.93635">
        <ele>96.2</ele>
        <time>2022-05-25T12:27:42Z</time>
      </trkpt>
      <trkpt lat="49.9043" lon="1.93635">
        <ele>96.2</ele>
        <time>2022-05-25T12:27:43Z</time>
      </trkpt>
      <trkpt lat="49.9043" lon="1.93633">
        <ele>96.2</ele>
        <time>2022-05-25T12:27:44Z</time>
      </trkpt>
      <trkpt lat="49.9043" lon="1.93632">
        <ele>96.3</ele>
        <time>2022-05-25T12:27:45Z</time>
      </trkpt>
      <trkpt lat="49.90429" lon="1.93631">
        <ele>96.3</ele>
        <time>2022-05-25T12:27:47Z</time>
      </trkpt>
      <trkpt lat="49.90428" lon="1.93629">
        <ele>96.4</ele>
        <time>2022-05-25T12:27:48Z</time>
      </trkpt>
      <trkpt lat="49.90427" lon="1.93628">
        <ele>96.7</ele>
        <time>2022-05-25T12:27:50Z</time>
      </trkpt>
      <trkpt lat="49.90427" lon="1.93627">
        <ele>96.7</ele>
        <time>2022-05-25T12:27:51Z</time>
      </trkpt>
      <trkpt lat="49.90428" lon="1.93626">
        <ele>96.7</ele>
        <time>2022-05-25T12:27:52Z</time>
      </trkpt>
      <trkpt lat="49.90428" lon="1.93626">
        <ele>96.7</ele>
        <time>2022-05-25T12:27:53Z</time>
      </trkpt>
      <trkpt lat="49.90428" lon="1.93626">
        <ele>96.7</ele>
        <time>2022-05-25T12:27:54Z</time>
      </trkpt>
      <trkpt lat="49.90428" lon="1.93627">
        <ele>96.7</ele>
        <time>2022-05-25T12:27:55Z</time>
      </trkpt>
      <trkpt lat="49.90428" lon="1.93627">
        <ele>96.7</ele>
        <time>2022-05-25T12:27:56Z</time>
      </trkpt>
      <trkpt lat="49.90428" lon="1.93627">
        <ele>96.7</ele>
        <time>2022-05-25T12:27:57Z</time>
      </trkpt>
      <trkpt lat="49.90428" lon="1.93627">
        <ele>96.7</ele>
        <time>2022-05-25T12:27:58Z</time>
      </trkpt>
      <trkpt lat="49.90428" lon="1.93628">
        <ele>96.7</ele>
        <time>2022-05-25T12:28:00Z</time>
      </trkpt>
      <trkpt lat="49.90428" lon="1.93628">
        <ele>96.7</ele>
        <time>2022-05-25T12:28:01Z</time>
      </trkpt>
      <trkpt lat="49.90428" lon="1.93628">
        <ele>96.7</ele>
        <time>2022-05-25T12:28:02Z</time>
      </trkpt>
      <trkpt lat="49.90428" lon="1.93628">
        <ele>96.6</ele>
        <time>2022-05-25T12:28:03Z</time>
      </trkpt>
      <trkpt lat="49.90428" lon="1.93628">
        <ele>96.6</ele>
        <time>2022-05-25T12:28:04Z</time>
      </trkpt>
      <trkpt lat="49.90428" lon="1.93629">
        <ele>96.6</ele>
        <time>2022-05-25T12:28:05Z</time>
      </trkpt>
      <trkpt lat="49.90428" lon="1.93629">
        <ele>96.6</ele>
        <time>2022-05-25T12:28:06Z</time>
      </trkpt>
      <trkpt lat="49.90428" lon="1.93629">
        <ele>96.6</ele>
        <time>2022-05-25T12:28:07Z</time>
      </trkpt>
      <trkpt lat="49.90428" lon="1.93629">
        <ele>96.6</ele>
        <time>2022-05-25T12:28:08Z</time>
      </trkpt>
      <trkpt lat="49.90428" lon="1.93629">
        <ele>96.6</ele>
        <time>2022-05-25T12:28:09Z</time>
      </trkpt>
      <trkpt lat="49.90428" lon="1.9363">
        <ele>96.6</ele>
        <time>2022-05-25T12:28:10Z</time>
      </trkpt>
      <trkpt lat="49.90428" lon="1.9363">
        <ele>96.6</ele>
        <time>2022-05-25T12:28:11Z</time>
      </trkpt>
      <trkpt lat="49.90428" lon="1.9363">
        <ele>96.6</ele>
        <time>2022-05-25T12:28:12Z</time>
      </trkpt>
      <trkpt lat="49.90428" lon="1.9363">
        <ele>96.6</ele>
        <time>2022-05-25T12:28:13Z</time>
      </trkpt>
      <trkpt lat="49.90428" lon="1.9363">
        <ele>96.6</ele>
        <time>2022-05-25T12:28:14Z</time>
      </trkpt>
      <trkpt lat="49.90428" lon="1.93631">
        <ele>96.6</ele>
        <time>2022-05-25T12:28:15Z</time>
      </trkpt>
      <trkpt lat="49.90428" lon="1.93631">
        <ele>96.6</ele>
        <time>2022-05-25T12:28:16Z</time>
      </trkpt>
      <trkpt lat="49.90428" lon="1.93631">
        <ele>96.6</ele>
        <time>2022-05-25T12:28:17Z</time>
      </trkpt>
      <trkpt lat="49.90428" lon="1.93631">
        <ele>96.6</ele>
        <time>2022-05-25T12:28:18Z</time>
      </trkpt>
      <trkpt lat="49.90428" lon="1.93631">
        <ele>96.6</ele>
        <time>2022-05-25T12:28:19Z</time>
      </trkpt>
      <trkpt lat="49.90428" lon="1.93632">
        <ele>96.6</ele>
        <time>2022-05-25T12:28:20Z</time>
      </trkpt>
      <trkpt lat="49.90428" lon="1.93632">
        <ele>96.6</ele>
        <time>2022-05-25T12:28:21Z</time>
      </trkpt>
      <trkpt lat="49.90428" lon="1.93632">
        <ele>96.6</ele>
        <time>2022-05-25T12:28:22Z</time>
      </trkpt>
      <trkpt lat="49.90428" lon="1.93632">
        <ele>96.6</ele>
        <time>2022-05-25T12:28:23Z</time>
      </trkpt>
      <trkpt lat="49.90428" lon="1.93632">
        <ele>96.6</ele>
        <time>2022-05-25T12:28:24Z</time>
      </trkpt>
      <trkpt lat="49.90428" lon="1.93633">
        <ele>96.6</ele>
        <time>2022-05-25T12:28:25Z</time>
      </trkpt>
      <trkpt lat="49.90428" lon="1.93633">
        <ele>96.6</ele>
        <time>2022-05-25T12:28:26Z</time>
      </trkpt>
      <trkpt lat="49.90428" lon="1.93633">
        <ele>96.6</ele>
        <time>2022-05-25T12:28:27Z</time>
      </trkpt>
      <trkpt lat="49.90428" lon="1.93633">
        <ele>96.6</ele>
        <time>2022-05-25T12:28:28Z</time>
      </trkpt>
      <trkpt lat="49.90428" lon="1.93634">
        <ele>96.6</ele>
        <time>2022-05-25T12:28:29Z</time>
      </trkpt>
      <trkpt lat="49.90428" lon="1.93634">
        <ele>96.6</ele>
        <time>2022-05-25T12:28:30Z</time>
      </trkpt>
      <trkpt lat="49.90428" lon="1.93634">
        <ele>96.5</ele>
        <time>2022-05-25T12:28:31Z</time>
      </trkpt>
      <trkpt lat="49.90428" lon="1.93634">
        <ele>96.5</ele>
        <time>2022-05-25T12:28:32Z</time>
      </trkpt>
      <trkpt lat="49.90428" lon="1.93634">
        <ele>96.5</ele>
        <time>2022-05-25T12:28:33Z</time>
      </trkpt>
      <trkpt lat="49.90428" lon="1.93635">
        <ele>96.5</ele>
        <time>2022-05-25T12:28:34Z</time>
      </trkpt>
      <trkpt lat="49.90428" lon="1.93635">
        <ele>96.5</ele>
        <time>2022-05-25T12:28:35Z</time>
      </trkpt>
      <trkpt lat="49.90428" lon="1.93635">
        <ele>96.5</ele>
        <time>2022-05-25T12:28:36Z</time>
      </trkpt>
      <trkpt lat="49.90428" lon="1.93635">
        <ele>96.5</ele>
        <time>2022-05-25T12:28:37Z</time>
      </trkpt>
      <trkpt lat="49.90428" lon="1.93635">
        <ele>96.5</ele>
        <time>2022-05-25T12:28:38Z</time>
      </trkpt>
      <trkpt lat="49.90428" lon="1.93636">
        <ele>96.5</ele>
        <time>2022-05-25T12:28:39Z</time>
      </trkpt>
      <trkpt lat="49.90429" lon="1.9363">
        <ele>96.4</ele>
        <time>2022-05-25T12:28:41Z</time>
      </trkpt>
      <trkpt lat="49.90429" lon="1.93629">
        <ele>96.4</ele>
        <time>2022-05-25T12:28:42Z</time>
      </trkpt>
      <trkpt lat="49.90429" lon="1.93629">
        <ele>96.4</ele>
        <time>2022-05-25T12:28:44Z</time>
      </trkpt>
      <trkpt lat="49.90428" lon="1.93629">
        <ele>96.4</ele>
        <time>2022-05-25T12:28:45Z</time>
      </trkpt>
      <trkpt lat="49.90428" lon="1.93628">
        <ele>96.4</ele>
        <time>2022-05-25T12:28:46Z</time>
      </trkpt>
      <trkpt lat="49.90428" lon="1.93626">
        <ele>96.3</ele>
        <time>2022-05-25T12:28:48Z</time>
      </trkpt>
      <trkpt lat="49.90429" lon="1.93625">
        <ele>96.3</ele>
        <time>2022-05-25T12:28:50Z</time>
      </trkpt>
      <trkpt lat="49.9043" lon="1.93624">
        <ele>96.3</ele>
        <time>2022-05-25T12:28:51Z</time>
      </trkpt>
      <trkpt lat="49.90432" lon="1.93623">
        <ele>96.2</ele>
        <time>2022-05-25T12:28:52Z</time>
      </trkpt>
      <trkpt lat="49.90433" lon="1.93622">
        <ele>96.2</ele>
        <time>2022-05-25T12:28:54Z</time>
      </trkpt>
      <trkpt lat="49.90435" lon="1.93621">
        <ele>96.2</ele>
        <time>2022-05-25T12:28:56Z</time>
      </trkpt>
      <trkpt lat="49.90436" lon="1.93621">
        <ele>96.1</ele>
        <time>2022-05-25T12:28:57Z</time>
      </trkpt>
      <trkpt lat="49.90436" lon="1.93621">
        <ele>96.1</ele>
        <time>2022-05-25T12:28:58Z</time>
      </trkpt>
      <trkpt lat="49.90437" lon="1.93621">
        <ele>96.1</ele>
        <time>2022-05-25T12:28:59Z</time>
      </trkpt>
      <trkpt lat="49.90439" lon="1.9362">
        <ele>96</ele>
        <time>2022-05-25T12:29:00Z</time>
      </trkpt>
      <trkpt lat="49.9044" lon="1.9362">
        <ele>96</ele>
        <time>2022-05-25T12:29:01Z</time>
      </trkpt>
      <trkpt lat="49.90441" lon="1.93621">
        <ele>95.9</ele>
        <time>2022-05-25T12:29:02Z</time>
      </trkpt>
      <trkpt lat="49.90442" lon="1.93621">
        <ele>95.9</ele>
        <time>2022-05-25T12:29:04Z</time>
      </trkpt>
      <trkpt lat="49.90443" lon="1.93621">
        <ele>95.9</ele>
        <time>2022-05-25T12:29:05Z</time>
      </trkpt>
      <trkpt lat="49.90444" lon="1.93622">
        <ele>95.8</ele>
        <time>2022-05-25T12:29:06Z</time>
      </trkpt>
      <trkpt lat="49.90445" lon="1.93622">
        <ele>95.8</ele>
        <time>2022-05-25T12:29:07Z</time>
      </trkpt>
      <trkpt lat="49.90445" lon="1.93622">
        <ele>95.8</ele>
        <time>2022-05-25T12:29:09Z</time>
      </trkpt>
      <trkpt lat="49.90446" lon="1.93623">
        <ele>95.7</ele>
        <time>2022-05-25T12:29:10Z</time>
      </trkpt>
      <trkpt lat="49.90447" lon="1.93623">
        <ele>95.7</ele>
        <time>2022-05-25T12:29:11Z</time>
      </trkpt>
      <trkpt lat="49.90448" lon="1.93623">
        <ele>95.7</ele>
        <time>2022-05-25T12:29:12Z</time>
      </trkpt>
      <trkpt lat="49.90449" lon="1.93623">
        <ele>95.6</ele>
        <time>2022-05-25T12:29:13Z</time>
      </trkpt>
      <trkpt lat="49.9045" lon="1.93623">
        <ele>95.6</ele>
        <time>2022-05-25T12:29:15Z</time>
      </trkpt>
      <trkpt lat="49.90451" lon="1.93623">
        <ele>95.5</ele>
        <time>2022-05-25T12:29:16Z</time>
      </trkpt>
      <trkpt lat="49.90452" lon="1.93623">
        <ele>95.5</ele>
        <time>2022-05-25T12:29:17Z</time>
      </trkpt>
      <trkpt lat="49.90453" lon="1.93623">
        <ele>95.5</ele>
        <time>2022-05-25T12:29:18Z</time>
      </trkpt>
      <trkpt lat="49.90454" lon="1.93623">
        <ele>95.4</ele>
        <time>2022-05-25T12:29:19Z</time>
      </trkpt>
      <trkpt lat="49.90455" lon="1.93623">
        <ele>95.4</ele>
        <time>2022-05-25T12:29:20Z</time>
      </trkpt>
      <trkpt lat="49.90456" lon="1.93622">
        <ele>95.3</ele>
        <time>2022-05-25T12:29:21Z</time>
      </trkpt>
      <trkpt lat="49.90457" lon="1.93621">
        <ele>95.3</ele>
        <time>2022-05-25T12:29:23Z</time>
      </trkpt>
      <trkpt lat="49.90458" lon="1.93621">
        <ele>95.2</ele>
        <time>2022-05-25T12:29:24Z</time>
      </trkpt>
      <trkpt lat="49.9046" lon="1.93621">
        <ele>95.1</ele>
        <time>2022-05-25T12:29:25Z</time>
      </trkpt>
      <trkpt lat="49.90461" lon="1.93621">
        <ele>95.1</ele>
        <time>2022-05-25T12:29:26Z</time>
      </trkpt>
      <trkpt lat="49.90462" lon="1.93621">
        <ele>95</ele>
        <time>2022-05-25T12:29:27Z</time>
      </trkpt>
      <trkpt lat="49.90463" lon="1.9362">
        <ele>95</ele>
        <time>2022-05-25T12:29:28Z</time>
      </trkpt>
      <trkpt lat="49.90465" lon="1.9362">
        <ele>94.9</ele>
        <time>2022-05-25T12:29:29Z</time>
      </trkpt>
      <trkpt lat="49.90466" lon="1.93619">
        <ele>94.8</ele>
        <time>2022-05-25T12:29:31Z</time>
      </trkpt>
      <trkpt lat="49.90468" lon="1.93618">
        <ele>94.7</ele>
        <time>2022-05-25T12:29:32Z</time>
      </trkpt>
      <trkpt lat="49.90468" lon="1.93618">
        <ele>94.6</ele>
        <time>2022-05-25T12:29:33Z</time>
      </trkpt>
      <trkpt lat="49.9047" lon="1.93617">
        <ele>94.6</ele>
        <time>2022-05-25T12:29:34Z</time>
      </trkpt>
      <trkpt lat="49.90471" lon="1.93616">
        <ele>94.5</ele>
        <time>2022-05-25T12:29:35Z</time>
      </trkpt>
      <trkpt lat="49.90472" lon="1.93616">
        <ele>94.4</ele>
        <time>2022-05-25T12:29:36Z</time>
      </trkpt>
      <trkpt lat="49.90474" lon="1.93615">
        <ele>94.3</ele>
        <time>2022-05-25T12:29:38Z</time>
      </trkpt>
      <trkpt lat="49.90475" lon="1.93614">
        <ele>94.2</ele>
        <time>2022-05-25T12:29:39Z</time>
      </trkpt>
      <trkpt lat="49.90477" lon="1.93613">
        <ele>94.1</ele>
        <time>2022-05-25T12:29:40Z</time>
      </trkpt>
      <trkpt lat="49.90479" lon="1.93613">
        <ele>94</ele>
        <time>2022-05-25T12:29:41Z</time>
      </trkpt>
      <trkpt lat="49.9048" lon="1.93612">
        <ele>93.9</ele>
        <time>2022-05-25T12:29:42Z</time>
      </trkpt>
      <trkpt lat="49.90482" lon="1.93611">
        <ele>93.8</ele>
        <time>2022-05-25T12:29:43Z</time>
      </trkpt>
      <trkpt lat="49.90483" lon="1.93611">
        <ele>93.7</ele>
        <time>2022-05-25T12:29:44Z</time>
      </trkpt>
      <trkpt lat="49.90485" lon="1.9361">
        <ele>93.6</ele>
        <time>2022-05-25T12:29:45Z</time>
      </trkpt>
      <trkpt lat="49.90486" lon="1.93609">
        <ele>93.5</ele>
        <time>2022-05-25T12:29:46Z</time>
      </trkpt>
      <trkpt lat="49.90488" lon="1.93609">
        <ele>93.4</ele>
        <time>2022-05-25T12:29:47Z</time>
      </trkpt>
      <trkpt lat="49.90489" lon="1.93608">
        <ele>93.3</ele>
        <time>2022-05-25T12:29:48Z</time>
      </trkpt>
      <trkpt lat="49.9049" lon="1.93608">
        <ele>93.3</ele>
        <time>2022-05-25T12:29:50Z</time>
      </trkpt>
      <trkpt lat="49.90491" lon="1.93607">
        <ele>93.2</ele>
        <time>2022-05-25T12:29:51Z</time>
      </trkpt>
      <trkpt lat="49.90492" lon="1.93607">
        <ele>93.1</ele>
        <time>2022-05-25T12:29:52Z</time>
      </trkpt>
      <trkpt lat="49.90493" lon="1.93607">
        <ele>93</ele>
        <time>2022-05-25T12:29:53Z</time>
      </trkpt>
      <trkpt lat="49.90495" lon="1.93606">
        <ele>92.9</ele>
        <time>2022-05-25T12:29:54Z</time>
      </trkpt>
      <trkpt lat="49.90496" lon="1.93606">
        <ele>92.8</ele>
        <time>2022-05-25T12:29:55Z</time>
      </trkpt>
      <trkpt lat="49.90497" lon="1.93606">
        <ele>92.8</ele>
        <time>2022-05-25T12:29:56Z</time>
      </trkpt>
      <trkpt lat="49.90499" lon="1.93605">
        <ele>92.6</ele>
        <time>2022-05-25T12:29:57Z</time>
      </trkpt>
      <trkpt lat="49.90499" lon="1.93605">
        <ele>92.6</ele>
        <time>2022-05-25T12:29:59Z</time>
      </trkpt>
      <trkpt lat="49.905" lon="1.93604">
        <ele>92.5</ele>
        <time>2022-05-25T12:30:00Z</time>
      </trkpt>
      <trkpt lat="49.90501" lon="1.93604">
        <ele>92.4</ele>
        <time>2022-05-25T12:30:01Z</time>
      </trkpt>
      <trkpt lat="49.90503" lon="1.93603">
        <ele>92.3</ele>
        <time>2022-05-25T12:30:02Z</time>
      </trkpt>
      <trkpt lat="49.90504" lon="1.93602">
        <ele>92.2</ele>
        <time>2022-05-25T12:30:03Z</time>
      </trkpt>
      <trkpt lat="49.90505" lon="1.93602">
        <ele>92.1</ele>
        <time>2022-05-25T12:30:04Z</time>
      </trkpt>
      <trkpt lat="49.90505" lon="1.93601">
        <ele>92</ele>
        <time>2022-05-25T12:30:05Z</time>
      </trkpt>
      <trkpt lat="49.90507" lon="1.93601">
        <ele>92</ele>
        <time>2022-05-25T12:30:06Z</time>
      </trkpt>
      <trkpt lat="49.90508" lon="1.936">
        <ele>91.8</ele>
        <time>2022-05-25T12:30:07Z</time>
      </trkpt>
      <trkpt lat="49.90509" lon="1.93599">
        <ele>91.7</ele>
        <time>2022-05-25T12:30:08Z</time>
      </trkpt>
      <trkpt lat="49.9051" lon="1.93598">
        <ele>91.6</ele>
        <time>2022-05-25T12:30:09Z</time>
      </trkpt>
      <trkpt lat="49.90512" lon="1.93597">
        <ele>91.5</ele>
        <time>2022-05-25T12:30:11Z</time>
      </trkpt>
      <trkpt lat="49.90513" lon="1.93597">
        <ele>91.3</ele>
        <time>2022-05-25T12:30:12Z</time>
      </trkpt>
      <trkpt lat="49.90514" lon="1.93597">
        <ele>91.3</ele>
        <time>2022-05-25T12:30:13Z</time>
      </trkpt>
      <trkpt lat="49.90515" lon="1.93597">
        <ele>91.2</ele>
        <time>2022-05-25T12:30:14Z</time>
      </trkpt>
      <trkpt lat="49.90515" lon="1.93597">
        <ele>91.2</ele>
        <time>2022-05-25T12:30:15Z</time>
      </trkpt>
      <trkpt lat="49.90518" lon="1.93597">
        <ele>91</ele>
        <time>2022-05-25T12:30:17Z</time>
      </trkpt>
      <trkpt lat="49.90519" lon="1.93597">
        <ele>90.9</ele>
        <time>2022-05-25T12:30:19Z</time>
      </trkpt>
      <trkpt lat="49.9052" lon="1.93596">
        <ele>90.7</ele>
        <time>2022-05-25T12:30:20Z</time>
      </trkpt>
      <trkpt lat="49.90522" lon="1.93596">
        <ele>90.6</ele>
        <time>2022-05-25T12:30:21Z</time>
      </trkpt>
      <trkpt lat="49.90524" lon="1.93596">
        <ele>90.4</ele>
        <time>2022-05-25T12:30:22Z</time>
      </trkpt>
      <trkpt lat="49.90525" lon="1.93596">
        <ele>90.3</ele>
        <time>2022-05-25T12:30:23Z</time>
      </trkpt>
      <trkpt lat="49.90526" lon="1.93595">
        <ele>90.3</ele>
        <time>2022-05-25T12:30:24Z</time>
      </trkpt>
      <trkpt lat="49.90527" lon="1.93595">
        <ele>90.2</ele>
        <time>2022-05-25T12:30:26Z</time>
      </trkpt>
      <trkpt lat="49.90528" lon="1.93595">
        <ele>90.1</ele>
        <time>2022-05-25T12:30:27Z</time>
      </trkpt>
      <trkpt lat="49.90529" lon="1.93595">
        <ele>90</ele>
        <time>2022-05-25T12:30:28Z</time>
      </trkpt>
      <trkpt lat="49.90531" lon="1.93595">
        <ele>89.9</ele>
        <time>2022-05-25T12:30:29Z</time>
      </trkpt>
      <trkpt lat="49.90532" lon="1.93595">
        <ele>89.8</ele>
        <time>2022-05-25T12:30:30Z</time>
      </trkpt>
      <trkpt lat="49.90532" lon="1.93595">
        <ele>89.7</ele>
        <time>2022-05-25T12:30:31Z</time>
      </trkpt>
      <trkpt lat="49.90533" lon="1.93595">
        <ele>89.6</ele>
        <time>2022-05-25T12:30:32Z</time>
      </trkpt>
      <trkpt lat="49.90534" lon="1.93595">
        <ele>89.6</ele>
        <time>2022-05-25T12:30:33Z</time>
      </trkpt>
      <trkpt lat="49.90535" lon="1.93595">
        <ele>89.5</ele>
        <time>2022-05-25T12:30:34Z</time>
      </trkpt>
      <trkpt lat="49.90536" lon="1.93595">
        <ele>89.4</ele>
        <time>2022-05-25T12:30:36Z</time>
      </trkpt>
      <trkpt lat="49.90537" lon="1.93596">
        <ele>89.3</ele>
        <time>2022-05-25T12:30:37Z</time>
      </trkpt>
      <trkpt lat="49.90538" lon="1.93597">
        <ele>89.2</ele>
        <time>2022-05-25T12:30:38Z</time>
      </trkpt>
      <trkpt lat="49.90539" lon="1.93596">
        <ele>89.1</ele>
        <time>2022-05-25T12:30:39Z</time>
      </trkpt>
      <trkpt lat="49.9054" lon="1.93595">
        <ele>89</ele>
        <time>2022-05-25T12:30:40Z</time>
      </trkpt>
      <trkpt lat="49.90541" lon="1.93594">
        <ele>88.9</ele>
        <time>2022-05-25T12:30:41Z</time>
      </trkpt>
      <trkpt lat="49.90542" lon="1.93592">
        <ele>88.8</ele>
        <time>2022-05-25T12:30:42Z</time>
      </trkpt>
      <trkpt lat="49.90543" lon="1.93591">
        <ele>88.6</ele>
        <time>2022-05-25T12:30:43Z</time>
      </trkpt>
      <trkpt lat="49.90545" lon="1.93589">
        <ele>88.5</ele>
        <time>2022-05-25T12:30:44Z</time>
      </trkpt>
      <trkpt lat="49.90546" lon="1.93588">
        <ele>88.4</ele>
        <time>2022-05-25T12:30:45Z</time>
      </trkpt>
      <trkpt lat="49.90548" lon="1.93587">
        <ele>88.2</ele>
        <time>2022-05-25T12:30:46Z</time>
      </trkpt>
      <trkpt lat="49.90549" lon="1.93586">
        <ele>88.1</ele>
        <time>2022-05-25T12:30:48Z</time>
      </trkpt>
      <trkpt lat="49.90549" lon="1.93586">
        <ele>88.1</ele>
        <time>2022-05-25T12:30:49Z</time>
      </trkpt>
      <trkpt lat="49.90551" lon="1.93585">
        <ele>87.9</ele>
        <time>2022-05-25T12:30:50Z</time>
      </trkpt>
      <trkpt lat="49.90552" lon="1.93584">
        <ele>87.8</ele>
        <time>2022-05-25T12:30:51Z</time>
      </trkpt>
      <trkpt lat="49.90554" lon="1.93584">
        <ele>87.7</ele>
        <time>2022-05-25T12:30:52Z</time>
      </trkpt>
      <trkpt lat="49.90555" lon="1.93583">
        <ele>87.6</ele>
        <time>2022-05-25T12:30:53Z</time>
      </trkpt>
      <trkpt lat="49.90557" lon="1.93582">
        <ele>87.4</ele>
        <time>2022-05-25T12:30:55Z</time>
      </trkpt>
      <trkpt lat="49.90558" lon="1.93581">
        <ele>87.3</ele>
        <time>2022-05-25T12:30:56Z</time>
      </trkpt>
      <trkpt lat="49.90559" lon="1.9358">
        <ele>87.2</ele>
        <time>2022-05-25T12:30:57Z</time>
      </trkpt>
      <trkpt lat="49.9056" lon="1.9358">
        <ele>87.1</ele>
        <time>2022-05-25T12:30:58Z</time>
      </trkpt>
      <trkpt lat="49.90563" lon="1.93579">
        <ele>86.8</ele>
        <time>2022-05-25T12:31:00Z</time>
      </trkpt>
      <trkpt lat="49.90564" lon="1.93578">
        <ele>86.7</ele>
        <time>2022-05-25T12:31:01Z</time>
      </trkpt>
      <trkpt lat="49.90565" lon="1.93578">
        <ele>86.6</ele>
        <time>2022-05-25T12:31:02Z</time>
      </trkpt>
      <trkpt lat="49.90566" lon="1.93577">
        <ele>86.5</ele>
        <time>2022-05-25T12:31:03Z</time>
      </trkpt>
      <trkpt lat="49.90568" lon="1.93577">
        <ele>86.3</ele>
        <time>2022-05-25T12:31:04Z</time>
      </trkpt>
      <trkpt lat="49.90569" lon="1.93576">
        <ele>86.2</ele>
        <time>2022-05-25T12:31:05Z</time>
      </trkpt>
      <trkpt lat="49.9057" lon="1.93576">
        <ele>86.2</ele>
        <time>2022-05-25T12:31:06Z</time>
      </trkpt>
      <trkpt lat="49.90571" lon="1.93576">
        <ele>86.1</ele>
        <time>2022-05-25T12:31:07Z</time>
      </trkpt>
      <trkpt lat="49.90572" lon="1.93576">
        <ele>85.9</ele>
        <time>2022-05-25T12:31:08Z</time>
      </trkpt>
      <trkpt lat="49.90574" lon="1.93575">
        <ele>85.8</ele>
        <time>2022-05-25T12:31:10Z</time>
      </trkpt>
      <trkpt lat="49.90577" lon="1.93574">
        <ele>85.5</ele>
        <time>2022-05-25T12:31:11Z</time>
      </trkpt>
      <trkpt lat="49.90578" lon="1.93574">
        <ele>85.4</ele>
        <time>2022-05-25T12:31:12Z</time>
      </trkpt>
      <trkpt lat="49.9058" lon="1.93574">
        <ele>85.3</ele>
        <time>2022-05-25T12:31:14Z</time>
      </trkpt>
      <trkpt lat="49.90581" lon="1.93574">
        <ele>85.2</ele>
        <time>2022-05-25T12:31:15Z</time>
      </trkpt>
      <trkpt lat="49.90581" lon="1.93573">
        <ele>85.1</ele>
        <time>2022-05-25T12:31:16Z</time>
      </trkpt>
      <trkpt lat="49.90583" lon="1.93573">
        <ele>85</ele>
        <time>2022-05-25T12:31:17Z</time>
      </trkpt>
      <trkpt lat="49.90584" lon="1.93573">
        <ele>84.8</ele>
        <time>2022-05-25T12:31:18Z</time>
      </trkpt>
      <trkpt lat="49.90586" lon="1.93573">
        <ele>84.6</ele>
        <time>2022-05-25T12:31:19Z</time>
      </trkpt>
      <trkpt lat="49.90587" lon="1.93573">
        <ele>84.5</ele>
        <time>2022-05-25T12:31:20Z</time>
      </trkpt>
      <trkpt lat="49.90588" lon="1.93573">
        <ele>84.4</ele>
        <time>2022-05-25T12:31:21Z</time>
      </trkpt>
      <trkpt lat="49.90589" lon="1.93573">
        <ele>84.3</ele>
        <time>2022-05-25T12:31:22Z</time>
      </trkpt>
      <trkpt lat="49.90591" lon="1.93573">
        <ele>84.1</ele>
        <time>2022-05-25T12:31:23Z</time>
      </trkpt>
      <trkpt lat="49.90593" lon="1.93572">
        <ele>83.9</ele>
        <time>2022-05-25T12:31:24Z</time>
      </trkpt>
      <trkpt lat="49.90594" lon="1.93572">
        <ele>83.8</ele>
        <time>2022-05-25T12:31:26Z</time>
      </trkpt>
      <trkpt lat="49.90595" lon="1.93572">
        <ele>83.7</ele>
        <time>2022-05-25T12:31:27Z</time>
      </trkpt>
      <trkpt lat="49.90596" lon="1.93571">
        <ele>83.6</ele>
        <time>2022-05-25T12:31:28Z</time>
      </trkpt>
      <trkpt lat="49.90597" lon="1.93571">
        <ele>83.4</ele>
        <time>2022-05-25T12:31:29Z</time>
      </trkpt>
      <trkpt lat="49.90599" lon="1.93571">
        <ele>83.3</ele>
        <time>2022-05-25T12:31:30Z</time>
      </trkpt>
      <trkpt lat="49.906" lon="1.9357">
        <ele>83.1</ele>
        <time>2022-05-25T12:31:32Z</time>
      </trkpt>
      <trkpt lat="49.90601" lon="1.9357">
        <ele>83</ele>
        <time>2022-05-25T12:31:33Z</time>
      </trkpt>
      <trkpt lat="49.90603" lon="1.93569">
        <ele>82.8</ele>
        <time>2022-05-25T12:31:34Z</time>
      </trkpt>
      <trkpt lat="49.90604" lon="1.93569">
        <ele>82.7</ele>
        <time>2022-05-25T12:31:35Z</time>
      </trkpt>
      <trkpt lat="49.90605" lon="1.93568">
        <ele>82.5</ele>
        <time>2022-05-25T12:31:36Z</time>
      </trkpt>
      <trkpt lat="49.90607" lon="1.93568">
        <ele>82.4</ele>
        <time>2022-05-25T12:31:38Z</time>
      </trkpt>
      <trkpt lat="49.90607" lon="1.93567">
        <ele>82.3</ele>
        <time>2022-05-25T12:31:39Z</time>
      </trkpt>
      <trkpt lat="49.90609" lon="1.93567">
        <ele>82.2</ele>
        <time>2022-05-25T12:31:40Z</time>
      </trkpt>
      <trkpt lat="49.9061" lon="1.93566">
        <ele>82</ele>
        <time>2022-05-25T12:31:41Z</time>
      </trkpt>
      <trkpt lat="49.90613" lon="1.93565">
        <ele>81.8</ele>
        <time>2022-05-25T12:31:42Z</time>
      </trkpt>
      <trkpt lat="49.90614" lon="1.93564">
        <ele>81.7</ele>
        <time>2022-05-25T12:31:44Z</time>
      </trkpt>
      <trkpt lat="49.90615" lon="1.93564">
        <ele>81.5</ele>
        <time>2022-05-25T12:31:45Z</time>
      </trkpt>
      <trkpt lat="49.90617" lon="1.93562">
        <ele>81.3</ele>
        <time>2022-05-25T12:31:47Z</time>
      </trkpt>
      <trkpt lat="49.90618" lon="1.93562">
        <ele>81.2</ele>
        <time>2022-05-25T12:31:48Z</time>
      </trkpt>
      <trkpt lat="49.90619" lon="1.93562">
        <ele>81.1</ele>
        <time>2022-05-25T12:31:49Z</time>
      </trkpt>
      <trkpt lat="49.9062" lon="1.93562">
        <ele>81</ele>
        <time>2022-05-25T12:31:51Z</time>
      </trkpt>
      <trkpt lat="49.90621" lon="1.93562">
        <ele>80.9</ele>
        <time>2022-05-25T12:31:52Z</time>
      </trkpt>
      <trkpt lat="49.90623" lon="1.93562">
        <ele>80.7</ele>
        <time>2022-05-25T12:31:53Z</time>
      </trkpt>
      <trkpt lat="49.90625" lon="1.93562">
        <ele>80.5</ele>
        <time>2022-05-25T12:31:54Z</time>
      </trkpt>
      <trkpt lat="49.90626" lon="1.93561">
        <ele>80.4</ele>
        <time>2022-05-25T12:31:55Z</time>
      </trkpt>
      <trkpt lat="49.90627" lon="1.93561">
        <ele>80.3</ele>
        <time>2022-05-25T12:31:56Z</time>
      </trkpt>
      <trkpt lat="49.90629" lon="1.93561">
        <ele>80.1</ele>
        <time>2022-05-25T12:31:57Z</time>
      </trkpt>
      <trkpt lat="49.9063" lon="1.93561">
        <ele>80</ele>
        <time>2022-05-25T12:31:58Z</time>
      </trkpt>
      <trkpt lat="49.9063" lon="1.93561">
        <ele>80</ele>
        <time>2022-05-25T12:31:59Z</time>
      </trkpt>
      <trkpt lat="49.90632" lon="1.9356">
        <ele>79.8</ele>
        <time>2022-05-25T12:32:00Z</time>
      </trkpt>
      <trkpt lat="49.90633" lon="1.9356">
        <ele>79.7</ele>
        <time>2022-05-25T12:32:01Z</time>
      </trkpt>
      <trkpt lat="49.90634" lon="1.93561">
        <ele>79.6</ele>
        <time>2022-05-25T12:32:02Z</time>
      </trkpt>
      <trkpt lat="49.90635" lon="1.9356">
        <ele>79.5</ele>
        <time>2022-05-25T12:32:04Z</time>
      </trkpt>
      <trkpt lat="49.90636" lon="1.9356">
        <ele>79.4</ele>
        <time>2022-05-25T12:32:05Z</time>
      </trkpt>
      <trkpt lat="49.90637" lon="1.9356">
        <ele>79.3</ele>
        <time>2022-05-25T12:32:06Z</time>
      </trkpt>
      <trkpt lat="49.90639" lon="1.9356">
        <ele>79.1</ele>
        <time>2022-05-25T12:32:07Z</time>
      </trkpt>
      <trkpt lat="49.9064" lon="1.9356">
        <ele>79</ele>
        <time>2022-05-25T12:32:08Z</time>
      </trkpt>
      <trkpt lat="49.90641" lon="1.9356">
        <ele>78.9</ele>
        <time>2022-05-25T12:32:09Z</time>
      </trkpt>
      <trkpt lat="49.90642" lon="1.9356">
        <ele>78.8</ele>
        <time>2022-05-25T12:32:10Z</time>
      </trkpt>
      <trkpt lat="49.90644" lon="1.93561">
        <ele>78.7</ele>
        <time>2022-05-25T12:32:11Z</time>
      </trkpt>
      <trkpt lat="49.90645" lon="1.93561">
        <ele>78.5</ele>
        <time>2022-05-25T12:32:12Z</time>
      </trkpt>
      <trkpt lat="49.90646" lon="1.93561">
        <ele>78.5</ele>
        <time>2022-05-25T12:32:14Z</time>
      </trkpt>
      <trkpt lat="49.90647" lon="1.93561">
        <ele>78.4</ele>
        <time>2022-05-25T12:32:15Z</time>
      </trkpt>
      <trkpt lat="49.90648" lon="1.93561">
        <ele>78.3</ele>
        <time>2022-05-25T12:32:16Z</time>
      </trkpt>
      <trkpt lat="49.90649" lon="1.93561">
        <ele>78.1</ele>
        <time>2022-05-25T12:32:17Z</time>
      </trkpt>
      <trkpt lat="49.9065" lon="1.9356">
        <ele>78</ele>
        <time>2022-05-25T12:32:18Z</time>
      </trkpt>
      <trkpt lat="49.90652" lon="1.9356">
        <ele>77.8</ele>
        <time>2022-05-25T12:32:19Z</time>
      </trkpt>
      <trkpt lat="49.90653" lon="1.93559">
        <ele>77.7</ele>
        <time>2022-05-25T12:32:20Z</time>
      </trkpt>
      <trkpt lat="49.90654" lon="1.93559">
        <ele>77.6</ele>
        <time>2022-05-25T12:32:21Z</time>
      </trkpt>
      <trkpt lat="49.90656" lon="1.9356">
        <ele>77.4</ele>
        <time>2022-05-25T12:32:22Z</time>
      </trkpt>
      <trkpt lat="49.90658" lon="1.9356">
        <ele>77.2</ele>
        <time>2022-05-25T12:32:24Z</time>
      </trkpt>
      <trkpt lat="49.90659" lon="1.9356">
        <ele>77.1</ele>
        <time>2022-05-25T12:32:25Z</time>
      </trkpt>
      <trkpt lat="49.9066" lon="1.93559">
        <ele>77</ele>
        <time>2022-05-25T12:32:26Z</time>
      </trkpt>
      <trkpt lat="49.90661" lon="1.93559">
        <ele>76.9</ele>
        <time>2022-05-25T12:32:27Z</time>
      </trkpt>
      <trkpt lat="49.90662" lon="1.93559">
        <ele>76.8</ele>
        <time>2022-05-25T12:32:28Z</time>
      </trkpt>
      <trkpt lat="49.90663" lon="1.93558">
        <ele>76.7</ele>
        <time>2022-05-25T12:32:30Z</time>
      </trkpt>
      <trkpt lat="49.90664" lon="1.93558">
        <ele>76.6</ele>
        <time>2022-05-25T12:32:31Z</time>
      </trkpt>
      <trkpt lat="49.90665" lon="1.93557">
        <ele>76.5</ele>
        <time>2022-05-25T12:32:32Z</time>
      </trkpt>
      <trkpt lat="49.90666" lon="1.93556">
        <ele>76.4</ele>
        <time>2022-05-25T12:32:33Z</time>
      </trkpt>
      <trkpt lat="49.90667" lon="1.93556">
        <ele>76.3</ele>
        <time>2022-05-25T12:32:34Z</time>
      </trkpt>
      <trkpt lat="49.90668" lon="1.93556">
        <ele>76.2</ele>
        <time>2022-05-25T12:32:35Z</time>
      </trkpt>
      <trkpt lat="49.90669" lon="1.93555">
        <ele>76.1</ele>
        <time>2022-05-25T12:32:37Z</time>
      </trkpt>
      <trkpt lat="49.90671" lon="1.93555">
        <ele>76</ele>
        <time>2022-05-25T12:32:38Z</time>
      </trkpt>
      <trkpt lat="49.90672" lon="1.93555">
        <ele>75.9</ele>
        <time>2022-05-25T12:32:39Z</time>
      </trkpt>
      <trkpt lat="49.90674" lon="1.93555">
        <ele>75.8</ele>
        <time>2022-05-25T12:32:40Z</time>
      </trkpt>
      <trkpt lat="49.90675" lon="1.93555">
        <ele>75.7</ele>
        <time>2022-05-25T12:32:42Z</time>
      </trkpt>
      <trkpt lat="49.90676" lon="1.93555">
        <ele>75.6</ele>
        <time>2022-05-25T12:32:43Z</time>
      </trkpt>
      <trkpt lat="49.90677" lon="1.93555">
        <ele>75.5</ele>
        <time>2022-05-25T12:32:44Z</time>
      </trkpt>
      <trkpt lat="49.90679" lon="1.93555">
        <ele>75.3</ele>
        <time>2022-05-25T12:32:45Z</time>
      </trkpt>
      <trkpt lat="49.9068" lon="1.93555">
        <ele>75.2</ele>
        <time>2022-05-25T12:32:46Z</time>
      </trkpt>
      <trkpt lat="49.90681" lon="1.93555">
        <ele>75.1</ele>
        <time>2022-05-25T12:32:47Z</time>
      </trkpt>
      <trkpt lat="49.90682" lon="1.93555">
        <ele>75</ele>
        <time>2022-05-25T12:32:48Z</time>
      </trkpt>
      <trkpt lat="49.90683" lon="1.93555">
        <ele>74.9</ele>
        <time>2022-05-25T12:32:49Z</time>
      </trkpt>
      <trkpt lat="49.90685" lon="1.93556">
        <ele>74.8</ele>
        <time>2022-05-25T12:32:50Z</time>
      </trkpt>
      <trkpt lat="49.90687" lon="1.93556">
        <ele>74.6</ele>
        <time>2022-05-25T12:32:51Z</time>
      </trkpt>
      <trkpt lat="49.90688" lon="1.93556">
        <ele>74.5</ele>
        <time>2022-05-25T12:32:53Z</time>
      </trkpt>
      <trkpt lat="49.90689" lon="1.93556">
        <ele>74.4</ele>
        <time>2022-05-25T12:32:54Z</time>
      </trkpt>
      <trkpt lat="49.90691" lon="1.93556">
        <ele>74.4</ele>
        <time>2022-05-25T12:32:55Z</time>
      </trkpt>
      <trkpt lat="49.90692" lon="1.93557">
        <ele>74.3</ele>
        <time>2022-05-25T12:32:56Z</time>
      </trkpt>
      <trkpt lat="49.90693" lon="1.93557">
        <ele>74.2</ele>
        <time>2022-05-25T12:32:57Z</time>
      </trkpt>
      <trkpt lat="49.90694" lon="1.93557">
        <ele>74</ele>
        <time>2022-05-25T12:32:58Z</time>
      </trkpt>
      <trkpt lat="49.90696" lon="1.93558">
        <ele>73.9</ele>
        <time>2022-05-25T12:32:59Z</time>
      </trkpt>
      <trkpt lat="49.90697" lon="1.93558">
        <ele>73.8</ele>
        <time>2022-05-25T12:33:00Z</time>
      </trkpt>
      <trkpt lat="49.90698" lon="1.93558">
        <ele>73.8</ele>
        <time>2022-05-25T12:33:01Z</time>
      </trkpt>
      <trkpt lat="49.90699" lon="1.93559">
        <ele>73.7</ele>
        <time>2022-05-25T12:33:02Z</time>
      </trkpt>
      <trkpt lat="49.90701" lon="1.93559">
        <ele>73.6</ele>
        <time>2022-05-25T12:33:04Z</time>
      </trkpt>
      <trkpt lat="49.90702" lon="1.93559">
        <ele>73.5</ele>
        <time>2022-05-25T12:33:05Z</time>
      </trkpt>
      <trkpt lat="49.90703" lon="1.9356">
        <ele>73.3</ele>
        <time>2022-05-25T12:33:06Z</time>
      </trkpt>
      <trkpt lat="49.90705" lon="1.9356">
        <ele>73.2</ele>
        <time>2022-05-25T12:33:07Z</time>
      </trkpt>
      <trkpt lat="49.90707" lon="1.9356">
        <ele>73.1</ele>
        <time>2022-05-25T12:33:08Z</time>
      </trkpt>
      <trkpt lat="49.90708" lon="1.9356">
        <ele>73</ele>
        <time>2022-05-25T12:33:09Z</time>
      </trkpt>
      <trkpt lat="49.9071" lon="1.93561">
        <ele>72.9</ele>
        <time>2022-05-25T12:33:11Z</time>
      </trkpt>
      <trkpt lat="49.9071" lon="1.93561">
        <ele>72.8</ele>
        <time>2022-05-25T12:33:12Z</time>
      </trkpt>
      <trkpt lat="49.90712" lon="1.93561">
        <ele>72.7</ele>
        <time>2022-05-25T12:33:13Z</time>
      </trkpt>
      <trkpt lat="49.90713" lon="1.93561">
        <ele>72.6</ele>
        <time>2022-05-25T12:33:14Z</time>
      </trkpt>
      <trkpt lat="49.90715" lon="1.93561">
        <ele>72.5</ele>
        <time>2022-05-25T12:33:15Z</time>
      </trkpt>
      <trkpt lat="49.90716" lon="1.93561">
        <ele>72.4</ele>
        <time>2022-05-25T12:33:16Z</time>
      </trkpt>
      <trkpt lat="49.90718" lon="1.93562">
        <ele>72.2</ele>
        <time>2022-05-25T12:33:17Z</time>
      </trkpt>
      <trkpt lat="49.90719" lon="1.93562">
        <ele>72.2</ele>
        <time>2022-05-25T12:33:18Z</time>
      </trkpt>
      <trkpt lat="49.9072" lon="1.93562">
        <ele>72.1</ele>
        <time>2022-05-25T12:33:19Z</time>
      </trkpt>
      <trkpt lat="49.90722" lon="1.93563">
        <ele>72</ele>
        <time>2022-05-25T12:33:20Z</time>
      </trkpt>
      <trkpt lat="49.90723" lon="1.93563">
        <ele>71.9</ele>
        <time>2022-05-25T12:33:21Z</time>
      </trkpt>
      <trkpt lat="49.90725" lon="1.93564">
        <ele>71.8</ele>
        <time>2022-05-25T12:33:22Z</time>
      </trkpt>
      <trkpt lat="49.90726" lon="1.93564">
        <ele>71.7</ele>
        <time>2022-05-25T12:33:24Z</time>
      </trkpt>
      <trkpt lat="49.90727" lon="1.93564">
        <ele>71.6</ele>
        <time>2022-05-25T12:33:25Z</time>
      </trkpt>
      <trkpt lat="49.90728" lon="1.93564">
        <ele>71.6</ele>
        <time>2022-05-25T12:33:26Z</time>
      </trkpt>
      <trkpt lat="49.90729" lon="1.93564">
        <ele>71.5</ele>
        <time>2022-05-25T12:33:27Z</time>
      </trkpt>
      <trkpt lat="49.9073" lon="1.93565">
        <ele>71.4</ele>
        <time>2022-05-25T12:33:28Z</time>
      </trkpt>
      <trkpt lat="49.90731" lon="1.93566">
        <ele>71.4</ele>
        <time>2022-05-25T12:33:29Z</time>
      </trkpt>
      <trkpt lat="49.90732" lon="1.93567">
        <ele>71.3</ele>
        <time>2022-05-25T12:33:31Z</time>
      </trkpt>
      <trkpt lat="49.90733" lon="1.93568">
        <ele>71.2</ele>
        <time>2022-05-25T12:33:32Z</time>
      </trkpt>
      <trkpt lat="49.90735" lon="1.93569">
        <ele>71.1</ele>
        <time>2022-05-25T12:33:33Z</time>
      </trkpt>
      <trkpt lat="49.90736" lon="1.93569">
        <ele>71</ele>
        <time>2022-05-25T12:33:34Z</time>
      </trkpt>
      <trkpt lat="49.90736" lon="1.9357">
        <ele>71</ele>
        <time>2022-05-25T12:33:35Z</time>
      </trkpt>
      <trkpt lat="49.90738" lon="1.9357">
        <ele>70.8</ele>
        <time>2022-05-25T12:33:36Z</time>
      </trkpt>
      <trkpt lat="49.90739" lon="1.9357">
        <ele>70.8</ele>
        <time>2022-05-25T12:33:37Z</time>
      </trkpt>
      <trkpt lat="49.90739" lon="1.9357">
        <ele>70.7</ele>
        <time>2022-05-25T12:33:38Z</time>
      </trkpt>
      <trkpt lat="49.9074" lon="1.93571">
        <ele>70.7</ele>
        <time>2022-05-25T12:33:39Z</time>
      </trkpt>
      <trkpt lat="49.90742" lon="1.93571">
        <ele>70.6</ele>
        <time>2022-05-25T12:33:40Z</time>
      </trkpt>
      <trkpt lat="49.90742" lon="1.93571">
        <ele>70.5</ele>
        <time>2022-05-25T12:33:42Z</time>
      </trkpt>
      <trkpt lat="49.90743" lon="1.93572">
        <ele>70.5</ele>
        <time>2022-05-25T12:33:43Z</time>
      </trkpt>
      <trkpt lat="49.90744" lon="1.93573">
        <ele>70.4</ele>
        <time>2022-05-25T12:33:44Z</time>
      </trkpt>
      <trkpt lat="49.90746" lon="1.93573">
        <ele>70.3</ele>
        <time>2022-05-25T12:33:45Z</time>
      </trkpt>
      <trkpt lat="49.90747" lon="1.93573">
        <ele>70.2</ele>
        <time>2022-05-25T12:33:46Z</time>
      </trkpt>
      <trkpt lat="49.90748" lon="1.93573">
        <ele>70.2</ele>
        <time>2022-05-25T12:33:47Z</time>
      </trkpt>
      <trkpt lat="49.90749" lon="1.93574">
        <ele>70.1</ele>
        <time>2022-05-25T12:33:48Z</time>
      </trkpt>
      <trkpt lat="49.9075" lon="1.93574">
        <ele>70</ele>
        <time>2022-05-25T12:33:49Z</time>
      </trkpt>
      <trkpt lat="49.90751" lon="1.93575">
        <ele>69.9</ele>
        <time>2022-05-25T12:33:50Z</time>
      </trkpt>
      <trkpt lat="49.90753" lon="1.93575">
        <ele>69.8</ele>
        <time>2022-05-25T12:33:51Z</time>
      </trkpt>
      <trkpt lat="49.90754" lon="1.93575">
        <ele>69.8</ele>
        <time>2022-05-25T12:33:53Z</time>
      </trkpt>
      <trkpt lat="49.90755" lon="1.93576">
        <ele>69.7</ele>
        <time>2022-05-25T12:33:54Z</time>
      </trkpt>
      <trkpt lat="49.90756" lon="1.93576">
        <ele>69.6</ele>
        <time>2022-05-25T12:33:55Z</time>
      </trkpt>
      <trkpt lat="49.90758" lon="1.93577">
        <ele>69.5</ele>
        <time>2022-05-25T12:33:56Z</time>
      </trkpt>
      <trkpt lat="49.90759" lon="1.93577">
        <ele>69.4</ele>
        <time>2022-05-25T12:33:57Z</time>
      </trkpt>
      <trkpt lat="49.9076" lon="1.93577">
        <ele>69.3</ele>
        <time>2022-05-25T12:33:58Z</time>
      </trkpt>
      <trkpt lat="49.90762" lon="1.93577">
        <ele>69.3</ele>
        <time>2022-05-25T12:33:59Z</time>
      </trkpt>
      <trkpt lat="49.90763" lon="1.93577">
        <ele>69.2</ele>
        <time>2022-05-25T12:34:00Z</time>
      </trkpt>
      <trkpt lat="49.90764" lon="1.93577">
        <ele>69.1</ele>
        <time>2022-05-25T12:34:02Z</time>
      </trkpt>
      <trkpt lat="49.90765" lon="1.93577">
        <ele>69.1</ele>
        <time>2022-05-25T12:34:03Z</time>
      </trkpt>
      <trkpt lat="49.90766" lon="1.93576">
        <ele>69</ele>
        <time>2022-05-25T12:34:04Z</time>
      </trkpt>
      <trkpt lat="49.90768" lon="1.93575">
        <ele>68.9</ele>
        <time>2022-05-25T12:34:05Z</time>
      </trkpt>
      <trkpt lat="49.90769" lon="1.93575">
        <ele>68.8</ele>
        <time>2022-05-25T12:34:06Z</time>
      </trkpt>
      <trkpt lat="49.9077" lon="1.93574">
        <ele>68.7</ele>
        <time>2022-05-25T12:34:07Z</time>
      </trkpt>
      <trkpt lat="49.90771" lon="1.93573">
        <ele>68.7</ele>
        <time>2022-05-25T12:34:08Z</time>
      </trkpt>
      <trkpt lat="49.90772" lon="1.93573">
        <ele>68.6</ele>
        <time>2022-05-25T12:34:10Z</time>
      </trkpt>
      <trkpt lat="49.90773" lon="1.93572">
        <ele>68.5</ele>
        <time>2022-05-25T12:34:11Z</time>
      </trkpt>
      <trkpt lat="49.90774" lon="1.93573">
        <ele>68.4</ele>
        <time>2022-05-25T12:34:13Z</time>
      </trkpt>
      <trkpt lat="49.90775" lon="1.93575">
        <ele>68.3</ele>
        <time>2022-05-25T12:34:14Z</time>
      </trkpt>
      <trkpt lat="49.90776" lon="1.93576">
        <ele>68.3</ele>
        <time>2022-05-25T12:34:15Z</time>
      </trkpt>
      <trkpt lat="49.90777" lon="1.93576">
        <ele>68.2</ele>
        <time>2022-05-25T12:34:17Z</time>
      </trkpt>
      <trkpt lat="49.90778" lon="1.93575">
        <ele>68.1</ele>
        <time>2022-05-25T12:34:18Z</time>
      </trkpt>
      <trkpt lat="49.9078" lon="1.93575">
        <ele>68.1</ele>
        <time>2022-05-25T12:34:19Z</time>
      </trkpt>
      <trkpt lat="49.90781" lon="1.93575">
        <ele>68.1</ele>
        <time>2022-05-25T12:34:21Z</time>
      </trkpt>
      <trkpt lat="49.90782" lon="1.93575">
        <ele>68.1</ele>
        <time>2022-05-25T12:34:22Z</time>
      </trkpt>
      <trkpt lat="49.90782" lon="1.93575">
        <ele>68.1</ele>
        <time>2022-05-25T12:34:23Z</time>
      </trkpt>
      <trkpt lat="49.90783" lon="1.93576">
        <ele>68.1</ele>
        <time>2022-05-25T12:34:24Z</time>
      </trkpt>
      <trkpt lat="49.90784" lon="1.93576">
        <ele>67.2</ele>
        <time>2022-05-25T12:34:26Z</time>
      </trkpt>
      <trkpt lat="49.90784" lon="1.93576">
        <ele>67.2</ele>
        <time>2022-05-25T12:34:27Z</time>
      </trkpt>
      <trkpt lat="49.90784" lon="1.93576">
        <ele>67.2</ele>
        <time>2022-05-25T12:34:28Z</time>
      </trkpt>
      <trkpt lat="49.90784" lon="1.93576">
        <ele>67.1</ele>
        <time>2022-05-25T12:34:29Z</time>
      </trkpt>
      <trkpt lat="49.90784" lon="1.93575">
        <ele>67.1</ele>
        <time>2022-05-25T12:34:30Z</time>
      </trkpt>
      <trkpt lat="49.90784" lon="1.93575">
        <ele>67</ele>
        <time>2022-05-25T12:34:31Z</time>
      </trkpt>
      <trkpt lat="49.90783" lon="1.93575">
        <ele>67</ele>
        <time>2022-05-25T12:34:32Z</time>
      </trkpt>
      <trkpt lat="49.90783" lon="1.93575">
        <ele>67</ele>
        <time>2022-05-25T12:34:33Z</time>
      </trkpt>
      <trkpt lat="49.90783" lon="1.93574">
        <ele>67</ele>
        <time>2022-05-25T12:34:34Z</time>
      </trkpt>
      <trkpt lat="49.90783" lon="1.93574">
        <ele>66.9</ele>
        <time>2022-05-25T12:34:35Z</time>
      </trkpt>
      <trkpt lat="49.90782" lon="1.93574">
        <ele>66.9</ele>
        <time>2022-05-25T12:34:36Z</time>
      </trkpt>
      <trkpt lat="49.90782" lon="1.93574">
        <ele>66.8</ele>
        <time>2022-05-25T12:34:37Z</time>
      </trkpt>
      <trkpt lat="49.90782" lon="1.93574">
        <ele>66.8</ele>
        <time>2022-05-25T12:34:38Z</time>
      </trkpt>
      <trkpt lat="49.90782" lon="1.93573">
        <ele>66.8</ele>
        <time>2022-05-25T12:34:39Z</time>
      </trkpt>
      <trkpt lat="49.90781" lon="1.93573">
        <ele>66.7</ele>
        <time>2022-05-25T12:34:40Z</time>
      </trkpt>
      <trkpt lat="49.90781" lon="1.93573">
        <ele>66.7</ele>
        <time>2022-05-25T12:34:41Z</time>
      </trkpt>
      <trkpt lat="49.90781" lon="1.93573">
        <ele>66.7</ele>
        <time>2022-05-25T12:34:42Z</time>
      </trkpt>
      <trkpt lat="49.9078" lon="1.93573">
        <ele>66.5</ele>
        <time>2022-05-25T12:34:43Z</time>
      </trkpt>
      <trkpt lat="49.90779" lon="1.93573">
        <ele>66.5</ele>
        <time>2022-05-25T12:34:44Z</time>
      </trkpt>
      <trkpt lat="49.90779" lon="1.93574">
        <ele>66.4</ele>
        <time>2022-05-25T12:34:45Z</time>
      </trkpt>
      <trkpt lat="49.90779" lon="1.93574">
        <ele>66.4</ele>
        <time>2022-05-25T12:34:46Z</time>
      </trkpt>
      <trkpt lat="49.90778" lon="1.93574">
        <ele>66.4</ele>
        <time>2022-05-25T12:34:47Z</time>
      </trkpt>
      <trkpt lat="49.90778" lon="1.93574">
        <ele>66.4</ele>
        <time>2022-05-25T12:34:48Z</time>
      </trkpt>
      <trkpt lat="49.90778" lon="1.93574">
        <ele>66.4</ele>
        <time>2022-05-25T12:34:49Z</time>
      </trkpt>
      <trkpt lat="49.90778" lon="1.93574">
        <ele>66.4</ele>
        <time>2022-05-25T12:34:50Z</time>
      </trkpt>
      <trkpt lat="49.90779" lon="1.93573">
        <ele>66.3</ele>
        <time>2022-05-25T12:34:51Z</time>
      </trkpt>
      <trkpt lat="49.90779" lon="1.93572">
        <ele>66.2</ele>
        <time>2022-05-25T12:34:53Z</time>
      </trkpt>
      <trkpt lat="49.90778" lon="1.93571">
        <ele>66.1</ele>
        <time>2022-05-25T12:34:54Z</time>
      </trkpt>
      <trkpt lat="49.90778" lon="1.9357">
        <ele>66</ele>
        <time>2022-05-25T12:34:55Z</time>
      </trkpt>
      <trkpt lat="49.90777" lon="1.93569">
        <ele>65.9</ele>
        <time>2022-05-25T12:34:56Z</time>
      </trkpt>
      <trkpt lat="49.90777" lon="1.93567">
        <ele>65.8</ele>
        <time>2022-05-25T12:34:57Z</time>
      </trkpt>
      <trkpt lat="49.90777" lon="1.93565">
        <ele>65.6</ele>
        <time>2022-05-25T12:34:59Z</time>
      </trkpt>
      <trkpt lat="49.90777" lon="1.93563">
        <ele>65.5</ele>
        <time>2022-05-25T12:35:00Z</time>
      </trkpt>
      <trkpt lat="49.90778" lon="1.9356">
        <ele>65.3</ele>
        <time>2022-05-25T12:35:01Z</time>
      </trkpt>
      <trkpt lat="49.90779" lon="1.93558">
        <ele>65.1</ele>
        <time>2022-05-25T12:35:02Z</time>
      </trkpt>
      <trkpt lat="49.9078" lon="1.93557">
        <ele>65</ele>
        <time>2022-05-25T12:35:03Z</time>
      </trkpt>
      <trkpt lat="49.90783" lon="1.93555">
        <ele>64.7</ele>
        <time>2022-05-25T12:35:04Z</time>
      </trkpt>
      <trkpt lat="49.90784" lon="1.93554">
        <ele>64.6</ele>
        <time>2022-05-25T12:35:05Z</time>
      </trkpt>
      <trkpt lat="49.90785" lon="1.93553">
        <ele>64.5</ele>
        <time>2022-05-25T12:35:06Z</time>
      </trkpt>
      <trkpt lat="49.90787" lon="1.93551">
        <ele>64.2</ele>
        <time>2022-05-25T12:35:08Z</time>
      </trkpt>
      <trkpt lat="49.90788" lon="1.93551">
        <ele>64.1</ele>
        <time>2022-05-25T12:35:10Z</time>
      </trkpt>
      <trkpt lat="49.9079" lon="1.93552">
        <ele>64</ele>
        <time>2022-05-25T12:35:11Z</time>
      </trkpt>
      <trkpt lat="49.90792" lon="1.9355">
        <ele>63.8</ele>
        <time>2022-05-25T12:35:12Z</time>
      </trkpt>
      <trkpt lat="49.90793" lon="1.93547">
        <ele>63.6</ele>
        <time>2022-05-25T12:35:14Z</time>
      </trkpt>
      <trkpt lat="49.90794" lon="1.93545">
        <ele>63.5</ele>
        <time>2022-05-25T12:35:16Z</time>
      </trkpt>
      <trkpt lat="49.90795" lon="1.93542">
        <ele>63.3</ele>
        <time>2022-05-25T12:35:17Z</time>
      </trkpt>
      <trkpt lat="49.90795" lon="1.9354">
        <ele>63.1</ele>
        <time>2022-05-25T12:35:18Z</time>
      </trkpt>
      <trkpt lat="49.90797" lon="1.93537">
        <ele>62.9</ele>
        <time>2022-05-25T12:35:19Z</time>
      </trkpt>
      <trkpt lat="49.90798" lon="1.93536">
        <ele>62.8</ele>
        <time>2022-05-25T12:35:21Z</time>
      </trkpt>
      <trkpt lat="49.90799" lon="1.93535">
        <ele>62.7</ele>
        <time>2022-05-25T12:35:22Z</time>
      </trkpt>
      <trkpt lat="49.908" lon="1.93535">
        <ele>62.7</ele>
        <time>2022-05-25T12:35:23Z</time>
      </trkpt>
      <trkpt lat="49.90801" lon="1.93534">
        <ele>62.6</ele>
        <time>2022-05-25T12:35:24Z</time>
      </trkpt>
      <trkpt lat="49.90802" lon="1.93533">
        <ele>62.4</ele>
        <time>2022-05-25T12:35:25Z</time>
      </trkpt>
      <trkpt lat="49.90803" lon="1.93532">
        <ele>62.3</ele>
        <time>2022-05-25T12:35:26Z</time>
      </trkpt>
      <trkpt lat="49.90805" lon="1.9353">
        <ele>62.2</ele>
        <time>2022-05-25T12:35:27Z</time>
      </trkpt>
      <trkpt lat="49.90806" lon="1.93529">
        <ele>62.1</ele>
        <time>2022-05-25T12:35:28Z</time>
      </trkpt>
      <trkpt lat="49.90807" lon="1.93527">
        <ele>62</ele>
        <time>2022-05-25T12:35:29Z</time>
      </trkpt>
      <trkpt lat="49.90808" lon="1.93526">
        <ele>61.9</ele>
        <time>2022-05-25T12:35:30Z</time>
      </trkpt>
      <trkpt lat="49.90809" lon="1.93525">
        <ele>61.9</ele>
        <time>2022-05-25T12:35:31Z</time>
      </trkpt>
      <trkpt lat="49.90809" lon="1.93524">
        <ele>61.8</ele>
        <time>2022-05-25T12:35:33Z</time>
      </trkpt>
      <trkpt lat="49.9081" lon="1.93523">
        <ele>61.8</ele>
        <time>2022-05-25T12:35:34Z</time>
      </trkpt>
      <trkpt lat="49.90811" lon="1.93522">
        <ele>61.7</ele>
        <time>2022-05-25T12:35:35Z</time>
      </trkpt>
      <trkpt lat="49.90812" lon="1.9352">
        <ele>61.6</ele>
        <time>2022-05-25T12:35:36Z</time>
      </trkpt>
      <trkpt lat="49.90813" lon="1.93519">
        <ele>61.5</ele>
        <time>2022-05-25T12:35:37Z</time>
      </trkpt>
      <trkpt lat="49.90815" lon="1.93516">
        <ele>61.3</ele>
        <time>2022-05-25T12:35:38Z</time>
      </trkpt>
      <trkpt lat="49.90816" lon="1.93515">
        <ele>61.2</ele>
        <time>2022-05-25T12:35:39Z</time>
      </trkpt>
      <trkpt lat="49.90818" lon="1.93511">
        <ele>61</ele>
        <time>2022-05-25T12:35:40Z</time>
      </trkpt>
      <trkpt lat="49.90818" lon="1.93509">
        <ele>60.9</ele>
        <time>2022-05-25T12:35:41Z</time>
      </trkpt>
      <trkpt lat="49.9082" lon="1.93506">
        <ele>60.7</ele>
        <time>2022-05-25T12:35:42Z</time>
      </trkpt>
      <trkpt lat="49.90821" lon="1.93505">
        <ele>60.7</ele>
        <time>2022-05-25T12:35:43Z</time>
      </trkpt>
      <trkpt lat="49.90823" lon="1.93502">
        <ele>60.5</ele>
        <time>2022-05-25T12:35:44Z</time>
      </trkpt>
      <trkpt lat="49.90824" lon="1.93501">
        <ele>60.4</ele>
        <time>2022-05-25T12:35:46Z</time>
      </trkpt>
      <trkpt lat="49.90825" lon="1.935">
        <ele>60.3</ele>
        <time>2022-05-25T12:35:47Z</time>
      </trkpt>
      <trkpt lat="49.90825" lon="1.93498">
        <ele>60.2</ele>
        <time>2022-05-25T12:35:48Z</time>
      </trkpt>
      <trkpt lat="49.90826" lon="1.93497">
        <ele>60.1</ele>
        <time>2022-05-25T12:35:50Z</time>
      </trkpt>
      <trkpt lat="49.90828" lon="1.93496">
        <ele>60</ele>
        <time>2022-05-25T12:35:51Z</time>
      </trkpt>
      <trkpt lat="49.90829" lon="1.93494">
        <ele>59.9</ele>
        <time>2022-05-25T12:35:52Z</time>
      </trkpt>
      <trkpt lat="49.9083" lon="1.93493">
        <ele>59.8</ele>
        <time>2022-05-25T12:35:53Z</time>
      </trkpt>
      <trkpt lat="49.90832" lon="1.93491">
        <ele>59.7</ele>
        <time>2022-05-25T12:35:54Z</time>
      </trkpt>
      <trkpt lat="49.90833" lon="1.9349">
        <ele>59.6</ele>
        <time>2022-05-25T12:35:55Z</time>
      </trkpt>
      <trkpt lat="49.90834" lon="1.93487">
        <ele>59.4</ele>
        <time>2022-05-25T12:35:56Z</time>
      </trkpt>
      <trkpt lat="49.90835" lon="1.93486">
        <ele>59.3</ele>
        <time>2022-05-25T12:35:58Z</time>
      </trkpt>
      <trkpt lat="49.90836" lon="1.93485">
        <ele>59.3</ele>
        <time>2022-05-25T12:35:59Z</time>
      </trkpt>
      <trkpt lat="49.90838" lon="1.93483">
        <ele>59.1</ele>
        <time>2022-05-25T12:36:00Z</time>
      </trkpt>
      <trkpt lat="49.90839" lon="1.93482">
        <ele>59.1</ele>
        <time>2022-05-25T12:36:01Z</time>
      </trkpt>
      <trkpt lat="49.90839" lon="1.93481">
        <ele>59</ele>
        <time>2022-05-25T12:36:02Z</time>
      </trkpt>
      <trkpt lat="49.90841" lon="1.93479">
        <ele>58.9</ele>
        <time>2022-05-25T12:36:04Z</time>
      </trkpt>
      <trkpt lat="49.90842" lon="1.93478">
        <ele>58.8</ele>
        <time>2022-05-25T12:36:05Z</time>
      </trkpt>
      <trkpt lat="49.90843" lon="1.93477">
        <ele>58.8</ele>
        <time>2022-05-25T12:36:06Z</time>
      </trkpt>
      <trkpt lat="49.90844" lon="1.93476">
        <ele>58.7</ele>
        <time>2022-05-25T12:36:07Z</time>
      </trkpt>
      <trkpt lat="49.90846" lon="1.93474">
        <ele>58.6</ele>
        <time>2022-05-25T12:36:08Z</time>
      </trkpt>
      <trkpt lat="49.90847" lon="1.93473">
        <ele>58.5</ele>
        <time>2022-05-25T12:36:09Z</time>
      </trkpt>
      <trkpt lat="49.90848" lon="1.93471">
        <ele>58.5</ele>
        <time>2022-05-25T12:36:10Z</time>
      </trkpt>
      <trkpt lat="49.90849" lon="1.9347">
        <ele>58.4</ele>
        <time>2022-05-25T12:36:12Z</time>
      </trkpt>
      <trkpt lat="49.9085" lon="1.93468">
        <ele>58.3</ele>
        <time>2022-05-25T12:36:13Z</time>
      </trkpt>
      <trkpt lat="49.90853" lon="1.93465">
        <ele>58.2</ele>
        <time>2022-05-25T12:36:14Z</time>
      </trkpt>
      <trkpt lat="49.90853" lon="1.93465">
        <ele>58.2</ele>
        <time>2022-05-25T12:36:15Z</time>
      </trkpt>
      <trkpt lat="49.90854" lon="1.93464">
        <ele>58.1</ele>
        <time>2022-05-25T12:36:16Z</time>
      </trkpt>
      <trkpt lat="49.90855" lon="1.93462">
        <ele>58</ele>
        <time>2022-05-25T12:36:17Z</time>
      </trkpt>
      <trkpt lat="49.90857" lon="1.93461">
        <ele>57.9</ele>
        <time>2022-05-25T12:36:19Z</time>
      </trkpt>
      <trkpt lat="49.90858" lon="1.9346">
        <ele>57.8</ele>
        <time>2022-05-25T12:36:20Z</time>
      </trkpt>
      <trkpt lat="49.90859" lon="1.93459">
        <ele>57.8</ele>
        <time>2022-05-25T12:36:21Z</time>
      </trkpt>
      <trkpt lat="49.9086" lon="1.93458">
        <ele>57.7</ele>
        <time>2022-05-25T12:36:22Z</time>
      </trkpt>
      <trkpt lat="49.90861" lon="1.93456">
        <ele>57.6</ele>
        <time>2022-05-25T12:36:23Z</time>
      </trkpt>
      <trkpt lat="49.90862" lon="1.93455">
        <ele>57.5</ele>
        <time>2022-05-25T12:36:24Z</time>
      </trkpt>
      <trkpt lat="49.90863" lon="1.93454">
        <ele>57.5</ele>
        <time>2022-05-25T12:36:25Z</time>
      </trkpt>
      <trkpt lat="49.90863" lon="1.93453">
        <ele>57.4</ele>
        <time>2022-05-25T12:36:26Z</time>
      </trkpt>
      <trkpt lat="49.90865" lon="1.93451">
        <ele>57.2</ele>
        <time>2022-05-25T12:36:27Z</time>
      </trkpt>
      <trkpt lat="49.90866" lon="1.9345">
        <ele>57.2</ele>
        <time>2022-05-25T12:36:28Z</time>
      </trkpt>
      <trkpt lat="49.90867" lon="1.93449">
        <ele>57.1</ele>
        <time>2022-05-25T12:36:29Z</time>
      </trkpt>
      <trkpt lat="49.90868" lon="1.93448">
        <ele>57</ele>
        <time>2022-05-25T12:36:30Z</time>
      </trkpt>
      <trkpt lat="49.90869" lon="1.93446">
        <ele>56.9</ele>
        <time>2022-05-25T12:36:31Z</time>
      </trkpt>
      <trkpt lat="49.9087" lon="1.93445">
        <ele>56.8</ele>
        <time>2022-05-25T12:36:33Z</time>
      </trkpt>
      <trkpt lat="49.9087" lon="1.93444">
        <ele>56.7</ele>
        <time>2022-05-25T12:36:34Z</time>
      </trkpt>
      <trkpt lat="49.90871" lon="1.93443">
        <ele>56.7</ele>
        <time>2022-05-25T12:36:35Z</time>
      </trkpt>
      <trkpt lat="49.90872" lon="1.93441">
        <ele>56.6</ele>
        <time>2022-05-25T12:36:36Z</time>
      </trkpt>
      <trkpt lat="49.90873" lon="1.93439">
        <ele>56.5</ele>
        <time>2022-05-25T12:36:37Z</time>
      </trkpt>
      <trkpt lat="49.90873" lon="1.93437">
        <ele>56.4</ele>
        <time>2022-05-25T12:36:38Z</time>
      </trkpt>
      <trkpt lat="49.90873" lon="1.93436">
        <ele>56.4</ele>
        <time>2022-05-25T12:36:39Z</time>
      </trkpt>
      <trkpt lat="49.90874" lon="1.93434">
        <ele>56.3</ele>
        <time>2022-05-25T12:36:40Z</time>
      </trkpt>
      <trkpt lat="49.90875" lon="1.93432">
        <ele>56.2</ele>
        <time>2022-05-25T12:36:41Z</time>
      </trkpt>
      <trkpt lat="49.90876" lon="1.93431">
        <ele>56.2</ele>
        <time>2022-05-25T12:36:42Z</time>
      </trkpt>
      <trkpt lat="49.90876" lon="1.9343">
        <ele>56.2</ele>
        <time>2022-05-25T12:36:43Z</time>
      </trkpt>
      <trkpt lat="49.90878" lon="1.93428">
        <ele>56.1</ele>
        <time>2022-05-25T12:36:44Z</time>
      </trkpt>
      <trkpt lat="49.90879" lon="1.93427">
        <ele>56</ele>
        <time>2022-05-25T12:36:45Z</time>
      </trkpt>
      <trkpt lat="49.9088" lon="1.93426">
        <ele>55.9</ele>
        <time>2022-05-25T12:36:46Z</time>
      </trkpt>
      <trkpt lat="49.90881" lon="1.93425">
        <ele>55.9</ele>
        <time>2022-05-25T12:36:47Z</time>
      </trkpt>
      <trkpt lat="49.90882" lon="1.93424">
        <ele>55.9</ele>
        <time>2022-05-25T12:36:49Z</time>
      </trkpt>
      <trkpt lat="49.90883" lon="1.93423">
        <ele>55.8</ele>
        <time>2022-05-25T12:36:50Z</time>
      </trkpt>
      <trkpt lat="49.90884" lon="1.93421">
        <ele>55.7</ele>
        <time>2022-05-25T12:36:51Z</time>
      </trkpt>
      <trkpt lat="49.90886" lon="1.93419">
        <ele>55.6</ele>
        <time>2022-05-25T12:36:53Z</time>
      </trkpt>
      <trkpt lat="49.90887" lon="1.93418">
        <ele>55.6</ele>
        <time>2022-05-25T12:36:54Z</time>
      </trkpt>
      <trkpt lat="49.90889" lon="1.93416">
        <ele>55.5</ele>
        <time>2022-05-25T12:36:56Z</time>
      </trkpt>
      <trkpt lat="49.9089" lon="1.93415">
        <ele>55.5</ele>
        <time>2022-05-25T12:36:57Z</time>
      </trkpt>
      <trkpt lat="49.90891" lon="1.93413">
        <ele>55.4</ele>
        <time>2022-05-25T12:36:58Z</time>
      </trkpt>
      <trkpt lat="49.90893" lon="1.93411">
        <ele>55.3</ele>
        <time>2022-05-25T12:36:59Z</time>
      </trkpt>
      <trkpt lat="49.90894" lon="1.93409">
        <ele>55.2</ele>
        <time>2022-05-25T12:37:00Z</time>
      </trkpt>
      <trkpt lat="49.90894" lon="1.93407">
        <ele>55.1</ele>
        <time>2022-05-25T12:37:01Z</time>
      </trkpt>
      <trkpt lat="49.90895" lon="1.93406">
        <ele>55.1</ele>
        <time>2022-05-25T12:37:02Z</time>
      </trkpt>
      <trkpt lat="49.90897" lon="1.93404">
        <ele>55</ele>
        <time>2022-05-25T12:37:04Z</time>
      </trkpt>
      <trkpt lat="49.90898" lon="1.93402">
        <ele>54.9</ele>
        <time>2022-05-25T12:37:05Z</time>
      </trkpt>
      <trkpt lat="49.90899" lon="1.93401">
        <ele>54.9</ele>
        <time>2022-05-25T12:37:06Z</time>
      </trkpt>
      <trkpt lat="49.909" lon="1.934">
        <ele>54.8</ele>
        <time>2022-05-25T12:37:07Z</time>
      </trkpt>
      <trkpt lat="49.909" lon="1.934">
        <ele>54.8</ele>
        <time>2022-05-25T12:37:08Z</time>
      </trkpt>
      <trkpt lat="49.90901" lon="1.93399">
        <ele>54.7</ele>
        <time>2022-05-25T12:37:09Z</time>
      </trkpt>
      <trkpt lat="49.90903" lon="1.93397">
        <ele>54.7</ele>
        <time>2022-05-25T12:37:10Z</time>
      </trkpt>
      <trkpt lat="49.90904" lon="1.93396">
        <ele>54.6</ele>
        <time>2022-05-25T12:37:11Z</time>
      </trkpt>
      <trkpt lat="49.90905" lon="1.93395">
        <ele>54.5</ele>
        <time>2022-05-25T12:37:12Z</time>
      </trkpt>
      <trkpt lat="49.90906" lon="1.93392">
        <ele>54.4</ele>
        <time>2022-05-25T12:37:14Z</time>
      </trkpt>
      <trkpt lat="49.90906" lon="1.93391">
        <ele>54.4</ele>
        <time>2022-05-25T12:37:15Z</time>
      </trkpt>
      <trkpt lat="49.90907" lon="1.9339">
        <ele>54.3</ele>
        <time>2022-05-25T12:37:16Z</time>
      </trkpt>
      <trkpt lat="49.90908" lon="1.93389">
        <ele>54.2</ele>
        <time>2022-05-25T12:37:17Z</time>
      </trkpt>
      <trkpt lat="49.90909" lon="1.93387">
        <ele>54.2</ele>
        <time>2022-05-25T12:37:18Z</time>
      </trkpt>
      <trkpt lat="49.90911" lon="1.93385">
        <ele>54.1</ele>
        <time>2022-05-25T12:37:19Z</time>
      </trkpt>
      <trkpt lat="49.90912" lon="1.93383">
        <ele>54</ele>
        <time>2022-05-25T12:37:21Z</time>
      </trkpt>
      <trkpt lat="49.90912" lon="1.93382">
        <ele>54</ele>
        <time>2022-05-25T12:37:22Z</time>
      </trkpt>
      <trkpt lat="49.90913" lon="1.93381">
        <ele>54</ele>
        <time>2022-05-25T12:37:23Z</time>
      </trkpt>
      <trkpt lat="49.90913" lon="1.9338">
        <ele>53.9</ele>
        <time>2022-05-25T12:37:24Z</time>
      </trkpt>
      <trkpt lat="49.90915" lon="1.93378">
        <ele>53.9</ele>
        <time>2022-05-25T12:37:25Z</time>
      </trkpt>
      <trkpt lat="49.90915" lon="1.93377">
        <ele>53.8</ele>
        <time>2022-05-25T12:37:26Z</time>
      </trkpt>
      <trkpt lat="49.90916" lon="1.93375">
        <ele>53.8</ele>
        <time>2022-05-25T12:37:27Z</time>
      </trkpt>
      <trkpt lat="49.90917" lon="1.93374">
        <ele>53.7</ele>
        <time>2022-05-25T12:37:28Z</time>
      </trkpt>
      <trkpt lat="49.90919" lon="1.93372">
        <ele>53.6</ele>
        <time>2022-05-25T12:37:29Z</time>
      </trkpt>
      <trkpt lat="49.9092" lon="1.9337">
        <ele>53.6</ele>
        <time>2022-05-25T12:37:30Z</time>
      </trkpt>
      <trkpt lat="49.90921" lon="1.93368">
        <ele>53.5</ele>
        <time>2022-05-25T12:37:31Z</time>
      </trkpt>
      <trkpt lat="49.90922" lon="1.93368">
        <ele>53.5</ele>
        <time>2022-05-25T12:37:32Z</time>
      </trkpt>
      <trkpt lat="49.90922" lon="1.93367">
        <ele>53.5</ele>
        <time>2022-05-25T12:37:33Z</time>
      </trkpt>
      <trkpt lat="49.90924" lon="1.93365">
        <ele>53.4</ele>
        <time>2022-05-25T12:37:34Z</time>
      </trkpt>
      <trkpt lat="49.90925" lon="1.93364">
        <ele>53.4</ele>
        <time>2022-05-25T12:37:35Z</time>
      </trkpt>
      <trkpt lat="49.90926" lon="1.93363">
        <ele>53.3</ele>
        <time>2022-05-25T12:37:36Z</time>
      </trkpt>
      <trkpt lat="49.90927" lon="1.93362">
        <ele>53.3</ele>
        <time>2022-05-25T12:37:37Z</time>
      </trkpt>
      <trkpt lat="49.90928" lon="1.9336">
        <ele>53.3</ele>
        <time>2022-05-25T12:37:39Z</time>
      </trkpt>
      <trkpt lat="49.9093" lon="1.93358">
        <ele>53.2</ele>
        <time>2022-05-25T12:37:40Z</time>
      </trkpt>
      <trkpt lat="49.90931" lon="1.93357">
        <ele>53.2</ele>
        <time>2022-05-25T12:37:41Z</time>
      </trkpt>
      <trkpt lat="49.90931" lon="1.93357">
        <ele>53.2</ele>
        <time>2022-05-25T12:37:42Z</time>
      </trkpt>
      <trkpt lat="49.90934" lon="1.93354">
        <ele>53.1</ele>
        <time>2022-05-25T12:37:43Z</time>
      </trkpt>
      <trkpt lat="49.90934" lon="1.93353">
        <ele>53.1</ele>
        <time>2022-05-25T12:37:44Z</time>
      </trkpt>
      <trkpt lat="49.90935" lon="1.93353">
        <ele>53.1</ele>
        <time>2022-05-25T12:37:45Z</time>
      </trkpt>
      <trkpt lat="49.90936" lon="1.93352">
        <ele>53.1</ele>
        <time>2022-05-25T12:37:47Z</time>
      </trkpt>
      <trkpt lat="49.90937" lon="1.9335">
        <ele>53</ele>
        <time>2022-05-25T12:37:48Z</time>
      </trkpt>
      <trkpt lat="49.90938" lon="1.93349">
        <ele>53</ele>
        <time>2022-05-25T12:37:49Z</time>
      </trkpt>
      <trkpt lat="49.90939" lon="1.93347">
        <ele>53</ele>
        <time>2022-05-25T12:37:50Z</time>
      </trkpt>
      <trkpt lat="49.9094" lon="1.93344">
        <ele>52.9</ele>
        <time>2022-05-25T12:37:51Z</time>
      </trkpt>
      <trkpt lat="49.90941" lon="1.93343">
        <ele>52.9</ele>
        <time>2022-05-25T12:37:52Z</time>
      </trkpt>
      <trkpt lat="49.90941" lon="1.93342">
        <ele>52.9</ele>
        <time>2022-05-25T12:37:53Z</time>
      </trkpt>
      <trkpt lat="49.90943" lon="1.9334">
        <ele>52.8</ele>
        <time>2022-05-25T12:37:54Z</time>
      </trkpt>
      <trkpt lat="49.90944" lon="1.93339">
        <ele>52.8</ele>
        <time>2022-05-25T12:37:56Z</time>
      </trkpt>
      <trkpt lat="49.90944" lon="1.93338">
        <ele>52.8</ele>
        <time>2022-05-25T12:37:57Z</time>
      </trkpt>
      <trkpt lat="49.90945" lon="1.93337">
        <ele>52.7</ele>
        <time>2022-05-25T12:37:58Z</time>
      </trkpt>
      <trkpt lat="49.90946" lon="1.93336">
        <ele>52.7</ele>
        <time>2022-05-25T12:37:59Z</time>
      </trkpt>
      <trkpt lat="49.90947" lon="1.93334">
        <ele>52.7</ele>
        <time>2022-05-25T12:38:00Z</time>
      </trkpt>
      <trkpt lat="49.90948" lon="1.93332">
        <ele>52.6</ele>
        <time>2022-05-25T12:38:01Z</time>
      </trkpt>
      <trkpt lat="49.90949" lon="1.93331">
        <ele>52.6</ele>
        <time>2022-05-25T12:38:02Z</time>
      </trkpt>
      <trkpt lat="49.9095" lon="1.93329">
        <ele>52.6</ele>
        <time>2022-05-25T12:38:03Z</time>
      </trkpt>
      <trkpt lat="49.90951" lon="1.93327">
        <ele>52.5</ele>
        <time>2022-05-25T12:38:04Z</time>
      </trkpt>
      <trkpt lat="49.90952" lon="1.93327">
        <ele>52.5</ele>
        <time>2022-05-25T12:38:05Z</time>
      </trkpt>
      <trkpt lat="49.90953" lon="1.93325">
        <ele>52.5</ele>
        <time>2022-05-25T12:38:06Z</time>
      </trkpt>
      <trkpt lat="49.90954" lon="1.93323">
        <ele>52.4</ele>
        <time>2022-05-25T12:38:07Z</time>
      </trkpt>
      <trkpt lat="49.90955" lon="1.93322">
        <ele>52.4</ele>
        <time>2022-05-25T12:38:08Z</time>
      </trkpt>
      <trkpt lat="49.90956" lon="1.93321">
        <ele>52.4</ele>
        <time>2022-05-25T12:38:09Z</time>
      </trkpt>
      <trkpt lat="49.90956" lon="1.9332">
        <ele>52.4</ele>
        <time>2022-05-25T12:38:11Z</time>
      </trkpt>
      <trkpt lat="49.90957" lon="1.93319">
        <ele>52.4</ele>
        <time>2022-05-25T12:38:12Z</time>
      </trkpt>
      <trkpt lat="49.90958" lon="1.93318">
        <ele>52.3</ele>
        <time>2022-05-25T12:38:13Z</time>
      </trkpt>
      <trkpt lat="49.90959" lon="1.93316">
        <ele>52.3</ele>
        <time>2022-05-25T12:38:14Z</time>
      </trkpt>
      <trkpt lat="49.9096" lon="1.93315">
        <ele>52.3</ele>
        <time>2022-05-25T12:38:15Z</time>
      </trkpt>
      <trkpt lat="49.90962" lon="1.93312">
        <ele>52.2</ele>
        <time>2022-05-25T12:38:16Z</time>
      </trkpt>
      <trkpt lat="49.90962" lon="1.93311">
        <ele>52.2</ele>
        <time>2022-05-25T12:38:17Z</time>
      </trkpt>
      <trkpt lat="49.90963" lon="1.93311">
        <ele>52.2</ele>
        <time>2022-05-25T12:38:18Z</time>
      </trkpt>
      <trkpt lat="49.90965" lon="1.93309">
        <ele>52.1</ele>
        <time>2022-05-25T12:38:20Z</time>
      </trkpt>
      <trkpt lat="49.90966" lon="1.93308">
        <ele>52.1</ele>
        <time>2022-05-25T12:38:21Z</time>
      </trkpt>
      <trkpt lat="49.90967" lon="1.93306">
        <ele>52.1</ele>
        <time>2022-05-25T12:38:22Z</time>
      </trkpt>
      <trkpt lat="49.90968" lon="1.93305">
        <ele>52</ele>
        <time>2022-05-25T12:38:23Z</time>
      </trkpt>
      <trkpt lat="49.90969" lon="1.93303">
        <ele>52</ele>
        <time>2022-05-25T12:38:24Z</time>
      </trkpt>
      <trkpt lat="49.9097" lon="1.93302">
        <ele>52</ele>
        <time>2022-05-25T12:38:25Z</time>
      </trkpt>
      <trkpt lat="49.90971" lon="1.933">
        <ele>51.9</ele>
        <time>2022-05-25T12:38:26Z</time>
      </trkpt>
      <trkpt lat="49.90972" lon="1.93299">
        <ele>51.9</ele>
        <time>2022-05-25T12:38:27Z</time>
      </trkpt>
      <trkpt lat="49.90973" lon="1.93298">
        <ele>51.9</ele>
        <time>2022-05-25T12:38:29Z</time>
      </trkpt>
      <trkpt lat="49.90974" lon="1.93296">
        <ele>51.8</ele>
        <time>2022-05-25T12:38:30Z</time>
      </trkpt>
      <trkpt lat="49.90975" lon="1.93295">
        <ele>51.8</ele>
        <time>2022-05-25T12:38:31Z</time>
      </trkpt>
      <trkpt lat="49.90976" lon="1.93294">
        <ele>51.8</ele>
        <time>2022-05-25T12:38:32Z</time>
      </trkpt>
      <trkpt lat="49.90977" lon="1.93292">
        <ele>51.8</ele>
        <time>2022-05-25T12:38:33Z</time>
      </trkpt>
      <trkpt lat="49.90978" lon="1.9329">
        <ele>51.7</ele>
        <time>2022-05-25T12:38:34Z</time>
      </trkpt>
      <trkpt lat="49.90979" lon="1.93289">
        <ele>51.7</ele>
        <time>2022-05-25T12:38:35Z</time>
      </trkpt>
      <trkpt lat="49.90981" lon="1.93287">
        <ele>51.7</ele>
        <time>2022-05-25T12:38:37Z</time>
      </trkpt>
      <trkpt lat="49.90981" lon="1.93286">
        <ele>51.7</ele>
        <time>2022-05-25T12:38:38Z</time>
      </trkpt>
      <trkpt lat="49.90983" lon="1.93284">
        <ele>51.7</ele>
        <time>2022-05-25T12:38:39Z</time>
      </trkpt>
      <trkpt lat="49.90984" lon="1.93282">
        <ele>51.7</ele>
        <time>2022-05-25T12:38:40Z</time>
      </trkpt>
      <trkpt lat="49.90985" lon="1.93281">
        <ele>51.7</ele>
        <time>2022-05-25T12:38:41Z</time>
      </trkpt>
      <trkpt lat="49.90986" lon="1.93279">
        <ele>51.7</ele>
        <time>2022-05-25T12:38:42Z</time>
      </trkpt>
      <trkpt lat="49.90987" lon="1.93278">
        <ele>51.7</ele>
        <time>2022-05-25T12:38:43Z</time>
      </trkpt>
      <trkpt lat="49.90988" lon="1.93277">
        <ele>51.7</ele>
        <time>2022-05-25T12:38:44Z</time>
      </trkpt>
      <trkpt lat="49.90989" lon="1.93276">
        <ele>51.7</ele>
        <time>2022-05-25T12:38:46Z</time>
      </trkpt>
      <trkpt lat="49.9099" lon="1.93275">
        <ele>51.7</ele>
        <time>2022-05-25T12:38:47Z</time>
      </trkpt>
      <trkpt lat="49.90991" lon="1.93274">
        <ele>51.7</ele>
        <time>2022-05-25T12:38:48Z</time>
      </trkpt>
      <trkpt lat="49.90992" lon="1.93272">
        <ele>51.7</ele>
        <time>2022-05-25T12:38:49Z</time>
      </trkpt>
      <trkpt lat="49.90994" lon="1.9327">
        <ele>51.7</ele>
        <time>2022-05-25T12:38:50Z</time>
      </trkpt>
      <trkpt lat="49.90995" lon="1.93269">
        <ele>51.7</ele>
        <time>2022-05-25T12:38:51Z</time>
      </trkpt>
      <trkpt lat="49.90996" lon="1.93268">
        <ele>51.7</ele>
        <time>2022-05-25T12:38:52Z</time>
      </trkpt>
      <trkpt lat="49.90997" lon="1.93266">
        <ele>51.7</ele>
        <time>2022-05-25T12:38:53Z</time>
      </trkpt>
      <trkpt lat="49.90999" lon="1.93264">
        <ele>51.7</ele>
        <time>2022-05-25T12:38:55Z</time>
      </trkpt>
      <trkpt lat="49.91" lon="1.93263">
        <ele>51.7</ele>
        <time>2022-05-25T12:38:56Z</time>
      </trkpt>
      <trkpt lat="49.91001" lon="1.93262">
        <ele>51.7</ele>
        <time>2022-05-25T12:38:57Z</time>
      </trkpt>
      <trkpt lat="49.91002" lon="1.9326">
        <ele>51.7</ele>
        <time>2022-05-25T12:38:58Z</time>
      </trkpt>
      <trkpt lat="49.91003" lon="1.93259">
        <ele>51.7</ele>
        <time>2022-05-25T12:38:59Z</time>
      </trkpt>
      <trkpt lat="49.91004" lon="1.93257">
        <ele>51.7</ele>
        <time>2022-05-25T12:39:00Z</time>
      </trkpt>
      <trkpt lat="49.91006" lon="1.93256">
        <ele>51.7</ele>
        <time>2022-05-25T12:39:02Z</time>
      </trkpt>
      <trkpt lat="49.91006" lon="1.93254">
        <ele>51.7</ele>
        <time>2022-05-25T12:39:03Z</time>
      </trkpt>
      <trkpt lat="49.91007" lon="1.93253">
        <ele>51.7</ele>
        <time>2022-05-25T12:39:04Z</time>
      </trkpt>
      <trkpt lat="49.91008" lon="1.93251">
        <ele>51.7</ele>
        <time>2022-05-25T12:39:05Z</time>
      </trkpt>
      <trkpt lat="49.9101" lon="1.9325">
        <ele>51.7</ele>
        <time>2022-05-25T12:39:06Z</time>
      </trkpt>
      <trkpt lat="49.91011" lon="1.93248">
        <ele>51.7</ele>
        <time>2022-05-25T12:39:07Z</time>
      </trkpt>
      <trkpt lat="49.91012" lon="1.93247">
        <ele>51.7</ele>
        <time>2022-05-25T12:39:08Z</time>
      </trkpt>
      <trkpt lat="49.91013" lon="1.93245">
        <ele>51.7</ele>
        <time>2022-05-25T12:39:09Z</time>
      </trkpt>
      <trkpt lat="49.91015" lon="1.93243">
        <ele>51.7</ele>
        <time>2022-05-25T12:39:11Z</time>
      </trkpt>
      <trkpt lat="49.91015" lon="1.93242">
        <ele>51.7</ele>
        <time>2022-05-25T12:39:12Z</time>
      </trkpt>
      <trkpt lat="49.91016" lon="1.93241">
        <ele>51.7</ele>
        <time>2022-05-25T12:39:13Z</time>
      </trkpt>
      <trkpt lat="49.91018" lon="1.93239">
        <ele>51.7</ele>
        <time>2022-05-25T12:39:14Z</time>
      </trkpt>
      <trkpt lat="49.91018" lon="1.93238">
        <ele>51.7</ele>
        <time>2022-05-25T12:39:15Z</time>
      </trkpt>
      <trkpt lat="49.91019" lon="1.93236">
        <ele>51.7</ele>
        <time>2022-05-25T12:39:16Z</time>
      </trkpt>
      <trkpt lat="49.91019" lon="1.93235">
        <ele>51.7</ele>
        <time>2022-05-25T12:39:17Z</time>
      </trkpt>
      <trkpt lat="49.9102" lon="1.93234">
        <ele>51.7</ele>
        <time>2022-05-25T12:39:19Z</time>
      </trkpt>
      <trkpt lat="49.91021" lon="1.93233">
        <ele>51.7</ele>
        <time>2022-05-25T12:39:20Z</time>
      </trkpt>
      <trkpt lat="49.91021" lon="1.93232">
        <ele>51.7</ele>
        <time>2022-05-25T12:39:21Z</time>
      </trkpt>
      <trkpt lat="49.91022" lon="1.9323">
        <ele>51.7</ele>
        <time>2022-05-25T12:39:22Z</time>
      </trkpt>
      <trkpt lat="49.91023" lon="1.93229">
        <ele>51.7</ele>
        <time>2022-05-25T12:39:23Z</time>
      </trkpt>
      <trkpt lat="49.91025" lon="1.93227">
        <ele>51.7</ele>
        <time>2022-05-25T12:39:25Z</time>
      </trkpt>
      <trkpt lat="49.91026" lon="1.93226">
        <ele>51.7</ele>
        <time>2022-05-25T12:39:27Z</time>
      </trkpt>
      <trkpt lat="49.91027" lon="1.93225">
        <ele>51.7</ele>
        <time>2022-05-25T12:39:28Z</time>
      </trkpt>
      <trkpt lat="49.91029" lon="1.93223">
        <ele>51.6</ele>
        <time>2022-05-25T12:39:29Z</time>
      </trkpt>
      <trkpt lat="49.9103" lon="1.93222">
        <ele>51.6</ele>
        <time>2022-05-25T12:39:30Z</time>
      </trkpt>
      <trkpt lat="49.91031" lon="1.9322">
        <ele>51.6</ele>
        <time>2022-05-25T12:39:31Z</time>
      </trkpt>
      <trkpt lat="49.91032" lon="1.93219">
        <ele>51.6</ele>
        <time>2022-05-25T12:39:33Z</time>
      </trkpt>
      <trkpt lat="49.91033" lon="1.93217">
        <ele>51.6</ele>
        <time>2022-05-25T12:39:34Z</time>
      </trkpt>
      <trkpt lat="49.91035" lon="1.93216">
        <ele>51.6</ele>
        <time>2022-05-25T12:39:35Z</time>
      </trkpt>
      <trkpt lat="49.91036" lon="1.93215">
        <ele>51.5</ele>
        <time>2022-05-25T12:39:36Z</time>
      </trkpt>
      <trkpt lat="49.91037" lon="1.93213">
        <ele>51.5</ele>
        <time>2022-05-25T12:39:37Z</time>
      </trkpt>
      <trkpt lat="49.91038" lon="1.93212">
        <ele>51.5</ele>
        <time>2022-05-25T12:39:39Z</time>
      </trkpt>
      <trkpt lat="49.91039" lon="1.9321">
        <ele>51.5</ele>
        <time>2022-05-25T12:39:40Z</time>
      </trkpt>
      <trkpt lat="49.91041" lon="1.93207">
        <ele>51.4</ele>
        <time>2022-05-25T12:39:41Z</time>
      </trkpt>
      <trkpt lat="49.91042" lon="1.93206">
        <ele>51.4</ele>
        <time>2022-05-25T12:39:43Z</time>
      </trkpt>
      <trkpt lat="49.91044" lon="1.93205">
        <ele>51.4</ele>
        <time>2022-05-25T12:39:44Z</time>
      </trkpt>
      <trkpt lat="49.91045" lon="1.93203">
        <ele>51.3</ele>
        <time>2022-05-25T12:39:45Z</time>
      </trkpt>
      <trkpt lat="49.91046" lon="1.93202">
        <ele>51.3</ele>
        <time>2022-05-25T12:39:46Z</time>
      </trkpt>
      <trkpt lat="49.91047" lon="1.932">
        <ele>51.3</ele>
        <time>2022-05-25T12:39:47Z</time>
      </trkpt>
      <trkpt lat="49.91048" lon="1.93199">
        <ele>51.2</ele>
        <time>2022-05-25T12:39:48Z</time>
      </trkpt>
      <trkpt lat="49.9105" lon="1.93196">
        <ele>51.2</ele>
        <time>2022-05-25T12:39:50Z</time>
      </trkpt>
      <trkpt lat="49.91051" lon="1.93195">
        <ele>51.1</ele>
        <time>2022-05-25T12:39:51Z</time>
      </trkpt>
      <trkpt lat="49.91052" lon="1.93193">
        <ele>51.1</ele>
        <time>2022-05-25T12:39:53Z</time>
      </trkpt>
      <trkpt lat="49.91054" lon="1.93191">
        <ele>51</ele>
        <time>2022-05-25T12:39:54Z</time>
      </trkpt>
      <trkpt lat="49.91055" lon="1.93189">
        <ele>51</ele>
        <time>2022-05-25T12:39:55Z</time>
      </trkpt>
      <trkpt lat="49.91056" lon="1.93187">
        <ele>51</ele>
        <time>2022-05-25T12:39:56Z</time>
      </trkpt>
      <trkpt lat="49.91057" lon="1.93186">
        <ele>50.9</ele>
        <time>2022-05-25T12:39:58Z</time>
      </trkpt>
      <trkpt lat="49.91058" lon="1.93185">
        <ele>50.9</ele>
        <time>2022-05-25T12:39:59Z</time>
      </trkpt>
      <trkpt lat="49.91059" lon="1.93183">
        <ele>50.9</ele>
        <time>2022-05-25T12:40:00Z</time>
      </trkpt>
      <trkpt lat="49.9106" lon="1.93182">
        <ele>50.8</ele>
        <time>2022-05-25T12:40:01Z</time>
      </trkpt>
      <trkpt lat="49.91061" lon="1.9318">
        <ele>50.8</ele>
        <time>2022-05-25T12:40:02Z</time>
      </trkpt>
      <trkpt lat="49.91062" lon="1.93179">
        <ele>50.8</ele>
        <time>2022-05-25T12:40:03Z</time>
      </trkpt>
      <trkpt lat="49.91065" lon="1.93176">
        <ele>50.7</ele>
        <time>2022-05-25T12:40:05Z</time>
      </trkpt>
      <trkpt lat="49.91066" lon="1.93175">
        <ele>50.7</ele>
        <time>2022-05-25T12:40:07Z</time>
      </trkpt>
      <trkpt lat="49.91067" lon="1.93174">
        <ele>50.7</ele>
        <time>2022-05-25T12:40:08Z</time>
      </trkpt>
      <trkpt lat="49.91068" lon="1.93173">
        <ele>50.7</ele>
        <time>2022-05-25T12:40:09Z</time>
      </trkpt>
      <trkpt lat="49.91068" lon="1.93173">
        <ele>50.6</ele>
        <time>2022-05-25T12:40:10Z</time>
      </trkpt>
      <trkpt lat="49.91069" lon="1.93171">
        <ele>50.6</ele>
        <time>2022-05-25T12:40:11Z</time>
      </trkpt>
      <trkpt lat="49.9107" lon="1.9317">
        <ele>50.6</ele>
        <time>2022-05-25T12:40:12Z</time>
      </trkpt>
      <trkpt lat="49.91072" lon="1.93168">
        <ele>50.6</ele>
        <time>2022-05-25T12:40:13Z</time>
      </trkpt>
      <trkpt lat="49.91073" lon="1.93166">
        <ele>50.5</ele>
        <time>2022-05-25T12:40:14Z</time>
      </trkpt>
      <trkpt lat="49.91074" lon="1.93165">
        <ele>50.5</ele>
        <time>2022-05-25T12:40:16Z</time>
      </trkpt>
      <trkpt lat="49.91075" lon="1.93164">
        <ele>50.5</ele>
        <time>2022-05-25T12:40:17Z</time>
      </trkpt>
      <trkpt lat="49.91076" lon="1.93163">
        <ele>50.5</ele>
        <time>2022-05-25T12:40:18Z</time>
      </trkpt>
      <trkpt lat="49.91078" lon="1.9316">
        <ele>50.4</ele>
        <time>2022-05-25T12:40:20Z</time>
      </trkpt>
      <trkpt lat="49.91078" lon="1.93159">
        <ele>50.4</ele>
        <time>2022-05-25T12:40:21Z</time>
      </trkpt>
      <trkpt lat="49.9108" lon="1.93158">
        <ele>50.4</ele>
        <time>2022-05-25T12:40:22Z</time>
      </trkpt>
      <trkpt lat="49.9108" lon="1.93157">
        <ele>50.4</ele>
        <time>2022-05-25T12:40:23Z</time>
      </trkpt>
      <trkpt lat="49.91082" lon="1.93155">
        <ele>50.4</ele>
        <time>2022-05-25T12:40:25Z</time>
      </trkpt>
      <trkpt lat="49.91083" lon="1.93154">
        <ele>50.3</ele>
        <time>2022-05-25T12:40:26Z</time>
      </trkpt>
      <trkpt lat="49.91084" lon="1.93153">
        <ele>50.3</ele>
        <time>2022-05-25T12:40:27Z</time>
      </trkpt>
      <trkpt lat="49.91085" lon="1.93152">
        <ele>50.3</ele>
        <time>2022-05-25T12:40:28Z</time>
      </trkpt>
      <trkpt lat="49.91086" lon="1.9315">
        <ele>50.3</ele>
        <time>2022-05-25T12:40:29Z</time>
      </trkpt>
      <trkpt lat="49.91086" lon="1.93149">
        <ele>50.3</ele>
        <time>2022-05-25T12:40:30Z</time>
      </trkpt>
      <trkpt lat="49.91087" lon="1.93147">
        <ele>50.3</ele>
        <time>2022-05-25T12:40:31Z</time>
      </trkpt>
      <trkpt lat="49.91088" lon="1.93145">
        <ele>50.3</ele>
        <time>2022-05-25T12:40:32Z</time>
      </trkpt>
      <trkpt lat="49.91089" lon="1.93144">
        <ele>50.3</ele>
        <time>2022-05-25T12:40:34Z</time>
      </trkpt>
      <trkpt lat="49.9109" lon="1.93142">
        <ele>50.3</ele>
        <time>2022-05-25T12:40:35Z</time>
      </trkpt>
      <trkpt lat="49.91091" lon="1.9314">
        <ele>50.2</ele>
        <time>2022-05-25T12:40:36Z</time>
      </trkpt>
      <trkpt lat="49.91092" lon="1.93139">
        <ele>50.2</ele>
        <time>2022-05-25T12:40:37Z</time>
      </trkpt>
      <trkpt lat="49.91092" lon="1.93138">
        <ele>50.2</ele>
        <time>2022-05-25T12:40:38Z</time>
      </trkpt>
      <trkpt lat="49.91094" lon="1.93135">
        <ele>50.2</ele>
        <time>2022-05-25T12:40:40Z</time>
      </trkpt>
      <trkpt lat="49.91095" lon="1.93134">
        <ele>50.2</ele>
        <time>2022-05-25T12:40:41Z</time>
      </trkpt>
      <trkpt lat="49.91096" lon="1.93133">
        <ele>50.2</ele>
        <time>2022-05-25T12:40:42Z</time>
      </trkpt>
      <trkpt lat="49.91097" lon="1.93131">
        <ele>50.2</ele>
        <time>2022-05-25T12:40:43Z</time>
      </trkpt>
      <trkpt lat="49.91099" lon="1.9313">
        <ele>50.1</ele>
        <time>2022-05-25T12:40:44Z</time>
      </trkpt>
      <trkpt lat="49.911" lon="1.93129">
        <ele>50.1</ele>
        <time>2022-05-25T12:40:45Z</time>
      </trkpt>
      <trkpt lat="49.91102" lon="1.93127">
        <ele>50.1</ele>
        <time>2022-05-25T12:40:46Z</time>
      </trkpt>
      <trkpt lat="49.91102" lon="1.93126">
        <ele>50</ele>
        <time>2022-05-25T12:40:47Z</time>
      </trkpt>
      <trkpt lat="49.91103" lon="1.93125">
        <ele>50</ele>
        <time>2022-05-25T12:40:48Z</time>
      </trkpt>
      <trkpt lat="49.91105" lon="1.93123">
        <ele>50</ele>
        <time>2022-05-25T12:40:49Z</time>
      </trkpt>
      <trkpt lat="49.91106" lon="1.93122">
        <ele>49.9</ele>
        <time>2022-05-25T12:40:50Z</time>
      </trkpt>
      <trkpt lat="49.91106" lon="1.93121">
        <ele>49.9</ele>
        <time>2022-05-25T12:40:52Z</time>
      </trkpt>
      <trkpt lat="49.91107" lon="1.93119">
        <ele>49.9</ele>
        <time>2022-05-25T12:40:53Z</time>
      </trkpt>
      <trkpt lat="49.91108" lon="1.93118">
        <ele>49.8</ele>
        <time>2022-05-25T12:40:54Z</time>
      </trkpt>
      <trkpt lat="49.91109" lon="1.93116">
        <ele>49.8</ele>
        <time>2022-05-25T12:40:55Z</time>
      </trkpt>
      <trkpt lat="49.9111" lon="1.93115">
        <ele>49.7</ele>
        <time>2022-05-25T12:40:56Z</time>
      </trkpt>
      <trkpt lat="49.91111" lon="1.93113">
        <ele>49.7</ele>
        <time>2022-05-25T12:40:57Z</time>
      </trkpt>
      <trkpt lat="49.91112" lon="1.93112">
        <ele>49.7</ele>
        <time>2022-05-25T12:40:58Z</time>
      </trkpt>
      <trkpt lat="49.91112" lon="1.93111">
        <ele>49.6</ele>
        <time>2022-05-25T12:40:59Z</time>
      </trkpt>
      <trkpt lat="49.91113" lon="1.93109">
        <ele>49.6</ele>
        <time>2022-05-25T12:41:00Z</time>
      </trkpt>
      <trkpt lat="49.91114" lon="1.93108">
        <ele>49.6</ele>
        <time>2022-05-25T12:41:01Z</time>
      </trkpt>
      <trkpt lat="49.91114" lon="1.93106">
        <ele>49.6</ele>
        <time>2022-05-25T12:41:02Z</time>
      </trkpt>
      <trkpt lat="49.91115" lon="1.93105">
        <ele>49.5</ele>
        <time>2022-05-25T12:41:04Z</time>
      </trkpt>
      <trkpt lat="49.91117" lon="1.93103">
        <ele>49.5</ele>
        <time>2022-05-25T12:41:05Z</time>
      </trkpt>
      <trkpt lat="49.91118" lon="1.93101">
        <ele>49.5</ele>
        <time>2022-05-25T12:41:06Z</time>
      </trkpt>
      <trkpt lat="49.91119" lon="1.931">
        <ele>49.4</ele>
        <time>2022-05-25T12:41:07Z</time>
      </trkpt>
      <trkpt lat="49.9112" lon="1.93099">
        <ele>49.4</ele>
        <time>2022-05-25T12:41:08Z</time>
      </trkpt>
      <trkpt lat="49.91122" lon="1.93097">
        <ele>49.4</ele>
        <time>2022-05-25T12:41:09Z</time>
      </trkpt>
      <trkpt lat="49.91122" lon="1.93096">
        <ele>49.4</ele>
        <time>2022-05-25T12:41:11Z</time>
      </trkpt>
      <trkpt lat="49.91123" lon="1.93095">
        <ele>49.3</ele>
        <time>2022-05-25T12:41:12Z</time>
      </trkpt>
      <trkpt lat="49.91125" lon="1.93093">
        <ele>49.3</ele>
        <time>2022-05-25T12:41:13Z</time>
      </trkpt>
      <trkpt lat="49.91127" lon="1.93091">
        <ele>49.3</ele>
        <time>2022-05-25T12:41:14Z</time>
      </trkpt>
      <trkpt lat="49.91128" lon="1.9309">
        <ele>49.3</ele>
        <time>2022-05-25T12:41:15Z</time>
      </trkpt>
      <trkpt lat="49.91129" lon="1.93088">
        <ele>49.3</ele>
        <time>2022-05-25T12:41:16Z</time>
      </trkpt>
      <trkpt lat="49.9113" lon="1.93087">
        <ele>49.3</ele>
        <time>2022-05-25T12:41:17Z</time>
      </trkpt>
      <trkpt lat="49.9113" lon="1.93086">
        <ele>49.3</ele>
        <time>2022-05-25T12:41:18Z</time>
      </trkpt>
      <trkpt lat="49.91132" lon="1.93084">
        <ele>49.3</ele>
        <time>2022-05-25T12:41:20Z</time>
      </trkpt>
      <trkpt lat="49.91133" lon="1.93083">
        <ele>49.3</ele>
        <time>2022-05-25T12:41:21Z</time>
      </trkpt>
      <trkpt lat="49.91134" lon="1.93082">
        <ele>49.3</ele>
        <time>2022-05-25T12:41:22Z</time>
      </trkpt>
      <trkpt lat="49.91136" lon="1.93079">
        <ele>49.3</ele>
        <time>2022-05-25T12:41:23Z</time>
      </trkpt>
      <trkpt lat="49.91137" lon="1.93078">
        <ele>49.3</ele>
        <time>2022-05-25T12:41:24Z</time>
      </trkpt>
      <trkpt lat="49.91138" lon="1.93077">
        <ele>49.3</ele>
        <time>2022-05-25T12:41:25Z</time>
      </trkpt>
      <trkpt lat="49.91139" lon="1.93076">
        <ele>49.3</ele>
        <time>2022-05-25T12:41:26Z</time>
      </trkpt>
      <trkpt lat="49.9114" lon="1.93074">
        <ele>49.3</ele>
        <time>2022-05-25T12:41:27Z</time>
      </trkpt>
      <trkpt lat="49.91141" lon="1.93073">
        <ele>49.3</ele>
        <time>2022-05-25T12:41:28Z</time>
      </trkpt>
      <trkpt lat="49.91142" lon="1.93071">
        <ele>49.3</ele>
        <time>2022-05-25T12:41:29Z</time>
      </trkpt>
      <trkpt lat="49.91144" lon="1.93069">
        <ele>49.3</ele>
        <time>2022-05-25T12:41:31Z</time>
      </trkpt>
      <trkpt lat="49.91144" lon="1.93068">
        <ele>49.3</ele>
        <time>2022-05-25T12:41:32Z</time>
      </trkpt>
      <trkpt lat="49.91146" lon="1.93066">
        <ele>49.3</ele>
        <time>2022-05-25T12:41:33Z</time>
      </trkpt>
      <trkpt lat="49.91146" lon="1.93065">
        <ele>49.3</ele>
        <time>2022-05-25T12:41:34Z</time>
      </trkpt>
      <trkpt lat="49.91147" lon="1.93064">
        <ele>49.3</ele>
        <time>2022-05-25T12:41:35Z</time>
      </trkpt>
      <trkpt lat="49.91148" lon="1.93062">
        <ele>49.3</ele>
        <time>2022-05-25T12:41:36Z</time>
      </trkpt>
      <trkpt lat="49.91149" lon="1.9306">
        <ele>49.3</ele>
        <time>2022-05-25T12:41:37Z</time>
      </trkpt>
      <trkpt lat="49.9115" lon="1.93058">
        <ele>49.3</ele>
        <time>2022-05-25T12:41:38Z</time>
      </trkpt>
      <trkpt lat="49.9115" lon="1.93057">
        <ele>49.3</ele>
        <time>2022-05-25T12:41:39Z</time>
      </trkpt>
      <trkpt lat="49.91152" lon="1.93055">
        <ele>49.3</ele>
        <time>2022-05-25T12:41:40Z</time>
      </trkpt>
      <trkpt lat="49.91153" lon="1.93054">
        <ele>49.3</ele>
        <time>2022-05-25T12:41:41Z</time>
      </trkpt>
      <trkpt lat="49.91154" lon="1.93053">
        <ele>49.3</ele>
        <time>2022-05-25T12:41:43Z</time>
      </trkpt>
      <trkpt lat="49.91156" lon="1.93051">
        <ele>49.2</ele>
        <time>2022-05-25T12:41:44Z</time>
      </trkpt>
      <trkpt lat="49.91158" lon="1.93049">
        <ele>49.2</ele>
        <time>2022-05-25T12:41:45Z</time>
      </trkpt>
      <trkpt lat="49.91159" lon="1.93048">
        <ele>49.2</ele>
        <time>2022-05-25T12:41:46Z</time>
      </trkpt>
      <trkpt lat="49.9116" lon="1.93047">
        <ele>49.2</ele>
        <time>2022-05-25T12:41:47Z</time>
      </trkpt>
      <trkpt lat="49.91161" lon="1.93045">
        <ele>49.2</ele>
        <time>2022-05-25T12:41:48Z</time>
      </trkpt>
      <trkpt lat="49.91163" lon="1.93043">
        <ele>49.1</ele>
        <time>2022-05-25T12:41:49Z</time>
      </trkpt>
      <trkpt lat="49.91164" lon="1.93042">
        <ele>49.1</ele>
        <time>2022-05-25T12:41:50Z</time>
      </trkpt>
      <trkpt lat="49.91166" lon="1.9304">
        <ele>49.1</ele>
        <time>2022-05-25T12:41:51Z</time>
      </trkpt>
      <trkpt lat="49.91167" lon="1.93039">
        <ele>49.1</ele>
        <time>2022-05-25T12:41:53Z</time>
      </trkpt>
      <trkpt lat="49.91168" lon="1.93038">
        <ele>49</ele>
        <time>2022-05-25T12:41:54Z</time>
      </trkpt>
      <trkpt lat="49.91169" lon="1.93036">
        <ele>49</ele>
        <time>2022-05-25T12:41:55Z</time>
      </trkpt>
      <trkpt lat="49.9117" lon="1.93036">
        <ele>49</ele>
        <time>2022-05-25T12:41:56Z</time>
      </trkpt>
      <trkpt lat="49.91172" lon="1.93034">
        <ele>49</ele>
        <time>2022-05-25T12:41:57Z</time>
      </trkpt>
      <trkpt lat="49.91173" lon="1.93033">
        <ele>49</ele>
        <time>2022-05-25T12:41:58Z</time>
      </trkpt>
      <trkpt lat="49.91174" lon="1.93031">
        <ele>48.9</ele>
        <time>2022-05-25T12:41:59Z</time>
      </trkpt>
      <trkpt lat="49.91175" lon="1.9303">
        <ele>48.9</ele>
        <time>2022-05-25T12:42:00Z</time>
      </trkpt>
      <trkpt lat="49.91176" lon="1.93029">
        <ele>48.9</ele>
        <time>2022-05-25T12:42:02Z</time>
      </trkpt>
      <trkpt lat="49.91176" lon="1.93028">
        <ele>48.9</ele>
        <time>2022-05-25T12:42:03Z</time>
      </trkpt>
      <trkpt lat="49.91177" lon="1.93027">
        <ele>48.9</ele>
        <time>2022-05-25T12:42:04Z</time>
      </trkpt>
      <trkpt lat="49.91178" lon="1.93026">
        <ele>48.9</ele>
        <time>2022-05-25T12:42:05Z</time>
      </trkpt>
      <trkpt lat="49.91179" lon="1.93024">
        <ele>48.9</ele>
        <time>2022-05-25T12:42:06Z</time>
      </trkpt>
      <trkpt lat="49.9118" lon="1.93022">
        <ele>48.9</ele>
        <time>2022-05-25T12:42:07Z</time>
      </trkpt>
      <trkpt lat="49.91181" lon="1.93021">
        <ele>48.9</ele>
        <time>2022-05-25T12:42:08Z</time>
      </trkpt>
      <trkpt lat="49.91182" lon="1.93019">
        <ele>48.9</ele>
        <time>2022-05-25T12:42:09Z</time>
      </trkpt>
      <trkpt lat="49.91183" lon="1.93018">
        <ele>48.9</ele>
        <time>2022-05-25T12:42:10Z</time>
      </trkpt>
      <trkpt lat="49.91185" lon="1.93016">
        <ele>48.9</ele>
        <time>2022-05-25T12:42:12Z</time>
      </trkpt>
      <trkpt lat="49.91186" lon="1.93014">
        <ele>48.9</ele>
        <time>2022-05-25T12:42:13Z</time>
      </trkpt>
      <trkpt lat="49.91187" lon="1.93012">
        <ele>48.9</ele>
        <time>2022-05-25T12:42:14Z</time>
      </trkpt>
      <trkpt lat="49.91188" lon="1.93011">
        <ele>49</ele>
        <time>2022-05-25T12:42:15Z</time>
      </trkpt>
      <trkpt lat="49.91189" lon="1.93009">
        <ele>49</ele>
        <time>2022-05-25T12:42:16Z</time>
      </trkpt>
      <trkpt lat="49.9119" lon="1.93007">
        <ele>49</ele>
        <time>2022-05-25T12:42:17Z</time>
      </trkpt>
      <trkpt lat="49.91191" lon="1.93006">
        <ele>49</ele>
        <time>2022-05-25T12:42:18Z</time>
      </trkpt>
      <trkpt lat="49.91191" lon="1.93005">
        <ele>49</ele>
        <time>2022-05-25T12:42:19Z</time>
      </trkpt>
      <trkpt lat="49.91193" lon="1.93003">
        <ele>49</ele>
        <time>2022-05-25T12:42:20Z</time>
      </trkpt>
      <trkpt lat="49.91193" lon="1.93002">
        <ele>49</ele>
        <time>2022-05-25T12:42:21Z</time>
      </trkpt>
      <trkpt lat="49.91194" lon="1.93001">
        <ele>49</ele>
        <time>2022-05-25T12:42:22Z</time>
      </trkpt>
      <trkpt lat="49.91195" lon="1.92999">
        <ele>49</ele>
        <time>2022-05-25T12:42:23Z</time>
      </trkpt>
      <trkpt lat="49.91196" lon="1.92997">
        <ele>49</ele>
        <time>2022-05-25T12:42:24Z</time>
      </trkpt>
      <trkpt lat="49.91198" lon="1.92994">
        <ele>49</ele>
        <time>2022-05-25T12:42:26Z</time>
      </trkpt>
      <trkpt lat="49.91198" lon="1.92993">
        <ele>49</ele>
        <time>2022-05-25T12:42:27Z</time>
      </trkpt>
      <trkpt lat="49.91199" lon="1.92991">
        <ele>49</ele>
        <time>2022-05-25T12:42:28Z</time>
      </trkpt>
      <trkpt lat="49.912" lon="1.9299">
        <ele>49</ele>
        <time>2022-05-25T12:42:29Z</time>
      </trkpt>
      <trkpt lat="49.91203" lon="1.92988">
        <ele>49</ele>
        <time>2022-05-25T12:42:30Z</time>
      </trkpt>
      <trkpt lat="49.91204" lon="1.92987">
        <ele>49</ele>
        <time>2022-05-25T12:42:32Z</time>
      </trkpt>
      <trkpt lat="49.91205" lon="1.92986">
        <ele>48.9</ele>
        <time>2022-05-25T12:42:33Z</time>
      </trkpt>
      <trkpt lat="49.91206" lon="1.92985">
        <ele>48.9</ele>
        <time>2022-05-25T12:42:34Z</time>
      </trkpt>
      <trkpt lat="49.91207" lon="1.92984">
        <ele>48.9</ele>
        <time>2022-05-25T12:42:35Z</time>
      </trkpt>
      <trkpt lat="49.91209" lon="1.92983">
        <ele>48.9</ele>
        <time>2022-05-25T12:42:36Z</time>
      </trkpt>
      <trkpt lat="49.9121" lon="1.92982">
        <ele>48.9</ele>
        <time>2022-05-25T12:42:37Z</time>
      </trkpt>
      <trkpt lat="49.91212" lon="1.9298">
        <ele>48.9</ele>
        <time>2022-05-25T12:42:39Z</time>
      </trkpt>
      <trkpt lat="49.91213" lon="1.92978">
        <ele>48.9</ele>
        <time>2022-05-25T12:42:41Z</time>
      </trkpt>
      <trkpt lat="49.91214" lon="1.92977">
        <ele>48.9</ele>
        <time>2022-05-25T12:42:42Z</time>
      </trkpt>
      <trkpt lat="49.91215" lon="1.92976">
        <ele>48.9</ele>
        <time>2022-05-25T12:42:43Z</time>
      </trkpt>
      <trkpt lat="49.91216" lon="1.92975">
        <ele>48.9</ele>
        <time>2022-05-25T12:42:44Z</time>
      </trkpt>
      <trkpt lat="49.91217" lon="1.92973">
        <ele>48.9</ele>
        <time>2022-05-25T12:42:45Z</time>
      </trkpt>
      <trkpt lat="49.91218" lon="1.92972">
        <ele>48.9</ele>
        <time>2022-05-25T12:42:46Z</time>
      </trkpt>
      <trkpt lat="49.91218" lon="1.92972">
        <ele>48.9</ele>
        <time>2022-05-25T12:42:47Z</time>
      </trkpt>
      <trkpt lat="49.91219" lon="1.9297">
        <ele>48.9</ele>
        <time>2022-05-25T12:42:48Z</time>
      </trkpt>
      <trkpt lat="49.91221" lon="1.92969">
        <ele>48.9</ele>
        <time>2022-05-25T12:42:49Z</time>
      </trkpt>
      <trkpt lat="49.91221" lon="1.92968">
        <ele>48.9</ele>
        <time>2022-05-25T12:42:50Z</time>
      </trkpt>
      <trkpt lat="49.91223" lon="1.92967">
        <ele>48.9</ele>
        <time>2022-05-25T12:42:51Z</time>
      </trkpt>
      <trkpt lat="49.91223" lon="1.92966">
        <ele>48.9</ele>
        <time>2022-05-25T12:42:52Z</time>
      </trkpt>
      <trkpt lat="49.91224" lon="1.92963">
        <ele>48.9</ele>
        <time>2022-05-25T12:42:53Z</time>
      </trkpt>
      <trkpt lat="49.91225" lon="1.92962">
        <ele>48.9</ele>
        <time>2022-05-25T12:42:55Z</time>
      </trkpt>
      <trkpt lat="49.91226" lon="1.92961">
        <ele>48.9</ele>
        <time>2022-05-25T12:42:56Z</time>
      </trkpt>
      <trkpt lat="49.91227" lon="1.92958">
        <ele>48.9</ele>
        <time>2022-05-25T12:42:57Z</time>
      </trkpt>
      <trkpt lat="49.91228" lon="1.92958">
        <ele>48.9</ele>
        <time>2022-05-25T12:42:58Z</time>
      </trkpt>
      <trkpt lat="49.91229" lon="1.92957">
        <ele>48.9</ele>
        <time>2022-05-25T12:42:59Z</time>
      </trkpt>
      <trkpt lat="49.9123" lon="1.92956">
        <ele>48.8</ele>
        <time>2022-05-25T12:43:00Z</time>
      </trkpt>
      <trkpt lat="49.91232" lon="1.92954">
        <ele>48.8</ele>
        <time>2022-05-25T12:43:01Z</time>
      </trkpt>
      <trkpt lat="49.91233" lon="1.92953">
        <ele>48.8</ele>
        <time>2022-05-25T12:43:03Z</time>
      </trkpt>
      <trkpt lat="49.91234" lon="1.92952">
        <ele>48.8</ele>
        <time>2022-05-25T12:43:04Z</time>
      </trkpt>
      <trkpt lat="49.91235" lon="1.92951">
        <ele>48.8</ele>
        <time>2022-05-25T12:43:05Z</time>
      </trkpt>
      <trkpt lat="49.91237" lon="1.92949">
        <ele>48.7</ele>
        <time>2022-05-25T12:43:06Z</time>
      </trkpt>
      <trkpt lat="49.91238" lon="1.92948">
        <ele>48.7</ele>
        <time>2022-05-25T12:43:07Z</time>
      </trkpt>
      <trkpt lat="49.91239" lon="1.92947">
        <ele>48.7</ele>
        <time>2022-05-25T12:43:08Z</time>
      </trkpt>
      <trkpt lat="49.91239" lon="1.92947">
        <ele>48.7</ele>
        <time>2022-05-25T12:43:09Z</time>
      </trkpt>
      <trkpt lat="49.91241" lon="1.92945">
        <ele>48.7</ele>
        <time>2022-05-25T12:43:11Z</time>
      </trkpt>
      <trkpt lat="49.91241" lon="1.92943">
        <ele>48.7</ele>
        <time>2022-05-25T12:43:12Z</time>
      </trkpt>
      <trkpt lat="49.91243" lon="1.92942">
        <ele>48.7</ele>
        <time>2022-05-25T12:43:13Z</time>
      </trkpt>
      <trkpt lat="49.91244" lon="1.9294">
        <ele>48.7</ele>
        <time>2022-05-25T12:43:14Z</time>
      </trkpt>
      <trkpt lat="49.91245" lon="1.92939">
        <ele>48.7</ele>
        <time>2022-05-25T12:43:15Z</time>
      </trkpt>
      <trkpt lat="49.91246" lon="1.92937">
        <ele>48.7</ele>
        <time>2022-05-25T12:43:16Z</time>
      </trkpt>
      <trkpt lat="49.91247" lon="1.92935">
        <ele>48.7</ele>
        <time>2022-05-25T12:43:17Z</time>
      </trkpt>
      <trkpt lat="49.91248" lon="1.92934">
        <ele>48.7</ele>
        <time>2022-05-25T12:43:18Z</time>
      </trkpt>
      <trkpt lat="49.91251" lon="1.9293">
        <ele>48.7</ele>
        <time>2022-05-25T12:43:19Z</time>
      </trkpt>
      <trkpt lat="49.91252" lon="1.92928">
        <ele>48.7</ele>
        <time>2022-05-25T12:43:22Z</time>
      </trkpt>
      <trkpt lat="49.91253" lon="1.92927">
        <ele>48.7</ele>
        <time>2022-05-25T12:43:24Z</time>
      </trkpt>
      <trkpt lat="49.91255" lon="1.92925">
        <ele>48.7</ele>
        <time>2022-05-25T12:43:25Z</time>
      </trkpt>
      <trkpt lat="49.91256" lon="1.92923">
        <ele>48.7</ele>
        <time>2022-05-25T12:43:26Z</time>
      </trkpt>
      <trkpt lat="49.91257" lon="1.92922">
        <ele>48.7</ele>
        <time>2022-05-25T12:43:27Z</time>
      </trkpt>
      <trkpt lat="49.91259" lon="1.9292">
        <ele>48.7</ele>
        <time>2022-05-25T12:43:28Z</time>
      </trkpt>
      <trkpt lat="49.9126" lon="1.92919">
        <ele>48.7</ele>
        <time>2022-05-25T12:43:29Z</time>
      </trkpt>
      <trkpt lat="49.9126" lon="1.92918">
        <ele>48.7</ele>
        <time>2022-05-25T12:43:30Z</time>
      </trkpt>
      <trkpt lat="49.91261" lon="1.92917">
        <ele>48.8</ele>
        <time>2022-05-25T12:43:31Z</time>
      </trkpt>
      <trkpt lat="49.91262" lon="1.92916">
        <ele>48.8</ele>
        <time>2022-05-25T12:43:33Z</time>
      </trkpt>
      <trkpt lat="49.91263" lon="1.92915">
        <ele>48.8</ele>
        <time>2022-05-25T12:43:34Z</time>
      </trkpt>
      <trkpt lat="49.91264" lon="1.92913">
        <ele>48.8</ele>
        <time>2022-05-25T12:43:35Z</time>
      </trkpt>
      <trkpt lat="49.91266" lon="1.92911">
        <ele>48.8</ele>
        <time>2022-05-25T12:43:36Z</time>
      </trkpt>
      <trkpt lat="49.91267" lon="1.92909">
        <ele>48.8</ele>
        <time>2022-05-25T12:43:38Z</time>
      </trkpt>
      <trkpt lat="49.91268" lon="1.92908">
        <ele>48.8</ele>
        <time>2022-05-25T12:43:39Z</time>
      </trkpt>
      <trkpt lat="49.91268" lon="1.92907">
        <ele>48.8</ele>
        <time>2022-05-25T12:43:40Z</time>
      </trkpt>
      <trkpt lat="49.91269" lon="1.92906">
        <ele>48.9</ele>
        <time>2022-05-25T12:43:41Z</time>
      </trkpt>
      <trkpt lat="49.9127" lon="1.92904">
        <ele>48.9</ele>
        <time>2022-05-25T12:43:42Z</time>
      </trkpt>
      <trkpt lat="49.91271" lon="1.92903">
        <ele>48.9</ele>
        <time>2022-05-25T12:43:43Z</time>
      </trkpt>
      <trkpt lat="49.91272" lon="1.92902">
        <ele>48.9</ele>
        <time>2022-05-25T12:43:44Z</time>
      </trkpt>
      <trkpt lat="49.91272" lon="1.92901">
        <ele>48.9</ele>
        <time>2022-05-25T12:43:45Z</time>
      </trkpt>
      <trkpt lat="49.91273" lon="1.929">
        <ele>48.9</ele>
        <time>2022-05-25T12:43:46Z</time>
      </trkpt>
      <trkpt lat="49.91275" lon="1.92898">
        <ele>48.9</ele>
        <time>2022-05-25T12:43:48Z</time>
      </trkpt>
      <trkpt lat="49.91275" lon="1.92897">
        <ele>48.9</ele>
        <time>2022-05-25T12:43:49Z</time>
      </trkpt>
      <trkpt lat="49.91276" lon="1.92896">
        <ele>48.9</ele>
        <time>2022-05-25T12:43:50Z</time>
      </trkpt>
      <trkpt lat="49.91277" lon="1.92895">
        <ele>48.9</ele>
        <time>2022-05-25T12:43:51Z</time>
      </trkpt>
      <trkpt lat="49.91279" lon="1.92894">
        <ele>48.9</ele>
        <time>2022-05-25T12:43:52Z</time>
      </trkpt>
      <trkpt lat="49.9128" lon="1.92892">
        <ele>49</ele>
        <time>2022-05-25T12:43:53Z</time>
      </trkpt>
      <trkpt lat="49.91281" lon="1.92891">
        <ele>49</ele>
        <time>2022-05-25T12:43:54Z</time>
      </trkpt>
      <trkpt lat="49.91282" lon="1.92889">
        <ele>49</ele>
        <time>2022-05-25T12:43:55Z</time>
      </trkpt>
      <trkpt lat="49.91285" lon="1.92886">
        <ele>49</ele>
        <time>2022-05-25T12:43:56Z</time>
      </trkpt>
      <trkpt lat="49.91285" lon="1.92885">
        <ele>49</ele>
        <time>2022-05-25T12:43:58Z</time>
      </trkpt>
      <trkpt lat="49.91286" lon="1.92883">
        <ele>49</ele>
        <time>2022-05-25T12:44:00Z</time>
      </trkpt>
      <trkpt lat="49.91287" lon="1.92882">
        <ele>49</ele>
        <time>2022-05-25T12:44:01Z</time>
      </trkpt>
      <trkpt lat="49.91288" lon="1.9288">
        <ele>49</ele>
        <time>2022-05-25T12:44:02Z</time>
      </trkpt>
      <trkpt lat="49.91289" lon="1.92879">
        <ele>49</ele>
        <time>2022-05-25T12:44:03Z</time>
      </trkpt>
      <trkpt lat="49.91291" lon="1.92877">
        <ele>49</ele>
        <time>2022-05-25T12:44:04Z</time>
      </trkpt>
      <trkpt lat="49.91292" lon="1.92876">
        <ele>49</ele>
        <time>2022-05-25T12:44:05Z</time>
      </trkpt>
      <trkpt lat="49.91292" lon="1.92875">
        <ele>49</ele>
        <time>2022-05-25T12:44:06Z</time>
      </trkpt>
      <trkpt lat="49.91293" lon="1.92873">
        <ele>49</ele>
        <time>2022-05-25T12:44:08Z</time>
      </trkpt>
      <trkpt lat="49.91294" lon="1.92871">
        <ele>49</ele>
        <time>2022-05-25T12:44:09Z</time>
      </trkpt>
      <trkpt lat="49.91295" lon="1.9287">
        <ele>49</ele>
        <time>2022-05-25T12:44:10Z</time>
      </trkpt>
      <trkpt lat="49.91296" lon="1.92868">
        <ele>49.1</ele>
        <time>2022-05-25T12:44:11Z</time>
      </trkpt>
      <trkpt lat="49.91297" lon="1.92867">
        <ele>49.1</ele>
        <time>2022-05-25T12:44:12Z</time>
      </trkpt>
      <trkpt lat="49.91298" lon="1.92865">
        <ele>49.1</ele>
        <time>2022-05-25T12:44:14Z</time>
      </trkpt>
      <trkpt lat="49.91299" lon="1.92864">
        <ele>49.2</ele>
        <time>2022-05-25T12:44:15Z</time>
      </trkpt>
      <trkpt lat="49.91301" lon="1.92861">
        <ele>49.2</ele>
        <time>2022-05-25T12:44:16Z</time>
      </trkpt>
      <trkpt lat="49.91302" lon="1.9286">
        <ele>49.3</ele>
        <time>2022-05-25T12:44:18Z</time>
      </trkpt>
      <trkpt lat="49.91303" lon="1.92858">
        <ele>49.3</ele>
        <time>2022-05-25T12:44:19Z</time>
      </trkpt>
      <trkpt lat="49.91304" lon="1.92857">
        <ele>49.3</ele>
        <time>2022-05-25T12:44:20Z</time>
      </trkpt>
      <trkpt lat="49.91306" lon="1.92855">
        <ele>49.3</ele>
        <time>2022-05-25T12:44:22Z</time>
      </trkpt>
      <trkpt lat="49.91306" lon="1.92854">
        <ele>49.3</ele>
        <time>2022-05-25T12:44:23Z</time>
      </trkpt>
      <trkpt lat="49.91307" lon="1.92853">
        <ele>49.3</ele>
        <time>2022-05-25T12:44:24Z</time>
      </trkpt>
      <trkpt lat="49.91308" lon="1.92852">
        <ele>49.3</ele>
        <time>2022-05-25T12:44:25Z</time>
      </trkpt>
      <trkpt lat="49.9131" lon="1.9285">
        <ele>49.3</ele>
        <time>2022-05-25T12:44:26Z</time>
      </trkpt>
      <trkpt lat="49.91311" lon="1.92848">
        <ele>49.3</ele>
        <time>2022-05-25T12:44:27Z</time>
      </trkpt>
      <trkpt lat="49.91312" lon="1.92847">
        <ele>49.3</ele>
        <time>2022-05-25T12:44:28Z</time>
      </trkpt>
      <trkpt lat="49.91313" lon="1.92846">
        <ele>49.3</ele>
        <time>2022-05-25T12:44:30Z</time>
      </trkpt>
      <trkpt lat="49.91314" lon="1.92844">
        <ele>49.3</ele>
        <time>2022-05-25T12:44:31Z</time>
      </trkpt>
      <trkpt lat="49.91316" lon="1.92843">
        <ele>49.3</ele>
        <time>2022-05-25T12:44:32Z</time>
      </trkpt>
      <trkpt lat="49.91317" lon="1.92842">
        <ele>49.3</ele>
        <time>2022-05-25T12:44:33Z</time>
      </trkpt>
      <trkpt lat="49.91318" lon="1.92841">
        <ele>49.3</ele>
        <time>2022-05-25T12:44:34Z</time>
      </trkpt>
      <trkpt lat="49.9132" lon="1.9284">
        <ele>49.3</ele>
        <time>2022-05-25T12:44:35Z</time>
      </trkpt>
      <trkpt lat="49.91321" lon="1.92838">
        <ele>49.3</ele>
        <time>2022-05-25T12:44:37Z</time>
      </trkpt>
      <trkpt lat="49.91322" lon="1.92838">
        <ele>49.3</ele>
        <time>2022-05-25T12:44:38Z</time>
      </trkpt>
      <trkpt lat="49.91324" lon="1.92836">
        <ele>49.3</ele>
        <time>2022-05-25T12:44:39Z</time>
      </trkpt>
      <trkpt lat="49.91325" lon="1.92835">
        <ele>49.3</ele>
        <time>2022-05-25T12:44:40Z</time>
      </trkpt>
      <trkpt lat="49.91327" lon="1.92834">
        <ele>49.3</ele>
        <time>2022-05-25T12:44:41Z</time>
      </trkpt>
      <trkpt lat="49.91328" lon="1.92833">
        <ele>49.3</ele>
        <time>2022-05-25T12:44:42Z</time>
      </trkpt>
      <trkpt lat="49.91329" lon="1.92832">
        <ele>49.3</ele>
        <time>2022-05-25T12:44:43Z</time>
      </trkpt>
      <trkpt lat="49.9133" lon="1.9283">
        <ele>49.3</ele>
        <time>2022-05-25T12:44:45Z</time>
      </trkpt>
      <trkpt lat="49.91332" lon="1.92828">
        <ele>49.4</ele>
        <time>2022-05-25T12:44:46Z</time>
      </trkpt>
      <trkpt lat="49.91333" lon="1.92827">
        <ele>49.4</ele>
        <time>2022-05-25T12:44:47Z</time>
      </trkpt>
      <trkpt lat="49.91333" lon="1.92825">
        <ele>49.4</ele>
        <time>2022-05-25T12:44:48Z</time>
      </trkpt>
      <trkpt lat="49.91334" lon="1.92824">
        <ele>49.4</ele>
        <time>2022-05-25T12:44:49Z</time>
      </trkpt>
      <trkpt lat="49.91335" lon="1.92823">
        <ele>49.4</ele>
        <time>2022-05-25T12:44:51Z</time>
      </trkpt>
      <trkpt lat="49.91336" lon="1.92822">
        <ele>49.5</ele>
        <time>2022-05-25T12:44:52Z</time>
      </trkpt>
      <trkpt lat="49.91337" lon="1.92821">
        <ele>49.5</ele>
        <time>2022-05-25T12:44:53Z</time>
      </trkpt>
      <trkpt lat="49.91338" lon="1.9282">
        <ele>49.5</ele>
        <time>2022-05-25T12:44:54Z</time>
      </trkpt>
      <trkpt lat="49.91339" lon="1.92819">
        <ele>49.5</ele>
        <time>2022-05-25T12:44:55Z</time>
      </trkpt>
      <trkpt lat="49.9134" lon="1.92817">
        <ele>49.5</ele>
        <time>2022-05-25T12:44:56Z</time>
      </trkpt>
      <trkpt lat="49.91342" lon="1.92816">
        <ele>49.6</ele>
        <time>2022-05-25T12:44:58Z</time>
      </trkpt>
      <trkpt lat="49.91344" lon="1.92815">
        <ele>49.6</ele>
        <time>2022-05-25T12:45:00Z</time>
      </trkpt>
      <trkpt lat="49.91345" lon="1.92813">
        <ele>49.7</ele>
        <time>2022-05-25T12:45:01Z</time>
      </trkpt>
      <trkpt lat="49.91347" lon="1.92812">
        <ele>49.7</ele>
        <time>2022-05-25T12:45:02Z</time>
      </trkpt>
      <trkpt lat="49.91349" lon="1.92811">
        <ele>49.7</ele>
        <time>2022-05-25T12:45:03Z</time>
      </trkpt>
      <trkpt lat="49.91349" lon="1.9281">
        <ele>49.8</ele>
        <time>2022-05-25T12:45:05Z</time>
      </trkpt>
      <trkpt lat="49.9135" lon="1.92809">
        <ele>49.8</ele>
        <time>2022-05-25T12:45:06Z</time>
      </trkpt>
      <trkpt lat="49.91351" lon="1.92808">
        <ele>49.8</ele>
        <time>2022-05-25T12:45:07Z</time>
      </trkpt>
      <trkpt lat="49.91353" lon="1.92807">
        <ele>49.8</ele>
        <time>2022-05-25T12:45:08Z</time>
      </trkpt>
      <trkpt lat="49.91354" lon="1.92806">
        <ele>49.9</ele>
        <time>2022-05-25T12:45:09Z</time>
      </trkpt>
      <trkpt lat="49.91355" lon="1.92805">
        <ele>49.9</ele>
        <time>2022-05-25T12:45:10Z</time>
      </trkpt>
      <trkpt lat="49.91357" lon="1.92804">
        <ele>50</ele>
        <time>2022-05-25T12:45:11Z</time>
      </trkpt>
      <trkpt lat="49.91358" lon="1.92803">
        <ele>50</ele>
        <time>2022-05-25T12:45:13Z</time>
      </trkpt>
      <trkpt lat="49.9136" lon="1.92802">
        <ele>50.1</ele>
        <time>2022-05-25T12:45:14Z</time>
      </trkpt>
      <trkpt lat="49.91361" lon="1.92801">
        <ele>50.2</ele>
        <time>2022-05-25T12:45:15Z</time>
      </trkpt>
      <trkpt lat="49.91362" lon="1.928">
        <ele>50.3</ele>
        <time>2022-05-25T12:45:16Z</time>
      </trkpt>
      <trkpt lat="49.91364" lon="1.92799">
        <ele>50.3</ele>
        <time>2022-05-25T12:45:17Z</time>
      </trkpt>
      <trkpt lat="49.91365" lon="1.92798">
        <ele>50.4</ele>
        <time>2022-05-25T12:45:19Z</time>
      </trkpt>
      <trkpt lat="49.91366" lon="1.92797">
        <ele>50.5</ele>
        <time>2022-05-25T12:45:20Z</time>
      </trkpt>
      <trkpt lat="49.91368" lon="1.92796">
        <ele>50.6</ele>
        <time>2022-05-25T12:45:21Z</time>
      </trkpt>
      <trkpt lat="49.91369" lon="1.92794">
        <ele>50.6</ele>
        <time>2022-05-25T12:45:22Z</time>
      </trkpt>
      <trkpt lat="49.91371" lon="1.92793">
        <ele>50.7</ele>
        <time>2022-05-25T12:45:24Z</time>
      </trkpt>
      <trkpt lat="49.91372" lon="1.92792">
        <ele>50.8</ele>
        <time>2022-05-25T12:45:25Z</time>
      </trkpt>
      <trkpt lat="49.91373" lon="1.92791">
        <ele>50.8</ele>
        <time>2022-05-25T12:45:26Z</time>
      </trkpt>
      <trkpt lat="49.91374" lon="1.9279">
        <ele>50.9</ele>
        <time>2022-05-25T12:45:27Z</time>
      </trkpt>
      <trkpt lat="49.91375" lon="1.92788">
        <ele>50.9</ele>
        <time>2022-05-25T12:45:28Z</time>
      </trkpt>
      <trkpt lat="49.91377" lon="1.92787">
        <ele>51</ele>
        <time>2022-05-25T12:45:29Z</time>
      </trkpt>
      <trkpt lat="49.91378" lon="1.92786">
        <ele>51.1</ele>
        <time>2022-05-25T12:45:30Z</time>
      </trkpt>
      <trkpt lat="49.91378" lon="1.92785">
        <ele>51.1</ele>
        <time>2022-05-25T12:45:31Z</time>
      </trkpt>
      <trkpt lat="49.91379" lon="1.92784">
        <ele>51.1</ele>
        <time>2022-05-25T12:45:32Z</time>
      </trkpt>
      <trkpt lat="49.9138" lon="1.92783">
        <ele>51.2</ele>
        <time>2022-05-25T12:45:34Z</time>
      </trkpt>
      <trkpt lat="49.91381" lon="1.92782">
        <ele>51.2</ele>
        <time>2022-05-25T12:45:35Z</time>
      </trkpt>
      <trkpt lat="49.91382" lon="1.92781">
        <ele>51.2</ele>
        <time>2022-05-25T12:45:36Z</time>
      </trkpt>
      <trkpt lat="49.91383" lon="1.9278">
        <ele>51.3</ele>
        <time>2022-05-25T12:45:37Z</time>
      </trkpt>
      <trkpt lat="49.91384" lon="1.92779">
        <ele>51.4</ele>
        <time>2022-05-25T12:45:38Z</time>
      </trkpt>
      <trkpt lat="49.91385" lon="1.92778">
        <ele>51.4</ele>
        <time>2022-05-25T12:45:39Z</time>
      </trkpt>
      <trkpt lat="49.91386" lon="1.92778">
        <ele>51.5</ele>
        <time>2022-05-25T12:45:40Z</time>
      </trkpt>
      <trkpt lat="49.91388" lon="1.92776">
        <ele>51.6</ele>
        <time>2022-05-25T12:45:42Z</time>
      </trkpt>
      <trkpt lat="49.91388" lon="1.92776">
        <ele>51.6</ele>
        <time>2022-05-25T12:45:43Z</time>
      </trkpt>
      <trkpt lat="49.91388" lon="1.92776">
        <ele>51.6</ele>
        <time>2022-05-25T12:45:45Z</time>
      </trkpt>
      <trkpt lat="49.91388" lon="1.92776">
        <ele>51.6</ele>
        <time>2022-05-25T12:45:46Z</time>
      </trkpt>
      <trkpt lat="49.91388" lon="1.92776">
        <ele>51.6</ele>
        <time>2022-05-25T12:45:47Z</time>
      </trkpt>
      <trkpt lat="49.91388" lon="1.92776">
        <ele>51.6</ele>
        <time>2022-05-25T12:45:48Z</time>
      </trkpt>
      <trkpt lat="49.91388" lon="1.92776">
        <ele>51.6</ele>
        <time>2022-05-25T12:45:50Z</time>
      </trkpt>
      <trkpt lat="49.91388" lon="1.92776">
        <ele>51.6</ele>
        <time>2022-05-25T12:45:51Z</time>
      </trkpt>
      <trkpt lat="49.91388" lon="1.92776">
        <ele>51.6</ele>
        <time>2022-05-25T12:45:52Z</time>
      </trkpt>
      <trkpt lat="49.91388" lon="1.92776">
        <ele>51.6</ele>
        <time>2022-05-25T12:45:53Z</time>
      </trkpt>
      <trkpt lat="49.91388" lon="1.92776">
        <ele>51.6</ele>
        <time>2022-05-25T12:45:54Z</time>
      </trkpt>
      <trkpt lat="49.91388" lon="1.92776">
        <ele>51.6</ele>
        <time>2022-05-25T12:45:55Z</time>
      </trkpt>
      <trkpt lat="49.91388" lon="1.92776">
        <ele>51.6</ele>
        <time>2022-05-25T12:45:56Z</time>
      </trkpt>
      <trkpt lat="49.91388" lon="1.92776">
        <ele>51.6</ele>
        <time>2022-05-25T12:45:57Z</time>
      </trkpt>
      <trkpt lat="49.91388" lon="1.92776">
        <ele>51.6</ele>
        <time>2022-05-25T12:45:58Z</time>
      </trkpt>
      <trkpt lat="49.91388" lon="1.92776">
        <ele>51.6</ele>
        <time>2022-05-25T12:45:59Z</time>
      </trkpt>
      <trkpt lat="49.91388" lon="1.92776">
        <ele>51.6</ele>
        <time>2022-05-25T12:46:00Z</time>
      </trkpt>
      <trkpt lat="49.91389" lon="1.92776">
        <ele>51.6</ele>
        <time>2022-05-25T12:46:01Z</time>
      </trkpt>
      <trkpt lat="49.91389" lon="1.92776">
        <ele>51.6</ele>
        <time>2022-05-25T12:46:02Z</time>
      </trkpt>
      <trkpt lat="49.91389" lon="1.92775">
        <ele>51.6</ele>
        <time>2022-05-25T12:46:03Z</time>
      </trkpt>
      <trkpt lat="49.91389" lon="1.92775">
        <ele>51.6</ele>
        <time>2022-05-25T12:46:04Z</time>
      </trkpt>
      <trkpt lat="49.91389" lon="1.92775">
        <ele>51.7</ele>
        <time>2022-05-25T12:46:05Z</time>
      </trkpt>
      <trkpt lat="49.91389" lon="1.92775">
        <ele>51.7</ele>
        <time>2022-05-25T12:46:06Z</time>
      </trkpt>
      <trkpt lat="49.91389" lon="1.92775">
        <ele>51.7</ele>
        <time>2022-05-25T12:46:07Z</time>
      </trkpt>
      <trkpt lat="49.91389" lon="1.92775">
        <ele>51.7</ele>
        <time>2022-05-25T12:46:08Z</time>
      </trkpt>
      <trkpt lat="49.91389" lon="1.92775">
        <ele>51.7</ele>
        <time>2022-05-25T12:46:09Z</time>
      </trkpt>
      <trkpt lat="49.91389" lon="1.92775">
        <ele>51.7</ele>
        <time>2022-05-25T12:46:10Z</time>
      </trkpt>
      <trkpt lat="49.91389" lon="1.92775">
        <ele>51.7</ele>
        <time>2022-05-25T12:46:11Z</time>
      </trkpt>
      <trkpt lat="49.91389" lon="1.92775">
        <ele>51.7</ele>
        <time>2022-05-25T12:46:12Z</time>
      </trkpt>
      <trkpt lat="49.91389" lon="1.92775">
        <ele>51.7</ele>
        <time>2022-05-25T12:46:13Z</time>
      </trkpt>
      <trkpt lat="49.91389" lon="1.92775">
        <ele>51.7</ele>
        <time>2022-05-25T12:46:14Z</time>
      </trkpt>
      <trkpt lat="49.91389" lon="1.92775">
        <ele>51.7</ele>
        <time>2022-05-25T12:46:15Z</time>
      </trkpt>
      <trkpt lat="49.91389" lon="1.92775">
        <ele>51.7</ele>
        <time>2022-05-25T12:46:16Z</time>
      </trkpt>
      <trkpt lat="49.91389" lon="1.92775">
        <ele>51.7</ele>
        <time>2022-05-25T12:46:17Z</time>
      </trkpt>
      <trkpt lat="49.91389" lon="1.92775">
        <ele>51.7</ele>
        <time>2022-05-25T12:46:18Z</time>
      </trkpt>
      <trkpt lat="49.91389" lon="1.92775">
        <ele>51.7</ele>
        <time>2022-05-25T12:46:20Z</time>
      </trkpt>
      <trkpt lat="49.91389" lon="1.92775">
        <ele>51.7</ele>
        <time>2022-05-25T12:46:21Z</time>
      </trkpt>
      <trkpt lat="49.91389" lon="1.92775">
        <ele>51.7</ele>
        <time>2022-05-25T12:46:23Z</time>
      </trkpt>
      <trkpt lat="49.9139" lon="1.92775">
        <ele>51.7</ele>
        <time>2022-05-25T12:46:24Z</time>
      </trkpt>
      <trkpt lat="49.9139" lon="1.92774">
        <ele>51.7</ele>
        <time>2022-05-25T12:46:25Z</time>
      </trkpt>
      <trkpt lat="49.9139" lon="1.92774">
        <ele>51.7</ele>
        <time>2022-05-25T12:46:26Z</time>
      </trkpt>
      <trkpt lat="49.9139" lon="1.92774">
        <ele>51.7</ele>
        <time>2022-05-25T12:46:27Z</time>
      </trkpt>
      <trkpt lat="49.9139" lon="1.92774">
        <ele>51.7</ele>
        <time>2022-05-25T12:46:28Z</time>
      </trkpt>
      <trkpt lat="49.9139" lon="1.92774">
        <ele>51.8</ele>
        <time>2022-05-25T12:46:29Z</time>
      </trkpt>
      <trkpt lat="49.9139" lon="1.92774">
        <ele>51.8</ele>
        <time>2022-05-25T12:46:30Z</time>
      </trkpt>
      <trkpt lat="49.9139" lon="1.92774">
        <ele>51.8</ele>
        <time>2022-05-25T12:46:31Z</time>
      </trkpt>
      <trkpt lat="49.9139" lon="1.92774">
        <ele>51.8</ele>
        <time>2022-05-25T12:46:32Z</time>
      </trkpt>
      <trkpt lat="49.9139" lon="1.92774">
        <ele>51.8</ele>
        <time>2022-05-25T12:46:33Z</time>
      </trkpt>
      <trkpt lat="49.9139" lon="1.92774">
        <ele>51.8</ele>
        <time>2022-05-25T12:46:34Z</time>
      </trkpt>
      <trkpt lat="49.9139" lon="1.92774">
        <ele>51.8</ele>
        <time>2022-05-25T12:46:35Z</time>
      </trkpt>
      <trkpt lat="49.9139" lon="1.92774">
        <ele>51.8</ele>
        <time>2022-05-25T12:46:37Z</time>
      </trkpt>
      <trkpt lat="49.9139" lon="1.92774">
        <ele>51.8</ele>
        <time>2022-05-25T12:46:39Z</time>
      </trkpt>
      <trkpt lat="49.9139" lon="1.92774">
        <ele>51.8</ele>
        <time>2022-05-25T12:46:40Z</time>
      </trkpt>
      <trkpt lat="49.9139" lon="1.92774">
        <ele>51.8</ele>
        <time>2022-05-25T12:46:41Z</time>
      </trkpt>
      <trkpt lat="49.9139" lon="1.92774">
        <ele>51.8</ele>
        <time>2022-05-25T12:46:42Z</time>
      </trkpt>
      <trkpt lat="49.9139" lon="1.92774">
        <ele>51.8</ele>
        <time>2022-05-25T12:46:43Z</time>
      </trkpt>
      <trkpt lat="49.9139" lon="1.92774">
        <ele>51.8</ele>
        <time>2022-05-25T12:46:44Z</time>
      </trkpt>
      <trkpt lat="49.9139" lon="1.92774">
        <ele>51.8</ele>
        <time>2022-05-25T12:46:45Z</time>
      </trkpt>
      <trkpt lat="49.9139" lon="1.92774">
        <ele>51.8</ele>
        <time>2022-05-25T12:46:46Z</time>
      </trkpt>
      <trkpt lat="49.91391" lon="1.92773">
        <ele>51.8</ele>
        <time>2022-05-25T12:46:47Z</time>
      </trkpt>
      <trkpt lat="49.91391" lon="1.92773">
        <ele>51.8</ele>
        <time>2022-05-25T12:46:48Z</time>
      </trkpt>
      <trkpt lat="49.91391" lon="1.92773">
        <ele>51.8</ele>
        <time>2022-05-25T12:46:49Z</time>
      </trkpt>
      <trkpt lat="49.91391" lon="1.92773">
        <ele>51.8</ele>
        <time>2022-05-25T12:46:50Z</time>
      </trkpt>
      <trkpt lat="49.91391" lon="1.92773">
        <ele>51.8</ele>
        <time>2022-05-25T12:46:51Z</time>
      </trkpt>
      <trkpt lat="49.91391" lon="1.92773">
        <ele>51.8</ele>
        <time>2022-05-25T12:46:52Z</time>
      </trkpt>
      <trkpt lat="49.91391" lon="1.92773">
        <ele>51.8</ele>
        <time>2022-05-25T12:46:53Z</time>
      </trkpt>
      <trkpt lat="49.91391" lon="1.92773">
        <ele>51.8</ele>
        <time>2022-05-25T12:46:54Z</time>
      </trkpt>
      <trkpt lat="49.91391" lon="1.92773">
        <ele>51.8</ele>
        <time>2022-05-25T12:46:55Z</time>
      </trkpt>
      <trkpt lat="49.91391" lon="1.92773">
        <ele>51.9</ele>
        <time>2022-05-25T12:46:56Z</time>
      </trkpt>
      <trkpt lat="49.91391" lon="1.92773">
        <ele>51.9</ele>
        <time>2022-05-25T12:46:57Z</time>
      </trkpt>
      <trkpt lat="49.91391" lon="1.92773">
        <ele>51.9</ele>
        <time>2022-05-25T12:46:58Z</time>
      </trkpt>
      <trkpt lat="49.91391" lon="1.92773">
        <ele>51.9</ele>
        <time>2022-05-25T12:46:59Z</time>
      </trkpt>
      <trkpt lat="49.91391" lon="1.92773">
        <ele>51.9</ele>
        <time>2022-05-25T12:47:00Z</time>
      </trkpt>
      <trkpt lat="49.91391" lon="1.92773">
        <ele>51.9</ele>
        <time>2022-05-25T12:47:01Z</time>
      </trkpt>
      <trkpt lat="49.91391" lon="1.92773">
        <ele>51.9</ele>
        <time>2022-05-25T12:47:03Z</time>
      </trkpt>
      <trkpt lat="49.91391" lon="1.92773">
        <ele>51.9</ele>
        <time>2022-05-25T12:47:04Z</time>
      </trkpt>
      <trkpt lat="49.91391" lon="1.92773">
        <ele>51.9</ele>
        <time>2022-05-25T12:47:05Z</time>
      </trkpt>
      <trkpt lat="49.91391" lon="1.92773">
        <ele>51.9</ele>
        <time>2022-05-25T12:47:06Z</time>
      </trkpt>
      <trkpt lat="49.91391" lon="1.92773">
        <ele>51.9</ele>
        <time>2022-05-25T12:47:07Z</time>
      </trkpt>
      <trkpt lat="49.91391" lon="1.92772">
        <ele>51.9</ele>
        <time>2022-05-25T12:47:08Z</time>
      </trkpt>
      <trkpt lat="49.91392" lon="1.92772">
        <ele>51.9</ele>
        <time>2022-05-25T12:47:10Z</time>
      </trkpt>
      <trkpt lat="49.91392" lon="1.92772">
        <ele>51.9</ele>
        <time>2022-05-25T12:47:11Z</time>
      </trkpt>
      <trkpt lat="49.91392" lon="1.92772">
        <ele>51.9</ele>
        <time>2022-05-25T12:47:13Z</time>
      </trkpt>
      <trkpt lat="49.91392" lon="1.92772">
        <ele>51.9</ele>
        <time>2022-05-25T12:47:14Z</time>
      </trkpt>
      <trkpt lat="49.91392" lon="1.92772">
        <ele>51.9</ele>
        <time>2022-05-25T12:47:15Z</time>
      </trkpt>
      <trkpt lat="49.91392" lon="1.92772">
        <ele>51.9</ele>
        <time>2022-05-25T12:47:16Z</time>
      </trkpt>
      <trkpt lat="49.91392" lon="1.92772">
        <ele>51.9</ele>
        <time>2022-05-25T12:47:17Z</time>
      </trkpt>
      <trkpt lat="49.91392" lon="1.92772">
        <ele>52</ele>
        <time>2022-05-25T12:47:18Z</time>
      </trkpt>
      <trkpt lat="49.91392" lon="1.92772">
        <ele>52</ele>
        <time>2022-05-25T12:47:19Z</time>
      </trkpt>
      <trkpt lat="49.91392" lon="1.92772">
        <ele>52</ele>
        <time>2022-05-25T12:47:20Z</time>
      </trkpt>
      <trkpt lat="49.91392" lon="1.92772">
        <ele>52</ele>
        <time>2022-05-25T12:47:21Z</time>
      </trkpt>
      <trkpt lat="49.91392" lon="1.92772">
        <ele>52</ele>
        <time>2022-05-25T12:47:22Z</time>
      </trkpt>
      <trkpt lat="49.91392" lon="1.92772">
        <ele>52</ele>
        <time>2022-05-25T12:47:23Z</time>
      </trkpt>
      <trkpt lat="49.91392" lon="1.92772">
        <ele>52</ele>
        <time>2022-05-25T12:47:24Z</time>
      </trkpt>
      <trkpt lat="49.91392" lon="1.92772">
        <ele>52</ele>
        <time>2022-05-25T12:47:25Z</time>
      </trkpt>
      <trkpt lat="49.91392" lon="1.92772">
        <ele>52</ele>
        <time>2022-05-25T12:47:26Z</time>
      </trkpt>
      <trkpt lat="49.91392" lon="1.92772">
        <ele>52</ele>
        <time>2022-05-25T12:47:27Z</time>
      </trkpt>
      <trkpt lat="49.91392" lon="1.92772">
        <ele>52</ele>
        <time>2022-05-25T12:47:28Z</time>
      </trkpt>
      <trkpt lat="49.91392" lon="1.92772">
        <ele>52</ele>
        <time>2022-05-25T12:47:29Z</time>
      </trkpt>
      <trkpt lat="49.91392" lon="1.92771">
        <ele>52</ele>
        <time>2022-05-25T12:47:30Z</time>
      </trkpt>
      <trkpt lat="49.91392" lon="1.92771">
        <ele>52</ele>
        <time>2022-05-25T12:47:31Z</time>
      </trkpt>
      <trkpt lat="49.91393" lon="1.92771">
        <ele>52</ele>
        <time>2022-05-25T12:47:32Z</time>
      </trkpt>
      <trkpt lat="49.91393" lon="1.92771">
        <ele>52</ele>
        <time>2022-05-25T12:47:34Z</time>
      </trkpt>
      <trkpt lat="49.91393" lon="1.92771">
        <ele>52</ele>
        <time>2022-05-25T12:47:35Z</time>
      </trkpt>
      <trkpt lat="49.91393" lon="1.92771">
        <ele>52</ele>
        <time>2022-05-25T12:47:36Z</time>
      </trkpt>
      <trkpt lat="49.91393" lon="1.92771">
        <ele>52</ele>
        <time>2022-05-25T12:47:37Z</time>
      </trkpt>
      <trkpt lat="49.91393" lon="1.92771">
        <ele>52</ele>
        <time>2022-05-25T12:47:38Z</time>
      </trkpt>
      <trkpt lat="49.91393" lon="1.92771">
        <ele>52</ele>
        <time>2022-05-25T12:47:39Z</time>
      </trkpt>
      <trkpt lat="49.91393" lon="1.92771">
        <ele>52</ele>
        <time>2022-05-25T12:47:40Z</time>
      </trkpt>
      <trkpt lat="49.91393" lon="1.92771">
        <ele>52.1</ele>
        <time>2022-05-25T12:47:41Z</time>
      </trkpt>
      <trkpt lat="49.91393" lon="1.92771">
        <ele>52.1</ele>
        <time>2022-05-25T12:47:42Z</time>
      </trkpt>
      <trkpt lat="49.91396" lon="1.92769">
        <ele>52.2</ele>
        <time>2022-05-25T12:47:43Z</time>
      </trkpt>
      <trkpt lat="49.91397" lon="1.92768">
        <ele>52.3</ele>
        <time>2022-05-25T12:47:44Z</time>
      </trkpt>
      <trkpt lat="49.914" lon="1.92768">
        <ele>52.4</ele>
        <time>2022-05-25T12:47:46Z</time>
      </trkpt>
      <trkpt lat="49.91401" lon="1.92767">
        <ele>52.4</ele>
        <time>2022-05-25T12:47:47Z</time>
      </trkpt>
      <trkpt lat="49.91403" lon="1.92766">
        <ele>52.5</ele>
        <time>2022-05-25T12:47:48Z</time>
      </trkpt>
      <trkpt lat="49.91404" lon="1.92765">
        <ele>52.6</ele>
        <time>2022-05-25T12:47:49Z</time>
      </trkpt>
      <trkpt lat="49.91405" lon="1.92763">
        <ele>52.6</ele>
        <time>2022-05-25T12:47:50Z</time>
      </trkpt>
      <trkpt lat="49.91405" lon="1.92762">
        <ele>52.6</ele>
        <time>2022-05-25T12:47:52Z</time>
      </trkpt>
      <trkpt lat="49.91406" lon="1.9276">
        <ele>52.6</ele>
        <time>2022-05-25T12:47:53Z</time>
      </trkpt>
      <trkpt lat="49.91408" lon="1.92757">
        <ele>52.7</ele>
        <time>2022-05-25T12:47:54Z</time>
      </trkpt>
      <trkpt lat="49.91409" lon="1.92756">
        <ele>52.7</ele>
        <time>2022-05-25T12:47:56Z</time>
      </trkpt>
      <trkpt lat="49.9141" lon="1.92755">
        <ele>52.7</ele>
        <time>2022-05-25T12:47:57Z</time>
      </trkpt>
      <trkpt lat="49.91411" lon="1.92754">
        <ele>52.7</ele>
        <time>2022-05-25T12:47:58Z</time>
      </trkpt>
      <trkpt lat="49.91413" lon="1.92751">
        <ele>52.7</ele>
        <time>2022-05-25T12:47:59Z</time>
      </trkpt>
      <trkpt lat="49.91414" lon="1.9275">
        <ele>52.7</ele>
        <time>2022-05-25T12:48:00Z</time>
      </trkpt>
      <trkpt lat="49.91416" lon="1.92748">
        <ele>52.8</ele>
        <time>2022-05-25T12:48:01Z</time>
      </trkpt>
      <trkpt lat="49.91417" lon="1.92747">
        <ele>52.8</ele>
        <time>2022-05-25T12:48:03Z</time>
      </trkpt>
      <trkpt lat="49.91419" lon="1.92745">
        <ele>52.8</ele>
        <time>2022-05-25T12:48:04Z</time>
      </trkpt>
      <trkpt lat="49.9142" lon="1.92744">
        <ele>52.8</ele>
        <time>2022-05-25T12:48:05Z</time>
      </trkpt>
      <trkpt lat="49.9142" lon="1.92744">
        <ele>52.8</ele>
        <time>2022-05-25T12:48:06Z</time>
      </trkpt>
      <trkpt lat="49.91421" lon="1.92743">
        <ele>52.8</ele>
        <time>2022-05-25T12:48:07Z</time>
      </trkpt>
      <trkpt lat="49.91422" lon="1.92742">
        <ele>52.8</ele>
        <time>2022-05-25T12:48:08Z</time>
      </trkpt>
      <trkpt lat="49.91423" lon="1.92741">
        <ele>52.8</ele>
        <time>2022-05-25T12:48:10Z</time>
      </trkpt>
      <trkpt lat="49.91423" lon="1.9274">
        <ele>52.8</ele>
        <time>2022-05-25T12:48:11Z</time>
      </trkpt>
      <trkpt lat="49.91423" lon="1.9274">
        <ele>52.8</ele>
        <time>2022-05-25T12:48:12Z</time>
      </trkpt>
      <trkpt lat="49.91424" lon="1.92739">
        <ele>52.9</ele>
        <time>2022-05-25T12:48:13Z</time>
      </trkpt>
      <trkpt lat="49.91426" lon="1.92739">
        <ele>52.9</ele>
        <time>2022-05-25T12:48:14Z</time>
      </trkpt>
      <trkpt lat="49.91428" lon="1.92737">
        <ele>53</ele>
        <time>2022-05-25T12:48:15Z</time>
      </trkpt>
      <trkpt lat="49.91428" lon="1.92737">
        <ele>53</ele>
        <time>2022-05-25T12:48:17Z</time>
      </trkpt>
      <trkpt lat="49.91429" lon="1.92737">
        <ele>53</ele>
        <time>2022-05-25T12:48:18Z</time>
      </trkpt>
      <trkpt lat="49.91431" lon="1.92735">
        <ele>53.1</ele>
        <time>2022-05-25T12:48:19Z</time>
      </trkpt>
      <trkpt lat="49.91432" lon="1.92734">
        <ele>53.2</ele>
        <time>2022-05-25T12:48:21Z</time>
      </trkpt>
      <trkpt lat="49.91433" lon="1.92733">
        <ele>53.2</ele>
        <time>2022-05-25T12:48:22Z</time>
      </trkpt>
      <trkpt lat="49.91435" lon="1.92732">
        <ele>53.3</ele>
        <time>2022-05-25T12:48:23Z</time>
      </trkpt>
      <trkpt lat="49.91436" lon="1.92731">
        <ele>53.3</ele>
        <time>2022-05-25T12:48:24Z</time>
      </trkpt>
      <trkpt lat="49.91437" lon="1.9273">
        <ele>53.3</ele>
        <time>2022-05-25T12:48:25Z</time>
      </trkpt>
      <trkpt lat="49.91438" lon="1.92729">
        <ele>53.4</ele>
        <time>2022-05-25T12:48:26Z</time>
      </trkpt>
      <trkpt lat="49.91439" lon="1.92728">
        <ele>53.5</ele>
        <time>2022-05-25T12:48:27Z</time>
      </trkpt>
      <trkpt lat="49.9144" lon="1.92727">
        <ele>53.5</ele>
        <time>2022-05-25T12:48:28Z</time>
      </trkpt>
      <trkpt lat="49.91441" lon="1.92726">
        <ele>53.5</ele>
        <time>2022-05-25T12:48:30Z</time>
      </trkpt>
      <trkpt lat="49.91442" lon="1.92724">
        <ele>53.6</ele>
        <time>2022-05-25T12:48:31Z</time>
      </trkpt>
      <trkpt lat="49.91443" lon="1.92723">
        <ele>53.6</ele>
        <time>2022-05-25T12:48:32Z</time>
      </trkpt>
      <trkpt lat="49.91444" lon="1.92723">
        <ele>53.7</ele>
        <time>2022-05-25T12:48:33Z</time>
      </trkpt>
      <trkpt lat="49.91444" lon="1.92722">
        <ele>53.7</ele>
        <time>2022-05-25T12:48:35Z</time>
      </trkpt>
      <trkpt lat="49.91445" lon="1.92721">
        <ele>53.7</ele>
        <time>2022-05-25T12:48:36Z</time>
      </trkpt>
      <trkpt lat="49.91446" lon="1.9272">
        <ele>53.8</ele>
        <time>2022-05-25T12:48:37Z</time>
      </trkpt>
      <trkpt lat="49.91448" lon="1.92718">
        <ele>53.9</ele>
        <time>2022-05-25T12:48:38Z</time>
      </trkpt>
      <trkpt lat="49.91449" lon="1.92717">
        <ele>53.9</ele>
        <time>2022-05-25T12:48:39Z</time>
      </trkpt>
      <trkpt lat="49.9145" lon="1.92716">
        <ele>54</ele>
        <time>2022-05-25T12:48:41Z</time>
      </trkpt>
      <trkpt lat="49.91452" lon="1.92715">
        <ele>54</ele>
        <time>2022-05-25T12:48:42Z</time>
      </trkpt>
      <trkpt lat="49.91453" lon="1.92714">
        <ele>54.1</ele>
        <time>2022-05-25T12:48:44Z</time>
      </trkpt>
      <trkpt lat="49.91455" lon="1.92711">
        <ele>54.2</ele>
        <time>2022-05-25T12:48:45Z</time>
      </trkpt>
      <trkpt lat="49.91456" lon="1.9271">
        <ele>54.2</ele>
        <time>2022-05-25T12:48:47Z</time>
      </trkpt>
      <trkpt lat="49.91457" lon="1.92709">
        <ele>54.3</ele>
        <time>2022-05-25T12:48:48Z</time>
      </trkpt>
      <trkpt lat="49.91459" lon="1.92707">
        <ele>54.3</ele>
        <time>2022-05-25T12:48:49Z</time>
      </trkpt>
      <trkpt lat="49.9146" lon="1.92706">
        <ele>54.4</ele>
        <time>2022-05-25T12:48:50Z</time>
      </trkpt>
      <trkpt lat="49.91461" lon="1.92705">
        <ele>54.5</ele>
        <time>2022-05-25T12:48:51Z</time>
      </trkpt>
      <trkpt lat="49.91463" lon="1.92703">
        <ele>54.5</ele>
        <time>2022-05-25T12:48:52Z</time>
      </trkpt>
      <trkpt lat="49.91464" lon="1.92702">
        <ele>54.6</ele>
        <time>2022-05-25T12:48:53Z</time>
      </trkpt>
      <trkpt lat="49.91465" lon="1.92702">
        <ele>54.6</ele>
        <time>2022-05-25T12:48:54Z</time>
      </trkpt>
      <trkpt lat="49.91466" lon="1.92701">
        <ele>54.7</ele>
        <time>2022-05-25T12:48:56Z</time>
      </trkpt>
      <trkpt lat="49.91467" lon="1.927">
        <ele>54.7</ele>
        <time>2022-05-25T12:48:57Z</time>
      </trkpt>
      <trkpt lat="49.91469" lon="1.92698">
        <ele>54.8</ele>
        <time>2022-05-25T12:48:58Z</time>
      </trkpt>
      <trkpt lat="49.9147" lon="1.92697">
        <ele>54.9</ele>
        <time>2022-05-25T12:48:59Z</time>
      </trkpt>
      <trkpt lat="49.9147" lon="1.92696">
        <ele>54.9</ele>
        <time>2022-05-25T12:49:00Z</time>
      </trkpt>
      <trkpt lat="49.91471" lon="1.92695">
        <ele>54.9</ele>
        <time>2022-05-25T12:49:01Z</time>
      </trkpt>
      <trkpt lat="49.91472" lon="1.92694">
        <ele>55</ele>
        <time>2022-05-25T12:49:03Z</time>
      </trkpt>
      <trkpt lat="49.91473" lon="1.92694">
        <ele>55</ele>
        <time>2022-05-25T12:49:04Z</time>
      </trkpt>
      <trkpt lat="49.91473" lon="1.92693">
        <ele>55</ele>
        <time>2022-05-25T12:49:05Z</time>
      </trkpt>
      <trkpt lat="49.91475" lon="1.92692">
        <ele>55.1</ele>
        <time>2022-05-25T12:49:06Z</time>
      </trkpt>
      <trkpt lat="49.91476" lon="1.92691">
        <ele>55.2</ele>
        <time>2022-05-25T12:49:07Z</time>
      </trkpt>
      <trkpt lat="49.91477" lon="1.9269">
        <ele>55.2</ele>
        <time>2022-05-25T12:49:08Z</time>
      </trkpt>
      <trkpt lat="49.91478" lon="1.9269">
        <ele>55.2</ele>
        <time>2022-05-25T12:49:10Z</time>
      </trkpt>
      <trkpt lat="49.91478" lon="1.92689">
        <ele>55.3</ele>
        <time>2022-05-25T12:49:11Z</time>
      </trkpt>
      <trkpt lat="49.91478" lon="1.92688">
        <ele>55.3</ele>
        <time>2022-05-25T12:49:12Z</time>
      </trkpt>
      <trkpt lat="49.91479" lon="1.92687">
        <ele>55.3</ele>
        <time>2022-05-25T12:49:13Z</time>
      </trkpt>
      <trkpt lat="49.9148" lon="1.92686">
        <ele>55.4</ele>
        <time>2022-05-25T12:49:14Z</time>
      </trkpt>
      <trkpt lat="49.91481" lon="1.92685">
        <ele>55.4</ele>
        <time>2022-05-25T12:49:15Z</time>
      </trkpt>
      <trkpt lat="49.91484" lon="1.92683">
        <ele>55.5</ele>
        <time>2022-05-25T12:49:17Z</time>
      </trkpt>
      <trkpt lat="49.91485" lon="1.92682">
        <ele>55.6</ele>
        <time>2022-05-25T12:49:18Z</time>
      </trkpt>
      <trkpt lat="49.91486" lon="1.9268">
        <ele>55.7</ele>
        <time>2022-05-25T12:49:20Z</time>
      </trkpt>
      <trkpt lat="49.91487" lon="1.92678">
        <ele>55.7</ele>
        <time>2022-05-25T12:49:22Z</time>
      </trkpt>
      <trkpt lat="49.91488" lon="1.92676">
        <ele>55.8</ele>
        <time>2022-05-25T12:49:23Z</time>
      </trkpt>
      <trkpt lat="49.91489" lon="1.92675">
        <ele>55.8</ele>
        <time>2022-05-25T12:49:24Z</time>
      </trkpt>
      <trkpt lat="49.9149" lon="1.92671">
        <ele>55.9</ele>
        <time>2022-05-25T12:49:25Z</time>
      </trkpt>
      <trkpt lat="49.91491" lon="1.9267">
        <ele>56</ele>
        <time>2022-05-25T12:49:27Z</time>
      </trkpt>
      <trkpt lat="49.91492" lon="1.92668">
        <ele>56</ele>
        <time>2022-05-25T12:49:29Z</time>
      </trkpt>
      <trkpt lat="49.91493" lon="1.92667">
        <ele>56.1</ele>
        <time>2022-05-25T12:49:30Z</time>
      </trkpt>
      <trkpt lat="49.91494" lon="1.92665">
        <ele>56.2</ele>
        <time>2022-05-25T12:49:31Z</time>
      </trkpt>
      <trkpt lat="49.91495" lon="1.92663">
        <ele>56.2</ele>
        <time>2022-05-25T12:49:32Z</time>
      </trkpt>
      <trkpt lat="49.91495" lon="1.92661">
        <ele>56.3</ele>
        <time>2022-05-25T12:49:33Z</time>
      </trkpt>
      <trkpt lat="49.91496" lon="1.9266">
        <ele>56.3</ele>
        <time>2022-05-25T12:49:34Z</time>
      </trkpt>
      <trkpt lat="49.91497" lon="1.92659">
        <ele>56.3</ele>
        <time>2022-05-25T12:49:36Z</time>
      </trkpt>
      <trkpt lat="49.91497" lon="1.92658">
        <ele>56.4</ele>
        <time>2022-05-25T12:49:37Z</time>
      </trkpt>
      <trkpt lat="49.91498" lon="1.92657">
        <ele>56.4</ele>
        <time>2022-05-25T12:49:38Z</time>
      </trkpt>
      <trkpt lat="49.91499" lon="1.92656">
        <ele>56.5</ele>
        <time>2022-05-25T12:49:39Z</time>
      </trkpt>
      <trkpt lat="49.91499" lon="1.92655">
        <ele>56.5</ele>
        <time>2022-05-25T12:49:41Z</time>
      </trkpt>
      <trkpt lat="49.915" lon="1.92655">
        <ele>56.5</ele>
        <time>2022-05-25T12:49:42Z</time>
      </trkpt>
      <trkpt lat="49.91501" lon="1.92654">
        <ele>56.6</ele>
        <time>2022-05-25T12:49:43Z</time>
      </trkpt>
      <trkpt lat="49.91502" lon="1.92653">
        <ele>56.6</ele>
        <time>2022-05-25T12:49:44Z</time>
      </trkpt>
      <trkpt lat="49.91503" lon="1.92652">
        <ele>56.7</ele>
        <time>2022-05-25T12:49:45Z</time>
      </trkpt>
      <trkpt lat="49.91503" lon="1.92653">
        <ele>56.7</ele>
        <time>2022-05-25T12:49:46Z</time>
      </trkpt>
      <trkpt lat="49.91504" lon="1.92653">
        <ele>56.7</ele>
        <time>2022-05-25T12:49:48Z</time>
      </trkpt>
      <trkpt lat="49.91505" lon="1.92652">
        <ele>56.8</ele>
        <time>2022-05-25T12:49:49Z</time>
      </trkpt>
      <trkpt lat="49.91506" lon="1.92651">
        <ele>56.8</ele>
        <time>2022-05-25T12:49:50Z</time>
      </trkpt>
      <trkpt lat="49.91507" lon="1.92649">
        <ele>56.9</ele>
        <time>2022-05-25T12:49:51Z</time>
      </trkpt>
      <trkpt lat="49.91509" lon="1.92648">
        <ele>57</ele>
        <time>2022-05-25T12:49:53Z</time>
      </trkpt>
      <trkpt lat="49.9151" lon="1.92648">
        <ele>57</ele>
        <time>2022-05-25T12:49:54Z</time>
      </trkpt>
      <trkpt lat="49.91511" lon="1.92646">
        <ele>57.1</ele>
        <time>2022-05-25T12:49:56Z</time>
      </trkpt>
      <trkpt lat="49.91512" lon="1.92645">
        <ele>57.2</ele>
        <time>2022-05-25T12:49:57Z</time>
      </trkpt>
      <trkpt lat="49.91513" lon="1.92644">
        <ele>57.2</ele>
        <time>2022-05-25T12:49:58Z</time>
      </trkpt>
      <trkpt lat="49.91514" lon="1.92643">
        <ele>57.3</ele>
        <time>2022-05-25T12:50:00Z</time>
      </trkpt>
      <trkpt lat="49.91514" lon="1.92643">
        <ele>57.3</ele>
        <time>2022-05-25T12:50:01Z</time>
      </trkpt>
      <trkpt lat="49.91514" lon="1.92641">
        <ele>57.4</ele>
        <time>2022-05-25T12:50:02Z</time>
      </trkpt>
      <trkpt lat="49.91515" lon="1.9264">
        <ele>57.4</ele>
        <time>2022-05-25T12:50:03Z</time>
      </trkpt>
      <trkpt lat="49.91516" lon="1.92639">
        <ele>57.5</ele>
        <time>2022-05-25T12:50:04Z</time>
      </trkpt>
      <trkpt lat="49.91517" lon="1.92638">
        <ele>57.6</ele>
        <time>2022-05-25T12:50:06Z</time>
      </trkpt>
      <trkpt lat="49.91517" lon="1.92637">
        <ele>57.6</ele>
        <time>2022-05-25T12:50:07Z</time>
      </trkpt>
      <trkpt lat="49.91518" lon="1.92636">
        <ele>57.7</ele>
        <time>2022-05-25T12:50:08Z</time>
      </trkpt>
      <trkpt lat="49.9152" lon="1.92634">
        <ele>57.8</ele>
        <time>2022-05-25T12:50:09Z</time>
      </trkpt>
      <trkpt lat="49.91521" lon="1.92633">
        <ele>57.9</ele>
        <time>2022-05-25T12:50:10Z</time>
      </trkpt>
      <trkpt lat="49.91523" lon="1.92631">
        <ele>58.1</ele>
        <time>2022-05-25T12:50:12Z</time>
      </trkpt>
      <trkpt lat="49.91524" lon="1.9263">
        <ele>58.1</ele>
        <time>2022-05-25T12:50:13Z</time>
      </trkpt>
      <trkpt lat="49.91524" lon="1.92629">
        <ele>58.2</ele>
        <time>2022-05-25T12:50:14Z</time>
      </trkpt>
      <trkpt lat="49.91525" lon="1.92628">
        <ele>58.3</ele>
        <time>2022-05-25T12:50:15Z</time>
      </trkpt>
      <trkpt lat="49.91527" lon="1.92626">
        <ele>58.4</ele>
        <time>2022-05-25T12:50:16Z</time>
      </trkpt>
      <trkpt lat="49.91528" lon="1.92624">
        <ele>58.5</ele>
        <time>2022-05-25T12:50:18Z</time>
      </trkpt>
      <trkpt lat="49.91529" lon="1.92623">
        <ele>58.6</ele>
        <time>2022-05-25T12:50:20Z</time>
      </trkpt>
      <trkpt lat="49.9153" lon="1.92622">
        <ele>58.6</ele>
        <time>2022-05-25T12:50:21Z</time>
      </trkpt>
      <trkpt lat="49.9153" lon="1.92621">
        <ele>58.7</ele>
        <time>2022-05-25T12:50:22Z</time>
      </trkpt>
      <trkpt lat="49.91531" lon="1.9262">
        <ele>58.7</ele>
        <time>2022-05-25T12:50:23Z</time>
      </trkpt>
      <trkpt lat="49.91533" lon="1.92618">
        <ele>58.8</ele>
        <time>2022-05-25T12:50:24Z</time>
      </trkpt>
      <trkpt lat="49.91534" lon="1.92617">
        <ele>58.9</ele>
        <time>2022-05-25T12:50:25Z</time>
      </trkpt>
      <trkpt lat="49.91534" lon="1.92616">
        <ele>58.9</ele>
        <time>2022-05-25T12:50:26Z</time>
      </trkpt>
      <trkpt lat="49.91535" lon="1.92615">
        <ele>59</ele>
        <time>2022-05-25T12:50:27Z</time>
      </trkpt>
      <trkpt lat="49.91536" lon="1.92613">
        <ele>59</ele>
        <time>2022-05-25T12:50:29Z</time>
      </trkpt>
      <trkpt lat="49.91537" lon="1.92612">
        <ele>59.1</ele>
        <time>2022-05-25T12:50:30Z</time>
      </trkpt>
      <trkpt lat="49.91538" lon="1.92611">
        <ele>59.2</ele>
        <time>2022-05-25T12:50:31Z</time>
      </trkpt>
      <trkpt lat="49.91538" lon="1.9261">
        <ele>59.2</ele>
        <time>2022-05-25T12:50:32Z</time>
      </trkpt>
      <trkpt lat="49.91539" lon="1.92609">
        <ele>59.3</ele>
        <time>2022-05-25T12:50:33Z</time>
      </trkpt>
      <trkpt lat="49.9154" lon="1.92607">
        <ele>59.3</ele>
        <time>2022-05-25T12:50:35Z</time>
      </trkpt>
      <trkpt lat="49.9154" lon="1.92606">
        <ele>59.4</ele>
        <time>2022-05-25T12:50:36Z</time>
      </trkpt>
      <trkpt lat="49.91541" lon="1.92605">
        <ele>59.4</ele>
        <time>2022-05-25T12:50:37Z</time>
      </trkpt>
      <trkpt lat="49.91541" lon="1.92605">
        <ele>59.4</ele>
        <time>2022-05-25T12:50:38Z</time>
      </trkpt>
      <trkpt lat="49.91542" lon="1.92603">
        <ele>59.5</ele>
        <time>2022-05-25T12:50:39Z</time>
      </trkpt>
      <trkpt lat="49.91543" lon="1.92602">
        <ele>59.6</ele>
        <time>2022-05-25T12:50:40Z</time>
      </trkpt>
      <trkpt lat="49.91544" lon="1.926">
        <ele>59.6</ele>
        <time>2022-05-25T12:50:42Z</time>
      </trkpt>
      <trkpt lat="49.91546" lon="1.92598">
        <ele>59.7</ele>
        <time>2022-05-25T12:50:43Z</time>
      </trkpt>
      <trkpt lat="49.91546" lon="1.92597">
        <ele>59.8</ele>
        <time>2022-05-25T12:50:45Z</time>
      </trkpt>
      <trkpt lat="49.91547" lon="1.92597">
        <ele>59.8</ele>
        <time>2022-05-25T12:50:46Z</time>
      </trkpt>
      <trkpt lat="49.91548" lon="1.92595">
        <ele>59.8</ele>
        <time>2022-05-25T12:50:47Z</time>
      </trkpt>
      <trkpt lat="49.91549" lon="1.92594">
        <ele>59.9</ele>
        <time>2022-05-25T12:50:48Z</time>
      </trkpt>
      <trkpt lat="49.9155" lon="1.92593">
        <ele>60</ele>
        <time>2022-05-25T12:50:49Z</time>
      </trkpt>
      <trkpt lat="49.91551" lon="1.92592">
        <ele>60</ele>
        <time>2022-05-25T12:50:51Z</time>
      </trkpt>
      <trkpt lat="49.91551" lon="1.92591">
        <ele>60.1</ele>
        <time>2022-05-25T12:50:52Z</time>
      </trkpt>
      <trkpt lat="49.91552" lon="1.9259">
        <ele>60.1</ele>
        <time>2022-05-25T12:50:53Z</time>
      </trkpt>
      <trkpt lat="49.91553" lon="1.92589">
        <ele>60.2</ele>
        <time>2022-05-25T12:50:54Z</time>
      </trkpt>
      <trkpt lat="49.91555" lon="1.92587">
        <ele>60.3</ele>
        <time>2022-05-25T12:50:55Z</time>
      </trkpt>
      <trkpt lat="49.91556" lon="1.92586">
        <ele>60.4</ele>
        <time>2022-05-25T12:50:57Z</time>
      </trkpt>
      <trkpt lat="49.91556" lon="1.92585">
        <ele>60.4</ele>
        <time>2022-05-25T12:50:58Z</time>
      </trkpt>
      <trkpt lat="49.91557" lon="1.92584">
        <ele>60.5</ele>
        <time>2022-05-25T12:51:00Z</time>
      </trkpt>
      <trkpt lat="49.91559" lon="1.92582">
        <ele>60.6</ele>
        <time>2022-05-25T12:51:01Z</time>
      </trkpt>
      <trkpt lat="49.91561" lon="1.9258">
        <ele>60.7</ele>
        <time>2022-05-25T12:51:02Z</time>
      </trkpt>
      <trkpt lat="49.91561" lon="1.9258">
        <ele>60.8</ele>
        <time>2022-05-25T12:51:03Z</time>
      </trkpt>
      <trkpt lat="49.91562" lon="1.92579">
        <ele>60.8</ele>
        <time>2022-05-25T12:51:05Z</time>
      </trkpt>
      <trkpt lat="49.91562" lon="1.92578">
        <ele>60.9</ele>
        <time>2022-05-25T12:51:06Z</time>
      </trkpt>
      <trkpt lat="49.91563" lon="1.92577">
        <ele>60.9</ele>
        <time>2022-05-25T12:51:07Z</time>
      </trkpt>
      <trkpt lat="49.91564" lon="1.92575">
        <ele>61</ele>
        <time>2022-05-25T12:51:08Z</time>
      </trkpt>
      <trkpt lat="49.91565" lon="1.92574">
        <ele>61.1</ele>
        <time>2022-05-25T12:51:10Z</time>
      </trkpt>
      <trkpt lat="49.91566" lon="1.92572">
        <ele>61.2</ele>
        <time>2022-05-25T12:51:11Z</time>
      </trkpt>
      <trkpt lat="49.91567" lon="1.92571">
        <ele>61.2</ele>
        <time>2022-05-25T12:51:12Z</time>
      </trkpt>
      <trkpt lat="49.91569" lon="1.92569">
        <ele>61.3</ele>
        <time>2022-05-25T12:51:14Z</time>
      </trkpt>
      <trkpt lat="49.91569" lon="1.92569">
        <ele>61.3</ele>
        <time>2022-05-25T12:51:15Z</time>
      </trkpt>
      <trkpt lat="49.9157" lon="1.92568">
        <ele>61.4</ele>
        <time>2022-05-25T12:51:16Z</time>
      </trkpt>
      <trkpt lat="49.9157" lon="1.92568">
        <ele>61.4</ele>
        <time>2022-05-25T12:51:17Z</time>
      </trkpt>
      <trkpt lat="49.91571" lon="1.92567">
        <ele>61.4</ele>
        <time>2022-05-25T12:51:18Z</time>
      </trkpt>
      <trkpt lat="49.91572" lon="1.92566">
        <ele>61.4</ele>
        <time>2022-05-25T12:51:20Z</time>
      </trkpt>
      <trkpt lat="49.91572" lon="1.92565">
        <ele>61.5</ele>
        <time>2022-05-25T12:51:21Z</time>
      </trkpt>
      <trkpt lat="49.91574" lon="1.92564">
        <ele>61.5</ele>
        <time>2022-05-25T12:51:22Z</time>
      </trkpt>
      <trkpt lat="49.91576" lon="1.92563">
        <ele>61.6</ele>
        <time>2022-05-25T12:51:24Z</time>
      </trkpt>
      <trkpt lat="49.91576" lon="1.92562">
        <ele>61.6</ele>
        <time>2022-05-25T12:51:25Z</time>
      </trkpt>
      <trkpt lat="49.91577" lon="1.92562">
        <ele>61.6</ele>
        <time>2022-05-25T12:51:26Z</time>
      </trkpt>
      <trkpt lat="49.91578" lon="1.92561">
        <ele>61.6</ele>
        <time>2022-05-25T12:51:27Z</time>
      </trkpt>
      <trkpt lat="49.91579" lon="1.9256">
        <ele>61.7</ele>
        <time>2022-05-25T12:51:28Z</time>
      </trkpt>
      <trkpt lat="49.91579" lon="1.92559">
        <ele>61.7</ele>
        <time>2022-05-25T12:51:29Z</time>
      </trkpt>
      <trkpt lat="49.9158" lon="1.92558">
        <ele>61.7</ele>
        <time>2022-05-25T12:51:30Z</time>
      </trkpt>
      <trkpt lat="49.91581" lon="1.92557">
        <ele>61.7</ele>
        <time>2022-05-25T12:51:32Z</time>
      </trkpt>
      <trkpt lat="49.91582" lon="1.92556">
        <ele>61.8</ele>
        <time>2022-05-25T12:51:33Z</time>
      </trkpt>
      <trkpt lat="49.91582" lon="1.92555">
        <ele>61.8</ele>
        <time>2022-05-25T12:51:34Z</time>
      </trkpt>
      <trkpt lat="49.91584" lon="1.92552">
        <ele>61.9</ele>
        <time>2022-05-25T12:51:35Z</time>
      </trkpt>
      <trkpt lat="49.91585" lon="1.92551">
        <ele>61.9</ele>
        <time>2022-05-25T12:51:36Z</time>
      </trkpt>
      <trkpt lat="49.91585" lon="1.9255">
        <ele>61.9</ele>
        <time>2022-05-25T12:51:38Z</time>
      </trkpt>
      <trkpt lat="49.91586" lon="1.92548">
        <ele>62</ele>
        <time>2022-05-25T12:51:39Z</time>
      </trkpt>
      <trkpt lat="49.91587" lon="1.92547">
        <ele>62</ele>
        <time>2022-05-25T12:51:40Z</time>
      </trkpt>
      <trkpt lat="49.91588" lon="1.92546">
        <ele>62</ele>
        <time>2022-05-25T12:51:41Z</time>
      </trkpt>
      <trkpt lat="49.91589" lon="1.92544">
        <ele>62.1</ele>
        <time>2022-05-25T12:51:42Z</time>
      </trkpt>
      <trkpt lat="49.91589" lon="1.92543">
        <ele>62.1</ele>
        <time>2022-05-25T12:51:43Z</time>
      </trkpt>
      <trkpt lat="49.9159" lon="1.92542">
        <ele>62.1</ele>
        <time>2022-05-25T12:51:45Z</time>
      </trkpt>
      <trkpt lat="49.9159" lon="1.92541">
        <ele>62.2</ele>
        <time>2022-05-25T12:51:46Z</time>
      </trkpt>
      <trkpt lat="49.91591" lon="1.9254">
        <ele>62.2</ele>
        <time>2022-05-25T12:51:47Z</time>
      </trkpt>
      <trkpt lat="49.91591" lon="1.92539">
        <ele>62.2</ele>
        <time>2022-05-25T12:51:48Z</time>
      </trkpt>
      <trkpt lat="49.91592" lon="1.92538">
        <ele>62.2</ele>
        <time>2022-05-25T12:51:49Z</time>
      </trkpt>
      <trkpt lat="49.91593" lon="1.92537">
        <ele>62.3</ele>
        <time>2022-05-25T12:51:50Z</time>
      </trkpt>
      <trkpt lat="49.91594" lon="1.92536">
        <ele>62.3</ele>
        <time>2022-05-25T12:51:51Z</time>
      </trkpt>
      <trkpt lat="49.91596" lon="1.92534">
        <ele>62.4</ele>
        <time>2022-05-25T12:51:52Z</time>
      </trkpt>
      <trkpt lat="49.91597" lon="1.92533">
        <ele>62.4</ele>
        <time>2022-05-25T12:51:53Z</time>
      </trkpt>
      <trkpt lat="49.91598" lon="1.92532">
        <ele>62.4</ele>
        <time>2022-05-25T12:51:55Z</time>
      </trkpt>
      <trkpt lat="49.91599" lon="1.92531">
        <ele>62.5</ele>
        <time>2022-05-25T12:51:56Z</time>
      </trkpt>
      <trkpt lat="49.916" lon="1.9253">
        <ele>62.5</ele>
        <time>2022-05-25T12:51:58Z</time>
      </trkpt>
      <trkpt lat="49.91601" lon="1.92529">
        <ele>62.6</ele>
        <time>2022-05-25T12:51:59Z</time>
      </trkpt>
      <trkpt lat="49.91602" lon="1.92528">
        <ele>62.6</ele>
        <time>2022-05-25T12:52:00Z</time>
      </trkpt>
      <trkpt lat="49.91603" lon="1.92526">
        <ele>62.6</ele>
        <time>2022-05-25T12:52:01Z</time>
      </trkpt>
      <trkpt lat="49.91604" lon="1.92525">
        <ele>62.7</ele>
        <time>2022-05-25T12:52:02Z</time>
      </trkpt>
      <trkpt lat="49.91605" lon="1.92524">
        <ele>62.7</ele>
        <time>2022-05-25T12:52:04Z</time>
      </trkpt>
      <trkpt lat="49.91606" lon="1.92523">
        <ele>62.7</ele>
        <time>2022-05-25T12:52:05Z</time>
      </trkpt>
      <trkpt lat="49.91606" lon="1.92522">
        <ele>62.8</ele>
        <time>2022-05-25T12:52:06Z</time>
      </trkpt>
      <trkpt lat="49.91607" lon="1.92521">
        <ele>62.8</ele>
        <time>2022-05-25T12:52:07Z</time>
      </trkpt>
      <trkpt lat="49.91607" lon="1.9252">
        <ele>62.8</ele>
        <time>2022-05-25T12:52:08Z</time>
      </trkpt>
      <trkpt lat="49.91608" lon="1.9252">
        <ele>62.9</ele>
        <time>2022-05-25T12:52:09Z</time>
      </trkpt>
      <trkpt lat="49.91609" lon="1.92518">
        <ele>62.9</ele>
        <time>2022-05-25T12:52:11Z</time>
      </trkpt>
      <trkpt lat="49.9161" lon="1.92517">
        <ele>63</ele>
        <time>2022-05-25T12:52:12Z</time>
      </trkpt>
      <trkpt lat="49.91611" lon="1.92516">
        <ele>63</ele>
        <time>2022-05-25T12:52:13Z</time>
      </trkpt>
      <trkpt lat="49.91612" lon="1.92516">
        <ele>63.1</ele>
        <time>2022-05-25T12:52:14Z</time>
      </trkpt>
      <trkpt lat="49.91613" lon="1.92513">
        <ele>63.2</ele>
        <time>2022-05-25T12:52:15Z</time>
      </trkpt>
      <trkpt lat="49.91614" lon="1.92512">
        <ele>63.2</ele>
        <time>2022-05-25T12:52:16Z</time>
      </trkpt>
      <trkpt lat="49.91614" lon="1.92511">
        <ele>63.2</ele>
        <time>2022-05-25T12:52:18Z</time>
      </trkpt>
      <trkpt lat="49.91615" lon="1.92509">
        <ele>63.3</ele>
        <time>2022-05-25T12:52:19Z</time>
      </trkpt>
      <trkpt lat="49.91616" lon="1.92508">
        <ele>63.3</ele>
        <time>2022-05-25T12:52:20Z</time>
      </trkpt>
      <trkpt lat="49.91616" lon="1.92507">
        <ele>63.4</ele>
        <time>2022-05-25T12:52:21Z</time>
      </trkpt>
      <trkpt lat="49.91616" lon="1.92506">
        <ele>63.4</ele>
        <time>2022-05-25T12:52:23Z</time>
      </trkpt>
      <trkpt lat="49.91617" lon="1.92505">
        <ele>63.5</ele>
        <time>2022-05-25T12:52:24Z</time>
      </trkpt>
      <trkpt lat="49.91618" lon="1.92503">
        <ele>63.5</ele>
        <time>2022-05-25T12:52:25Z</time>
      </trkpt>
      <trkpt lat="49.9162" lon="1.925">
        <ele>63.6</ele>
        <time>2022-05-25T12:52:26Z</time>
      </trkpt>
      <trkpt lat="49.91621" lon="1.92499">
        <ele>63.7</ele>
        <time>2022-05-25T12:52:28Z</time>
      </trkpt>
      <trkpt lat="49.91622" lon="1.92498">
        <ele>63.7</ele>
        <time>2022-05-25T12:52:29Z</time>
      </trkpt>
      <trkpt lat="49.91623" lon="1.92497">
        <ele>63.8</ele>
        <time>2022-05-25T12:52:30Z</time>
      </trkpt>
      <trkpt lat="49.91624" lon="1.92496">
        <ele>63.8</ele>
        <time>2022-05-25T12:52:31Z</time>
      </trkpt>
      <trkpt lat="49.91625" lon="1.92494">
        <ele>63.9</ele>
        <time>2022-05-25T12:52:32Z</time>
      </trkpt>
      <trkpt lat="49.91626" lon="1.92493">
        <ele>63.9</ele>
        <time>2022-05-25T12:52:34Z</time>
      </trkpt>
      <trkpt lat="49.91626" lon="1.92491">
        <ele>64</ele>
        <time>2022-05-25T12:52:35Z</time>
      </trkpt>
      <trkpt lat="49.91627" lon="1.92489">
        <ele>64</ele>
        <time>2022-05-25T12:52:36Z</time>
      </trkpt>
      <trkpt lat="49.91628" lon="1.92487">
        <ele>64.1</ele>
        <time>2022-05-25T12:52:37Z</time>
      </trkpt>
      <trkpt lat="49.91629" lon="1.92486">
        <ele>64.1</ele>
        <time>2022-05-25T12:52:38Z</time>
      </trkpt>
      <trkpt lat="49.9163" lon="1.92485">
        <ele>64.2</ele>
        <time>2022-05-25T12:52:40Z</time>
      </trkpt>
      <trkpt lat="49.9163" lon="1.92483">
        <ele>64.2</ele>
        <time>2022-05-25T12:52:41Z</time>
      </trkpt>
      <trkpt lat="49.91631" lon="1.92482">
        <ele>64.2</ele>
        <time>2022-05-25T12:52:42Z</time>
      </trkpt>
      <trkpt lat="49.91633" lon="1.92479">
        <ele>64.3</ele>
        <time>2022-05-25T12:52:44Z</time>
      </trkpt>
      <trkpt lat="49.91634" lon="1.92478">
        <ele>64.4</ele>
        <time>2022-05-25T12:52:46Z</time>
      </trkpt>
      <trkpt lat="49.91635" lon="1.92476">
        <ele>64.4</ele>
        <time>2022-05-25T12:52:47Z</time>
      </trkpt>
      <trkpt lat="49.91636" lon="1.92475">
        <ele>64.5</ele>
        <time>2022-05-25T12:52:48Z</time>
      </trkpt>
      <trkpt lat="49.91637" lon="1.92474">
        <ele>64.5</ele>
        <time>2022-05-25T12:52:49Z</time>
      </trkpt>
      <trkpt lat="49.91638" lon="1.92473">
        <ele>64.6</ele>
        <time>2022-05-25T12:52:50Z</time>
      </trkpt>
      <trkpt lat="49.91639" lon="1.92472">
        <ele>64.6</ele>
        <time>2022-05-25T12:52:51Z</time>
      </trkpt>
      <trkpt lat="49.91639" lon="1.92472">
        <ele>64.6</ele>
        <time>2022-05-25T12:52:53Z</time>
      </trkpt>
      <trkpt lat="49.9164" lon="1.9247">
        <ele>64.6</ele>
        <time>2022-05-25T12:52:54Z</time>
      </trkpt>
      <trkpt lat="49.91641" lon="1.92469">
        <ele>64.7</ele>
        <time>2022-05-25T12:52:55Z</time>
      </trkpt>
      <trkpt lat="49.91642" lon="1.92467">
        <ele>64.8</ele>
        <time>2022-05-25T12:52:56Z</time>
      </trkpt>
      <trkpt lat="49.91643" lon="1.92466">
        <ele>64.8</ele>
        <time>2022-05-25T12:52:57Z</time>
      </trkpt>
      <trkpt lat="49.91645" lon="1.92464">
        <ele>64.9</ele>
        <time>2022-05-25T12:52:59Z</time>
      </trkpt>
      <trkpt lat="49.91646" lon="1.92464">
        <ele>64.9</ele>
        <time>2022-05-25T12:53:00Z</time>
      </trkpt>
      <trkpt lat="49.91647" lon="1.92463">
        <ele>64.9</ele>
        <time>2022-05-25T12:53:01Z</time>
      </trkpt>
      <trkpt lat="49.91648" lon="1.92462">
        <ele>65</ele>
        <time>2022-05-25T12:53:02Z</time>
      </trkpt>
      <trkpt lat="49.91649" lon="1.92461">
        <ele>65</ele>
        <time>2022-05-25T12:53:03Z</time>
      </trkpt>
      <trkpt lat="49.9165" lon="1.9246">
        <ele>65.1</ele>
        <time>2022-05-25T12:53:05Z</time>
      </trkpt>
      <trkpt lat="49.91651" lon="1.92458">
        <ele>65.2</ele>
        <time>2022-05-25T12:53:06Z</time>
      </trkpt>
      <trkpt lat="49.91652" lon="1.92457">
        <ele>65.2</ele>
        <time>2022-05-25T12:53:08Z</time>
      </trkpt>
      <trkpt lat="49.91654" lon="1.92456">
        <ele>65.3</ele>
        <time>2022-05-25T12:53:09Z</time>
      </trkpt>
      <trkpt lat="49.91655" lon="1.92454">
        <ele>65.3</ele>
        <time>2022-05-25T12:53:10Z</time>
      </trkpt>
      <trkpt lat="49.91656" lon="1.92453">
        <ele>65.4</ele>
        <time>2022-05-25T12:53:11Z</time>
      </trkpt>
      <trkpt lat="49.91657" lon="1.92451">
        <ele>65.4</ele>
        <time>2022-05-25T12:53:12Z</time>
      </trkpt>
      <trkpt lat="49.91658" lon="1.9245">
        <ele>65.5</ele>
        <time>2022-05-25T12:53:13Z</time>
      </trkpt>
      <trkpt lat="49.91659" lon="1.92449">
        <ele>65.5</ele>
        <time>2022-05-25T12:53:14Z</time>
      </trkpt>
      <trkpt lat="49.9166" lon="1.92448">
        <ele>65.6</ele>
        <time>2022-05-25T12:53:15Z</time>
      </trkpt>
      <trkpt lat="49.9166" lon="1.92448">
        <ele>65.6</ele>
        <time>2022-05-25T12:53:17Z</time>
      </trkpt>
      <trkpt lat="49.91662" lon="1.92445">
        <ele>65.6</ele>
        <time>2022-05-25T12:53:18Z</time>
      </trkpt>
      <trkpt lat="49.91662" lon="1.92445">
        <ele>65.7</ele>
        <time>2022-05-25T12:53:19Z</time>
      </trkpt>
      <trkpt lat="49.91663" lon="1.92444">
        <ele>65.7</ele>
        <time>2022-05-25T12:53:21Z</time>
      </trkpt>
      <trkpt lat="49.91664" lon="1.92443">
        <ele>65.7</ele>
        <time>2022-05-25T12:53:22Z</time>
      </trkpt>
      <trkpt lat="49.91663" lon="1.92445">
        <ele>65.8</ele>
        <time>2022-05-25T12:53:23Z</time>
      </trkpt>
      <trkpt lat="49.91664" lon="1.92444">
        <ele>65.8</ele>
        <time>2022-05-25T12:53:24Z</time>
      </trkpt>
      <trkpt lat="49.91664" lon="1.92443">
        <ele>65.9</ele>
        <time>2022-05-25T12:53:25Z</time>
      </trkpt>
      <trkpt lat="49.91666" lon="1.92441">
        <ele>65.9</ele>
        <time>2022-05-25T12:53:27Z</time>
      </trkpt>
      <trkpt lat="49.91667" lon="1.9244">
        <ele>66</ele>
        <time>2022-05-25T12:53:28Z</time>
      </trkpt>
      <trkpt lat="49.91668" lon="1.92439">
        <ele>66</ele>
        <time>2022-05-25T12:53:30Z</time>
      </trkpt>
      <trkpt lat="49.91669" lon="1.92438">
        <ele>66.1</ele>
        <time>2022-05-25T12:53:31Z</time>
      </trkpt>
      <trkpt lat="49.9167" lon="1.92436">
        <ele>66.1</ele>
        <time>2022-05-25T12:53:32Z</time>
      </trkpt>
      <trkpt lat="49.91671" lon="1.92436">
        <ele>66.2</ele>
        <time>2022-05-25T12:53:33Z</time>
      </trkpt>
      <trkpt lat="49.91672" lon="1.92435">
        <ele>66.2</ele>
        <time>2022-05-25T12:53:34Z</time>
      </trkpt>
      <trkpt lat="49.91672" lon="1.92434">
        <ele>66.3</ele>
        <time>2022-05-25T12:53:36Z</time>
      </trkpt>
      <trkpt lat="49.91673" lon="1.92433">
        <ele>66.3</ele>
        <time>2022-05-25T12:53:37Z</time>
      </trkpt>
      <trkpt lat="49.91674" lon="1.92432">
        <ele>66.4</ele>
        <time>2022-05-25T12:53:38Z</time>
      </trkpt>
      <trkpt lat="49.91675" lon="1.92431">
        <ele>66.4</ele>
        <time>2022-05-25T12:53:39Z</time>
      </trkpt>
      <trkpt lat="49.91675" lon="1.92431">
        <ele>66.4</ele>
        <time>2022-05-25T12:53:40Z</time>
      </trkpt>
      <trkpt lat="49.91675" lon="1.9243">
        <ele>66.5</ele>
        <time>2022-05-25T12:53:42Z</time>
      </trkpt>
      <trkpt lat="49.91676" lon="1.9243">
        <ele>66.5</ele>
        <time>2022-05-25T12:53:43Z</time>
      </trkpt>
      <trkpt lat="49.91678" lon="1.92428">
        <ele>66.6</ele>
        <time>2022-05-25T12:53:44Z</time>
      </trkpt>
      <trkpt lat="49.91679" lon="1.92426">
        <ele>66.7</ele>
        <time>2022-05-25T12:53:45Z</time>
      </trkpt>
      <trkpt lat="49.9168" lon="1.92425">
        <ele>66.8</ele>
        <time>2022-05-25T12:53:46Z</time>
      </trkpt>
      <trkpt lat="49.91681" lon="1.92424">
        <ele>66.8</ele>
        <time>2022-05-25T12:53:48Z</time>
      </trkpt>
      <trkpt lat="49.91682" lon="1.92423">
        <ele>66.9</ele>
        <time>2022-05-25T12:53:49Z</time>
      </trkpt>
      <trkpt lat="49.91683" lon="1.92422">
        <ele>67</ele>
        <time>2022-05-25T12:53:51Z</time>
      </trkpt>
      <trkpt lat="49.91684" lon="1.92421">
        <ele>67</ele>
        <time>2022-05-25T12:53:52Z</time>
      </trkpt>
      <trkpt lat="49.91685" lon="1.9242">
        <ele>67.1</ele>
        <time>2022-05-25T12:53:54Z</time>
      </trkpt>
      <trkpt lat="49.91686" lon="1.92419">
        <ele>67.2</ele>
        <time>2022-05-25T12:53:55Z</time>
      </trkpt>
      <trkpt lat="49.91687" lon="1.92418">
        <ele>67.3</ele>
        <time>2022-05-25T12:53:56Z</time>
      </trkpt>
      <trkpt lat="49.91688" lon="1.92417">
        <ele>67.3</ele>
        <time>2022-05-25T12:53:57Z</time>
      </trkpt>
      <trkpt lat="49.9169" lon="1.92415">
        <ele>67.5</ele>
        <time>2022-05-25T12:53:59Z</time>
      </trkpt>
      <trkpt lat="49.9169" lon="1.92414">
        <ele>67.5</ele>
        <time>2022-05-25T12:54:00Z</time>
      </trkpt>
      <trkpt lat="49.91691" lon="1.92413">
        <ele>67.6</ele>
        <time>2022-05-25T12:54:02Z</time>
      </trkpt>
      <trkpt lat="49.91693" lon="1.92411">
        <ele>67.7</ele>
        <time>2022-05-25T12:54:03Z</time>
      </trkpt>
      <trkpt lat="49.91694" lon="1.9241">
        <ele>67.8</ele>
        <time>2022-05-25T12:54:04Z</time>
      </trkpt>
      <trkpt lat="49.91695" lon="1.92409">
        <ele>67.9</ele>
        <time>2022-05-25T12:54:05Z</time>
      </trkpt>
      <trkpt lat="49.91696" lon="1.92409">
        <ele>67.9</ele>
        <time>2022-05-25T12:54:07Z</time>
      </trkpt>
      <trkpt lat="49.91697" lon="1.92408">
        <ele>68</ele>
        <time>2022-05-25T12:54:08Z</time>
      </trkpt>
      <trkpt lat="49.91698" lon="1.92407">
        <ele>68.1</ele>
        <time>2022-05-25T12:54:09Z</time>
      </trkpt>
      <trkpt lat="49.91699" lon="1.92406">
        <ele>68.1</ele>
        <time>2022-05-25T12:54:10Z</time>
      </trkpt>
      <trkpt lat="49.917" lon="1.92405">
        <ele>68.2</ele>
        <time>2022-05-25T12:54:11Z</time>
      </trkpt>
      <trkpt lat="49.91701" lon="1.92405">
        <ele>68.2</ele>
        <time>2022-05-25T12:54:13Z</time>
      </trkpt>
      <trkpt lat="49.91701" lon="1.92404">
        <ele>68.3</ele>
        <time>2022-05-25T12:54:14Z</time>
      </trkpt>
      <trkpt lat="49.91702" lon="1.92403">
        <ele>68.3</ele>
        <time>2022-05-25T12:54:16Z</time>
      </trkpt>
      <trkpt lat="49.91704" lon="1.92402">
        <ele>68.4</ele>
        <time>2022-05-25T12:54:17Z</time>
      </trkpt>
      <trkpt lat="49.91705" lon="1.92401">
        <ele>68.5</ele>
        <time>2022-05-25T12:54:18Z</time>
      </trkpt>
      <trkpt lat="49.91706" lon="1.92401">
        <ele>68.5</ele>
        <time>2022-05-25T12:54:19Z</time>
      </trkpt>
      <trkpt lat="49.91707" lon="1.924">
        <ele>68.5</ele>
        <time>2022-05-25T12:54:20Z</time>
      </trkpt>
      <trkpt lat="49.91708" lon="1.924">
        <ele>68.6</ele>
        <time>2022-05-25T12:54:21Z</time>
      </trkpt>
      <trkpt lat="49.91709" lon="1.924">
        <ele>68.6</ele>
        <time>2022-05-25T12:54:22Z</time>
      </trkpt>
      <trkpt lat="49.91711" lon="1.92399">
        <ele>68.7</ele>
        <time>2022-05-25T12:54:24Z</time>
      </trkpt>
      <trkpt lat="49.91712" lon="1.92398">
        <ele>68.8</ele>
        <time>2022-05-25T12:54:25Z</time>
      </trkpt>
      <trkpt lat="49.91713" lon="1.92398">
        <ele>68.8</ele>
        <time>2022-05-25T12:54:26Z</time>
      </trkpt>
      <trkpt lat="49.91715" lon="1.92397">
        <ele>68.9</ele>
        <time>2022-05-25T12:54:27Z</time>
      </trkpt>
      <trkpt lat="49.91716" lon="1.92396">
        <ele>68.9</ele>
        <time>2022-05-25T12:54:28Z</time>
      </trkpt>
      <trkpt lat="49.91717" lon="1.92395">
        <ele>69</ele>
        <time>2022-05-25T12:54:30Z</time>
      </trkpt>
      <trkpt lat="49.91718" lon="1.92394">
        <ele>69</ele>
        <time>2022-05-25T12:54:32Z</time>
      </trkpt>
      <trkpt lat="49.9172" lon="1.92394">
        <ele>69.1</ele>
        <time>2022-05-25T12:54:33Z</time>
      </trkpt>
      <trkpt lat="49.91721" lon="1.92392">
        <ele>69.1</ele>
        <time>2022-05-25T12:54:34Z</time>
      </trkpt>
      <trkpt lat="49.91722" lon="1.92391">
        <ele>69.2</ele>
        <time>2022-05-25T12:54:35Z</time>
      </trkpt>
      <trkpt lat="49.91723" lon="1.92391">
        <ele>69.2</ele>
        <time>2022-05-25T12:54:36Z</time>
      </trkpt>
      <trkpt lat="49.91723" lon="1.9239">
        <ele>69.2</ele>
        <time>2022-05-25T12:54:38Z</time>
      </trkpt>
      <trkpt lat="49.91725" lon="1.92389">
        <ele>69.3</ele>
        <time>2022-05-25T12:54:39Z</time>
      </trkpt>
      <trkpt lat="49.91725" lon="1.92388">
        <ele>69.3</ele>
        <time>2022-05-25T12:54:41Z</time>
      </trkpt>
      <trkpt lat="49.91727" lon="1.92387">
        <ele>69.3</ele>
        <time>2022-05-25T12:54:42Z</time>
      </trkpt>
      <trkpt lat="49.91728" lon="1.92386">
        <ele>69.4</ele>
        <time>2022-05-25T12:54:44Z</time>
      </trkpt>
      <trkpt lat="49.91729" lon="1.92385">
        <ele>69.4</ele>
        <time>2022-05-25T12:54:45Z</time>
      </trkpt>
      <trkpt lat="49.9173" lon="1.92384">
        <ele>69.4</ele>
        <time>2022-05-25T12:54:46Z</time>
      </trkpt>
      <trkpt lat="49.91731" lon="1.92383">
        <ele>69.4</ele>
        <time>2022-05-25T12:54:47Z</time>
      </trkpt>
      <trkpt lat="49.91732" lon="1.92382">
        <ele>69.4</ele>
        <time>2022-05-25T12:54:48Z</time>
      </trkpt>
      <trkpt lat="49.91733" lon="1.92381">
        <ele>69.5</ele>
        <time>2022-05-25T12:54:49Z</time>
      </trkpt>
      <trkpt lat="49.91734" lon="1.9238">
        <ele>69.5</ele>
        <time>2022-05-25T12:54:51Z</time>
      </trkpt>
      <trkpt lat="49.91736" lon="1.92378">
        <ele>69.5</ele>
        <time>2022-05-25T12:54:52Z</time>
      </trkpt>
      <trkpt lat="49.91737" lon="1.92378">
        <ele>69.5</ele>
        <time>2022-05-25T12:54:53Z</time>
      </trkpt>
      <trkpt lat="49.91737" lon="1.92377">
        <ele>69.6</ele>
        <time>2022-05-25T12:54:54Z</time>
      </trkpt>
      <trkpt lat="49.91739" lon="1.92376">
        <ele>69.6</ele>
        <time>2022-05-25T12:54:55Z</time>
      </trkpt>
      <trkpt lat="49.9174" lon="1.92375">
        <ele>69.6</ele>
        <time>2022-05-25T12:54:56Z</time>
      </trkpt>
      <trkpt lat="49.9174" lon="1.92374">
        <ele>69.7</ele>
        <time>2022-05-25T12:54:58Z</time>
      </trkpt>
      <trkpt lat="49.91741" lon="1.92372">
        <ele>69.7</ele>
        <time>2022-05-25T12:54:59Z</time>
      </trkpt>
      <trkpt lat="49.91742" lon="1.92371">
        <ele>69.7</ele>
        <time>2022-05-25T12:55:00Z</time>
      </trkpt>
      <trkpt lat="49.91743" lon="1.9237">
        <ele>69.7</ele>
        <time>2022-05-25T12:55:01Z</time>
      </trkpt>
      <trkpt lat="49.91743" lon="1.92368">
        <ele>69.8</ele>
        <time>2022-05-25T12:55:02Z</time>
      </trkpt>
      <trkpt lat="49.91744" lon="1.92367">
        <ele>69.8</ele>
        <time>2022-05-25T12:55:04Z</time>
      </trkpt>
      <trkpt lat="49.91745" lon="1.92366">
        <ele>69.8</ele>
        <time>2022-05-25T12:55:05Z</time>
      </trkpt>
      <trkpt lat="49.91746" lon="1.92363">
        <ele>69.9</ele>
        <time>2022-05-25T12:55:06Z</time>
      </trkpt>
      <trkpt lat="49.91748" lon="1.92361">
        <ele>69.9</ele>
        <time>2022-05-25T12:55:08Z</time>
      </trkpt>
      <trkpt lat="49.91748" lon="1.9236">
        <ele>69.9</ele>
        <time>2022-05-25T12:55:09Z</time>
      </trkpt>
      <trkpt lat="49.91749" lon="1.92359">
        <ele>70</ele>
        <time>2022-05-25T12:55:10Z</time>
      </trkpt>
      <trkpt lat="49.9175" lon="1.92357">
        <ele>70</ele>
        <time>2022-05-25T12:55:11Z</time>
      </trkpt>
      <trkpt lat="49.91751" lon="1.92355">
        <ele>70</ele>
        <time>2022-05-25T12:55:12Z</time>
      </trkpt>
      <trkpt lat="49.91752" lon="1.92354">
        <ele>70.1</ele>
        <time>2022-05-25T12:55:13Z</time>
      </trkpt>
      <trkpt lat="49.91753" lon="1.92353">
        <ele>70.1</ele>
        <time>2022-05-25T12:55:14Z</time>
      </trkpt>
      <trkpt lat="49.91755" lon="1.92351">
        <ele>70.1</ele>
        <time>2022-05-25T12:55:16Z</time>
      </trkpt>
      <trkpt lat="49.91756" lon="1.9235">
        <ele>70.2</ele>
        <time>2022-05-25T12:55:17Z</time>
      </trkpt>
      <trkpt lat="49.91757" lon="1.92348">
        <ele>70.2</ele>
        <time>2022-05-25T12:55:19Z</time>
      </trkpt>
      <trkpt lat="49.91757" lon="1.92347">
        <ele>70.2</ele>
        <time>2022-05-25T12:55:20Z</time>
      </trkpt>
      <trkpt lat="49.91759" lon="1.92344">
        <ele>70.2</ele>
        <time>2022-05-25T12:55:21Z</time>
      </trkpt>
      <trkpt lat="49.9176" lon="1.92343">
        <ele>70.3</ele>
        <time>2022-05-25T12:55:23Z</time>
      </trkpt>
      <trkpt lat="49.91761" lon="1.92342">
        <ele>70.3</ele>
        <time>2022-05-25T12:55:24Z</time>
      </trkpt>
      <trkpt lat="49.91762" lon="1.9234">
        <ele>70.3</ele>
        <time>2022-05-25T12:55:25Z</time>
      </trkpt>
      <trkpt lat="49.91763" lon="1.92338">
        <ele>70.3</ele>
        <time>2022-05-25T12:55:26Z</time>
      </trkpt>
      <trkpt lat="49.91764" lon="1.92338">
        <ele>70.3</ele>
        <time>2022-05-25T12:55:27Z</time>
      </trkpt>
      <trkpt lat="49.91765" lon="1.92337">
        <ele>70.3</ele>
        <time>2022-05-25T12:55:28Z</time>
      </trkpt>
      <trkpt lat="49.91766" lon="1.92336">
        <ele>70.4</ele>
        <time>2022-05-25T12:55:30Z</time>
      </trkpt>
      <trkpt lat="49.91767" lon="1.92334">
        <ele>70.4</ele>
        <time>2022-05-25T12:55:31Z</time>
      </trkpt>
      <trkpt lat="49.91769" lon="1.92333">
        <ele>70.4</ele>
        <time>2022-05-25T12:55:32Z</time>
      </trkpt>
      <trkpt lat="49.91769" lon="1.92332">
        <ele>70.4</ele>
        <time>2022-05-25T12:55:33Z</time>
      </trkpt>
      <trkpt lat="49.91771" lon="1.92331">
        <ele>70.4</ele>
        <time>2022-05-25T12:55:34Z</time>
      </trkpt>
      <trkpt lat="49.91771" lon="1.9233">
        <ele>70.4</ele>
        <time>2022-05-25T12:55:35Z</time>
      </trkpt>
      <trkpt lat="49.91773" lon="1.92328">
        <ele>70.4</ele>
        <time>2022-05-25T12:55:36Z</time>
      </trkpt>
      <trkpt lat="49.91774" lon="1.92327">
        <ele>70.4</ele>
        <time>2022-05-25T12:55:38Z</time>
      </trkpt>
      <trkpt lat="49.91774" lon="1.92326">
        <ele>70.4</ele>
        <time>2022-05-25T12:55:39Z</time>
      </trkpt>
      <trkpt lat="49.91776" lon="1.92325">
        <ele>70.4</ele>
        <time>2022-05-25T12:55:40Z</time>
      </trkpt>
      <trkpt lat="49.91777" lon="1.92323">
        <ele>70.3</ele>
        <time>2022-05-25T12:55:41Z</time>
      </trkpt>
      <trkpt lat="49.91779" lon="1.92322">
        <ele>70.3</ele>
        <time>2022-05-25T12:55:42Z</time>
      </trkpt>
      <trkpt lat="49.9178" lon="1.92321">
        <ele>70.3</ele>
        <time>2022-05-25T12:55:43Z</time>
      </trkpt>
      <trkpt lat="49.9178" lon="1.9232">
        <ele>70.3</ele>
        <time>2022-05-25T12:55:45Z</time>
      </trkpt>
      <trkpt lat="49.91781" lon="1.92319">
        <ele>70.3</ele>
        <time>2022-05-25T12:55:46Z</time>
      </trkpt>
      <trkpt lat="49.91782" lon="1.92318">
        <ele>70.3</ele>
        <time>2022-05-25T12:55:47Z</time>
      </trkpt>
      <trkpt lat="49.91783" lon="1.92317">
        <ele>70.3</ele>
        <time>2022-05-25T12:55:48Z</time>
      </trkpt>
      <trkpt lat="49.91784" lon="1.92316">
        <ele>70.3</ele>
        <time>2022-05-25T12:55:49Z</time>
      </trkpt>
      <trkpt lat="49.91784" lon="1.92315">
        <ele>70.3</ele>
        <time>2022-05-25T12:55:50Z</time>
      </trkpt>
      <trkpt lat="49.91785" lon="1.92314">
        <ele>70.3</ele>
        <time>2022-05-25T12:55:51Z</time>
      </trkpt>
      <trkpt lat="49.91786" lon="1.92313">
        <ele>70.2</ele>
        <time>2022-05-25T12:55:53Z</time>
      </trkpt>
      <trkpt lat="49.91787" lon="1.92312">
        <ele>70.2</ele>
        <time>2022-05-25T12:55:54Z</time>
      </trkpt>
      <trkpt lat="49.91788" lon="1.9231">
        <ele>70.2</ele>
        <time>2022-05-25T12:55:55Z</time>
      </trkpt>
      <trkpt lat="49.9179" lon="1.92309">
        <ele>70.2</ele>
        <time>2022-05-25T12:55:56Z</time>
      </trkpt>
      <trkpt lat="49.91791" lon="1.92308">
        <ele>70.2</ele>
        <time>2022-05-25T12:55:57Z</time>
      </trkpt>
      <trkpt lat="49.91792" lon="1.92307">
        <ele>70.3</ele>
        <time>2022-05-25T12:55:58Z</time>
      </trkpt>
      <trkpt lat="49.91793" lon="1.92306">
        <ele>70.3</ele>
        <time>2022-05-25T12:55:59Z</time>
      </trkpt>
      <trkpt lat="49.91795" lon="1.92304">
        <ele>70.3</ele>
        <time>2022-05-25T12:56:00Z</time>
      </trkpt>
      <trkpt lat="49.91795" lon="1.92304">
        <ele>70.3</ele>
        <time>2022-05-25T12:56:02Z</time>
      </trkpt>
      <trkpt lat="49.91796" lon="1.92303">
        <ele>70.3</ele>
        <time>2022-05-25T12:56:03Z</time>
      </trkpt>
      <trkpt lat="49.91798" lon="1.92301">
        <ele>70.3</ele>
        <time>2022-05-25T12:56:04Z</time>
      </trkpt>
      <trkpt lat="49.91799" lon="1.923">
        <ele>70.4</ele>
        <time>2022-05-25T12:56:06Z</time>
      </trkpt>
      <trkpt lat="49.91799" lon="1.92299">
        <ele>70.4</ele>
        <time>2022-05-25T12:56:07Z</time>
      </trkpt>
      <trkpt lat="49.918" lon="1.92298">
        <ele>70.4</ele>
        <time>2022-05-25T12:56:08Z</time>
      </trkpt>
      <trkpt lat="49.91802" lon="1.92296">
        <ele>70.4</ele>
        <time>2022-05-25T12:56:09Z</time>
      </trkpt>
      <trkpt lat="49.91803" lon="1.92294">
        <ele>70.5</ele>
        <time>2022-05-25T12:56:11Z</time>
      </trkpt>
      <trkpt lat="49.91804" lon="1.92293">
        <ele>70.5</ele>
        <time>2022-05-25T12:56:12Z</time>
      </trkpt>
      <trkpt lat="49.91805" lon="1.92292">
        <ele>70.5</ele>
        <time>2022-05-25T12:56:13Z</time>
      </trkpt>
      <trkpt lat="49.91806" lon="1.92291">
        <ele>70.5</ele>
        <time>2022-05-25T12:56:14Z</time>
      </trkpt>
      <trkpt lat="49.91808" lon="1.92289">
        <ele>70.5</ele>
        <time>2022-05-25T12:56:15Z</time>
      </trkpt>
      <trkpt lat="49.91808" lon="1.92288">
        <ele>70.6</ele>
        <time>2022-05-25T12:56:16Z</time>
      </trkpt>
      <trkpt lat="49.91809" lon="1.92288">
        <ele>70.6</ele>
        <time>2022-05-25T12:56:17Z</time>
      </trkpt>
      <trkpt lat="49.91811" lon="1.92285">
        <ele>70.6</ele>
        <time>2022-05-25T12:56:18Z</time>
      </trkpt>
      <trkpt lat="49.91812" lon="1.92284">
        <ele>70.6</ele>
        <time>2022-05-25T12:56:20Z</time>
      </trkpt>
      <trkpt lat="49.91812" lon="1.92283">
        <ele>70.6</ele>
        <time>2022-05-25T12:56:21Z</time>
      </trkpt>
      <trkpt lat="49.91813" lon="1.92281">
        <ele>70.6</ele>
        <time>2022-05-25T12:56:22Z</time>
      </trkpt>
      <trkpt lat="49.91814" lon="1.9228">
        <ele>70.6</ele>
        <time>2022-05-25T12:56:23Z</time>
      </trkpt>
      <trkpt lat="49.91815" lon="1.92279">
        <ele>70.7</ele>
        <time>2022-05-25T12:56:25Z</time>
      </trkpt>
      <trkpt lat="49.91816" lon="1.92278">
        <ele>70.7</ele>
        <time>2022-05-25T12:56:26Z</time>
      </trkpt>
      <trkpt lat="49.91817" lon="1.92277">
        <ele>70.7</ele>
        <time>2022-05-25T12:56:27Z</time>
      </trkpt>
      <trkpt lat="49.91818" lon="1.92276">
        <ele>70.7</ele>
        <time>2022-05-25T12:56:28Z</time>
      </trkpt>
      <trkpt lat="49.91819" lon="1.92274">
        <ele>70.7</ele>
        <time>2022-05-25T12:56:29Z</time>
      </trkpt>
      <trkpt lat="49.9182" lon="1.92273">
        <ele>70.7</ele>
        <time>2022-05-25T12:56:30Z</time>
      </trkpt>
      <trkpt lat="49.91821" lon="1.92272">
        <ele>70.8</ele>
        <time>2022-05-25T12:56:31Z</time>
      </trkpt>
      <trkpt lat="49.91822" lon="1.9227">
        <ele>70.8</ele>
        <time>2022-05-25T12:56:33Z</time>
      </trkpt>
      <trkpt lat="49.91823" lon="1.92269">
        <ele>70.8</ele>
        <time>2022-05-25T12:56:34Z</time>
      </trkpt>
      <trkpt lat="49.91824" lon="1.92267">
        <ele>70.8</ele>
        <time>2022-05-25T12:56:35Z</time>
      </trkpt>
      <trkpt lat="49.91825" lon="1.92266">
        <ele>70.9</ele>
        <time>2022-05-25T12:56:36Z</time>
      </trkpt>
      <trkpt lat="49.91826" lon="1.92264">
        <ele>70.9</ele>
        <time>2022-05-25T12:56:37Z</time>
      </trkpt>
      <trkpt lat="49.91826" lon="1.92263">
        <ele>70.9</ele>
        <time>2022-05-25T12:56:38Z</time>
      </trkpt>
      <trkpt lat="49.91827" lon="1.92261">
        <ele>70.9</ele>
        <time>2022-05-25T12:56:39Z</time>
      </trkpt>
      <trkpt lat="49.91828" lon="1.9226">
        <ele>71</ele>
        <time>2022-05-25T12:56:41Z</time>
      </trkpt>
      <trkpt lat="49.91829" lon="1.92259">
        <ele>71</ele>
        <time>2022-05-25T12:56:42Z</time>
      </trkpt>
      <trkpt lat="49.9183" lon="1.92258">
        <ele>71</ele>
        <time>2022-05-25T12:56:43Z</time>
      </trkpt>
      <trkpt lat="49.91831" lon="1.92256">
        <ele>71</ele>
        <time>2022-05-25T12:56:44Z</time>
      </trkpt>
      <trkpt lat="49.91833" lon="1.92254">
        <ele>71.1</ele>
        <time>2022-05-25T12:56:45Z</time>
      </trkpt>
      <trkpt lat="49.91834" lon="1.92254">
        <ele>71.1</ele>
        <time>2022-05-25T12:56:46Z</time>
      </trkpt>
      <trkpt lat="49.91835" lon="1.92253">
        <ele>71.1</ele>
        <time>2022-05-25T12:56:47Z</time>
      </trkpt>
      <trkpt lat="49.91836" lon="1.92252">
        <ele>71.1</ele>
        <time>2022-05-25T12:56:49Z</time>
      </trkpt>
      <trkpt lat="49.91837" lon="1.92251">
        <ele>71.2</ele>
        <time>2022-05-25T12:56:50Z</time>
      </trkpt>
      <trkpt lat="49.91839" lon="1.92249">
        <ele>71.2</ele>
        <time>2022-05-25T12:56:51Z</time>
      </trkpt>
      <trkpt lat="49.9184" lon="1.92248">
        <ele>71.2</ele>
        <time>2022-05-25T12:56:52Z</time>
      </trkpt>
      <trkpt lat="49.9184" lon="1.92247">
        <ele>71.2</ele>
        <time>2022-05-25T12:56:53Z</time>
      </trkpt>
      <trkpt lat="49.91842" lon="1.92246">
        <ele>71.3</ele>
        <time>2022-05-25T12:56:54Z</time>
      </trkpt>
      <trkpt lat="49.91843" lon="1.92245">
        <ele>71.3</ele>
        <time>2022-05-25T12:56:55Z</time>
      </trkpt>
      <trkpt lat="49.91845" lon="1.92244">
        <ele>71.3</ele>
        <time>2022-05-25T12:56:57Z</time>
      </trkpt>
      <trkpt lat="49.91845" lon="1.92243">
        <ele>71.3</ele>
        <time>2022-05-25T12:56:58Z</time>
      </trkpt>
      <trkpt lat="49.91846" lon="1.92243">
        <ele>71.4</ele>
        <time>2022-05-25T12:56:59Z</time>
      </trkpt>
      <trkpt lat="49.91847" lon="1.92242">
        <ele>71.4</ele>
        <time>2022-05-25T12:57:00Z</time>
      </trkpt>
      <trkpt lat="49.91848" lon="1.92241">
        <ele>71.4</ele>
        <time>2022-05-25T12:57:01Z</time>
      </trkpt>
      <trkpt lat="49.91849" lon="1.92241">
        <ele>71.4</ele>
        <time>2022-05-25T12:57:02Z</time>
      </trkpt>
      <trkpt lat="49.91849" lon="1.9224">
        <ele>71.4</ele>
        <time>2022-05-25T12:57:03Z</time>
      </trkpt>
      <trkpt lat="49.91851" lon="1.92238">
        <ele>71.5</ele>
        <time>2022-05-25T12:57:05Z</time>
      </trkpt>
      <trkpt lat="49.91852" lon="1.92237">
        <ele>71.5</ele>
        <time>2022-05-25T12:57:06Z</time>
      </trkpt>
      <trkpt lat="49.91852" lon="1.92237">
        <ele>71.5</ele>
        <time>2022-05-25T12:57:07Z</time>
      </trkpt>
      <trkpt lat="49.91854" lon="1.92235">
        <ele>71.5</ele>
        <time>2022-05-25T12:57:08Z</time>
      </trkpt>
      <trkpt lat="49.91855" lon="1.92234">
        <ele>71.6</ele>
        <time>2022-05-25T12:57:09Z</time>
      </trkpt>
      <trkpt lat="49.91856" lon="1.92234">
        <ele>71.6</ele>
        <time>2022-05-25T12:57:10Z</time>
      </trkpt>
      <trkpt lat="49.91857" lon="1.92232">
        <ele>71.6</ele>
        <time>2022-05-25T12:57:11Z</time>
      </trkpt>
      <trkpt lat="49.91858" lon="1.92232">
        <ele>71.6</ele>
        <time>2022-05-25T12:57:13Z</time>
      </trkpt>
      <trkpt lat="49.91859" lon="1.92231">
        <ele>71.6</ele>
        <time>2022-05-25T12:57:14Z</time>
      </trkpt>
      <trkpt lat="49.9186" lon="1.9223">
        <ele>71.7</ele>
        <time>2022-05-25T12:57:15Z</time>
      </trkpt>
      <trkpt lat="49.91861" lon="1.92229">
        <ele>71.7</ele>
        <time>2022-05-25T12:57:16Z</time>
      </trkpt>
      <trkpt lat="49.91863" lon="1.92228">
        <ele>71.8</ele>
        <time>2022-05-25T12:57:17Z</time>
      </trkpt>
      <trkpt lat="49.91864" lon="1.92227">
        <ele>71.8</ele>
        <time>2022-05-25T12:57:18Z</time>
      </trkpt>
      <trkpt lat="49.91864" lon="1.92227">
        <ele>71.8</ele>
        <time>2022-05-25T12:57:19Z</time>
      </trkpt>
      <trkpt lat="49.91865" lon="1.92226">
        <ele>71.9</ele>
        <time>2022-05-25T12:57:21Z</time>
      </trkpt>
      <trkpt lat="49.91867" lon="1.92225">
        <ele>71.9</ele>
        <time>2022-05-25T12:57:22Z</time>
      </trkpt>
      <trkpt lat="49.91868" lon="1.92224">
        <ele>72</ele>
        <time>2022-05-25T12:57:23Z</time>
      </trkpt>
      <trkpt lat="49.91869" lon="1.92223">
        <ele>72</ele>
        <time>2022-05-25T12:57:24Z</time>
      </trkpt>
      <trkpt lat="49.9187" lon="1.92222">
        <ele>72</ele>
        <time>2022-05-25T12:57:25Z</time>
      </trkpt>
      <trkpt lat="49.91871" lon="1.92222">
        <ele>72.1</ele>
        <time>2022-05-25T12:57:26Z</time>
      </trkpt>
      <trkpt lat="49.91873" lon="1.92221">
        <ele>72.2</ele>
        <time>2022-05-25T12:57:28Z</time>
      </trkpt>
      <trkpt lat="49.91873" lon="1.92221">
        <ele>72.2</ele>
        <time>2022-05-25T12:57:29Z</time>
      </trkpt>
      <trkpt lat="49.91874" lon="1.9222">
        <ele>72.2</ele>
        <time>2022-05-25T12:57:30Z</time>
      </trkpt>
      <trkpt lat="49.91875" lon="1.92219">
        <ele>72.3</ele>
        <time>2022-05-25T12:57:31Z</time>
      </trkpt>
      <trkpt lat="49.91876" lon="1.92219">
        <ele>72.3</ele>
        <time>2022-05-25T12:57:32Z</time>
      </trkpt>
      <trkpt lat="49.91878" lon="1.92218">
        <ele>72.4</ele>
        <time>2022-05-25T12:57:33Z</time>
      </trkpt>
      <trkpt lat="49.91879" lon="1.92218">
        <ele>72.4</ele>
        <time>2022-05-25T12:57:35Z</time>
      </trkpt>
      <trkpt lat="49.91879" lon="1.92218">
        <ele>72.4</ele>
        <time>2022-05-25T12:57:36Z</time>
      </trkpt>
      <trkpt lat="49.91881" lon="1.92218">
        <ele>72.5</ele>
        <time>2022-05-25T12:57:37Z</time>
      </trkpt>
      <trkpt lat="49.91883" lon="1.92218">
        <ele>72.5</ele>
        <time>2022-05-25T12:57:38Z</time>
      </trkpt>
      <trkpt lat="49.91884" lon="1.92217">
        <ele>72.6</ele>
        <time>2022-05-25T12:57:39Z</time>
      </trkpt>
      <trkpt lat="49.91886" lon="1.92216">
        <ele>72.6</ele>
        <time>2022-05-25T12:57:40Z</time>
      </trkpt>
      <trkpt lat="49.91887" lon="1.92216">
        <ele>72.6</ele>
        <time>2022-05-25T12:57:42Z</time>
      </trkpt>
      <trkpt lat="49.91888" lon="1.92215">
        <ele>72.7</ele>
        <time>2022-05-25T12:57:43Z</time>
      </trkpt>
      <trkpt lat="49.9189" lon="1.92215">
        <ele>72.7</ele>
        <time>2022-05-25T12:57:44Z</time>
      </trkpt>
      <trkpt lat="49.91891" lon="1.92214">
        <ele>72.7</ele>
        <time>2022-05-25T12:57:45Z</time>
      </trkpt>
      <trkpt lat="49.91892" lon="1.92214">
        <ele>72.7</ele>
        <time>2022-05-25T12:57:46Z</time>
      </trkpt>
      <trkpt lat="49.91893" lon="1.92214">
        <ele>72.7</ele>
        <time>2022-05-25T12:57:47Z</time>
      </trkpt>
      <trkpt lat="49.91894" lon="1.92214">
        <ele>72.7</ele>
        <time>2022-05-25T12:57:49Z</time>
      </trkpt>
      <trkpt lat="49.91895" lon="1.92214">
        <ele>72.7</ele>
        <time>2022-05-25T12:57:50Z</time>
      </trkpt>
      <trkpt lat="49.91896" lon="1.92214">
        <ele>72.7</ele>
        <time>2022-05-25T12:57:51Z</time>
      </trkpt>
      <trkpt lat="49.91898" lon="1.92213">
        <ele>72.7</ele>
        <time>2022-05-25T12:57:52Z</time>
      </trkpt>
      <trkpt lat="49.91899" lon="1.92213">
        <ele>72.7</ele>
        <time>2022-05-25T12:57:53Z</time>
      </trkpt>
      <trkpt lat="49.919" lon="1.92213">
        <ele>72.7</ele>
        <time>2022-05-25T12:57:54Z</time>
      </trkpt>
      <trkpt lat="49.91901" lon="1.92213">
        <ele>72.7</ele>
        <time>2022-05-25T12:57:56Z</time>
      </trkpt>
      <trkpt lat="49.91903" lon="1.92212">
        <ele>72.7</ele>
        <time>2022-05-25T12:57:57Z</time>
      </trkpt>
      <trkpt lat="49.91904" lon="1.92212">
        <ele>72.7</ele>
        <time>2022-05-25T12:57:58Z</time>
      </trkpt>
      <trkpt lat="49.91905" lon="1.92212">
        <ele>72.7</ele>
        <time>2022-05-25T12:57:59Z</time>
      </trkpt>
      <trkpt lat="49.91906" lon="1.92211">
        <ele>72.7</ele>
        <time>2022-05-25T12:58:00Z</time>
      </trkpt>
      <trkpt lat="49.91907" lon="1.92211">
        <ele>72.7</ele>
        <time>2022-05-25T12:58:01Z</time>
      </trkpt>
      <trkpt lat="49.91909" lon="1.9221">
        <ele>72.7</ele>
        <time>2022-05-25T12:58:02Z</time>
      </trkpt>
      <trkpt lat="49.9191" lon="1.92209">
        <ele>72.7</ele>
        <time>2022-05-25T12:58:04Z</time>
      </trkpt>
      <trkpt lat="49.91911" lon="1.92208">
        <ele>72.8</ele>
        <time>2022-05-25T12:58:05Z</time>
      </trkpt>
      <trkpt lat="49.91912" lon="1.92208">
        <ele>72.8</ele>
        <time>2022-05-25T12:58:06Z</time>
      </trkpt>
      <trkpt lat="49.91913" lon="1.92207">
        <ele>72.8</ele>
        <time>2022-05-25T12:58:07Z</time>
      </trkpt>
      <trkpt lat="49.91915" lon="1.92206">
        <ele>72.8</ele>
        <time>2022-05-25T12:58:08Z</time>
      </trkpt>
      <trkpt lat="49.91917" lon="1.92205">
        <ele>72.9</ele>
        <time>2022-05-25T12:58:09Z</time>
      </trkpt>
      <trkpt lat="49.91918" lon="1.92203">
        <ele>72.9</ele>
        <time>2022-05-25T12:58:10Z</time>
      </trkpt>
      <trkpt lat="49.9192" lon="1.92202">
        <ele>73</ele>
        <time>2022-05-25T12:58:12Z</time>
      </trkpt>
      <trkpt lat="49.91923" lon="1.922">
        <ele>73.1</ele>
        <time>2022-05-25T12:58:13Z</time>
      </trkpt>
      <trkpt lat="49.91924" lon="1.92199">
        <ele>73.2</ele>
        <time>2022-05-25T12:58:14Z</time>
      </trkpt>
      <trkpt lat="49.91926" lon="1.92199">
        <ele>73.2</ele>
        <time>2022-05-25T12:58:15Z</time>
      </trkpt>
      <trkpt lat="49.91926" lon="1.92198">
        <ele>73.3</ele>
        <time>2022-05-25T12:58:16Z</time>
      </trkpt>
      <trkpt lat="49.91927" lon="1.92198">
        <ele>73.3</ele>
        <time>2022-05-25T12:58:18Z</time>
      </trkpt>
      <trkpt lat="49.91928" lon="1.92198">
        <ele>73.3</ele>
        <time>2022-05-25T12:58:19Z</time>
      </trkpt>
      <trkpt lat="49.91929" lon="1.92198">
        <ele>73.4</ele>
        <time>2022-05-25T12:58:20Z</time>
      </trkpt>
      <trkpt lat="49.9193" lon="1.92198">
        <ele>73.5</ele>
        <time>2022-05-25T12:58:21Z</time>
      </trkpt>
      <trkpt lat="49.91932" lon="1.92198">
        <ele>73.5</ele>
        <time>2022-05-25T12:58:22Z</time>
      </trkpt>
      <trkpt lat="49.91933" lon="1.92198">
        <ele>73.6</ele>
        <time>2022-05-25T12:58:23Z</time>
      </trkpt>
      <trkpt lat="49.91934" lon="1.92198">
        <ele>73.7</ele>
        <time>2022-05-25T12:58:24Z</time>
      </trkpt>
      <trkpt lat="49.91935" lon="1.92198">
        <ele>73.7</ele>
        <time>2022-05-25T12:58:26Z</time>
      </trkpt>
      <trkpt lat="49.91936" lon="1.92197">
        <ele>73.8</ele>
        <time>2022-05-25T12:58:27Z</time>
      </trkpt>
      <trkpt lat="49.91937" lon="1.92197">
        <ele>73.8</ele>
        <time>2022-05-25T12:58:28Z</time>
      </trkpt>
      <trkpt lat="49.91938" lon="1.92197">
        <ele>73.9</ele>
        <time>2022-05-25T12:58:29Z</time>
      </trkpt>
      <trkpt lat="49.91939" lon="1.92197">
        <ele>73.9</ele>
        <time>2022-05-25T12:58:30Z</time>
      </trkpt>
      <trkpt lat="49.9194" lon="1.92197">
        <ele>74</ele>
        <time>2022-05-25T12:58:32Z</time>
      </trkpt>
      <trkpt lat="49.91941" lon="1.92197">
        <ele>74</ele>
        <time>2022-05-25T12:58:33Z</time>
      </trkpt>
      <trkpt lat="49.91942" lon="1.92196">
        <ele>74.1</ele>
        <time>2022-05-25T12:58:34Z</time>
      </trkpt>
      <trkpt lat="49.91943" lon="1.92196">
        <ele>74.1</ele>
        <time>2022-05-25T12:58:35Z</time>
      </trkpt>
      <trkpt lat="49.91944" lon="1.92196">
        <ele>74.2</ele>
        <time>2022-05-25T12:58:36Z</time>
      </trkpt>
      <trkpt lat="49.91945" lon="1.92195">
        <ele>74.2</ele>
        <time>2022-05-25T12:58:37Z</time>
      </trkpt>
      <trkpt lat="49.91946" lon="1.92195">
        <ele>74.3</ele>
        <time>2022-05-25T12:58:38Z</time>
      </trkpt>
      <trkpt lat="49.91947" lon="1.92194">
        <ele>74.3</ele>
        <time>2022-05-25T12:58:40Z</time>
      </trkpt>
      <trkpt lat="49.91947" lon="1.92193">
        <ele>74.3</ele>
        <time>2022-05-25T12:58:41Z</time>
      </trkpt>
      <trkpt lat="49.91949" lon="1.92193">
        <ele>74.4</ele>
        <time>2022-05-25T12:58:42Z</time>
      </trkpt>
      <trkpt lat="49.9195" lon="1.92192">
        <ele>74.4</ele>
        <time>2022-05-25T12:58:43Z</time>
      </trkpt>
      <trkpt lat="49.91951" lon="1.92191">
        <ele>74.4</ele>
        <time>2022-05-25T12:58:44Z</time>
      </trkpt>
      <trkpt lat="49.91952" lon="1.92191">
        <ele>74.5</ele>
        <time>2022-05-25T12:58:45Z</time>
      </trkpt>
      <trkpt lat="49.91953" lon="1.9219">
        <ele>74.5</ele>
        <time>2022-05-25T12:58:47Z</time>
      </trkpt>
      <trkpt lat="49.91955" lon="1.9219">
        <ele>74.6</ele>
        <time>2022-05-25T12:58:48Z</time>
      </trkpt>
      <trkpt lat="49.91956" lon="1.92189">
        <ele>74.6</ele>
        <time>2022-05-25T12:58:49Z</time>
      </trkpt>
      <trkpt lat="49.91956" lon="1.92189">
        <ele>74.6</ele>
        <time>2022-05-25T12:58:50Z</time>
      </trkpt>
      <trkpt lat="49.91957" lon="1.92188">
        <ele>74.7</ele>
        <time>2022-05-25T12:58:51Z</time>
      </trkpt>
      <trkpt lat="49.91958" lon="1.92188">
        <ele>74.7</ele>
        <time>2022-05-25T12:58:52Z</time>
      </trkpt>
      <trkpt lat="49.91959" lon="1.92188">
        <ele>74.7</ele>
        <time>2022-05-25T12:58:54Z</time>
      </trkpt>
      <trkpt lat="49.9196" lon="1.92187">
        <ele>74.8</ele>
        <time>2022-05-25T12:58:55Z</time>
      </trkpt>
      <trkpt lat="49.91962" lon="1.92187">
        <ele>74.9</ele>
        <time>2022-05-25T12:58:56Z</time>
      </trkpt>
      <trkpt lat="49.91963" lon="1.92186">
        <ele>74.9</ele>
        <time>2022-05-25T12:58:57Z</time>
      </trkpt>
      <trkpt lat="49.91965" lon="1.92185">
        <ele>75</ele>
        <time>2022-05-25T12:58:58Z</time>
      </trkpt>
      <trkpt lat="49.91966" lon="1.92184">
        <ele>75</ele>
        <time>2022-05-25T12:58:59Z</time>
      </trkpt>
      <trkpt lat="49.91967" lon="1.92183">
        <ele>75.1</ele>
        <time>2022-05-25T12:59:01Z</time>
      </trkpt>
      <trkpt lat="49.91968" lon="1.92183">
        <ele>75.1</ele>
        <time>2022-05-25T12:59:02Z</time>
      </trkpt>
      <trkpt lat="49.9197" lon="1.92182">
        <ele>75.2</ele>
        <time>2022-05-25T12:59:03Z</time>
      </trkpt>
      <trkpt lat="49.91971" lon="1.92182">
        <ele>75.2</ele>
        <time>2022-05-25T12:59:04Z</time>
      </trkpt>
      <trkpt lat="49.91973" lon="1.92182">
        <ele>75.3</ele>
        <time>2022-05-25T12:59:05Z</time>
      </trkpt>
      <trkpt lat="49.91974" lon="1.92181">
        <ele>75.3</ele>
        <time>2022-05-25T12:59:06Z</time>
      </trkpt>
      <trkpt lat="49.91975" lon="1.92181">
        <ele>75.4</ele>
        <time>2022-05-25T12:59:07Z</time>
      </trkpt>
      <trkpt lat="49.91977" lon="1.9218">
        <ele>75.4</ele>
        <time>2022-05-25T12:59:09Z</time>
      </trkpt>
      <trkpt lat="49.91978" lon="1.9218">
        <ele>75.4</ele>
        <time>2022-05-25T12:59:10Z</time>
      </trkpt>
      <trkpt lat="49.91978" lon="1.9218">
        <ele>75.5</ele>
        <time>2022-05-25T12:59:11Z</time>
      </trkpt>
      <trkpt lat="49.9198" lon="1.9218">
        <ele>75.5</ele>
        <time>2022-05-25T12:59:12Z</time>
      </trkpt>
      <trkpt lat="49.91981" lon="1.92179">
        <ele>75.5</ele>
        <time>2022-05-25T12:59:13Z</time>
      </trkpt>
      <trkpt lat="49.91982" lon="1.92179">
        <ele>75.6</ele>
        <time>2022-05-25T12:59:15Z</time>
      </trkpt>
      <trkpt lat="49.91984" lon="1.92179">
        <ele>75.6</ele>
        <time>2022-05-25T12:59:16Z</time>
      </trkpt>
      <trkpt lat="49.91985" lon="1.92178">
        <ele>75.6</ele>
        <time>2022-05-25T12:59:17Z</time>
      </trkpt>
      <trkpt lat="49.91987" lon="1.92178">
        <ele>75.7</ele>
        <time>2022-05-25T12:59:18Z</time>
      </trkpt>
      <trkpt lat="49.91988" lon="1.92178">
        <ele>75.7</ele>
        <time>2022-05-25T12:59:19Z</time>
      </trkpt>
      <trkpt lat="49.91989" lon="1.92178">
        <ele>75.7</ele>
        <time>2022-05-25T12:59:20Z</time>
      </trkpt>
      <trkpt lat="49.91991" lon="1.92178">
        <ele>75.7</ele>
        <time>2022-05-25T12:59:21Z</time>
      </trkpt>
      <trkpt lat="49.91992" lon="1.92178">
        <ele>75.7</ele>
        <time>2022-05-25T12:59:23Z</time>
      </trkpt>
      <trkpt lat="49.91993" lon="1.92177">
        <ele>75.8</ele>
        <time>2022-05-25T12:59:24Z</time>
      </trkpt>
      <trkpt lat="49.91995" lon="1.92177">
        <ele>75.8</ele>
        <time>2022-05-25T12:59:25Z</time>
      </trkpt>
      <trkpt lat="49.91995" lon="1.92177">
        <ele>75.8</ele>
        <time>2022-05-25T12:59:26Z</time>
      </trkpt>
      <trkpt lat="49.91996" lon="1.92177">
        <ele>75.8</ele>
        <time>2022-05-25T12:59:27Z</time>
      </trkpt>
      <trkpt lat="49.91998" lon="1.92177">
        <ele>75.9</ele>
        <time>2022-05-25T12:59:28Z</time>
      </trkpt>
      <trkpt lat="49.91999" lon="1.92177">
        <ele>75.9</ele>
        <time>2022-05-25T12:59:29Z</time>
      </trkpt>
      <trkpt lat="49.92" lon="1.92177">
        <ele>75.9</ele>
        <time>2022-05-25T12:59:31Z</time>
      </trkpt>
      <trkpt lat="49.92001" lon="1.92177">
        <ele>75.9</ele>
        <time>2022-05-25T12:59:32Z</time>
      </trkpt>
      <trkpt lat="49.92002" lon="1.92177">
        <ele>75.9</ele>
        <time>2022-05-25T12:59:33Z</time>
      </trkpt>
      <trkpt lat="49.92003" lon="1.92177">
        <ele>76</ele>
        <time>2022-05-25T12:59:34Z</time>
      </trkpt>
      <trkpt lat="49.92005" lon="1.92177">
        <ele>76</ele>
        <time>2022-05-25T12:59:35Z</time>
      </trkpt>
      <trkpt lat="49.92006" lon="1.92177">
        <ele>76</ele>
        <time>2022-05-25T12:59:36Z</time>
      </trkpt>
      <trkpt lat="49.92007" lon="1.92177">
        <ele>76</ele>
        <time>2022-05-25T12:59:38Z</time>
      </trkpt>
      <trkpt lat="49.92009" lon="1.92176">
        <ele>76</ele>
        <time>2022-05-25T12:59:39Z</time>
      </trkpt>
      <trkpt lat="49.9201" lon="1.92176">
        <ele>76.1</ele>
        <time>2022-05-25T12:59:40Z</time>
      </trkpt>
      <trkpt lat="49.92011" lon="1.92176">
        <ele>76.1</ele>
        <time>2022-05-25T12:59:41Z</time>
      </trkpt>
      <trkpt lat="49.92012" lon="1.92176">
        <ele>76.1</ele>
        <time>2022-05-25T12:59:42Z</time>
      </trkpt>
      <trkpt lat="49.92013" lon="1.92176">
        <ele>76.1</ele>
        <time>2022-05-25T12:59:43Z</time>
      </trkpt>
      <trkpt lat="49.92015" lon="1.92176">
        <ele>76.1</ele>
        <time>2022-05-25T12:59:44Z</time>
      </trkpt>
      <trkpt lat="49.92016" lon="1.92176">
        <ele>76.1</ele>
        <time>2022-05-25T12:59:46Z</time>
      </trkpt>
      <trkpt lat="49.92017" lon="1.92176">
        <ele>76.1</ele>
        <time>2022-05-25T12:59:47Z</time>
      </trkpt>
      <trkpt lat="49.92019" lon="1.92175">
        <ele>76.1</ele>
        <time>2022-05-25T12:59:48Z</time>
      </trkpt>
      <trkpt lat="49.9202" lon="1.92175">
        <ele>76.1</ele>
        <time>2022-05-25T12:59:49Z</time>
      </trkpt>
      <trkpt lat="49.92023" lon="1.92174">
        <ele>76.1</ele>
        <time>2022-05-25T12:59:51Z</time>
      </trkpt>
      <trkpt lat="49.92024" lon="1.92174">
        <ele>76.1</ele>
        <time>2022-05-25T12:59:52Z</time>
      </trkpt>
      <trkpt lat="49.92026" lon="1.92173">
        <ele>76.1</ele>
        <time>2022-05-25T12:59:53Z</time>
      </trkpt>
      <trkpt lat="49.92027" lon="1.92173">
        <ele>76.1</ele>
        <time>2022-05-25T12:59:54Z</time>
      </trkpt>
      <trkpt lat="49.92028" lon="1.92172">
        <ele>76</ele>
        <time>2022-05-25T12:59:55Z</time>
      </trkpt>
      <trkpt lat="49.9203" lon="1.92172">
        <ele>76</ele>
        <time>2022-05-25T12:59:56Z</time>
      </trkpt>
      <trkpt lat="49.92031" lon="1.92172">
        <ele>76</ele>
        <time>2022-05-25T12:59:57Z</time>
      </trkpt>
      <trkpt lat="49.92033" lon="1.92172">
        <ele>76</ele>
        <time>2022-05-25T12:59:59Z</time>
      </trkpt>
      <trkpt lat="49.92034" lon="1.92172">
        <ele>76</ele>
        <time>2022-05-25T13:00:00Z</time>
      </trkpt>
      <trkpt lat="49.92036" lon="1.92171">
        <ele>76</ele>
        <time>2022-05-25T13:00:01Z</time>
      </trkpt>
      <trkpt lat="49.92037" lon="1.92171">
        <ele>76</ele>
        <time>2022-05-25T13:00:02Z</time>
      </trkpt>
      <trkpt lat="49.92039" lon="1.92171">
        <ele>76</ele>
        <time>2022-05-25T13:00:03Z</time>
      </trkpt>
      <trkpt lat="49.92041" lon="1.9217">
        <ele>76</ele>
        <time>2022-05-25T13:00:04Z</time>
      </trkpt>
      <trkpt lat="49.92042" lon="1.9217">
        <ele>76</ele>
        <time>2022-05-25T13:00:05Z</time>
      </trkpt>
      <trkpt lat="49.92042" lon="1.9217">
        <ele>76</ele>
        <time>2022-05-25T13:00:06Z</time>
      </trkpt>
      <trkpt lat="49.92043" lon="1.9217">
        <ele>76</ele>
        <time>2022-05-25T13:00:08Z</time>
      </trkpt>
      <trkpt lat="49.92044" lon="1.92169">
        <ele>76</ele>
        <time>2022-05-25T13:00:09Z</time>
      </trkpt>
      <trkpt lat="49.92046" lon="1.92169">
        <ele>76</ele>
        <time>2022-05-25T13:00:10Z</time>
      </trkpt>
      <trkpt lat="49.92047" lon="1.92168">
        <ele>76</ele>
        <time>2022-05-25T13:00:11Z</time>
      </trkpt>
      <trkpt lat="49.92048" lon="1.92168">
        <ele>76</ele>
        <time>2022-05-25T13:00:12Z</time>
      </trkpt>
      <trkpt lat="49.92049" lon="1.92168">
        <ele>76</ele>
        <time>2022-05-25T13:00:13Z</time>
      </trkpt>
      <trkpt lat="49.9205" lon="1.92167">
        <ele>76</ele>
        <time>2022-05-25T13:00:14Z</time>
      </trkpt>
      <trkpt lat="49.9205" lon="1.92167">
        <ele>76</ele>
        <time>2022-05-25T13:00:15Z</time>
      </trkpt>
      <trkpt lat="49.9205" lon="1.92166">
        <ele>76</ele>
        <time>2022-05-25T13:00:17Z</time>
      </trkpt>
      <trkpt lat="49.92052" lon="1.92166">
        <ele>75.9</ele>
        <time>2022-05-25T13:00:18Z</time>
      </trkpt>
      <trkpt lat="49.92054" lon="1.92165">
        <ele>75.9</ele>
        <time>2022-05-25T13:00:19Z</time>
      </trkpt>
      <trkpt lat="49.92055" lon="1.92165">
        <ele>75.9</ele>
        <time>2022-05-25T13:00:20Z</time>
      </trkpt>
      <trkpt lat="49.92056" lon="1.92165">
        <ele>75.9</ele>
        <time>2022-05-25T13:00:21Z</time>
      </trkpt>
      <trkpt lat="49.92057" lon="1.92164">
        <ele>75.8</ele>
        <time>2022-05-25T13:00:22Z</time>
      </trkpt>
      <trkpt lat="49.92058" lon="1.92164">
        <ele>75.8</ele>
        <time>2022-05-25T13:00:23Z</time>
      </trkpt>
      <trkpt lat="49.92059" lon="1.92164">
        <ele>75.8</ele>
        <time>2022-05-25T13:00:24Z</time>
      </trkpt>
      <trkpt lat="49.9206" lon="1.92164">
        <ele>75.8</ele>
        <time>2022-05-25T13:00:26Z</time>
      </trkpt>
      <trkpt lat="49.92061" lon="1.92163">
        <ele>75.7</ele>
        <time>2022-05-25T13:00:27Z</time>
      </trkpt>
      <trkpt lat="49.92062" lon="1.92163">
        <ele>75.7</ele>
        <time>2022-05-25T13:00:28Z</time>
      </trkpt>
      <trkpt lat="49.92063" lon="1.92163">
        <ele>75.7</ele>
        <time>2022-05-25T13:00:29Z</time>
      </trkpt>
      <trkpt lat="49.92065" lon="1.92162">
        <ele>75.6</ele>
        <time>2022-05-25T13:00:30Z</time>
      </trkpt>
      <trkpt lat="49.92066" lon="1.92162">
        <ele>75.6</ele>
        <time>2022-05-25T13:00:31Z</time>
      </trkpt>
      <trkpt lat="49.92066" lon="1.92162">
        <ele>75.6</ele>
        <time>2022-05-25T13:00:32Z</time>
      </trkpt>
      <trkpt lat="49.92068" lon="1.92161">
        <ele>75.6</ele>
        <time>2022-05-25T13:00:33Z</time>
      </trkpt>
      <trkpt lat="49.92069" lon="1.92161">
        <ele>75.5</ele>
        <time>2022-05-25T13:00:35Z</time>
      </trkpt>
      <trkpt lat="49.9207" lon="1.9216">
        <ele>75.5</ele>
        <time>2022-05-25T13:00:36Z</time>
      </trkpt>
      <trkpt lat="49.92072" lon="1.92159">
        <ele>75.5</ele>
        <time>2022-05-25T13:00:37Z</time>
      </trkpt>
      <trkpt lat="49.92073" lon="1.92159">
        <ele>75.4</ele>
        <time>2022-05-25T13:00:38Z</time>
      </trkpt>
      <trkpt lat="49.92074" lon="1.92158">
        <ele>75.4</ele>
        <time>2022-05-25T13:00:39Z</time>
      </trkpt>
      <trkpt lat="49.92075" lon="1.92158">
        <ele>75.4</ele>
        <time>2022-05-25T13:00:40Z</time>
      </trkpt>
      <trkpt lat="49.92077" lon="1.92157">
        <ele>75.3</ele>
        <time>2022-05-25T13:00:41Z</time>
      </trkpt>
      <trkpt lat="49.92078" lon="1.92156">
        <ele>75.3</ele>
        <time>2022-05-25T13:00:42Z</time>
      </trkpt>
      <trkpt lat="49.92079" lon="1.92155">
        <ele>75.3</ele>
        <time>2022-05-25T13:00:44Z</time>
      </trkpt>
      <trkpt lat="49.9208" lon="1.92154">
        <ele>75.3</ele>
        <time>2022-05-25T13:00:45Z</time>
      </trkpt>
      <trkpt lat="49.92082" lon="1.92153">
        <ele>75.2</ele>
        <time>2022-05-25T13:00:46Z</time>
      </trkpt>
      <trkpt lat="49.92082" lon="1.92152">
        <ele>75.2</ele>
        <time>2022-05-25T13:00:47Z</time>
      </trkpt>
      <trkpt lat="49.92083" lon="1.92152">
        <ele>75.2</ele>
        <time>2022-05-25T13:00:48Z</time>
      </trkpt>
      <trkpt lat="49.92085" lon="1.92151">
        <ele>75.1</ele>
        <time>2022-05-25T13:00:49Z</time>
      </trkpt>
      <trkpt lat="49.92086" lon="1.92151">
        <ele>75.1</ele>
        <time>2022-05-25T13:00:50Z</time>
      </trkpt>
      <trkpt lat="49.92088" lon="1.9215">
        <ele>75</ele>
        <time>2022-05-25T13:00:52Z</time>
      </trkpt>
      <trkpt lat="49.92089" lon="1.9215">
        <ele>75</ele>
        <time>2022-05-25T13:00:53Z</time>
      </trkpt>
      <trkpt lat="49.9209" lon="1.92149">
        <ele>74.9</ele>
        <time>2022-05-25T13:00:54Z</time>
      </trkpt>
      <trkpt lat="49.92092" lon="1.92149">
        <ele>74.8</ele>
        <time>2022-05-25T13:00:55Z</time>
      </trkpt>
      <trkpt lat="49.92093" lon="1.92148">
        <ele>74.8</ele>
        <time>2022-05-25T13:00:56Z</time>
      </trkpt>
      <trkpt lat="49.92094" lon="1.92148">
        <ele>74.8</ele>
        <time>2022-05-25T13:00:57Z</time>
      </trkpt>
      <trkpt lat="49.92095" lon="1.92147">
        <ele>74.7</ele>
        <time>2022-05-25T13:00:58Z</time>
      </trkpt>
      <trkpt lat="49.92096" lon="1.92147">
        <ele>74.7</ele>
        <time>2022-05-25T13:01:00Z</time>
      </trkpt>
      <trkpt lat="49.92097" lon="1.92147">
        <ele>74.6</ele>
        <time>2022-05-25T13:01:01Z</time>
      </trkpt>
      <trkpt lat="49.92097" lon="1.92147">
        <ele>74.6</ele>
        <time>2022-05-25T13:01:02Z</time>
      </trkpt>
      <trkpt lat="49.92099" lon="1.92146">
        <ele>74.5</ele>
        <time>2022-05-25T13:01:03Z</time>
      </trkpt>
      <trkpt lat="49.921" lon="1.92146">
        <ele>74.5</ele>
        <time>2022-05-25T13:01:04Z</time>
      </trkpt>
      <trkpt lat="49.92101" lon="1.92145">
        <ele>74.5</ele>
        <time>2022-05-25T13:01:05Z</time>
      </trkpt>
      <trkpt lat="49.92102" lon="1.92145">
        <ele>74.4</ele>
        <time>2022-05-25T13:01:06Z</time>
      </trkpt>
      <trkpt lat="49.92103" lon="1.92144">
        <ele>74.4</ele>
        <time>2022-05-25T13:01:07Z</time>
      </trkpt>
      <trkpt lat="49.92105" lon="1.92143">
        <ele>74.3</ele>
        <time>2022-05-25T13:01:09Z</time>
      </trkpt>
      <trkpt lat="49.92106" lon="1.92143">
        <ele>74.3</ele>
        <time>2022-05-25T13:01:10Z</time>
      </trkpt>
      <trkpt lat="49.92107" lon="1.92143">
        <ele>74.2</ele>
        <time>2022-05-25T13:01:11Z</time>
      </trkpt>
      <trkpt lat="49.92108" lon="1.92142">
        <ele>74.2</ele>
        <time>2022-05-25T13:01:12Z</time>
      </trkpt>
      <trkpt lat="49.9211" lon="1.92142">
        <ele>74.2</ele>
        <time>2022-05-25T13:01:13Z</time>
      </trkpt>
      <trkpt lat="49.92111" lon="1.92141">
        <ele>74.1</ele>
        <time>2022-05-25T13:01:14Z</time>
      </trkpt>
      <trkpt lat="49.92112" lon="1.92141">
        <ele>74.1</ele>
        <time>2022-05-25T13:01:15Z</time>
      </trkpt>
      <trkpt lat="49.92113" lon="1.9214">
        <ele>74.1</ele>
        <time>2022-05-25T13:01:17Z</time>
      </trkpt>
      <trkpt lat="49.92114" lon="1.92139">
        <ele>74.1</ele>
        <time>2022-05-25T13:01:18Z</time>
      </trkpt>
      <trkpt lat="49.92116" lon="1.92138">
        <ele>74</ele>
        <time>2022-05-25T13:01:19Z</time>
      </trkpt>
      <trkpt lat="49.92117" lon="1.92138">
        <ele>74</ele>
        <time>2022-05-25T13:01:20Z</time>
      </trkpt>
      <trkpt lat="49.92117" lon="1.92138">
        <ele>74</ele>
        <time>2022-05-25T13:01:21Z</time>
      </trkpt>
      <trkpt lat="49.92119" lon="1.92138">
        <ele>74</ele>
        <time>2022-05-25T13:01:22Z</time>
      </trkpt>
      <trkpt lat="49.9212" lon="1.92138">
        <ele>73.9</ele>
        <time>2022-05-25T13:01:23Z</time>
      </trkpt>
      <trkpt lat="49.92121" lon="1.92138">
        <ele>73.9</ele>
        <time>2022-05-25T13:01:24Z</time>
      </trkpt>
      <trkpt lat="49.92123" lon="1.92138">
        <ele>73.9</ele>
        <time>2022-05-25T13:01:26Z</time>
      </trkpt>
      <trkpt lat="49.92124" lon="1.92137">
        <ele>73.9</ele>
        <time>2022-05-25T13:01:27Z</time>
      </trkpt>
      <trkpt lat="49.92125" lon="1.92137">
        <ele>73.9</ele>
        <time>2022-05-25T13:01:28Z</time>
      </trkpt>
      <trkpt lat="49.92126" lon="1.92136">
        <ele>73.8</ele>
        <time>2022-05-25T13:01:29Z</time>
      </trkpt>
      <trkpt lat="49.92127" lon="1.92136">
        <ele>73.8</ele>
        <time>2022-05-25T13:01:30Z</time>
      </trkpt>
      <trkpt lat="49.92129" lon="1.92135">
        <ele>73.8</ele>
        <time>2022-05-25T13:01:31Z</time>
      </trkpt>
      <trkpt lat="49.9213" lon="1.92134">
        <ele>73.7</ele>
        <time>2022-05-25T13:01:32Z</time>
      </trkpt>
      <trkpt lat="49.92131" lon="1.92133">
        <ele>73.7</ele>
        <time>2022-05-25T13:01:33Z</time>
      </trkpt>
      <trkpt lat="49.92132" lon="1.92133">
        <ele>73.7</ele>
        <time>2022-05-25T13:01:34Z</time>
      </trkpt>
      <trkpt lat="49.92134" lon="1.92133">
        <ele>73.6</ele>
        <time>2022-05-25T13:01:35Z</time>
      </trkpt>
      <trkpt lat="49.92135" lon="1.92132">
        <ele>73.6</ele>
        <time>2022-05-25T13:01:37Z</time>
      </trkpt>
      <trkpt lat="49.92136" lon="1.92132">
        <ele>73.6</ele>
        <time>2022-05-25T13:01:38Z</time>
      </trkpt>
      <trkpt lat="49.92138" lon="1.92131">
        <ele>73.5</ele>
        <time>2022-05-25T13:01:39Z</time>
      </trkpt>
      <trkpt lat="49.92139" lon="1.92131">
        <ele>73.5</ele>
        <time>2022-05-25T13:01:40Z</time>
      </trkpt>
      <trkpt lat="49.9214" lon="1.92131">
        <ele>73.4</ele>
        <time>2022-05-25T13:01:41Z</time>
      </trkpt>
      <trkpt lat="49.92141" lon="1.9213">
        <ele>73.4</ele>
        <time>2022-05-25T13:01:42Z</time>
      </trkpt>
      <trkpt lat="49.92144" lon="1.92129">
        <ele>73.3</ele>
        <time>2022-05-25T13:01:43Z</time>
      </trkpt>
      <trkpt lat="49.92144" lon="1.92129">
        <ele>73.2</ele>
        <time>2022-05-25T13:01:44Z</time>
      </trkpt>
      <trkpt lat="49.92145" lon="1.92128">
        <ele>73.2</ele>
        <time>2022-05-25T13:01:46Z</time>
      </trkpt>
      <trkpt lat="49.92146" lon="1.92128">
        <ele>73.2</ele>
        <time>2022-05-25T13:01:47Z</time>
      </trkpt>
      <trkpt lat="49.92147" lon="1.92127">
        <ele>73.1</ele>
        <time>2022-05-25T13:01:48Z</time>
      </trkpt>
      <trkpt lat="49.92148" lon="1.92127">
        <ele>73.1</ele>
        <time>2022-05-25T13:01:49Z</time>
      </trkpt>
      <trkpt lat="49.92149" lon="1.92126">
        <ele>73.1</ele>
        <time>2022-05-25T13:01:50Z</time>
      </trkpt>
      <trkpt lat="49.9215" lon="1.92126">
        <ele>73</ele>
        <time>2022-05-25T13:01:51Z</time>
      </trkpt>
      <trkpt lat="49.92151" lon="1.92126">
        <ele>73</ele>
        <time>2022-05-25T13:01:52Z</time>
      </trkpt>
      <trkpt lat="49.92153" lon="1.92125">
        <ele>72.9</ele>
        <time>2022-05-25T13:01:54Z</time>
      </trkpt>
      <trkpt lat="49.92154" lon="1.92124">
        <ele>72.8</ele>
        <time>2022-05-25T13:01:55Z</time>
      </trkpt>
      <trkpt lat="49.92155" lon="1.92124">
        <ele>72.8</ele>
        <time>2022-05-25T13:01:56Z</time>
      </trkpt>
      <trkpt lat="49.92156" lon="1.92123">
        <ele>72.8</ele>
        <time>2022-05-25T13:01:57Z</time>
      </trkpt>
      <trkpt lat="49.92158" lon="1.92123">
        <ele>72.8</ele>
        <time>2022-05-25T13:01:58Z</time>
      </trkpt>
      <trkpt lat="49.92159" lon="1.92123">
        <ele>72.8</ele>
        <time>2022-05-25T13:01:59Z</time>
      </trkpt>
      <trkpt lat="49.9216" lon="1.92122">
        <ele>72.8</ele>
        <time>2022-05-25T13:02:01Z</time>
      </trkpt>
      <trkpt lat="49.92161" lon="1.92122">
        <ele>72.8</ele>
        <time>2022-05-25T13:02:02Z</time>
      </trkpt>
      <trkpt lat="49.92163" lon="1.92122">
        <ele>72.8</ele>
        <time>2022-05-25T13:02:03Z</time>
      </trkpt>
      <trkpt lat="49.92164" lon="1.92121">
        <ele>72.8</ele>
        <time>2022-05-25T13:02:04Z</time>
      </trkpt>
      <trkpt lat="49.92165" lon="1.92121">
        <ele>72.8</ele>
        <time>2022-05-25T13:02:05Z</time>
      </trkpt>
      <trkpt lat="49.92166" lon="1.9212">
        <ele>72.8</ele>
        <time>2022-05-25T13:02:06Z</time>
      </trkpt>
      <trkpt lat="49.92167" lon="1.9212">
        <ele>72.8</ele>
        <time>2022-05-25T13:02:07Z</time>
      </trkpt>
      <trkpt lat="49.92169" lon="1.92119">
        <ele>72.8</ele>
        <time>2022-05-25T13:02:09Z</time>
      </trkpt>
      <trkpt lat="49.9217" lon="1.92119">
        <ele>72.8</ele>
        <time>2022-05-25T13:02:10Z</time>
      </trkpt>
      <trkpt lat="49.92171" lon="1.92118">
        <ele>72.8</ele>
        <time>2022-05-25T13:02:11Z</time>
      </trkpt>
      <trkpt lat="49.92172" lon="1.92118">
        <ele>72.8</ele>
        <time>2022-05-25T13:02:12Z</time>
      </trkpt>
      <trkpt lat="49.92174" lon="1.92117">
        <ele>72.8</ele>
        <time>2022-05-25T13:02:13Z</time>
      </trkpt>
      <trkpt lat="49.92175" lon="1.92116">
        <ele>72.8</ele>
        <time>2022-05-25T13:02:14Z</time>
      </trkpt>
      <trkpt lat="49.92176" lon="1.92116">
        <ele>72.8</ele>
        <time>2022-05-25T13:02:15Z</time>
      </trkpt>
      <trkpt lat="49.92178" lon="1.92115">
        <ele>72.8</ele>
        <time>2022-05-25T13:02:17Z</time>
      </trkpt>
      <trkpt lat="49.92179" lon="1.92114">
        <ele>72.8</ele>
        <time>2022-05-25T13:02:18Z</time>
      </trkpt>
      <trkpt lat="49.9218" lon="1.92114">
        <ele>72.8</ele>
        <time>2022-05-25T13:02:19Z</time>
      </trkpt>
      <trkpt lat="49.92182" lon="1.92113">
        <ele>72.7</ele>
        <time>2022-05-25T13:02:20Z</time>
      </trkpt>
      <trkpt lat="49.92182" lon="1.92112">
        <ele>72.7</ele>
        <time>2022-05-25T13:02:21Z</time>
      </trkpt>
      <trkpt lat="49.92183" lon="1.92112">
        <ele>72.7</ele>
        <time>2022-05-25T13:02:22Z</time>
      </trkpt>
      <trkpt lat="49.92184" lon="1.92112">
        <ele>72.7</ele>
        <time>2022-05-25T13:02:23Z</time>
      </trkpt>
      <trkpt lat="49.92185" lon="1.92111">
        <ele>72.7</ele>
        <time>2022-05-25T13:02:25Z</time>
      </trkpt>
      <trkpt lat="49.92186" lon="1.9211">
        <ele>72.7</ele>
        <time>2022-05-25T13:02:26Z</time>
      </trkpt>
      <trkpt lat="49.92187" lon="1.9211">
        <ele>72.7</ele>
        <time>2022-05-25T13:02:27Z</time>
      </trkpt>
      <trkpt lat="49.92189" lon="1.92109">
        <ele>72.7</ele>
        <time>2022-05-25T13:02:28Z</time>
      </trkpt>
      <trkpt lat="49.9219" lon="1.92109">
        <ele>72.7</ele>
        <time>2022-05-25T13:02:29Z</time>
      </trkpt>
      <trkpt lat="49.92192" lon="1.92108">
        <ele>72.7</ele>
        <time>2022-05-25T13:02:30Z</time>
      </trkpt>
      <trkpt lat="49.92194" lon="1.92107">
        <ele>72.7</ele>
        <time>2022-05-25T13:02:31Z</time>
      </trkpt>
      <trkpt lat="49.92195" lon="1.92107">
        <ele>72.7</ele>
        <time>2022-05-25T13:02:33Z</time>
      </trkpt>
      <trkpt lat="49.92197" lon="1.92107">
        <ele>72.7</ele>
        <time>2022-05-25T13:02:34Z</time>
      </trkpt>
      <trkpt lat="49.92198" lon="1.92107">
        <ele>72.7</ele>
        <time>2022-05-25T13:02:35Z</time>
      </trkpt>
      <trkpt lat="49.922" lon="1.92107">
        <ele>72.7</ele>
        <time>2022-05-25T13:02:36Z</time>
      </trkpt>
      <trkpt lat="49.92201" lon="1.92106">
        <ele>72.7</ele>
        <time>2022-05-25T13:02:37Z</time>
      </trkpt>
      <trkpt lat="49.92202" lon="1.92106">
        <ele>72.7</ele>
        <time>2022-05-25T13:02:38Z</time>
      </trkpt>
      <trkpt lat="49.92203" lon="1.92106">
        <ele>72.7</ele>
        <time>2022-05-25T13:02:39Z</time>
      </trkpt>
      <trkpt lat="49.92204" lon="1.92105">
        <ele>72.7</ele>
        <time>2022-05-25T13:02:41Z</time>
      </trkpt>
      <trkpt lat="49.92205" lon="1.92105">
        <ele>72.7</ele>
        <time>2022-05-25T13:02:42Z</time>
      </trkpt>
      <trkpt lat="49.92206" lon="1.92104">
        <ele>72.7</ele>
        <time>2022-05-25T13:02:43Z</time>
      </trkpt>
      <trkpt lat="49.92207" lon="1.92104">
        <ele>72.7</ele>
        <time>2022-05-25T13:02:44Z</time>
      </trkpt>
      <trkpt lat="49.92208" lon="1.92104">
        <ele>72.7</ele>
        <time>2022-05-25T13:02:45Z</time>
      </trkpt>
      <trkpt lat="49.92209" lon="1.92103">
        <ele>72.7</ele>
        <time>2022-05-25T13:02:46Z</time>
      </trkpt>
      <trkpt lat="49.9221" lon="1.92103">
        <ele>72.7</ele>
        <time>2022-05-25T13:02:48Z</time>
      </trkpt>
      <trkpt lat="49.92211" lon="1.92103">
        <ele>72.7</ele>
        <time>2022-05-25T13:02:49Z</time>
      </trkpt>
      <trkpt lat="49.92213" lon="1.92102">
        <ele>72.7</ele>
        <time>2022-05-25T13:02:50Z</time>
      </trkpt>
      <trkpt lat="49.92214" lon="1.92102">
        <ele>72.7</ele>
        <time>2022-05-25T13:02:51Z</time>
      </trkpt>
      <trkpt lat="49.92215" lon="1.92101">
        <ele>72.7</ele>
        <time>2022-05-25T13:02:52Z</time>
      </trkpt>
      <trkpt lat="49.92216" lon="1.92101">
        <ele>72.7</ele>
        <time>2022-05-25T13:02:53Z</time>
      </trkpt>
      <trkpt lat="49.92218" lon="1.921">
        <ele>72.7</ele>
        <time>2022-05-25T13:02:55Z</time>
      </trkpt>
      <trkpt lat="49.92219" lon="1.92099">
        <ele>72.7</ele>
        <time>2022-05-25T13:02:57Z</time>
      </trkpt>
      <trkpt lat="49.92221" lon="1.92098">
        <ele>72.7</ele>
        <time>2022-05-25T13:02:58Z</time>
      </trkpt>
      <trkpt lat="49.92223" lon="1.92098">
        <ele>72.7</ele>
        <time>2022-05-25T13:02:59Z</time>
      </trkpt>
      <trkpt lat="49.92223" lon="1.92097">
        <ele>72.7</ele>
        <time>2022-05-25T13:03:00Z</time>
      </trkpt>
      <trkpt lat="49.92224" lon="1.92097">
        <ele>72.7</ele>
        <time>2022-05-25T13:03:01Z</time>
      </trkpt>
      <trkpt lat="49.92225" lon="1.92097">
        <ele>72.8</ele>
        <time>2022-05-25T13:03:02Z</time>
      </trkpt>
      <trkpt lat="49.92227" lon="1.92096">
        <ele>72.8</ele>
        <time>2022-05-25T13:03:04Z</time>
      </trkpt>
      <trkpt lat="49.92228" lon="1.92096">
        <ele>72.8</ele>
        <time>2022-05-25T13:03:05Z</time>
      </trkpt>
      <trkpt lat="49.92228" lon="1.92095">
        <ele>72.8</ele>
        <time>2022-05-25T13:03:06Z</time>
      </trkpt>
      <trkpt lat="49.92229" lon="1.92095">
        <ele>72.8</ele>
        <time>2022-05-25T13:03:07Z</time>
      </trkpt>
      <trkpt lat="49.92231" lon="1.92094">
        <ele>72.8</ele>
        <time>2022-05-25T13:03:08Z</time>
      </trkpt>
      <trkpt lat="49.92234" lon="1.92094">
        <ele>72.8</ele>
        <time>2022-05-25T13:03:10Z</time>
      </trkpt>
      <trkpt lat="49.92235" lon="1.92093">
        <ele>72.8</ele>
        <time>2022-05-25T13:03:11Z</time>
      </trkpt>
      <trkpt lat="49.92236" lon="1.92093">
        <ele>72.8</ele>
        <time>2022-05-25T13:03:12Z</time>
      </trkpt>
      <trkpt lat="49.92237" lon="1.92093">
        <ele>72.8</ele>
        <time>2022-05-25T13:03:13Z</time>
      </trkpt>
      <trkpt lat="49.92238" lon="1.92092">
        <ele>72.9</ele>
        <time>2022-05-25T13:03:14Z</time>
      </trkpt>
      <trkpt lat="49.9224" lon="1.92092">
        <ele>72.9</ele>
        <time>2022-05-25T13:03:16Z</time>
      </trkpt>
      <trkpt lat="49.92241" lon="1.92092">
        <ele>72.9</ele>
        <time>2022-05-25T13:03:17Z</time>
      </trkpt>
      <trkpt lat="49.92242" lon="1.92091">
        <ele>72.9</ele>
        <time>2022-05-25T13:03:18Z</time>
      </trkpt>
      <trkpt lat="49.92243" lon="1.92091">
        <ele>72.9</ele>
        <time>2022-05-25T13:03:19Z</time>
      </trkpt>
      <trkpt lat="49.92244" lon="1.9209">
        <ele>72.9</ele>
        <time>2022-05-25T13:03:20Z</time>
      </trkpt>
      <trkpt lat="49.92245" lon="1.9209">
        <ele>72.9</ele>
        <time>2022-05-25T13:03:21Z</time>
      </trkpt>
      <trkpt lat="49.92246" lon="1.9209">
        <ele>72.9</ele>
        <time>2022-05-25T13:03:23Z</time>
      </trkpt>
      <trkpt lat="49.92246" lon="1.9209">
        <ele>72.9</ele>
        <time>2022-05-25T13:03:24Z</time>
      </trkpt>
      <trkpt lat="49.92247" lon="1.92089">
        <ele>72.9</ele>
        <time>2022-05-25T13:03:25Z</time>
      </trkpt>
      <trkpt lat="49.92248" lon="1.92088">
        <ele>72.9</ele>
        <time>2022-05-25T13:03:26Z</time>
      </trkpt>
      <trkpt lat="49.9225" lon="1.92087">
        <ele>72.9</ele>
        <time>2022-05-25T13:03:27Z</time>
      </trkpt>
      <trkpt lat="49.92251" lon="1.92087">
        <ele>73</ele>
        <time>2022-05-25T13:03:28Z</time>
      </trkpt>
      <trkpt lat="49.92253" lon="1.92087">
        <ele>73</ele>
        <time>2022-05-25T13:03:30Z</time>
      </trkpt>
      <trkpt lat="49.92254" lon="1.92086">
        <ele>73</ele>
        <time>2022-05-25T13:03:31Z</time>
      </trkpt>
      <trkpt lat="49.92254" lon="1.92086">
        <ele>73</ele>
        <time>2022-05-25T13:03:32Z</time>
      </trkpt>
      <trkpt lat="49.92255" lon="1.92086">
        <ele>73</ele>
        <time>2022-05-25T13:03:33Z</time>
      </trkpt>
      <trkpt lat="49.92256" lon="1.92086">
        <ele>73</ele>
        <time>2022-05-25T13:03:34Z</time>
      </trkpt>
      <trkpt lat="49.92258" lon="1.92085">
        <ele>73</ele>
        <time>2022-05-25T13:03:36Z</time>
      </trkpt>
      <trkpt lat="49.92259" lon="1.92085">
        <ele>73</ele>
        <time>2022-05-25T13:03:37Z</time>
      </trkpt>
      <trkpt lat="49.9226" lon="1.92084">
        <ele>73</ele>
        <time>2022-05-25T13:03:38Z</time>
      </trkpt>
      <trkpt lat="49.92262" lon="1.92083">
        <ele>73</ele>
        <time>2022-05-25T13:03:39Z</time>
      </trkpt>
      <trkpt lat="49.92263" lon="1.92082">
        <ele>73</ele>
        <time>2022-05-25T13:03:41Z</time>
      </trkpt>
      <trkpt lat="49.92264" lon="1.92082">
        <ele>73</ele>
        <time>2022-05-25T13:03:42Z</time>
      </trkpt>
      <trkpt lat="49.92266" lon="1.92081">
        <ele>73</ele>
        <time>2022-05-25T13:03:44Z</time>
      </trkpt>
      <trkpt lat="49.92267" lon="1.9208">
        <ele>73.1</ele>
        <time>2022-05-25T13:03:45Z</time>
      </trkpt>
      <trkpt lat="49.92267" lon="1.9208">
        <ele>73.1</ele>
        <time>2022-05-25T13:03:46Z</time>
      </trkpt>
      <trkpt lat="49.92267" lon="1.92079">
        <ele>73.1</ele>
        <time>2022-05-25T13:03:47Z</time>
      </trkpt>
      <trkpt lat="49.92267" lon="1.92078">
        <ele>73.1</ele>
        <time>2022-05-25T13:03:48Z</time>
      </trkpt>
      <trkpt lat="49.92267" lon="1.92077">
        <ele>73.1</ele>
        <time>2022-05-25T13:03:49Z</time>
      </trkpt>
      <trkpt lat="49.92268" lon="1.92077">
        <ele>73.1</ele>
        <time>2022-05-25T13:03:50Z</time>
      </trkpt>
      <trkpt lat="49.92267" lon="1.92077">
        <ele>73.1</ele>
        <time>2022-05-25T13:03:51Z</time>
      </trkpt>
      <trkpt lat="49.92267" lon="1.92077">
        <ele>73.1</ele>
        <time>2022-05-25T13:03:52Z</time>
      </trkpt>
      <trkpt lat="49.92267" lon="1.92077">
        <ele>73.1</ele>
        <time>2022-05-25T13:03:53Z</time>
      </trkpt>
      <trkpt lat="49.92267" lon="1.92077">
        <ele>73.1</ele>
        <time>2022-05-25T13:03:54Z</time>
      </trkpt>
      <trkpt lat="49.92267" lon="1.92076">
        <ele>73.1</ele>
        <time>2022-05-25T13:03:55Z</time>
      </trkpt>
      <trkpt lat="49.92266" lon="1.92076">
        <ele>73.1</ele>
        <time>2022-05-25T13:03:56Z</time>
      </trkpt>
      <trkpt lat="49.92266" lon="1.92076">
        <ele>73.1</ele>
        <time>2022-05-25T13:03:57Z</time>
      </trkpt>
      <trkpt lat="49.92266" lon="1.92075">
        <ele>73.1</ele>
        <time>2022-05-25T13:03:58Z</time>
      </trkpt>
      <trkpt lat="49.92266" lon="1.92075">
        <ele>73.1</ele>
        <time>2022-05-25T13:03:59Z</time>
      </trkpt>
      <trkpt lat="49.92265" lon="1.92075">
        <ele>73.1</ele>
        <time>2022-05-25T13:04:00Z</time>
      </trkpt>
      <trkpt lat="49.92265" lon="1.92075">
        <ele>73.1</ele>
        <time>2022-05-25T13:04:01Z</time>
      </trkpt>
      <trkpt lat="49.92265" lon="1.92076">
        <ele>73.1</ele>
        <time>2022-05-25T13:04:02Z</time>
      </trkpt>
      <trkpt lat="49.92265" lon="1.92076">
        <ele>73.1</ele>
        <time>2022-05-25T13:04:03Z</time>
      </trkpt>
      <trkpt lat="49.92264" lon="1.92077">
        <ele>73.1</ele>
        <time>2022-05-25T13:04:04Z</time>
      </trkpt>
      <trkpt lat="49.92264" lon="1.92077">
        <ele>73.1</ele>
        <time>2022-05-25T13:04:05Z</time>
      </trkpt>
      <trkpt lat="49.92264" lon="1.92077">
        <ele>73.1</ele>
        <time>2022-05-25T13:04:06Z</time>
      </trkpt>
      <trkpt lat="49.92264" lon="1.92077">
        <ele>73.1</ele>
        <time>2022-05-25T13:04:07Z</time>
      </trkpt>
      <trkpt lat="49.92264" lon="1.92077">
        <ele>73.1</ele>
        <time>2022-05-25T13:04:08Z</time>
      </trkpt>
      <trkpt lat="49.92264" lon="1.92077">
        <ele>73.1</ele>
        <time>2022-05-25T13:04:09Z</time>
      </trkpt>
      <trkpt lat="49.92264" lon="1.92077">
        <ele>73.1</ele>
        <time>2022-05-25T13:04:10Z</time>
      </trkpt>
      <trkpt lat="49.92264" lon="1.92077">
        <ele>73.1</ele>
        <time>2022-05-25T13:04:11Z</time>
      </trkpt>
      <trkpt lat="49.92264" lon="1.92078">
        <ele>73.1</ele>
        <time>2022-05-25T13:04:12Z</time>
      </trkpt>
      <trkpt lat="49.92263" lon="1.92078">
        <ele>73.1</ele>
        <time>2022-05-25T13:04:13Z</time>
      </trkpt>
      <trkpt lat="49.92264" lon="1.92077">
        <ele>73.1</ele>
        <time>2022-05-25T13:04:14Z</time>
      </trkpt>
      <trkpt lat="49.92264" lon="1.92076">
        <ele>73.1</ele>
        <time>2022-05-25T13:04:15Z</time>
      </trkpt>
      <trkpt lat="49.92264" lon="1.92075">
        <ele>73.1</ele>
        <time>2022-05-25T13:04:16Z</time>
      </trkpt>
      <trkpt lat="49.92264" lon="1.92075">
        <ele>73.1</ele>
        <time>2022-05-25T13:04:18Z</time>
      </trkpt>
      <trkpt lat="49.92264" lon="1.92075">
        <ele>73.1</ele>
        <time>2022-05-25T13:04:19Z</time>
      </trkpt>
      <trkpt lat="49.92264" lon="1.92075">
        <ele>73.1</ele>
        <time>2022-05-25T13:04:20Z</time>
      </trkpt>
      <trkpt lat="49.92265" lon="1.92076">
        <ele>73.1</ele>
        <time>2022-05-25T13:04:22Z</time>
      </trkpt>
      <trkpt lat="49.92265" lon="1.92076">
        <ele>73.1</ele>
        <time>2022-05-25T13:04:23Z</time>
      </trkpt>
      <trkpt lat="49.92265" lon="1.92076">
        <ele>73.1</ele>
        <time>2022-05-25T13:04:24Z</time>
      </trkpt>
      <trkpt lat="49.92265" lon="1.92076">
        <ele>73.1</ele>
        <time>2022-05-25T13:04:25Z</time>
      </trkpt>
      <trkpt lat="49.92265" lon="1.92076">
        <ele>73.1</ele>
        <time>2022-05-25T13:04:26Z</time>
      </trkpt>
      <trkpt lat="49.92265" lon="1.92077">
        <ele>73.1</ele>
        <time>2022-05-25T13:04:27Z</time>
      </trkpt>
      <trkpt lat="49.92265" lon="1.92077">
        <ele>73.1</ele>
        <time>2022-05-25T13:04:28Z</time>
      </trkpt>
      <trkpt lat="49.92265" lon="1.92077">
        <ele>73.1</ele>
        <time>2022-05-25T13:04:29Z</time>
      </trkpt>
      <trkpt lat="49.92265" lon="1.92077">
        <ele>73.2</ele>
        <time>2022-05-25T13:04:30Z</time>
      </trkpt>
      <trkpt lat="49.92266" lon="1.92077">
        <ele>73.2</ele>
        <time>2022-05-25T13:04:31Z</time>
      </trkpt>
      <trkpt lat="49.92266" lon="1.92077">
        <ele>73.2</ele>
        <time>2022-05-25T13:04:32Z</time>
      </trkpt>
      <trkpt lat="49.92266" lon="1.92078">
        <ele>73.2</ele>
        <time>2022-05-25T13:04:33Z</time>
      </trkpt>
      <trkpt lat="49.92266" lon="1.92078">
        <ele>73.2</ele>
        <time>2022-05-25T13:04:35Z</time>
      </trkpt>
      <trkpt lat="49.92267" lon="1.92079">
        <ele>73.2</ele>
        <time>2022-05-25T13:04:36Z</time>
      </trkpt>
      <trkpt lat="49.92266" lon="1.92078">
        <ele>73.2</ele>
        <time>2022-05-25T13:04:37Z</time>
      </trkpt>
      <trkpt lat="49.92266" lon="1.92078">
        <ele>73.2</ele>
        <time>2022-05-25T13:04:38Z</time>
      </trkpt>
      <trkpt lat="49.92266" lon="1.92078">
        <ele>73.2</ele>
        <time>2022-05-25T13:04:39Z</time>
      </trkpt>
      <trkpt lat="49.92266" lon="1.92077">
        <ele>73.2</ele>
        <time>2022-05-25T13:04:40Z</time>
      </trkpt>
      <trkpt lat="49.92266" lon="1.92077">
        <ele>73.2</ele>
        <time>2022-05-25T13:04:41Z</time>
      </trkpt>
      <trkpt lat="49.92266" lon="1.92077">
        <ele>73.2</ele>
        <time>2022-05-25T13:04:42Z</time>
      </trkpt>
      <trkpt lat="49.92266" lon="1.92077">
        <ele>73.2</ele>
        <time>2022-05-25T13:04:43Z</time>
      </trkpt>
      <trkpt lat="49.92266" lon="1.92077">
        <ele>73.2</ele>
        <time>2022-05-25T13:04:44Z</time>
      </trkpt>
      <trkpt lat="49.92266" lon="1.92077">
        <ele>73.2</ele>
        <time>2022-05-25T13:04:45Z</time>
      </trkpt>
      <trkpt lat="49.92266" lon="1.92078">
        <ele>73.2</ele>
        <time>2022-05-25T13:04:46Z</time>
      </trkpt>
      <trkpt lat="49.92265" lon="1.92078">
        <ele>73.2</ele>
        <time>2022-05-25T13:04:47Z</time>
      </trkpt>
      <trkpt lat="49.92265" lon="1.92078">
        <ele>73.2</ele>
        <time>2022-05-25T13:04:48Z</time>
      </trkpt>
      <trkpt lat="49.92265" lon="1.92078">
        <ele>73.2</ele>
        <time>2022-05-25T13:04:49Z</time>
      </trkpt>
      <trkpt lat="49.92266" lon="1.92077">
        <ele>73.2</ele>
        <time>2022-05-25T13:04:51Z</time>
      </trkpt>
      <trkpt lat="49.92267" lon="1.92077">
        <ele>73.2</ele>
        <time>2022-05-25T13:04:52Z</time>
      </trkpt>
      <trkpt lat="49.92267" lon="1.92077">
        <ele>73.2</ele>
        <time>2022-05-25T13:04:53Z</time>
      </trkpt>
      <trkpt lat="49.92267" lon="1.92076">
        <ele>73.2</ele>
        <time>2022-05-25T13:04:55Z</time>
      </trkpt>
      <trkpt lat="49.92267" lon="1.92076">
        <ele>73.2</ele>
        <time>2022-05-25T13:04:56Z</time>
      </trkpt>
      <trkpt lat="49.92267" lon="1.92076">
        <ele>73.2</ele>
        <time>2022-05-25T13:04:57Z</time>
      </trkpt>
      <trkpt lat="49.92267" lon="1.92077">
        <ele>73.2</ele>
        <time>2022-05-25T13:04:58Z</time>
      </trkpt>
      <trkpt lat="49.92267" lon="1.92077">
        <ele>73.2</ele>
        <time>2022-05-25T13:04:59Z</time>
      </trkpt>
      <trkpt lat="49.92267" lon="1.92077">
        <ele>73.2</ele>
        <time>2022-05-25T13:05:01Z</time>
      </trkpt>
      <trkpt lat="49.92268" lon="1.92076">
        <ele>73.2</ele>
        <time>2022-05-25T13:05:02Z</time>
      </trkpt>
      <trkpt lat="49.92268" lon="1.92076">
        <ele>73.2</ele>
        <time>2022-05-25T13:05:04Z</time>
      </trkpt>
      <trkpt lat="49.92268" lon="1.92075">
        <ele>73.2</ele>
        <time>2022-05-25T13:05:05Z</time>
      </trkpt>
      <trkpt lat="49.92268" lon="1.92075">
        <ele>73.2</ele>
        <time>2022-05-25T13:05:06Z</time>
      </trkpt>
      <trkpt lat="49.92268" lon="1.92075">
        <ele>73.2</ele>
        <time>2022-05-25T13:05:07Z</time>
      </trkpt>
      <trkpt lat="49.92268" lon="1.92075">
        <ele>73.3</ele>
        <time>2022-05-25T13:05:08Z</time>
      </trkpt>
      <trkpt lat="49.92268" lon="1.92076">
        <ele>73.3</ele>
        <time>2022-05-25T13:05:09Z</time>
      </trkpt>
      <trkpt lat="49.92268" lon="1.92076">
        <ele>73.3</ele>
        <time>2022-05-25T13:05:10Z</time>
      </trkpt>
      <trkpt lat="49.92267" lon="1.92077">
        <ele>73.3</ele>
        <time>2022-05-25T13:05:11Z</time>
      </trkpt>
      <trkpt lat="49.92267" lon="1.92077">
        <ele>73.3</ele>
        <time>2022-05-25T13:05:12Z</time>
      </trkpt>
      <trkpt lat="49.92267" lon="1.92077">
        <ele>73.3</ele>
        <time>2022-05-25T13:05:13Z</time>
      </trkpt>
      <trkpt lat="49.92267" lon="1.92077">
        <ele>73.3</ele>
        <time>2022-05-25T13:05:14Z</time>
      </trkpt>
      <trkpt lat="49.92267" lon="1.92077">
        <ele>73.3</ele>
        <time>2022-05-25T13:05:15Z</time>
      </trkpt>
      <trkpt lat="49.92267" lon="1.92077">
        <ele>73.3</ele>
        <time>2022-05-25T13:05:16Z</time>
      </trkpt>
      <trkpt lat="49.92267" lon="1.92077">
        <ele>73.3</ele>
        <time>2022-05-25T13:05:17Z</time>
      </trkpt>
      <trkpt lat="49.92267" lon="1.92077">
        <ele>73.3</ele>
        <time>2022-05-25T13:05:19Z</time>
      </trkpt>
      <trkpt lat="49.92267" lon="1.92077">
        <ele>73.3</ele>
        <time>2022-05-25T13:05:20Z</time>
      </trkpt>
      <trkpt lat="49.92267" lon="1.92077">
        <ele>73.3</ele>
        <time>2022-05-25T13:05:21Z</time>
      </trkpt>
      <trkpt lat="49.92267" lon="1.92077">
        <ele>73.3</ele>
        <time>2022-05-25T13:05:22Z</time>
      </trkpt>
      <trkpt lat="49.92267" lon="1.92077">
        <ele>73.3</ele>
        <time>2022-05-25T13:05:23Z</time>
      </trkpt>
      <trkpt lat="49.92266" lon="1.92078">
        <ele>73.3</ele>
        <time>2022-05-25T13:05:24Z</time>
      </trkpt>
      <trkpt lat="49.92266" lon="1.92078">
        <ele>73.3</ele>
        <time>2022-05-25T13:05:25Z</time>
      </trkpt>
      <trkpt lat="49.92265" lon="1.92078">
        <ele>73.3</ele>
        <time>2022-05-25T13:05:26Z</time>
      </trkpt>
      <trkpt lat="49.92265" lon="1.92078">
        <ele>73.3</ele>
        <time>2022-05-25T13:05:27Z</time>
      </trkpt>
      <trkpt lat="49.92265" lon="1.92078">
        <ele>73.3</ele>
        <time>2022-05-25T13:05:28Z</time>
      </trkpt>
      <trkpt lat="49.92265" lon="1.92078">
        <ele>73.3</ele>
        <time>2022-05-25T13:05:29Z</time>
      </trkpt>
      <trkpt lat="49.92265" lon="1.92078">
        <ele>73.3</ele>
        <time>2022-05-25T13:05:30Z</time>
      </trkpt>
      <trkpt lat="49.92265" lon="1.92078">
        <ele>73.3</ele>
        <time>2022-05-25T13:05:31Z</time>
      </trkpt>
      <trkpt lat="49.92265" lon="1.92078">
        <ele>73.3</ele>
        <time>2022-05-25T13:05:32Z</time>
      </trkpt>
      <trkpt lat="49.92265" lon="1.92078">
        <ele>73.3</ele>
        <time>2022-05-25T13:05:33Z</time>
      </trkpt>
      <trkpt lat="49.92265" lon="1.92078">
        <ele>73.3</ele>
        <time>2022-05-25T13:05:34Z</time>
      </trkpt>
      <trkpt lat="49.92265" lon="1.92078">
        <ele>73.3</ele>
        <time>2022-05-25T13:05:35Z</time>
      </trkpt>
      <trkpt lat="49.92265" lon="1.92078">
        <ele>73.3</ele>
        <time>2022-05-25T13:05:36Z</time>
      </trkpt>
      <trkpt lat="49.92265" lon="1.92078">
        <ele>73.3</ele>
        <time>2022-05-25T13:05:37Z</time>
      </trkpt>
      <trkpt lat="49.92265" lon="1.92078">
        <ele>73.3</ele>
        <time>2022-05-25T13:05:38Z</time>
      </trkpt>
      <trkpt lat="49.92265" lon="1.92078">
        <ele>73.3</ele>
        <time>2022-05-25T13:05:39Z</time>
      </trkpt>
      <trkpt lat="49.92265" lon="1.92078">
        <ele>73.3</ele>
        <time>2022-05-25T13:05:40Z</time>
      </trkpt>
      <trkpt lat="49.92265" lon="1.92078">
        <ele>73.3</ele>
        <time>2022-05-25T13:05:42Z</time>
      </trkpt>
      <trkpt lat="49.92265" lon="1.92078">
        <ele>73.3</ele>
        <time>2022-05-25T13:05:44Z</time>
      </trkpt>
      <trkpt lat="49.92265" lon="1.92078">
        <ele>73.3</ele>
        <time>2022-05-25T13:05:45Z</time>
      </trkpt>
      <trkpt lat="49.92265" lon="1.92078">
        <ele>73.3</ele>
        <time>2022-05-25T13:05:46Z</time>
      </trkpt>
      <trkpt lat="49.92265" lon="1.92078">
        <ele>73.3</ele>
        <time>2022-05-25T13:05:47Z</time>
      </trkpt>
      <trkpt lat="49.92265" lon="1.92078">
        <ele>73.3</ele>
        <time>2022-05-25T13:05:48Z</time>
      </trkpt>
      <trkpt lat="49.92265" lon="1.92078">
        <ele>73.3</ele>
        <time>2022-05-25T13:05:49Z</time>
      </trkpt>
      <trkpt lat="49.92265" lon="1.92078">
        <ele>73.3</ele>
        <time>2022-05-25T13:05:50Z</time>
      </trkpt>
      <trkpt lat="49.92265" lon="1.92078">
        <ele>73.3</ele>
        <time>2022-05-25T13:05:51Z</time>
      </trkpt>
      <trkpt lat="49.92265" lon="1.92078">
        <ele>73.3</ele>
        <time>2022-05-25T13:05:52Z</time>
      </trkpt>
      <trkpt lat="49.92265" lon="1.92078">
        <ele>73.3</ele>
        <time>2022-05-25T13:05:53Z</time>
      </trkpt>
      <trkpt lat="49.92265" lon="1.92078">
        <ele>73.3</ele>
        <time>2022-05-25T13:05:54Z</time>
      </trkpt>
      <trkpt lat="49.92265" lon="1.92078">
        <ele>73.3</ele>
        <time>2022-05-25T13:05:55Z</time>
      </trkpt>
      <trkpt lat="49.92265" lon="1.92078">
        <ele>73.3</ele>
        <time>2022-05-25T13:05:56Z</time>
      </trkpt>
      <trkpt lat="49.92265" lon="1.92078">
        <ele>73.3</ele>
        <time>2022-05-25T13:05:57Z</time>
      </trkpt>
      <trkpt lat="49.92265" lon="1.92078">
        <ele>73.3</ele>
        <time>2022-05-25T13:05:58Z</time>
      </trkpt>
      <trkpt lat="49.92265" lon="1.92078">
        <ele>73.3</ele>
        <time>2022-05-25T13:05:59Z</time>
      </trkpt>
      <trkpt lat="49.92265" lon="1.92078">
        <ele>73.3</ele>
        <time>2022-05-25T13:06:00Z</time>
      </trkpt>
      <trkpt lat="49.92265" lon="1.92078">
        <ele>73.3</ele>
        <time>2022-05-25T13:06:01Z</time>
      </trkpt>
      <trkpt lat="49.92265" lon="1.92078">
        <ele>73.3</ele>
        <time>2022-05-25T13:06:02Z</time>
      </trkpt>
      <trkpt lat="49.92265" lon="1.92078">
        <ele>73.3</ele>
        <time>2022-05-25T13:06:03Z</time>
      </trkpt>
      <trkpt lat="49.92265" lon="1.92078">
        <ele>73.3</ele>
        <time>2022-05-25T13:06:04Z</time>
      </trkpt>
      <trkpt lat="49.92265" lon="1.92078">
        <ele>73.3</ele>
        <time>2022-05-25T13:06:05Z</time>
      </trkpt>
      <trkpt lat="49.92265" lon="1.92078">
        <ele>73.3</ele>
        <time>2022-05-25T13:06:06Z</time>
      </trkpt>
      <trkpt lat="49.92265" lon="1.92078">
        <ele>73.3</ele>
        <time>2022-05-25T13:06:07Z</time>
      </trkpt>
      <trkpt lat="49.92265" lon="1.92078">
        <ele>73.3</ele>
        <time>2022-05-25T13:06:08Z</time>
      </trkpt>
      <trkpt lat="49.92265" lon="1.92078">
        <ele>73.3</ele>
        <time>2022-05-25T13:06:09Z</time>
      </trkpt>
      <trkpt lat="49.92265" lon="1.92078">
        <ele>73.3</ele>
        <time>2022-05-25T13:06:10Z</time>
      </trkpt>
      <trkpt lat="49.92265" lon="1.92078">
        <ele>73.3</ele>
        <time>2022-05-25T13:06:11Z</time>
      </trkpt>
      <trkpt lat="49.92265" lon="1.92078">
        <ele>73.3</ele>
        <time>2022-05-25T13:06:12Z</time>
      </trkpt>
      <trkpt lat="49.92265" lon="1.92078">
        <ele>73.3</ele>
        <time>2022-05-25T13:06:13Z</time>
      </trkpt>
      <trkpt lat="49.92265" lon="1.92078">
        <ele>73.3</ele>
        <time>2022-05-25T13:06:14Z</time>
      </trkpt>
      <trkpt lat="49.92265" lon="1.92078">
        <ele>73.3</ele>
        <time>2022-05-25T13:06:15Z</time>
      </trkpt>
      <trkpt lat="49.92265" lon="1.92078">
        <ele>73.3</ele>
        <time>2022-05-25T13:06:16Z</time>
      </trkpt>
      <trkpt lat="49.92265" lon="1.92078">
        <ele>73.3</ele>
        <time>2022-05-25T13:06:17Z</time>
      </trkpt>
      <trkpt lat="49.92265" lon="1.92078">
        <ele>73.3</ele>
        <time>2022-05-25T13:06:18Z</time>
      </trkpt>
      <trkpt lat="49.92265" lon="1.92078">
        <ele>73.3</ele>
        <time>2022-05-25T13:06:19Z</time>
      </trkpt>
      <trkpt lat="49.92266" lon="1.92078">
        <ele>73.3</ele>
        <time>2022-05-25T13:06:20Z</time>
      </trkpt>
      <trkpt lat="49.92266" lon="1.92078">
        <ele>73.3</ele>
        <time>2022-05-25T13:06:21Z</time>
      </trkpt>
      <trkpt lat="49.92266" lon="1.92078">
        <ele>73.3</ele>
        <time>2022-05-25T13:06:22Z</time>
      </trkpt>
      <trkpt lat="49.92265" lon="1.92078">
        <ele>73.3</ele>
        <time>2022-05-25T13:06:24Z</time>
      </trkpt>
      <trkpt lat="49.92265" lon="1.92078">
        <ele>73.3</ele>
        <time>2022-05-25T13:06:25Z</time>
      </trkpt>
      <trkpt lat="49.92265" lon="1.92078">
        <ele>73.3</ele>
        <time>2022-05-25T13:06:26Z</time>
      </trkpt>
      <trkpt lat="49.92265" lon="1.92078">
        <ele>73.3</ele>
        <time>2022-05-25T13:06:27Z</time>
      </trkpt>
      <trkpt lat="49.92265" lon="1.92078">
        <ele>73.3</ele>
        <time>2022-05-25T13:06:28Z</time>
      </trkpt>
      <trkpt lat="49.92265" lon="1.92078">
        <ele>73.3</ele>
        <time>2022-05-25T13:06:29Z</time>
      </trkpt>
      <trkpt lat="49.92265" lon="1.92078">
        <ele>73.3</ele>
        <time>2022-05-25T13:06:30Z</time>
      </trkpt>
      <trkpt lat="49.92265" lon="1.92078">
        <ele>73.3</ele>
        <time>2022-05-25T13:06:31Z</time>
      </trkpt>
      <trkpt lat="49.92265" lon="1.92078">
        <ele>73.3</ele>
        <time>2022-05-25T13:06:32Z</time>
      </trkpt>
      <trkpt lat="49.92265" lon="1.92078">
        <ele>73.3</ele>
        <time>2022-05-25T13:06:33Z</time>
      </trkpt>
      <trkpt lat="49.92265" lon="1.92078">
        <ele>73.3</ele>
        <time>2022-05-25T13:06:34Z</time>
      </trkpt>
      <trkpt lat="49.92265" lon="1.92078">
        <ele>73.3</ele>
        <time>2022-05-25T13:06:35Z</time>
      </trkpt>
      <trkpt lat="49.92265" lon="1.92078">
        <ele>73.3</ele>
        <time>2022-05-25T13:06:36Z</time>
      </trkpt>
      <trkpt lat="49.92265" lon="1.92078">
        <ele>73.3</ele>
        <time>2022-05-25T13:06:37Z</time>
      </trkpt>
      <trkpt lat="49.92265" lon="1.92078">
        <ele>73.3</ele>
        <time>2022-05-25T13:06:38Z</time>
      </trkpt>
      <trkpt lat="49.92265" lon="1.92078">
        <ele>73.3</ele>
        <time>2022-05-25T13:06:39Z</time>
      </trkpt>
      <trkpt lat="49.92265" lon="1.92078">
        <ele>73.3</ele>
        <time>2022-05-25T13:06:40Z</time>
      </trkpt>
      <trkpt lat="49.92265" lon="1.92078">
        <ele>73.3</ele>
        <time>2022-05-25T13:06:41Z</time>
      </trkpt>
      <trkpt lat="49.92265" lon="1.92078">
        <ele>73.3</ele>
        <time>2022-05-25T13:06:42Z</time>
      </trkpt>
      <trkpt lat="49.92265" lon="1.92078">
        <ele>73.3</ele>
        <time>2022-05-25T13:06:43Z</time>
      </trkpt>
      <trkpt lat="49.92265" lon="1.92078">
        <ele>73.3</ele>
        <time>2022-05-25T13:06:44Z</time>
      </trkpt>
      <trkpt lat="49.92265" lon="1.92078">
        <ele>73.3</ele>
        <time>2022-05-25T13:06:45Z</time>
      </trkpt>
      <trkpt lat="49.92265" lon="1.92078">
        <ele>73.3</ele>
        <time>2022-05-25T13:06:46Z</time>
      </trkpt>
      <trkpt lat="49.92265" lon="1.92078">
        <ele>73.3</ele>
        <time>2022-05-25T13:06:47Z</time>
      </trkpt>
      <trkpt lat="49.92265" lon="1.92078">
        <ele>73.3</ele>
        <time>2022-05-25T13:06:48Z</time>
      </trkpt>
      <trkpt lat="49.92265" lon="1.92078">
        <ele>73.3</ele>
        <time>2022-05-25T13:06:49Z</time>
      </trkpt>
      <trkpt lat="49.92265" lon="1.92078">
        <ele>73.3</ele>
        <time>2022-05-25T13:06:50Z</time>
      </trkpt>
      <trkpt lat="49.92265" lon="1.92078">
        <ele>73.3</ele>
        <time>2022-05-25T13:06:51Z</time>
      </trkpt>
      <trkpt lat="49.92265" lon="1.92078">
        <ele>73.3</ele>
        <time>2022-05-25T13:06:52Z</time>
      </trkpt>
      <trkpt lat="49.92265" lon="1.92078">
        <ele>73.3</ele>
        <time>2022-05-25T13:06:54Z</time>
      </trkpt>
      <trkpt lat="49.92265" lon="1.92078">
        <ele>73.3</ele>
        <time>2022-05-25T13:06:55Z</time>
      </trkpt>
      <trkpt lat="49.92265" lon="1.92078">
        <ele>73.3</ele>
        <time>2022-05-25T13:06:56Z</time>
      </trkpt>
      <trkpt lat="49.92265" lon="1.92078">
        <ele>73.3</ele>
        <time>2022-05-25T13:06:57Z</time>
      </trkpt>
      <trkpt lat="49.92265" lon="1.92078">
        <ele>73.3</ele>
        <time>2022-05-25T13:06:58Z</time>
      </trkpt>
      <trkpt lat="49.92265" lon="1.92078">
        <ele>73.3</ele>
        <time>2022-05-25T13:06:59Z</time>
      </trkpt>
      <trkpt lat="49.92266" lon="1.92078">
        <ele>73.3</ele>
        <time>2022-05-25T13:07:00Z</time>
      </trkpt>
      <trkpt lat="49.92266" lon="1.92078">
        <ele>73.4</ele>
        <time>2022-05-25T13:07:01Z</time>
      </trkpt>
      <trkpt lat="49.92268" lon="1.92079">
        <ele>73.4</ele>
        <time>2022-05-25T13:07:02Z</time>
      </trkpt>
      <trkpt lat="49.92268" lon="1.9208">
        <ele>73.4</ele>
        <time>2022-05-25T13:07:04Z</time>
      </trkpt>
      <trkpt lat="49.92268" lon="1.92081">
        <ele>73.4</ele>
        <time>2022-05-25T13:07:05Z</time>
      </trkpt>
      <trkpt lat="49.92269" lon="1.92083">
        <ele>73.4</ele>
        <time>2022-05-25T13:07:06Z</time>
      </trkpt>
      <trkpt lat="49.9227" lon="1.92084">
        <ele>73.5</ele>
        <time>2022-05-25T13:07:07Z</time>
      </trkpt>
      <trkpt lat="49.92272" lon="1.92086">
        <ele>73.5</ele>
        <time>2022-05-25T13:07:09Z</time>
      </trkpt>
      <trkpt lat="49.92273" lon="1.92087">
        <ele>73.5</ele>
        <time>2022-05-25T13:07:10Z</time>
      </trkpt>
      <trkpt lat="49.92274" lon="1.92089">
        <ele>73.5</ele>
        <time>2022-05-25T13:07:11Z</time>
      </trkpt>
      <trkpt lat="49.92274" lon="1.92092">
        <ele>73.5</ele>
        <time>2022-05-25T13:07:12Z</time>
      </trkpt>
      <trkpt lat="49.92275" lon="1.92094">
        <ele>73.4</ele>
        <time>2022-05-25T13:07:13Z</time>
      </trkpt>
      <trkpt lat="49.92275" lon="1.92096">
        <ele>73.4</ele>
        <time>2022-05-25T13:07:14Z</time>
      </trkpt>
      <trkpt lat="49.92276" lon="1.92099">
        <ele>73.4</ele>
        <time>2022-05-25T13:07:16Z</time>
      </trkpt>
      <trkpt lat="49.92277" lon="1.921">
        <ele>73.4</ele>
        <time>2022-05-25T13:07:17Z</time>
      </trkpt>
      <trkpt lat="49.92277" lon="1.92101">
        <ele>73.3</ele>
        <time>2022-05-25T13:07:18Z</time>
      </trkpt>
      <trkpt lat="49.92278" lon="1.92103">
        <ele>73.3</ele>
        <time>2022-05-25T13:07:19Z</time>
      </trkpt>
      <trkpt lat="49.92278" lon="1.92104">
        <ele>73.3</ele>
        <time>2022-05-25T13:07:21Z</time>
      </trkpt>
      <trkpt lat="49.92278" lon="1.92106">
        <ele>73.3</ele>
        <time>2022-05-25T13:07:22Z</time>
      </trkpt>
      <trkpt lat="49.92278" lon="1.92107">
        <ele>73.3</ele>
        <time>2022-05-25T13:07:23Z</time>
      </trkpt>
      <trkpt lat="49.92278" lon="1.92109">
        <ele>73.2</ele>
        <time>2022-05-25T13:07:24Z</time>
      </trkpt>
      <trkpt lat="49.92278" lon="1.92111">
        <ele>73.2</ele>
        <time>2022-05-25T13:07:25Z</time>
      </trkpt>
      <trkpt lat="49.92278" lon="1.92112">
        <ele>73.2</ele>
        <time>2022-05-25T13:07:26Z</time>
      </trkpt>
      <trkpt lat="49.92278" lon="1.92115">
        <ele>73.2</ele>
        <time>2022-05-25T13:07:28Z</time>
      </trkpt>
      <trkpt lat="49.92278" lon="1.92116">
        <ele>73.1</ele>
        <time>2022-05-25T13:07:29Z</time>
      </trkpt>
      <trkpt lat="49.92278" lon="1.92117">
        <ele>73.1</ele>
        <time>2022-05-25T13:07:30Z</time>
      </trkpt>
      <trkpt lat="49.92278" lon="1.92118">
        <ele>73.1</ele>
        <time>2022-05-25T13:07:31Z</time>
      </trkpt>
      <trkpt lat="49.92278" lon="1.92121">
        <ele>73.1</ele>
        <time>2022-05-25T13:07:32Z</time>
      </trkpt>
      <trkpt lat="49.92278" lon="1.92122">
        <ele>73.1</ele>
        <time>2022-05-25T13:07:33Z</time>
      </trkpt>
      <trkpt lat="49.92279" lon="1.92124">
        <ele>73</ele>
        <time>2022-05-25T13:07:34Z</time>
      </trkpt>
      <trkpt lat="49.92279" lon="1.92125">
        <ele>73</ele>
        <time>2022-05-25T13:07:36Z</time>
      </trkpt>
      <trkpt lat="49.92279" lon="1.92127">
        <ele>73</ele>
        <time>2022-05-25T13:07:37Z</time>
      </trkpt>
      <trkpt lat="49.92279" lon="1.92129">
        <ele>73</ele>
        <time>2022-05-25T13:07:38Z</time>
      </trkpt>
      <trkpt lat="49.92279" lon="1.92131">
        <ele>73</ele>
        <time>2022-05-25T13:07:39Z</time>
      </trkpt>
      <trkpt lat="49.92279" lon="1.92133">
        <ele>72.9</ele>
        <time>2022-05-25T13:07:40Z</time>
      </trkpt>
      <trkpt lat="49.9228" lon="1.92136">
        <ele>72.9</ele>
        <time>2022-05-25T13:07:41Z</time>
      </trkpt>
      <trkpt lat="49.9228" lon="1.92138">
        <ele>72.9</ele>
        <time>2022-05-25T13:07:42Z</time>
      </trkpt>
      <trkpt lat="49.9228" lon="1.92141">
        <ele>72.8</ele>
        <time>2022-05-25T13:07:43Z</time>
      </trkpt>
      <trkpt lat="49.9228" lon="1.92142">
        <ele>72.8</ele>
        <time>2022-05-25T13:07:45Z</time>
      </trkpt>
      <trkpt lat="49.9228" lon="1.92144">
        <ele>72.8</ele>
        <time>2022-05-25T13:07:46Z</time>
      </trkpt>
      <trkpt lat="49.92279" lon="1.92146">
        <ele>72.8</ele>
        <time>2022-05-25T13:07:47Z</time>
      </trkpt>
      <trkpt lat="49.92279" lon="1.92148">
        <ele>72.7</ele>
        <time>2022-05-25T13:07:48Z</time>
      </trkpt>
      <trkpt lat="49.92279" lon="1.9215">
        <ele>72.7</ele>
        <time>2022-05-25T13:07:49Z</time>
      </trkpt>
      <trkpt lat="49.92279" lon="1.92152">
        <ele>72.7</ele>
        <time>2022-05-25T13:07:50Z</time>
      </trkpt>
      <trkpt lat="49.92278" lon="1.92154">
        <ele>72.7</ele>
        <time>2022-05-25T13:07:51Z</time>
      </trkpt>
      <trkpt lat="49.92278" lon="1.92156">
        <ele>72.6</ele>
        <time>2022-05-25T13:07:52Z</time>
      </trkpt>
      <trkpt lat="49.92277" lon="1.92158">
        <ele>72.6</ele>
        <time>2022-05-25T13:07:53Z</time>
      </trkpt>
      <trkpt lat="49.92277" lon="1.9216">
        <ele>72.6</ele>
        <time>2022-05-25T13:07:54Z</time>
      </trkpt>
      <trkpt lat="49.92277" lon="1.92162">
        <ele>72.6</ele>
        <time>2022-05-25T13:07:55Z</time>
      </trkpt>
      <trkpt lat="49.92277" lon="1.92164">
        <ele>72.5</ele>
        <time>2022-05-25T13:07:57Z</time>
      </trkpt>
      <trkpt lat="49.92277" lon="1.92166">
        <ele>72.5</ele>
        <time>2022-05-25T13:07:58Z</time>
      </trkpt>
      <trkpt lat="49.92276" lon="1.92168">
        <ele>72.5</ele>
        <time>2022-05-25T13:07:59Z</time>
      </trkpt>
      <trkpt lat="49.92276" lon="1.9217">
        <ele>72.5</ele>
        <time>2022-05-25T13:08:00Z</time>
      </trkpt>
      <trkpt lat="49.92276" lon="1.92172">
        <ele>72.4</ele>
        <time>2022-05-25T13:08:02Z</time>
      </trkpt>
      <trkpt lat="49.92276" lon="1.92174">
        <ele>72.4</ele>
        <time>2022-05-25T13:08:03Z</time>
      </trkpt>
      <trkpt lat="49.92276" lon="1.92177">
        <ele>72.4</ele>
        <time>2022-05-25T13:08:04Z</time>
      </trkpt>
      <trkpt lat="49.92276" lon="1.9218">
        <ele>72.3</ele>
        <time>2022-05-25T13:08:05Z</time>
      </trkpt>
      <trkpt lat="49.92276" lon="1.92181">
        <ele>72.3</ele>
        <time>2022-05-25T13:08:06Z</time>
      </trkpt>
      <trkpt lat="49.92275" lon="1.92182">
        <ele>72.3</ele>
        <time>2022-05-25T13:08:07Z</time>
      </trkpt>
      <trkpt lat="49.92275" lon="1.92186">
        <ele>72.3</ele>
        <time>2022-05-25T13:08:09Z</time>
      </trkpt>
      <trkpt lat="49.92275" lon="1.92187">
        <ele>72.3</ele>
        <time>2022-05-25T13:08:10Z</time>
      </trkpt>
      <trkpt lat="49.92275" lon="1.92188">
        <ele>72.2</ele>
        <time>2022-05-25T13:08:11Z</time>
      </trkpt>
      <trkpt lat="49.92274" lon="1.92191">
        <ele>72.2</ele>
        <time>2022-05-25T13:08:12Z</time>
      </trkpt>
      <trkpt lat="49.92274" lon="1.92193">
        <ele>72.2</ele>
        <time>2022-05-25T13:08:13Z</time>
      </trkpt>
      <trkpt lat="49.92274" lon="1.92195">
        <ele>72.1</ele>
        <time>2022-05-25T13:08:14Z</time>
      </trkpt>
      <trkpt lat="49.92274" lon="1.92197">
        <ele>72.1</ele>
        <time>2022-05-25T13:08:15Z</time>
      </trkpt>
      <trkpt lat="49.92274" lon="1.92199">
        <ele>72.1</ele>
        <time>2022-05-25T13:08:16Z</time>
      </trkpt>
      <trkpt lat="49.92274" lon="1.92201">
        <ele>72.1</ele>
        <time>2022-05-25T13:08:17Z</time>
      </trkpt>
      <trkpt lat="49.92274" lon="1.92203">
        <ele>72.1</ele>
        <time>2022-05-25T13:08:18Z</time>
      </trkpt>
      <trkpt lat="49.92274" lon="1.92204">
        <ele>72</ele>
        <time>2022-05-25T13:08:19Z</time>
      </trkpt>
      <trkpt lat="49.92274" lon="1.92206">
        <ele>72</ele>
        <time>2022-05-25T13:08:21Z</time>
      </trkpt>
      <trkpt lat="49.92274" lon="1.92208">
        <ele>72</ele>
        <time>2022-05-25T13:08:22Z</time>
      </trkpt>
      <trkpt lat="49.92274" lon="1.9221">
        <ele>72</ele>
        <time>2022-05-25T13:08:23Z</time>
      </trkpt>
      <trkpt lat="49.92274" lon="1.92212">
        <ele>71.9</ele>
        <time>2022-05-25T13:08:24Z</time>
      </trkpt>
      <trkpt lat="49.92274" lon="1.92214">
        <ele>71.9</ele>
        <time>2022-05-25T13:08:25Z</time>
      </trkpt>
      <trkpt lat="49.92274" lon="1.92216">
        <ele>71.9</ele>
        <time>2022-05-25T13:08:26Z</time>
      </trkpt>
      <trkpt lat="49.92274" lon="1.9222">
        <ele>71.8</ele>
        <time>2022-05-25T13:08:27Z</time>
      </trkpt>
      <trkpt lat="49.92274" lon="1.92221">
        <ele>71.8</ele>
        <time>2022-05-25T13:08:28Z</time>
      </trkpt>
      <trkpt lat="49.92274" lon="1.92223">
        <ele>71.8</ele>
        <time>2022-05-25T13:08:29Z</time>
      </trkpt>
      <trkpt lat="49.92275" lon="1.92226">
        <ele>71.8</ele>
        <time>2022-05-25T13:08:30Z</time>
      </trkpt>
      <trkpt lat="49.92275" lon="1.92227">
        <ele>71.7</ele>
        <time>2022-05-25T13:08:31Z</time>
      </trkpt>
      <trkpt lat="49.92275" lon="1.92229">
        <ele>71.7</ele>
        <time>2022-05-25T13:08:32Z</time>
      </trkpt>
      <trkpt lat="49.92274" lon="1.9223">
        <ele>71.7</ele>
        <time>2022-05-25T13:08:34Z</time>
      </trkpt>
      <trkpt lat="49.92274" lon="1.92232">
        <ele>71.7</ele>
        <time>2022-05-25T13:08:35Z</time>
      </trkpt>
      <trkpt lat="49.92275" lon="1.92233">
        <ele>71.7</ele>
        <time>2022-05-25T13:08:36Z</time>
      </trkpt>
      <trkpt lat="49.92275" lon="1.92236">
        <ele>71.6</ele>
        <time>2022-05-25T13:08:37Z</time>
      </trkpt>
      <trkpt lat="49.92275" lon="1.92238">
        <ele>71.6</ele>
        <time>2022-05-25T13:08:38Z</time>
      </trkpt>
      <trkpt lat="49.92275" lon="1.92239">
        <ele>71.6</ele>
        <time>2022-05-25T13:08:39Z</time>
      </trkpt>
      <trkpt lat="49.92275" lon="1.92242">
        <ele>71.6</ele>
        <time>2022-05-25T13:08:40Z</time>
      </trkpt>
      <trkpt lat="49.92275" lon="1.92244">
        <ele>71.5</ele>
        <time>2022-05-25T13:08:41Z</time>
      </trkpt>
      <trkpt lat="49.92275" lon="1.92245">
        <ele>71.5</ele>
        <time>2022-05-25T13:08:42Z</time>
      </trkpt>
      <trkpt lat="49.92275" lon="1.92247">
        <ele>71.5</ele>
        <time>2022-05-25T13:08:44Z</time>
      </trkpt>
      <trkpt lat="49.92275" lon="1.9225">
        <ele>71.5</ele>
        <time>2022-05-25T13:08:45Z</time>
      </trkpt>
      <trkpt lat="49.92275" lon="1.92254">
        <ele>71.4</ele>
        <time>2022-05-25T13:08:47Z</time>
      </trkpt>
      <trkpt lat="49.92274" lon="1.92255">
        <ele>71.4</ele>
        <time>2022-05-25T13:08:48Z</time>
      </trkpt>
      <trkpt lat="49.92274" lon="1.92256">
        <ele>71.4</ele>
        <time>2022-05-25T13:08:49Z</time>
      </trkpt>
      <trkpt lat="49.92274" lon="1.92258">
        <ele>71.4</ele>
        <time>2022-05-25T13:08:50Z</time>
      </trkpt>
      <trkpt lat="49.92274" lon="1.92261">
        <ele>71.3</ele>
        <time>2022-05-25T13:08:51Z</time>
      </trkpt>
      <trkpt lat="49.92274" lon="1.92263">
        <ele>71.3</ele>
        <time>2022-05-25T13:08:52Z</time>
      </trkpt>
      <trkpt lat="49.92274" lon="1.92265">
        <ele>71.3</ele>
        <time>2022-05-25T13:08:53Z</time>
      </trkpt>
      <trkpt lat="49.92273" lon="1.92267">
        <ele>71.3</ele>
        <time>2022-05-25T13:08:55Z</time>
      </trkpt>
      <trkpt lat="49.92273" lon="1.92269">
        <ele>71.2</ele>
        <time>2022-05-25T13:08:56Z</time>
      </trkpt>
      <trkpt lat="49.92273" lon="1.92271">
        <ele>71.2</ele>
        <time>2022-05-25T13:08:57Z</time>
      </trkpt>
      <trkpt lat="49.92273" lon="1.92273">
        <ele>71.2</ele>
        <time>2022-05-25T13:08:58Z</time>
      </trkpt>
      <trkpt lat="49.92272" lon="1.92276">
        <ele>71.1</ele>
        <time>2022-05-25T13:08:59Z</time>
      </trkpt>
      <trkpt lat="49.92272" lon="1.92278">
        <ele>71.1</ele>
        <time>2022-05-25T13:09:00Z</time>
      </trkpt>
      <trkpt lat="49.92272" lon="1.92279">
        <ele>71.1</ele>
        <time>2022-05-25T13:09:01Z</time>
      </trkpt>
      <trkpt lat="49.92272" lon="1.92281">
        <ele>71.1</ele>
        <time>2022-05-25T13:09:02Z</time>
      </trkpt>
      <trkpt lat="49.92272" lon="1.92282">
        <ele>71.1</ele>
        <time>2022-05-25T13:09:03Z</time>
      </trkpt>
      <trkpt lat="49.92272" lon="1.92285">
        <ele>71</ele>
        <time>2022-05-25T13:09:05Z</time>
      </trkpt>
      <trkpt lat="49.92271" lon="1.92288">
        <ele>71</ele>
        <time>2022-05-25T13:09:06Z</time>
      </trkpt>
      <trkpt lat="49.92271" lon="1.9229">
        <ele>71</ele>
        <time>2022-05-25T13:09:07Z</time>
      </trkpt>
      <trkpt lat="49.92271" lon="1.92292">
        <ele>70.9</ele>
        <time>2022-05-25T13:09:08Z</time>
      </trkpt>
      <trkpt lat="49.92271" lon="1.92294">
        <ele>70.9</ele>
        <time>2022-05-25T13:09:09Z</time>
      </trkpt>
      <trkpt lat="49.92271" lon="1.92296">
        <ele>70.9</ele>
        <time>2022-05-25T13:09:10Z</time>
      </trkpt>
      <trkpt lat="49.9227" lon="1.92298">
        <ele>70.9</ele>
        <time>2022-05-25T13:09:11Z</time>
      </trkpt>
      <trkpt lat="49.9227" lon="1.92301">
        <ele>70.8</ele>
        <time>2022-05-25T13:09:12Z</time>
      </trkpt>
      <trkpt lat="49.9227" lon="1.92303">
        <ele>70.8</ele>
        <time>2022-05-25T13:09:13Z</time>
      </trkpt>
      <trkpt lat="49.9227" lon="1.92304">
        <ele>70.8</ele>
        <time>2022-05-25T13:09:15Z</time>
      </trkpt>
      <trkpt lat="49.9227" lon="1.92306">
        <ele>70.8</ele>
        <time>2022-05-25T13:09:16Z</time>
      </trkpt>
      <trkpt lat="49.9227" lon="1.92307">
        <ele>70.7</ele>
        <time>2022-05-25T13:09:17Z</time>
      </trkpt>
      <trkpt lat="49.92269" lon="1.92309">
        <ele>70.7</ele>
        <time>2022-05-25T13:09:18Z</time>
      </trkpt>
      <trkpt lat="49.92269" lon="1.92311">
        <ele>70.7</ele>
        <time>2022-05-25T13:09:19Z</time>
      </trkpt>
      <trkpt lat="49.92269" lon="1.92314">
        <ele>70.7</ele>
        <time>2022-05-25T13:09:20Z</time>
      </trkpt>
      <trkpt lat="49.92269" lon="1.92318">
        <ele>70.6</ele>
        <time>2022-05-25T13:09:22Z</time>
      </trkpt>
      <trkpt lat="49.92269" lon="1.92321">
        <ele>70.6</ele>
        <time>2022-05-25T13:09:24Z</time>
      </trkpt>
      <trkpt lat="49.92269" lon="1.92323">
        <ele>70.6</ele>
        <time>2022-05-25T13:09:25Z</time>
      </trkpt>
      <trkpt lat="49.92269" lon="1.92325">
        <ele>70.5</ele>
        <time>2022-05-25T13:09:26Z</time>
      </trkpt>
      <trkpt lat="49.92268" lon="1.92327">
        <ele>70.5</ele>
        <time>2022-05-25T13:09:27Z</time>
      </trkpt>
      <trkpt lat="49.92268" lon="1.92329">
        <ele>70.5</ele>
        <time>2022-05-25T13:09:29Z</time>
      </trkpt>
      <trkpt lat="49.92268" lon="1.9233">
        <ele>70.5</ele>
        <time>2022-05-25T13:09:30Z</time>
      </trkpt>
      <trkpt lat="49.92268" lon="1.92332">
        <ele>70.4</ele>
        <time>2022-05-25T13:09:31Z</time>
      </trkpt>
      <trkpt lat="49.92267" lon="1.92334">
        <ele>70.4</ele>
        <time>2022-05-25T13:09:32Z</time>
      </trkpt>
      <trkpt lat="49.92267" lon="1.92336">
        <ele>70.4</ele>
        <time>2022-05-25T13:09:33Z</time>
      </trkpt>
      <trkpt lat="49.92267" lon="1.92338">
        <ele>70.4</ele>
        <time>2022-05-25T13:09:34Z</time>
      </trkpt>
      <trkpt lat="49.92267" lon="1.92341">
        <ele>70.3</ele>
        <time>2022-05-25T13:09:35Z</time>
      </trkpt>
      <trkpt lat="49.92266" lon="1.92343">
        <ele>70.3</ele>
        <time>2022-05-25T13:09:36Z</time>
      </trkpt>
      <trkpt lat="49.92265" lon="1.92346">
        <ele>70.3</ele>
        <time>2022-05-25T13:09:37Z</time>
      </trkpt>
      <trkpt lat="49.92265" lon="1.92347">
        <ele>70.2</ele>
        <time>2022-05-25T13:09:38Z</time>
      </trkpt>
      <trkpt lat="49.92265" lon="1.92349">
        <ele>70.2</ele>
        <time>2022-05-25T13:09:39Z</time>
      </trkpt>
      <trkpt lat="49.92264" lon="1.9235">
        <ele>70.2</ele>
        <time>2022-05-25T13:09:40Z</time>
      </trkpt>
      <trkpt lat="49.92264" lon="1.92352">
        <ele>70.2</ele>
        <time>2022-05-25T13:09:42Z</time>
      </trkpt>
      <trkpt lat="49.92264" lon="1.92353">
        <ele>70.2</ele>
        <time>2022-05-25T13:09:43Z</time>
      </trkpt>
      <trkpt lat="49.92264" lon="1.92357">
        <ele>70.1</ele>
        <time>2022-05-25T13:09:44Z</time>
      </trkpt>
      <trkpt lat="49.92263" lon="1.92358">
        <ele>70.1</ele>
        <time>2022-05-25T13:09:45Z</time>
      </trkpt>
      <trkpt lat="49.92263" lon="1.92359">
        <ele>70.1</ele>
        <time>2022-05-25T13:09:46Z</time>
      </trkpt>
      <trkpt lat="49.92263" lon="1.92362">
        <ele>70.1</ele>
        <time>2022-05-25T13:09:47Z</time>
      </trkpt>
      <trkpt lat="49.92263" lon="1.92364">
        <ele>70</ele>
        <time>2022-05-25T13:09:48Z</time>
      </trkpt>
      <trkpt lat="49.92263" lon="1.92367">
        <ele>70</ele>
        <time>2022-05-25T13:09:49Z</time>
      </trkpt>
      <trkpt lat="49.92263" lon="1.92369">
        <ele>70</ele>
        <time>2022-05-25T13:09:50Z</time>
      </trkpt>
      <trkpt lat="49.92263" lon="1.9237">
        <ele>69.9</ele>
        <time>2022-05-25T13:09:51Z</time>
      </trkpt>
      <trkpt lat="49.92263" lon="1.92374">
        <ele>69.9</ele>
        <time>2022-05-25T13:09:52Z</time>
      </trkpt>
      <trkpt lat="49.92263" lon="1.92375">
        <ele>69.9</ele>
        <time>2022-05-25T13:09:53Z</time>
      </trkpt>
      <trkpt lat="49.92263" lon="1.92377">
        <ele>69.9</ele>
        <time>2022-05-25T13:09:55Z</time>
      </trkpt>
      <trkpt lat="49.92262" lon="1.92378">
        <ele>69.8</ele>
        <time>2022-05-25T13:09:56Z</time>
      </trkpt>
      <trkpt lat="49.92262" lon="1.9238">
        <ele>69.8</ele>
        <time>2022-05-25T13:09:57Z</time>
      </trkpt>
      <trkpt lat="49.92262" lon="1.92382">
        <ele>69.8</ele>
        <time>2022-05-25T13:09:58Z</time>
      </trkpt>
      <trkpt lat="49.92262" lon="1.92384">
        <ele>69.8</ele>
        <time>2022-05-25T13:09:59Z</time>
      </trkpt>
      <trkpt lat="49.92261" lon="1.92386">
        <ele>69.8</ele>
        <time>2022-05-25T13:10:00Z</time>
      </trkpt>
      <trkpt lat="49.92261" lon="1.92389">
        <ele>69.7</ele>
        <time>2022-05-25T13:10:01Z</time>
      </trkpt>
      <trkpt lat="49.92261" lon="1.9239">
        <ele>69.7</ele>
        <time>2022-05-25T13:10:02Z</time>
      </trkpt>
      <trkpt lat="49.92261" lon="1.92391">
        <ele>69.7</ele>
        <time>2022-05-25T13:10:03Z</time>
      </trkpt>
      <trkpt lat="49.92261" lon="1.92394">
        <ele>69.7</ele>
        <time>2022-05-25T13:10:04Z</time>
      </trkpt>
      <trkpt lat="49.9226" lon="1.92395">
        <ele>69.6</ele>
        <time>2022-05-25T13:10:05Z</time>
      </trkpt>
      <trkpt lat="49.9226" lon="1.92397">
        <ele>69.6</ele>
        <time>2022-05-25T13:10:06Z</time>
      </trkpt>
      <trkpt lat="49.9226" lon="1.92399">
        <ele>69.6</ele>
        <time>2022-05-25T13:10:08Z</time>
      </trkpt>
      <trkpt lat="49.9226" lon="1.92401">
        <ele>69.6</ele>
        <time>2022-05-25T13:10:09Z</time>
      </trkpt>
      <trkpt lat="49.92259" lon="1.92403">
        <ele>69.5</ele>
        <time>2022-05-25T13:10:10Z</time>
      </trkpt>
      <trkpt lat="49.92259" lon="1.92405">
        <ele>69.5</ele>
        <time>2022-05-25T13:10:11Z</time>
      </trkpt>
      <trkpt lat="49.92259" lon="1.92407">
        <ele>69.5</ele>
        <time>2022-05-25T13:10:12Z</time>
      </trkpt>
      <trkpt lat="49.92258" lon="1.92409">
        <ele>69.5</ele>
        <time>2022-05-25T13:10:13Z</time>
      </trkpt>
      <trkpt lat="49.92258" lon="1.92412">
        <ele>69.4</ele>
        <time>2022-05-25T13:10:14Z</time>
      </trkpt>
      <trkpt lat="49.92258" lon="1.92413">
        <ele>69.4</ele>
        <time>2022-05-25T13:10:15Z</time>
      </trkpt>
      <trkpt lat="49.92257" lon="1.92415">
        <ele>69.4</ele>
        <time>2022-05-25T13:10:16Z</time>
      </trkpt>
      <trkpt lat="49.92257" lon="1.92416">
        <ele>69.4</ele>
        <time>2022-05-25T13:10:17Z</time>
      </trkpt>
      <trkpt lat="49.92257" lon="1.92418">
        <ele>69.3</ele>
        <time>2022-05-25T13:10:18Z</time>
      </trkpt>
      <trkpt lat="49.92257" lon="1.9242">
        <ele>69.3</ele>
        <time>2022-05-25T13:10:19Z</time>
      </trkpt>
      <trkpt lat="49.92256" lon="1.92422">
        <ele>69.3</ele>
        <time>2022-05-25T13:10:21Z</time>
      </trkpt>
      <trkpt lat="49.92257" lon="1.92423">
        <ele>69.3</ele>
        <time>2022-05-25T13:10:22Z</time>
      </trkpt>
      <trkpt lat="49.92256" lon="1.92425">
        <ele>69.3</ele>
        <time>2022-05-25T13:10:23Z</time>
      </trkpt>
      <trkpt lat="49.92256" lon="1.92429">
        <ele>69.2</ele>
        <time>2022-05-25T13:10:24Z</time>
      </trkpt>
      <trkpt lat="49.92256" lon="1.9243">
        <ele>69.2</ele>
        <time>2022-05-25T13:10:25Z</time>
      </trkpt>
      <trkpt lat="49.92256" lon="1.92431">
        <ele>69.2</ele>
        <time>2022-05-25T13:10:26Z</time>
      </trkpt>
      <trkpt lat="49.92255" lon="1.92435">
        <ele>69.1</ele>
        <time>2022-05-25T13:10:27Z</time>
      </trkpt>
      <trkpt lat="49.92255" lon="1.92436">
        <ele>69.1</ele>
        <time>2022-05-25T13:10:28Z</time>
      </trkpt>
      <trkpt lat="49.92255" lon="1.92437">
        <ele>69.1</ele>
        <time>2022-05-25T13:10:29Z</time>
      </trkpt>
      <trkpt lat="49.92255" lon="1.92439">
        <ele>69.1</ele>
        <time>2022-05-25T13:10:30Z</time>
      </trkpt>
      <trkpt lat="49.92254" lon="1.92441">
        <ele>69.1</ele>
        <time>2022-05-25T13:10:31Z</time>
      </trkpt>
      <trkpt lat="49.92254" lon="1.92443">
        <ele>69</ele>
        <time>2022-05-25T13:10:32Z</time>
      </trkpt>
      <trkpt lat="49.92254" lon="1.92445">
        <ele>69</ele>
        <time>2022-05-25T13:10:33Z</time>
      </trkpt>
      <trkpt lat="49.92253" lon="1.92446">
        <ele>69</ele>
        <time>2022-05-25T13:10:34Z</time>
      </trkpt>
      <trkpt lat="49.92253" lon="1.92448">
        <ele>69</ele>
        <time>2022-05-25T13:10:36Z</time>
      </trkpt>
      <trkpt lat="49.92252" lon="1.92451">
        <ele>68.9</ele>
        <time>2022-05-25T13:10:37Z</time>
      </trkpt>
      <trkpt lat="49.92252" lon="1.92456">
        <ele>68.9</ele>
        <time>2022-05-25T13:10:38Z</time>
      </trkpt>
      <trkpt lat="49.92251" lon="1.92457">
        <ele>68.8</ele>
        <time>2022-05-25T13:10:40Z</time>
      </trkpt>
      <trkpt lat="49.92251" lon="1.92459">
        <ele>68.8</ele>
        <time>2022-05-25T13:10:41Z</time>
      </trkpt>
      <trkpt lat="49.9225" lon="1.92461">
        <ele>68.8</ele>
        <time>2022-05-25T13:10:42Z</time>
      </trkpt>
      <trkpt lat="49.9225" lon="1.92463">
        <ele>68.8</ele>
        <time>2022-05-25T13:10:44Z</time>
      </trkpt>
      <trkpt lat="49.92249" lon="1.92466">
        <ele>68.7</ele>
        <time>2022-05-25T13:10:45Z</time>
      </trkpt>
      <trkpt lat="49.92248" lon="1.92469">
        <ele>68.7</ele>
        <time>2022-05-25T13:10:46Z</time>
      </trkpt>
      <trkpt lat="49.92248" lon="1.9247">
        <ele>68.7</ele>
        <time>2022-05-25T13:10:47Z</time>
      </trkpt>
      <trkpt lat="49.92248" lon="1.92471">
        <ele>68.7</ele>
        <time>2022-05-25T13:10:48Z</time>
      </trkpt>
      <trkpt lat="49.92248" lon="1.92473">
        <ele>68.6</ele>
        <time>2022-05-25T13:10:49Z</time>
      </trkpt>
      <trkpt lat="49.92247" lon="1.92477">
        <ele>68.6</ele>
        <time>2022-05-25T13:10:51Z</time>
      </trkpt>
      <trkpt lat="49.92247" lon="1.9248">
        <ele>68.5</ele>
        <time>2022-05-25T13:10:53Z</time>
      </trkpt>
      <trkpt lat="49.92246" lon="1.92482">
        <ele>68.5</ele>
        <time>2022-05-25T13:10:54Z</time>
      </trkpt>
      <trkpt lat="49.92246" lon="1.92484">
        <ele>68.5</ele>
        <time>2022-05-25T13:10:55Z</time>
      </trkpt>
      <trkpt lat="49.92245" lon="1.92487">
        <ele>68.5</ele>
        <time>2022-05-25T13:10:56Z</time>
      </trkpt>
      <trkpt lat="49.92245" lon="1.92489">
        <ele>68.4</ele>
        <time>2022-05-25T13:10:57Z</time>
      </trkpt>
      <trkpt lat="49.92245" lon="1.92492">
        <ele>68.4</ele>
        <time>2022-05-25T13:10:58Z</time>
      </trkpt>
      <trkpt lat="49.92245" lon="1.92494">
        <ele>68.4</ele>
        <time>2022-05-25T13:10:59Z</time>
      </trkpt>
      <trkpt lat="49.92245" lon="1.92495">
        <ele>68.4</ele>
        <time>2022-05-25T13:11:00Z</time>
      </trkpt>
      <trkpt lat="49.92244" lon="1.92497">
        <ele>68.3</ele>
        <time>2022-05-25T13:11:01Z</time>
      </trkpt>
      <trkpt lat="49.92244" lon="1.92499">
        <ele>68.3</ele>
        <time>2022-05-25T13:11:02Z</time>
      </trkpt>
      <trkpt lat="49.92244" lon="1.92501">
        <ele>68.3</ele>
        <time>2022-05-25T13:11:04Z</time>
      </trkpt>
      <trkpt lat="49.92243" lon="1.92502">
        <ele>68.3</ele>
        <time>2022-05-25T13:11:05Z</time>
      </trkpt>
      <trkpt lat="49.92243" lon="1.92504">
        <ele>68.2</ele>
        <time>2022-05-25T13:11:06Z</time>
      </trkpt>
      <trkpt lat="49.92243" lon="1.92506">
        <ele>68.2</ele>
        <time>2022-05-25T13:11:07Z</time>
      </trkpt>
      <trkpt lat="49.92242" lon="1.92509">
        <ele>68.2</ele>
        <time>2022-05-25T13:11:08Z</time>
      </trkpt>
      <trkpt lat="49.92242" lon="1.9251">
        <ele>68.2</ele>
        <time>2022-05-25T13:11:09Z</time>
      </trkpt>
      <trkpt lat="49.92242" lon="1.92511">
        <ele>68.1</ele>
        <time>2022-05-25T13:11:10Z</time>
      </trkpt>
      <trkpt lat="49.92241" lon="1.92514">
        <ele>68.1</ele>
        <time>2022-05-25T13:11:11Z</time>
      </trkpt>
      <trkpt lat="49.92241" lon="1.92516">
        <ele>68.1</ele>
        <time>2022-05-25T13:11:12Z</time>
      </trkpt>
      <trkpt lat="49.92241" lon="1.92517">
        <ele>68.1</ele>
        <time>2022-05-25T13:11:13Z</time>
      </trkpt>
      <trkpt lat="49.92241" lon="1.92519">
        <ele>68</ele>
        <time>2022-05-25T13:11:14Z</time>
      </trkpt>
      <trkpt lat="49.92241" lon="1.92521">
        <ele>68</ele>
        <time>2022-05-25T13:11:15Z</time>
      </trkpt>
      <trkpt lat="49.92241" lon="1.92523">
        <ele>68</ele>
        <time>2022-05-25T13:11:16Z</time>
      </trkpt>
      <trkpt lat="49.9224" lon="1.92524">
        <ele>68</ele>
        <time>2022-05-25T13:11:17Z</time>
      </trkpt>
      <trkpt lat="49.9224" lon="1.92526">
        <ele>68</ele>
        <time>2022-05-25T13:11:18Z</time>
      </trkpt>
      <trkpt lat="49.92239" lon="1.92529">
        <ele>67.9</ele>
        <time>2022-05-25T13:11:20Z</time>
      </trkpt>
      <trkpt lat="49.92239" lon="1.92531">
        <ele>67.9</ele>
        <time>2022-05-25T13:11:21Z</time>
      </trkpt>
      <trkpt lat="49.92239" lon="1.92532">
        <ele>67.9</ele>
        <time>2022-05-25T13:11:22Z</time>
      </trkpt>
      <trkpt lat="49.92238" lon="1.92534">
        <ele>67.9</ele>
        <time>2022-05-25T13:11:23Z</time>
      </trkpt>
      <trkpt lat="49.92238" lon="1.92536">
        <ele>67.8</ele>
        <time>2022-05-25T13:11:24Z</time>
      </trkpt>
      <trkpt lat="49.92238" lon="1.92539">
        <ele>67.8</ele>
        <time>2022-05-25T13:11:25Z</time>
      </trkpt>
      <trkpt lat="49.92238" lon="1.92541">
        <ele>67.8</ele>
        <time>2022-05-25T13:11:26Z</time>
      </trkpt>
      <trkpt lat="49.92238" lon="1.92542">
        <ele>67.8</ele>
        <time>2022-05-25T13:11:27Z</time>
      </trkpt>
      <trkpt lat="49.92237" lon="1.92545">
        <ele>67.7</ele>
        <time>2022-05-25T13:11:28Z</time>
      </trkpt>
      <trkpt lat="49.92237" lon="1.92547">
        <ele>67.7</ele>
        <time>2022-05-25T13:11:30Z</time>
      </trkpt>
      <trkpt lat="49.92237" lon="1.92549">
        <ele>67.7</ele>
        <time>2022-05-25T13:11:31Z</time>
      </trkpt>
      <trkpt lat="49.92237" lon="1.92551">
        <ele>67.6</ele>
        <time>2022-05-25T13:11:32Z</time>
      </trkpt>
      <trkpt lat="49.92236" lon="1.92553">
        <ele>67.6</ele>
        <time>2022-05-25T13:11:33Z</time>
      </trkpt>
      <trkpt lat="49.92236" lon="1.92556">
        <ele>67.6</ele>
        <time>2022-05-25T13:11:34Z</time>
      </trkpt>
      <trkpt lat="49.92235" lon="1.92557">
        <ele>67.6</ele>
        <time>2022-05-25T13:11:35Z</time>
      </trkpt>
      <trkpt lat="49.92235" lon="1.92559">
        <ele>67.5</ele>
        <time>2022-05-25T13:11:36Z</time>
      </trkpt>
      <trkpt lat="49.92235" lon="1.92561">
        <ele>67.5</ele>
        <time>2022-05-25T13:11:37Z</time>
      </trkpt>
      <trkpt lat="49.92235" lon="1.92563">
        <ele>67.5</ele>
        <time>2022-05-25T13:11:38Z</time>
      </trkpt>
      <trkpt lat="49.92235" lon="1.92565">
        <ele>67.5</ele>
        <time>2022-05-25T13:11:39Z</time>
      </trkpt>
      <trkpt lat="49.92235" lon="1.92567">
        <ele>67.4</ele>
        <time>2022-05-25T13:11:40Z</time>
      </trkpt>
      <trkpt lat="49.92235" lon="1.92571">
        <ele>67.4</ele>
        <time>2022-05-25T13:11:41Z</time>
      </trkpt>
      <trkpt lat="49.92235" lon="1.92573">
        <ele>67.4</ele>
        <time>2022-05-25T13:11:43Z</time>
      </trkpt>
      <trkpt lat="49.92235" lon="1.92575">
        <ele>67.3</ele>
        <time>2022-05-25T13:11:44Z</time>
      </trkpt>
      <trkpt lat="49.92235" lon="1.92577">
        <ele>67.3</ele>
        <time>2022-05-25T13:11:45Z</time>
      </trkpt>
      <trkpt lat="49.92235" lon="1.92579">
        <ele>67.3</ele>
        <time>2022-05-25T13:11:46Z</time>
      </trkpt>
      <trkpt lat="49.92235" lon="1.92581">
        <ele>67.3</ele>
        <time>2022-05-25T13:11:47Z</time>
      </trkpt>
      <trkpt lat="49.92235" lon="1.92582">
        <ele>67.2</ele>
        <time>2022-05-25T13:11:48Z</time>
      </trkpt>
      <trkpt lat="49.92235" lon="1.92584">
        <ele>67.2</ele>
        <time>2022-05-25T13:11:50Z</time>
      </trkpt>
      <trkpt lat="49.92235" lon="1.92586">
        <ele>67.2</ele>
        <time>2022-05-25T13:11:51Z</time>
      </trkpt>
      <trkpt lat="49.92235" lon="1.92588">
        <ele>67.2</ele>
        <time>2022-05-25T13:11:52Z</time>
      </trkpt>
      <trkpt lat="49.92235" lon="1.92589">
        <ele>67.2</ele>
        <time>2022-05-25T13:11:53Z</time>
      </trkpt>
      <trkpt lat="49.92235" lon="1.92591">
        <ele>67.1</ele>
        <time>2022-05-25T13:11:54Z</time>
      </trkpt>
      <trkpt lat="49.92235" lon="1.92594">
        <ele>67.1</ele>
        <time>2022-05-25T13:11:55Z</time>
      </trkpt>
      <trkpt lat="49.92235" lon="1.92596">
        <ele>67.1</ele>
        <time>2022-05-25T13:11:56Z</time>
      </trkpt>
      <trkpt lat="49.92235" lon="1.92598">
        <ele>67</ele>
        <time>2022-05-25T13:11:57Z</time>
      </trkpt>
      <trkpt lat="49.92235" lon="1.92601">
        <ele>67</ele>
        <time>2022-05-25T13:11:58Z</time>
      </trkpt>
      <trkpt lat="49.92235" lon="1.92603">
        <ele>67</ele>
        <time>2022-05-25T13:11:59Z</time>
      </trkpt>
      <trkpt lat="49.92235" lon="1.92605">
        <ele>67</ele>
        <time>2022-05-25T13:12:00Z</time>
      </trkpt>
      <trkpt lat="49.92235" lon="1.92607">
        <ele>66.9</ele>
        <time>2022-05-25T13:12:01Z</time>
      </trkpt>
      <trkpt lat="49.92235" lon="1.9261">
        <ele>66.9</ele>
        <time>2022-05-25T13:12:02Z</time>
      </trkpt>
      <trkpt lat="49.92236" lon="1.92612">
        <ele>66.9</ele>
        <time>2022-05-25T13:12:03Z</time>
      </trkpt>
      <trkpt lat="49.92236" lon="1.92613">
        <ele>66.9</ele>
        <time>2022-05-25T13:12:04Z</time>
      </trkpt>
      <trkpt lat="49.92236" lon="1.92617">
        <ele>66.8</ele>
        <time>2022-05-25T13:12:06Z</time>
      </trkpt>
      <trkpt lat="49.92236" lon="1.92618">
        <ele>66.8</ele>
        <time>2022-05-25T13:12:07Z</time>
      </trkpt>
      <trkpt lat="49.92236" lon="1.92619">
        <ele>66.8</ele>
        <time>2022-05-25T13:12:08Z</time>
      </trkpt>
      <trkpt lat="49.92236" lon="1.92622">
        <ele>66.8</ele>
        <time>2022-05-25T13:12:09Z</time>
      </trkpt>
      <trkpt lat="49.92237" lon="1.92624">
        <ele>66.7</ele>
        <time>2022-05-25T13:12:10Z</time>
      </trkpt>
      <trkpt lat="49.92237" lon="1.92626">
        <ele>66.7</ele>
        <time>2022-05-25T13:12:11Z</time>
      </trkpt>
      <trkpt lat="49.92237" lon="1.92628">
        <ele>66.7</ele>
        <time>2022-05-25T13:12:12Z</time>
      </trkpt>
      <trkpt lat="49.92237" lon="1.92632">
        <ele>66.6</ele>
        <time>2022-05-25T13:12:13Z</time>
      </trkpt>
      <trkpt lat="49.92237" lon="1.92633">
        <ele>66.6</ele>
        <time>2022-05-25T13:12:14Z</time>
      </trkpt>
      <trkpt lat="49.92238" lon="1.92635">
        <ele>66.6</ele>
        <time>2022-05-25T13:12:15Z</time>
      </trkpt>
      <trkpt lat="49.92238" lon="1.92637">
        <ele>66.6</ele>
        <time>2022-05-25T13:12:16Z</time>
      </trkpt>
      <trkpt lat="49.92238" lon="1.92639">
        <ele>66.5</ele>
        <time>2022-05-25T13:12:17Z</time>
      </trkpt>
      <trkpt lat="49.92238" lon="1.92642">
        <ele>66.5</ele>
        <time>2022-05-25T13:12:18Z</time>
      </trkpt>
      <trkpt lat="49.92239" lon="1.92644">
        <ele>66.5</ele>
        <time>2022-05-25T13:12:19Z</time>
      </trkpt>
      <trkpt lat="49.92239" lon="1.92646">
        <ele>66.5</ele>
        <time>2022-05-25T13:12:21Z</time>
      </trkpt>
      <trkpt lat="49.92239" lon="1.92647">
        <ele>66.4</ele>
        <time>2022-05-25T13:12:22Z</time>
      </trkpt>
      <trkpt lat="49.92239" lon="1.92649">
        <ele>66.4</ele>
        <time>2022-05-25T13:12:23Z</time>
      </trkpt>
      <trkpt lat="49.92239" lon="1.9265">
        <ele>66.4</ele>
        <time>2022-05-25T13:12:24Z</time>
      </trkpt>
      <trkpt lat="49.92239" lon="1.92652">
        <ele>66.4</ele>
        <time>2022-05-25T13:12:25Z</time>
      </trkpt>
      <trkpt lat="49.92239" lon="1.92655">
        <ele>66.3</ele>
        <time>2022-05-25T13:12:26Z</time>
      </trkpt>
      <trkpt lat="49.92239" lon="1.92657">
        <ele>66.3</ele>
        <time>2022-05-25T13:12:27Z</time>
      </trkpt>
      <trkpt lat="49.92239" lon="1.92659">
        <ele>66.3</ele>
        <time>2022-05-25T13:12:28Z</time>
      </trkpt>
      <trkpt lat="49.92239" lon="1.92662">
        <ele>66.2</ele>
        <time>2022-05-25T13:12:29Z</time>
      </trkpt>
      <trkpt lat="49.92239" lon="1.92664">
        <ele>66.2</ele>
        <time>2022-05-25T13:12:30Z</time>
      </trkpt>
      <trkpt lat="49.92239" lon="1.92665">
        <ele>66.2</ele>
        <time>2022-05-25T13:12:31Z</time>
      </trkpt>
      <trkpt lat="49.92239" lon="1.92668">
        <ele>66.2</ele>
        <time>2022-05-25T13:12:33Z</time>
      </trkpt>
      <trkpt lat="49.92239" lon="1.92671">
        <ele>66.1</ele>
        <time>2022-05-25T13:12:34Z</time>
      </trkpt>
      <trkpt lat="49.92239" lon="1.92672">
        <ele>66.1</ele>
        <time>2022-05-25T13:12:36Z</time>
      </trkpt>
      <trkpt lat="49.92239" lon="1.92674">
        <ele>66.1</ele>
        <time>2022-05-25T13:12:37Z</time>
      </trkpt>
      <trkpt lat="49.9224" lon="1.92675">
        <ele>66.1</ele>
        <time>2022-05-25T13:12:38Z</time>
      </trkpt>
      <trkpt lat="49.9224" lon="1.92679">
        <ele>66</ele>
        <time>2022-05-25T13:12:39Z</time>
      </trkpt>
      <trkpt lat="49.9224" lon="1.9268">
        <ele>66</ele>
        <time>2022-05-25T13:12:40Z</time>
      </trkpt>
      <trkpt lat="49.92241" lon="1.92681">
        <ele>66</ele>
        <time>2022-05-25T13:12:41Z</time>
      </trkpt>
      <trkpt lat="49.92241" lon="1.92685">
        <ele>66</ele>
        <time>2022-05-25T13:12:42Z</time>
      </trkpt>
      <trkpt lat="49.92241" lon="1.92686">
        <ele>65.9</ele>
        <time>2022-05-25T13:12:43Z</time>
      </trkpt>
      <trkpt lat="49.92241" lon="1.92687">
        <ele>65.9</ele>
        <time>2022-05-25T13:12:44Z</time>
      </trkpt>
      <trkpt lat="49.92242" lon="1.92691">
        <ele>65.9</ele>
        <time>2022-05-25T13:12:45Z</time>
      </trkpt>
      <trkpt lat="49.92242" lon="1.92692">
        <ele>65.9</ele>
        <time>2022-05-25T13:12:46Z</time>
      </trkpt>
      <trkpt lat="49.92242" lon="1.92693">
        <ele>65.9</ele>
        <time>2022-05-25T13:12:47Z</time>
      </trkpt>
      <trkpt lat="49.92243" lon="1.92696">
        <ele>65.8</ele>
        <time>2022-05-25T13:12:48Z</time>
      </trkpt>
      <trkpt lat="49.92243" lon="1.92698">
        <ele>65.8</ele>
        <time>2022-05-25T13:12:49Z</time>
      </trkpt>
      <trkpt lat="49.92243" lon="1.92699">
        <ele>65.8</ele>
        <time>2022-05-25T13:12:50Z</time>
      </trkpt>
      <trkpt lat="49.92244" lon="1.92702">
        <ele>65.7</ele>
        <time>2022-05-25T13:12:52Z</time>
      </trkpt>
      <trkpt lat="49.92244" lon="1.92704">
        <ele>65.7</ele>
        <time>2022-05-25T13:12:53Z</time>
      </trkpt>
      <trkpt lat="49.92244" lon="1.92705">
        <ele>65.7</ele>
        <time>2022-05-25T13:12:54Z</time>
      </trkpt>
      <trkpt lat="49.92245" lon="1.92708">
        <ele>65.7</ele>
        <time>2022-05-25T13:12:55Z</time>
      </trkpt>
      <trkpt lat="49.92245" lon="1.92709">
        <ele>65.6</ele>
        <time>2022-05-25T13:12:56Z</time>
      </trkpt>
      <trkpt lat="49.92245" lon="1.92712">
        <ele>65.6</ele>
        <time>2022-05-25T13:12:57Z</time>
      </trkpt>
      <trkpt lat="49.92245" lon="1.92714">
        <ele>65.6</ele>
        <time>2022-05-25T13:12:58Z</time>
      </trkpt>
      <trkpt lat="49.92246" lon="1.92717">
        <ele>65.6</ele>
        <time>2022-05-25T13:12:59Z</time>
      </trkpt>
      <trkpt lat="49.92246" lon="1.92718">
        <ele>65.5</ele>
        <time>2022-05-25T13:13:00Z</time>
      </trkpt>
      <trkpt lat="49.92246" lon="1.92719">
        <ele>65.5</ele>
        <time>2022-05-25T13:13:01Z</time>
      </trkpt>
      <trkpt lat="49.92246" lon="1.92722">
        <ele>65.5</ele>
        <time>2022-05-25T13:13:02Z</time>
      </trkpt>
      <trkpt lat="49.92246" lon="1.92724">
        <ele>65.4</ele>
        <time>2022-05-25T13:13:03Z</time>
      </trkpt>
      <trkpt lat="49.92246" lon="1.92727">
        <ele>65.4</ele>
        <time>2022-05-25T13:13:05Z</time>
      </trkpt>
      <trkpt lat="49.92246" lon="1.92728">
        <ele>65.3</ele>
        <time>2022-05-25T13:13:06Z</time>
      </trkpt>
      <trkpt lat="49.92246" lon="1.92729">
        <ele>65.3</ele>
        <time>2022-05-25T13:13:07Z</time>
      </trkpt>
      <trkpt lat="49.92247" lon="1.92731">
        <ele>65.3</ele>
        <time>2022-05-25T13:13:08Z</time>
      </trkpt>
      <trkpt lat="49.92247" lon="1.92732">
        <ele>65.3</ele>
        <time>2022-05-25T13:13:09Z</time>
      </trkpt>
      <trkpt lat="49.92247" lon="1.92734">
        <ele>65.2</ele>
        <time>2022-05-25T13:13:10Z</time>
      </trkpt>
      <trkpt lat="49.92248" lon="1.92737">
        <ele>65.2</ele>
        <time>2022-05-25T13:13:11Z</time>
      </trkpt>
      <trkpt lat="49.92248" lon="1.92739">
        <ele>65.1</ele>
        <time>2022-05-25T13:13:12Z</time>
      </trkpt>
      <trkpt lat="49.92249" lon="1.92742">
        <ele>65.1</ele>
        <time>2022-05-25T13:13:13Z</time>
      </trkpt>
      <trkpt lat="49.92249" lon="1.92744">
        <ele>65</ele>
        <time>2022-05-25T13:13:14Z</time>
      </trkpt>
      <trkpt lat="49.9225" lon="1.92745">
        <ele>65</ele>
        <time>2022-05-25T13:13:15Z</time>
      </trkpt>
      <trkpt lat="49.9225" lon="1.92747">
        <ele>65</ele>
        <time>2022-05-25T13:13:17Z</time>
      </trkpt>
      <trkpt lat="49.9225" lon="1.92749">
        <ele>64.9</ele>
        <time>2022-05-25T13:13:18Z</time>
      </trkpt>
      <trkpt lat="49.92251" lon="1.92752">
        <ele>64.9</ele>
        <time>2022-05-25T13:13:19Z</time>
      </trkpt>
      <trkpt lat="49.92252" lon="1.92754">
        <ele>64.8</ele>
        <time>2022-05-25T13:13:20Z</time>
      </trkpt>
      <trkpt lat="49.92253" lon="1.92757">
        <ele>64.8</ele>
        <time>2022-05-25T13:13:21Z</time>
      </trkpt>
      <trkpt lat="49.92253" lon="1.92758">
        <ele>64.8</ele>
        <time>2022-05-25T13:13:22Z</time>
      </trkpt>
      <trkpt lat="49.92253" lon="1.92759">
        <ele>64.7</ele>
        <time>2022-05-25T13:13:23Z</time>
      </trkpt>
      <trkpt lat="49.92254" lon="1.92762">
        <ele>64.7</ele>
        <time>2022-05-25T13:13:24Z</time>
      </trkpt>
      <trkpt lat="49.92255" lon="1.92763">
        <ele>64.6</ele>
        <time>2022-05-25T13:13:26Z</time>
      </trkpt>
      <trkpt lat="49.92255" lon="1.92764">
        <ele>64.6</ele>
        <time>2022-05-25T13:13:27Z</time>
      </trkpt>
      <trkpt lat="49.92256" lon="1.92766">
        <ele>64.6</ele>
        <time>2022-05-25T13:13:28Z</time>
      </trkpt>
      <trkpt lat="49.92256" lon="1.92768">
        <ele>64.5</ele>
        <time>2022-05-25T13:13:29Z</time>
      </trkpt>
      <trkpt lat="49.92256" lon="1.9277">
        <ele>64.5</ele>
        <time>2022-05-25T13:13:30Z</time>
      </trkpt>
      <trkpt lat="49.92257" lon="1.92773">
        <ele>64.5</ele>
        <time>2022-05-25T13:13:31Z</time>
      </trkpt>
      <trkpt lat="49.92258" lon="1.92775">
        <ele>64.4</ele>
        <time>2022-05-25T13:13:32Z</time>
      </trkpt>
      <trkpt lat="49.92258" lon="1.92777">
        <ele>64.4</ele>
        <time>2022-05-25T13:13:33Z</time>
      </trkpt>
      <trkpt lat="49.92259" lon="1.92779">
        <ele>64.3</ele>
        <time>2022-05-25T13:13:35Z</time>
      </trkpt>
      <trkpt lat="49.9226" lon="1.92782">
        <ele>64.3</ele>
        <time>2022-05-25T13:13:36Z</time>
      </trkpt>
      <trkpt lat="49.9226" lon="1.92785">
        <ele>64.2</ele>
        <time>2022-05-25T13:13:38Z</time>
      </trkpt>
      <trkpt lat="49.92261" lon="1.92787">
        <ele>64.2</ele>
        <time>2022-05-25T13:13:39Z</time>
      </trkpt>
      <trkpt lat="49.92261" lon="1.92789">
        <ele>64.1</ele>
        <time>2022-05-25T13:13:40Z</time>
      </trkpt>
      <trkpt lat="49.92261" lon="1.92791">
        <ele>64.1</ele>
        <time>2022-05-25T13:13:41Z</time>
      </trkpt>
      <trkpt lat="49.92262" lon="1.92793">
        <ele>64</ele>
        <time>2022-05-25T13:13:42Z</time>
      </trkpt>
      <trkpt lat="49.92262" lon="1.92795">
        <ele>64</ele>
        <time>2022-05-25T13:13:43Z</time>
      </trkpt>
      <trkpt lat="49.92263" lon="1.92799">
        <ele>63.9</ele>
        <time>2022-05-25T13:13:44Z</time>
      </trkpt>
      <trkpt lat="49.92263" lon="1.928">
        <ele>63.9</ele>
        <time>2022-05-25T13:13:45Z</time>
      </trkpt>
      <trkpt lat="49.92263" lon="1.92801">
        <ele>63.9</ele>
        <time>2022-05-25T13:13:46Z</time>
      </trkpt>
      <trkpt lat="49.92264" lon="1.92804">
        <ele>63.8</ele>
        <time>2022-05-25T13:13:47Z</time>
      </trkpt>
      <trkpt lat="49.92265" lon="1.92806">
        <ele>63.8</ele>
        <time>2022-05-25T13:13:48Z</time>
      </trkpt>
      <trkpt lat="49.92265" lon="1.92807">
        <ele>63.8</ele>
        <time>2022-05-25T13:13:49Z</time>
      </trkpt>
      <trkpt lat="49.92266" lon="1.92809">
        <ele>63.7</ele>
        <time>2022-05-25T13:13:50Z</time>
      </trkpt>
      <trkpt lat="49.92266" lon="1.92812">
        <ele>63.7</ele>
        <time>2022-05-25T13:13:52Z</time>
      </trkpt>
      <trkpt lat="49.92267" lon="1.92814">
        <ele>63.6</ele>
        <time>2022-05-25T13:13:53Z</time>
      </trkpt>
      <trkpt lat="49.92267" lon="1.92816">
        <ele>63.6</ele>
        <time>2022-05-25T13:13:54Z</time>
      </trkpt>
      <trkpt lat="49.92268" lon="1.92818">
        <ele>63.6</ele>
        <time>2022-05-25T13:13:55Z</time>
      </trkpt>
      <trkpt lat="49.92268" lon="1.9282">
        <ele>63.5</ele>
        <time>2022-05-25T13:13:56Z</time>
      </trkpt>
      <trkpt lat="49.92268" lon="1.92822">
        <ele>63.5</ele>
        <time>2022-05-25T13:13:57Z</time>
      </trkpt>
      <trkpt lat="49.92269" lon="1.92823">
        <ele>63.5</ele>
        <time>2022-05-25T13:13:58Z</time>
      </trkpt>
      <trkpt lat="49.92269" lon="1.92825">
        <ele>63.4</ele>
        <time>2022-05-25T13:13:59Z</time>
      </trkpt>
      <trkpt lat="49.9227" lon="1.92828">
        <ele>63.4</ele>
        <time>2022-05-25T13:14:00Z</time>
      </trkpt>
      <trkpt lat="49.9227" lon="1.92829">
        <ele>63.3</ele>
        <time>2022-05-25T13:14:01Z</time>
      </trkpt>
      <trkpt lat="49.9227" lon="1.9283">
        <ele>63.3</ele>
        <time>2022-05-25T13:14:02Z</time>
      </trkpt>
      <trkpt lat="49.92271" lon="1.92832">
        <ele>63.3</ele>
        <time>2022-05-25T13:14:03Z</time>
      </trkpt>
      <trkpt lat="49.92271" lon="1.92834">
        <ele>63.2</ele>
        <time>2022-05-25T13:14:04Z</time>
      </trkpt>
      <trkpt lat="49.92272" lon="1.92839">
        <ele>63.1</ele>
        <time>2022-05-25T13:14:06Z</time>
      </trkpt>
      <trkpt lat="49.92272" lon="1.9284">
        <ele>63.1</ele>
        <time>2022-05-25T13:14:07Z</time>
      </trkpt>
      <trkpt lat="49.92273" lon="1.92842">
        <ele>63.1</ele>
        <time>2022-05-25T13:14:09Z</time>
      </trkpt>
      <trkpt lat="49.92273" lon="1.92844">
        <ele>63</ele>
        <time>2022-05-25T13:14:10Z</time>
      </trkpt>
      <trkpt lat="49.92274" lon="1.92846">
        <ele>63</ele>
        <time>2022-05-25T13:14:11Z</time>
      </trkpt>
      <trkpt lat="49.92275" lon="1.92848">
        <ele>63</ele>
        <time>2022-05-25T13:14:12Z</time>
      </trkpt>
      <trkpt lat="49.92275" lon="1.9285">
        <ele>62.9</ele>
        <time>2022-05-25T13:14:13Z</time>
      </trkpt>
      <trkpt lat="49.92276" lon="1.92852">
        <ele>62.9</ele>
        <time>2022-05-25T13:14:14Z</time>
      </trkpt>
      <trkpt lat="49.92276" lon="1.92854">
        <ele>62.8</ele>
        <time>2022-05-25T13:14:16Z</time>
      </trkpt>
      <trkpt lat="49.92277" lon="1.92857">
        <ele>62.8</ele>
        <time>2022-05-25T13:14:17Z</time>
      </trkpt>
      <trkpt lat="49.92278" lon="1.92858">
        <ele>62.8</ele>
        <time>2022-05-25T13:14:18Z</time>
      </trkpt>
      <trkpt lat="49.92278" lon="1.92859">
        <ele>62.7</ele>
        <time>2022-05-25T13:14:19Z</time>
      </trkpt>
      <trkpt lat="49.92279" lon="1.92861">
        <ele>62.7</ele>
        <time>2022-05-25T13:14:20Z</time>
      </trkpt>
      <trkpt lat="49.9228" lon="1.92863">
        <ele>62.6</ele>
        <time>2022-05-25T13:14:21Z</time>
      </trkpt>
      <trkpt lat="49.9228" lon="1.92865">
        <ele>62.6</ele>
        <time>2022-05-25T13:14:22Z</time>
      </trkpt>
      <trkpt lat="49.92281" lon="1.92867">
        <ele>62.6</ele>
        <time>2022-05-25T13:14:23Z</time>
      </trkpt>
      <trkpt lat="49.92281" lon="1.9287">
        <ele>62.5</ele>
        <time>2022-05-25T13:14:24Z</time>
      </trkpt>
      <trkpt lat="49.92282" lon="1.92871">
        <ele>62.5</ele>
        <time>2022-05-25T13:14:25Z</time>
      </trkpt>
      <trkpt lat="49.92282" lon="1.92872">
        <ele>62.5</ele>
        <time>2022-05-25T13:14:26Z</time>
      </trkpt>
      <trkpt lat="49.92283" lon="1.92874">
        <ele>62.4</ele>
        <time>2022-05-25T13:14:27Z</time>
      </trkpt>
      <trkpt lat="49.92283" lon="1.92876">
        <ele>62.4</ele>
        <time>2022-05-25T13:14:28Z</time>
      </trkpt>
      <trkpt lat="49.92284" lon="1.92878">
        <ele>62.4</ele>
        <time>2022-05-25T13:14:29Z</time>
      </trkpt>
      <trkpt lat="49.92284" lon="1.92879">
        <ele>62.3</ele>
        <time>2022-05-25T13:14:30Z</time>
      </trkpt>
      <trkpt lat="49.92284" lon="1.92881">
        <ele>62.3</ele>
        <time>2022-05-25T13:14:31Z</time>
      </trkpt>
      <trkpt lat="49.92286" lon="1.92884">
        <ele>62.2</ele>
        <time>2022-05-25T13:14:33Z</time>
      </trkpt>
      <trkpt lat="49.92286" lon="1.92885">
        <ele>62.2</ele>
        <time>2022-05-25T13:14:34Z</time>
      </trkpt>
      <trkpt lat="49.92287" lon="1.92886">
        <ele>62.2</ele>
        <time>2022-05-25T13:14:35Z</time>
      </trkpt>
      <trkpt lat="49.92288" lon="1.92888">
        <ele>62.1</ele>
        <time>2022-05-25T13:14:36Z</time>
      </trkpt>
      <trkpt lat="49.92289" lon="1.9289">
        <ele>62.1</ele>
        <time>2022-05-25T13:14:37Z</time>
      </trkpt>
      <trkpt lat="49.92289" lon="1.92892">
        <ele>62</ele>
        <time>2022-05-25T13:14:38Z</time>
      </trkpt>
      <trkpt lat="49.9229" lon="1.92894">
        <ele>62</ele>
        <time>2022-05-25T13:14:40Z</time>
      </trkpt>
      <trkpt lat="49.92291" lon="1.92896">
        <ele>61.9</ele>
        <time>2022-05-25T13:14:41Z</time>
      </trkpt>
      <trkpt lat="49.92292" lon="1.92898">
        <ele>61.9</ele>
        <time>2022-05-25T13:14:42Z</time>
      </trkpt>
      <trkpt lat="49.92292" lon="1.929">
        <ele>61.9</ele>
        <time>2022-05-25T13:14:43Z</time>
      </trkpt>
      <trkpt lat="49.92293" lon="1.92902">
        <ele>61.8</ele>
        <time>2022-05-25T13:14:44Z</time>
      </trkpt>
      <trkpt lat="49.92294" lon="1.92904">
        <ele>61.8</ele>
        <time>2022-05-25T13:14:45Z</time>
      </trkpt>
      <trkpt lat="49.92294" lon="1.92906">
        <ele>61.7</ele>
        <time>2022-05-25T13:14:46Z</time>
      </trkpt>
      <trkpt lat="49.92295" lon="1.92908">
        <ele>61.7</ele>
        <time>2022-05-25T13:14:47Z</time>
      </trkpt>
      <trkpt lat="49.92295" lon="1.92909">
        <ele>61.7</ele>
        <time>2022-05-25T13:14:48Z</time>
      </trkpt>
      <trkpt lat="49.92295" lon="1.92911">
        <ele>61.6</ele>
        <time>2022-05-25T13:14:49Z</time>
      </trkpt>
      <trkpt lat="49.92296" lon="1.92912">
        <ele>61.6</ele>
        <time>2022-05-25T13:14:51Z</time>
      </trkpt>
      <trkpt lat="49.92296" lon="1.92914">
        <ele>61.6</ele>
        <time>2022-05-25T13:14:52Z</time>
      </trkpt>
      <trkpt lat="49.92297" lon="1.92916">
        <ele>61.5</ele>
        <time>2022-05-25T13:14:53Z</time>
      </trkpt>
      <trkpt lat="49.92298" lon="1.92919">
        <ele>61.5</ele>
        <time>2022-05-25T13:14:54Z</time>
      </trkpt>
      <trkpt lat="49.92298" lon="1.92921">
        <ele>61.4</ele>
        <time>2022-05-25T13:14:55Z</time>
      </trkpt>
      <trkpt lat="49.92299" lon="1.92923">
        <ele>61.4</ele>
        <time>2022-05-25T13:14:56Z</time>
      </trkpt>
      <trkpt lat="49.923" lon="1.92926">
        <ele>61.3</ele>
        <time>2022-05-25T13:14:57Z</time>
      </trkpt>
      <trkpt lat="49.923" lon="1.92928">
        <ele>61.3</ele>
        <time>2022-05-25T13:14:58Z</time>
      </trkpt>
      <trkpt lat="49.92301" lon="1.9293">
        <ele>61.2</ele>
        <time>2022-05-25T13:14:59Z</time>
      </trkpt>
      <trkpt lat="49.92301" lon="1.92932">
        <ele>61.2</ele>
        <time>2022-05-25T13:15:01Z</time>
      </trkpt>
      <trkpt lat="49.92302" lon="1.92935">
        <ele>61.2</ele>
        <time>2022-05-25T13:15:02Z</time>
      </trkpt>
      <trkpt lat="49.92303" lon="1.92937">
        <ele>61.1</ele>
        <time>2022-05-25T13:15:03Z</time>
      </trkpt>
      <trkpt lat="49.92303" lon="1.92939">
        <ele>61.1</ele>
        <time>2022-05-25T13:15:04Z</time>
      </trkpt>
      <trkpt lat="49.92304" lon="1.92942">
        <ele>61</ele>
        <time>2022-05-25T13:15:05Z</time>
      </trkpt>
      <trkpt lat="49.92305" lon="1.92943">
        <ele>61</ele>
        <time>2022-05-25T13:15:06Z</time>
      </trkpt>
      <trkpt lat="49.92305" lon="1.92945">
        <ele>61</ele>
        <time>2022-05-25T13:15:08Z</time>
      </trkpt>
      <trkpt lat="49.92306" lon="1.92946">
        <ele>60.9</ele>
        <time>2022-05-25T13:15:09Z</time>
      </trkpt>
      <trkpt lat="49.92306" lon="1.92948">
        <ele>60.9</ele>
        <time>2022-05-25T13:15:10Z</time>
      </trkpt>
      <trkpt lat="49.92307" lon="1.92949">
        <ele>60.9</ele>
        <time>2022-05-25T13:15:11Z</time>
      </trkpt>
      <trkpt lat="49.92307" lon="1.92951">
        <ele>60.8</ele>
        <time>2022-05-25T13:15:12Z</time>
      </trkpt>
      <trkpt lat="49.92308" lon="1.92953">
        <ele>60.8</ele>
        <time>2022-05-25T13:15:13Z</time>
      </trkpt>
      <trkpt lat="49.92308" lon="1.92956">
        <ele>60.7</ele>
        <time>2022-05-25T13:15:14Z</time>
      </trkpt>
      <trkpt lat="49.92309" lon="1.92958">
        <ele>60.7</ele>
        <time>2022-05-25T13:15:16Z</time>
      </trkpt>
      <trkpt lat="49.92309" lon="1.92959">
        <ele>60.7</ele>
        <time>2022-05-25T13:15:17Z</time>
      </trkpt>
      <trkpt lat="49.9231" lon="1.92962">
        <ele>60.6</ele>
        <time>2022-05-25T13:15:18Z</time>
      </trkpt>
      <trkpt lat="49.92311" lon="1.92963">
        <ele>60.6</ele>
        <time>2022-05-25T13:15:19Z</time>
      </trkpt>
      <trkpt lat="49.92311" lon="1.92964">
        <ele>60.6</ele>
        <time>2022-05-25T13:15:20Z</time>
      </trkpt>
      <trkpt lat="49.92312" lon="1.92965">
        <ele>60.5</ele>
        <time>2022-05-25T13:15:21Z</time>
      </trkpt>
      <trkpt lat="49.92312" lon="1.92967">
        <ele>60.5</ele>
        <time>2022-05-25T13:15:22Z</time>
      </trkpt>
      <trkpt lat="49.92313" lon="1.92968">
        <ele>60.5</ele>
        <time>2022-05-25T13:15:23Z</time>
      </trkpt>
      <trkpt lat="49.92314" lon="1.92971">
        <ele>60.4</ele>
        <time>2022-05-25T13:15:24Z</time>
      </trkpt>
      <trkpt lat="49.92314" lon="1.92972">
        <ele>60.4</ele>
        <time>2022-05-25T13:15:25Z</time>
      </trkpt>
      <trkpt lat="49.92314" lon="1.92973">
        <ele>60.4</ele>
        <time>2022-05-25T13:15:26Z</time>
      </trkpt>
      <trkpt lat="49.92315" lon="1.92975">
        <ele>60.3</ele>
        <time>2022-05-25T13:15:27Z</time>
      </trkpt>
      <trkpt lat="49.92316" lon="1.92977">
        <ele>60.3</ele>
        <time>2022-05-25T13:15:29Z</time>
      </trkpt>
      <trkpt lat="49.92316" lon="1.92979">
        <ele>60.2</ele>
        <time>2022-05-25T13:15:30Z</time>
      </trkpt>
      <trkpt lat="49.92317" lon="1.92981">
        <ele>60.2</ele>
        <time>2022-05-25T13:15:31Z</time>
      </trkpt>
      <trkpt lat="49.92318" lon="1.92984">
        <ele>60.1</ele>
        <time>2022-05-25T13:15:32Z</time>
      </trkpt>
      <trkpt lat="49.92318" lon="1.92985">
        <ele>60.1</ele>
        <time>2022-05-25T13:15:33Z</time>
      </trkpt>
      <trkpt lat="49.92319" lon="1.92986">
        <ele>60.1</ele>
        <time>2022-05-25T13:15:34Z</time>
      </trkpt>
      <trkpt lat="49.92319" lon="1.92988">
        <ele>60.1</ele>
        <time>2022-05-25T13:15:35Z</time>
      </trkpt>
      <trkpt lat="49.92319" lon="1.92989">
        <ele>60</ele>
        <time>2022-05-25T13:15:36Z</time>
      </trkpt>
      <trkpt lat="49.9232" lon="1.92991">
        <ele>60</ele>
        <time>2022-05-25T13:15:37Z</time>
      </trkpt>
      <trkpt lat="49.9232" lon="1.92994">
        <ele>59.9</ele>
        <time>2022-05-25T13:15:38Z</time>
      </trkpt>
      <trkpt lat="49.92321" lon="1.92995">
        <ele>59.9</ele>
        <time>2022-05-25T13:15:39Z</time>
      </trkpt>
      <trkpt lat="49.92321" lon="1.92997">
        <ele>59.9</ele>
        <time>2022-05-25T13:15:40Z</time>
      </trkpt>
      <trkpt lat="49.92322" lon="1.93">
        <ele>59.8</ele>
        <time>2022-05-25T13:15:41Z</time>
      </trkpt>
      <trkpt lat="49.92322" lon="1.93001">
        <ele>59.8</ele>
        <time>2022-05-25T13:15:43Z</time>
      </trkpt>
      <trkpt lat="49.92323" lon="1.93003">
        <ele>59.8</ele>
        <time>2022-05-25T13:15:44Z</time>
      </trkpt>
      <trkpt lat="49.92323" lon="1.93005">
        <ele>59.7</ele>
        <time>2022-05-25T13:15:45Z</time>
      </trkpt>
      <trkpt lat="49.92324" lon="1.93007">
        <ele>59.7</ele>
        <time>2022-05-25T13:15:46Z</time>
      </trkpt>
      <trkpt lat="49.92325" lon="1.9301">
        <ele>59.6</ele>
        <time>2022-05-25T13:15:47Z</time>
      </trkpt>
      <trkpt lat="49.92325" lon="1.93011">
        <ele>59.6</ele>
        <time>2022-05-25T13:15:48Z</time>
      </trkpt>
      <trkpt lat="49.92325" lon="1.93013">
        <ele>59.6</ele>
        <time>2022-05-25T13:15:50Z</time>
      </trkpt>
      <trkpt lat="49.92326" lon="1.93014">
        <ele>59.5</ele>
        <time>2022-05-25T13:15:51Z</time>
      </trkpt>
      <trkpt lat="49.92326" lon="1.93016">
        <ele>59.5</ele>
        <time>2022-05-25T13:15:52Z</time>
      </trkpt>
      <trkpt lat="49.92327" lon="1.93017">
        <ele>59.5</ele>
        <time>2022-05-25T13:15:53Z</time>
      </trkpt>
      <trkpt lat="49.92327" lon="1.9302">
        <ele>59.4</ele>
        <time>2022-05-25T13:15:54Z</time>
      </trkpt>
      <trkpt lat="49.92328" lon="1.93022">
        <ele>59.4</ele>
        <time>2022-05-25T13:15:55Z</time>
      </trkpt>
      <trkpt lat="49.92329" lon="1.93023">
        <ele>59.3</ele>
        <time>2022-05-25T13:15:56Z</time>
      </trkpt>
      <trkpt lat="49.9233" lon="1.93026">
        <ele>59.3</ele>
        <time>2022-05-25T13:15:58Z</time>
      </trkpt>
      <trkpt lat="49.9233" lon="1.93028">
        <ele>59.2</ele>
        <time>2022-05-25T13:15:59Z</time>
      </trkpt>
      <trkpt lat="49.92331" lon="1.9303">
        <ele>59.2</ele>
        <time>2022-05-25T13:16:00Z</time>
      </trkpt>
      <trkpt lat="49.92332" lon="1.93032">
        <ele>59.2</ele>
        <time>2022-05-25T13:16:01Z</time>
      </trkpt>
      <trkpt lat="49.92332" lon="1.93034">
        <ele>59.1</ele>
        <time>2022-05-25T13:16:02Z</time>
      </trkpt>
      <trkpt lat="49.92333" lon="1.93035">
        <ele>59.1</ele>
        <time>2022-05-25T13:16:03Z</time>
      </trkpt>
      <trkpt lat="49.92333" lon="1.93037">
        <ele>59.1</ele>
        <time>2022-05-25T13:16:04Z</time>
      </trkpt>
      <trkpt lat="49.92334" lon="1.93039">
        <ele>59</ele>
        <time>2022-05-25T13:16:06Z</time>
      </trkpt>
      <trkpt lat="49.92335" lon="1.93041">
        <ele>59</ele>
        <time>2022-05-25T13:16:07Z</time>
      </trkpt>
      <trkpt lat="49.92335" lon="1.93043">
        <ele>58.9</ele>
        <time>2022-05-25T13:16:08Z</time>
      </trkpt>
      <trkpt lat="49.92336" lon="1.93045">
        <ele>58.9</ele>
        <time>2022-05-25T13:16:09Z</time>
      </trkpt>
      <trkpt lat="49.92336" lon="1.93047">
        <ele>58.9</ele>
        <time>2022-05-25T13:16:10Z</time>
      </trkpt>
      <trkpt lat="49.92337" lon="1.93049">
        <ele>58.8</ele>
        <time>2022-05-25T13:16:11Z</time>
      </trkpt>
      <trkpt lat="49.92337" lon="1.93051">
        <ele>58.8</ele>
        <time>2022-05-25T13:16:12Z</time>
      </trkpt>
      <trkpt lat="49.92338" lon="1.93053">
        <ele>58.7</ele>
        <time>2022-05-25T13:16:13Z</time>
      </trkpt>
      <trkpt lat="49.92338" lon="1.93056">
        <ele>58.7</ele>
        <time>2022-05-25T13:16:14Z</time>
      </trkpt>
      <trkpt lat="49.92339" lon="1.93058">
        <ele>58.6</ele>
        <time>2022-05-25T13:16:15Z</time>
      </trkpt>
      <trkpt lat="49.92339" lon="1.9306">
        <ele>58.6</ele>
        <time>2022-05-25T13:16:16Z</time>
      </trkpt>
      <trkpt lat="49.9234" lon="1.93062">
        <ele>58.6</ele>
        <time>2022-05-25T13:16:17Z</time>
      </trkpt>
      <trkpt lat="49.9234" lon="1.93064">
        <ele>58.5</ele>
        <time>2022-05-25T13:16:18Z</time>
      </trkpt>
      <trkpt lat="49.92341" lon="1.93066">
        <ele>58.5</ele>
        <time>2022-05-25T13:16:19Z</time>
      </trkpt>
      <trkpt lat="49.92341" lon="1.93067">
        <ele>58.4</ele>
        <time>2022-05-25T13:16:20Z</time>
      </trkpt>
      <trkpt lat="49.92342" lon="1.9307">
        <ele>58.4</ele>
        <time>2022-05-25T13:16:21Z</time>
      </trkpt>
      <trkpt lat="49.92342" lon="1.93071">
        <ele>58.4</ele>
        <time>2022-05-25T13:16:23Z</time>
      </trkpt>
      <trkpt lat="49.92343" lon="1.93072">
        <ele>58.3</ele>
        <time>2022-05-25T13:16:24Z</time>
      </trkpt>
      <trkpt lat="49.92343" lon="1.93074">
        <ele>58.3</ele>
        <time>2022-05-25T13:16:25Z</time>
      </trkpt>
      <trkpt lat="49.92343" lon="1.93076">
        <ele>58.3</ele>
        <time>2022-05-25T13:16:26Z</time>
      </trkpt>
      <trkpt lat="49.92344" lon="1.93079">
        <ele>58.2</ele>
        <time>2022-05-25T13:16:27Z</time>
      </trkpt>
      <trkpt lat="49.92345" lon="1.9308">
        <ele>58.2</ele>
        <time>2022-05-25T13:16:28Z</time>
      </trkpt>
      <trkpt lat="49.92345" lon="1.93082">
        <ele>58.1</ele>
        <time>2022-05-25T13:16:29Z</time>
      </trkpt>
      <trkpt lat="49.92346" lon="1.93084">
        <ele>58.1</ele>
        <time>2022-05-25T13:16:30Z</time>
      </trkpt>
      <trkpt lat="49.92347" lon="1.93087">
        <ele>58</ele>
        <time>2022-05-25T13:16:31Z</time>
      </trkpt>
      <trkpt lat="49.92347" lon="1.93089">
        <ele>58</ele>
        <time>2022-05-25T13:16:32Z</time>
      </trkpt>
      <trkpt lat="49.92348" lon="1.9309">
        <ele>58</ele>
        <time>2022-05-25T13:16:34Z</time>
      </trkpt>
      <trkpt lat="49.92348" lon="1.93092">
        <ele>57.9</ele>
        <time>2022-05-25T13:16:35Z</time>
      </trkpt>
      <trkpt lat="49.92349" lon="1.93093">
        <ele>57.9</ele>
        <time>2022-05-25T13:16:36Z</time>
      </trkpt>
      <trkpt lat="49.92349" lon="1.93095">
        <ele>57.9</ele>
        <time>2022-05-25T13:16:37Z</time>
      </trkpt>
      <trkpt lat="49.92349" lon="1.93096">
        <ele>57.9</ele>
        <time>2022-05-25T13:16:38Z</time>
      </trkpt>
      <trkpt lat="49.9235" lon="1.93098">
        <ele>57.8</ele>
        <time>2022-05-25T13:16:39Z</time>
      </trkpt>
      <trkpt lat="49.92351" lon="1.931">
        <ele>57.8</ele>
        <time>2022-05-25T13:16:40Z</time>
      </trkpt>
      <trkpt lat="49.92351" lon="1.93102">
        <ele>57.7</ele>
        <time>2022-05-25T13:16:41Z</time>
      </trkpt>
      <trkpt lat="49.92352" lon="1.93104">
        <ele>57.7</ele>
        <time>2022-05-25T13:16:42Z</time>
      </trkpt>
      <trkpt lat="49.92352" lon="1.93106">
        <ele>57.6</ele>
        <time>2022-05-25T13:16:43Z</time>
      </trkpt>
      <trkpt lat="49.92353" lon="1.93109">
        <ele>57.6</ele>
        <time>2022-05-25T13:16:45Z</time>
      </trkpt>
      <trkpt lat="49.92353" lon="1.93111">
        <ele>57.6</ele>
        <time>2022-05-25T13:16:46Z</time>
      </trkpt>
      <trkpt lat="49.92354" lon="1.93113">
        <ele>57.5</ele>
        <time>2022-05-25T13:16:47Z</time>
      </trkpt>
      <trkpt lat="49.92354" lon="1.93115">
        <ele>57.5</ele>
        <time>2022-05-25T13:16:48Z</time>
      </trkpt>
      <trkpt lat="49.92355" lon="1.93117">
        <ele>57.4</ele>
        <time>2022-05-25T13:16:49Z</time>
      </trkpt>
      <trkpt lat="49.92355" lon="1.93119">
        <ele>57.4</ele>
        <time>2022-05-25T13:16:50Z</time>
      </trkpt>
      <trkpt lat="49.92356" lon="1.93121">
        <ele>57.4</ele>
        <time>2022-05-25T13:16:51Z</time>
      </trkpt>
      <trkpt lat="49.92356" lon="1.93123">
        <ele>57.3</ele>
        <time>2022-05-25T13:16:52Z</time>
      </trkpt>
      <trkpt lat="49.92357" lon="1.93124">
        <ele>57.3</ele>
        <time>2022-05-25T13:16:54Z</time>
      </trkpt>
      <trkpt lat="49.92357" lon="1.93126">
        <ele>57.2</ele>
        <time>2022-05-25T13:16:55Z</time>
      </trkpt>
      <trkpt lat="49.92358" lon="1.93128">
        <ele>57.2</ele>
        <time>2022-05-25T13:16:56Z</time>
      </trkpt>
      <trkpt lat="49.92358" lon="1.93131">
        <ele>57.2</ele>
        <time>2022-05-25T13:16:57Z</time>
      </trkpt>
      <trkpt lat="49.92359" lon="1.93132">
        <ele>57.1</ele>
        <time>2022-05-25T13:16:58Z</time>
      </trkpt>
      <trkpt lat="49.9236" lon="1.93135">
        <ele>57.1</ele>
        <time>2022-05-25T13:16:59Z</time>
      </trkpt>
      <trkpt lat="49.9236" lon="1.93137">
        <ele>57</ele>
        <time>2022-05-25T13:17:00Z</time>
      </trkpt>
      <trkpt lat="49.92361" lon="1.9314">
        <ele>57</ele>
        <time>2022-05-25T13:17:01Z</time>
      </trkpt>
      <trkpt lat="49.92362" lon="1.93141">
        <ele>56.9</ele>
        <time>2022-05-25T13:17:02Z</time>
      </trkpt>
      <trkpt lat="49.92363" lon="1.93145">
        <ele>56.9</ele>
        <time>2022-05-25T13:17:03Z</time>
      </trkpt>
      <trkpt lat="49.92364" lon="1.93146">
        <ele>56.8</ele>
        <time>2022-05-25T13:17:04Z</time>
      </trkpt>
      <trkpt lat="49.92364" lon="1.93147">
        <ele>56.8</ele>
        <time>2022-05-25T13:17:05Z</time>
      </trkpt>
      <trkpt lat="49.92364" lon="1.93149">
        <ele>56.8</ele>
        <time>2022-05-25T13:17:06Z</time>
      </trkpt>
      <trkpt lat="49.92365" lon="1.93151">
        <ele>56.7</ele>
        <time>2022-05-25T13:17:08Z</time>
      </trkpt>
      <trkpt lat="49.92365" lon="1.93153">
        <ele>56.7</ele>
        <time>2022-05-25T13:17:09Z</time>
      </trkpt>
      <trkpt lat="49.92366" lon="1.93156">
        <ele>56.6</ele>
        <time>2022-05-25T13:17:10Z</time>
      </trkpt>
      <trkpt lat="49.92367" lon="1.93159">
        <ele>56.6</ele>
        <time>2022-05-25T13:17:11Z</time>
      </trkpt>
      <trkpt lat="49.92367" lon="1.9316">
        <ele>56.6</ele>
        <time>2022-05-25T13:17:12Z</time>
      </trkpt>
      <trkpt lat="49.92367" lon="1.93161">
        <ele>56.5</ele>
        <time>2022-05-25T13:17:13Z</time>
      </trkpt>
      <trkpt lat="49.92368" lon="1.93163">
        <ele>56.5</ele>
        <time>2022-05-25T13:17:14Z</time>
      </trkpt>
      <trkpt lat="49.92368" lon="1.93164">
        <ele>56.5</ele>
        <time>2022-05-25T13:17:15Z</time>
      </trkpt>
      <trkpt lat="49.92368" lon="1.93166">
        <ele>56.4</ele>
        <time>2022-05-25T13:17:16Z</time>
      </trkpt>
      <trkpt lat="49.92369" lon="1.93169">
        <ele>56.4</ele>
        <time>2022-05-25T13:17:17Z</time>
      </trkpt>
      <trkpt lat="49.9237" lon="1.9317">
        <ele>56.4</ele>
        <time>2022-05-25T13:17:18Z</time>
      </trkpt>
      <trkpt lat="49.9237" lon="1.93171">
        <ele>56.3</ele>
        <time>2022-05-25T13:17:19Z</time>
      </trkpt>
      <trkpt lat="49.92371" lon="1.93174">
        <ele>56.3</ele>
        <time>2022-05-25T13:17:20Z</time>
      </trkpt>
      <trkpt lat="49.92371" lon="1.93175">
        <ele>56.3</ele>
        <time>2022-05-25T13:17:22Z</time>
      </trkpt>
      <trkpt lat="49.92371" lon="1.93176">
        <ele>56.2</ele>
        <time>2022-05-25T13:17:23Z</time>
      </trkpt>
      <trkpt lat="49.92372" lon="1.93179">
        <ele>56.2</ele>
        <time>2022-05-25T13:17:24Z</time>
      </trkpt>
      <trkpt lat="49.92372" lon="1.9318">
        <ele>56.2</ele>
        <time>2022-05-25T13:17:25Z</time>
      </trkpt>
      <trkpt lat="49.92373" lon="1.93182">
        <ele>56.1</ele>
        <time>2022-05-25T13:17:26Z</time>
      </trkpt>
      <trkpt lat="49.92374" lon="1.93185">
        <ele>56.1</ele>
        <time>2022-05-25T13:17:27Z</time>
      </trkpt>
      <trkpt lat="49.92375" lon="1.93186">
        <ele>56</ele>
        <time>2022-05-25T13:17:28Z</time>
      </trkpt>
      <trkpt lat="49.92375" lon="1.93187">
        <ele>56</ele>
        <time>2022-05-25T13:17:29Z</time>
      </trkpt>
      <trkpt lat="49.92376" lon="1.9319">
        <ele>55.9</ele>
        <time>2022-05-25T13:17:30Z</time>
      </trkpt>
      <trkpt lat="49.92377" lon="1.93191">
        <ele>55.9</ele>
        <time>2022-05-25T13:17:31Z</time>
      </trkpt>
      <trkpt lat="49.92377" lon="1.93192">
        <ele>55.9</ele>
        <time>2022-05-25T13:17:32Z</time>
      </trkpt>
      <trkpt lat="49.92378" lon="1.93193">
        <ele>55.9</ele>
        <time>2022-05-25T13:17:34Z</time>
      </trkpt>
      <trkpt lat="49.92379" lon="1.93196">
        <ele>55.8</ele>
        <time>2022-05-25T13:17:35Z</time>
      </trkpt>
      <trkpt lat="49.9238" lon="1.93199">
        <ele>55.7</ele>
        <time>2022-05-25T13:17:36Z</time>
      </trkpt>
      <trkpt lat="49.9238" lon="1.932">
        <ele>55.7</ele>
        <time>2022-05-25T13:17:37Z</time>
      </trkpt>
      <trkpt lat="49.9238" lon="1.93202">
        <ele>55.7</ele>
        <time>2022-05-25T13:17:38Z</time>
      </trkpt>
      <trkpt lat="49.9238" lon="1.93204">
        <ele>55.7</ele>
        <time>2022-05-25T13:17:39Z</time>
      </trkpt>
      <trkpt lat="49.9238" lon="1.93206">
        <ele>55.6</ele>
        <time>2022-05-25T13:17:40Z</time>
      </trkpt>
      <trkpt lat="49.92381" lon="1.93208">
        <ele>55.6</ele>
        <time>2022-05-25T13:17:42Z</time>
      </trkpt>
      <trkpt lat="49.92381" lon="1.9321">
        <ele>55.5</ele>
        <time>2022-05-25T13:17:43Z</time>
      </trkpt>
      <trkpt lat="49.92382" lon="1.93212">
        <ele>55.5</ele>
        <time>2022-05-25T13:17:44Z</time>
      </trkpt>
      <trkpt lat="49.92382" lon="1.93215">
        <ele>55.4</ele>
        <time>2022-05-25T13:17:45Z</time>
      </trkpt>
      <trkpt lat="49.92383" lon="1.93218">
        <ele>55.4</ele>
        <time>2022-05-25T13:17:46Z</time>
      </trkpt>
      <trkpt lat="49.92383" lon="1.9322">
        <ele>55.3</ele>
        <time>2022-05-25T13:17:47Z</time>
      </trkpt>
      <trkpt lat="49.92383" lon="1.93221">
        <ele>55.3</ele>
        <time>2022-05-25T13:17:48Z</time>
      </trkpt>
      <trkpt lat="49.92384" lon="1.93224">
        <ele>55.3</ele>
        <time>2022-05-25T13:17:49Z</time>
      </trkpt>
      <trkpt lat="49.92384" lon="1.93225">
        <ele>55.2</ele>
        <time>2022-05-25T13:17:50Z</time>
      </trkpt>
      <trkpt lat="49.92385" lon="1.93227">
        <ele>55.2</ele>
        <time>2022-05-25T13:17:52Z</time>
      </trkpt>
      <trkpt lat="49.92385" lon="1.9323">
        <ele>55.1</ele>
        <time>2022-05-25T13:17:53Z</time>
      </trkpt>
      <trkpt lat="49.92385" lon="1.93233">
        <ele>55.1</ele>
        <time>2022-05-25T13:17:54Z</time>
      </trkpt>
      <trkpt lat="49.92386" lon="1.93235">
        <ele>55.1</ele>
        <time>2022-05-25T13:17:55Z</time>
      </trkpt>
      <trkpt lat="49.92386" lon="1.93237">
        <ele>55</ele>
        <time>2022-05-25T13:17:56Z</time>
      </trkpt>
      <trkpt lat="49.92387" lon="1.93238">
        <ele>55</ele>
        <time>2022-05-25T13:17:57Z</time>
      </trkpt>
      <trkpt lat="49.92387" lon="1.9324">
        <ele>54.9</ele>
        <time>2022-05-25T13:17:59Z</time>
      </trkpt>
      <trkpt lat="49.92387" lon="1.93242">
        <ele>54.9</ele>
        <time>2022-05-25T13:18:00Z</time>
      </trkpt>
      <trkpt lat="49.92388" lon="1.93244">
        <ele>54.9</ele>
        <time>2022-05-25T13:18:01Z</time>
      </trkpt>
      <trkpt lat="49.92389" lon="1.93248">
        <ele>54.8</ele>
        <time>2022-05-25T13:18:02Z</time>
      </trkpt>
      <trkpt lat="49.92389" lon="1.9325">
        <ele>54.8</ele>
        <time>2022-05-25T13:18:03Z</time>
      </trkpt>
      <trkpt lat="49.9239" lon="1.93252">
        <ele>54.7</ele>
        <time>2022-05-25T13:18:04Z</time>
      </trkpt>
      <trkpt lat="49.9239" lon="1.93254">
        <ele>54.7</ele>
        <time>2022-05-25T13:18:05Z</time>
      </trkpt>
      <trkpt lat="49.9239" lon="1.93255">
        <ele>54.7</ele>
        <time>2022-05-25T13:18:06Z</time>
      </trkpt>
      <trkpt lat="49.92391" lon="1.93257">
        <ele>54.6</ele>
        <time>2022-05-25T13:18:08Z</time>
      </trkpt>
      <trkpt lat="49.92392" lon="1.93259">
        <ele>54.6</ele>
        <time>2022-05-25T13:18:09Z</time>
      </trkpt>
      <trkpt lat="49.92392" lon="1.93262">
        <ele>54.5</ele>
        <time>2022-05-25T13:18:10Z</time>
      </trkpt>
      <trkpt lat="49.92393" lon="1.93263">
        <ele>54.5</ele>
        <time>2022-05-25T13:18:11Z</time>
      </trkpt>
      <trkpt lat="49.92394" lon="1.93266">
        <ele>54.4</ele>
        <time>2022-05-25T13:18:12Z</time>
      </trkpt>
      <trkpt lat="49.92394" lon="1.93267">
        <ele>54.4</ele>
        <time>2022-05-25T13:18:13Z</time>
      </trkpt>
      <trkpt lat="49.92394" lon="1.93269">
        <ele>54.4</ele>
        <time>2022-05-25T13:18:15Z</time>
      </trkpt>
      <trkpt lat="49.92394" lon="1.93271">
        <ele>54.3</ele>
        <time>2022-05-25T13:18:16Z</time>
      </trkpt>
      <trkpt lat="49.92394" lon="1.93273">
        <ele>54.3</ele>
        <time>2022-05-25T13:18:17Z</time>
      </trkpt>
      <trkpt lat="49.92395" lon="1.93276">
        <ele>54.2</ele>
        <time>2022-05-25T13:18:18Z</time>
      </trkpt>
      <trkpt lat="49.92395" lon="1.93277">
        <ele>54.2</ele>
        <time>2022-05-25T13:18:19Z</time>
      </trkpt>
      <trkpt lat="49.92395" lon="1.93278">
        <ele>54.2</ele>
        <time>2022-05-25T13:18:20Z</time>
      </trkpt>
      <trkpt lat="49.92395" lon="1.93279">
        <ele>54.2</ele>
        <time>2022-05-25T13:18:22Z</time>
      </trkpt>
      <trkpt lat="49.92395" lon="1.93282">
        <ele>54.1</ele>
        <time>2022-05-25T13:18:23Z</time>
      </trkpt>
      <trkpt lat="49.92396" lon="1.93284">
        <ele>54.1</ele>
        <time>2022-05-25T13:18:24Z</time>
      </trkpt>
      <trkpt lat="49.92396" lon="1.93287">
        <ele>54</ele>
        <time>2022-05-25T13:18:25Z</time>
      </trkpt>
      <trkpt lat="49.92396" lon="1.93288">
        <ele>54</ele>
        <time>2022-05-25T13:18:26Z</time>
      </trkpt>
      <trkpt lat="49.92396" lon="1.9329">
        <ele>54</ele>
        <time>2022-05-25T13:18:27Z</time>
      </trkpt>
      <trkpt lat="49.92396" lon="1.93291">
        <ele>53.9</ele>
        <time>2022-05-25T13:18:29Z</time>
      </trkpt>
      <trkpt lat="49.92397" lon="1.93293">
        <ele>53.9</ele>
        <time>2022-05-25T13:18:30Z</time>
      </trkpt>
      <trkpt lat="49.92397" lon="1.93295">
        <ele>53.9</ele>
        <time>2022-05-25T13:18:31Z</time>
      </trkpt>
      <trkpt lat="49.92398" lon="1.93297">
        <ele>53.8</ele>
        <time>2022-05-25T13:18:32Z</time>
      </trkpt>
      <trkpt lat="49.92398" lon="1.93299">
        <ele>53.8</ele>
        <time>2022-05-25T13:18:33Z</time>
      </trkpt>
      <trkpt lat="49.92398" lon="1.93303">
        <ele>53.7</ele>
        <time>2022-05-25T13:18:34Z</time>
      </trkpt>
      <trkpt lat="49.92398" lon="1.93305">
        <ele>53.7</ele>
        <time>2022-05-25T13:18:35Z</time>
      </trkpt>
      <trkpt lat="49.92398" lon="1.93307">
        <ele>53.7</ele>
        <time>2022-05-25T13:18:37Z</time>
      </trkpt>
      <trkpt lat="49.92399" lon="1.93308">
        <ele>53.6</ele>
        <time>2022-05-25T13:18:38Z</time>
      </trkpt>
      <trkpt lat="49.92399" lon="1.9331">
        <ele>53.6</ele>
        <time>2022-05-25T13:18:39Z</time>
      </trkpt>
      <trkpt lat="49.92399" lon="1.93313">
        <ele>53.5</ele>
        <time>2022-05-25T13:18:40Z</time>
      </trkpt>
      <trkpt lat="49.92399" lon="1.93315">
        <ele>53.5</ele>
        <time>2022-05-25T13:18:41Z</time>
      </trkpt>
      <trkpt lat="49.92399" lon="1.93316">
        <ele>53.5</ele>
        <time>2022-05-25T13:18:42Z</time>
      </trkpt>
      <trkpt lat="49.92399" lon="1.93319">
        <ele>53.4</ele>
        <time>2022-05-25T13:18:44Z</time>
      </trkpt>
      <trkpt lat="49.92399" lon="1.93322">
        <ele>53.4</ele>
        <time>2022-05-25T13:18:45Z</time>
      </trkpt>
      <trkpt lat="49.92399" lon="1.93324">
        <ele>53.3</ele>
        <time>2022-05-25T13:18:46Z</time>
      </trkpt>
      <trkpt lat="49.92399" lon="1.93326">
        <ele>53.3</ele>
        <time>2022-05-25T13:18:47Z</time>
      </trkpt>
      <trkpt lat="49.92399" lon="1.9333">
        <ele>53.2</ele>
        <time>2022-05-25T13:18:48Z</time>
      </trkpt>
      <trkpt lat="49.92399" lon="1.93331">
        <ele>53.2</ele>
        <time>2022-05-25T13:18:49Z</time>
      </trkpt>
      <trkpt lat="49.92399" lon="1.93332">
        <ele>53.2</ele>
        <time>2022-05-25T13:18:50Z</time>
      </trkpt>
      <trkpt lat="49.92399" lon="1.93335">
        <ele>53.1</ele>
        <time>2022-05-25T13:18:51Z</time>
      </trkpt>
      <trkpt lat="49.924" lon="1.93338">
        <ele>53.1</ele>
        <time>2022-05-25T13:18:52Z</time>
      </trkpt>
      <trkpt lat="49.924" lon="1.9334">
        <ele>53</ele>
        <time>2022-05-25T13:18:53Z</time>
      </trkpt>
      <trkpt lat="49.924" lon="1.93342">
        <ele>53</ele>
        <time>2022-05-25T13:18:54Z</time>
      </trkpt>
      <trkpt lat="49.924" lon="1.93343">
        <ele>53</ele>
        <time>2022-05-25T13:18:56Z</time>
      </trkpt>
      <trkpt lat="49.924" lon="1.93345">
        <ele>52.9</ele>
        <time>2022-05-25T13:18:57Z</time>
      </trkpt>
      <trkpt lat="49.924" lon="1.93346">
        <ele>52.9</ele>
        <time>2022-05-25T13:18:58Z</time>
      </trkpt>
      <trkpt lat="49.924" lon="1.93347">
        <ele>52.9</ele>
        <time>2022-05-25T13:18:59Z</time>
      </trkpt>
      <trkpt lat="49.924" lon="1.93349">
        <ele>52.9</ele>
        <time>2022-05-25T13:19:00Z</time>
      </trkpt>
      <trkpt lat="49.924" lon="1.9335">
        <ele>52.9</ele>
        <time>2022-05-25T13:19:01Z</time>
      </trkpt>
      <trkpt lat="49.924" lon="1.93353">
        <ele>52.8</ele>
        <time>2022-05-25T13:19:02Z</time>
      </trkpt>
      <trkpt lat="49.924" lon="1.93355">
        <ele>52.8</ele>
        <time>2022-05-25T13:19:03Z</time>
      </trkpt>
      <trkpt lat="49.924" lon="1.93356">
        <ele>52.7</ele>
        <time>2022-05-25T13:19:04Z</time>
      </trkpt>
      <trkpt lat="49.92401" lon="1.93358">
        <ele>52.7</ele>
        <time>2022-05-25T13:19:06Z</time>
      </trkpt>
      <trkpt lat="49.92401" lon="1.9336">
        <ele>52.7</ele>
        <time>2022-05-25T13:19:07Z</time>
      </trkpt>
      <trkpt lat="49.92401" lon="1.93361">
        <ele>52.6</ele>
        <time>2022-05-25T13:19:08Z</time>
      </trkpt>
      <trkpt lat="49.92401" lon="1.93364">
        <ele>52.6</ele>
        <time>2022-05-25T13:19:09Z</time>
      </trkpt>
      <trkpt lat="49.92401" lon="1.93366">
        <ele>52.5</ele>
        <time>2022-05-25T13:19:10Z</time>
      </trkpt>
      <trkpt lat="49.92401" lon="1.93369">
        <ele>52.5</ele>
        <time>2022-05-25T13:19:11Z</time>
      </trkpt>
      <trkpt lat="49.92402" lon="1.93371">
        <ele>52.5</ele>
        <time>2022-05-25T13:19:13Z</time>
      </trkpt>
      <trkpt lat="49.92402" lon="1.93372">
        <ele>52.4</ele>
        <time>2022-05-25T13:19:14Z</time>
      </trkpt>
      <trkpt lat="49.92402" lon="1.93374">
        <ele>52.4</ele>
        <time>2022-05-25T13:19:15Z</time>
      </trkpt>
      <trkpt lat="49.92403" lon="1.93377">
        <ele>52.3</ele>
        <time>2022-05-25T13:19:16Z</time>
      </trkpt>
      <trkpt lat="49.92403" lon="1.93379">
        <ele>52.3</ele>
        <time>2022-05-25T13:19:17Z</time>
      </trkpt>
      <trkpt lat="49.92403" lon="1.93382">
        <ele>52.2</ele>
        <time>2022-05-25T13:19:18Z</time>
      </trkpt>
      <trkpt lat="49.92404" lon="1.93385">
        <ele>52.2</ele>
        <time>2022-05-25T13:19:19Z</time>
      </trkpt>
      <trkpt lat="49.92405" lon="1.93387">
        <ele>52.2</ele>
        <time>2022-05-25T13:19:20Z</time>
      </trkpt>
      <trkpt lat="49.92405" lon="1.9339">
        <ele>52.1</ele>
        <time>2022-05-25T13:19:22Z</time>
      </trkpt>
      <trkpt lat="49.92405" lon="1.93391">
        <ele>52.1</ele>
        <time>2022-05-25T13:19:23Z</time>
      </trkpt>
      <trkpt lat="49.92406" lon="1.93393">
        <ele>52</ele>
        <time>2022-05-25T13:19:24Z</time>
      </trkpt>
      <trkpt lat="49.92406" lon="1.93395">
        <ele>52</ele>
        <time>2022-05-25T13:19:25Z</time>
      </trkpt>
      <trkpt lat="49.92406" lon="1.93398">
        <ele>51.9</ele>
        <time>2022-05-25T13:19:26Z</time>
      </trkpt>
      <trkpt lat="49.92406" lon="1.934">
        <ele>51.9</ele>
        <time>2022-05-25T13:19:27Z</time>
      </trkpt>
      <trkpt lat="49.92406" lon="1.93402">
        <ele>51.9</ele>
        <time>2022-05-25T13:19:28Z</time>
      </trkpt>
      <trkpt lat="49.92406" lon="1.93404">
        <ele>51.8</ele>
        <time>2022-05-25T13:19:29Z</time>
      </trkpt>
      <trkpt lat="49.92406" lon="1.93407">
        <ele>51.8</ele>
        <time>2022-05-25T13:19:30Z</time>
      </trkpt>
      <trkpt lat="49.92406" lon="1.9341">
        <ele>51.7</ele>
        <time>2022-05-25T13:19:31Z</time>
      </trkpt>
      <trkpt lat="49.92406" lon="1.93412">
        <ele>51.7</ele>
        <time>2022-05-25T13:19:33Z</time>
      </trkpt>
      <trkpt lat="49.92406" lon="1.93414">
        <ele>51.6</ele>
        <time>2022-05-25T13:19:34Z</time>
      </trkpt>
      <trkpt lat="49.92407" lon="1.93416">
        <ele>51.6</ele>
        <time>2022-05-25T13:19:35Z</time>
      </trkpt>
      <trkpt lat="49.92407" lon="1.93418">
        <ele>51.6</ele>
        <time>2022-05-25T13:19:36Z</time>
      </trkpt>
      <trkpt lat="49.92407" lon="1.93421">
        <ele>51.5</ele>
        <time>2022-05-25T13:19:37Z</time>
      </trkpt>
      <trkpt lat="49.92407" lon="1.93422">
        <ele>51.5</ele>
        <time>2022-05-25T13:19:38Z</time>
      </trkpt>
      <trkpt lat="49.92407" lon="1.93423">
        <ele>51.5</ele>
        <time>2022-05-25T13:19:39Z</time>
      </trkpt>
      <trkpt lat="49.92407" lon="1.93425">
        <ele>51.4</ele>
        <time>2022-05-25T13:19:40Z</time>
      </trkpt>
      <trkpt lat="49.92407" lon="1.93426">
        <ele>51.4</ele>
        <time>2022-05-25T13:19:41Z</time>
      </trkpt>
      <trkpt lat="49.92407" lon="1.93428">
        <ele>51.4</ele>
        <time>2022-05-25T13:19:42Z</time>
      </trkpt>
      <trkpt lat="49.92407" lon="1.93428">
        <ele>51.4</ele>
        <time>2022-05-25T13:19:43Z</time>
      </trkpt>
      <trkpt lat="49.92407" lon="1.9343">
        <ele>51.3</ele>
        <time>2022-05-25T13:19:44Z</time>
      </trkpt>
      <trkpt lat="49.92407" lon="1.93432">
        <ele>51.3</ele>
        <time>2022-05-25T13:19:45Z</time>
      </trkpt>
      <trkpt lat="49.92406" lon="1.93435">
        <ele>51.2</ele>
        <time>2022-05-25T13:19:46Z</time>
      </trkpt>
      <trkpt lat="49.92406" lon="1.93436">
        <ele>51.2</ele>
        <time>2022-05-25T13:19:47Z</time>
      </trkpt>
      <trkpt lat="49.92406" lon="1.93438">
        <ele>51.2</ele>
        <time>2022-05-25T13:19:48Z</time>
      </trkpt>
      <trkpt lat="49.92407" lon="1.9344">
        <ele>51.1</ele>
        <time>2022-05-25T13:19:50Z</time>
      </trkpt>
      <trkpt lat="49.92407" lon="1.93442">
        <ele>51.1</ele>
        <time>2022-05-25T13:19:51Z</time>
      </trkpt>
      <trkpt lat="49.92407" lon="1.93445">
        <ele>51.1</ele>
        <time>2022-05-25T13:19:52Z</time>
      </trkpt>
      <trkpt lat="49.92407" lon="1.93447">
        <ele>51</ele>
        <time>2022-05-25T13:19:53Z</time>
      </trkpt>
      <trkpt lat="49.92407" lon="1.9345">
        <ele>51</ele>
        <time>2022-05-25T13:19:54Z</time>
      </trkpt>
      <trkpt lat="49.92407" lon="1.93451">
        <ele>50.9</ele>
        <time>2022-05-25T13:19:55Z</time>
      </trkpt>
      <trkpt lat="49.92408" lon="1.93454">
        <ele>50.9</ele>
        <time>2022-05-25T13:19:56Z</time>
      </trkpt>
      <trkpt lat="49.92408" lon="1.93456">
        <ele>50.9</ele>
        <time>2022-05-25T13:19:57Z</time>
      </trkpt>
      <trkpt lat="49.92408" lon="1.93457">
        <ele>50.8</ele>
        <time>2022-05-25T13:19:58Z</time>
      </trkpt>
      <trkpt lat="49.92408" lon="1.9346">
        <ele>50.8</ele>
        <time>2022-05-25T13:19:59Z</time>
      </trkpt>
      <trkpt lat="49.92408" lon="1.93461">
        <ele>50.8</ele>
        <time>2022-05-25T13:20:00Z</time>
      </trkpt>
      <trkpt lat="49.92408" lon="1.93463">
        <ele>50.7</ele>
        <time>2022-05-25T13:20:01Z</time>
      </trkpt>
      <trkpt lat="49.92408" lon="1.93465">
        <ele>50.7</ele>
        <time>2022-05-25T13:20:02Z</time>
      </trkpt>
      <trkpt lat="49.92408" lon="1.93467">
        <ele>50.7</ele>
        <time>2022-05-25T13:20:03Z</time>
      </trkpt>
      <trkpt lat="49.92408" lon="1.93469">
        <ele>50.6</ele>
        <time>2022-05-25T13:20:04Z</time>
      </trkpt>
      <trkpt lat="49.92408" lon="1.93471">
        <ele>50.6</ele>
        <time>2022-05-25T13:20:05Z</time>
      </trkpt>
      <trkpt lat="49.92409" lon="1.93472">
        <ele>50.5</ele>
        <time>2022-05-25T13:20:07Z</time>
      </trkpt>
      <trkpt lat="49.92409" lon="1.93475">
        <ele>50.5</ele>
        <time>2022-05-25T13:20:08Z</time>
      </trkpt>
      <trkpt lat="49.92409" lon="1.93477">
        <ele>50.5</ele>
        <time>2022-05-25T13:20:09Z</time>
      </trkpt>
      <trkpt lat="49.92409" lon="1.93478">
        <ele>50.4</ele>
        <time>2022-05-25T13:20:10Z</time>
      </trkpt>
      <trkpt lat="49.92409" lon="1.93481">
        <ele>50.4</ele>
        <time>2022-05-25T13:20:11Z</time>
      </trkpt>
      <trkpt lat="49.92409" lon="1.93483">
        <ele>50.3</ele>
        <time>2022-05-25T13:20:12Z</time>
      </trkpt>
      <trkpt lat="49.92409" lon="1.93484">
        <ele>50.3</ele>
        <time>2022-05-25T13:20:13Z</time>
      </trkpt>
      <trkpt lat="49.92409" lon="1.93487">
        <ele>50.3</ele>
        <time>2022-05-25T13:20:14Z</time>
      </trkpt>
      <trkpt lat="49.92408" lon="1.93489">
        <ele>50.2</ele>
        <time>2022-05-25T13:20:16Z</time>
      </trkpt>
      <trkpt lat="49.92409" lon="1.93491">
        <ele>50.2</ele>
        <time>2022-05-25T13:20:17Z</time>
      </trkpt>
      <trkpt lat="49.92409" lon="1.93493">
        <ele>50.2</ele>
        <time>2022-05-25T13:20:18Z</time>
      </trkpt>
      <trkpt lat="49.92409" lon="1.93498">
        <ele>50.1</ele>
        <time>2022-05-25T13:20:20Z</time>
      </trkpt>
      <trkpt lat="49.92409" lon="1.93499">
        <ele>50.1</ele>
        <time>2022-05-25T13:20:21Z</time>
      </trkpt>
      <trkpt lat="49.92409" lon="1.93501">
        <ele>50</ele>
        <time>2022-05-25T13:20:22Z</time>
      </trkpt>
      <trkpt lat="49.92409" lon="1.93503">
        <ele>50</ele>
        <time>2022-05-25T13:20:23Z</time>
      </trkpt>
      <trkpt lat="49.92409" lon="1.93507">
        <ele>49.9</ele>
        <time>2022-05-25T13:20:24Z</time>
      </trkpt>
      <trkpt lat="49.92409" lon="1.93508">
        <ele>49.9</ele>
        <time>2022-05-25T13:20:25Z</time>
      </trkpt>
      <trkpt lat="49.92409" lon="1.93511">
        <ele>49.8</ele>
        <time>2022-05-25T13:20:26Z</time>
      </trkpt>
      <trkpt lat="49.92409" lon="1.93512">
        <ele>49.8</ele>
        <time>2022-05-25T13:20:27Z</time>
      </trkpt>
      <trkpt lat="49.92409" lon="1.93514">
        <ele>49.8</ele>
        <time>2022-05-25T13:20:28Z</time>
      </trkpt>
      <trkpt lat="49.92409" lon="1.93517">
        <ele>49.7</ele>
        <time>2022-05-25T13:20:29Z</time>
      </trkpt>
      <trkpt lat="49.92409" lon="1.93518">
        <ele>49.7</ele>
        <time>2022-05-25T13:20:30Z</time>
      </trkpt>
      <trkpt lat="49.92409" lon="1.93519">
        <ele>49.7</ele>
        <time>2022-05-25T13:20:32Z</time>
      </trkpt>
      <trkpt lat="49.92409" lon="1.93521">
        <ele>49.6</ele>
        <time>2022-05-25T13:20:33Z</time>
      </trkpt>
      <trkpt lat="49.9241" lon="1.93522">
        <ele>49.6</ele>
        <time>2022-05-25T13:20:34Z</time>
      </trkpt>
      <trkpt lat="49.9241" lon="1.93526">
        <ele>49.5</ele>
        <time>2022-05-25T13:20:35Z</time>
      </trkpt>
      <trkpt lat="49.9241" lon="1.93527">
        <ele>49.5</ele>
        <time>2022-05-25T13:20:36Z</time>
      </trkpt>
      <trkpt lat="49.9241" lon="1.93528">
        <ele>49.5</ele>
        <time>2022-05-25T13:20:37Z</time>
      </trkpt>
      <trkpt lat="49.9241" lon="1.9353">
        <ele>49.5</ele>
        <time>2022-05-25T13:20:38Z</time>
      </trkpt>
      <trkpt lat="49.92409" lon="1.93533">
        <ele>49.4</ele>
        <time>2022-05-25T13:20:39Z</time>
      </trkpt>
      <trkpt lat="49.92409" lon="1.93535">
        <ele>49.4</ele>
        <time>2022-05-25T13:20:41Z</time>
      </trkpt>
      <trkpt lat="49.92409" lon="1.93536">
        <ele>49.4</ele>
        <time>2022-05-25T13:20:42Z</time>
      </trkpt>
      <trkpt lat="49.92409" lon="1.93538">
        <ele>49.3</ele>
        <time>2022-05-25T13:20:43Z</time>
      </trkpt>
      <trkpt lat="49.92408" lon="1.93541">
        <ele>49.3</ele>
        <time>2022-05-25T13:20:44Z</time>
      </trkpt>
      <trkpt lat="49.92408" lon="1.93542">
        <ele>49.2</ele>
        <time>2022-05-25T13:20:45Z</time>
      </trkpt>
      <trkpt lat="49.92407" lon="1.93544">
        <ele>49.2</ele>
        <time>2022-05-25T13:20:46Z</time>
      </trkpt>
      <trkpt lat="49.92407" lon="1.93546">
        <ele>49.2</ele>
        <time>2022-05-25T13:20:47Z</time>
      </trkpt>
      <trkpt lat="49.92406" lon="1.93548">
        <ele>49.1</ele>
        <time>2022-05-25T13:20:48Z</time>
      </trkpt>
      <trkpt lat="49.92406" lon="1.9355">
        <ele>49.1</ele>
        <time>2022-05-25T13:20:49Z</time>
      </trkpt>
      <trkpt lat="49.92406" lon="1.93552">
        <ele>49</ele>
        <time>2022-05-25T13:20:50Z</time>
      </trkpt>
      <trkpt lat="49.92405" lon="1.93554">
        <ele>49</ele>
        <time>2022-05-25T13:20:52Z</time>
      </trkpt>
      <trkpt lat="49.92404" lon="1.93557">
        <ele>48.9</ele>
        <time>2022-05-25T13:20:53Z</time>
      </trkpt>
      <trkpt lat="49.92404" lon="1.93558">
        <ele>48.9</ele>
        <time>2022-05-25T13:20:54Z</time>
      </trkpt>
      <trkpt lat="49.92403" lon="1.9356">
        <ele>48.9</ele>
        <time>2022-05-25T13:20:55Z</time>
      </trkpt>
      <trkpt lat="49.92402" lon="1.93565">
        <ele>48.8</ele>
        <time>2022-05-25T13:20:56Z</time>
      </trkpt>
      <trkpt lat="49.92401" lon="1.93566">
        <ele>48.7</ele>
        <time>2022-05-25T13:20:58Z</time>
      </trkpt>
      <trkpt lat="49.92401" lon="1.93568">
        <ele>48.7</ele>
        <time>2022-05-25T13:20:59Z</time>
      </trkpt>
      <trkpt lat="49.924" lon="1.9357">
        <ele>48.7</ele>
        <time>2022-05-25T13:21:00Z</time>
      </trkpt>
      <trkpt lat="49.92399" lon="1.93573">
        <ele>48.6</ele>
        <time>2022-05-25T13:21:01Z</time>
      </trkpt>
      <trkpt lat="49.92399" lon="1.93575">
        <ele>48.6</ele>
        <time>2022-05-25T13:21:02Z</time>
      </trkpt>
      <trkpt lat="49.92398" lon="1.93578">
        <ele>48.5</ele>
        <time>2022-05-25T13:21:03Z</time>
      </trkpt>
      <trkpt lat="49.92398" lon="1.93579">
        <ele>48.5</ele>
        <time>2022-05-25T13:21:04Z</time>
      </trkpt>
      <trkpt lat="49.92397" lon="1.9358">
        <ele>48.5</ele>
        <time>2022-05-25T13:21:05Z</time>
      </trkpt>
      <trkpt lat="49.92397" lon="1.93582">
        <ele>48.4</ele>
        <time>2022-05-25T13:21:07Z</time>
      </trkpt>
      <trkpt lat="49.92396" lon="1.93585">
        <ele>48.4</ele>
        <time>2022-05-25T13:21:08Z</time>
      </trkpt>
      <trkpt lat="49.92396" lon="1.93587">
        <ele>48.3</ele>
        <time>2022-05-25T13:21:09Z</time>
      </trkpt>
      <trkpt lat="49.92395" lon="1.93589">
        <ele>48.3</ele>
        <time>2022-05-25T13:21:10Z</time>
      </trkpt>
      <trkpt lat="49.92395" lon="1.93593">
        <ele>48.2</ele>
        <time>2022-05-25T13:21:11Z</time>
      </trkpt>
      <trkpt lat="49.92394" lon="1.93595">
        <ele>48.2</ele>
        <time>2022-05-25T13:21:12Z</time>
      </trkpt>
      <trkpt lat="49.92394" lon="1.93596">
        <ele>48.2</ele>
        <time>2022-05-25T13:21:13Z</time>
      </trkpt>
      <trkpt lat="49.92394" lon="1.93599">
        <ele>48.1</ele>
        <time>2022-05-25T13:21:14Z</time>
      </trkpt>
      <trkpt lat="49.92394" lon="1.936">
        <ele>48.1</ele>
        <time>2022-05-25T13:21:16Z</time>
      </trkpt>
      <trkpt lat="49.92393" lon="1.93602">
        <ele>48</ele>
        <time>2022-05-25T13:21:17Z</time>
      </trkpt>
      <trkpt lat="49.92393" lon="1.93604">
        <ele>48</ele>
        <time>2022-05-25T13:21:18Z</time>
      </trkpt>
      <trkpt lat="49.92393" lon="1.93607">
        <ele>48</ele>
        <time>2022-05-25T13:21:19Z</time>
      </trkpt>
      <trkpt lat="49.92393" lon="1.93608">
        <ele>47.9</ele>
        <time>2022-05-25T13:21:20Z</time>
      </trkpt>
      <trkpt lat="49.92392" lon="1.9361">
        <ele>47.9</ele>
        <time>2022-05-25T13:21:21Z</time>
      </trkpt>
      <trkpt lat="49.92392" lon="1.93612">
        <ele>47.8</ele>
        <time>2022-05-25T13:21:22Z</time>
      </trkpt>
      <trkpt lat="49.92392" lon="1.93614">
        <ele>47.8</ele>
        <time>2022-05-25T13:21:23Z</time>
      </trkpt>
      <trkpt lat="49.92391" lon="1.93617">
        <ele>47.8</ele>
        <time>2022-05-25T13:21:24Z</time>
      </trkpt>
      <trkpt lat="49.92391" lon="1.93618">
        <ele>47.7</ele>
        <time>2022-05-25T13:21:26Z</time>
      </trkpt>
      <trkpt lat="49.92391" lon="1.9362">
        <ele>47.7</ele>
        <time>2022-05-25T13:21:27Z</time>
      </trkpt>
      <trkpt lat="49.92391" lon="1.93622">
        <ele>47.7</ele>
        <time>2022-05-25T13:21:28Z</time>
      </trkpt>
      <trkpt lat="49.9239" lon="1.93626">
        <ele>47.6</ele>
        <time>2022-05-25T13:21:29Z</time>
      </trkpt>
      <trkpt lat="49.9239" lon="1.93627">
        <ele>47.6</ele>
        <time>2022-05-25T13:21:30Z</time>
      </trkpt>
      <trkpt lat="49.9239" lon="1.93629">
        <ele>47.5</ele>
        <time>2022-05-25T13:21:31Z</time>
      </trkpt>
      <trkpt lat="49.9239" lon="1.9363">
        <ele>47.5</ele>
        <time>2022-05-25T13:21:33Z</time>
      </trkpt>
      <trkpt lat="49.9239" lon="1.93632">
        <ele>47.5</ele>
        <time>2022-05-25T13:21:34Z</time>
      </trkpt>
      <trkpt lat="49.9239" lon="1.93634">
        <ele>47.4</ele>
        <time>2022-05-25T13:21:35Z</time>
      </trkpt>
      <trkpt lat="49.9239" lon="1.93636">
        <ele>47.4</ele>
        <time>2022-05-25T13:21:36Z</time>
      </trkpt>
      <trkpt lat="49.9239" lon="1.93637">
        <ele>47.4</ele>
        <time>2022-05-25T13:21:37Z</time>
      </trkpt>
      <trkpt lat="49.92389" lon="1.93639">
        <ele>47.3</ele>
        <time>2022-05-25T13:21:38Z</time>
      </trkpt>
      <trkpt lat="49.92389" lon="1.93641">
        <ele>47.3</ele>
        <time>2022-05-25T13:21:39Z</time>
      </trkpt>
      <trkpt lat="49.92389" lon="1.93645">
        <ele>47.2</ele>
        <time>2022-05-25T13:21:40Z</time>
      </trkpt>
      <trkpt lat="49.92389" lon="1.93646">
        <ele>47.2</ele>
        <time>2022-05-25T13:21:41Z</time>
      </trkpt>
      <trkpt lat="49.92389" lon="1.93647">
        <ele>47.2</ele>
        <time>2022-05-25T13:21:42Z</time>
      </trkpt>
      <trkpt lat="49.92389" lon="1.93649">
        <ele>47.2</ele>
        <time>2022-05-25T13:21:43Z</time>
      </trkpt>
      <trkpt lat="49.92389" lon="1.93651">
        <ele>47.1</ele>
        <time>2022-05-25T13:21:44Z</time>
      </trkpt>
      <trkpt lat="49.92389" lon="1.93653">
        <ele>47.1</ele>
        <time>2022-05-25T13:21:45Z</time>
      </trkpt>
      <trkpt lat="49.92389" lon="1.93656">
        <ele>47</ele>
        <time>2022-05-25T13:21:46Z</time>
      </trkpt>
      <trkpt lat="49.92389" lon="1.93657">
        <ele>47</ele>
        <time>2022-05-25T13:21:47Z</time>
      </trkpt>
      <trkpt lat="49.92389" lon="1.93658">
        <ele>47</ele>
        <time>2022-05-25T13:21:48Z</time>
      </trkpt>
      <trkpt lat="49.92389" lon="1.93663">
        <ele>46.9</ele>
        <time>2022-05-25T13:21:49Z</time>
      </trkpt>
      <trkpt lat="49.92389" lon="1.93664">
        <ele>46.9</ele>
        <time>2022-05-25T13:21:51Z</time>
      </trkpt>
      <trkpt lat="49.92389" lon="1.93666">
        <ele>46.8</ele>
        <time>2022-05-25T13:21:52Z</time>
      </trkpt>
      <trkpt lat="49.92389" lon="1.93667">
        <ele>46.8</ele>
        <time>2022-05-25T13:21:53Z</time>
      </trkpt>
      <trkpt lat="49.92389" lon="1.93669">
        <ele>46.8</ele>
        <time>2022-05-25T13:21:54Z</time>
      </trkpt>
      <trkpt lat="49.92389" lon="1.93671">
        <ele>46.7</ele>
        <time>2022-05-25T13:21:55Z</time>
      </trkpt>
      <trkpt lat="49.92389" lon="1.93673">
        <ele>46.7</ele>
        <time>2022-05-25T13:21:56Z</time>
      </trkpt>
      <trkpt lat="49.92389" lon="1.93676">
        <ele>46.6</ele>
        <time>2022-05-25T13:21:57Z</time>
      </trkpt>
      <trkpt lat="49.9239" lon="1.93678">
        <ele>46.6</ele>
        <time>2022-05-25T13:21:58Z</time>
      </trkpt>
      <trkpt lat="49.9239" lon="1.93679">
        <ele>46.6</ele>
        <time>2022-05-25T13:21:59Z</time>
      </trkpt>
      <trkpt lat="49.9239" lon="1.93682">
        <ele>46.5</ele>
        <time>2022-05-25T13:22:00Z</time>
      </trkpt>
      <trkpt lat="49.9239" lon="1.93684">
        <ele>46.5</ele>
        <time>2022-05-25T13:22:01Z</time>
      </trkpt>
      <trkpt lat="49.9239" lon="1.93685">
        <ele>46.5</ele>
        <time>2022-05-25T13:22:02Z</time>
      </trkpt>
      <trkpt lat="49.92391" lon="1.93687">
        <ele>46.4</ele>
        <time>2022-05-25T13:22:03Z</time>
      </trkpt>
      <trkpt lat="49.92391" lon="1.9369">
        <ele>46.4</ele>
        <time>2022-05-25T13:22:04Z</time>
      </trkpt>
      <trkpt lat="49.92391" lon="1.93692">
        <ele>46.4</ele>
        <time>2022-05-25T13:22:06Z</time>
      </trkpt>
      <trkpt lat="49.92391" lon="1.93695">
        <ele>46.3</ele>
        <time>2022-05-25T13:22:07Z</time>
      </trkpt>
      <trkpt lat="49.92391" lon="1.93699">
        <ele>46.2</ele>
        <time>2022-05-25T13:22:08Z</time>
      </trkpt>
      <trkpt lat="49.92391" lon="1.93701">
        <ele>46.2</ele>
        <time>2022-05-25T13:22:09Z</time>
      </trkpt>
      <trkpt lat="49.92391" lon="1.93703">
        <ele>46.1</ele>
        <time>2022-05-25T13:22:10Z</time>
      </trkpt>
      <trkpt lat="49.92391" lon="1.93705">
        <ele>46.1</ele>
        <time>2022-05-25T13:22:11Z</time>
      </trkpt>
      <trkpt lat="49.92391" lon="1.93707">
        <ele>46.1</ele>
        <time>2022-05-25T13:22:12Z</time>
      </trkpt>
      <trkpt lat="49.92391" lon="1.93709">
        <ele>46</ele>
        <time>2022-05-25T13:22:14Z</time>
      </trkpt>
      <trkpt lat="49.92391" lon="1.9371">
        <ele>46</ele>
        <time>2022-05-25T13:22:15Z</time>
      </trkpt>
      <trkpt lat="49.92391" lon="1.93714">
        <ele>45.9</ele>
        <time>2022-05-25T13:22:16Z</time>
      </trkpt>
      <trkpt lat="49.92391" lon="1.93716">
        <ele>45.9</ele>
        <time>2022-05-25T13:22:18Z</time>
      </trkpt>
      <trkpt lat="49.92391" lon="1.93718">
        <ele>45.9</ele>
        <time>2022-05-25T13:22:19Z</time>
      </trkpt>
      <trkpt lat="49.92391" lon="1.9372">
        <ele>45.8</ele>
        <time>2022-05-25T13:22:20Z</time>
      </trkpt>
      <trkpt lat="49.92391" lon="1.93723">
        <ele>45.8</ele>
        <time>2022-05-25T13:22:22Z</time>
      </trkpt>
      <trkpt lat="49.92391" lon="1.93725">
        <ele>45.7</ele>
        <time>2022-05-25T13:22:23Z</time>
      </trkpt>
      <trkpt lat="49.92391" lon="1.93726">
        <ele>45.7</ele>
        <time>2022-05-25T13:22:24Z</time>
      </trkpt>
      <trkpt lat="49.92391" lon="1.93728">
        <ele>45.7</ele>
        <time>2022-05-25T13:22:25Z</time>
      </trkpt>
      <trkpt lat="49.92391" lon="1.93731">
        <ele>45.6</ele>
        <time>2022-05-25T13:22:26Z</time>
      </trkpt>
      <trkpt lat="49.92391" lon="1.93733">
        <ele>45.6</ele>
        <time>2022-05-25T13:22:27Z</time>
      </trkpt>
      <trkpt lat="49.92391" lon="1.93735">
        <ele>45.6</ele>
        <time>2022-05-25T13:22:28Z</time>
      </trkpt>
      <trkpt lat="49.92391" lon="1.93737">
        <ele>45.5</ele>
        <time>2022-05-25T13:22:29Z</time>
      </trkpt>
      <trkpt lat="49.92391" lon="1.9374">
        <ele>45.5</ele>
        <time>2022-05-25T13:22:30Z</time>
      </trkpt>
      <trkpt lat="49.92391" lon="1.93742">
        <ele>45.4</ele>
        <time>2022-05-25T13:22:31Z</time>
      </trkpt>
      <trkpt lat="49.92392" lon="1.93745">
        <ele>45.4</ele>
        <time>2022-05-25T13:22:32Z</time>
      </trkpt>
      <trkpt lat="49.92392" lon="1.93747">
        <ele>45.3</ele>
        <time>2022-05-25T13:22:33Z</time>
      </trkpt>
      <trkpt lat="49.92392" lon="1.93749">
        <ele>45.3</ele>
        <time>2022-05-25T13:22:34Z</time>
      </trkpt>
      <trkpt lat="49.92392" lon="1.93751">
        <ele>45.2</ele>
        <time>2022-05-25T13:22:35Z</time>
      </trkpt>
      <trkpt lat="49.92393" lon="1.93753">
        <ele>45.2</ele>
        <time>2022-05-25T13:22:37Z</time>
      </trkpt>
      <trkpt lat="49.92393" lon="1.93754">
        <ele>45.2</ele>
        <time>2022-05-25T13:22:38Z</time>
      </trkpt>
      <trkpt lat="49.92393" lon="1.93757">
        <ele>45.1</ele>
        <time>2022-05-25T13:22:39Z</time>
      </trkpt>
      <trkpt lat="49.92393" lon="1.93758">
        <ele>45.1</ele>
        <time>2022-05-25T13:22:40Z</time>
      </trkpt>
      <trkpt lat="49.92393" lon="1.93759">
        <ele>45.1</ele>
        <time>2022-05-25T13:22:41Z</time>
      </trkpt>
      <trkpt lat="49.92394" lon="1.9376">
        <ele>45.1</ele>
        <time>2022-05-25T13:22:42Z</time>
      </trkpt>
      <trkpt lat="49.92394" lon="1.93762">
        <ele>45</ele>
        <time>2022-05-25T13:22:43Z</time>
      </trkpt>
      <trkpt lat="49.92394" lon="1.93764">
        <ele>45</ele>
        <time>2022-05-25T13:22:44Z</time>
      </trkpt>
      <trkpt lat="49.92394" lon="1.93767">
        <ele>45</ele>
        <time>2022-05-25T13:22:46Z</time>
      </trkpt>
      <trkpt lat="49.92394" lon="1.93769">
        <ele>44.9</ele>
        <time>2022-05-25T13:22:47Z</time>
      </trkpt>
      <trkpt lat="49.92394" lon="1.93772">
        <ele>44.9</ele>
        <time>2022-05-25T13:22:48Z</time>
      </trkpt>
      <trkpt lat="49.92394" lon="1.93774">
        <ele>44.8</ele>
        <time>2022-05-25T13:22:49Z</time>
      </trkpt>
      <trkpt lat="49.92394" lon="1.93776">
        <ele>44.8</ele>
        <time>2022-05-25T13:22:50Z</time>
      </trkpt>
      <trkpt lat="49.92394" lon="1.93779">
        <ele>44.7</ele>
        <time>2022-05-25T13:22:51Z</time>
      </trkpt>
      <trkpt lat="49.92394" lon="1.9378">
        <ele>44.7</ele>
        <time>2022-05-25T13:22:52Z</time>
      </trkpt>
      <trkpt lat="49.92394" lon="1.93782">
        <ele>44.7</ele>
        <time>2022-05-25T13:22:53Z</time>
      </trkpt>
      <trkpt lat="49.92395" lon="1.93784">
        <ele>44.6</ele>
        <time>2022-05-25T13:22:55Z</time>
      </trkpt>
      <trkpt lat="49.92395" lon="1.93785">
        <ele>44.6</ele>
        <time>2022-05-25T13:22:56Z</time>
      </trkpt>
      <trkpt lat="49.92395" lon="1.93787">
        <ele>44.6</ele>
        <time>2022-05-25T13:22:57Z</time>
      </trkpt>
      <trkpt lat="49.92395" lon="1.93789">
        <ele>44.5</ele>
        <time>2022-05-25T13:22:58Z</time>
      </trkpt>
      <trkpt lat="49.92396" lon="1.93792">
        <ele>44.5</ele>
        <time>2022-05-25T13:22:59Z</time>
      </trkpt>
      <trkpt lat="49.92396" lon="1.93794">
        <ele>44.5</ele>
        <time>2022-05-25T13:23:00Z</time>
      </trkpt>
      <trkpt lat="49.92396" lon="1.93795">
        <ele>44.4</ele>
        <time>2022-05-25T13:23:01Z</time>
      </trkpt>
      <trkpt lat="49.92396" lon="1.93798">
        <ele>44.4</ele>
        <time>2022-05-25T13:23:02Z</time>
      </trkpt>
      <trkpt lat="49.92396" lon="1.938">
        <ele>44.3</ele>
        <time>2022-05-25T13:23:03Z</time>
      </trkpt>
      <trkpt lat="49.92396" lon="1.93801">
        <ele>44.3</ele>
        <time>2022-05-25T13:23:04Z</time>
      </trkpt>
      <trkpt lat="49.92396" lon="1.93803">
        <ele>44.3</ele>
        <time>2022-05-25T13:23:05Z</time>
      </trkpt>
      <trkpt lat="49.92397" lon="1.93805">
        <ele>44.2</ele>
        <time>2022-05-25T13:23:06Z</time>
      </trkpt>
      <trkpt lat="49.92397" lon="1.93808">
        <ele>44.2</ele>
        <time>2022-05-25T13:23:07Z</time>
      </trkpt>
      <trkpt lat="49.92397" lon="1.93809">
        <ele>44.2</ele>
        <time>2022-05-25T13:23:08Z</time>
      </trkpt>
      <trkpt lat="49.92397" lon="1.93811">
        <ele>44.1</ele>
        <time>2022-05-25T13:23:09Z</time>
      </trkpt>
      <trkpt lat="49.92398" lon="1.93814">
        <ele>44.1</ele>
        <time>2022-05-25T13:23:10Z</time>
      </trkpt>
      <trkpt lat="49.92398" lon="1.93815">
        <ele>44</ele>
        <time>2022-05-25T13:23:11Z</time>
      </trkpt>
      <trkpt lat="49.92398" lon="1.93817">
        <ele>44</ele>
        <time>2022-05-25T13:23:12Z</time>
      </trkpt>
      <trkpt lat="49.92399" lon="1.93818">
        <ele>44</ele>
        <time>2022-05-25T13:23:14Z</time>
      </trkpt>
      <trkpt lat="49.92399" lon="1.93822">
        <ele>43.9</ele>
        <time>2022-05-25T13:23:15Z</time>
      </trkpt>
      <trkpt lat="49.924" lon="1.93824">
        <ele>43.9</ele>
        <time>2022-05-25T13:23:17Z</time>
      </trkpt>
      <trkpt lat="49.924" lon="1.93826">
        <ele>43.8</ele>
        <time>2022-05-25T13:23:18Z</time>
      </trkpt>
      <trkpt lat="49.92401" lon="1.93829">
        <ele>43.8</ele>
        <time>2022-05-25T13:23:19Z</time>
      </trkpt>
      <trkpt lat="49.92401" lon="1.93831">
        <ele>43.7</ele>
        <time>2022-05-25T13:23:20Z</time>
      </trkpt>
      <trkpt lat="49.92402" lon="1.93835">
        <ele>43.7</ele>
        <time>2022-05-25T13:23:21Z</time>
      </trkpt>
      <trkpt lat="49.92402" lon="1.93837">
        <ele>43.6</ele>
        <time>2022-05-25T13:23:23Z</time>
      </trkpt>
      <trkpt lat="49.92402" lon="1.93839">
        <ele>43.6</ele>
        <time>2022-05-25T13:23:24Z</time>
      </trkpt>
      <trkpt lat="49.92402" lon="1.9384">
        <ele>43.6</ele>
        <time>2022-05-25T13:23:25Z</time>
      </trkpt>
      <trkpt lat="49.92402" lon="1.93842">
        <ele>43.5</ele>
        <time>2022-05-25T13:23:26Z</time>
      </trkpt>
      <trkpt lat="49.92403" lon="1.93844">
        <ele>43.5</ele>
        <time>2022-05-25T13:23:27Z</time>
      </trkpt>
      <trkpt lat="49.92403" lon="1.93845">
        <ele>43.5</ele>
        <time>2022-05-25T13:23:28Z</time>
      </trkpt>
      <trkpt lat="49.92403" lon="1.93847">
        <ele>43.4</ele>
        <time>2022-05-25T13:23:29Z</time>
      </trkpt>
      <trkpt lat="49.92404" lon="1.93849">
        <ele>43.4</ele>
        <time>2022-05-25T13:23:30Z</time>
      </trkpt>
      <trkpt lat="49.92404" lon="1.93852">
        <ele>43.3</ele>
        <time>2022-05-25T13:23:31Z</time>
      </trkpt>
      <trkpt lat="49.92404" lon="1.93854">
        <ele>43.3</ele>
        <time>2022-05-25T13:23:32Z</time>
      </trkpt>
      <trkpt lat="49.92405" lon="1.93856">
        <ele>43.2</ele>
        <time>2022-05-25T13:23:33Z</time>
      </trkpt>
      <trkpt lat="49.92405" lon="1.93859">
        <ele>43.2</ele>
        <time>2022-05-25T13:23:34Z</time>
      </trkpt>
      <trkpt lat="49.92405" lon="1.93861">
        <ele>43.2</ele>
        <time>2022-05-25T13:23:36Z</time>
      </trkpt>
      <trkpt lat="49.92406" lon="1.93864">
        <ele>43.1</ele>
        <time>2022-05-25T13:23:37Z</time>
      </trkpt>
      <trkpt lat="49.92406" lon="1.93866">
        <ele>43.1</ele>
        <time>2022-05-25T13:23:38Z</time>
      </trkpt>
      <trkpt lat="49.92406" lon="1.93868">
        <ele>43</ele>
        <time>2022-05-25T13:23:39Z</time>
      </trkpt>
      <trkpt lat="49.92407" lon="1.9387">
        <ele>43</ele>
        <time>2022-05-25T13:23:40Z</time>
      </trkpt>
      <trkpt lat="49.92407" lon="1.93873">
        <ele>42.9</ele>
        <time>2022-05-25T13:23:41Z</time>
      </trkpt>
      <trkpt lat="49.92407" lon="1.93875">
        <ele>42.9</ele>
        <time>2022-05-25T13:23:42Z</time>
      </trkpt>
      <trkpt lat="49.92407" lon="1.93876">
        <ele>42.9</ele>
        <time>2022-05-25T13:23:43Z</time>
      </trkpt>
      <trkpt lat="49.92407" lon="1.93878">
        <ele>42.8</ele>
        <time>2022-05-25T13:23:44Z</time>
      </trkpt>
      <trkpt lat="49.92407" lon="1.9388">
        <ele>42.8</ele>
        <time>2022-05-25T13:23:45Z</time>
      </trkpt>
      <trkpt lat="49.92407" lon="1.93882">
        <ele>42.8</ele>
        <time>2022-05-25T13:23:46Z</time>
      </trkpt>
      <trkpt lat="49.92408" lon="1.93883">
        <ele>42.7</ele>
        <time>2022-05-25T13:23:47Z</time>
      </trkpt>
      <trkpt lat="49.92408" lon="1.93884">
        <ele>42.7</ele>
        <time>2022-05-25T13:23:49Z</time>
      </trkpt>
      <trkpt lat="49.92408" lon="1.93886">
        <ele>42.7</ele>
        <time>2022-05-25T13:23:50Z</time>
      </trkpt>
      <trkpt lat="49.92408" lon="1.9389">
        <ele>42.6</ele>
        <time>2022-05-25T13:23:51Z</time>
      </trkpt>
      <trkpt lat="49.92408" lon="1.93891">
        <ele>42.6</ele>
        <time>2022-05-25T13:23:52Z</time>
      </trkpt>
      <trkpt lat="49.92408" lon="1.93893">
        <ele>42.6</ele>
        <time>2022-05-25T13:23:53Z</time>
      </trkpt>
      <trkpt lat="49.92409" lon="1.93898">
        <ele>42.5</ele>
        <time>2022-05-25T13:23:54Z</time>
      </trkpt>
      <trkpt lat="49.92409" lon="1.939">
        <ele>42.4</ele>
        <time>2022-05-25T13:23:55Z</time>
      </trkpt>
      <trkpt lat="49.92409" lon="1.93901">
        <ele>42.4</ele>
        <time>2022-05-25T13:23:56Z</time>
      </trkpt>
      <trkpt lat="49.92409" lon="1.93903">
        <ele>42.4</ele>
        <time>2022-05-25T13:23:57Z</time>
      </trkpt>
      <trkpt lat="49.92409" lon="1.93905">
        <ele>42.3</ele>
        <time>2022-05-25T13:23:59Z</time>
      </trkpt>
      <trkpt lat="49.92409" lon="1.93908">
        <ele>42.3</ele>
        <time>2022-05-25T13:24:00Z</time>
      </trkpt>
      <trkpt lat="49.9241" lon="1.9391">
        <ele>42.2</ele>
        <time>2022-05-25T13:24:01Z</time>
      </trkpt>
      <trkpt lat="49.9241" lon="1.93913">
        <ele>42.2</ele>
        <time>2022-05-25T13:24:02Z</time>
      </trkpt>
      <trkpt lat="49.9241" lon="1.93914">
        <ele>42.2</ele>
        <time>2022-05-25T13:24:03Z</time>
      </trkpt>
      <trkpt lat="49.92411" lon="1.93915">
        <ele>42.1</ele>
        <time>2022-05-25T13:24:04Z</time>
      </trkpt>
      <trkpt lat="49.92411" lon="1.93916">
        <ele>42.1</ele>
        <time>2022-05-25T13:24:05Z</time>
      </trkpt>
      <trkpt lat="49.92411" lon="1.93918">
        <ele>42.1</ele>
        <time>2022-05-25T13:24:07Z</time>
      </trkpt>
      <trkpt lat="49.92411" lon="1.9392">
        <ele>42</ele>
        <time>2022-05-25T13:24:08Z</time>
      </trkpt>
      <trkpt lat="49.92412" lon="1.93922">
        <ele>42</ele>
        <time>2022-05-25T13:24:09Z</time>
      </trkpt>
      <trkpt lat="49.92412" lon="1.93924">
        <ele>42</ele>
        <time>2022-05-25T13:24:10Z</time>
      </trkpt>
      <trkpt lat="49.92412" lon="1.93925">
        <ele>42</ele>
        <time>2022-05-25T13:24:11Z</time>
      </trkpt>
      <trkpt lat="49.92413" lon="1.93926">
        <ele>41.9</ele>
        <time>2022-05-25T13:24:12Z</time>
      </trkpt>
      <trkpt lat="49.92414" lon="1.93927">
        <ele>41.9</ele>
        <time>2022-05-25T13:24:13Z</time>
      </trkpt>
      <trkpt lat="49.92414" lon="1.93929">
        <ele>41.9</ele>
        <time>2022-05-25T13:24:14Z</time>
      </trkpt>
      <trkpt lat="49.92415" lon="1.93933">
        <ele>41.8</ele>
        <time>2022-05-25T13:24:15Z</time>
      </trkpt>
      <trkpt lat="49.92415" lon="1.93934">
        <ele>41.8</ele>
        <time>2022-05-25T13:24:17Z</time>
      </trkpt>
      <trkpt lat="49.92415" lon="1.93935">
        <ele>41.7</ele>
        <time>2022-05-25T13:24:18Z</time>
      </trkpt>
      <trkpt lat="49.92416" lon="1.9394">
        <ele>41.7</ele>
        <time>2022-05-25T13:24:19Z</time>
      </trkpt>
      <trkpt lat="49.92416" lon="1.93941">
        <ele>41.6</ele>
        <time>2022-05-25T13:24:20Z</time>
      </trkpt>
      <trkpt lat="49.92416" lon="1.93944">
        <ele>41.6</ele>
        <time>2022-05-25T13:24:21Z</time>
      </trkpt>
      <trkpt lat="49.92417" lon="1.93945">
        <ele>41.5</ele>
        <time>2022-05-25T13:24:22Z</time>
      </trkpt>
      <trkpt lat="49.92417" lon="1.93948">
        <ele>41.5</ele>
        <time>2022-05-25T13:24:23Z</time>
      </trkpt>
      <trkpt lat="49.92417" lon="1.9395">
        <ele>41.5</ele>
        <time>2022-05-25T13:24:25Z</time>
      </trkpt>
      <trkpt lat="49.92418" lon="1.93951">
        <ele>41.4</ele>
        <time>2022-05-25T13:24:26Z</time>
      </trkpt>
      <trkpt lat="49.92418" lon="1.93955">
        <ele>41.4</ele>
        <time>2022-05-25T13:24:27Z</time>
      </trkpt>
      <trkpt lat="49.92419" lon="1.93956">
        <ele>41.3</ele>
        <time>2022-05-25T13:24:28Z</time>
      </trkpt>
      <trkpt lat="49.92419" lon="1.93959">
        <ele>41.3</ele>
        <time>2022-05-25T13:24:29Z</time>
      </trkpt>
      <trkpt lat="49.92419" lon="1.93961">
        <ele>41.3</ele>
        <time>2022-05-25T13:24:30Z</time>
      </trkpt>
      <trkpt lat="49.92419" lon="1.93963">
        <ele>41.2</ele>
        <time>2022-05-25T13:24:31Z</time>
      </trkpt>
      <trkpt lat="49.9242" lon="1.93967">
        <ele>41.1</ele>
        <time>2022-05-25T13:24:33Z</time>
      </trkpt>
      <trkpt lat="49.9242" lon="1.93969">
        <ele>41.1</ele>
        <time>2022-05-25T13:24:34Z</time>
      </trkpt>
      <trkpt lat="49.92421" lon="1.93973">
        <ele>41</ele>
        <time>2022-05-25T13:24:36Z</time>
      </trkpt>
      <trkpt lat="49.92421" lon="1.93976">
        <ele>41</ele>
        <time>2022-05-25T13:24:37Z</time>
      </trkpt>
      <trkpt lat="49.92421" lon="1.93978">
        <ele>40.9</ele>
        <time>2022-05-25T13:24:38Z</time>
      </trkpt>
      <trkpt lat="49.92421" lon="1.93981">
        <ele>40.9</ele>
        <time>2022-05-25T13:24:39Z</time>
      </trkpt>
      <trkpt lat="49.92422" lon="1.93983">
        <ele>40.8</ele>
        <time>2022-05-25T13:24:40Z</time>
      </trkpt>
      <trkpt lat="49.92422" lon="1.93986">
        <ele>40.8</ele>
        <time>2022-05-25T13:24:41Z</time>
      </trkpt>
      <trkpt lat="49.92422" lon="1.93989">
        <ele>40.7</ele>
        <time>2022-05-25T13:24:42Z</time>
      </trkpt>
      <trkpt lat="49.92422" lon="1.93991">
        <ele>40.7</ele>
        <time>2022-05-25T13:24:43Z</time>
      </trkpt>
      <trkpt lat="49.92422" lon="1.93993">
        <ele>40.6</ele>
        <time>2022-05-25T13:24:45Z</time>
      </trkpt>
      <trkpt lat="49.92423" lon="1.93995">
        <ele>40.6</ele>
        <time>2022-05-25T13:24:46Z</time>
      </trkpt>
      <trkpt lat="49.92423" lon="1.93997">
        <ele>40.6</ele>
        <time>2022-05-25T13:24:47Z</time>
      </trkpt>
      <trkpt lat="49.92424" lon="1.94">
        <ele>40.5</ele>
        <time>2022-05-25T13:24:48Z</time>
      </trkpt>
      <trkpt lat="49.92424" lon="1.94001">
        <ele>40.5</ele>
        <time>2022-05-25T13:24:49Z</time>
      </trkpt>
      <trkpt lat="49.92425" lon="1.94003">
        <ele>40.5</ele>
        <time>2022-05-25T13:24:50Z</time>
      </trkpt>
      <trkpt lat="49.92426" lon="1.94002">
        <ele>40.5</ele>
        <time>2022-05-25T13:24:51Z</time>
      </trkpt>
      <trkpt lat="49.92426" lon="1.94004">
        <ele>40.5</ele>
        <time>2022-05-25T13:24:52Z</time>
      </trkpt>
      <trkpt lat="49.92427" lon="1.94006">
        <ele>40.5</ele>
        <time>2022-05-25T13:24:53Z</time>
      </trkpt>
      <trkpt lat="49.92428" lon="1.94009">
        <ele>40.5</ele>
        <time>2022-05-25T13:24:54Z</time>
      </trkpt>
      <trkpt lat="49.92428" lon="1.94011">
        <ele>40.5</ele>
        <time>2022-05-25T13:24:56Z</time>
      </trkpt>
      <trkpt lat="49.92429" lon="1.94013">
        <ele>40.5</ele>
        <time>2022-05-25T13:24:57Z</time>
      </trkpt>
      <trkpt lat="49.92429" lon="1.94014">
        <ele>40.5</ele>
        <time>2022-05-25T13:24:58Z</time>
      </trkpt>
      <trkpt lat="49.9243" lon="1.94016">
        <ele>40.5</ele>
        <time>2022-05-25T13:24:59Z</time>
      </trkpt>
      <trkpt lat="49.9243" lon="1.94018">
        <ele>40.5</ele>
        <time>2022-05-25T13:25:00Z</time>
      </trkpt>
      <trkpt lat="49.9243" lon="1.9402">
        <ele>40.5</ele>
        <time>2022-05-25T13:25:01Z</time>
      </trkpt>
      <trkpt lat="49.92431" lon="1.94022">
        <ele>40.5</ele>
        <time>2022-05-25T13:25:02Z</time>
      </trkpt>
      <trkpt lat="49.92432" lon="1.94025">
        <ele>40.4</ele>
        <time>2022-05-25T13:25:03Z</time>
      </trkpt>
      <trkpt lat="49.92432" lon="1.94026">
        <ele>40.4</ele>
        <time>2022-05-25T13:25:04Z</time>
      </trkpt>
      <trkpt lat="49.92433" lon="1.94027">
        <ele>40.4</ele>
        <time>2022-05-25T13:25:05Z</time>
      </trkpt>
      <trkpt lat="49.92433" lon="1.94029">
        <ele>40.4</ele>
        <time>2022-05-25T13:25:07Z</time>
      </trkpt>
      <trkpt lat="49.92434" lon="1.94031">
        <ele>40.4</ele>
        <time>2022-05-25T13:25:08Z</time>
      </trkpt>
      <trkpt lat="49.92434" lon="1.94033">
        <ele>40.4</ele>
        <time>2022-05-25T13:25:09Z</time>
      </trkpt>
      <trkpt lat="49.92435" lon="1.94036">
        <ele>40.4</ele>
        <time>2022-05-25T13:25:10Z</time>
      </trkpt>
      <trkpt lat="49.92436" lon="1.94037">
        <ele>40.4</ele>
        <time>2022-05-25T13:25:11Z</time>
      </trkpt>
      <trkpt lat="49.92436" lon="1.94039">
        <ele>40.4</ele>
        <time>2022-05-25T13:25:12Z</time>
      </trkpt>
      <trkpt lat="49.92437" lon="1.94041">
        <ele>40.4</ele>
        <time>2022-05-25T13:25:13Z</time>
      </trkpt>
      <trkpt lat="49.92437" lon="1.94043">
        <ele>40.3</ele>
        <time>2022-05-25T13:25:14Z</time>
      </trkpt>
      <trkpt lat="49.92438" lon="1.94044">
        <ele>40.3</ele>
        <time>2022-05-25T13:25:16Z</time>
      </trkpt>
      <trkpt lat="49.92439" lon="1.94046">
        <ele>40.3</ele>
        <time>2022-05-25T13:25:18Z</time>
      </trkpt>
      <trkpt lat="49.92439" lon="1.94048">
        <ele>40.3</ele>
        <time>2022-05-25T13:25:19Z</time>
      </trkpt>
      <trkpt lat="49.9244" lon="1.9405">
        <ele>40.3</ele>
        <time>2022-05-25T13:25:20Z</time>
      </trkpt>
      <trkpt lat="49.92441" lon="1.94052">
        <ele>40.3</ele>
        <time>2022-05-25T13:25:21Z</time>
      </trkpt>
      <trkpt lat="49.92442" lon="1.94053">
        <ele>40.3</ele>
        <time>2022-05-25T13:25:22Z</time>
      </trkpt>
      <trkpt lat="49.92443" lon="1.94055">
        <ele>40.3</ele>
        <time>2022-05-25T13:25:23Z</time>
      </trkpt>
      <trkpt lat="49.92444" lon="1.94057">
        <ele>40.3</ele>
        <time>2022-05-25T13:25:25Z</time>
      </trkpt>
      <trkpt lat="49.92445" lon="1.94059">
        <ele>40.3</ele>
        <time>2022-05-25T13:25:26Z</time>
      </trkpt>
      <trkpt lat="49.92446" lon="1.94061">
        <ele>40.3</ele>
        <time>2022-05-25T13:25:28Z</time>
      </trkpt>
      <trkpt lat="49.92447" lon="1.94062">
        <ele>40.2</ele>
        <time>2022-05-25T13:25:29Z</time>
      </trkpt>
      <trkpt lat="49.92447" lon="1.94063">
        <ele>40.2</ele>
        <time>2022-05-25T13:25:30Z</time>
      </trkpt>
      <trkpt lat="49.92448" lon="1.94064">
        <ele>40.2</ele>
        <time>2022-05-25T13:25:31Z</time>
      </trkpt>
      <trkpt lat="49.9245" lon="1.94068">
        <ele>40.2</ele>
        <time>2022-05-25T13:25:32Z</time>
      </trkpt>
      <trkpt lat="49.9245" lon="1.94069">
        <ele>40.2</ele>
        <time>2022-05-25T13:25:34Z</time>
      </trkpt>
      <trkpt lat="49.92451" lon="1.94071">
        <ele>40.2</ele>
        <time>2022-05-25T13:25:35Z</time>
      </trkpt>
      <trkpt lat="49.92452" lon="1.94073">
        <ele>40.2</ele>
        <time>2022-05-25T13:25:36Z</time>
      </trkpt>
      <trkpt lat="49.92452" lon="1.94074">
        <ele>40.2</ele>
        <time>2022-05-25T13:25:37Z</time>
      </trkpt>
      <trkpt lat="49.92453" lon="1.94077">
        <ele>40.2</ele>
        <time>2022-05-25T13:25:38Z</time>
      </trkpt>
      <trkpt lat="49.92454" lon="1.94078">
        <ele>40.2</ele>
        <time>2022-05-25T13:25:39Z</time>
      </trkpt>
      <trkpt lat="49.92454" lon="1.9408">
        <ele>40.2</ele>
        <time>2022-05-25T13:25:40Z</time>
      </trkpt>
      <trkpt lat="49.92455" lon="1.94082">
        <ele>40.2</ele>
        <time>2022-05-25T13:25:41Z</time>
      </trkpt>
      <trkpt lat="49.92456" lon="1.94083">
        <ele>40.2</ele>
        <time>2022-05-25T13:25:43Z</time>
      </trkpt>
      <trkpt lat="49.92456" lon="1.94085">
        <ele>40.2</ele>
        <time>2022-05-25T13:25:44Z</time>
      </trkpt>
      <trkpt lat="49.92457" lon="1.94087">
        <ele>40.2</ele>
        <time>2022-05-25T13:25:45Z</time>
      </trkpt>
      <trkpt lat="49.92457" lon="1.94089">
        <ele>40.2</ele>
        <time>2022-05-25T13:25:46Z</time>
      </trkpt>
      <trkpt lat="49.92457" lon="1.94093">
        <ele>40.1</ele>
        <time>2022-05-25T13:25:47Z</time>
      </trkpt>
      <trkpt lat="49.92458" lon="1.94096">
        <ele>40.1</ele>
        <time>2022-05-25T13:25:48Z</time>
      </trkpt>
      <trkpt lat="49.92458" lon="1.94097">
        <ele>40.2</ele>
        <time>2022-05-25T13:25:49Z</time>
      </trkpt>
      <trkpt lat="49.92459" lon="1.94099">
        <ele>40.2</ele>
        <time>2022-05-25T13:25:50Z</time>
      </trkpt>
      <trkpt lat="49.92459" lon="1.94101">
        <ele>40.2</ele>
        <time>2022-05-25T13:25:52Z</time>
      </trkpt>
      <trkpt lat="49.9246" lon="1.94104">
        <ele>40.2</ele>
        <time>2022-05-25T13:25:53Z</time>
      </trkpt>
      <trkpt lat="49.9246" lon="1.94106">
        <ele>40.2</ele>
        <time>2022-05-25T13:25:54Z</time>
      </trkpt>
      <trkpt lat="49.92461" lon="1.94108">
        <ele>40.2</ele>
        <time>2022-05-25T13:25:55Z</time>
      </trkpt>
      <trkpt lat="49.92461" lon="1.9411">
        <ele>40.2</ele>
        <time>2022-05-25T13:25:56Z</time>
      </trkpt>
      <trkpt lat="49.92462" lon="1.94114">
        <ele>40.3</ele>
        <time>2022-05-25T13:25:58Z</time>
      </trkpt>
      <trkpt lat="49.92462" lon="1.94116">
        <ele>40.3</ele>
        <time>2022-05-25T13:25:59Z</time>
      </trkpt>
      <trkpt lat="49.92463" lon="1.94117">
        <ele>40.3</ele>
        <time>2022-05-25T13:26:00Z</time>
      </trkpt>
      <trkpt lat="49.92463" lon="1.94119">
        <ele>40.3</ele>
        <time>2022-05-25T13:26:02Z</time>
      </trkpt>
      <trkpt lat="49.92462" lon="1.94121">
        <ele>40.3</ele>
        <time>2022-05-25T13:26:03Z</time>
      </trkpt>
      <trkpt lat="49.92462" lon="1.94123">
        <ele>40.3</ele>
        <time>2022-05-25T13:26:04Z</time>
      </trkpt>
      <trkpt lat="49.92462" lon="1.94126">
        <ele>40.4</ele>
        <time>2022-05-25T13:26:05Z</time>
      </trkpt>
      <trkpt lat="49.92462" lon="1.94128">
        <ele>40.4</ele>
        <time>2022-05-25T13:26:07Z</time>
      </trkpt>
      <trkpt lat="49.92462" lon="1.9413">
        <ele>40.4</ele>
        <time>2022-05-25T13:26:08Z</time>
      </trkpt>
      <trkpt lat="49.92462" lon="1.94133">
        <ele>40.4</ele>
        <time>2022-05-25T13:26:09Z</time>
      </trkpt>
      <trkpt lat="49.92461" lon="1.94136">
        <ele>40.4</ele>
        <time>2022-05-25T13:26:10Z</time>
      </trkpt>
      <trkpt lat="49.9246" lon="1.94137">
        <ele>40.4</ele>
        <time>2022-05-25T13:26:11Z</time>
      </trkpt>
      <trkpt lat="49.9246" lon="1.94138">
        <ele>40.5</ele>
        <time>2022-05-25T13:26:12Z</time>
      </trkpt>
      <trkpt lat="49.92459" lon="1.94142">
        <ele>40.5</ele>
        <time>2022-05-25T13:26:13Z</time>
      </trkpt>
      <trkpt lat="49.92459" lon="1.94143">
        <ele>40.5</ele>
        <time>2022-05-25T13:26:14Z</time>
      </trkpt>
      <trkpt lat="49.92458" lon="1.94144">
        <ele>40.5</ele>
        <time>2022-05-25T13:26:15Z</time>
      </trkpt>
      <trkpt lat="49.92457" lon="1.94146">
        <ele>40.5</ele>
        <time>2022-05-25T13:26:16Z</time>
      </trkpt>
      <trkpt lat="49.92457" lon="1.94148">
        <ele>40.5</ele>
        <time>2022-05-25T13:26:17Z</time>
      </trkpt>
      <trkpt lat="49.92455" lon="1.94151">
        <ele>40.5</ele>
        <time>2022-05-25T13:26:18Z</time>
      </trkpt>
      <trkpt lat="49.92454" lon="1.94153">
        <ele>40.5</ele>
        <time>2022-05-25T13:26:20Z</time>
      </trkpt>
      <trkpt lat="49.92454" lon="1.94155">
        <ele>40.5</ele>
        <time>2022-05-25T13:26:21Z</time>
      </trkpt>
      <trkpt lat="49.92453" lon="1.94157">
        <ele>40.5</ele>
        <time>2022-05-25T13:26:23Z</time>
      </trkpt>
      <trkpt lat="49.92452" lon="1.94159">
        <ele>40.6</ele>
        <time>2022-05-25T13:26:24Z</time>
      </trkpt>
      <trkpt lat="49.92452" lon="1.9416">
        <ele>40.6</ele>
        <time>2022-05-25T13:26:25Z</time>
      </trkpt>
      <trkpt lat="49.9245" lon="1.94162">
        <ele>40.6</ele>
        <time>2022-05-25T13:26:27Z</time>
      </trkpt>
      <trkpt lat="49.92449" lon="1.94163">
        <ele>40.6</ele>
        <time>2022-05-25T13:26:28Z</time>
      </trkpt>
      <trkpt lat="49.92448" lon="1.94166">
        <ele>40.6</ele>
        <time>2022-05-25T13:26:29Z</time>
      </trkpt>
      <trkpt lat="49.92447" lon="1.94168">
        <ele>40.7</ele>
        <time>2022-05-25T13:26:30Z</time>
      </trkpt>
      <trkpt lat="49.92446" lon="1.94169">
        <ele>40.7</ele>
        <time>2022-05-25T13:26:31Z</time>
      </trkpt>
      <trkpt lat="49.92445" lon="1.94171">
        <ele>40.7</ele>
        <time>2022-05-25T13:26:32Z</time>
      </trkpt>
      <trkpt lat="49.92443" lon="1.94173">
        <ele>40.8</ele>
        <time>2022-05-25T13:26:33Z</time>
      </trkpt>
      <trkpt lat="49.92443" lon="1.94174">
        <ele>40.8</ele>
        <time>2022-05-25T13:26:35Z</time>
      </trkpt>
      <trkpt lat="49.92442" lon="1.94175">
        <ele>40.8</ele>
        <time>2022-05-25T13:26:36Z</time>
      </trkpt>
      <trkpt lat="49.9244" lon="1.94176">
        <ele>40.8</ele>
        <time>2022-05-25T13:26:37Z</time>
      </trkpt>
      <trkpt lat="49.9244" lon="1.94177">
        <ele>40.9</ele>
        <time>2022-05-25T13:26:38Z</time>
      </trkpt>
      <trkpt lat="49.92439" lon="1.94178">
        <ele>40.9</ele>
        <time>2022-05-25T13:26:39Z</time>
      </trkpt>
      <trkpt lat="49.92438" lon="1.94179">
        <ele>40.9</ele>
        <time>2022-05-25T13:26:40Z</time>
      </trkpt>
      <trkpt lat="49.92437" lon="1.9418">
        <ele>40.9</ele>
        <time>2022-05-25T13:26:41Z</time>
      </trkpt>
      <trkpt lat="49.92436" lon="1.94181">
        <ele>41</ele>
        <time>2022-05-25T13:26:42Z</time>
      </trkpt>
      <trkpt lat="49.92436" lon="1.94183">
        <ele>41</ele>
        <time>2022-05-25T13:26:43Z</time>
      </trkpt>
      <trkpt lat="49.92435" lon="1.94184">
        <ele>41</ele>
        <time>2022-05-25T13:26:44Z</time>
      </trkpt>
      <trkpt lat="49.92434" lon="1.94186">
        <ele>41.1</ele>
        <time>2022-05-25T13:26:46Z</time>
      </trkpt>
      <trkpt lat="49.92433" lon="1.94187">
        <ele>41.1</ele>
        <time>2022-05-25T13:26:47Z</time>
      </trkpt>
      <trkpt lat="49.92433" lon="1.94188">
        <ele>41.1</ele>
        <time>2022-05-25T13:26:48Z</time>
      </trkpt>
      <trkpt lat="49.92432" lon="1.94189">
        <ele>41.1</ele>
        <time>2022-05-25T13:26:49Z</time>
      </trkpt>
      <trkpt lat="49.92431" lon="1.9419">
        <ele>41.2</ele>
        <time>2022-05-25T13:26:50Z</time>
      </trkpt>
      <trkpt lat="49.9243" lon="1.94192">
        <ele>41.2</ele>
        <time>2022-05-25T13:26:51Z</time>
      </trkpt>
      <trkpt lat="49.9243" lon="1.94193">
        <ele>41.2</ele>
        <time>2022-05-25T13:26:52Z</time>
      </trkpt>
      <trkpt lat="49.92429" lon="1.94194">
        <ele>41.2</ele>
        <time>2022-05-25T13:26:54Z</time>
      </trkpt>
      <trkpt lat="49.92428" lon="1.94194">
        <ele>41.3</ele>
        <time>2022-05-25T13:26:55Z</time>
      </trkpt>
      <trkpt lat="49.92427" lon="1.94196">
        <ele>41.3</ele>
        <time>2022-05-25T13:26:56Z</time>
      </trkpt>
      <trkpt lat="49.92426" lon="1.94197">
        <ele>41.4</ele>
        <time>2022-05-25T13:26:57Z</time>
      </trkpt>
      <trkpt lat="49.92425" lon="1.94199">
        <ele>41.4</ele>
        <time>2022-05-25T13:26:58Z</time>
      </trkpt>
      <trkpt lat="49.92423" lon="1.94201">
        <ele>41.5</ele>
        <time>2022-05-25T13:26:59Z</time>
      </trkpt>
      <trkpt lat="49.92422" lon="1.94202">
        <ele>41.5</ele>
        <time>2022-05-25T13:27:00Z</time>
      </trkpt>
      <trkpt lat="49.92422" lon="1.94203">
        <ele>41.5</ele>
        <time>2022-05-25T13:27:01Z</time>
      </trkpt>
      <trkpt lat="49.92421" lon="1.94203">
        <ele>41.6</ele>
        <time>2022-05-25T13:27:03Z</time>
      </trkpt>
      <trkpt lat="49.9242" lon="1.94204">
        <ele>41.6</ele>
        <time>2022-05-25T13:27:04Z</time>
      </trkpt>
      <trkpt lat="49.92419" lon="1.94206">
        <ele>41.7</ele>
        <time>2022-05-25T13:27:05Z</time>
      </trkpt>
      <trkpt lat="49.92417" lon="1.94208">
        <ele>41.7</ele>
        <time>2022-05-25T13:27:06Z</time>
      </trkpt>
      <trkpt lat="49.92417" lon="1.94209">
        <ele>41.8</ele>
        <time>2022-05-25T13:27:07Z</time>
      </trkpt>
      <trkpt lat="49.92416" lon="1.9421">
        <ele>41.8</ele>
        <time>2022-05-25T13:27:08Z</time>
      </trkpt>
      <trkpt lat="49.92415" lon="1.94211">
        <ele>41.8</ele>
        <time>2022-05-25T13:27:10Z</time>
      </trkpt>
      <trkpt lat="49.92415" lon="1.94213">
        <ele>41.9</ele>
        <time>2022-05-25T13:27:11Z</time>
      </trkpt>
      <trkpt lat="49.92414" lon="1.94215">
        <ele>41.9</ele>
        <time>2022-05-25T13:27:12Z</time>
      </trkpt>
      <trkpt lat="49.92413" lon="1.94217">
        <ele>42</ele>
        <time>2022-05-25T13:27:13Z</time>
      </trkpt>
      <trkpt lat="49.92413" lon="1.94219">
        <ele>42.1</ele>
        <time>2022-05-25T13:27:14Z</time>
      </trkpt>
      <trkpt lat="49.92412" lon="1.94221">
        <ele>42.1</ele>
        <time>2022-05-25T13:27:15Z</time>
      </trkpt>
      <trkpt lat="49.92412" lon="1.94223">
        <ele>42.1</ele>
        <time>2022-05-25T13:27:17Z</time>
      </trkpt>
      <trkpt lat="49.92412" lon="1.94224">
        <ele>42.2</ele>
        <time>2022-05-25T13:27:18Z</time>
      </trkpt>
      <trkpt lat="49.92412" lon="1.94225">
        <ele>42.2</ele>
        <time>2022-05-25T13:27:19Z</time>
      </trkpt>
      <trkpt lat="49.92411" lon="1.94227">
        <ele>42.3</ele>
        <time>2022-05-25T13:27:20Z</time>
      </trkpt>
      <trkpt lat="49.92411" lon="1.94228">
        <ele>42.3</ele>
        <time>2022-05-25T13:27:21Z</time>
      </trkpt>
      <trkpt lat="49.92411" lon="1.9423">
        <ele>42.4</ele>
        <time>2022-05-25T13:27:22Z</time>
      </trkpt>
      <trkpt lat="49.92411" lon="1.94232">
        <ele>42.4</ele>
        <time>2022-05-25T13:27:23Z</time>
      </trkpt>
      <trkpt lat="49.9241" lon="1.94233">
        <ele>42.5</ele>
        <time>2022-05-25T13:27:25Z</time>
      </trkpt>
      <trkpt lat="49.92409" lon="1.94236">
        <ele>42.6</ele>
        <time>2022-05-25T13:27:26Z</time>
      </trkpt>
      <trkpt lat="49.92408" lon="1.94238">
        <ele>42.6</ele>
        <time>2022-05-25T13:27:27Z</time>
      </trkpt>
      <trkpt lat="49.92407" lon="1.94239">
        <ele>42.7</ele>
        <time>2022-05-25T13:27:29Z</time>
      </trkpt>
      <trkpt lat="49.92406" lon="1.9424">
        <ele>42.8</ele>
        <time>2022-05-25T13:27:30Z</time>
      </trkpt>
      <trkpt lat="49.92405" lon="1.94242">
        <ele>42.8</ele>
        <time>2022-05-25T13:27:31Z</time>
      </trkpt>
      <trkpt lat="49.92405" lon="1.94243">
        <ele>42.9</ele>
        <time>2022-05-25T13:27:32Z</time>
      </trkpt>
      <trkpt lat="49.92404" lon="1.94244">
        <ele>42.9</ele>
        <time>2022-05-25T13:27:34Z</time>
      </trkpt>
      <trkpt lat="49.92403" lon="1.94245">
        <ele>43</ele>
        <time>2022-05-25T13:27:35Z</time>
      </trkpt>
      <trkpt lat="49.92402" lon="1.94246">
        <ele>43.1</ele>
        <time>2022-05-25T13:27:36Z</time>
      </trkpt>
      <trkpt lat="49.92401" lon="1.94247">
        <ele>43.1</ele>
        <time>2022-05-25T13:27:37Z</time>
      </trkpt>
      <trkpt lat="49.92401" lon="1.94249">
        <ele>43.2</ele>
        <time>2022-05-25T13:27:38Z</time>
      </trkpt>
      <trkpt lat="49.92401" lon="1.9425">
        <ele>43.2</ele>
        <time>2022-05-25T13:27:40Z</time>
      </trkpt>
      <trkpt lat="49.92401" lon="1.94252">
        <ele>43.2</ele>
        <time>2022-05-25T13:27:41Z</time>
      </trkpt>
      <trkpt lat="49.92401" lon="1.94254">
        <ele>43.2</ele>
        <time>2022-05-25T13:27:42Z</time>
      </trkpt>
      <trkpt lat="49.924" lon="1.94256">
        <ele>43.3</ele>
        <time>2022-05-25T13:27:43Z</time>
      </trkpt>
      <trkpt lat="49.924" lon="1.94257">
        <ele>43.3</ele>
        <time>2022-05-25T13:27:44Z</time>
      </trkpt>
      <trkpt lat="49.92399" lon="1.94258">
        <ele>43.3</ele>
        <time>2022-05-25T13:27:46Z</time>
      </trkpt>
      <trkpt lat="49.92399" lon="1.94259">
        <ele>43.4</ele>
        <time>2022-05-25T13:27:47Z</time>
      </trkpt>
      <trkpt lat="49.92398" lon="1.94261">
        <ele>43.4</ele>
        <time>2022-05-25T13:27:48Z</time>
      </trkpt>
      <trkpt lat="49.92398" lon="1.94262">
        <ele>43.4</ele>
        <time>2022-05-25T13:27:49Z</time>
      </trkpt>
      <trkpt lat="49.92398" lon="1.94264">
        <ele>43.4</ele>
        <time>2022-05-25T13:27:51Z</time>
      </trkpt>
      <trkpt lat="49.92397" lon="1.94267">
        <ele>43.5</ele>
        <time>2022-05-25T13:27:52Z</time>
      </trkpt>
      <trkpt lat="49.92396" lon="1.94269">
        <ele>43.5</ele>
        <time>2022-05-25T13:27:54Z</time>
      </trkpt>
      <trkpt lat="49.92396" lon="1.94271">
        <ele>43.5</ele>
        <time>2022-05-25T13:27:55Z</time>
      </trkpt>
      <trkpt lat="49.92395" lon="1.94274">
        <ele>43.6</ele>
        <time>2022-05-25T13:27:56Z</time>
      </trkpt>
      <trkpt lat="49.92394" lon="1.94276">
        <ele>43.6</ele>
        <time>2022-05-25T13:27:58Z</time>
      </trkpt>
      <trkpt lat="49.92393" lon="1.94278">
        <ele>43.7</ele>
        <time>2022-05-25T13:27:59Z</time>
      </trkpt>
      <trkpt lat="49.92393" lon="1.94279">
        <ele>43.7</ele>
        <time>2022-05-25T13:28:00Z</time>
      </trkpt>
      <trkpt lat="49.92392" lon="1.9428">
        <ele>43.7</ele>
        <time>2022-05-25T13:28:01Z</time>
      </trkpt>
      <trkpt lat="49.92389" lon="1.94284">
        <ele>43.8</ele>
        <time>2022-05-25T13:28:03Z</time>
      </trkpt>
      <trkpt lat="49.92388" lon="1.94287">
        <ele>43.9</ele>
        <time>2022-05-25T13:28:05Z</time>
      </trkpt>
      <trkpt lat="49.92387" lon="1.94288">
        <ele>43.9</ele>
        <time>2022-05-25T13:28:07Z</time>
      </trkpt>
      <trkpt lat="49.92386" lon="1.9429">
        <ele>43.9</ele>
        <time>2022-05-25T13:28:08Z</time>
      </trkpt>
      <trkpt lat="49.92386" lon="1.94291">
        <ele>44</ele>
        <time>2022-05-25T13:28:09Z</time>
      </trkpt>
      <trkpt lat="49.92386" lon="1.94292">
        <ele>44</ele>
        <time>2022-05-25T13:28:10Z</time>
      </trkpt>
      <trkpt lat="49.92386" lon="1.94294">
        <ele>44</ele>
        <time>2022-05-25T13:28:12Z</time>
      </trkpt>
      <trkpt lat="49.92385" lon="1.94297">
        <ele>44</ele>
        <time>2022-05-25T13:28:14Z</time>
      </trkpt>
      <trkpt lat="49.92385" lon="1.94298">
        <ele>44.1</ele>
        <time>2022-05-25T13:28:16Z</time>
      </trkpt>
      <trkpt lat="49.92385" lon="1.94298">
        <ele>44.1</ele>
        <time>2022-05-25T13:28:17Z</time>
      </trkpt>
      <trkpt lat="49.92386" lon="1.94298">
        <ele>44.1</ele>
        <time>2022-05-25T13:28:18Z</time>
      </trkpt>
      <trkpt lat="49.92387" lon="1.94297">
        <ele>44.1</ele>
        <time>2022-05-25T13:28:19Z</time>
      </trkpt>
      <trkpt lat="49.92387" lon="1.94297">
        <ele>44.1</ele>
        <time>2022-05-25T13:28:20Z</time>
      </trkpt>
      <trkpt lat="49.92387" lon="1.94296">
        <ele>44.1</ele>
        <time>2022-05-25T13:28:21Z</time>
      </trkpt>
      <trkpt lat="49.92387" lon="1.94296">
        <ele>44.1</ele>
        <time>2022-05-25T13:28:22Z</time>
      </trkpt>
      <trkpt lat="49.92387" lon="1.94295">
        <ele>44.1</ele>
        <time>2022-05-25T13:28:23Z</time>
      </trkpt>
      <trkpt lat="49.92386" lon="1.94295">
        <ele>44.1</ele>
        <time>2022-05-25T13:28:24Z</time>
      </trkpt>
      <trkpt lat="49.92386" lon="1.94294">
        <ele>44.1</ele>
        <time>2022-05-25T13:28:25Z</time>
      </trkpt>
      <trkpt lat="49.92386" lon="1.94294">
        <ele>44.2</ele>
        <time>2022-05-25T13:28:26Z</time>
      </trkpt>
      <trkpt lat="49.92387" lon="1.94294">
        <ele>44.2</ele>
        <time>2022-05-25T13:28:27Z</time>
      </trkpt>
      <trkpt lat="49.92387" lon="1.94293">
        <ele>44.2</ele>
        <time>2022-05-25T13:28:28Z</time>
      </trkpt>
      <trkpt lat="49.92387" lon="1.94294">
        <ele>44.2</ele>
        <time>2022-05-25T13:28:29Z</time>
      </trkpt>
      <trkpt lat="49.92387" lon="1.94294">
        <ele>44.2</ele>
        <time>2022-05-25T13:28:30Z</time>
      </trkpt>
      <trkpt lat="49.92387" lon="1.94294">
        <ele>44.2</ele>
        <time>2022-05-25T13:28:31Z</time>
      </trkpt>
      <trkpt lat="49.92386" lon="1.94294">
        <ele>44.2</ele>
        <time>2022-05-25T13:28:32Z</time>
      </trkpt>
      <trkpt lat="49.92386" lon="1.94294">
        <ele>44.2</ele>
        <time>2022-05-25T13:28:33Z</time>
      </trkpt>
      <trkpt lat="49.92387" lon="1.94289">
        <ele>44.3</ele>
        <time>2022-05-25T13:28:34Z</time>
      </trkpt>
      <trkpt lat="49.92387" lon="1.9429">
        <ele>44.3</ele>
        <time>2022-05-25T13:28:35Z</time>
      </trkpt>
      <trkpt lat="49.92387" lon="1.9429">
        <ele>44.3</ele>
        <time>2022-05-25T13:28:37Z</time>
      </trkpt>
      <trkpt lat="49.92387" lon="1.9429">
        <ele>44.3</ele>
        <time>2022-05-25T13:28:38Z</time>
      </trkpt>
      <trkpt lat="49.92387" lon="1.94291">
        <ele>44.3</ele>
        <time>2022-05-25T13:28:39Z</time>
      </trkpt>
      <trkpt lat="49.92387" lon="1.94291">
        <ele>44.3</ele>
        <time>2022-05-25T13:28:40Z</time>
      </trkpt>
      <trkpt lat="49.92387" lon="1.9429">
        <ele>44.3</ele>
        <time>2022-05-25T13:28:41Z</time>
      </trkpt>
      <trkpt lat="49.92387" lon="1.9429">
        <ele>44.3</ele>
        <time>2022-05-25T13:28:42Z</time>
      </trkpt>
      <trkpt lat="49.92387" lon="1.9429">
        <ele>44.3</ele>
        <time>2022-05-25T13:28:43Z</time>
      </trkpt>
      <trkpt lat="49.92387" lon="1.9429">
        <ele>44.3</ele>
        <time>2022-05-25T13:28:44Z</time>
      </trkpt>
      <trkpt lat="49.92387" lon="1.9429">
        <ele>44.3</ele>
        <time>2022-05-25T13:28:45Z</time>
      </trkpt>
      <trkpt lat="49.92386" lon="1.94294">
        <ele>44.3</ele>
        <time>2022-05-25T13:28:46Z</time>
      </trkpt>
      <trkpt lat="49.92387" lon="1.94294">
        <ele>44.4</ele>
        <time>2022-05-25T13:28:48Z</time>
      </trkpt>
      <trkpt lat="49.92389" lon="1.94293">
        <ele>44.4</ele>
        <time>2022-05-25T13:28:49Z</time>
      </trkpt>
      <trkpt lat="49.92389" lon="1.94293">
        <ele>44.4</ele>
        <time>2022-05-25T13:28:50Z</time>
      </trkpt>
      <trkpt lat="49.9239" lon="1.94293">
        <ele>44.4</ele>
        <time>2022-05-25T13:28:51Z</time>
      </trkpt>
      <trkpt lat="49.9239" lon="1.94293">
        <ele>44.4</ele>
        <time>2022-05-25T13:28:52Z</time>
      </trkpt>
      <trkpt lat="49.9239" lon="1.94293">
        <ele>44.4</ele>
        <time>2022-05-25T13:28:53Z</time>
      </trkpt>
      <trkpt lat="49.9239" lon="1.94293">
        <ele>44.4</ele>
        <time>2022-05-25T13:28:54Z</time>
      </trkpt>
      <trkpt lat="49.92389" lon="1.94293">
        <ele>44.4</ele>
        <time>2022-05-25T13:28:55Z</time>
      </trkpt>
      <trkpt lat="49.92389" lon="1.94293">
        <ele>44.4</ele>
        <time>2022-05-25T13:28:56Z</time>
      </trkpt>
      <trkpt lat="49.92389" lon="1.94293">
        <ele>44.4</ele>
        <time>2022-05-25T13:28:57Z</time>
      </trkpt>
      <trkpt lat="49.92389" lon="1.94293">
        <ele>44.4</ele>
        <time>2022-05-25T13:28:58Z</time>
      </trkpt>
      <trkpt lat="49.92389" lon="1.94293">
        <ele>44.4</ele>
        <time>2022-05-25T13:28:59Z</time>
      </trkpt>
      <trkpt lat="49.92389" lon="1.94293">
        <ele>44.4</ele>
        <time>2022-05-25T13:29:00Z</time>
      </trkpt>
      <trkpt lat="49.92389" lon="1.94293">
        <ele>44.4</ele>
        <time>2022-05-25T13:29:01Z</time>
      </trkpt>
      <trkpt lat="49.92389" lon="1.94293">
        <ele>44.4</ele>
        <time>2022-05-25T13:29:02Z</time>
      </trkpt>
      <trkpt lat="49.92389" lon="1.94293">
        <ele>44.4</ele>
        <time>2022-05-25T13:29:03Z</time>
      </trkpt>
      <trkpt lat="49.92389" lon="1.94293">
        <ele>44.4</ele>
        <time>2022-05-25T13:29:04Z</time>
      </trkpt>
      <trkpt lat="49.92389" lon="1.94293">
        <ele>44.4</ele>
        <time>2022-05-25T13:29:05Z</time>
      </trkpt>
      <trkpt lat="49.92389" lon="1.94293">
        <ele>44.4</ele>
        <time>2022-05-25T13:29:06Z</time>
      </trkpt>
      <trkpt lat="49.92389" lon="1.94293">
        <ele>44.4</ele>
        <time>2022-05-25T13:29:07Z</time>
      </trkpt>
      <trkpt lat="49.92389" lon="1.94293">
        <ele>44.4</ele>
        <time>2022-05-25T13:29:08Z</time>
      </trkpt>
      <trkpt lat="49.92389" lon="1.94293">
        <ele>44.4</ele>
        <time>2022-05-25T13:29:09Z</time>
      </trkpt>
      <trkpt lat="49.92389" lon="1.94293">
        <ele>44.4</ele>
        <time>2022-05-25T13:29:10Z</time>
      </trkpt>
      <trkpt lat="49.92389" lon="1.94293">
        <ele>44.4</ele>
        <time>2022-05-25T13:29:11Z</time>
      </trkpt>
      <trkpt lat="49.92389" lon="1.94293">
        <ele>44.4</ele>
        <time>2022-05-25T13:29:12Z</time>
      </trkpt>
      <trkpt lat="49.92389" lon="1.94293">
        <ele>44.4</ele>
        <time>2022-05-25T13:29:13Z</time>
      </trkpt>
      <trkpt lat="49.92389" lon="1.94293">
        <ele>44.4</ele>
        <time>2022-05-25T13:29:14Z</time>
      </trkpt>
      <trkpt lat="49.92389" lon="1.94293">
        <ele>44.4</ele>
        <time>2022-05-25T13:29:15Z</time>
      </trkpt>
      <trkpt lat="49.92389" lon="1.94293">
        <ele>44.4</ele>
        <time>2022-05-25T13:29:16Z</time>
      </trkpt>
      <trkpt lat="49.92389" lon="1.94293">
        <ele>44.4</ele>
        <time>2022-05-25T13:29:17Z</time>
      </trkpt>
      <trkpt lat="49.92389" lon="1.94293">
        <ele>44.4</ele>
        <time>2022-05-25T13:29:18Z</time>
      </trkpt>
      <trkpt lat="49.92389" lon="1.94293">
        <ele>44.4</ele>
        <time>2022-05-25T13:29:19Z</time>
      </trkpt>
      <trkpt lat="49.92389" lon="1.94293">
        <ele>44.4</ele>
        <time>2022-05-25T13:29:20Z</time>
      </trkpt>
      <trkpt lat="49.92389" lon="1.94293">
        <ele>44.4</ele>
        <time>2022-05-25T13:29:21Z</time>
      </trkpt>
      <trkpt lat="49.92389" lon="1.94293">
        <ele>44.4</ele>
        <time>2022-05-25T13:29:22Z</time>
      </trkpt>
      <trkpt lat="49.92389" lon="1.94293">
        <ele>44.4</ele>
        <time>2022-05-25T13:29:23Z</time>
      </trkpt>
      <trkpt lat="49.92389" lon="1.94293">
        <ele>44.4</ele>
        <time>2022-05-25T13:29:24Z</time>
      </trkpt>
      <trkpt lat="49.92389" lon="1.94293">
        <ele>44.4</ele>
        <time>2022-05-25T13:29:25Z</time>
      </trkpt>
      <trkpt lat="49.92389" lon="1.94293">
        <ele>44.4</ele>
        <time>2022-05-25T13:29:26Z</time>
      </trkpt>
      <trkpt lat="49.92389" lon="1.94293">
        <ele>44.4</ele>
        <time>2022-05-25T13:29:27Z</time>
      </trkpt>
      <trkpt lat="49.92389" lon="1.94293">
        <ele>44.4</ele>
        <time>2022-05-25T13:29:28Z</time>
      </trkpt>
      <trkpt lat="49.92389" lon="1.94293">
        <ele>44.4</ele>
        <time>2022-05-25T13:29:29Z</time>
      </trkpt>
      <trkpt lat="49.92389" lon="1.94293">
        <ele>44.4</ele>
        <time>2022-05-25T13:29:30Z</time>
      </trkpt>
      <trkpt lat="49.92389" lon="1.94289">
        <ele>44.5</ele>
        <time>2022-05-25T13:29:31Z</time>
      </trkpt>
      <trkpt lat="49.92389" lon="1.94287">
        <ele>44.5</ele>
        <time>2022-05-25T13:29:32Z</time>
      </trkpt>
      <trkpt lat="49.92389" lon="1.94287">
        <ele>44.5</ele>
        <time>2022-05-25T13:29:33Z</time>
      </trkpt>
      <trkpt lat="49.92389" lon="1.94287">
        <ele>44.5</ele>
        <time>2022-05-25T13:29:34Z</time>
      </trkpt>
      <trkpt lat="49.92389" lon="1.94287">
        <ele>44.5</ele>
        <time>2022-05-25T13:29:35Z</time>
      </trkpt>
      <trkpt lat="49.92389" lon="1.94287">
        <ele>44.5</ele>
        <time>2022-05-25T13:29:36Z</time>
      </trkpt>
      <trkpt lat="49.92389" lon="1.94287">
        <ele>44.5</ele>
        <time>2022-05-25T13:29:37Z</time>
      </trkpt>
      <trkpt lat="49.92389" lon="1.94287">
        <ele>44.5</ele>
        <time>2022-05-25T13:29:38Z</time>
      </trkpt>
      <trkpt lat="49.92389" lon="1.94287">
        <ele>44.5</ele>
        <time>2022-05-25T13:29:39Z</time>
      </trkpt>
      <trkpt lat="49.92389" lon="1.94287">
        <ele>44.5</ele>
        <time>2022-05-25T13:29:40Z</time>
      </trkpt>
      <trkpt lat="49.92389" lon="1.94287">
        <ele>44.5</ele>
        <time>2022-05-25T13:29:41Z</time>
      </trkpt>
      <trkpt lat="49.92389" lon="1.94287">
        <ele>44.5</ele>
        <time>2022-05-25T13:29:42Z</time>
      </trkpt>
      <trkpt lat="49.92389" lon="1.94287">
        <ele>44.5</ele>
        <time>2022-05-25T13:29:43Z</time>
      </trkpt>
      <trkpt lat="49.92389" lon="1.94287">
        <ele>44.5</ele>
        <time>2022-05-25T13:29:44Z</time>
      </trkpt>
      <trkpt lat="49.92389" lon="1.94287">
        <ele>44.5</ele>
        <time>2022-05-25T13:29:45Z</time>
      </trkpt>
      <trkpt lat="49.92389" lon="1.94287">
        <ele>44.5</ele>
        <time>2022-05-25T13:29:46Z</time>
      </trkpt>
      <trkpt lat="49.92389" lon="1.94287">
        <ele>44.5</ele>
        <time>2022-05-25T13:29:47Z</time>
      </trkpt>
      <trkpt lat="49.92389" lon="1.94287">
        <ele>44.5</ele>
        <time>2022-05-25T13:29:48Z</time>
      </trkpt>
      <trkpt lat="49.92389" lon="1.94287">
        <ele>44.5</ele>
        <time>2022-05-25T13:29:49Z</time>
      </trkpt>
      <trkpt lat="49.92389" lon="1.94287">
        <ele>44.5</ele>
        <time>2022-05-25T13:29:50Z</time>
      </trkpt>
      <trkpt lat="49.92389" lon="1.94287">
        <ele>44.5</ele>
        <time>2022-05-25T13:29:51Z</time>
      </trkpt>
      <trkpt lat="49.92389" lon="1.94287">
        <ele>44.5</ele>
        <time>2022-05-25T13:29:52Z</time>
      </trkpt>
      <trkpt lat="49.92389" lon="1.94287">
        <ele>44.5</ele>
        <time>2022-05-25T13:29:53Z</time>
      </trkpt>
      <trkpt lat="49.92389" lon="1.94287">
        <ele>44.5</ele>
        <time>2022-05-25T13:29:54Z</time>
      </trkpt>
      <trkpt lat="49.92389" lon="1.94287">
        <ele>44.5</ele>
        <time>2022-05-25T13:29:55Z</time>
      </trkpt>
      <trkpt lat="49.92389" lon="1.94287">
        <ele>44.5</ele>
        <time>2022-05-25T13:29:56Z</time>
      </trkpt>
      <trkpt lat="49.92389" lon="1.94287">
        <ele>44.5</ele>
        <time>2022-05-25T13:29:57Z</time>
      </trkpt>
      <trkpt lat="49.92389" lon="1.94287">
        <ele>44.5</ele>
        <time>2022-05-25T13:29:58Z</time>
      </trkpt>
      <trkpt lat="49.92389" lon="1.94287">
        <ele>44.5</ele>
        <time>2022-05-25T13:29:59Z</time>
      </trkpt>
      <trkpt lat="49.92389" lon="1.94287">
        <ele>44.5</ele>
        <time>2022-05-25T13:30:00Z</time>
      </trkpt>
      <trkpt lat="49.92389" lon="1.94287">
        <ele>44.5</ele>
        <time>2022-05-25T13:30:01Z</time>
      </trkpt>
      <trkpt lat="49.92389" lon="1.94287">
        <ele>44.5</ele>
        <time>2022-05-25T13:30:02Z</time>
      </trkpt>
      <trkpt lat="49.92389" lon="1.94287">
        <ele>44.5</ele>
        <time>2022-05-25T13:30:03Z</time>
      </trkpt>
      <trkpt lat="49.92389" lon="1.94287">
        <ele>44.5</ele>
        <time>2022-05-25T13:30:04Z</time>
      </trkpt>
      <trkpt lat="49.92389" lon="1.94287">
        <ele>44.5</ele>
        <time>2022-05-25T13:30:05Z</time>
      </trkpt>
      <trkpt lat="49.92389" lon="1.94287">
        <ele>44.5</ele>
        <time>2022-05-25T13:30:06Z</time>
      </trkpt>
      <trkpt lat="49.92389" lon="1.94287">
        <ele>44.5</ele>
        <time>2022-05-25T13:30:07Z</time>
      </trkpt>
      <trkpt lat="49.92389" lon="1.94287">
        <ele>44.5</ele>
        <time>2022-05-25T13:30:08Z</time>
      </trkpt>
      <trkpt lat="49.92389" lon="1.94287">
        <ele>44.5</ele>
        <time>2022-05-25T13:30:09Z</time>
      </trkpt>
      <trkpt lat="49.92389" lon="1.94287">
        <ele>44.5</ele>
        <time>2022-05-25T13:30:10Z</time>
      </trkpt>
      <trkpt lat="49.92389" lon="1.94287">
        <ele>44.5</ele>
        <time>2022-05-25T13:30:11Z</time>
      </trkpt>
      <trkpt lat="49.92389" lon="1.94287">
        <ele>44.5</ele>
        <time>2022-05-25T13:30:12Z</time>
      </trkpt>
      <trkpt lat="49.92389" lon="1.94287">
        <ele>44.5</ele>
        <time>2022-05-25T13:30:13Z</time>
      </trkpt>
      <trkpt lat="49.92389" lon="1.94287">
        <ele>44.5</ele>
        <time>2022-05-25T13:30:14Z</time>
      </trkpt>
      <trkpt lat="49.92389" lon="1.94287">
        <ele>44.5</ele>
        <time>2022-05-25T13:30:15Z</time>
      </trkpt>
      <trkpt lat="49.92389" lon="1.94287">
        <ele>44.5</ele>
        <time>2022-05-25T13:30:16Z</time>
      </trkpt>
      <trkpt lat="49.92389" lon="1.94287">
        <ele>44.5</ele>
        <time>2022-05-25T13:30:17Z</time>
      </trkpt>
      <trkpt lat="49.92389" lon="1.94287">
        <ele>44.5</ele>
        <time>2022-05-25T13:30:18Z</time>
      </trkpt>
      <trkpt lat="49.92389" lon="1.94287">
        <ele>44.5</ele>
        <time>2022-05-25T13:30:20Z</time>
      </trkpt>
      <trkpt lat="49.92389" lon="1.94287">
        <ele>44.5</ele>
        <time>2022-05-25T13:30:21Z</time>
      </trkpt>
      <trkpt lat="49.92389" lon="1.94287">
        <ele>44.5</ele>
        <time>2022-05-25T13:30:22Z</time>
      </trkpt>
      <trkpt lat="49.92389" lon="1.94287">
        <ele>44.5</ele>
        <time>2022-05-25T13:30:23Z</time>
      </trkpt>
      <trkpt lat="49.92389" lon="1.94287">
        <ele>44.5</ele>
        <time>2022-05-25T13:30:24Z</time>
      </trkpt>
      <trkpt lat="49.92389" lon="1.94287">
        <ele>44.5</ele>
        <time>2022-05-25T13:30:25Z</time>
      </trkpt>
      <trkpt lat="49.92389" lon="1.94287">
        <ele>44.5</ele>
        <time>2022-05-25T13:30:26Z</time>
      </trkpt>
      <trkpt lat="49.92389" lon="1.94287">
        <ele>44.5</ele>
        <time>2022-05-25T13:30:27Z</time>
      </trkpt>
      <trkpt lat="49.92389" lon="1.94286">
        <ele>44.5</ele>
        <time>2022-05-25T13:30:28Z</time>
      </trkpt>
      <trkpt lat="49.92389" lon="1.94286">
        <ele>44.5</ele>
        <time>2022-05-25T13:30:29Z</time>
      </trkpt>
      <trkpt lat="49.92389" lon="1.94286">
        <ele>44.5</ele>
        <time>2022-05-25T13:30:30Z</time>
      </trkpt>
      <trkpt lat="49.92389" lon="1.94285">
        <ele>44.5</ele>
        <time>2022-05-25T13:30:31Z</time>
      </trkpt>
      <trkpt lat="49.92389" lon="1.94287">
        <ele>44.6</ele>
        <time>2022-05-25T13:30:33Z</time>
      </trkpt>
      <trkpt lat="49.92389" lon="1.94287">
        <ele>44.6</ele>
        <time>2022-05-25T13:30:35Z</time>
      </trkpt>
      <trkpt lat="49.92388" lon="1.94285">
        <ele>44.6</ele>
        <time>2022-05-25T13:30:36Z</time>
      </trkpt>
      <trkpt lat="49.92389" lon="1.94284">
        <ele>44.6</ele>
        <time>2022-05-25T13:30:38Z</time>
      </trkpt>
      <trkpt lat="49.9239" lon="1.94284">
        <ele>44.6</ele>
        <time>2022-05-25T13:30:39Z</time>
      </trkpt>
      <trkpt lat="49.9239" lon="1.94285">
        <ele>44.6</ele>
        <time>2022-05-25T13:30:40Z</time>
      </trkpt>
      <trkpt lat="49.9239" lon="1.94285">
        <ele>44.6</ele>
        <time>2022-05-25T13:30:41Z</time>
      </trkpt>
      <trkpt lat="49.9239" lon="1.94285">
        <ele>44.6</ele>
        <time>2022-05-25T13:30:42Z</time>
      </trkpt>
      <trkpt lat="49.9239" lon="1.94285">
        <ele>44.6</ele>
        <time>2022-05-25T13:30:43Z</time>
      </trkpt>
      <trkpt lat="49.9239" lon="1.94285">
        <ele>44.6</ele>
        <time>2022-05-25T13:30:44Z</time>
      </trkpt>
      <trkpt lat="49.9239" lon="1.94287">
        <ele>44.7</ele>
        <time>2022-05-25T13:30:46Z</time>
      </trkpt>
      <trkpt lat="49.9239" lon="1.94287">
        <ele>44.7</ele>
        <time>2022-05-25T13:30:47Z</time>
      </trkpt>
      <trkpt lat="49.9239" lon="1.94287">
        <ele>44.7</ele>
        <time>2022-05-25T13:30:48Z</time>
      </trkpt>
      <trkpt lat="49.9239" lon="1.94287">
        <ele>44.7</ele>
        <time>2022-05-25T13:30:49Z</time>
      </trkpt>
      <trkpt lat="49.92389" lon="1.94288">
        <ele>44.7</ele>
        <time>2022-05-25T13:30:51Z</time>
      </trkpt>
      <trkpt lat="49.92389" lon="1.94288">
        <ele>44.7</ele>
        <time>2022-05-25T13:30:52Z</time>
      </trkpt>
      <trkpt lat="49.92388" lon="1.9429">
        <ele>44.7</ele>
        <time>2022-05-25T13:30:53Z</time>
      </trkpt>
      <trkpt lat="49.92387" lon="1.94291">
        <ele>44.7</ele>
        <time>2022-05-25T13:30:55Z</time>
      </trkpt>
      <trkpt lat="49.92387" lon="1.9429">
        <ele>44.8</ele>
        <time>2022-05-25T13:30:56Z</time>
      </trkpt>
      <trkpt lat="49.92387" lon="1.9429">
        <ele>44.8</ele>
        <time>2022-05-25T13:30:57Z</time>
      </trkpt>
      <trkpt lat="49.92387" lon="1.94289">
        <ele>44.8</ele>
        <time>2022-05-25T13:30:58Z</time>
      </trkpt>
      <trkpt lat="49.92388" lon="1.94289">
        <ele>44.8</ele>
        <time>2022-05-25T13:30:59Z</time>
      </trkpt>
      <trkpt lat="49.92388" lon="1.94289">
        <ele>44.8</ele>
        <time>2022-05-25T13:31:00Z</time>
      </trkpt>
      <trkpt lat="49.92388" lon="1.94288">
        <ele>44.8</ele>
        <time>2022-05-25T13:31:01Z</time>
      </trkpt>
      <trkpt lat="49.92389" lon="1.94287">
        <ele>44.8</ele>
        <time>2022-05-25T13:31:02Z</time>
      </trkpt>
      <trkpt lat="49.92389" lon="1.94287">
        <ele>44.8</ele>
        <time>2022-05-25T13:31:03Z</time>
      </trkpt>
      <trkpt lat="49.92389" lon="1.94286">
        <ele>44.8</ele>
        <time>2022-05-25T13:31:04Z</time>
      </trkpt>
      <trkpt lat="49.92389" lon="1.94286">
        <ele>44.8</ele>
        <time>2022-05-25T13:31:05Z</time>
      </trkpt>
      <trkpt lat="49.92389" lon="1.94285">
        <ele>44.8</ele>
        <time>2022-05-25T13:31:06Z</time>
      </trkpt>
      <trkpt lat="49.92389" lon="1.94285">
        <ele>44.9</ele>
        <time>2022-05-25T13:31:07Z</time>
      </trkpt>
      <trkpt lat="49.92389" lon="1.94284">
        <ele>44.9</ele>
        <time>2022-05-25T13:31:08Z</time>
      </trkpt>
      <trkpt lat="49.92389" lon="1.94284">
        <ele>44.9</ele>
        <time>2022-05-25T13:31:09Z</time>
      </trkpt>
      <trkpt lat="49.92389" lon="1.94284">
        <ele>44.9</ele>
        <time>2022-05-25T13:31:10Z</time>
      </trkpt>
      <trkpt lat="49.92389" lon="1.94284">
        <ele>44.9</ele>
        <time>2022-05-25T13:31:11Z</time>
      </trkpt>
      <trkpt lat="49.92389" lon="1.94284">
        <ele>44.9</ele>
        <time>2022-05-25T13:31:12Z</time>
      </trkpt>
      <trkpt lat="49.92389" lon="1.94284">
        <ele>44.9</ele>
        <time>2022-05-25T13:31:13Z</time>
      </trkpt>
      <trkpt lat="49.92389" lon="1.94284">
        <ele>44.9</ele>
        <time>2022-05-25T13:31:14Z</time>
      </trkpt>
      <trkpt lat="49.92389" lon="1.94284">
        <ele>44.9</ele>
        <time>2022-05-25T13:31:15Z</time>
      </trkpt>
      <trkpt lat="49.92389" lon="1.94284">
        <ele>44.9</ele>
        <time>2022-05-25T13:31:17Z</time>
      </trkpt>
      <trkpt lat="49.92389" lon="1.94284">
        <ele>44.9</ele>
        <time>2022-05-25T13:31:18Z</time>
      </trkpt>
      <trkpt lat="49.92389" lon="1.94284">
        <ele>44.9</ele>
        <time>2022-05-25T13:31:19Z</time>
      </trkpt>
      <trkpt lat="49.92389" lon="1.94284">
        <ele>44.9</ele>
        <time>2022-05-25T13:31:20Z</time>
      </trkpt>
      <trkpt lat="49.92389" lon="1.94284">
        <ele>44.9</ele>
        <time>2022-05-25T13:31:21Z</time>
      </trkpt>
      <trkpt lat="49.92389" lon="1.94284">
        <ele>44.9</ele>
        <time>2022-05-25T13:31:22Z</time>
      </trkpt>
      <trkpt lat="49.92389" lon="1.94284">
        <ele>44.9</ele>
        <time>2022-05-25T13:31:23Z</time>
      </trkpt>
      <trkpt lat="49.92389" lon="1.94284">
        <ele>44.9</ele>
        <time>2022-05-25T13:31:24Z</time>
      </trkpt>
      <trkpt lat="49.92389" lon="1.94284">
        <ele>44.9</ele>
        <time>2022-05-25T13:31:25Z</time>
      </trkpt>
      <trkpt lat="49.92389" lon="1.94284">
        <ele>44.9</ele>
        <time>2022-05-25T13:31:26Z</time>
      </trkpt>
      <trkpt lat="49.92389" lon="1.94284">
        <ele>44.9</ele>
        <time>2022-05-25T13:31:27Z</time>
      </trkpt>
      <trkpt lat="49.92389" lon="1.94284">
        <ele>44.9</ele>
        <time>2022-05-25T13:31:28Z</time>
      </trkpt>
      <trkpt lat="49.92389" lon="1.94284">
        <ele>44.9</ele>
        <time>2022-05-25T13:31:29Z</time>
      </trkpt>
      <trkpt lat="49.92389" lon="1.94284">
        <ele>44.9</ele>
        <time>2022-05-25T13:31:30Z</time>
      </trkpt>
      <trkpt lat="49.92389" lon="1.94284">
        <ele>44.9</ele>
        <time>2022-05-25T13:31:31Z</time>
      </trkpt>
      <trkpt lat="49.92389" lon="1.94284">
        <ele>44.9</ele>
        <time>2022-05-25T13:31:32Z</time>
      </trkpt>
      <trkpt lat="49.92389" lon="1.94284">
        <ele>44.9</ele>
        <time>2022-05-25T13:31:33Z</time>
      </trkpt>
      <trkpt lat="49.92389" lon="1.94284">
        <ele>44.9</ele>
        <time>2022-05-25T13:31:34Z</time>
      </trkpt>
      <trkpt lat="49.92389" lon="1.94284">
        <ele>44.9</ele>
        <time>2022-05-25T13:31:35Z</time>
      </trkpt>
      <trkpt lat="49.92389" lon="1.94284">
        <ele>44.9</ele>
        <time>2022-05-25T13:31:36Z</time>
      </trkpt>
      <trkpt lat="49.92389" lon="1.94284">
        <ele>44.9</ele>
        <time>2022-05-25T13:31:37Z</time>
      </trkpt>
      <trkpt lat="49.92389" lon="1.94284">
        <ele>44.9</ele>
        <time>2022-05-25T13:31:38Z</time>
      </trkpt>
      <trkpt lat="49.92389" lon="1.94284">
        <ele>44.9</ele>
        <time>2022-05-25T13:31:39Z</time>
      </trkpt>
      <trkpt lat="49.92389" lon="1.94284">
        <ele>44.9</ele>
        <time>2022-05-25T13:31:40Z</time>
      </trkpt>
      <trkpt lat="49.92389" lon="1.94284">
        <ele>44.9</ele>
        <time>2022-05-25T13:31:41Z</time>
      </trkpt>
      <trkpt lat="49.92389" lon="1.94284">
        <ele>44.9</ele>
        <time>2022-05-25T13:31:42Z</time>
      </trkpt>
      <trkpt lat="49.92389" lon="1.94284">
        <ele>44.9</ele>
        <time>2022-05-25T13:31:43Z</time>
      </trkpt>
      <trkpt lat="49.92389" lon="1.94284">
        <ele>44.9</ele>
        <time>2022-05-25T13:31:44Z</time>
      </trkpt>
      <trkpt lat="49.92389" lon="1.94284">
        <ele>44.9</ele>
        <time>2022-05-25T13:31:45Z</time>
      </trkpt>
      <trkpt lat="49.92389" lon="1.94284">
        <ele>44.9</ele>
        <time>2022-05-25T13:31:46Z</time>
      </trkpt>
      <trkpt lat="49.92389" lon="1.94284">
        <ele>44.9</ele>
        <time>2022-05-25T13:31:47Z</time>
      </trkpt>
      <trkpt lat="49.92389" lon="1.94284">
        <ele>44.9</ele>
        <time>2022-05-25T13:31:48Z</time>
      </trkpt>
      <trkpt lat="49.92389" lon="1.94284">
        <ele>44.9</ele>
        <time>2022-05-25T13:31:49Z</time>
      </trkpt>
      <trkpt lat="49.92389" lon="1.94284">
        <ele>44.9</ele>
        <time>2022-05-25T13:31:50Z</time>
      </trkpt>
      <trkpt lat="49.92389" lon="1.94284">
        <ele>44.9</ele>
        <time>2022-05-25T13:31:51Z</time>
      </trkpt>
      <trkpt lat="49.92389" lon="1.94284">
        <ele>44.9</ele>
        <time>2022-05-25T13:31:52Z</time>
      </trkpt>
      <trkpt lat="49.92389" lon="1.94284">
        <ele>44.9</ele>
        <time>2022-05-25T13:31:53Z</time>
      </trkpt>
      <trkpt lat="49.92389" lon="1.94284">
        <ele>44.9</ele>
        <time>2022-05-25T13:31:54Z</time>
      </trkpt>
      <trkpt lat="49.92389" lon="1.94284">
        <ele>44.9</ele>
        <time>2022-05-25T13:31:55Z</time>
      </trkpt>
      <trkpt lat="49.92389" lon="1.94285">
        <ele>44.9</ele>
        <time>2022-05-25T13:31:56Z</time>
      </trkpt>
      <trkpt lat="49.92389" lon="1.94285">
        <ele>44.9</ele>
        <time>2022-05-25T13:31:57Z</time>
      </trkpt>
      <trkpt lat="49.92389" lon="1.94285">
        <ele>44.9</ele>
        <time>2022-05-25T13:31:58Z</time>
      </trkpt>
      <trkpt lat="49.92389" lon="1.94285">
        <ele>44.9</ele>
        <time>2022-05-25T13:31:59Z</time>
      </trkpt>
      <trkpt lat="49.92389" lon="1.94285">
        <ele>44.9</ele>
        <time>2022-05-25T13:32:00Z</time>
      </trkpt>
      <trkpt lat="49.92389" lon="1.94285">
        <ele>44.9</ele>
        <time>2022-05-25T13:32:01Z</time>
      </trkpt>
      <trkpt lat="49.92389" lon="1.94285">
        <ele>44.9</ele>
        <time>2022-05-25T13:32:02Z</time>
      </trkpt>
      <trkpt lat="49.92389" lon="1.94285">
        <ele>44.9</ele>
        <time>2022-05-25T13:32:03Z</time>
      </trkpt>
      <trkpt lat="49.92389" lon="1.94285">
        <ele>44.9</ele>
        <time>2022-05-25T13:32:04Z</time>
      </trkpt>
      <trkpt lat="49.92389" lon="1.94284">
        <ele>44.9</ele>
        <time>2022-05-25T13:32:05Z</time>
      </trkpt>
      <trkpt lat="49.92389" lon="1.94285">
        <ele>44.9</ele>
        <time>2022-05-25T13:32:06Z</time>
      </trkpt>
      <trkpt lat="49.92389" lon="1.94285">
        <ele>44.9</ele>
        <time>2022-05-25T13:32:07Z</time>
      </trkpt>
      <trkpt lat="49.92389" lon="1.94285">
        <ele>44.9</ele>
        <time>2022-05-25T13:32:08Z</time>
      </trkpt>
      <trkpt lat="49.92389" lon="1.94285">
        <ele>44.9</ele>
        <time>2022-05-25T13:32:09Z</time>
      </trkpt>
      <trkpt lat="49.92389" lon="1.94285">
        <ele>44.9</ele>
        <time>2022-05-25T13:32:10Z</time>
      </trkpt>
      <trkpt lat="49.92389" lon="1.94285">
        <ele>44.9</ele>
        <time>2022-05-25T13:32:11Z</time>
      </trkpt>
      <trkpt lat="49.92389" lon="1.94285">
        <ele>44.9</ele>
        <time>2022-05-25T13:32:12Z</time>
      </trkpt>
      <trkpt lat="49.92389" lon="1.94285">
        <ele>44.9</ele>
        <time>2022-05-25T13:32:13Z</time>
      </trkpt>
      <trkpt lat="49.92389" lon="1.94285">
        <ele>44.9</ele>
        <time>2022-05-25T13:32:15Z</time>
      </trkpt>
      <trkpt lat="49.92389" lon="1.94285">
        <ele>44.9</ele>
        <time>2022-05-25T13:32:16Z</time>
      </trkpt>
      <trkpt lat="49.92389" lon="1.94285">
        <ele>44.9</ele>
        <time>2022-05-25T13:32:17Z</time>
      </trkpt>
      <trkpt lat="49.92389" lon="1.94285">
        <ele>44.9</ele>
        <time>2022-05-25T13:32:18Z</time>
      </trkpt>
      <trkpt lat="49.92389" lon="1.94285">
        <ele>44.9</ele>
        <time>2022-05-25T13:32:19Z</time>
      </trkpt>
      <trkpt lat="49.92389" lon="1.94285">
        <ele>44.9</ele>
        <time>2022-05-25T13:32:20Z</time>
      </trkpt>
      <trkpt lat="49.92389" lon="1.94285">
        <ele>44.9</ele>
        <time>2022-05-25T13:32:21Z</time>
      </trkpt>
      <trkpt lat="49.92389" lon="1.94285">
        <ele>44.9</ele>
        <time>2022-05-25T13:32:22Z</time>
      </trkpt>
      <trkpt lat="49.92389" lon="1.94285">
        <ele>44.9</ele>
        <time>2022-05-25T13:32:23Z</time>
      </trkpt>
      <trkpt lat="49.92389" lon="1.94285">
        <ele>44.9</ele>
        <time>2022-05-25T13:32:24Z</time>
      </trkpt>
      <trkpt lat="49.92389" lon="1.94285">
        <ele>44.9</ele>
        <time>2022-05-25T13:32:25Z</time>
      </trkpt>
      <trkpt lat="49.92389" lon="1.94285">
        <ele>44.9</ele>
        <time>2022-05-25T13:32:26Z</time>
      </trkpt>
      <trkpt lat="49.92389" lon="1.94285">
        <ele>44.9</ele>
        <time>2022-05-25T13:32:28Z</time>
      </trkpt>
      <trkpt lat="49.92389" lon="1.94285">
        <ele>44.9</ele>
        <time>2022-05-25T13:32:29Z</time>
      </trkpt>
      <trkpt lat="49.92389" lon="1.94285">
        <ele>44.9</ele>
        <time>2022-05-25T13:32:30Z</time>
      </trkpt>
      <trkpt lat="49.92389" lon="1.94285">
        <ele>44.9</ele>
        <time>2022-05-25T13:32:31Z</time>
      </trkpt>
      <trkpt lat="49.92389" lon="1.94285">
        <ele>44.9</ele>
        <time>2022-05-25T13:32:32Z</time>
      </trkpt>
      <trkpt lat="49.92389" lon="1.94285">
        <ele>44.9</ele>
        <time>2022-05-25T13:32:33Z</time>
      </trkpt>
      <trkpt lat="49.92389" lon="1.94285">
        <ele>44.9</ele>
        <time>2022-05-25T13:32:34Z</time>
      </trkpt>
      <trkpt lat="49.92389" lon="1.94285">
        <ele>44.9</ele>
        <time>2022-05-25T13:32:35Z</time>
      </trkpt>
      <trkpt lat="49.92389" lon="1.94285">
        <ele>44.9</ele>
        <time>2022-05-25T13:32:36Z</time>
      </trkpt>
      <trkpt lat="49.92389" lon="1.94285">
        <ele>44.9</ele>
        <time>2022-05-25T13:32:37Z</time>
      </trkpt>
      <trkpt lat="49.92389" lon="1.94285">
        <ele>44.9</ele>
        <time>2022-05-25T13:32:38Z</time>
      </trkpt>
      <trkpt lat="49.92389" lon="1.94285">
        <ele>44.9</ele>
        <time>2022-05-25T13:32:39Z</time>
      </trkpt>
      <trkpt lat="49.92389" lon="1.94285">
        <ele>44.9</ele>
        <time>2022-05-25T13:32:40Z</time>
      </trkpt>
      <trkpt lat="49.92389" lon="1.94285">
        <ele>44.9</ele>
        <time>2022-05-25T13:32:41Z</time>
      </trkpt>
      <trkpt lat="49.92389" lon="1.94285">
        <ele>44.9</ele>
        <time>2022-05-25T13:32:42Z</time>
      </trkpt>
      <trkpt lat="49.92389" lon="1.94285">
        <ele>44.9</ele>
        <time>2022-05-25T13:32:43Z</time>
      </trkpt>
      <trkpt lat="49.92389" lon="1.94285">
        <ele>44.9</ele>
        <time>2022-05-25T13:32:44Z</time>
      </trkpt>
      <trkpt lat="49.92389" lon="1.94285">
        <ele>44.9</ele>
        <time>2022-05-25T13:32:45Z</time>
      </trkpt>
      <trkpt lat="49.92389" lon="1.94285">
        <ele>44.9</ele>
        <time>2022-05-25T13:32:46Z</time>
      </trkpt>
      <trkpt lat="49.92389" lon="1.94285">
        <ele>44.9</ele>
        <time>2022-05-25T13:32:47Z</time>
      </trkpt>
      <trkpt lat="49.92389" lon="1.94285">
        <ele>44.9</ele>
        <time>2022-05-25T13:32:48Z</time>
      </trkpt>
      <trkpt lat="49.92389" lon="1.94285">
        <ele>44.9</ele>
        <time>2022-05-25T13:32:49Z</time>
      </trkpt>
      <trkpt lat="49.92389" lon="1.94285">
        <ele>44.9</ele>
        <time>2022-05-25T13:32:51Z</time>
      </trkpt>
      <trkpt lat="49.92389" lon="1.94285">
        <ele>44.9</ele>
        <time>2022-05-25T13:32:52Z</time>
      </trkpt>
      <trkpt lat="49.92389" lon="1.94285">
        <ele>44.9</ele>
        <time>2022-05-25T13:32:53Z</time>
      </trkpt>
      <trkpt lat="49.92389" lon="1.94285">
        <ele>44.9</ele>
        <time>2022-05-25T13:32:54Z</time>
      </trkpt>
      <trkpt lat="49.92389" lon="1.94285">
        <ele>44.9</ele>
        <time>2022-05-25T13:32:55Z</time>
      </trkpt>
      <trkpt lat="49.92389" lon="1.94285">
        <ele>44.9</ele>
        <time>2022-05-25T13:32:56Z</time>
      </trkpt>
      <trkpt lat="49.92389" lon="1.94285">
        <ele>44.9</ele>
        <time>2022-05-25T13:32:57Z</time>
      </trkpt>
      <trkpt lat="49.92389" lon="1.94285">
        <ele>44.9</ele>
        <time>2022-05-25T13:32:58Z</time>
      </trkpt>
      <trkpt lat="49.92389" lon="1.94285">
        <ele>44.9</ele>
        <time>2022-05-25T13:32:59Z</time>
      </trkpt>
      <trkpt lat="49.92389" lon="1.94286">
        <ele>44.9</ele>
        <time>2022-05-25T13:33:00Z</time>
      </trkpt>
      <trkpt lat="49.92388" lon="1.94286">
        <ele>44.9</ele>
        <time>2022-05-25T13:33:01Z</time>
      </trkpt>
      <trkpt lat="49.92388" lon="1.94286">
        <ele>44.9</ele>
        <time>2022-05-25T13:33:02Z</time>
      </trkpt>
      <trkpt lat="49.92388" lon="1.94286">
        <ele>44.9</ele>
        <time>2022-05-25T13:33:03Z</time>
      </trkpt>
      <trkpt lat="49.92388" lon="1.94287">
        <ele>44.9</ele>
        <time>2022-05-25T13:33:04Z</time>
      </trkpt>
      <trkpt lat="49.92388" lon="1.94286">
        <ele>44.9</ele>
        <time>2022-05-25T13:33:05Z</time>
      </trkpt>
      <trkpt lat="49.92388" lon="1.94286">
        <ele>44.9</ele>
        <time>2022-05-25T13:33:07Z</time>
      </trkpt>
      <trkpt lat="49.92388" lon="1.94286">
        <ele>44.9</ele>
        <time>2022-05-25T13:33:08Z</time>
      </trkpt>
      <trkpt lat="49.92388" lon="1.94286">
        <ele>44.9</ele>
        <time>2022-05-25T13:33:10Z</time>
      </trkpt>
      <trkpt lat="49.92388" lon="1.94286">
        <ele>44.9</ele>
        <time>2022-05-25T13:33:11Z</time>
      </trkpt>
      <trkpt lat="49.92388" lon="1.94286">
        <ele>44.9</ele>
        <time>2022-05-25T13:33:12Z</time>
      </trkpt>
      <trkpt lat="49.92388" lon="1.94286">
        <ele>44.9</ele>
        <time>2022-05-25T13:33:13Z</time>
      </trkpt>
      <trkpt lat="49.92388" lon="1.94286">
        <ele>44.9</ele>
        <time>2022-05-25T13:33:14Z</time>
      </trkpt>
      <trkpt lat="49.92388" lon="1.94286">
        <ele>44.9</ele>
        <time>2022-05-25T13:33:16Z</time>
      </trkpt>
      <trkpt lat="49.92388" lon="1.94286">
        <ele>44.9</ele>
        <time>2022-05-25T13:33:17Z</time>
      </trkpt>
      <trkpt lat="49.92388" lon="1.94286">
        <ele>44.9</ele>
        <time>2022-05-25T13:33:18Z</time>
      </trkpt>
      <trkpt lat="49.92388" lon="1.94286">
        <ele>44.9</ele>
        <time>2022-05-25T13:33:19Z</time>
      </trkpt>
      <trkpt lat="49.92388" lon="1.94286">
        <ele>44.9</ele>
        <time>2022-05-25T13:33:20Z</time>
      </trkpt>
      <trkpt lat="49.92388" lon="1.94286">
        <ele>44.9</ele>
        <time>2022-05-25T13:33:22Z</time>
      </trkpt>
      <trkpt lat="49.92388" lon="1.94286">
        <ele>44.9</ele>
        <time>2022-05-25T13:33:23Z</time>
      </trkpt>
      <trkpt lat="49.92388" lon="1.94286">
        <ele>44.9</ele>
        <time>2022-05-25T13:33:24Z</time>
      </trkpt>
      <trkpt lat="49.92388" lon="1.94286">
        <ele>44.9</ele>
        <time>2022-05-25T13:33:25Z</time>
      </trkpt>
      <trkpt lat="49.92388" lon="1.94286">
        <ele>44.9</ele>
        <time>2022-05-25T13:33:26Z</time>
      </trkpt>
      <trkpt lat="49.92388" lon="1.94286">
        <ele>44.9</ele>
        <time>2022-05-25T13:33:27Z</time>
      </trkpt>
      <trkpt lat="49.92388" lon="1.94286">
        <ele>44.9</ele>
        <time>2022-05-25T13:33:28Z</time>
      </trkpt>
      <trkpt lat="49.92388" lon="1.94286">
        <ele>44.9</ele>
        <time>2022-05-25T13:33:29Z</time>
      </trkpt>
      <trkpt lat="49.92388" lon="1.94286">
        <ele>44.9</ele>
        <time>2022-05-25T13:33:30Z</time>
      </trkpt>
      <trkpt lat="49.92388" lon="1.94286">
        <ele>44.9</ele>
        <time>2022-05-25T13:33:31Z</time>
      </trkpt>
      <trkpt lat="49.92388" lon="1.94286">
        <ele>44.9</ele>
        <time>2022-05-25T13:33:32Z</time>
      </trkpt>
      <trkpt lat="49.92388" lon="1.94286">
        <ele>44.9</ele>
        <time>2022-05-25T13:33:33Z</time>
      </trkpt>
      <trkpt lat="49.92388" lon="1.94286">
        <ele>44.9</ele>
        <time>2022-05-25T13:33:34Z</time>
      </trkpt>
      <trkpt lat="49.92388" lon="1.94286">
        <ele>44.9</ele>
        <time>2022-05-25T13:33:35Z</time>
      </trkpt>
      <trkpt lat="49.92388" lon="1.94286">
        <ele>44.9</ele>
        <time>2022-05-25T13:33:36Z</time>
      </trkpt>
      <trkpt lat="49.92388" lon="1.94286">
        <ele>44.9</ele>
        <time>2022-05-25T13:33:37Z</time>
      </trkpt>
      <trkpt lat="49.92388" lon="1.94286">
        <ele>44.9</ele>
        <time>2022-05-25T13:33:38Z</time>
      </trkpt>
      <trkpt lat="49.92388" lon="1.94286">
        <ele>44.9</ele>
        <time>2022-05-25T13:33:39Z</time>
      </trkpt>
      <trkpt lat="49.92388" lon="1.94286">
        <ele>44.9</ele>
        <time>2022-05-25T13:33:40Z</time>
      </trkpt>
      <trkpt lat="49.92388" lon="1.94286">
        <ele>44.9</ele>
        <time>2022-05-25T13:33:41Z</time>
      </trkpt>
      <trkpt lat="49.92388" lon="1.94286">
        <ele>44.9</ele>
        <time>2022-05-25T13:33:42Z</time>
      </trkpt>
      <trkpt lat="49.92388" lon="1.94286">
        <ele>44.9</ele>
        <time>2022-05-25T13:33:43Z</time>
      </trkpt>
      <trkpt lat="49.92388" lon="1.94286">
        <ele>44.9</ele>
        <time>2022-05-25T13:33:44Z</time>
      </trkpt>
      <trkpt lat="49.92388" lon="1.94287">
        <ele>45</ele>
        <time>2022-05-25T13:33:45Z</time>
      </trkpt>
      <trkpt lat="49.92387" lon="1.94288">
        <ele>45</ele>
        <time>2022-05-25T13:33:46Z</time>
      </trkpt>
      <trkpt lat="49.92387" lon="1.94288">
        <ele>45</ele>
        <time>2022-05-25T13:33:48Z</time>
      </trkpt>
      <trkpt lat="49.92387" lon="1.94288">
        <ele>45</ele>
        <time>2022-05-25T13:33:49Z</time>
      </trkpt>
      <trkpt lat="49.92388" lon="1.94289">
        <ele>45</ele>
        <time>2022-05-25T13:33:51Z</time>
      </trkpt>
      <trkpt lat="49.92388" lon="1.9429">
        <ele>45</ele>
        <time>2022-05-25T13:33:52Z</time>
      </trkpt>
      <trkpt lat="49.92388" lon="1.9429">
        <ele>45</ele>
        <time>2022-05-25T13:33:53Z</time>
      </trkpt>
      <trkpt lat="49.92388" lon="1.94289">
        <ele>45</ele>
        <time>2022-05-25T13:33:54Z</time>
      </trkpt>
      <trkpt lat="49.92388" lon="1.94289">
        <ele>45</ele>
        <time>2022-05-25T13:33:56Z</time>
      </trkpt>
      <trkpt lat="49.92388" lon="1.9429">
        <ele>45</ele>
        <time>2022-05-25T13:33:57Z</time>
      </trkpt>
      <trkpt lat="49.92388" lon="1.94289">
        <ele>45</ele>
        <time>2022-05-25T13:33:58Z</time>
      </trkpt>
      <trkpt lat="49.92388" lon="1.94289">
        <ele>45</ele>
        <time>2022-05-25T13:33:59Z</time>
      </trkpt>
      <trkpt lat="49.92387" lon="1.94289">
        <ele>45</ele>
        <time>2022-05-25T13:34:01Z</time>
      </trkpt>
      <trkpt lat="49.92387" lon="1.94289">
        <ele>45</ele>
        <time>2022-05-25T13:34:02Z</time>
      </trkpt>
      <trkpt lat="49.92387" lon="1.94288">
        <ele>45</ele>
        <time>2022-05-25T13:34:03Z</time>
      </trkpt>
      <trkpt lat="49.92387" lon="1.94288">
        <ele>45</ele>
        <time>2022-05-25T13:34:04Z</time>
      </trkpt>
      <trkpt lat="49.92388" lon="1.94287">
        <ele>45.1</ele>
        <time>2022-05-25T13:34:05Z</time>
      </trkpt>
      <trkpt lat="49.92388" lon="1.94287">
        <ele>45.1</ele>
        <time>2022-05-25T13:34:06Z</time>
      </trkpt>
      <trkpt lat="49.92388" lon="1.94287">
        <ele>45.1</ele>
        <time>2022-05-25T13:34:07Z</time>
      </trkpt>
      <trkpt lat="49.92388" lon="1.94287">
        <ele>45.1</ele>
        <time>2022-05-25T13:34:08Z</time>
      </trkpt>
      <trkpt lat="49.92388" lon="1.94287">
        <ele>45.1</ele>
        <time>2022-05-25T13:34:09Z</time>
      </trkpt>
      <trkpt lat="49.92388" lon="1.94287">
        <ele>45.1</ele>
        <time>2022-05-25T13:34:10Z</time>
      </trkpt>
      <trkpt lat="49.92388" lon="1.94287">
        <ele>45.1</ele>
        <time>2022-05-25T13:34:11Z</time>
      </trkpt>
      <trkpt lat="49.92388" lon="1.94287">
        <ele>45.1</ele>
        <time>2022-05-25T13:34:12Z</time>
      </trkpt>
      <trkpt lat="49.92388" lon="1.94287">
        <ele>45.1</ele>
        <time>2022-05-25T13:34:13Z</time>
      </trkpt>
      <trkpt lat="49.92388" lon="1.94287">
        <ele>45.1</ele>
        <time>2022-05-25T13:34:14Z</time>
      </trkpt>
      <trkpt lat="49.92388" lon="1.94287">
        <ele>45.1</ele>
        <time>2022-05-25T13:34:15Z</time>
      </trkpt>
      <trkpt lat="49.92388" lon="1.94287">
        <ele>45.1</ele>
        <time>2022-05-25T13:34:16Z</time>
      </trkpt>
      <trkpt lat="49.92388" lon="1.94287">
        <ele>45.1</ele>
        <time>2022-05-25T13:34:17Z</time>
      </trkpt>
      <trkpt lat="49.92388" lon="1.94287">
        <ele>45.1</ele>
        <time>2022-05-25T13:34:18Z</time>
      </trkpt>
      <trkpt lat="49.92388" lon="1.94287">
        <ele>45.1</ele>
        <time>2022-05-25T13:34:19Z</time>
      </trkpt>
      <trkpt lat="49.92388" lon="1.94287">
        <ele>45.1</ele>
        <time>2022-05-25T13:34:20Z</time>
      </trkpt>
      <trkpt lat="49.92388" lon="1.94287">
        <ele>45.1</ele>
        <time>2022-05-25T13:34:21Z</time>
      </trkpt>
      <trkpt lat="49.92388" lon="1.94287">
        <ele>45.1</ele>
        <time>2022-05-25T13:34:22Z</time>
      </trkpt>
      <trkpt lat="49.92388" lon="1.94287">
        <ele>45.1</ele>
        <time>2022-05-25T13:34:23Z</time>
      </trkpt>
      <trkpt lat="49.92388" lon="1.94287">
        <ele>45.1</ele>
        <time>2022-05-25T13:34:24Z</time>
      </trkpt>
      <trkpt lat="49.92388" lon="1.94287">
        <ele>45.1</ele>
        <time>2022-05-25T13:34:25Z</time>
      </trkpt>
      <trkpt lat="49.92388" lon="1.94287">
        <ele>45.1</ele>
        <time>2022-05-25T13:34:26Z</time>
      </trkpt>
      <trkpt lat="49.92388" lon="1.94287">
        <ele>45.1</ele>
        <time>2022-05-25T13:34:27Z</time>
      </trkpt>
      <trkpt lat="49.92388" lon="1.94287">
        <ele>45.1</ele>
        <time>2022-05-25T13:34:28Z</time>
      </trkpt>
      <trkpt lat="49.92388" lon="1.94287">
        <ele>45.1</ele>
        <time>2022-05-25T13:34:29Z</time>
      </trkpt>
      <trkpt lat="49.92388" lon="1.94287">
        <ele>45.1</ele>
        <time>2022-05-25T13:34:30Z</time>
      </trkpt>
      <trkpt lat="49.92388" lon="1.94287">
        <ele>45.1</ele>
        <time>2022-05-25T13:34:31Z</time>
      </trkpt>
      <trkpt lat="49.92388" lon="1.94287">
        <ele>45.1</ele>
        <time>2022-05-25T13:34:32Z</time>
      </trkpt>
      <trkpt lat="49.92388" lon="1.94287">
        <ele>45.1</ele>
        <time>2022-05-25T13:34:33Z</time>
      </trkpt>
      <trkpt lat="49.92388" lon="1.94287">
        <ele>45.1</ele>
        <time>2022-05-25T13:34:34Z</time>
      </trkpt>
      <trkpt lat="49.92388" lon="1.94287">
        <ele>45.1</ele>
        <time>2022-05-25T13:34:35Z</time>
      </trkpt>
      <trkpt lat="49.92388" lon="1.94287">
        <ele>45.1</ele>
        <time>2022-05-25T13:34:36Z</time>
      </trkpt>
      <trkpt lat="49.92388" lon="1.94287">
        <ele>45.1</ele>
        <time>2022-05-25T13:34:37Z</time>
      </trkpt>
      <trkpt lat="49.92388" lon="1.94287">
        <ele>45.1</ele>
        <time>2022-05-25T13:34:38Z</time>
      </trkpt>
      <trkpt lat="49.92388" lon="1.94287">
        <ele>45.1</ele>
        <time>2022-05-25T13:34:39Z</time>
      </trkpt>
      <trkpt lat="49.92388" lon="1.94287">
        <ele>45.1</ele>
        <time>2022-05-25T13:34:40Z</time>
      </trkpt>
      <trkpt lat="49.92388" lon="1.94287">
        <ele>45.1</ele>
        <time>2022-05-25T13:34:41Z</time>
      </trkpt>
      <trkpt lat="49.92388" lon="1.94287">
        <ele>45.1</ele>
        <time>2022-05-25T13:34:42Z</time>
      </trkpt>
      <trkpt lat="49.92387" lon="1.94287">
        <ele>45.1</ele>
        <time>2022-05-25T13:34:43Z</time>
      </trkpt>
      <trkpt lat="49.92387" lon="1.94287">
        <ele>45.1</ele>
        <time>2022-05-25T13:34:44Z</time>
      </trkpt>
      <trkpt lat="49.92387" lon="1.94287">
        <ele>45.1</ele>
        <time>2022-05-25T13:34:45Z</time>
      </trkpt>
      <trkpt lat="49.92387" lon="1.94287">
        <ele>45.1</ele>
        <time>2022-05-25T13:34:46Z</time>
      </trkpt>
      <trkpt lat="49.92387" lon="1.94287">
        <ele>45.1</ele>
        <time>2022-05-25T13:34:48Z</time>
      </trkpt>
      <trkpt lat="49.92387" lon="1.94287">
        <ele>45.1</ele>
        <time>2022-05-25T13:34:49Z</time>
      </trkpt>
      <trkpt lat="49.92387" lon="1.94287">
        <ele>45.1</ele>
        <time>2022-05-25T13:34:50Z</time>
      </trkpt>
      <trkpt lat="49.92387" lon="1.94287">
        <ele>45.1</ele>
        <time>2022-05-25T13:34:51Z</time>
      </trkpt>
      <trkpt lat="49.92387" lon="1.94287">
        <ele>45.1</ele>
        <time>2022-05-25T13:34:52Z</time>
      </trkpt>
      <trkpt lat="49.92387" lon="1.94287">
        <ele>45.1</ele>
        <time>2022-05-25T13:34:53Z</time>
      </trkpt>
      <trkpt lat="49.92387" lon="1.94287">
        <ele>45.1</ele>
        <time>2022-05-25T13:34:54Z</time>
      </trkpt>
      <trkpt lat="49.92387" lon="1.94287">
        <ele>45.1</ele>
        <time>2022-05-25T13:34:55Z</time>
      </trkpt>
      <trkpt lat="49.92387" lon="1.94287">
        <ele>45.1</ele>
        <time>2022-05-25T13:34:56Z</time>
      </trkpt>
      <trkpt lat="49.92387" lon="1.94287">
        <ele>45.1</ele>
        <time>2022-05-25T13:34:57Z</time>
      </trkpt>
      <trkpt lat="49.92387" lon="1.94287">
        <ele>45.1</ele>
        <time>2022-05-25T13:34:58Z</time>
      </trkpt>
      <trkpt lat="49.92387" lon="1.94287">
        <ele>45.1</ele>
        <time>2022-05-25T13:34:59Z</time>
      </trkpt>
      <trkpt lat="49.92387" lon="1.94287">
        <ele>45.1</ele>
        <time>2022-05-25T13:35:00Z</time>
      </trkpt>
      <trkpt lat="49.92387" lon="1.94287">
        <ele>45.1</ele>
        <time>2022-05-25T13:35:01Z</time>
      </trkpt>
      <trkpt lat="49.92387" lon="1.94287">
        <ele>45.1</ele>
        <time>2022-05-25T13:35:02Z</time>
      </trkpt>
      <trkpt lat="49.92387" lon="1.94287">
        <ele>45.1</ele>
        <time>2022-05-25T13:35:03Z</time>
      </trkpt>
      <trkpt lat="49.92387" lon="1.94287">
        <ele>45.1</ele>
        <time>2022-05-25T13:35:04Z</time>
      </trkpt>
      <trkpt lat="49.92387" lon="1.94287">
        <ele>45.1</ele>
        <time>2022-05-25T13:35:05Z</time>
      </trkpt>
      <trkpt lat="49.92387" lon="1.94287">
        <ele>45.1</ele>
        <time>2022-05-25T13:35:07Z</time>
      </trkpt>
      <trkpt lat="49.92387" lon="1.94287">
        <ele>45.1</ele>
        <time>2022-05-25T13:35:08Z</time>
      </trkpt>
      <trkpt lat="49.92387" lon="1.94287">
        <ele>45.1</ele>
        <time>2022-05-25T13:35:09Z</time>
      </trkpt>
      <trkpt lat="49.92387" lon="1.94287">
        <ele>45.1</ele>
        <time>2022-05-25T13:35:10Z</time>
      </trkpt>
      <trkpt lat="49.92387" lon="1.94287">
        <ele>45.1</ele>
        <time>2022-05-25T13:35:11Z</time>
      </trkpt>
      <trkpt lat="49.92387" lon="1.94287">
        <ele>45.1</ele>
        <time>2022-05-25T13:35:12Z</time>
      </trkpt>
      <trkpt lat="49.92387" lon="1.94287">
        <ele>45.1</ele>
        <time>2022-05-25T13:35:13Z</time>
      </trkpt>
      <trkpt lat="49.92387" lon="1.94287">
        <ele>45.1</ele>
        <time>2022-05-25T13:35:14Z</time>
      </trkpt>
      <trkpt lat="49.92387" lon="1.94287">
        <ele>45.1</ele>
        <time>2022-05-25T13:35:15Z</time>
      </trkpt>
      <trkpt lat="49.92387" lon="1.94287">
        <ele>45.1</ele>
        <time>2022-05-25T13:35:16Z</time>
      </trkpt>
      <trkpt lat="49.92387" lon="1.94287">
        <ele>45.1</ele>
        <time>2022-05-25T13:35:17Z</time>
      </trkpt>
      <trkpt lat="49.92387" lon="1.94287">
        <ele>45.1</ele>
        <time>2022-05-25T13:35:18Z</time>
      </trkpt>
      <trkpt lat="49.92387" lon="1.94287">
        <ele>45.1</ele>
        <time>2022-05-25T13:35:19Z</time>
      </trkpt>
      <trkpt lat="49.92387" lon="1.94287">
        <ele>45.1</ele>
        <time>2022-05-25T13:35:20Z</time>
      </trkpt>
      <trkpt lat="49.92387" lon="1.94287">
        <ele>45.1</ele>
        <time>2022-05-25T13:35:21Z</time>
      </trkpt>
      <trkpt lat="49.92387" lon="1.94287">
        <ele>45.1</ele>
        <time>2022-05-25T13:35:22Z</time>
      </trkpt>
      <trkpt lat="49.92387" lon="1.94287">
        <ele>45.1</ele>
        <time>2022-05-25T13:35:23Z</time>
      </trkpt>
      <trkpt lat="49.92387" lon="1.94287">
        <ele>45.1</ele>
        <time>2022-05-25T13:35:24Z</time>
      </trkpt>
      <trkpt lat="49.92387" lon="1.94287">
        <ele>45.1</ele>
        <time>2022-05-25T13:35:25Z</time>
      </trkpt>
      <trkpt lat="49.92387" lon="1.94287">
        <ele>45.1</ele>
        <time>2022-05-25T13:35:26Z</time>
      </trkpt>
      <trkpt lat="49.92387" lon="1.94287">
        <ele>45.1</ele>
        <time>2022-05-25T13:35:27Z</time>
      </trkpt>
      <trkpt lat="49.92387" lon="1.94287">
        <ele>45.1</ele>
        <time>2022-05-25T13:35:28Z</time>
      </trkpt>
      <trkpt lat="49.92387" lon="1.94287">
        <ele>45.1</ele>
        <time>2022-05-25T13:35:29Z</time>
      </trkpt>
      <trkpt lat="49.92387" lon="1.94287">
        <ele>45.1</ele>
        <time>2022-05-25T13:35:30Z</time>
      </trkpt>
      <trkpt lat="49.92387" lon="1.94287">
        <ele>45.1</ele>
        <time>2022-05-25T13:35:31Z</time>
      </trkpt>
      <trkpt lat="49.92387" lon="1.94287">
        <ele>45.1</ele>
        <time>2022-05-25T13:35:33Z</time>
      </trkpt>
      <trkpt lat="49.92387" lon="1.94287">
        <ele>45.1</ele>
        <time>2022-05-25T13:35:34Z</time>
      </trkpt>
      <trkpt lat="49.92387" lon="1.94287">
        <ele>45.1</ele>
        <time>2022-05-25T13:35:35Z</time>
      </trkpt>
      <trkpt lat="49.92387" lon="1.94287">
        <ele>45.1</ele>
        <time>2022-05-25T13:35:36Z</time>
      </trkpt>
      <trkpt lat="49.92387" lon="1.94287">
        <ele>45.1</ele>
        <time>2022-05-25T13:35:37Z</time>
      </trkpt>
      <trkpt lat="49.92387" lon="1.94287">
        <ele>45.1</ele>
        <time>2022-05-25T13:35:38Z</time>
      </trkpt>
      <trkpt lat="49.92387" lon="1.94287">
        <ele>45.1</ele>
        <time>2022-05-25T13:35:39Z</time>
      </trkpt>
      <trkpt lat="49.92387" lon="1.94287">
        <ele>45.1</ele>
        <time>2022-05-25T13:35:40Z</time>
      </trkpt>
      <trkpt lat="49.92387" lon="1.94287">
        <ele>45.1</ele>
        <time>2022-05-25T13:35:41Z</time>
      </trkpt>
      <trkpt lat="49.92387" lon="1.94287">
        <ele>45.1</ele>
        <time>2022-05-25T13:35:42Z</time>
      </trkpt>
      <trkpt lat="49.92387" lon="1.94287">
        <ele>45.1</ele>
        <time>2022-05-25T13:35:44Z</time>
      </trkpt>
      <trkpt lat="49.92387" lon="1.94287">
        <ele>45.1</ele>
        <time>2022-05-25T13:35:45Z</time>
      </trkpt>
      <trkpt lat="49.92387" lon="1.94287">
        <ele>45.1</ele>
        <time>2022-05-25T13:35:46Z</time>
      </trkpt>
      <trkpt lat="49.92387" lon="1.94287">
        <ele>45.1</ele>
        <time>2022-05-25T13:35:48Z</time>
      </trkpt>
      <trkpt lat="49.92387" lon="1.94287">
        <ele>45.1</ele>
        <time>2022-05-25T13:35:49Z</time>
      </trkpt>
      <trkpt lat="49.92386" lon="1.94288">
        <ele>45.1</ele>
        <time>2022-05-25T13:35:50Z</time>
      </trkpt>
      <trkpt lat="49.92386" lon="1.94289">
        <ele>45.1</ele>
        <time>2022-05-25T13:35:51Z</time>
      </trkpt>
      <trkpt lat="49.92386" lon="1.9429">
        <ele>45.1</ele>
        <time>2022-05-25T13:35:52Z</time>
      </trkpt>
      <trkpt lat="49.92385" lon="1.94291">
        <ele>45.2</ele>
        <time>2022-05-25T13:35:53Z</time>
      </trkpt>
      <trkpt lat="49.92383" lon="1.94294">
        <ele>45.2</ele>
        <time>2022-05-25T13:35:55Z</time>
      </trkpt>
      <trkpt lat="49.92382" lon="1.94296">
        <ele>45.2</ele>
        <time>2022-05-25T13:35:57Z</time>
      </trkpt>
      <trkpt lat="49.92381" lon="1.94297">
        <ele>45.3</ele>
        <time>2022-05-25T13:35:58Z</time>
      </trkpt>
      <trkpt lat="49.9238" lon="1.94298">
        <ele>45.3</ele>
        <time>2022-05-25T13:35:59Z</time>
      </trkpt>
      <trkpt lat="49.92378" lon="1.943">
        <ele>45.4</ele>
        <time>2022-05-25T13:36:00Z</time>
      </trkpt>
      <trkpt lat="49.92377" lon="1.94301">
        <ele>45.4</ele>
        <time>2022-05-25T13:36:02Z</time>
      </trkpt>
      <trkpt lat="49.92377" lon="1.94302">
        <ele>45.4</ele>
        <time>2022-05-25T13:36:03Z</time>
      </trkpt>
      <trkpt lat="49.92374" lon="1.94305">
        <ele>45.5</ele>
        <time>2022-05-25T13:36:05Z</time>
      </trkpt>
      <trkpt lat="49.92374" lon="1.94306">
        <ele>45.5</ele>
        <time>2022-05-25T13:36:06Z</time>
      </trkpt>
      <trkpt lat="49.92373" lon="1.94307">
        <ele>45.6</ele>
        <time>2022-05-25T13:36:08Z</time>
      </trkpt>
      <trkpt lat="49.92373" lon="1.94309">
        <ele>45.6</ele>
        <time>2022-05-25T13:36:09Z</time>
      </trkpt>
      <trkpt lat="49.92372" lon="1.94311">
        <ele>45.6</ele>
        <time>2022-05-25T13:36:10Z</time>
      </trkpt>
      <trkpt lat="49.92371" lon="1.94313">
        <ele>45.7</ele>
        <time>2022-05-25T13:36:11Z</time>
      </trkpt>
      <trkpt lat="49.9237" lon="1.94316">
        <ele>45.7</ele>
        <time>2022-05-25T13:36:13Z</time>
      </trkpt>
      <trkpt lat="49.92369" lon="1.94317">
        <ele>45.8</ele>
        <time>2022-05-25T13:36:14Z</time>
      </trkpt>
      <trkpt lat="49.92369" lon="1.94318">
        <ele>45.8</ele>
        <time>2022-05-25T13:36:15Z</time>
      </trkpt>
      <trkpt lat="49.92367" lon="1.9432">
        <ele>45.9</ele>
        <time>2022-05-25T13:36:16Z</time>
      </trkpt>
      <trkpt lat="49.92367" lon="1.94321">
        <ele>45.9</ele>
        <time>2022-05-25T13:36:17Z</time>
      </trkpt>
      <trkpt lat="49.92366" lon="1.94322">
        <ele>45.9</ele>
        <time>2022-05-25T13:36:18Z</time>
      </trkpt>
      <trkpt lat="49.92366" lon="1.94324">
        <ele>45.9</ele>
        <time>2022-05-25T13:36:20Z</time>
      </trkpt>
      <trkpt lat="49.92365" lon="1.94327">
        <ele>46</ele>
        <time>2022-05-25T13:36:21Z</time>
      </trkpt>
      <trkpt lat="49.92365" lon="1.9433">
        <ele>46.1</ele>
        <time>2022-05-25T13:36:23Z</time>
      </trkpt>
      <trkpt lat="49.92364" lon="1.94331">
        <ele>46.1</ele>
        <time>2022-05-25T13:36:24Z</time>
      </trkpt>
      <trkpt lat="49.92364" lon="1.94333">
        <ele>46.2</ele>
        <time>2022-05-25T13:36:25Z</time>
      </trkpt>
      <trkpt lat="49.92363" lon="1.94335">
        <ele>46.2</ele>
        <time>2022-05-25T13:36:26Z</time>
      </trkpt>
      <trkpt lat="49.92363" lon="1.94337">
        <ele>46.3</ele>
        <time>2022-05-25T13:36:27Z</time>
      </trkpt>
      <trkpt lat="49.92361" lon="1.9434">
        <ele>46.4</ele>
        <time>2022-05-25T13:36:29Z</time>
      </trkpt>
      <trkpt lat="49.92361" lon="1.94341">
        <ele>46.5</ele>
        <time>2022-05-25T13:36:30Z</time>
      </trkpt>
      <trkpt lat="49.9236" lon="1.94343">
        <ele>46.5</ele>
        <time>2022-05-25T13:36:31Z</time>
      </trkpt>
      <trkpt lat="49.9236" lon="1.94344">
        <ele>46.5</ele>
        <time>2022-05-25T13:36:33Z</time>
      </trkpt>
      <trkpt lat="49.92359" lon="1.94345">
        <ele>46.6</ele>
        <time>2022-05-25T13:36:34Z</time>
      </trkpt>
      <trkpt lat="49.92358" lon="1.94346">
        <ele>46.6</ele>
        <time>2022-05-25T13:36:35Z</time>
      </trkpt>
      <trkpt lat="49.92359" lon="1.9435">
        <ele>46.8</ele>
        <time>2022-05-25T13:36:36Z</time>
      </trkpt>
      <trkpt lat="49.92359" lon="1.94351">
        <ele>46.8</ele>
        <time>2022-05-25T13:36:37Z</time>
      </trkpt>
      <trkpt lat="49.92358" lon="1.94352">
        <ele>46.9</ele>
        <time>2022-05-25T13:36:38Z</time>
      </trkpt>
      <trkpt lat="49.92357" lon="1.94353">
        <ele>46.9</ele>
        <time>2022-05-25T13:36:40Z</time>
      </trkpt>
      <trkpt lat="49.92357" lon="1.94355">
        <ele>47</ele>
        <time>2022-05-25T13:36:41Z</time>
      </trkpt>
      <trkpt lat="49.92357" lon="1.94356">
        <ele>47.1</ele>
        <time>2022-05-25T13:36:42Z</time>
      </trkpt>
      <trkpt lat="49.92356" lon="1.94358">
        <ele>47.1</ele>
        <time>2022-05-25T13:36:43Z</time>
      </trkpt>
      <trkpt lat="49.92355" lon="1.94359">
        <ele>47.2</ele>
        <time>2022-05-25T13:36:44Z</time>
      </trkpt>
      <trkpt lat="49.92355" lon="1.9436">
        <ele>47.2</ele>
        <time>2022-05-25T13:36:45Z</time>
      </trkpt>
      <trkpt lat="49.92354" lon="1.94361">
        <ele>47.3</ele>
        <time>2022-05-25T13:36:46Z</time>
      </trkpt>
      <trkpt lat="49.92354" lon="1.94362">
        <ele>47.3</ele>
        <time>2022-05-25T13:36:47Z</time>
      </trkpt>
      <trkpt lat="49.92353" lon="1.94364">
        <ele>47.4</ele>
        <time>2022-05-25T13:36:49Z</time>
      </trkpt>
      <trkpt lat="49.92353" lon="1.94365">
        <ele>47.5</ele>
        <time>2022-05-25T13:36:50Z</time>
      </trkpt>
      <trkpt lat="49.92351" lon="1.94367">
        <ele>47.6</ele>
        <time>2022-05-25T13:36:51Z</time>
      </trkpt>
      <trkpt lat="49.9235" lon="1.94368">
        <ele>47.6</ele>
        <time>2022-05-25T13:36:52Z</time>
      </trkpt>
      <trkpt lat="49.92349" lon="1.94369">
        <ele>47.7</ele>
        <time>2022-05-25T13:36:53Z</time>
      </trkpt>
      <trkpt lat="49.92348" lon="1.9437">
        <ele>47.8</ele>
        <time>2022-05-25T13:36:55Z</time>
      </trkpt>
      <trkpt lat="49.92347" lon="1.94372">
        <ele>47.9</ele>
        <time>2022-05-25T13:36:56Z</time>
      </trkpt>
      <trkpt lat="49.92347" lon="1.94373">
        <ele>48</ele>
        <time>2022-05-25T13:36:57Z</time>
      </trkpt>
      <trkpt lat="49.92346" lon="1.94374">
        <ele>48</ele>
        <time>2022-05-25T13:36:58Z</time>
      </trkpt>
      <trkpt lat="49.92345" lon="1.94376">
        <ele>48.1</ele>
        <time>2022-05-25T13:36:59Z</time>
      </trkpt>
      <trkpt lat="49.92344" lon="1.94377">
        <ele>48.2</ele>
        <time>2022-05-25T13:37:00Z</time>
      </trkpt>
      <trkpt lat="49.92343" lon="1.94377">
        <ele>48.2</ele>
        <time>2022-05-25T13:37:01Z</time>
      </trkpt>
      <trkpt lat="49.92342" lon="1.94378">
        <ele>48.4</ele>
        <time>2022-05-25T13:37:03Z</time>
      </trkpt>
      <trkpt lat="49.92341" lon="1.94379">
        <ele>48.5</ele>
        <time>2022-05-25T13:37:04Z</time>
      </trkpt>
      <trkpt lat="49.9234" lon="1.94379">
        <ele>48.5</ele>
        <time>2022-05-25T13:37:05Z</time>
      </trkpt>
      <trkpt lat="49.92339" lon="1.94381">
        <ele>48.6</ele>
        <time>2022-05-25T13:37:06Z</time>
      </trkpt>
      <trkpt lat="49.92337" lon="1.94382">
        <ele>48.7</ele>
        <time>2022-05-25T13:37:07Z</time>
      </trkpt>
      <trkpt lat="49.92335" lon="1.94382">
        <ele>48.9</ele>
        <time>2022-05-25T13:37:08Z</time>
      </trkpt>
      <trkpt lat="49.92334" lon="1.94382">
        <ele>49</ele>
        <time>2022-05-25T13:37:10Z</time>
      </trkpt>
      <trkpt lat="49.92333" lon="1.94382">
        <ele>49.1</ele>
        <time>2022-05-25T13:37:11Z</time>
      </trkpt>
      <trkpt lat="49.92331" lon="1.94382">
        <ele>49.1</ele>
        <time>2022-05-25T13:37:12Z</time>
      </trkpt>
      <trkpt lat="49.9233" lon="1.94382">
        <ele>49.2</ele>
        <time>2022-05-25T13:37:13Z</time>
      </trkpt>
      <trkpt lat="49.92326" lon="1.9438">
        <ele>49.5</ele>
        <time>2022-05-25T13:37:15Z</time>
      </trkpt>
      <trkpt lat="49.92325" lon="1.9438">
        <ele>49.5</ele>
        <time>2022-05-25T13:37:17Z</time>
      </trkpt>
      <trkpt lat="49.92324" lon="1.94381">
        <ele>49.6</ele>
        <time>2022-05-25T13:37:20Z</time>
      </trkpt>
      <trkpt lat="49.92322" lon="1.9438">
        <ele>49.6</ele>
        <time>2022-05-25T13:37:21Z</time>
      </trkpt>
      <trkpt lat="49.92321" lon="1.94379">
        <ele>49.6</ele>
        <time>2022-05-25T13:37:22Z</time>
      </trkpt>
      <trkpt lat="49.92321" lon="1.94379">
        <ele>49.6</ele>
        <time>2022-05-25T13:37:24Z</time>
      </trkpt>
      <trkpt lat="49.9232" lon="1.9438">
        <ele>49.6</ele>
        <time>2022-05-25T13:37:25Z</time>
      </trkpt>
      <trkpt lat="49.92319" lon="1.94377">
        <ele>49.6</ele>
        <time>2022-05-25T13:37:26Z</time>
      </trkpt>
      <trkpt lat="49.92318" lon="1.94377">
        <ele>49.6</ele>
        <time>2022-05-25T13:37:27Z</time>
      </trkpt>
      <trkpt lat="49.92317" lon="1.94378">
        <ele>49.6</ele>
        <time>2022-05-25T13:37:29Z</time>
      </trkpt>
      <trkpt lat="49.92317" lon="1.94378">
        <ele>49.6</ele>
        <time>2022-05-25T13:37:30Z</time>
      </trkpt>
      <trkpt lat="49.92315" lon="1.94378">
        <ele>49.7</ele>
        <time>2022-05-25T13:37:31Z</time>
      </trkpt>
      <trkpt lat="49.92315" lon="1.94377">
        <ele>49.6</ele>
        <time>2022-05-25T13:37:32Z</time>
      </trkpt>
      <trkpt lat="49.92314" lon="1.94378">
        <ele>49.5</ele>
        <time>2022-05-25T13:37:33Z</time>
      </trkpt>
      <trkpt lat="49.92313" lon="1.94379">
        <ele>49.4</ele>
        <time>2022-05-25T13:37:34Z</time>
      </trkpt>
      <trkpt lat="49.92312" lon="1.94381">
        <ele>49.4</ele>
        <time>2022-05-25T13:37:35Z</time>
      </trkpt>
      <trkpt lat="49.92311" lon="1.9438">
        <ele>49.3</ele>
        <time>2022-05-25T13:37:36Z</time>
      </trkpt>
      <trkpt lat="49.9231" lon="1.94381">
        <ele>49.3</ele>
        <time>2022-05-25T13:37:37Z</time>
      </trkpt>
      <trkpt lat="49.92309" lon="1.94382">
        <ele>49.2</ele>
        <time>2022-05-25T13:37:39Z</time>
      </trkpt>
      <trkpt lat="49.92308" lon="1.94384">
        <ele>49.2</ele>
        <time>2022-05-25T13:37:40Z</time>
      </trkpt>
      <trkpt lat="49.92307" lon="1.94383">
        <ele>49.1</ele>
        <time>2022-05-25T13:37:41Z</time>
      </trkpt>
      <trkpt lat="49.92306" lon="1.94385">
        <ele>49.1</ele>
        <time>2022-05-25T13:37:42Z</time>
      </trkpt>
      <trkpt lat="49.92306" lon="1.94387">
        <ele>49</ele>
        <time>2022-05-25T13:37:43Z</time>
      </trkpt>
      <trkpt lat="49.92305" lon="1.94389">
        <ele>49</ele>
        <time>2022-05-25T13:37:44Z</time>
      </trkpt>
      <trkpt lat="49.92305" lon="1.94393">
        <ele>48.9</ele>
        <time>2022-05-25T13:37:46Z</time>
      </trkpt>
      <trkpt lat="49.92305" lon="1.94394">
        <ele>48.9</ele>
        <time>2022-05-25T13:37:47Z</time>
      </trkpt>
      <trkpt lat="49.92304" lon="1.94397">
        <ele>48.9</ele>
        <time>2022-05-25T13:37:48Z</time>
      </trkpt>
      <trkpt lat="49.92303" lon="1.94398">
        <ele>48.9</ele>
        <time>2022-05-25T13:37:49Z</time>
      </trkpt>
      <trkpt lat="49.92303" lon="1.94399">
        <ele>48.9</ele>
        <time>2022-05-25T13:37:50Z</time>
      </trkpt>
      <trkpt lat="49.92302" lon="1.94401">
        <ele>48.9</ele>
        <time>2022-05-25T13:37:51Z</time>
      </trkpt>
      <trkpt lat="49.92302" lon="1.94403">
        <ele>48.9</ele>
        <time>2022-05-25T13:37:52Z</time>
      </trkpt>
      <trkpt lat="49.92301" lon="1.94404">
        <ele>48.9</ele>
        <time>2022-05-25T13:37:54Z</time>
      </trkpt>
      <trkpt lat="49.923" lon="1.94406">
        <ele>48.9</ele>
        <time>2022-05-25T13:37:55Z</time>
      </trkpt>
      <trkpt lat="49.92299" lon="1.94408">
        <ele>48.9</ele>
        <time>2022-05-25T13:37:56Z</time>
      </trkpt>
      <trkpt lat="49.92299" lon="1.94411">
        <ele>48.9</ele>
        <time>2022-05-25T13:37:57Z</time>
      </trkpt>
      <trkpt lat="49.92298" lon="1.94413">
        <ele>48.9</ele>
        <time>2022-05-25T13:37:58Z</time>
      </trkpt>
      <trkpt lat="49.92298" lon="1.94415">
        <ele>48.9</ele>
        <time>2022-05-25T13:37:59Z</time>
      </trkpt>
      <trkpt lat="49.92297" lon="1.94416">
        <ele>48.9</ele>
        <time>2022-05-25T13:38:00Z</time>
      </trkpt>
      <trkpt lat="49.92297" lon="1.94419">
        <ele>48.9</ele>
        <time>2022-05-25T13:38:02Z</time>
      </trkpt>
      <trkpt lat="49.92296" lon="1.94422">
        <ele>48.8</ele>
        <time>2022-05-25T13:38:04Z</time>
      </trkpt>
      <trkpt lat="49.92297" lon="1.94422">
        <ele>48.8</ele>
        <time>2022-05-25T13:38:05Z</time>
      </trkpt>
      <trkpt lat="49.92297" lon="1.94423">
        <ele>48.8</ele>
        <time>2022-05-25T13:38:07Z</time>
      </trkpt>
      <trkpt lat="49.92297" lon="1.94423">
        <ele>48.8</ele>
        <time>2022-05-25T13:38:09Z</time>
      </trkpt>
      <trkpt lat="49.92297" lon="1.94423">
        <ele>48.8</ele>
        <time>2022-05-25T13:38:10Z</time>
      </trkpt>
      <trkpt lat="49.92297" lon="1.94423">
        <ele>48.8</ele>
        <time>2022-05-25T13:38:12Z</time>
      </trkpt>
      <trkpt lat="49.92297" lon="1.94423">
        <ele>48.8</ele>
        <time>2022-05-25T13:38:13Z</time>
      </trkpt>
      <trkpt lat="49.92297" lon="1.94423">
        <ele>48.8</ele>
        <time>2022-05-25T13:38:14Z</time>
      </trkpt>
      <trkpt lat="49.92297" lon="1.94424">
        <ele>48.8</ele>
        <time>2022-05-25T13:38:15Z</time>
      </trkpt>
      <trkpt lat="49.92297" lon="1.94424">
        <ele>48.8</ele>
        <time>2022-05-25T13:38:16Z</time>
      </trkpt>
      <trkpt lat="49.92297" lon="1.94424">
        <ele>48.8</ele>
        <time>2022-05-25T13:38:17Z</time>
      </trkpt>
      <trkpt lat="49.92297" lon="1.94424">
        <ele>48.8</ele>
        <time>2022-05-25T13:38:19Z</time>
      </trkpt>
      <trkpt lat="49.92297" lon="1.94424">
        <ele>48.8</ele>
        <time>2022-05-25T13:38:21Z</time>
      </trkpt>
      <trkpt lat="49.92297" lon="1.94425">
        <ele>48.8</ele>
        <time>2022-05-25T13:38:22Z</time>
      </trkpt>
      <trkpt lat="49.92297" lon="1.94426">
        <ele>48.8</ele>
        <time>2022-05-25T13:38:23Z</time>
      </trkpt>
      <trkpt lat="49.92296" lon="1.9443">
        <ele>48.8</ele>
        <time>2022-05-25T13:38:24Z</time>
      </trkpt>
      <trkpt lat="49.92296" lon="1.94431">
        <ele>48.8</ele>
        <time>2022-05-25T13:38:25Z</time>
      </trkpt>
      <trkpt lat="49.92295" lon="1.94435">
        <ele>48.8</ele>
        <time>2022-05-25T13:38:27Z</time>
      </trkpt>
      <trkpt lat="49.92294" lon="1.94437">
        <ele>48.8</ele>
        <time>2022-05-25T13:38:29Z</time>
      </trkpt>
      <trkpt lat="49.92294" lon="1.94439">
        <ele>48.8</ele>
        <time>2022-05-25T13:38:30Z</time>
      </trkpt>
      <trkpt lat="49.92293" lon="1.94442">
        <ele>48.8</ele>
        <time>2022-05-25T13:38:31Z</time>
      </trkpt>
      <trkpt lat="49.92292" lon="1.94445">
        <ele>48.8</ele>
        <time>2022-05-25T13:38:32Z</time>
      </trkpt>
      <trkpt lat="49.92292" lon="1.94446">
        <ele>48.8</ele>
        <time>2022-05-25T13:38:33Z</time>
      </trkpt>
      <trkpt lat="49.92292" lon="1.94447">
        <ele>48.8</ele>
        <time>2022-05-25T13:38:34Z</time>
      </trkpt>
      <trkpt lat="49.92292" lon="1.94449">
        <ele>48.8</ele>
        <time>2022-05-25T13:38:36Z</time>
      </trkpt>
      <trkpt lat="49.92292" lon="1.9445">
        <ele>48.8</ele>
        <time>2022-05-25T13:38:37Z</time>
      </trkpt>
      <trkpt lat="49.92291" lon="1.94452">
        <ele>48.8</ele>
        <time>2022-05-25T13:38:38Z</time>
      </trkpt>
      <trkpt lat="49.9229" lon="1.94455">
        <ele>48.8</ele>
        <time>2022-05-25T13:38:39Z</time>
      </trkpt>
      <trkpt lat="49.92289" lon="1.94456">
        <ele>48.8</ele>
        <time>2022-05-25T13:38:41Z</time>
      </trkpt>
      <trkpt lat="49.92289" lon="1.94457">
        <ele>48.8</ele>
        <time>2022-05-25T13:38:42Z</time>
      </trkpt>
      <trkpt lat="49.92288" lon="1.94458">
        <ele>48.8</ele>
        <time>2022-05-25T13:38:43Z</time>
      </trkpt>
      <trkpt lat="49.92287" lon="1.9446">
        <ele>48.8</ele>
        <time>2022-05-25T13:38:44Z</time>
      </trkpt>
      <trkpt lat="49.92287" lon="1.94461">
        <ele>48.9</ele>
        <time>2022-05-25T13:38:45Z</time>
      </trkpt>
      <trkpt lat="49.92285" lon="1.94464">
        <ele>48.9</ele>
        <time>2022-05-25T13:38:46Z</time>
      </trkpt>
      <trkpt lat="49.92285" lon="1.94465">
        <ele>48.9</ele>
        <time>2022-05-25T13:38:47Z</time>
      </trkpt>
      <trkpt lat="49.92284" lon="1.94467">
        <ele>49</ele>
        <time>2022-05-25T13:38:48Z</time>
      </trkpt>
      <trkpt lat="49.92283" lon="1.94469">
        <ele>49</ele>
        <time>2022-05-25T13:38:49Z</time>
      </trkpt>
      <trkpt lat="49.92283" lon="1.94471">
        <ele>49</ele>
        <time>2022-05-25T13:38:50Z</time>
      </trkpt>
      <trkpt lat="49.92281" lon="1.94472">
        <ele>49.1</ele>
        <time>2022-05-25T13:38:51Z</time>
      </trkpt>
      <trkpt lat="49.9228" lon="1.94473">
        <ele>49.1</ele>
        <time>2022-05-25T13:38:52Z</time>
      </trkpt>
      <trkpt lat="49.92279" lon="1.94475">
        <ele>49.1</ele>
        <time>2022-05-25T13:38:54Z</time>
      </trkpt>
      <trkpt lat="49.92279" lon="1.94476">
        <ele>49.1</ele>
        <time>2022-05-25T13:38:55Z</time>
      </trkpt>
      <trkpt lat="49.92278" lon="1.94478">
        <ele>49.2</ele>
        <time>2022-05-25T13:38:56Z</time>
      </trkpt>
      <trkpt lat="49.92277" lon="1.94479">
        <ele>49.2</ele>
        <time>2022-05-25T13:38:57Z</time>
      </trkpt>
      <trkpt lat="49.92276" lon="1.94481">
        <ele>49.2</ele>
        <time>2022-05-25T13:38:58Z</time>
      </trkpt>
      <trkpt lat="49.92275" lon="1.94483">
        <ele>49.2</ele>
        <time>2022-05-25T13:38:59Z</time>
      </trkpt>
      <trkpt lat="49.92275" lon="1.94486">
        <ele>49.2</ele>
        <time>2022-05-25T13:39:00Z</time>
      </trkpt>
      <trkpt lat="49.92274" lon="1.94488">
        <ele>49.3</ele>
        <time>2022-05-25T13:39:01Z</time>
      </trkpt>
      <trkpt lat="49.92273" lon="1.94491">
        <ele>49.3</ele>
        <time>2022-05-25T13:39:02Z</time>
      </trkpt>
      <trkpt lat="49.92273" lon="1.94492">
        <ele>49.3</ele>
        <time>2022-05-25T13:39:03Z</time>
      </trkpt>
      <trkpt lat="49.92272" lon="1.94493">
        <ele>49.3</ele>
        <time>2022-05-25T13:39:04Z</time>
      </trkpt>
      <trkpt lat="49.92272" lon="1.94495">
        <ele>49.3</ele>
        <time>2022-05-25T13:39:05Z</time>
      </trkpt>
      <trkpt lat="49.92271" lon="1.94498">
        <ele>49.3</ele>
        <time>2022-05-25T13:39:07Z</time>
      </trkpt>
      <trkpt lat="49.9227" lon="1.945">
        <ele>49.3</ele>
        <time>2022-05-25T13:39:09Z</time>
      </trkpt>
      <trkpt lat="49.92269" lon="1.94502">
        <ele>49.3</ele>
        <time>2022-05-25T13:39:10Z</time>
      </trkpt>
      <trkpt lat="49.92268" lon="1.94505">
        <ele>49.3</ele>
        <time>2022-05-25T13:39:11Z</time>
      </trkpt>
      <trkpt lat="49.92267" lon="1.94506">
        <ele>49.3</ele>
        <time>2022-05-25T13:39:12Z</time>
      </trkpt>
      <trkpt lat="49.92267" lon="1.94507">
        <ele>49.3</ele>
        <time>2022-05-25T13:39:13Z</time>
      </trkpt>
      <trkpt lat="49.92266" lon="1.9451">
        <ele>49.4</ele>
        <time>2022-05-25T13:39:14Z</time>
      </trkpt>
      <trkpt lat="49.92266" lon="1.94511">
        <ele>49.4</ele>
        <time>2022-05-25T13:39:15Z</time>
      </trkpt>
      <trkpt lat="49.92265" lon="1.94512">
        <ele>49.4</ele>
        <time>2022-05-25T13:39:16Z</time>
      </trkpt>
      <trkpt lat="49.92264" lon="1.94515">
        <ele>49.4</ele>
        <time>2022-05-25T13:39:18Z</time>
      </trkpt>
      <trkpt lat="49.92264" lon="1.94516">
        <ele>49.4</ele>
        <time>2022-05-25T13:39:19Z</time>
      </trkpt>
      <trkpt lat="49.92263" lon="1.94518">
        <ele>49.4</ele>
        <time>2022-05-25T13:39:20Z</time>
      </trkpt>
      <trkpt lat="49.92262" lon="1.9452">
        <ele>49.5</ele>
        <time>2022-05-25T13:39:21Z</time>
      </trkpt>
      <trkpt lat="49.92262" lon="1.94522">
        <ele>49.5</ele>
        <time>2022-05-25T13:39:22Z</time>
      </trkpt>
      <trkpt lat="49.92261" lon="1.94525">
        <ele>49.6</ele>
        <time>2022-05-25T13:39:23Z</time>
      </trkpt>
      <trkpt lat="49.92261" lon="1.94526">
        <ele>49.6</ele>
        <time>2022-05-25T13:39:25Z</time>
      </trkpt>
      <trkpt lat="49.92261" lon="1.94528">
        <ele>49.6</ele>
        <time>2022-05-25T13:39:26Z</time>
      </trkpt>
      <trkpt lat="49.92259" lon="1.9453">
        <ele>49.7</ele>
        <time>2022-05-25T13:39:27Z</time>
      </trkpt>
      <trkpt lat="49.92259" lon="1.94532">
        <ele>49.8</ele>
        <time>2022-05-25T13:39:28Z</time>
      </trkpt>
      <trkpt lat="49.92258" lon="1.94535">
        <ele>49.8</ele>
        <time>2022-05-25T13:39:29Z</time>
      </trkpt>
      <trkpt lat="49.92258" lon="1.94536">
        <ele>49.8</ele>
        <time>2022-05-25T13:39:30Z</time>
      </trkpt>
      <trkpt lat="49.92257" lon="1.94538">
        <ele>49.9</ele>
        <time>2022-05-25T13:39:31Z</time>
      </trkpt>
      <trkpt lat="49.92256" lon="1.94539">
        <ele>49.9</ele>
        <time>2022-05-25T13:39:32Z</time>
      </trkpt>
      <trkpt lat="49.92255" lon="1.94541">
        <ele>50</ele>
        <time>2022-05-25T13:39:33Z</time>
      </trkpt>
      <trkpt lat="49.92255" lon="1.94543">
        <ele>50</ele>
        <time>2022-05-25T13:39:34Z</time>
      </trkpt>
      <trkpt lat="49.92255" lon="1.94544">
        <ele>50</ele>
        <time>2022-05-25T13:39:36Z</time>
      </trkpt>
      <trkpt lat="49.92253" lon="1.94548">
        <ele>50.1</ele>
        <time>2022-05-25T13:39:37Z</time>
      </trkpt>
      <trkpt lat="49.92252" lon="1.9455">
        <ele>50.2</ele>
        <time>2022-05-25T13:39:39Z</time>
      </trkpt>
      <trkpt lat="49.92252" lon="1.94552">
        <ele>50.2</ele>
        <time>2022-05-25T13:39:40Z</time>
      </trkpt>
      <trkpt lat="49.92251" lon="1.94555">
        <ele>50.2</ele>
        <time>2022-05-25T13:39:41Z</time>
      </trkpt>
      <trkpt lat="49.92251" lon="1.94556">
        <ele>50.2</ele>
        <time>2022-05-25T13:39:42Z</time>
      </trkpt>
      <trkpt lat="49.92251" lon="1.94557">
        <ele>50.2</ele>
        <time>2022-05-25T13:39:43Z</time>
      </trkpt>
      <trkpt lat="49.9225" lon="1.94559">
        <ele>50.3</ele>
        <time>2022-05-25T13:39:44Z</time>
      </trkpt>
      <trkpt lat="49.9225" lon="1.94561">
        <ele>50.3</ele>
        <time>2022-05-25T13:39:46Z</time>
      </trkpt>
      <trkpt lat="49.92247" lon="1.94561">
        <ele>50.3</ele>
        <time>2022-05-25T13:39:47Z</time>
      </trkpt>
      <trkpt lat="49.92247" lon="1.94562">
        <ele>50.3</ele>
        <time>2022-05-25T13:39:48Z</time>
      </trkpt>
      <trkpt lat="49.92246" lon="1.94565">
        <ele>50.4</ele>
        <time>2022-05-25T13:39:49Z</time>
      </trkpt>
      <trkpt lat="49.92246" lon="1.94567">
        <ele>50.4</ele>
        <time>2022-05-25T13:39:50Z</time>
      </trkpt>
      <trkpt lat="49.92245" lon="1.94568">
        <ele>50.4</ele>
        <time>2022-05-25T13:39:51Z</time>
      </trkpt>
      <trkpt lat="49.92245" lon="1.9457">
        <ele>50.4</ele>
        <time>2022-05-25T13:39:53Z</time>
      </trkpt>
      <trkpt lat="49.92244" lon="1.94571">
        <ele>50.4</ele>
        <time>2022-05-25T13:39:54Z</time>
      </trkpt>
      <trkpt lat="49.92244" lon="1.94573">
        <ele>50.4</ele>
        <time>2022-05-25T13:39:55Z</time>
      </trkpt>
      <trkpt lat="49.92243" lon="1.94577">
        <ele>50.4</ele>
        <time>2022-05-25T13:39:56Z</time>
      </trkpt>
      <trkpt lat="49.92243" lon="1.94577">
        <ele>50.4</ele>
        <time>2022-05-25T13:39:57Z</time>
      </trkpt>
      <trkpt lat="49.92243" lon="1.94579">
        <ele>50.5</ele>
        <time>2022-05-25T13:39:58Z</time>
      </trkpt>
      <trkpt lat="49.92243" lon="1.94581">
        <ele>50.5</ele>
        <time>2022-05-25T13:39:59Z</time>
      </trkpt>
      <trkpt lat="49.92242" lon="1.94582">
        <ele>50.5</ele>
        <time>2022-05-25T13:40:00Z</time>
      </trkpt>
      <trkpt lat="49.92242" lon="1.94583">
        <ele>50.5</ele>
        <time>2022-05-25T13:40:01Z</time>
      </trkpt>
      <trkpt lat="49.92242" lon="1.94584">
        <ele>50.5</ele>
        <time>2022-05-25T13:40:02Z</time>
      </trkpt>
      <trkpt lat="49.92241" lon="1.94586">
        <ele>50.5</ele>
        <time>2022-05-25T13:40:03Z</time>
      </trkpt>
      <trkpt lat="49.92241" lon="1.94587">
        <ele>50.5</ele>
        <time>2022-05-25T13:40:05Z</time>
      </trkpt>
      <trkpt lat="49.9224" lon="1.94589">
        <ele>50.5</ele>
        <time>2022-05-25T13:40:06Z</time>
      </trkpt>
      <trkpt lat="49.92239" lon="1.94589">
        <ele>50.5</ele>
        <time>2022-05-25T13:40:07Z</time>
      </trkpt>
      <trkpt lat="49.92239" lon="1.9459">
        <ele>50.5</ele>
        <time>2022-05-25T13:40:08Z</time>
      </trkpt>
      <trkpt lat="49.92238" lon="1.94592">
        <ele>50.5</ele>
        <time>2022-05-25T13:40:09Z</time>
      </trkpt>
      <trkpt lat="49.92237" lon="1.94593">
        <ele>50.5</ele>
        <time>2022-05-25T13:40:10Z</time>
      </trkpt>
      <trkpt lat="49.92236" lon="1.94595">
        <ele>50.5</ele>
        <time>2022-05-25T13:40:11Z</time>
      </trkpt>
      <trkpt lat="49.92235" lon="1.94595">
        <ele>50.5</ele>
        <time>2022-05-25T13:40:12Z</time>
      </trkpt>
      <trkpt lat="49.92234" lon="1.94596">
        <ele>50.5</ele>
        <time>2022-05-25T13:40:13Z</time>
      </trkpt>
      <trkpt lat="49.92234" lon="1.94597">
        <ele>50.5</ele>
        <time>2022-05-25T13:40:14Z</time>
      </trkpt>
      <trkpt lat="49.92232" lon="1.946">
        <ele>50.5</ele>
        <time>2022-05-25T13:40:15Z</time>
      </trkpt>
      <trkpt lat="49.92231" lon="1.94602">
        <ele>50.5</ele>
        <time>2022-05-25T13:40:16Z</time>
      </trkpt>
      <trkpt lat="49.9223" lon="1.94604">
        <ele>50.6</ele>
        <time>2022-05-25T13:40:17Z</time>
      </trkpt>
      <trkpt lat="49.9223" lon="1.94606">
        <ele>50.6</ele>
        <time>2022-05-25T13:40:19Z</time>
      </trkpt>
      <trkpt lat="49.92229" lon="1.94607">
        <ele>50.6</ele>
        <time>2022-05-25T13:40:20Z</time>
      </trkpt>
      <trkpt lat="49.92228" lon="1.94609">
        <ele>50.6</ele>
        <time>2022-05-25T13:40:21Z</time>
      </trkpt>
      <trkpt lat="49.92228" lon="1.9461">
        <ele>50.6</ele>
        <time>2022-05-25T13:40:22Z</time>
      </trkpt>
      <trkpt lat="49.92228" lon="1.94611">
        <ele>50.6</ele>
        <time>2022-05-25T13:40:23Z</time>
      </trkpt>
      <trkpt lat="49.92226" lon="1.94615">
        <ele>50.7</ele>
        <time>2022-05-25T13:40:24Z</time>
      </trkpt>
      <trkpt lat="49.92226" lon="1.94617">
        <ele>50.7</ele>
        <time>2022-05-25T13:40:25Z</time>
      </trkpt>
      <trkpt lat="49.92225" lon="1.94618">
        <ele>50.7</ele>
        <time>2022-05-25T13:40:26Z</time>
      </trkpt>
      <trkpt lat="49.92224" lon="1.94618">
        <ele>50.7</ele>
        <time>2022-05-25T13:40:27Z</time>
      </trkpt>
      <trkpt lat="49.92223" lon="1.94618">
        <ele>50.8</ele>
        <time>2022-05-25T13:40:28Z</time>
      </trkpt>
      <trkpt lat="49.92222" lon="1.94619">
        <ele>50.8</ele>
        <time>2022-05-25T13:40:29Z</time>
      </trkpt>
      <trkpt lat="49.92221" lon="1.94621">
        <ele>50.8</ele>
        <time>2022-05-25T13:40:31Z</time>
      </trkpt>
      <trkpt lat="49.9222" lon="1.94622">
        <ele>50.8</ele>
        <time>2022-05-25T13:40:33Z</time>
      </trkpt>
      <trkpt lat="49.9222" lon="1.94624">
        <ele>50.9</ele>
        <time>2022-05-25T13:40:34Z</time>
      </trkpt>
      <trkpt lat="49.92218" lon="1.94628">
        <ele>50.9</ele>
        <time>2022-05-25T13:40:35Z</time>
      </trkpt>
      <trkpt lat="49.92217" lon="1.9463">
        <ele>51</ele>
        <time>2022-05-25T13:40:36Z</time>
      </trkpt>
      <trkpt lat="49.92216" lon="1.94633">
        <ele>51</ele>
        <time>2022-05-25T13:40:37Z</time>
      </trkpt>
      <trkpt lat="49.92215" lon="1.94634">
        <ele>51.1</ele>
        <time>2022-05-25T13:40:39Z</time>
      </trkpt>
      <trkpt lat="49.92215" lon="1.94636">
        <ele>51.1</ele>
        <time>2022-05-25T13:40:40Z</time>
      </trkpt>
      <trkpt lat="49.92213" lon="1.9464">
        <ele>51.2</ele>
        <time>2022-05-25T13:40:41Z</time>
      </trkpt>
      <trkpt lat="49.92213" lon="1.94639">
        <ele>51.2</ele>
        <time>2022-05-25T13:40:42Z</time>
      </trkpt>
      <trkpt lat="49.92212" lon="1.9464">
        <ele>51.2</ele>
        <time>2022-05-25T13:40:43Z</time>
      </trkpt>
      <trkpt lat="49.92211" lon="1.94642">
        <ele>51.2</ele>
        <time>2022-05-25T13:40:45Z</time>
      </trkpt>
      <trkpt lat="49.92211" lon="1.94643">
        <ele>51.3</ele>
        <time>2022-05-25T13:40:46Z</time>
      </trkpt>
      <trkpt lat="49.9221" lon="1.94646">
        <ele>51.3</ele>
        <time>2022-05-25T13:40:47Z</time>
      </trkpt>
      <trkpt lat="49.92209" lon="1.94647">
        <ele>51.3</ele>
        <time>2022-05-25T13:40:48Z</time>
      </trkpt>
      <trkpt lat="49.92207" lon="1.94649">
        <ele>51.4</ele>
        <time>2022-05-25T13:40:49Z</time>
      </trkpt>
      <trkpt lat="49.92206" lon="1.9465">
        <ele>51.4</ele>
        <time>2022-05-25T13:40:50Z</time>
      </trkpt>
      <trkpt lat="49.92205" lon="1.94652">
        <ele>51.5</ele>
        <time>2022-05-25T13:40:51Z</time>
      </trkpt>
      <trkpt lat="49.92204" lon="1.94652">
        <ele>51.5</ele>
        <time>2022-05-25T13:40:52Z</time>
      </trkpt>
      <trkpt lat="49.92203" lon="1.94653">
        <ele>51.5</ele>
        <time>2022-05-25T13:40:53Z</time>
      </trkpt>
      <trkpt lat="49.92202" lon="1.94654">
        <ele>51.5</ele>
        <time>2022-05-25T13:40:54Z</time>
      </trkpt>
      <trkpt lat="49.92201" lon="1.94655">
        <ele>51.6</ele>
        <time>2022-05-25T13:40:56Z</time>
      </trkpt>
      <trkpt lat="49.92199" lon="1.94656">
        <ele>51.6</ele>
        <time>2022-05-25T13:40:57Z</time>
      </trkpt>
      <trkpt lat="49.92198" lon="1.94657">
        <ele>51.6</ele>
        <time>2022-05-25T13:40:58Z</time>
      </trkpt>
      <trkpt lat="49.92197" lon="1.94659">
        <ele>51.7</ele>
        <time>2022-05-25T13:40:59Z</time>
      </trkpt>
      <trkpt lat="49.92196" lon="1.9466">
        <ele>51.7</ele>
        <time>2022-05-25T13:41:00Z</time>
      </trkpt>
      <trkpt lat="49.92195" lon="1.94661">
        <ele>51.7</ele>
        <time>2022-05-25T13:41:02Z</time>
      </trkpt>
      <trkpt lat="49.92195" lon="1.94663">
        <ele>51.8</ele>
        <time>2022-05-25T13:41:03Z</time>
      </trkpt>
      <trkpt lat="49.92194" lon="1.94664">
        <ele>51.8</ele>
        <time>2022-05-25T13:41:04Z</time>
      </trkpt>
      <trkpt lat="49.92193" lon="1.94665">
        <ele>51.8</ele>
        <time>2022-05-25T13:41:05Z</time>
      </trkpt>
      <trkpt lat="49.92192" lon="1.94666">
        <ele>51.9</ele>
        <time>2022-05-25T13:41:06Z</time>
      </trkpt>
      <trkpt lat="49.9219" lon="1.94667">
        <ele>51.9</ele>
        <time>2022-05-25T13:41:07Z</time>
      </trkpt>
      <trkpt lat="49.92188" lon="1.94669">
        <ele>52</ele>
        <time>2022-05-25T13:41:08Z</time>
      </trkpt>
      <trkpt lat="49.92188" lon="1.9467">
        <ele>52.1</ele>
        <time>2022-05-25T13:41:09Z</time>
      </trkpt>
      <trkpt lat="49.92187" lon="1.9467">
        <ele>52.1</ele>
        <time>2022-05-25T13:41:10Z</time>
      </trkpt>
      <trkpt lat="49.92186" lon="1.94671">
        <ele>52.1</ele>
        <time>2022-05-25T13:41:11Z</time>
      </trkpt>
      <trkpt lat="49.92186" lon="1.94671">
        <ele>52.1</ele>
        <time>2022-05-25T13:41:13Z</time>
      </trkpt>
      <trkpt lat="49.92185" lon="1.94671">
        <ele>52.2</ele>
        <time>2022-05-25T13:41:14Z</time>
      </trkpt>
      <trkpt lat="49.92184" lon="1.94672">
        <ele>52.2</ele>
        <time>2022-05-25T13:41:15Z</time>
      </trkpt>
      <trkpt lat="49.92183" lon="1.94674">
        <ele>52.3</ele>
        <time>2022-05-25T13:41:16Z</time>
      </trkpt>
      <trkpt lat="49.92182" lon="1.94675">
        <ele>52.3</ele>
        <time>2022-05-25T13:41:17Z</time>
      </trkpt>
      <trkpt lat="49.9218" lon="1.94679">
        <ele>52.4</ele>
        <time>2022-05-25T13:41:18Z</time>
      </trkpt>
      <trkpt lat="49.9218" lon="1.9468">
        <ele>52.4</ele>
        <time>2022-05-25T13:41:19Z</time>
      </trkpt>
      <trkpt lat="49.92179" lon="1.94681">
        <ele>52.5</ele>
        <time>2022-05-25T13:41:20Z</time>
      </trkpt>
      <trkpt lat="49.92178" lon="1.94684">
        <ele>52.5</ele>
        <time>2022-05-25T13:41:21Z</time>
      </trkpt>
      <trkpt lat="49.92178" lon="1.94685">
        <ele>52.6</ele>
        <time>2022-05-25T13:41:23Z</time>
      </trkpt>
      <trkpt lat="49.92177" lon="1.94687">
        <ele>52.6</ele>
        <time>2022-05-25T13:41:24Z</time>
      </trkpt>
      <trkpt lat="49.92177" lon="1.94688">
        <ele>52.6</ele>
        <time>2022-05-25T13:41:25Z</time>
      </trkpt>
      <trkpt lat="49.92177" lon="1.9469">
        <ele>52.6</ele>
        <time>2022-05-25T13:41:26Z</time>
      </trkpt>
      <trkpt lat="49.92176" lon="1.94692">
        <ele>52.7</ele>
        <time>2022-05-25T13:41:27Z</time>
      </trkpt>
      <trkpt lat="49.92175" lon="1.94693">
        <ele>52.7</ele>
        <time>2022-05-25T13:41:28Z</time>
      </trkpt>
      <trkpt lat="49.92174" lon="1.94694">
        <ele>52.7</ele>
        <time>2022-05-25T13:41:30Z</time>
      </trkpt>
      <trkpt lat="49.92174" lon="1.94695">
        <ele>52.8</ele>
        <time>2022-05-25T13:41:31Z</time>
      </trkpt>
      <trkpt lat="49.92173" lon="1.94695">
        <ele>52.8</ele>
        <time>2022-05-25T13:41:32Z</time>
      </trkpt>
      <trkpt lat="49.92172" lon="1.94697">
        <ele>52.8</ele>
        <time>2022-05-25T13:41:33Z</time>
      </trkpt>
      <trkpt lat="49.92171" lon="1.94699">
        <ele>52.9</ele>
        <time>2022-05-25T13:41:34Z</time>
      </trkpt>
      <trkpt lat="49.92169" lon="1.94701">
        <ele>52.9</ele>
        <time>2022-05-25T13:41:36Z</time>
      </trkpt>
      <trkpt lat="49.92169" lon="1.94702">
        <ele>53</ele>
        <time>2022-05-25T13:41:37Z</time>
      </trkpt>
      <trkpt lat="49.92168" lon="1.94703">
        <ele>53</ele>
        <time>2022-05-25T13:41:38Z</time>
      </trkpt>
      <trkpt lat="49.92167" lon="1.94705">
        <ele>53</ele>
        <time>2022-05-25T13:41:39Z</time>
      </trkpt>
      <trkpt lat="49.92166" lon="1.94706">
        <ele>53.1</ele>
        <time>2022-05-25T13:41:40Z</time>
      </trkpt>
      <trkpt lat="49.92165" lon="1.94708">
        <ele>53.2</ele>
        <time>2022-05-25T13:41:42Z</time>
      </trkpt>
      <trkpt lat="49.92164" lon="1.94709">
        <ele>53.2</ele>
        <time>2022-05-25T13:41:43Z</time>
      </trkpt>
      <trkpt lat="49.92162" lon="1.94711">
        <ele>53.3</ele>
        <time>2022-05-25T13:41:44Z</time>
      </trkpt>
      <trkpt lat="49.92159" lon="1.94714">
        <ele>53.5</ele>
        <time>2022-05-25T13:41:46Z</time>
      </trkpt>
      <trkpt lat="49.92158" lon="1.94714">
        <ele>53.5</ele>
        <time>2022-05-25T13:41:47Z</time>
      </trkpt>
      <trkpt lat="49.92157" lon="1.94715">
        <ele>53.5</ele>
        <time>2022-05-25T13:41:49Z</time>
      </trkpt>
      <trkpt lat="49.92156" lon="1.94715">
        <ele>53.6</ele>
        <time>2022-05-25T13:41:50Z</time>
      </trkpt>
      <trkpt lat="49.92154" lon="1.94717">
        <ele>53.7</ele>
        <time>2022-05-25T13:41:51Z</time>
      </trkpt>
      <trkpt lat="49.92153" lon="1.94718">
        <ele>53.7</ele>
        <time>2022-05-25T13:41:52Z</time>
      </trkpt>
      <trkpt lat="49.92153" lon="1.94719">
        <ele>53.7</ele>
        <time>2022-05-25T13:41:53Z</time>
      </trkpt>
      <trkpt lat="49.92152" lon="1.9472">
        <ele>53.8</ele>
        <time>2022-05-25T13:41:54Z</time>
      </trkpt>
      <trkpt lat="49.92151" lon="1.94722">
        <ele>53.9</ele>
        <time>2022-05-25T13:41:55Z</time>
      </trkpt>
      <trkpt lat="49.9215" lon="1.94723">
        <ele>53.9</ele>
        <time>2022-05-25T13:41:56Z</time>
      </trkpt>
      <trkpt lat="49.92149" lon="1.94724">
        <ele>54</ele>
        <time>2022-05-25T13:41:57Z</time>
      </trkpt>
      <trkpt lat="49.92148" lon="1.94725">
        <ele>54</ele>
        <time>2022-05-25T13:41:59Z</time>
      </trkpt>
      <trkpt lat="49.92147" lon="1.94726">
        <ele>54.1</ele>
        <time>2022-05-25T13:42:00Z</time>
      </trkpt>
      <trkpt lat="49.92146" lon="1.94728">
        <ele>54.1</ele>
        <time>2022-05-25T13:42:01Z</time>
      </trkpt>
      <trkpt lat="49.92145" lon="1.94729">
        <ele>54.2</ele>
        <time>2022-05-25T13:42:02Z</time>
      </trkpt>
      <trkpt lat="49.92145" lon="1.94729">
        <ele>54.2</ele>
        <time>2022-05-25T13:42:03Z</time>
      </trkpt>
      <trkpt lat="49.92143" lon="1.94731">
        <ele>54.3</ele>
        <time>2022-05-25T13:42:05Z</time>
      </trkpt>
      <trkpt lat="49.92142" lon="1.94732">
        <ele>54.3</ele>
        <time>2022-05-25T13:42:06Z</time>
      </trkpt>
      <trkpt lat="49.92141" lon="1.94733">
        <ele>54.3</ele>
        <time>2022-05-25T13:42:07Z</time>
      </trkpt>
      <trkpt lat="49.9214" lon="1.94735">
        <ele>54.4</ele>
        <time>2022-05-25T13:42:08Z</time>
      </trkpt>
      <trkpt lat="49.92139" lon="1.94736">
        <ele>54.5</ele>
        <time>2022-05-25T13:42:09Z</time>
      </trkpt>
      <trkpt lat="49.92139" lon="1.94736">
        <ele>54.5</ele>
        <time>2022-05-25T13:42:10Z</time>
      </trkpt>
      <trkpt lat="49.92137" lon="1.94738">
        <ele>54.6</ele>
        <time>2022-05-25T13:42:11Z</time>
      </trkpt>
      <trkpt lat="49.92136" lon="1.94739">
        <ele>54.6</ele>
        <time>2022-05-25T13:42:12Z</time>
      </trkpt>
      <trkpt lat="49.92136" lon="1.9474">
        <ele>54.6</ele>
        <time>2022-05-25T13:42:13Z</time>
      </trkpt>
      <trkpt lat="49.92134" lon="1.94742">
        <ele>54.7</ele>
        <time>2022-05-25T13:42:14Z</time>
      </trkpt>
      <trkpt lat="49.92133" lon="1.94743">
        <ele>54.8</ele>
        <time>2022-05-25T13:42:16Z</time>
      </trkpt>
      <trkpt lat="49.92132" lon="1.94743">
        <ele>54.8</ele>
        <time>2022-05-25T13:42:17Z</time>
      </trkpt>
      <trkpt lat="49.92131" lon="1.94744">
        <ele>54.9</ele>
        <time>2022-05-25T13:42:18Z</time>
      </trkpt>
      <trkpt lat="49.92129" lon="1.94745">
        <ele>54.9</ele>
        <time>2022-05-25T13:42:19Z</time>
      </trkpt>
      <trkpt lat="49.92128" lon="1.94747">
        <ele>55</ele>
        <time>2022-05-25T13:42:20Z</time>
      </trkpt>
      <trkpt lat="49.92126" lon="1.94748">
        <ele>55.1</ele>
        <time>2022-05-25T13:42:21Z</time>
      </trkpt>
      <trkpt lat="49.92125" lon="1.94749">
        <ele>55.1</ele>
        <time>2022-05-25T13:42:22Z</time>
      </trkpt>
      <trkpt lat="49.92124" lon="1.9475">
        <ele>55.2</ele>
        <time>2022-05-25T13:42:23Z</time>
      </trkpt>
      <trkpt lat="49.92121" lon="1.94752">
        <ele>55.3</ele>
        <time>2022-05-25T13:42:24Z</time>
      </trkpt>
      <trkpt lat="49.9212" lon="1.94752">
        <ele>55.4</ele>
        <time>2022-05-25T13:42:25Z</time>
      </trkpt>
      <trkpt lat="49.92118" lon="1.94754">
        <ele>55.4</ele>
        <time>2022-05-25T13:42:26Z</time>
      </trkpt>
      <trkpt lat="49.92117" lon="1.94755">
        <ele>55.5</ele>
        <time>2022-05-25T13:42:27Z</time>
      </trkpt>
      <trkpt lat="49.92115" lon="1.94757">
        <ele>55.6</ele>
        <time>2022-05-25T13:42:29Z</time>
      </trkpt>
      <trkpt lat="49.92114" lon="1.94757">
        <ele>55.6</ele>
        <time>2022-05-25T13:42:30Z</time>
      </trkpt>
      <trkpt lat="49.92114" lon="1.94758">
        <ele>55.6</ele>
        <time>2022-05-25T13:42:31Z</time>
      </trkpt>
      <trkpt lat="49.92113" lon="1.94759">
        <ele>55.7</ele>
        <time>2022-05-25T13:42:32Z</time>
      </trkpt>
      <trkpt lat="49.92112" lon="1.9476">
        <ele>55.7</ele>
        <time>2022-05-25T13:42:33Z</time>
      </trkpt>
      <trkpt lat="49.92111" lon="1.94761">
        <ele>55.7</ele>
        <time>2022-05-25T13:42:34Z</time>
      </trkpt>
      <trkpt lat="49.92111" lon="1.94761">
        <ele>55.7</ele>
        <time>2022-05-25T13:42:35Z</time>
      </trkpt>
      <trkpt lat="49.9211" lon="1.94762">
        <ele>55.8</ele>
        <time>2022-05-25T13:42:36Z</time>
      </trkpt>
      <trkpt lat="49.9211" lon="1.94764">
        <ele>55.8</ele>
        <time>2022-05-25T13:42:38Z</time>
      </trkpt>
      <trkpt lat="49.92109" lon="1.94765">
        <ele>55.8</ele>
        <time>2022-05-25T13:42:39Z</time>
      </trkpt>
      <trkpt lat="49.92108" lon="1.94767">
        <ele>55.9</ele>
        <time>2022-05-25T13:42:40Z</time>
      </trkpt>
      <trkpt lat="49.92107" lon="1.9477">
        <ele>55.9</ele>
        <time>2022-05-25T13:42:41Z</time>
      </trkpt>
      <trkpt lat="49.92106" lon="1.94771">
        <ele>56</ele>
        <time>2022-05-25T13:42:42Z</time>
      </trkpt>
      <trkpt lat="49.92106" lon="1.94772">
        <ele>56</ele>
        <time>2022-05-25T13:42:43Z</time>
      </trkpt>
      <trkpt lat="49.92104" lon="1.94775">
        <ele>56</ele>
        <time>2022-05-25T13:42:44Z</time>
      </trkpt>
      <trkpt lat="49.92104" lon="1.94776">
        <ele>56</ele>
        <time>2022-05-25T13:42:45Z</time>
      </trkpt>
      <trkpt lat="49.92103" lon="1.94777">
        <ele>56</ele>
        <time>2022-05-25T13:42:46Z</time>
      </trkpt>
      <trkpt lat="49.92102" lon="1.94778">
        <ele>56</ele>
        <time>2022-05-25T13:42:47Z</time>
      </trkpt>
      <trkpt lat="49.92102" lon="1.9478">
        <ele>56.1</ele>
        <time>2022-05-25T13:42:48Z</time>
      </trkpt>
      <trkpt lat="49.921" lon="1.94782">
        <ele>56.1</ele>
        <time>2022-05-25T13:42:50Z</time>
      </trkpt>
      <trkpt lat="49.92099" lon="1.94784">
        <ele>56.1</ele>
        <time>2022-05-25T13:42:51Z</time>
      </trkpt>
      <trkpt lat="49.92098" lon="1.94786">
        <ele>56.1</ele>
        <time>2022-05-25T13:42:52Z</time>
      </trkpt>
      <trkpt lat="49.92097" lon="1.94788">
        <ele>56.2</ele>
        <time>2022-05-25T13:42:53Z</time>
      </trkpt>
      <trkpt lat="49.92096" lon="1.94789">
        <ele>56.2</ele>
        <time>2022-05-25T13:42:54Z</time>
      </trkpt>
      <trkpt lat="49.92095" lon="1.94791">
        <ele>56.2</ele>
        <time>2022-05-25T13:42:55Z</time>
      </trkpt>
      <trkpt lat="49.92094" lon="1.94792">
        <ele>56.2</ele>
        <time>2022-05-25T13:42:56Z</time>
      </trkpt>
      <trkpt lat="49.92094" lon="1.94793">
        <ele>56.2</ele>
        <time>2022-05-25T13:42:57Z</time>
      </trkpt>
      <trkpt lat="49.92094" lon="1.94794">
        <ele>56.2</ele>
        <time>2022-05-25T13:42:58Z</time>
      </trkpt>
      <trkpt lat="49.92093" lon="1.94795">
        <ele>56.2</ele>
        <time>2022-05-25T13:43:00Z</time>
      </trkpt>
      <trkpt lat="49.92093" lon="1.94797">
        <ele>56.2</ele>
        <time>2022-05-25T13:43:01Z</time>
      </trkpt>
      <trkpt lat="49.92092" lon="1.94799">
        <ele>56.2</ele>
        <time>2022-05-25T13:43:02Z</time>
      </trkpt>
      <trkpt lat="49.92091" lon="1.94801">
        <ele>56.3</ele>
        <time>2022-05-25T13:43:03Z</time>
      </trkpt>
      <trkpt lat="49.9209" lon="1.94803">
        <ele>56.3</ele>
        <time>2022-05-25T13:43:04Z</time>
      </trkpt>
      <trkpt lat="49.92089" lon="1.94806">
        <ele>56.3</ele>
        <time>2022-05-25T13:43:05Z</time>
      </trkpt>
      <trkpt lat="49.92089" lon="1.94807">
        <ele>56.3</ele>
        <time>2022-05-25T13:43:06Z</time>
      </trkpt>
      <trkpt lat="49.92088" lon="1.94808">
        <ele>56.3</ele>
        <time>2022-05-25T13:43:07Z</time>
      </trkpt>
      <trkpt lat="49.92087" lon="1.9481">
        <ele>56.3</ele>
        <time>2022-05-25T13:43:08Z</time>
      </trkpt>
      <trkpt lat="49.92086" lon="1.94811">
        <ele>56.3</ele>
        <time>2022-05-25T13:43:09Z</time>
      </trkpt>
      <trkpt lat="49.92086" lon="1.94812">
        <ele>56.3</ele>
        <time>2022-05-25T13:43:11Z</time>
      </trkpt>
      <trkpt lat="49.92085" lon="1.94813">
        <ele>56.3</ele>
        <time>2022-05-25T13:43:12Z</time>
      </trkpt>
      <trkpt lat="49.92085" lon="1.94814">
        <ele>56.3</ele>
        <time>2022-05-25T13:43:13Z</time>
      </trkpt>
      <trkpt lat="49.92084" lon="1.94816">
        <ele>56.3</ele>
        <time>2022-05-25T13:43:14Z</time>
      </trkpt>
      <trkpt lat="49.92084" lon="1.94817">
        <ele>56.3</ele>
        <time>2022-05-25T13:43:15Z</time>
      </trkpt>
      <trkpt lat="49.92083" lon="1.94818">
        <ele>56.3</ele>
        <time>2022-05-25T13:43:16Z</time>
      </trkpt>
      <trkpt lat="49.92083" lon="1.9482">
        <ele>56.4</ele>
        <time>2022-05-25T13:43:17Z</time>
      </trkpt>
      <trkpt lat="49.92083" lon="1.94822">
        <ele>56.4</ele>
        <time>2022-05-25T13:43:19Z</time>
      </trkpt>
      <trkpt lat="49.92082" lon="1.94823">
        <ele>56.4</ele>
        <time>2022-05-25T13:43:20Z</time>
      </trkpt>
      <trkpt lat="49.92082" lon="1.94824">
        <ele>56.4</ele>
        <time>2022-05-25T13:43:21Z</time>
      </trkpt>
      <trkpt lat="49.92081" lon="1.94826">
        <ele>56.4</ele>
        <time>2022-05-25T13:43:22Z</time>
      </trkpt>
      <trkpt lat="49.9208" lon="1.94828">
        <ele>56.4</ele>
        <time>2022-05-25T13:43:23Z</time>
      </trkpt>
      <trkpt lat="49.92079" lon="1.94829">
        <ele>56.4</ele>
        <time>2022-05-25T13:43:24Z</time>
      </trkpt>
      <trkpt lat="49.92078" lon="1.94832">
        <ele>56.5</ele>
        <time>2022-05-25T13:43:25Z</time>
      </trkpt>
      <trkpt lat="49.92078" lon="1.94833">
        <ele>56.5</ele>
        <time>2022-05-25T13:43:26Z</time>
      </trkpt>
      <trkpt lat="49.92077" lon="1.94834">
        <ele>56.5</ele>
        <time>2022-05-25T13:43:27Z</time>
      </trkpt>
      <trkpt lat="49.92076" lon="1.94837">
        <ele>56.6</ele>
        <time>2022-05-25T13:43:29Z</time>
      </trkpt>
      <trkpt lat="49.92075" lon="1.94838">
        <ele>56.6</ele>
        <time>2022-05-25T13:43:30Z</time>
      </trkpt>
      <trkpt lat="49.92075" lon="1.9484">
        <ele>56.7</ele>
        <time>2022-05-25T13:43:31Z</time>
      </trkpt>
      <trkpt lat="49.92074" lon="1.94841">
        <ele>56.7</ele>
        <time>2022-05-25T13:43:32Z</time>
      </trkpt>
      <trkpt lat="49.92073" lon="1.94844">
        <ele>56.7</ele>
        <time>2022-05-25T13:43:33Z</time>
      </trkpt>
      <trkpt lat="49.92072" lon="1.94846">
        <ele>56.8</ele>
        <time>2022-05-25T13:43:35Z</time>
      </trkpt>
      <trkpt lat="49.92071" lon="1.94848">
        <ele>56.8</ele>
        <time>2022-05-25T13:43:36Z</time>
      </trkpt>
      <trkpt lat="49.92071" lon="1.94849">
        <ele>56.8</ele>
        <time>2022-05-25T13:43:37Z</time>
      </trkpt>
      <trkpt lat="49.9207" lon="1.94851">
        <ele>56.9</ele>
        <time>2022-05-25T13:43:38Z</time>
      </trkpt>
      <trkpt lat="49.92069" lon="1.94853">
        <ele>56.9</ele>
        <time>2022-05-25T13:43:39Z</time>
      </trkpt>
      <trkpt lat="49.92068" lon="1.94855">
        <ele>57</ele>
        <time>2022-05-25T13:43:40Z</time>
      </trkpt>
      <trkpt lat="49.92067" lon="1.94856">
        <ele>57</ele>
        <time>2022-05-25T13:43:41Z</time>
      </trkpt>
      <trkpt lat="49.92067" lon="1.94857">
        <ele>57</ele>
        <time>2022-05-25T13:43:42Z</time>
      </trkpt>
      <trkpt lat="49.92066" lon="1.9486">
        <ele>57</ele>
        <time>2022-05-25T13:43:43Z</time>
      </trkpt>
      <trkpt lat="49.92065" lon="1.94861">
        <ele>57.1</ele>
        <time>2022-05-25T13:43:44Z</time>
      </trkpt>
      <trkpt lat="49.92065" lon="1.94862">
        <ele>57.1</ele>
        <time>2022-05-25T13:43:46Z</time>
      </trkpt>
      <trkpt lat="49.92064" lon="1.94865">
        <ele>57.1</ele>
        <time>2022-05-25T13:43:47Z</time>
      </trkpt>
      <trkpt lat="49.92063" lon="1.94868">
        <ele>57.2</ele>
        <time>2022-05-25T13:43:49Z</time>
      </trkpt>
      <trkpt lat="49.92062" lon="1.9487">
        <ele>57.2</ele>
        <time>2022-05-25T13:43:50Z</time>
      </trkpt>
      <trkpt lat="49.92061" lon="1.94872">
        <ele>57.2</ele>
        <time>2022-05-25T13:43:51Z</time>
      </trkpt>
      <trkpt lat="49.9206" lon="1.94875">
        <ele>57.3</ele>
        <time>2022-05-25T13:43:52Z</time>
      </trkpt>
      <trkpt lat="49.92059" lon="1.94877">
        <ele>57.3</ele>
        <time>2022-05-25T13:43:53Z</time>
      </trkpt>
      <trkpt lat="49.92058" lon="1.94879">
        <ele>57.3</ele>
        <time>2022-05-25T13:43:54Z</time>
      </trkpt>
      <trkpt lat="49.92057" lon="1.94881">
        <ele>57.4</ele>
        <time>2022-05-25T13:43:55Z</time>
      </trkpt>
      <trkpt lat="49.92057" lon="1.94882">
        <ele>57.4</ele>
        <time>2022-05-25T13:43:56Z</time>
      </trkpt>
      <trkpt lat="49.92056" lon="1.94883">
        <ele>57.4</ele>
        <time>2022-05-25T13:43:58Z</time>
      </trkpt>
      <trkpt lat="49.92055" lon="1.94885">
        <ele>57.4</ele>
        <time>2022-05-25T13:43:59Z</time>
      </trkpt>
      <trkpt lat="49.92055" lon="1.94886">
        <ele>57.4</ele>
        <time>2022-05-25T13:44:00Z</time>
      </trkpt>
      <trkpt lat="49.92054" lon="1.94889">
        <ele>57.5</ele>
        <time>2022-05-25T13:44:01Z</time>
      </trkpt>
      <trkpt lat="49.92053" lon="1.9489">
        <ele>57.5</ele>
        <time>2022-05-25T13:44:02Z</time>
      </trkpt>
      <trkpt lat="49.92053" lon="1.94892">
        <ele>57.5</ele>
        <time>2022-05-25T13:44:03Z</time>
      </trkpt>
      <trkpt lat="49.92052" lon="1.94893">
        <ele>57.6</ele>
        <time>2022-05-25T13:44:05Z</time>
      </trkpt>
      <trkpt lat="49.92051" lon="1.94894">
        <ele>57.6</ele>
        <time>2022-05-25T13:44:06Z</time>
      </trkpt>
      <trkpt lat="49.9205" lon="1.94896">
        <ele>57.6</ele>
        <time>2022-05-25T13:44:07Z</time>
      </trkpt>
      <trkpt lat="49.92049" lon="1.94897">
        <ele>57.7</ele>
        <time>2022-05-25T13:44:08Z</time>
      </trkpt>
      <trkpt lat="49.92049" lon="1.94898">
        <ele>57.7</ele>
        <time>2022-05-25T13:44:09Z</time>
      </trkpt>
      <trkpt lat="49.92048" lon="1.94899">
        <ele>57.7</ele>
        <time>2022-05-25T13:44:10Z</time>
      </trkpt>
      <trkpt lat="49.92047" lon="1.94902">
        <ele>57.8</ele>
        <time>2022-05-25T13:44:11Z</time>
      </trkpt>
      <trkpt lat="49.92047" lon="1.94903">
        <ele>57.8</ele>
        <time>2022-05-25T13:44:12Z</time>
      </trkpt>
      <trkpt lat="49.92046" lon="1.94904">
        <ele>57.8</ele>
        <time>2022-05-25T13:44:13Z</time>
      </trkpt>
      <trkpt lat="49.92046" lon="1.94906">
        <ele>57.9</ele>
        <time>2022-05-25T13:44:14Z</time>
      </trkpt>
      <trkpt lat="49.92045" lon="1.94907">
        <ele>57.9</ele>
        <time>2022-05-25T13:44:16Z</time>
      </trkpt>
      <trkpt lat="49.92044" lon="1.94909">
        <ele>57.9</ele>
        <time>2022-05-25T13:44:17Z</time>
      </trkpt>
      <trkpt lat="49.92043" lon="1.94912">
        <ele>58</ele>
        <time>2022-05-25T13:44:18Z</time>
      </trkpt>
      <trkpt lat="49.92043" lon="1.94913">
        <ele>58</ele>
        <time>2022-05-25T13:44:19Z</time>
      </trkpt>
      <trkpt lat="49.92042" lon="1.94914">
        <ele>58.1</ele>
        <time>2022-05-25T13:44:21Z</time>
      </trkpt>
      <trkpt lat="49.92042" lon="1.94916">
        <ele>58.1</ele>
        <time>2022-05-25T13:44:22Z</time>
      </trkpt>
      <trkpt lat="49.92041" lon="1.94917">
        <ele>58.1</ele>
        <time>2022-05-25T13:44:23Z</time>
      </trkpt>
      <trkpt lat="49.9204" lon="1.9492">
        <ele>58.2</ele>
        <time>2022-05-25T13:44:24Z</time>
      </trkpt>
      <trkpt lat="49.9204" lon="1.94921">
        <ele>58.2</ele>
        <time>2022-05-25T13:44:25Z</time>
      </trkpt>
      <trkpt lat="49.92039" lon="1.94922">
        <ele>58.2</ele>
        <time>2022-05-25T13:44:26Z</time>
      </trkpt>
      <trkpt lat="49.92039" lon="1.94924">
        <ele>58.2</ele>
        <time>2022-05-25T13:44:27Z</time>
      </trkpt>
      <trkpt lat="49.92038" lon="1.94926">
        <ele>58.3</ele>
        <time>2022-05-25T13:44:28Z</time>
      </trkpt>
      <trkpt lat="49.92037" lon="1.94928">
        <ele>58.3</ele>
        <time>2022-05-25T13:44:30Z</time>
      </trkpt>
      <trkpt lat="49.92037" lon="1.9493">
        <ele>58.3</ele>
        <time>2022-05-25T13:44:32Z</time>
      </trkpt>
      <trkpt lat="49.92036" lon="1.94931">
        <ele>58.3</ele>
        <time>2022-05-25T13:44:33Z</time>
      </trkpt>
      <trkpt lat="49.92035" lon="1.94933">
        <ele>58.4</ele>
        <time>2022-05-25T13:44:34Z</time>
      </trkpt>
      <trkpt lat="49.92034" lon="1.94935">
        <ele>58.4</ele>
        <time>2022-05-25T13:44:35Z</time>
      </trkpt>
      <trkpt lat="49.92033" lon="1.94937">
        <ele>58.4</ele>
        <time>2022-05-25T13:44:36Z</time>
      </trkpt>
      <trkpt lat="49.92033" lon="1.94939">
        <ele>58.4</ele>
        <time>2022-05-25T13:44:37Z</time>
      </trkpt>
      <trkpt lat="49.92031" lon="1.94941">
        <ele>58.5</ele>
        <time>2022-05-25T13:44:38Z</time>
      </trkpt>
      <trkpt lat="49.92031" lon="1.94942">
        <ele>58.5</ele>
        <time>2022-05-25T13:44:39Z</time>
      </trkpt>
      <trkpt lat="49.9203" lon="1.94943">
        <ele>58.5</ele>
        <time>2022-05-25T13:44:40Z</time>
      </trkpt>
      <trkpt lat="49.92029" lon="1.94945">
        <ele>58.5</ele>
        <time>2022-05-25T13:44:42Z</time>
      </trkpt>
      <trkpt lat="49.92028" lon="1.94946">
        <ele>58.5</ele>
        <time>2022-05-25T13:44:43Z</time>
      </trkpt>
      <trkpt lat="49.92027" lon="1.94948">
        <ele>58.6</ele>
        <time>2022-05-25T13:44:44Z</time>
      </trkpt>
      <trkpt lat="49.92026" lon="1.9495">
        <ele>58.6</ele>
        <time>2022-05-25T13:44:45Z</time>
      </trkpt>
      <trkpt lat="49.92025" lon="1.94951">
        <ele>58.6</ele>
        <time>2022-05-25T13:44:46Z</time>
      </trkpt>
      <trkpt lat="49.92024" lon="1.94953">
        <ele>58.6</ele>
        <time>2022-05-25T13:44:47Z</time>
      </trkpt>
      <trkpt lat="49.92023" lon="1.94955">
        <ele>58.7</ele>
        <time>2022-05-25T13:44:48Z</time>
      </trkpt>
      <trkpt lat="49.92022" lon="1.94956">
        <ele>58.7</ele>
        <time>2022-05-25T13:44:49Z</time>
      </trkpt>
      <trkpt lat="49.92021" lon="1.94959">
        <ele>58.7</ele>
        <time>2022-05-25T13:44:50Z</time>
      </trkpt>
      <trkpt lat="49.92021" lon="1.94961">
        <ele>58.7</ele>
        <time>2022-05-25T13:44:51Z</time>
      </trkpt>
      <trkpt lat="49.9202" lon="1.94962">
        <ele>58.7</ele>
        <time>2022-05-25T13:44:53Z</time>
      </trkpt>
      <trkpt lat="49.9202" lon="1.94963">
        <ele>58.8</ele>
        <time>2022-05-25T13:44:54Z</time>
      </trkpt>
      <trkpt lat="49.92019" lon="1.94964">
        <ele>58.8</ele>
        <time>2022-05-25T13:44:55Z</time>
      </trkpt>
      <trkpt lat="49.92019" lon="1.94966">
        <ele>58.8</ele>
        <time>2022-05-25T13:44:56Z</time>
      </trkpt>
      <trkpt lat="49.92017" lon="1.94969">
        <ele>58.8</ele>
        <time>2022-05-25T13:44:57Z</time>
      </trkpt>
      <trkpt lat="49.92017" lon="1.9497">
        <ele>58.8</ele>
        <time>2022-05-25T13:44:59Z</time>
      </trkpt>
      <trkpt lat="49.92016" lon="1.94972">
        <ele>58.9</ele>
        <time>2022-05-25T13:45:00Z</time>
      </trkpt>
      <trkpt lat="49.92016" lon="1.94973">
        <ele>58.9</ele>
        <time>2022-05-25T13:45:01Z</time>
      </trkpt>
      <trkpt lat="49.92015" lon="1.94975">
        <ele>58.9</ele>
        <time>2022-05-25T13:45:02Z</time>
      </trkpt>
      <trkpt lat="49.92014" lon="1.94977">
        <ele>58.9</ele>
        <time>2022-05-25T13:45:03Z</time>
      </trkpt>
      <trkpt lat="49.92013" lon="1.94979">
        <ele>58.9</ele>
        <time>2022-05-25T13:45:04Z</time>
      </trkpt>
      <trkpt lat="49.92013" lon="1.9498">
        <ele>58.9</ele>
        <time>2022-05-25T13:45:06Z</time>
      </trkpt>
      <trkpt lat="49.92012" lon="1.94982">
        <ele>59</ele>
        <time>2022-05-25T13:45:07Z</time>
      </trkpt>
      <trkpt lat="49.92012" lon="1.94983">
        <ele>59</ele>
        <time>2022-05-25T13:45:08Z</time>
      </trkpt>
      <trkpt lat="49.92011" lon="1.94986">
        <ele>59</ele>
        <time>2022-05-25T13:45:09Z</time>
      </trkpt>
      <trkpt lat="49.92011" lon="1.94987">
        <ele>59</ele>
        <time>2022-05-25T13:45:10Z</time>
      </trkpt>
      <trkpt lat="49.9201" lon="1.94991">
        <ele>59.1</ele>
        <time>2022-05-25T13:45:11Z</time>
      </trkpt>
      <trkpt lat="49.92009" lon="1.94992">
        <ele>59.1</ele>
        <time>2022-05-25T13:45:12Z</time>
      </trkpt>
      <trkpt lat="49.92009" lon="1.94994">
        <ele>59.1</ele>
        <time>2022-05-25T13:45:13Z</time>
      </trkpt>
      <trkpt lat="49.92008" lon="1.94995">
        <ele>59.1</ele>
        <time>2022-05-25T13:45:14Z</time>
      </trkpt>
      <trkpt lat="49.92008" lon="1.94996">
        <ele>59.1</ele>
        <time>2022-05-25T13:45:15Z</time>
      </trkpt>
      <trkpt lat="49.92007" lon="1.94998">
        <ele>59.2</ele>
        <time>2022-05-25T13:45:16Z</time>
      </trkpt>
      <trkpt lat="49.92006" lon="1.94999">
        <ele>59.2</ele>
        <time>2022-05-25T13:45:18Z</time>
      </trkpt>
      <trkpt lat="49.92005" lon="1.95">
        <ele>59.2</ele>
        <time>2022-05-25T13:45:19Z</time>
      </trkpt>
      <trkpt lat="49.92004" lon="1.95001">
        <ele>59.2</ele>
        <time>2022-05-25T13:45:20Z</time>
      </trkpt>
      <trkpt lat="49.92003" lon="1.95004">
        <ele>59.3</ele>
        <time>2022-05-25T13:45:21Z</time>
      </trkpt>
      <trkpt lat="49.92003" lon="1.95005">
        <ele>59.3</ele>
        <time>2022-05-25T13:45:22Z</time>
      </trkpt>
      <trkpt lat="49.92002" lon="1.95007">
        <ele>59.3</ele>
        <time>2022-05-25T13:45:23Z</time>
      </trkpt>
      <trkpt lat="49.92002" lon="1.95008">
        <ele>59.4</ele>
        <time>2022-05-25T13:45:24Z</time>
      </trkpt>
      <trkpt lat="49.92001" lon="1.95009">
        <ele>59.4</ele>
        <time>2022-05-25T13:45:25Z</time>
      </trkpt>
      <trkpt lat="49.92" lon="1.95011">
        <ele>59.4</ele>
        <time>2022-05-25T13:45:26Z</time>
      </trkpt>
      <trkpt lat="49.92" lon="1.95013">
        <ele>59.5</ele>
        <time>2022-05-25T13:45:27Z</time>
      </trkpt>
      <trkpt lat="49.91999" lon="1.95014">
        <ele>59.5</ele>
        <time>2022-05-25T13:45:29Z</time>
      </trkpt>
      <trkpt lat="49.91999" lon="1.95016">
        <ele>59.5</ele>
        <time>2022-05-25T13:45:30Z</time>
      </trkpt>
      <trkpt lat="49.91997" lon="1.95018">
        <ele>59.5</ele>
        <time>2022-05-25T13:45:31Z</time>
      </trkpt>
      <trkpt lat="49.91997" lon="1.95019">
        <ele>59.6</ele>
        <time>2022-05-25T13:45:32Z</time>
      </trkpt>
      <trkpt lat="49.91996" lon="1.9502">
        <ele>59.6</ele>
        <time>2022-05-25T13:45:33Z</time>
      </trkpt>
      <trkpt lat="49.91996" lon="1.95021">
        <ele>59.6</ele>
        <time>2022-05-25T13:45:34Z</time>
      </trkpt>
      <trkpt lat="49.91995" lon="1.95023">
        <ele>59.6</ele>
        <time>2022-05-25T13:45:35Z</time>
      </trkpt>
      <trkpt lat="49.91994" lon="1.95024">
        <ele>59.6</ele>
        <time>2022-05-25T13:45:36Z</time>
      </trkpt>
      <trkpt lat="49.91992" lon="1.95026">
        <ele>59.7</ele>
        <time>2022-05-25T13:45:37Z</time>
      </trkpt>
      <trkpt lat="49.91992" lon="1.95027">
        <ele>59.7</ele>
        <time>2022-05-25T13:45:39Z</time>
      </trkpt>
      <trkpt lat="49.91991" lon="1.95028">
        <ele>59.7</ele>
        <time>2022-05-25T13:45:40Z</time>
      </trkpt>
      <trkpt lat="49.9199" lon="1.95029">
        <ele>59.7</ele>
        <time>2022-05-25T13:45:41Z</time>
      </trkpt>
      <trkpt lat="49.91989" lon="1.95031">
        <ele>59.7</ele>
        <time>2022-05-25T13:45:42Z</time>
      </trkpt>
      <trkpt lat="49.91988" lon="1.95032">
        <ele>59.7</ele>
        <time>2022-05-25T13:45:43Z</time>
      </trkpt>
      <trkpt lat="49.91987" lon="1.95033">
        <ele>59.7</ele>
        <time>2022-05-25T13:45:44Z</time>
      </trkpt>
      <trkpt lat="49.91985" lon="1.95036">
        <ele>59.8</ele>
        <time>2022-05-25T13:45:45Z</time>
      </trkpt>
      <trkpt lat="49.91984" lon="1.95037">
        <ele>59.8</ele>
        <time>2022-05-25T13:45:46Z</time>
      </trkpt>
      <trkpt lat="49.91983" lon="1.95037">
        <ele>59.8</ele>
        <time>2022-05-25T13:45:48Z</time>
      </trkpt>
      <trkpt lat="49.91982" lon="1.95038">
        <ele>59.8</ele>
        <time>2022-05-25T13:45:49Z</time>
      </trkpt>
      <trkpt lat="49.91981" lon="1.95039">
        <ele>59.8</ele>
        <time>2022-05-25T13:45:50Z</time>
      </trkpt>
      <trkpt lat="49.91981" lon="1.9504">
        <ele>59.8</ele>
        <time>2022-05-25T13:45:51Z</time>
      </trkpt>
      <trkpt lat="49.91979" lon="1.95042">
        <ele>59.9</ele>
        <time>2022-05-25T13:45:52Z</time>
      </trkpt>
      <trkpt lat="49.91978" lon="1.95043">
        <ele>59.9</ele>
        <time>2022-05-25T13:45:53Z</time>
      </trkpt>
      <trkpt lat="49.91977" lon="1.95044">
        <ele>59.9</ele>
        <time>2022-05-25T13:45:54Z</time>
      </trkpt>
      <trkpt lat="49.91976" lon="1.95046">
        <ele>60</ele>
        <time>2022-05-25T13:45:55Z</time>
      </trkpt>
      <trkpt lat="49.91975" lon="1.95046">
        <ele>60</ele>
        <time>2022-05-25T13:45:57Z</time>
      </trkpt>
      <trkpt lat="49.91974" lon="1.95047">
        <ele>60</ele>
        <time>2022-05-25T13:45:58Z</time>
      </trkpt>
      <trkpt lat="49.91973" lon="1.95048">
        <ele>60</ele>
        <time>2022-05-25T13:45:59Z</time>
      </trkpt>
      <trkpt lat="49.91972" lon="1.95049">
        <ele>60</ele>
        <time>2022-05-25T13:46:00Z</time>
      </trkpt>
      <trkpt lat="49.91971" lon="1.9505">
        <ele>60.1</ele>
        <time>2022-05-25T13:46:01Z</time>
      </trkpt>
      <trkpt lat="49.9197" lon="1.95052">
        <ele>60.1</ele>
        <time>2022-05-25T13:46:02Z</time>
      </trkpt>
      <trkpt lat="49.91969" lon="1.95054">
        <ele>60.1</ele>
        <time>2022-05-25T13:46:03Z</time>
      </trkpt>
      <trkpt lat="49.91968" lon="1.95055">
        <ele>60.2</ele>
        <time>2022-05-25T13:46:04Z</time>
      </trkpt>
      <trkpt lat="49.91968" lon="1.95056">
        <ele>60.2</ele>
        <time>2022-05-25T13:46:06Z</time>
      </trkpt>
      <trkpt lat="49.91967" lon="1.95057">
        <ele>60.2</ele>
        <time>2022-05-25T13:46:07Z</time>
      </trkpt>
      <trkpt lat="49.91966" lon="1.95058">
        <ele>60.2</ele>
        <time>2022-05-25T13:46:08Z</time>
      </trkpt>
      <trkpt lat="49.91965" lon="1.95059">
        <ele>60.3</ele>
        <time>2022-05-25T13:46:09Z</time>
      </trkpt>
      <trkpt lat="49.91964" lon="1.95061">
        <ele>60.3</ele>
        <time>2022-05-25T13:46:10Z</time>
      </trkpt>
      <trkpt lat="49.91963" lon="1.95062">
        <ele>60.3</ele>
        <time>2022-05-25T13:46:11Z</time>
      </trkpt>
      <trkpt lat="49.91962" lon="1.95064">
        <ele>60.4</ele>
        <time>2022-05-25T13:46:13Z</time>
      </trkpt>
      <trkpt lat="49.91961" lon="1.95066">
        <ele>60.4</ele>
        <time>2022-05-25T13:46:14Z</time>
      </trkpt>
      <trkpt lat="49.9196" lon="1.95067">
        <ele>60.4</ele>
        <time>2022-05-25T13:46:15Z</time>
      </trkpt>
      <trkpt lat="49.91959" lon="1.95068">
        <ele>60.5</ele>
        <time>2022-05-25T13:46:16Z</time>
      </trkpt>
      <trkpt lat="49.91958" lon="1.95067">
        <ele>60.5</ele>
        <time>2022-05-25T13:46:18Z</time>
      </trkpt>
      <trkpt lat="49.91957" lon="1.95069">
        <ele>60.5</ele>
        <time>2022-05-25T13:46:19Z</time>
      </trkpt>
      <trkpt lat="49.91956" lon="1.9507">
        <ele>60.5</ele>
        <time>2022-05-25T13:46:20Z</time>
      </trkpt>
      <trkpt lat="49.91955" lon="1.95072">
        <ele>60.6</ele>
        <time>2022-05-25T13:46:22Z</time>
      </trkpt>
      <trkpt lat="49.91954" lon="1.95075">
        <ele>60.6</ele>
        <time>2022-05-25T13:46:25Z</time>
      </trkpt>
      <trkpt lat="49.91952" lon="1.95076">
        <ele>60.6</ele>
        <time>2022-05-25T13:46:26Z</time>
      </trkpt>
      <trkpt lat="49.91952" lon="1.95076">
        <ele>60.6</ele>
        <time>2022-05-25T13:46:27Z</time>
      </trkpt>
      <trkpt lat="49.91952" lon="1.95076">
        <ele>60.6</ele>
        <time>2022-05-25T13:46:30Z</time>
      </trkpt>
      <trkpt lat="49.91952" lon="1.95076">
        <ele>60.6</ele>
        <time>2022-05-25T13:46:31Z</time>
      </trkpt>
      <trkpt lat="49.91953" lon="1.95075">
        <ele>60.6</ele>
        <time>2022-05-25T13:46:32Z</time>
      </trkpt>
      <trkpt lat="49.91953" lon="1.95075">
        <ele>60.6</ele>
        <time>2022-05-25T13:46:33Z</time>
      </trkpt>
      <trkpt lat="49.91953" lon="1.95075">
        <ele>60.6</ele>
        <time>2022-05-25T13:46:35Z</time>
      </trkpt>
      <trkpt lat="49.91953" lon="1.95075">
        <ele>60.6</ele>
        <time>2022-05-25T13:46:36Z</time>
      </trkpt>
      <trkpt lat="49.91953" lon="1.95075">
        <ele>60.6</ele>
        <time>2022-05-25T13:46:37Z</time>
      </trkpt>
      <trkpt lat="49.91953" lon="1.95075">
        <ele>60.6</ele>
        <time>2022-05-25T13:46:38Z</time>
      </trkpt>
      <trkpt lat="49.91953" lon="1.95075">
        <ele>60.6</ele>
        <time>2022-05-25T13:46:40Z</time>
      </trkpt>
      <trkpt lat="49.91954" lon="1.95074">
        <ele>60.7</ele>
        <time>2022-05-25T13:46:41Z</time>
      </trkpt>
      <trkpt lat="49.91954" lon="1.95074">
        <ele>60.7</ele>
        <time>2022-05-25T13:46:42Z</time>
      </trkpt>
      <trkpt lat="49.91954" lon="1.95074">
        <ele>60.7</ele>
        <time>2022-05-25T13:46:43Z</time>
      </trkpt>
      <trkpt lat="49.91954" lon="1.95074">
        <ele>60.7</ele>
        <time>2022-05-25T13:46:44Z</time>
      </trkpt>
      <trkpt lat="49.91954" lon="1.95074">
        <ele>60.7</ele>
        <time>2022-05-25T13:46:45Z</time>
      </trkpt>
      <trkpt lat="49.91954" lon="1.95074">
        <ele>60.7</ele>
        <time>2022-05-25T13:46:46Z</time>
      </trkpt>
      <trkpt lat="49.91954" lon="1.95073">
        <ele>60.7</ele>
        <time>2022-05-25T13:46:47Z</time>
      </trkpt>
      <trkpt lat="49.91955" lon="1.95073">
        <ele>60.7</ele>
        <time>2022-05-25T13:46:48Z</time>
      </trkpt>
      <trkpt lat="49.91955" lon="1.95073">
        <ele>60.7</ele>
        <time>2022-05-25T13:46:49Z</time>
      </trkpt>
      <trkpt lat="49.91955" lon="1.95073">
        <ele>60.7</ele>
        <time>2022-05-25T13:46:50Z</time>
      </trkpt>
      <trkpt lat="49.91955" lon="1.95073">
        <ele>60.7</ele>
        <time>2022-05-25T13:46:52Z</time>
      </trkpt>
      <trkpt lat="49.91955" lon="1.95073">
        <ele>60.7</ele>
        <time>2022-05-25T13:46:53Z</time>
      </trkpt>
      <trkpt lat="49.91955" lon="1.95073">
        <ele>60.7</ele>
        <time>2022-05-25T13:46:54Z</time>
      </trkpt>
      <trkpt lat="49.91955" lon="1.95072">
        <ele>60.7</ele>
        <time>2022-05-25T13:46:56Z</time>
      </trkpt>
      <trkpt lat="49.91956" lon="1.95072">
        <ele>60.7</ele>
        <time>2022-05-25T13:46:58Z</time>
      </trkpt>
      <trkpt lat="49.91956" lon="1.95072">
        <ele>60.7</ele>
        <time>2022-05-25T13:47:00Z</time>
      </trkpt>
      <trkpt lat="49.91956" lon="1.95072">
        <ele>60.7</ele>
        <time>2022-05-25T13:47:01Z</time>
      </trkpt>
      <trkpt lat="49.91956" lon="1.95072">
        <ele>60.7</ele>
        <time>2022-05-25T13:47:02Z</time>
      </trkpt>
      <trkpt lat="49.91956" lon="1.95072">
        <ele>60.7</ele>
        <time>2022-05-25T13:47:03Z</time>
      </trkpt>
      <trkpt lat="49.91956" lon="1.95071">
        <ele>60.7</ele>
        <time>2022-05-25T13:47:04Z</time>
      </trkpt>
      <trkpt lat="49.91956" lon="1.95071">
        <ele>60.7</ele>
        <time>2022-05-25T13:47:05Z</time>
      </trkpt>
      <trkpt lat="49.91957" lon="1.95071">
        <ele>60.7</ele>
        <time>2022-05-25T13:47:07Z</time>
      </trkpt>
      <trkpt lat="49.91957" lon="1.95071">
        <ele>60.7</ele>
        <time>2022-05-25T13:47:08Z</time>
      </trkpt>
      <trkpt lat="49.91957" lon="1.95071">
        <ele>60.7</ele>
        <time>2022-05-25T13:47:09Z</time>
      </trkpt>
      <trkpt lat="49.91957" lon="1.95071">
        <ele>60.7</ele>
        <time>2022-05-25T13:47:10Z</time>
      </trkpt>
      <trkpt lat="49.91957" lon="1.95071">
        <ele>60.7</ele>
        <time>2022-05-25T13:47:11Z</time>
      </trkpt>
      <trkpt lat="49.91957" lon="1.9507">
        <ele>60.7</ele>
        <time>2022-05-25T13:47:12Z</time>
      </trkpt>
      <trkpt lat="49.91957" lon="1.9507">
        <ele>60.7</ele>
        <time>2022-05-25T13:47:13Z</time>
      </trkpt>
      <trkpt lat="49.91958" lon="1.9507">
        <ele>60.7</ele>
        <time>2022-05-25T13:47:14Z</time>
      </trkpt>
      <trkpt lat="49.91958" lon="1.9507">
        <ele>60.7</ele>
        <time>2022-05-25T13:47:15Z</time>
      </trkpt>
      <trkpt lat="49.91958" lon="1.9507">
        <ele>60.7</ele>
        <time>2022-05-25T13:47:17Z</time>
      </trkpt>
      <trkpt lat="49.91958" lon="1.9507">
        <ele>60.7</ele>
        <time>2022-05-25T13:47:18Z</time>
      </trkpt>
      <trkpt lat="49.91959" lon="1.95069">
        <ele>60.7</ele>
        <time>2022-05-25T13:47:20Z</time>
      </trkpt>
      <trkpt lat="49.91959" lon="1.95069">
        <ele>60.7</ele>
        <time>2022-05-25T13:47:21Z</time>
      </trkpt>
      <trkpt lat="49.91958" lon="1.9507">
        <ele>60.7</ele>
        <time>2022-05-25T13:47:22Z</time>
      </trkpt>
      <trkpt lat="49.91958" lon="1.95071">
        <ele>60.7</ele>
        <time>2022-05-25T13:47:23Z</time>
      </trkpt>
      <trkpt lat="49.91957" lon="1.95072">
        <ele>60.7</ele>
        <time>2022-05-25T13:47:24Z</time>
      </trkpt>
      <trkpt lat="49.91957" lon="1.95073">
        <ele>60.7</ele>
        <time>2022-05-25T13:47:26Z</time>
      </trkpt>
      <trkpt lat="49.91957" lon="1.95075">
        <ele>60.7</ele>
        <time>2022-05-25T13:47:27Z</time>
      </trkpt>
      <trkpt lat="49.91955" lon="1.95079">
        <ele>60.8</ele>
        <time>2022-05-25T13:47:28Z</time>
      </trkpt>
      <trkpt lat="49.91955" lon="1.95081">
        <ele>60.8</ele>
        <time>2022-05-25T13:47:29Z</time>
      </trkpt>
      <trkpt lat="49.91954" lon="1.95083">
        <ele>60.8</ele>
        <time>2022-05-25T13:47:30Z</time>
      </trkpt>
      <trkpt lat="49.91953" lon="1.95085">
        <ele>60.8</ele>
        <time>2022-05-25T13:47:31Z</time>
      </trkpt>
      <trkpt lat="49.91952" lon="1.95087">
        <ele>60.8</ele>
        <time>2022-05-25T13:47:32Z</time>
      </trkpt>
      <trkpt lat="49.91951" lon="1.95089">
        <ele>60.8</ele>
        <time>2022-05-25T13:47:33Z</time>
      </trkpt>
      <trkpt lat="49.91949" lon="1.95091">
        <ele>60.8</ele>
        <time>2022-05-25T13:47:35Z</time>
      </trkpt>
      <trkpt lat="49.91949" lon="1.95092">
        <ele>60.8</ele>
        <time>2022-05-25T13:47:36Z</time>
      </trkpt>
      <trkpt lat="49.91948" lon="1.95093">
        <ele>60.8</ele>
        <time>2022-05-25T13:47:37Z</time>
      </trkpt>
      <trkpt lat="49.91947" lon="1.95095">
        <ele>60.8</ele>
        <time>2022-05-25T13:47:38Z</time>
      </trkpt>
      <trkpt lat="49.91946" lon="1.95097">
        <ele>60.8</ele>
        <time>2022-05-25T13:47:39Z</time>
      </trkpt>
      <trkpt lat="49.91945" lon="1.95098">
        <ele>60.8</ele>
        <time>2022-05-25T13:47:40Z</time>
      </trkpt>
      <trkpt lat="49.91944" lon="1.95099">
        <ele>60.8</ele>
        <time>2022-05-25T13:47:41Z</time>
      </trkpt>
      <trkpt lat="49.91944" lon="1.95101">
        <ele>60.8</ele>
        <time>2022-05-25T13:47:43Z</time>
      </trkpt>
      <trkpt lat="49.91943" lon="1.95103">
        <ele>60.8</ele>
        <time>2022-05-25T13:47:44Z</time>
      </trkpt>
      <trkpt lat="49.91942" lon="1.95103">
        <ele>60.8</ele>
        <time>2022-05-25T13:47:45Z</time>
      </trkpt>
      <trkpt lat="49.91942" lon="1.95105">
        <ele>60.8</ele>
        <time>2022-05-25T13:47:47Z</time>
      </trkpt>
      <trkpt lat="49.91941" lon="1.95106">
        <ele>60.8</ele>
        <time>2022-05-25T13:47:48Z</time>
      </trkpt>
      <trkpt lat="49.91941" lon="1.95108">
        <ele>60.8</ele>
        <time>2022-05-25T13:47:49Z</time>
      </trkpt>
      <trkpt lat="49.9194" lon="1.95109">
        <ele>60.8</ele>
        <time>2022-05-25T13:47:50Z</time>
      </trkpt>
      <trkpt lat="49.9194" lon="1.95111">
        <ele>60.8</ele>
        <time>2022-05-25T13:47:51Z</time>
      </trkpt>
      <trkpt lat="49.91939" lon="1.95112">
        <ele>60.8</ele>
        <time>2022-05-25T13:47:53Z</time>
      </trkpt>
      <trkpt lat="49.91938" lon="1.95114">
        <ele>60.8</ele>
        <time>2022-05-25T13:47:54Z</time>
      </trkpt>
      <trkpt lat="49.91938" lon="1.95116">
        <ele>60.8</ele>
        <time>2022-05-25T13:47:55Z</time>
      </trkpt>
      <trkpt lat="49.91937" lon="1.95117">
        <ele>60.8</ele>
        <time>2022-05-25T13:47:56Z</time>
      </trkpt>
      <trkpt lat="49.91936" lon="1.95121">
        <ele>60.8</ele>
        <time>2022-05-25T13:47:57Z</time>
      </trkpt>
      <trkpt lat="49.91935" lon="1.95122">
        <ele>60.8</ele>
        <time>2022-05-25T13:47:58Z</time>
      </trkpt>
      <trkpt lat="49.91935" lon="1.95123">
        <ele>60.8</ele>
        <time>2022-05-25T13:47:59Z</time>
      </trkpt>
      <trkpt lat="49.91934" lon="1.95124">
        <ele>60.8</ele>
        <time>2022-05-25T13:48:00Z</time>
      </trkpt>
      <trkpt lat="49.91934" lon="1.95126">
        <ele>60.8</ele>
        <time>2022-05-25T13:48:02Z</time>
      </trkpt>
      <trkpt lat="49.91933" lon="1.95127">
        <ele>60.8</ele>
        <time>2022-05-25T13:48:03Z</time>
      </trkpt>
      <trkpt lat="49.91931" lon="1.95129">
        <ele>60.8</ele>
        <time>2022-05-25T13:48:04Z</time>
      </trkpt>
      <trkpt lat="49.9193" lon="1.9513">
        <ele>60.8</ele>
        <time>2022-05-25T13:48:05Z</time>
      </trkpt>
      <trkpt lat="49.91929" lon="1.95131">
        <ele>60.8</ele>
        <time>2022-05-25T13:48:06Z</time>
      </trkpt>
      <trkpt lat="49.91928" lon="1.95132">
        <ele>60.8</ele>
        <time>2022-05-25T13:48:07Z</time>
      </trkpt>
      <trkpt lat="49.91927" lon="1.95133">
        <ele>60.8</ele>
        <time>2022-05-25T13:48:08Z</time>
      </trkpt>
      <trkpt lat="49.91926" lon="1.95135">
        <ele>60.8</ele>
        <time>2022-05-25T13:48:10Z</time>
      </trkpt>
      <trkpt lat="49.91925" lon="1.95136">
        <ele>60.8</ele>
        <time>2022-05-25T13:48:11Z</time>
      </trkpt>
      <trkpt lat="49.91925" lon="1.95137">
        <ele>60.8</ele>
        <time>2022-05-25T13:48:12Z</time>
      </trkpt>
      <trkpt lat="49.91924" lon="1.95139">
        <ele>60.8</ele>
        <time>2022-05-25T13:48:13Z</time>
      </trkpt>
      <trkpt lat="49.91923" lon="1.95141">
        <ele>60.8</ele>
        <time>2022-05-25T13:48:14Z</time>
      </trkpt>
      <trkpt lat="49.91922" lon="1.95143">
        <ele>60.8</ele>
        <time>2022-05-25T13:48:15Z</time>
      </trkpt>
      <trkpt lat="49.91921" lon="1.95143">
        <ele>60.8</ele>
        <time>2022-05-25T13:48:16Z</time>
      </trkpt>
      <trkpt lat="49.9192" lon="1.95144">
        <ele>60.8</ele>
        <time>2022-05-25T13:48:18Z</time>
      </trkpt>
      <trkpt lat="49.91919" lon="1.95145">
        <ele>60.8</ele>
        <time>2022-05-25T13:48:19Z</time>
      </trkpt>
      <trkpt lat="49.91918" lon="1.95146">
        <ele>60.8</ele>
        <time>2022-05-25T13:48:20Z</time>
      </trkpt>
      <trkpt lat="49.91918" lon="1.95147">
        <ele>60.8</ele>
        <time>2022-05-25T13:48:21Z</time>
      </trkpt>
      <trkpt lat="49.91916" lon="1.9515">
        <ele>60.8</ele>
        <time>2022-05-25T13:48:22Z</time>
      </trkpt>
      <trkpt lat="49.91916" lon="1.95151">
        <ele>60.8</ele>
        <time>2022-05-25T13:48:23Z</time>
      </trkpt>
      <trkpt lat="49.91915" lon="1.95152">
        <ele>60.8</ele>
        <time>2022-05-25T13:48:24Z</time>
      </trkpt>
      <trkpt lat="49.91914" lon="1.95153">
        <ele>60.8</ele>
        <time>2022-05-25T13:48:25Z</time>
      </trkpt>
      <trkpt lat="49.91913" lon="1.95154">
        <ele>60.8</ele>
        <time>2022-05-25T13:48:27Z</time>
      </trkpt>
      <trkpt lat="49.91912" lon="1.95155">
        <ele>60.8</ele>
        <time>2022-05-25T13:48:28Z</time>
      </trkpt>
      <trkpt lat="49.91911" lon="1.95156">
        <ele>60.8</ele>
        <time>2022-05-25T13:48:29Z</time>
      </trkpt>
      <trkpt lat="49.9191" lon="1.95158">
        <ele>60.8</ele>
        <time>2022-05-25T13:48:30Z</time>
      </trkpt>
      <trkpt lat="49.91909" lon="1.95159">
        <ele>60.8</ele>
        <time>2022-05-25T13:48:31Z</time>
      </trkpt>
      <trkpt lat="49.91908" lon="1.9516">
        <ele>60.8</ele>
        <time>2022-05-25T13:48:32Z</time>
      </trkpt>
      <trkpt lat="49.91908" lon="1.95162">
        <ele>60.8</ele>
        <time>2022-05-25T13:48:33Z</time>
      </trkpt>
      <trkpt lat="49.91906" lon="1.95163">
        <ele>60.8</ele>
        <time>2022-05-25T13:48:35Z</time>
      </trkpt>
      <trkpt lat="49.91906" lon="1.95165">
        <ele>60.8</ele>
        <time>2022-05-25T13:48:36Z</time>
      </trkpt>
      <trkpt lat="49.91904" lon="1.95167">
        <ele>60.8</ele>
        <time>2022-05-25T13:48:37Z</time>
      </trkpt>
      <trkpt lat="49.91903" lon="1.95168">
        <ele>60.8</ele>
        <time>2022-05-25T13:48:38Z</time>
      </trkpt>
      <trkpt lat="49.91903" lon="1.95169">
        <ele>60.8</ele>
        <time>2022-05-25T13:48:39Z</time>
      </trkpt>
      <trkpt lat="49.91902" lon="1.9517">
        <ele>60.8</ele>
        <time>2022-05-25T13:48:40Z</time>
      </trkpt>
      <trkpt lat="49.91902" lon="1.95172">
        <ele>60.8</ele>
        <time>2022-05-25T13:48:41Z</time>
      </trkpt>
      <trkpt lat="49.91901" lon="1.95173">
        <ele>60.8</ele>
        <time>2022-05-25T13:48:42Z</time>
      </trkpt>
      <trkpt lat="49.919" lon="1.95175">
        <ele>60.8</ele>
        <time>2022-05-25T13:48:44Z</time>
      </trkpt>
      <trkpt lat="49.91899" lon="1.95177">
        <ele>60.8</ele>
        <time>2022-05-25T13:48:45Z</time>
      </trkpt>
      <trkpt lat="49.91898" lon="1.95178">
        <ele>60.8</ele>
        <time>2022-05-25T13:48:46Z</time>
      </trkpt>
      <trkpt lat="49.91897" lon="1.9518">
        <ele>60.8</ele>
        <time>2022-05-25T13:48:47Z</time>
      </trkpt>
      <trkpt lat="49.91897" lon="1.95181">
        <ele>60.8</ele>
        <time>2022-05-25T13:48:48Z</time>
      </trkpt>
      <trkpt lat="49.91895" lon="1.95184">
        <ele>60.8</ele>
        <time>2022-05-25T13:48:49Z</time>
      </trkpt>
      <trkpt lat="49.91895" lon="1.95185">
        <ele>60.8</ele>
        <time>2022-05-25T13:48:50Z</time>
      </trkpt>
      <trkpt lat="49.91894" lon="1.95186">
        <ele>60.8</ele>
        <time>2022-05-25T13:48:51Z</time>
      </trkpt>
      <trkpt lat="49.91893" lon="1.95188">
        <ele>60.8</ele>
        <time>2022-05-25T13:48:52Z</time>
      </trkpt>
      <trkpt lat="49.91892" lon="1.95189">
        <ele>60.8</ele>
        <time>2022-05-25T13:48:54Z</time>
      </trkpt>
      <trkpt lat="49.91891" lon="1.9519">
        <ele>60.8</ele>
        <time>2022-05-25T13:48:55Z</time>
      </trkpt>
      <trkpt lat="49.9189" lon="1.95192">
        <ele>60.8</ele>
        <time>2022-05-25T13:48:56Z</time>
      </trkpt>
      <trkpt lat="49.91889" lon="1.95193">
        <ele>60.8</ele>
        <time>2022-05-25T13:48:57Z</time>
      </trkpt>
      <trkpt lat="49.91888" lon="1.95194">
        <ele>60.8</ele>
        <time>2022-05-25T13:48:58Z</time>
      </trkpt>
      <trkpt lat="49.91887" lon="1.95196">
        <ele>60.8</ele>
        <time>2022-05-25T13:48:59Z</time>
      </trkpt>
      <trkpt lat="49.91886" lon="1.95197">
        <ele>60.8</ele>
        <time>2022-05-25T13:49:00Z</time>
      </trkpt>
      <trkpt lat="49.91885" lon="1.952">
        <ele>60.8</ele>
        <time>2022-05-25T13:49:01Z</time>
      </trkpt>
      <trkpt lat="49.91884" lon="1.95201">
        <ele>60.8</ele>
        <time>2022-05-25T13:49:03Z</time>
      </trkpt>
      <trkpt lat="49.91884" lon="1.95202">
        <ele>60.8</ele>
        <time>2022-05-25T13:49:04Z</time>
      </trkpt>
      <trkpt lat="49.91883" lon="1.95204">
        <ele>60.8</ele>
        <time>2022-05-25T13:49:06Z</time>
      </trkpt>
      <trkpt lat="49.91882" lon="1.95206">
        <ele>60.8</ele>
        <time>2022-05-25T13:49:07Z</time>
      </trkpt>
      <trkpt lat="49.91881" lon="1.95207">
        <ele>60.8</ele>
        <time>2022-05-25T13:49:08Z</time>
      </trkpt>
      <trkpt lat="49.9188" lon="1.95207">
        <ele>60.8</ele>
        <time>2022-05-25T13:49:09Z</time>
      </trkpt>
      <trkpt lat="49.91879" lon="1.95207">
        <ele>60.8</ele>
        <time>2022-05-25T13:49:10Z</time>
      </trkpt>
      <trkpt lat="49.91878" lon="1.95206">
        <ele>60.8</ele>
        <time>2022-05-25T13:49:11Z</time>
      </trkpt>
      <trkpt lat="49.91878" lon="1.95207">
        <ele>60.8</ele>
        <time>2022-05-25T13:49:12Z</time>
      </trkpt>
      <trkpt lat="49.91877" lon="1.95207">
        <ele>60.8</ele>
        <time>2022-05-25T13:49:13Z</time>
      </trkpt>
      <trkpt lat="49.91877" lon="1.95207">
        <ele>60.8</ele>
        <time>2022-05-25T13:49:14Z</time>
      </trkpt>
      <trkpt lat="49.91876" lon="1.95207">
        <ele>60.8</ele>
        <time>2022-05-25T13:49:16Z</time>
      </trkpt>
      <trkpt lat="49.91875" lon="1.95207">
        <ele>60.8</ele>
        <time>2022-05-25T13:49:17Z</time>
      </trkpt>
      <trkpt lat="49.91875" lon="1.95208">
        <ele>60.8</ele>
        <time>2022-05-25T13:49:18Z</time>
      </trkpt>
      <trkpt lat="49.91874" lon="1.95208">
        <ele>60.8</ele>
        <time>2022-05-25T13:49:19Z</time>
      </trkpt>
      <trkpt lat="49.91874" lon="1.95211">
        <ele>60.8</ele>
        <time>2022-05-25T13:49:20Z</time>
      </trkpt>
      <trkpt lat="49.91873" lon="1.95213">
        <ele>60.8</ele>
        <time>2022-05-25T13:49:21Z</time>
      </trkpt>
      <trkpt lat="49.91872" lon="1.95215">
        <ele>60.8</ele>
        <time>2022-05-25T13:49:22Z</time>
      </trkpt>
      <trkpt lat="49.91872" lon="1.95216">
        <ele>60.8</ele>
        <time>2022-05-25T13:49:24Z</time>
      </trkpt>
      <trkpt lat="49.91872" lon="1.95218">
        <ele>60.8</ele>
        <time>2022-05-25T13:49:25Z</time>
      </trkpt>
      <trkpt lat="49.91871" lon="1.95219">
        <ele>60.8</ele>
        <time>2022-05-25T13:49:26Z</time>
      </trkpt>
      <trkpt lat="49.9187" lon="1.95221">
        <ele>60.8</ele>
        <time>2022-05-25T13:49:27Z</time>
      </trkpt>
      <trkpt lat="49.9187" lon="1.95222">
        <ele>60.8</ele>
        <time>2022-05-25T13:49:28Z</time>
      </trkpt>
      <trkpt lat="49.9187" lon="1.95223">
        <ele>60.8</ele>
        <time>2022-05-25T13:49:29Z</time>
      </trkpt>
      <trkpt lat="49.91869" lon="1.95225">
        <ele>60.8</ele>
        <time>2022-05-25T13:49:31Z</time>
      </trkpt>
      <trkpt lat="49.91869" lon="1.95226">
        <ele>60.8</ele>
        <time>2022-05-25T13:49:32Z</time>
      </trkpt>
      <trkpt lat="49.91868" lon="1.95228">
        <ele>60.8</ele>
        <time>2022-05-25T13:49:33Z</time>
      </trkpt>
      <trkpt lat="49.91867" lon="1.95229">
        <ele>60.8</ele>
        <time>2022-05-25T13:49:34Z</time>
      </trkpt>
      <trkpt lat="49.91866" lon="1.9523">
        <ele>60.8</ele>
        <time>2022-05-25T13:49:35Z</time>
      </trkpt>
      <trkpt lat="49.91866" lon="1.95231">
        <ele>60.8</ele>
        <time>2022-05-25T13:49:37Z</time>
      </trkpt>
      <trkpt lat="49.91866" lon="1.95232">
        <ele>60.7</ele>
        <time>2022-05-25T13:49:38Z</time>
      </trkpt>
      <trkpt lat="49.91865" lon="1.95234">
        <ele>60.7</ele>
        <time>2022-05-25T13:49:39Z</time>
      </trkpt>
      <trkpt lat="49.91863" lon="1.95235">
        <ele>60.7</ele>
        <time>2022-05-25T13:49:40Z</time>
      </trkpt>
      <trkpt lat="49.91862" lon="1.95237">
        <ele>60.7</ele>
        <time>2022-05-25T13:49:41Z</time>
      </trkpt>
      <trkpt lat="49.91861" lon="1.95239">
        <ele>60.7</ele>
        <time>2022-05-25T13:49:42Z</time>
      </trkpt>
      <trkpt lat="49.9186" lon="1.95241">
        <ele>60.7</ele>
        <time>2022-05-25T13:49:44Z</time>
      </trkpt>
      <trkpt lat="49.91859" lon="1.95242">
        <ele>60.7</ele>
        <time>2022-05-25T13:49:45Z</time>
      </trkpt>
      <trkpt lat="49.91858" lon="1.95244">
        <ele>60.7</ele>
        <time>2022-05-25T13:49:46Z</time>
      </trkpt>
      <trkpt lat="49.91857" lon="1.95246">
        <ele>60.7</ele>
        <time>2022-05-25T13:49:47Z</time>
      </trkpt>
      <trkpt lat="49.91856" lon="1.95247">
        <ele>60.7</ele>
        <time>2022-05-25T13:49:48Z</time>
      </trkpt>
      <trkpt lat="49.91854" lon="1.95249">
        <ele>60.7</ele>
        <time>2022-05-25T13:49:49Z</time>
      </trkpt>
      <trkpt lat="49.91854" lon="1.9525">
        <ele>60.7</ele>
        <time>2022-05-25T13:49:51Z</time>
      </trkpt>
      <trkpt lat="49.91853" lon="1.95251">
        <ele>60.7</ele>
        <time>2022-05-25T13:49:52Z</time>
      </trkpt>
      <trkpt lat="49.91852" lon="1.95252">
        <ele>60.7</ele>
        <time>2022-05-25T13:49:53Z</time>
      </trkpt>
      <trkpt lat="49.91851" lon="1.95254">
        <ele>60.7</ele>
        <time>2022-05-25T13:49:54Z</time>
      </trkpt>
      <trkpt lat="49.9185" lon="1.95255">
        <ele>60.7</ele>
        <time>2022-05-25T13:49:55Z</time>
      </trkpt>
      <trkpt lat="49.91849" lon="1.95256">
        <ele>60.7</ele>
        <time>2022-05-25T13:49:56Z</time>
      </trkpt>
      <trkpt lat="49.91848" lon="1.95257">
        <ele>60.7</ele>
        <time>2022-05-25T13:49:58Z</time>
      </trkpt>
      <trkpt lat="49.91846" lon="1.95259">
        <ele>60.7</ele>
        <time>2022-05-25T13:49:59Z</time>
      </trkpt>
      <trkpt lat="49.91845" lon="1.9526">
        <ele>60.7</ele>
        <time>2022-05-25T13:50:00Z</time>
      </trkpt>
      <trkpt lat="49.91845" lon="1.9526">
        <ele>60.7</ele>
        <time>2022-05-25T13:50:01Z</time>
      </trkpt>
      <trkpt lat="49.91844" lon="1.95262">
        <ele>60.7</ele>
        <time>2022-05-25T13:50:02Z</time>
      </trkpt>
      <trkpt lat="49.91843" lon="1.95263">
        <ele>60.7</ele>
        <time>2022-05-25T13:50:03Z</time>
      </trkpt>
      <trkpt lat="49.91841" lon="1.95265">
        <ele>60.7</ele>
        <time>2022-05-25T13:50:04Z</time>
      </trkpt>
      <trkpt lat="49.9184" lon="1.95266">
        <ele>60.7</ele>
        <time>2022-05-25T13:50:06Z</time>
      </trkpt>
      <trkpt lat="49.9184" lon="1.95267">
        <ele>60.7</ele>
        <time>2022-05-25T13:50:07Z</time>
      </trkpt>
      <trkpt lat="49.91838" lon="1.95269">
        <ele>60.7</ele>
        <time>2022-05-25T13:50:08Z</time>
      </trkpt>
      <trkpt lat="49.91837" lon="1.9527">
        <ele>60.7</ele>
        <time>2022-05-25T13:50:09Z</time>
      </trkpt>
      <trkpt lat="49.91836" lon="1.95271">
        <ele>60.7</ele>
        <time>2022-05-25T13:50:10Z</time>
      </trkpt>
      <trkpt lat="49.91835" lon="1.95272">
        <ele>60.7</ele>
        <time>2022-05-25T13:50:11Z</time>
      </trkpt>
      <trkpt lat="49.91835" lon="1.95274">
        <ele>60.7</ele>
        <time>2022-05-25T13:50:12Z</time>
      </trkpt>
      <trkpt lat="49.91834" lon="1.95275">
        <ele>60.7</ele>
        <time>2022-05-25T13:50:14Z</time>
      </trkpt>
      <trkpt lat="49.91832" lon="1.95276">
        <ele>60.7</ele>
        <time>2022-05-25T13:50:15Z</time>
      </trkpt>
      <trkpt lat="49.91831" lon="1.95277">
        <ele>60.7</ele>
        <time>2022-05-25T13:50:16Z</time>
      </trkpt>
      <trkpt lat="49.91831" lon="1.95279">
        <ele>60.7</ele>
        <time>2022-05-25T13:50:17Z</time>
      </trkpt>
      <trkpt lat="49.9183" lon="1.95281">
        <ele>60.7</ele>
        <time>2022-05-25T13:50:18Z</time>
      </trkpt>
      <trkpt lat="49.9183" lon="1.95283">
        <ele>60.7</ele>
        <time>2022-05-25T13:50:20Z</time>
      </trkpt>
      <trkpt lat="49.91829" lon="1.95284">
        <ele>60.7</ele>
        <time>2022-05-25T13:50:21Z</time>
      </trkpt>
      <trkpt lat="49.91829" lon="1.95286">
        <ele>60.7</ele>
        <time>2022-05-25T13:50:22Z</time>
      </trkpt>
      <trkpt lat="49.91827" lon="1.95286">
        <ele>60.7</ele>
        <time>2022-05-25T13:50:23Z</time>
      </trkpt>
      <trkpt lat="49.91825" lon="1.95287">
        <ele>60.7</ele>
        <time>2022-05-25T13:50:24Z</time>
      </trkpt>
      <trkpt lat="49.91825" lon="1.95288">
        <ele>60.7</ele>
        <time>2022-05-25T13:50:25Z</time>
      </trkpt>
      <trkpt lat="49.91824" lon="1.95288">
        <ele>60.7</ele>
        <time>2022-05-25T13:50:26Z</time>
      </trkpt>
      <trkpt lat="49.91823" lon="1.95289">
        <ele>60.7</ele>
        <time>2022-05-25T13:50:27Z</time>
      </trkpt>
      <trkpt lat="49.91822" lon="1.9529">
        <ele>60.7</ele>
        <time>2022-05-25T13:50:28Z</time>
      </trkpt>
      <trkpt lat="49.91821" lon="1.95291">
        <ele>60.7</ele>
        <time>2022-05-25T13:50:30Z</time>
      </trkpt>
      <trkpt lat="49.91821" lon="1.95292">
        <ele>60.7</ele>
        <time>2022-05-25T13:50:31Z</time>
      </trkpt>
      <trkpt lat="49.9182" lon="1.95292">
        <ele>60.7</ele>
        <time>2022-05-25T13:50:32Z</time>
      </trkpt>
      <trkpt lat="49.91819" lon="1.95293">
        <ele>60.7</ele>
        <time>2022-05-25T13:50:33Z</time>
      </trkpt>
      <trkpt lat="49.91817" lon="1.95295">
        <ele>60.7</ele>
        <time>2022-05-25T13:50:34Z</time>
      </trkpt>
      <trkpt lat="49.91816" lon="1.95295">
        <ele>60.7</ele>
        <time>2022-05-25T13:50:35Z</time>
      </trkpt>
      <trkpt lat="49.91815" lon="1.95296">
        <ele>60.7</ele>
        <time>2022-05-25T13:50:36Z</time>
      </trkpt>
      <trkpt lat="49.91814" lon="1.95297">
        <ele>60.7</ele>
        <time>2022-05-25T13:50:37Z</time>
      </trkpt>
      <trkpt lat="49.91812" lon="1.95299">
        <ele>60.7</ele>
        <time>2022-05-25T13:50:38Z</time>
      </trkpt>
      <trkpt lat="49.9181" lon="1.95301">
        <ele>60.7</ele>
        <time>2022-05-25T13:50:40Z</time>
      </trkpt>
      <trkpt lat="49.91809" lon="1.95302">
        <ele>60.7</ele>
        <time>2022-05-25T13:50:41Z</time>
      </trkpt>
      <trkpt lat="49.91806" lon="1.95304">
        <ele>60.7</ele>
        <time>2022-05-25T13:50:42Z</time>
      </trkpt>
      <trkpt lat="49.91805" lon="1.95305">
        <ele>60.7</ele>
        <time>2022-05-25T13:50:43Z</time>
      </trkpt>
      <trkpt lat="49.91803" lon="1.95307">
        <ele>60.7</ele>
        <time>2022-05-25T13:50:44Z</time>
      </trkpt>
      <trkpt lat="49.91802" lon="1.95308">
        <ele>60.7</ele>
        <time>2022-05-25T13:50:45Z</time>
      </trkpt>
      <trkpt lat="49.91799" lon="1.9531">
        <ele>60.7</ele>
        <time>2022-05-25T13:50:46Z</time>
      </trkpt>
      <trkpt lat="49.91799" lon="1.95311">
        <ele>60.7</ele>
        <time>2022-05-25T13:50:47Z</time>
      </trkpt>
      <trkpt lat="49.91797" lon="1.95312">
        <ele>60.7</ele>
        <time>2022-05-25T13:50:48Z</time>
      </trkpt>
      <trkpt lat="49.91796" lon="1.95312">
        <ele>60.7</ele>
        <time>2022-05-25T13:50:49Z</time>
      </trkpt>
      <trkpt lat="49.91795" lon="1.95313">
        <ele>60.7</ele>
        <time>2022-05-25T13:50:51Z</time>
      </trkpt>
      <trkpt lat="49.91794" lon="1.95314">
        <ele>60.7</ele>
        <time>2022-05-25T13:50:52Z</time>
      </trkpt>
      <trkpt lat="49.91793" lon="1.95316">
        <ele>60.7</ele>
        <time>2022-05-25T13:50:53Z</time>
      </trkpt>
      <trkpt lat="49.91791" lon="1.95318">
        <ele>60.7</ele>
        <time>2022-05-25T13:50:54Z</time>
      </trkpt>
      <trkpt lat="49.9179" lon="1.9532">
        <ele>60.7</ele>
        <time>2022-05-25T13:50:56Z</time>
      </trkpt>
      <trkpt lat="49.91789" lon="1.95321">
        <ele>60.7</ele>
        <time>2022-05-25T13:50:57Z</time>
      </trkpt>
      <trkpt lat="49.91788" lon="1.95323">
        <ele>60.8</ele>
        <time>2022-05-25T13:50:58Z</time>
      </trkpt>
      <trkpt lat="49.91786" lon="1.95325">
        <ele>60.9</ele>
        <time>2022-05-25T13:50:59Z</time>
      </trkpt>
      <trkpt lat="49.91785" lon="1.95326">
        <ele>61</ele>
        <time>2022-05-25T13:51:01Z</time>
      </trkpt>
      <trkpt lat="49.91785" lon="1.95326">
        <ele>61</ele>
        <time>2022-05-25T13:51:02Z</time>
      </trkpt>
      <trkpt lat="49.91783" lon="1.95328">
        <ele>61.1</ele>
        <time>2022-05-25T13:51:03Z</time>
      </trkpt>
      <trkpt lat="49.91782" lon="1.95329">
        <ele>61.2</ele>
        <time>2022-05-25T13:51:04Z</time>
      </trkpt>
      <trkpt lat="49.91781" lon="1.9533">
        <ele>61.2</ele>
        <time>2022-05-25T13:51:05Z</time>
      </trkpt>
      <trkpt lat="49.9178" lon="1.95331">
        <ele>61.3</ele>
        <time>2022-05-25T13:51:06Z</time>
      </trkpt>
      <trkpt lat="49.91779" lon="1.95332">
        <ele>61.4</ele>
        <time>2022-05-25T13:51:08Z</time>
      </trkpt>
      <trkpt lat="49.91778" lon="1.95333">
        <ele>61.5</ele>
        <time>2022-05-25T13:51:09Z</time>
      </trkpt>
      <trkpt lat="49.91778" lon="1.95334">
        <ele>61.5</ele>
        <time>2022-05-25T13:51:10Z</time>
      </trkpt>
      <trkpt lat="49.91776" lon="1.95336">
        <ele>61.6</ele>
        <time>2022-05-25T13:51:11Z</time>
      </trkpt>
      <trkpt lat="49.91776" lon="1.95337">
        <ele>61.7</ele>
        <time>2022-05-25T13:51:12Z</time>
      </trkpt>
      <trkpt lat="49.91775" lon="1.95338">
        <ele>61.7</ele>
        <time>2022-05-25T13:51:13Z</time>
      </trkpt>
      <trkpt lat="49.91774" lon="1.95339">
        <ele>61.8</ele>
        <time>2022-05-25T13:51:14Z</time>
      </trkpt>
      <trkpt lat="49.91772" lon="1.95341">
        <ele>61.9</ele>
        <time>2022-05-25T13:51:15Z</time>
      </trkpt>
      <trkpt lat="49.91771" lon="1.95343">
        <ele>62</ele>
        <time>2022-05-25T13:51:17Z</time>
      </trkpt>
      <trkpt lat="49.91771" lon="1.95344">
        <ele>62</ele>
        <time>2022-05-25T13:51:19Z</time>
      </trkpt>
      <trkpt lat="49.9177" lon="1.95345">
        <ele>62.1</ele>
        <time>2022-05-25T13:51:20Z</time>
      </trkpt>
      <trkpt lat="49.91768" lon="1.95348">
        <ele>62.2</ele>
        <time>2022-05-25T13:51:21Z</time>
      </trkpt>
      <trkpt lat="49.91768" lon="1.95349">
        <ele>62.3</ele>
        <time>2022-05-25T13:51:22Z</time>
      </trkpt>
      <trkpt lat="49.91767" lon="1.95349">
        <ele>62.3</ele>
        <time>2022-05-25T13:51:23Z</time>
      </trkpt>
      <trkpt lat="49.91766" lon="1.95351">
        <ele>62.4</ele>
        <time>2022-05-25T13:51:24Z</time>
      </trkpt>
      <trkpt lat="49.91764" lon="1.95352">
        <ele>62.5</ele>
        <time>2022-05-25T13:51:25Z</time>
      </trkpt>
      <trkpt lat="49.91764" lon="1.95353">
        <ele>62.6</ele>
        <time>2022-05-25T13:51:26Z</time>
      </trkpt>
      <trkpt lat="49.91763" lon="1.95354">
        <ele>62.6</ele>
        <time>2022-05-25T13:51:27Z</time>
      </trkpt>
      <trkpt lat="49.91762" lon="1.95355">
        <ele>62.7</ele>
        <time>2022-05-25T13:51:28Z</time>
      </trkpt>
      <trkpt lat="49.91761" lon="1.95357">
        <ele>62.8</ele>
        <time>2022-05-25T13:51:29Z</time>
      </trkpt>
      <trkpt lat="49.9176" lon="1.95358">
        <ele>62.8</ele>
        <time>2022-05-25T13:51:31Z</time>
      </trkpt>
      <trkpt lat="49.9176" lon="1.95359">
        <ele>62.9</ele>
        <time>2022-05-25T13:51:32Z</time>
      </trkpt>
      <trkpt lat="49.91759" lon="1.9536">
        <ele>62.9</ele>
        <time>2022-05-25T13:51:33Z</time>
      </trkpt>
      <trkpt lat="49.91758" lon="1.95361">
        <ele>63</ele>
        <time>2022-05-25T13:51:34Z</time>
      </trkpt>
      <trkpt lat="49.91757" lon="1.95363">
        <ele>63.1</ele>
        <time>2022-05-25T13:51:35Z</time>
      </trkpt>
      <trkpt lat="49.91755" lon="1.95365">
        <ele>63.2</ele>
        <time>2022-05-25T13:51:37Z</time>
      </trkpt>
      <trkpt lat="49.91754" lon="1.95366">
        <ele>63.3</ele>
        <time>2022-05-25T13:51:38Z</time>
      </trkpt>
      <trkpt lat="49.91753" lon="1.95366">
        <ele>63.3</ele>
        <time>2022-05-25T13:51:39Z</time>
      </trkpt>
      <trkpt lat="49.91751" lon="1.95368">
        <ele>63.4</ele>
        <time>2022-05-25T13:51:40Z</time>
      </trkpt>
      <trkpt lat="49.9175" lon="1.95369">
        <ele>63.5</ele>
        <time>2022-05-25T13:51:41Z</time>
      </trkpt>
      <trkpt lat="49.91749" lon="1.9537">
        <ele>63.6</ele>
        <time>2022-05-25T13:51:42Z</time>
      </trkpt>
      <trkpt lat="49.91748" lon="1.95371">
        <ele>63.6</ele>
        <time>2022-05-25T13:51:43Z</time>
      </trkpt>
      <trkpt lat="49.91747" lon="1.95372">
        <ele>63.7</ele>
        <time>2022-05-25T13:51:44Z</time>
      </trkpt>
      <trkpt lat="49.91746" lon="1.95373">
        <ele>63.8</ele>
        <time>2022-05-25T13:51:45Z</time>
      </trkpt>
      <trkpt lat="49.91745" lon="1.95373">
        <ele>63.8</ele>
        <time>2022-05-25T13:51:47Z</time>
      </trkpt>
      <trkpt lat="49.91744" lon="1.95374">
        <ele>63.9</ele>
        <time>2022-05-25T13:51:48Z</time>
      </trkpt>
      <trkpt lat="49.91744" lon="1.95376">
        <ele>64</ele>
        <time>2022-05-25T13:51:49Z</time>
      </trkpt>
      <trkpt lat="49.91743" lon="1.95377">
        <ele>64</ele>
        <time>2022-05-25T13:51:50Z</time>
      </trkpt>
      <trkpt lat="49.91742" lon="1.95379">
        <ele>64.1</ele>
        <time>2022-05-25T13:51:51Z</time>
      </trkpt>
      <trkpt lat="49.91741" lon="1.95381">
        <ele>64.2</ele>
        <time>2022-05-25T13:51:52Z</time>
      </trkpt>
      <trkpt lat="49.9174" lon="1.95382">
        <ele>64.3</ele>
        <time>2022-05-25T13:51:53Z</time>
      </trkpt>
      <trkpt lat="49.91739" lon="1.95384">
        <ele>64.3</ele>
        <time>2022-05-25T13:51:54Z</time>
      </trkpt>
      <trkpt lat="49.91738" lon="1.95385">
        <ele>64.4</ele>
        <time>2022-05-25T13:51:55Z</time>
      </trkpt>
      <trkpt lat="49.91737" lon="1.95386">
        <ele>64.5</ele>
        <time>2022-05-25T13:51:57Z</time>
      </trkpt>
      <trkpt lat="49.91736" lon="1.95387">
        <ele>64.5</ele>
        <time>2022-05-25T13:51:58Z</time>
      </trkpt>
      <trkpt lat="49.91736" lon="1.95387">
        <ele>64.6</ele>
        <time>2022-05-25T13:51:59Z</time>
      </trkpt>
      <trkpt lat="49.91734" lon="1.95389">
        <ele>64.7</ele>
        <time>2022-05-25T13:52:00Z</time>
      </trkpt>
      <trkpt lat="49.91733" lon="1.9539">
        <ele>64.7</ele>
        <time>2022-05-25T13:52:01Z</time>
      </trkpt>
      <trkpt lat="49.91732" lon="1.95391">
        <ele>64.8</ele>
        <time>2022-05-25T13:52:02Z</time>
      </trkpt>
      <trkpt lat="49.91731" lon="1.95392">
        <ele>64.8</ele>
        <time>2022-05-25T13:52:03Z</time>
      </trkpt>
      <trkpt lat="49.9173" lon="1.95392">
        <ele>64.9</ele>
        <time>2022-05-25T13:52:04Z</time>
      </trkpt>
      <trkpt lat="49.91729" lon="1.95394">
        <ele>65</ele>
        <time>2022-05-25T13:52:05Z</time>
      </trkpt>
      <trkpt lat="49.91728" lon="1.95396">
        <ele>65.1</ele>
        <time>2022-05-25T13:52:07Z</time>
      </trkpt>
      <trkpt lat="49.91727" lon="1.95396">
        <ele>65.1</ele>
        <time>2022-05-25T13:52:08Z</time>
      </trkpt>
      <trkpt lat="49.91727" lon="1.95397">
        <ele>65.2</ele>
        <time>2022-05-25T13:52:09Z</time>
      </trkpt>
      <trkpt lat="49.91725" lon="1.95399">
        <ele>65.3</ele>
        <time>2022-05-25T13:52:10Z</time>
      </trkpt>
      <trkpt lat="49.91724" lon="1.954">
        <ele>65.4</ele>
        <time>2022-05-25T13:52:11Z</time>
      </trkpt>
      <trkpt lat="49.91723" lon="1.95401">
        <ele>65.4</ele>
        <time>2022-05-25T13:52:12Z</time>
      </trkpt>
      <trkpt lat="49.91722" lon="1.95402">
        <ele>65.5</ele>
        <time>2022-05-25T13:52:13Z</time>
      </trkpt>
      <trkpt lat="49.91721" lon="1.95403">
        <ele>65.5</ele>
        <time>2022-05-25T13:52:14Z</time>
      </trkpt>
      <trkpt lat="49.9172" lon="1.95404">
        <ele>65.6</ele>
        <time>2022-05-25T13:52:15Z</time>
      </trkpt>
      <trkpt lat="49.91718" lon="1.95405">
        <ele>65.7</ele>
        <time>2022-05-25T13:52:16Z</time>
      </trkpt>
      <trkpt lat="49.91718" lon="1.95405">
        <ele>65.8</ele>
        <time>2022-05-25T13:52:18Z</time>
      </trkpt>
      <trkpt lat="49.91717" lon="1.95406">
        <ele>65.8</ele>
        <time>2022-05-25T13:52:19Z</time>
      </trkpt>
      <trkpt lat="49.91716" lon="1.95407">
        <ele>65.9</ele>
        <time>2022-05-25T13:52:20Z</time>
      </trkpt>
      <trkpt lat="49.91715" lon="1.95408">
        <ele>66</ele>
        <time>2022-05-25T13:52:21Z</time>
      </trkpt>
      <trkpt lat="49.91713" lon="1.95409">
        <ele>66.1</ele>
        <time>2022-05-25T13:52:22Z</time>
      </trkpt>
      <trkpt lat="49.91712" lon="1.9541">
        <ele>66.1</ele>
        <time>2022-05-25T13:52:23Z</time>
      </trkpt>
      <trkpt lat="49.91711" lon="1.95412">
        <ele>66.2</ele>
        <time>2022-05-25T13:52:24Z</time>
      </trkpt>
      <trkpt lat="49.9171" lon="1.95413">
        <ele>66.3</ele>
        <time>2022-05-25T13:52:25Z</time>
      </trkpt>
      <trkpt lat="49.91708" lon="1.95414">
        <ele>66.4</ele>
        <time>2022-05-25T13:52:27Z</time>
      </trkpt>
      <trkpt lat="49.91707" lon="1.95416">
        <ele>66.5</ele>
        <time>2022-05-25T13:52:28Z</time>
      </trkpt>
      <trkpt lat="49.91706" lon="1.95417">
        <ele>66.6</ele>
        <time>2022-05-25T13:52:29Z</time>
      </trkpt>
      <trkpt lat="49.91705" lon="1.95418">
        <ele>66.6</ele>
        <time>2022-05-25T13:52:30Z</time>
      </trkpt>
      <trkpt lat="49.91705" lon="1.95418">
        <ele>66.6</ele>
        <time>2022-05-25T13:52:31Z</time>
      </trkpt>
      <trkpt lat="49.91704" lon="1.95419">
        <ele>66.7</ele>
        <time>2022-05-25T13:52:32Z</time>
      </trkpt>
      <trkpt lat="49.91703" lon="1.9542">
        <ele>66.8</ele>
        <time>2022-05-25T13:52:33Z</time>
      </trkpt>
      <trkpt lat="49.91701" lon="1.95421">
        <ele>66.9</ele>
        <time>2022-05-25T13:52:35Z</time>
      </trkpt>
      <trkpt lat="49.91701" lon="1.95422">
        <ele>66.9</ele>
        <time>2022-05-25T13:52:36Z</time>
      </trkpt>
      <trkpt lat="49.91699" lon="1.95423">
        <ele>67</ele>
        <time>2022-05-25T13:52:37Z</time>
      </trkpt>
      <trkpt lat="49.91699" lon="1.95424">
        <ele>67</ele>
        <time>2022-05-25T13:52:38Z</time>
      </trkpt>
      <trkpt lat="49.91697" lon="1.95426">
        <ele>67.2</ele>
        <time>2022-05-25T13:52:39Z</time>
      </trkpt>
      <trkpt lat="49.91696" lon="1.95426">
        <ele>67.2</ele>
        <time>2022-05-25T13:52:40Z</time>
      </trkpt>
      <trkpt lat="49.91695" lon="1.95427">
        <ele>67.3</ele>
        <time>2022-05-25T13:52:41Z</time>
      </trkpt>
      <trkpt lat="49.91693" lon="1.95429">
        <ele>67.4</ele>
        <time>2022-05-25T13:52:42Z</time>
      </trkpt>
      <trkpt lat="49.91693" lon="1.95429">
        <ele>67.4</ele>
        <time>2022-05-25T13:52:44Z</time>
      </trkpt>
      <trkpt lat="49.91692" lon="1.9543">
        <ele>67.5</ele>
        <time>2022-05-25T13:52:45Z</time>
      </trkpt>
      <trkpt lat="49.91691" lon="1.95432">
        <ele>67.6</ele>
        <time>2022-05-25T13:52:46Z</time>
      </trkpt>
      <trkpt lat="49.9169" lon="1.95433">
        <ele>67.6</ele>
        <time>2022-05-25T13:52:47Z</time>
      </trkpt>
      <trkpt lat="49.91689" lon="1.95434">
        <ele>67.7</ele>
        <time>2022-05-25T13:52:48Z</time>
      </trkpt>
      <trkpt lat="49.91687" lon="1.95436">
        <ele>67.8</ele>
        <time>2022-05-25T13:52:49Z</time>
      </trkpt>
      <trkpt lat="49.91686" lon="1.95437">
        <ele>67.9</ele>
        <time>2022-05-25T13:52:50Z</time>
      </trkpt>
      <trkpt lat="49.91686" lon="1.95437">
        <ele>67.9</ele>
        <time>2022-05-25T13:52:52Z</time>
      </trkpt>
      <trkpt lat="49.91686" lon="1.95438">
        <ele>67.9</ele>
        <time>2022-05-25T13:52:53Z</time>
      </trkpt>
      <trkpt lat="49.91685" lon="1.95439">
        <ele>68</ele>
        <time>2022-05-25T13:52:54Z</time>
      </trkpt>
      <trkpt lat="49.91684" lon="1.9544">
        <ele>68.1</ele>
        <time>2022-05-25T13:52:55Z</time>
      </trkpt>
      <trkpt lat="49.91682" lon="1.95441">
        <ele>68.1</ele>
        <time>2022-05-25T13:52:56Z</time>
      </trkpt>
      <trkpt lat="49.91681" lon="1.95442">
        <ele>68.2</ele>
        <time>2022-05-25T13:52:57Z</time>
      </trkpt>
      <trkpt lat="49.9168" lon="1.95444">
        <ele>68.3</ele>
        <time>2022-05-25T13:52:58Z</time>
      </trkpt>
      <trkpt lat="49.91679" lon="1.95445">
        <ele>68.4</ele>
        <time>2022-05-25T13:53:00Z</time>
      </trkpt>
      <trkpt lat="49.91678" lon="1.95445">
        <ele>68.4</ele>
        <time>2022-05-25T13:53:01Z</time>
      </trkpt>
      <trkpt lat="49.91678" lon="1.95447">
        <ele>68.5</ele>
        <time>2022-05-25T13:53:02Z</time>
      </trkpt>
      <trkpt lat="49.91676" lon="1.95448">
        <ele>68.6</ele>
        <time>2022-05-25T13:53:03Z</time>
      </trkpt>
      <trkpt lat="49.91675" lon="1.95449">
        <ele>68.6</ele>
        <time>2022-05-25T13:53:04Z</time>
      </trkpt>
      <trkpt lat="49.91675" lon="1.9545">
        <ele>68.7</ele>
        <time>2022-05-25T13:53:05Z</time>
      </trkpt>
      <trkpt lat="49.91674" lon="1.95451">
        <ele>68.8</ele>
        <time>2022-05-25T13:53:06Z</time>
      </trkpt>
      <trkpt lat="49.91673" lon="1.95452">
        <ele>68.8</ele>
        <time>2022-05-25T13:53:07Z</time>
      </trkpt>
      <trkpt lat="49.91671" lon="1.95453">
        <ele>68.9</ele>
        <time>2022-05-25T13:53:09Z</time>
      </trkpt>
      <trkpt lat="49.9167" lon="1.95455">
        <ele>69</ele>
        <time>2022-05-25T13:53:10Z</time>
      </trkpt>
      <trkpt lat="49.91669" lon="1.95457">
        <ele>69.1</ele>
        <time>2022-05-25T13:53:11Z</time>
      </trkpt>
      <trkpt lat="49.91668" lon="1.95457">
        <ele>69.1</ele>
        <time>2022-05-25T13:53:13Z</time>
      </trkpt>
      <trkpt lat="49.91667" lon="1.95458">
        <ele>69.2</ele>
        <time>2022-05-25T13:53:14Z</time>
      </trkpt>
      <trkpt lat="49.91666" lon="1.95459">
        <ele>69.3</ele>
        <time>2022-05-25T13:53:15Z</time>
      </trkpt>
      <trkpt lat="49.91665" lon="1.9546">
        <ele>69.3</ele>
        <time>2022-05-25T13:53:16Z</time>
      </trkpt>
      <trkpt lat="49.91664" lon="1.95461">
        <ele>69.4</ele>
        <time>2022-05-25T13:53:17Z</time>
      </trkpt>
      <trkpt lat="49.91663" lon="1.95462">
        <ele>69.5</ele>
        <time>2022-05-25T13:53:18Z</time>
      </trkpt>
      <trkpt lat="49.91662" lon="1.95463">
        <ele>69.5</ele>
        <time>2022-05-25T13:53:19Z</time>
      </trkpt>
      <trkpt lat="49.91661" lon="1.95464">
        <ele>69.6</ele>
        <time>2022-05-25T13:53:21Z</time>
      </trkpt>
      <trkpt lat="49.9166" lon="1.95465">
        <ele>69.6</ele>
        <time>2022-05-25T13:53:22Z</time>
      </trkpt>
      <trkpt lat="49.91659" lon="1.95467">
        <ele>69.7</ele>
        <time>2022-05-25T13:53:23Z</time>
      </trkpt>
      <trkpt lat="49.91658" lon="1.95468">
        <ele>69.8</ele>
        <time>2022-05-25T13:53:24Z</time>
      </trkpt>
      <trkpt lat="49.91657" lon="1.95468">
        <ele>69.9</ele>
        <time>2022-05-25T13:53:25Z</time>
      </trkpt>
      <trkpt lat="49.91656" lon="1.95469">
        <ele>69.9</ele>
        <time>2022-05-25T13:53:26Z</time>
      </trkpt>
      <trkpt lat="49.91656" lon="1.95469">
        <ele>69.9</ele>
        <time>2022-05-25T13:53:27Z</time>
      </trkpt>
      <trkpt lat="49.91655" lon="1.9547">
        <ele>70</ele>
        <time>2022-05-25T13:53:29Z</time>
      </trkpt>
      <trkpt lat="49.91654" lon="1.95471">
        <ele>70.1</ele>
        <time>2022-05-25T13:53:30Z</time>
      </trkpt>
      <trkpt lat="49.91653" lon="1.95472">
        <ele>70.1</ele>
        <time>2022-05-25T13:53:31Z</time>
      </trkpt>
      <trkpt lat="49.91652" lon="1.95472">
        <ele>70.2</ele>
        <time>2022-05-25T13:53:32Z</time>
      </trkpt>
      <trkpt lat="49.91651" lon="1.95473">
        <ele>70.3</ele>
        <time>2022-05-25T13:53:33Z</time>
      </trkpt>
      <trkpt lat="49.9165" lon="1.95474">
        <ele>70.3</ele>
        <time>2022-05-25T13:53:34Z</time>
      </trkpt>
      <trkpt lat="49.91649" lon="1.95474">
        <ele>70.4</ele>
        <time>2022-05-25T13:53:35Z</time>
      </trkpt>
      <trkpt lat="49.91648" lon="1.95475">
        <ele>70.4</ele>
        <time>2022-05-25T13:53:36Z</time>
      </trkpt>
      <trkpt lat="49.91647" lon="1.95476">
        <ele>70.5</ele>
        <time>2022-05-25T13:53:38Z</time>
      </trkpt>
      <trkpt lat="49.91646" lon="1.95476">
        <ele>70.5</ele>
        <time>2022-05-25T13:53:39Z</time>
      </trkpt>
      <trkpt lat="49.91645" lon="1.95477">
        <ele>70.6</ele>
        <time>2022-05-25T13:53:40Z</time>
      </trkpt>
      <trkpt lat="49.91644" lon="1.95477">
        <ele>70.7</ele>
        <time>2022-05-25T13:53:41Z</time>
      </trkpt>
      <trkpt lat="49.91643" lon="1.95478">
        <ele>70.7</ele>
        <time>2022-05-25T13:53:42Z</time>
      </trkpt>
      <trkpt lat="49.91642" lon="1.95479">
        <ele>70.8</ele>
        <time>2022-05-25T13:53:43Z</time>
      </trkpt>
      <trkpt lat="49.9164" lon="1.9548">
        <ele>70.9</ele>
        <time>2022-05-25T13:53:45Z</time>
      </trkpt>
      <trkpt lat="49.91639" lon="1.95481">
        <ele>71</ele>
        <time>2022-05-25T13:53:46Z</time>
      </trkpt>
      <trkpt lat="49.91638" lon="1.95481">
        <ele>71</ele>
        <time>2022-05-25T13:53:47Z</time>
      </trkpt>
      <trkpt lat="49.91637" lon="1.95482">
        <ele>71.1</ele>
        <time>2022-05-25T13:53:48Z</time>
      </trkpt>
      <trkpt lat="49.91636" lon="1.95483">
        <ele>71.2</ele>
        <time>2022-05-25T13:53:49Z</time>
      </trkpt>
      <trkpt lat="49.91635" lon="1.95484">
        <ele>71.2</ele>
        <time>2022-05-25T13:53:50Z</time>
      </trkpt>
      <trkpt lat="49.91633" lon="1.95486">
        <ele>71.4</ele>
        <time>2022-05-25T13:53:51Z</time>
      </trkpt>
      <trkpt lat="49.91632" lon="1.95486">
        <ele>71.4</ele>
        <time>2022-05-25T13:53:53Z</time>
      </trkpt>
      <trkpt lat="49.91631" lon="1.95487">
        <ele>71.5</ele>
        <time>2022-05-25T13:53:54Z</time>
      </trkpt>
      <trkpt lat="49.91629" lon="1.95489">
        <ele>71.6</ele>
        <time>2022-05-25T13:53:55Z</time>
      </trkpt>
      <trkpt lat="49.91629" lon="1.95489">
        <ele>71.6</ele>
        <time>2022-05-25T13:53:56Z</time>
      </trkpt>
      <trkpt lat="49.91628" lon="1.9549">
        <ele>71.7</ele>
        <time>2022-05-25T13:53:57Z</time>
      </trkpt>
      <trkpt lat="49.91627" lon="1.95491">
        <ele>71.8</ele>
        <time>2022-05-25T13:53:58Z</time>
      </trkpt>
      <trkpt lat="49.91626" lon="1.95492">
        <ele>71.8</ele>
        <time>2022-05-25T13:53:59Z</time>
      </trkpt>
      <trkpt lat="49.91625" lon="1.95493">
        <ele>71.9</ele>
        <time>2022-05-25T13:54:01Z</time>
      </trkpt>
      <trkpt lat="49.91624" lon="1.95494">
        <ele>72</ele>
        <time>2022-05-25T13:54:02Z</time>
      </trkpt>
      <trkpt lat="49.91622" lon="1.95495">
        <ele>72.1</ele>
        <time>2022-05-25T13:54:03Z</time>
      </trkpt>
      <trkpt lat="49.91621" lon="1.95496">
        <ele>72.1</ele>
        <time>2022-05-25T13:54:04Z</time>
      </trkpt>
      <trkpt lat="49.91621" lon="1.95497">
        <ele>72.2</ele>
        <time>2022-05-25T13:54:05Z</time>
      </trkpt>
      <trkpt lat="49.9162" lon="1.95498">
        <ele>72.2</ele>
        <time>2022-05-25T13:54:06Z</time>
      </trkpt>
      <trkpt lat="49.91618" lon="1.95499">
        <ele>72.3</ele>
        <time>2022-05-25T13:54:07Z</time>
      </trkpt>
      <trkpt lat="49.91617" lon="1.955">
        <ele>72.4</ele>
        <time>2022-05-25T13:54:09Z</time>
      </trkpt>
      <trkpt lat="49.91616" lon="1.95501">
        <ele>72.5</ele>
        <time>2022-05-25T13:54:10Z</time>
      </trkpt>
      <trkpt lat="49.91615" lon="1.95502">
        <ele>72.5</ele>
        <time>2022-05-25T13:54:11Z</time>
      </trkpt>
      <trkpt lat="49.91614" lon="1.95502">
        <ele>72.6</ele>
        <time>2022-05-25T13:54:12Z</time>
      </trkpt>
      <trkpt lat="49.91612" lon="1.95504">
        <ele>72.7</ele>
        <time>2022-05-25T13:54:13Z</time>
      </trkpt>
      <trkpt lat="49.91612" lon="1.95504">
        <ele>72.7</ele>
        <time>2022-05-25T13:54:14Z</time>
      </trkpt>
      <trkpt lat="49.91611" lon="1.95505">
        <ele>72.8</ele>
        <time>2022-05-25T13:54:15Z</time>
      </trkpt>
      <trkpt lat="49.91609" lon="1.95507">
        <ele>72.9</ele>
        <time>2022-05-25T13:54:16Z</time>
      </trkpt>
      <trkpt lat="49.91608" lon="1.95508">
        <ele>73</ele>
        <time>2022-05-25T13:54:18Z</time>
      </trkpt>
      <trkpt lat="49.91607" lon="1.95508">
        <ele>73</ele>
        <time>2022-05-25T13:54:19Z</time>
      </trkpt>
      <trkpt lat="49.91606" lon="1.95509">
        <ele>73.1</ele>
        <time>2022-05-25T13:54:20Z</time>
      </trkpt>
      <trkpt lat="49.91605" lon="1.9551">
        <ele>73.1</ele>
        <time>2022-05-25T13:54:21Z</time>
      </trkpt>
      <trkpt lat="49.91604" lon="1.95511">
        <ele>73.2</ele>
        <time>2022-05-25T13:54:22Z</time>
      </trkpt>
      <trkpt lat="49.91603" lon="1.95512">
        <ele>73.3</ele>
        <time>2022-05-25T13:54:23Z</time>
      </trkpt>
      <trkpt lat="49.91602" lon="1.95512">
        <ele>73.3</ele>
        <time>2022-05-25T13:54:24Z</time>
      </trkpt>
      <trkpt lat="49.91601" lon="1.95513">
        <ele>73.4</ele>
        <time>2022-05-25T13:54:26Z</time>
      </trkpt>
      <trkpt lat="49.91599" lon="1.95514">
        <ele>73.5</ele>
        <time>2022-05-25T13:54:27Z</time>
      </trkpt>
      <trkpt lat="49.91598" lon="1.95515">
        <ele>73.6</ele>
        <time>2022-05-25T13:54:28Z</time>
      </trkpt>
      <trkpt lat="49.91597" lon="1.95515">
        <ele>73.6</ele>
        <time>2022-05-25T13:54:29Z</time>
      </trkpt>
      <trkpt lat="49.91596" lon="1.95516">
        <ele>73.7</ele>
        <time>2022-05-25T13:54:30Z</time>
      </trkpt>
      <trkpt lat="49.91595" lon="1.95516">
        <ele>73.7</ele>
        <time>2022-05-25T13:54:31Z</time>
      </trkpt>
      <trkpt lat="49.91594" lon="1.95517">
        <ele>73.8</ele>
        <time>2022-05-25T13:54:32Z</time>
      </trkpt>
      <trkpt lat="49.91592" lon="1.95518">
        <ele>73.9</ele>
        <time>2022-05-25T13:54:33Z</time>
      </trkpt>
      <trkpt lat="49.91592" lon="1.95519">
        <ele>74</ele>
        <time>2022-05-25T13:54:35Z</time>
      </trkpt>
      <trkpt lat="49.91591" lon="1.95519">
        <ele>74</ele>
        <time>2022-05-25T13:54:36Z</time>
      </trkpt>
      <trkpt lat="49.9159" lon="1.9552">
        <ele>74.1</ele>
        <time>2022-05-25T13:54:37Z</time>
      </trkpt>
      <trkpt lat="49.91588" lon="1.95521">
        <ele>74.2</ele>
        <time>2022-05-25T13:54:38Z</time>
      </trkpt>
      <trkpt lat="49.91588" lon="1.95521">
        <ele>74.2</ele>
        <time>2022-05-25T13:54:39Z</time>
      </trkpt>
      <trkpt lat="49.91587" lon="1.95522">
        <ele>74.3</ele>
        <time>2022-05-25T13:54:41Z</time>
      </trkpt>
      <trkpt lat="49.91586" lon="1.95523">
        <ele>74.3</ele>
        <time>2022-05-25T13:54:42Z</time>
      </trkpt>
      <trkpt lat="49.91584" lon="1.95524">
        <ele>74.4</ele>
        <time>2022-05-25T13:54:43Z</time>
      </trkpt>
      <trkpt lat="49.91583" lon="1.95525">
        <ele>74.5</ele>
        <time>2022-05-25T13:54:44Z</time>
      </trkpt>
      <trkpt lat="49.91581" lon="1.95527">
        <ele>74.6</ele>
        <time>2022-05-25T13:54:45Z</time>
      </trkpt>
      <trkpt lat="49.91581" lon="1.95528">
        <ele>74.7</ele>
        <time>2022-05-25T13:54:46Z</time>
      </trkpt>
      <trkpt lat="49.9158" lon="1.95528">
        <ele>74.7</ele>
        <time>2022-05-25T13:54:48Z</time>
      </trkpt>
      <trkpt lat="49.91579" lon="1.95529">
        <ele>74.8</ele>
        <time>2022-05-25T13:54:49Z</time>
      </trkpt>
      <trkpt lat="49.91578" lon="1.9553">
        <ele>74.8</ele>
        <time>2022-05-25T13:54:50Z</time>
      </trkpt>
      <trkpt lat="49.91577" lon="1.95531">
        <ele>74.9</ele>
        <time>2022-05-25T13:54:51Z</time>
      </trkpt>
      <trkpt lat="49.91576" lon="1.95532">
        <ele>75</ele>
        <time>2022-05-25T13:54:52Z</time>
      </trkpt>
      <trkpt lat="49.91574" lon="1.95533">
        <ele>75.1</ele>
        <time>2022-05-25T13:54:53Z</time>
      </trkpt>
      <trkpt lat="49.91574" lon="1.95534">
        <ele>75.1</ele>
        <time>2022-05-25T13:54:54Z</time>
      </trkpt>
      <trkpt lat="49.91573" lon="1.95535">
        <ele>75.2</ele>
        <time>2022-05-25T13:54:56Z</time>
      </trkpt>
      <trkpt lat="49.91571" lon="1.95536">
        <ele>75.2</ele>
        <time>2022-05-25T13:54:57Z</time>
      </trkpt>
      <trkpt lat="49.91569" lon="1.95537">
        <ele>75.4</ele>
        <time>2022-05-25T13:54:59Z</time>
      </trkpt>
      <trkpt lat="49.91569" lon="1.95538">
        <ele>75.4</ele>
        <time>2022-05-25T13:55:00Z</time>
      </trkpt>
      <trkpt lat="49.91567" lon="1.9554">
        <ele>75.5</ele>
        <time>2022-05-25T13:55:01Z</time>
      </trkpt>
      <trkpt lat="49.91567" lon="1.9554">
        <ele>75.6</ele>
        <time>2022-05-25T13:55:02Z</time>
      </trkpt>
      <trkpt lat="49.91566" lon="1.95541">
        <ele>75.6</ele>
        <time>2022-05-25T13:55:03Z</time>
      </trkpt>
      <trkpt lat="49.91565" lon="1.95542">
        <ele>75.7</ele>
        <time>2022-05-25T13:55:04Z</time>
      </trkpt>
      <trkpt lat="49.91564" lon="1.95543">
        <ele>75.7</ele>
        <time>2022-05-25T13:55:05Z</time>
      </trkpt>
      <trkpt lat="49.91563" lon="1.95544">
        <ele>75.8</ele>
        <time>2022-05-25T13:55:07Z</time>
      </trkpt>
      <trkpt lat="49.91562" lon="1.95545">
        <ele>75.9</ele>
        <time>2022-05-25T13:55:08Z</time>
      </trkpt>
      <trkpt lat="49.91561" lon="1.95546">
        <ele>75.9</ele>
        <time>2022-05-25T13:55:09Z</time>
      </trkpt>
      <trkpt lat="49.9156" lon="1.95546">
        <ele>76</ele>
        <time>2022-05-25T13:55:10Z</time>
      </trkpt>
      <trkpt lat="49.91559" lon="1.95547">
        <ele>76.1</ele>
        <time>2022-05-25T13:55:11Z</time>
      </trkpt>
      <trkpt lat="49.91558" lon="1.95548">
        <ele>76.1</ele>
        <time>2022-05-25T13:55:12Z</time>
      </trkpt>
      <trkpt lat="49.91556" lon="1.95549">
        <ele>76.2</ele>
        <time>2022-05-25T13:55:13Z</time>
      </trkpt>
      <trkpt lat="49.91555" lon="1.9555">
        <ele>76.3</ele>
        <time>2022-05-25T13:55:15Z</time>
      </trkpt>
      <trkpt lat="49.91555" lon="1.9555">
        <ele>76.3</ele>
        <time>2022-05-25T13:55:16Z</time>
      </trkpt>
      <trkpt lat="49.91553" lon="1.95552">
        <ele>76.5</ele>
        <time>2022-05-25T13:55:17Z</time>
      </trkpt>
      <trkpt lat="49.91552" lon="1.95553">
        <ele>76.5</ele>
        <time>2022-05-25T13:55:18Z</time>
      </trkpt>
      <trkpt lat="49.91551" lon="1.95553">
        <ele>76.6</ele>
        <time>2022-05-25T13:55:19Z</time>
      </trkpt>
      <trkpt lat="49.9155" lon="1.95553">
        <ele>76.6</ele>
        <time>2022-05-25T13:55:21Z</time>
      </trkpt>
      <trkpt lat="49.91549" lon="1.95554">
        <ele>76.7</ele>
        <time>2022-05-25T13:55:22Z</time>
      </trkpt>
      <trkpt lat="49.91548" lon="1.95555">
        <ele>76.7</ele>
        <time>2022-05-25T13:55:23Z</time>
      </trkpt>
      <trkpt lat="49.91547" lon="1.95555">
        <ele>76.8</ele>
        <time>2022-05-25T13:55:24Z</time>
      </trkpt>
      <trkpt lat="49.91546" lon="1.95556">
        <ele>76.9</ele>
        <time>2022-05-25T13:55:25Z</time>
      </trkpt>
      <trkpt lat="49.91545" lon="1.95556">
        <ele>76.9</ele>
        <time>2022-05-25T13:55:27Z</time>
      </trkpt>
      <trkpt lat="49.91544" lon="1.95557">
        <ele>77</ele>
        <time>2022-05-25T13:55:28Z</time>
      </trkpt>
      <trkpt lat="49.91542" lon="1.95558">
        <ele>77.1</ele>
        <time>2022-05-25T13:55:29Z</time>
      </trkpt>
      <trkpt lat="49.91541" lon="1.95559">
        <ele>77.1</ele>
        <time>2022-05-25T13:55:30Z</time>
      </trkpt>
      <trkpt lat="49.91541" lon="1.95561">
        <ele>77.2</ele>
        <time>2022-05-25T13:55:31Z</time>
      </trkpt>
      <trkpt lat="49.9154" lon="1.95562">
        <ele>77.3</ele>
        <time>2022-05-25T13:55:32Z</time>
      </trkpt>
      <trkpt lat="49.91538" lon="1.95563">
        <ele>77.4</ele>
        <time>2022-05-25T13:55:34Z</time>
      </trkpt>
      <trkpt lat="49.91538" lon="1.95564">
        <ele>77.4</ele>
        <time>2022-05-25T13:55:35Z</time>
      </trkpt>
      <trkpt lat="49.91537" lon="1.95565">
        <ele>77.5</ele>
        <time>2022-05-25T13:55:36Z</time>
      </trkpt>
      <trkpt lat="49.91536" lon="1.95566">
        <ele>77.5</ele>
        <time>2022-05-25T13:55:37Z</time>
      </trkpt>
      <trkpt lat="49.91535" lon="1.95567">
        <ele>77.6</ele>
        <time>2022-05-25T13:55:38Z</time>
      </trkpt>
      <trkpt lat="49.91534" lon="1.95568">
        <ele>77.7</ele>
        <time>2022-05-25T13:55:40Z</time>
      </trkpt>
      <trkpt lat="49.91533" lon="1.95569">
        <ele>77.7</ele>
        <time>2022-05-25T13:55:41Z</time>
      </trkpt>
      <trkpt lat="49.91533" lon="1.9557">
        <ele>77.8</ele>
        <time>2022-05-25T13:55:42Z</time>
      </trkpt>
      <trkpt lat="49.91532" lon="1.95572">
        <ele>77.8</ele>
        <time>2022-05-25T13:55:43Z</time>
      </trkpt>
      <trkpt lat="49.91531" lon="1.95573">
        <ele>77.9</ele>
        <time>2022-05-25T13:55:44Z</time>
      </trkpt>
      <trkpt lat="49.91531" lon="1.95574">
        <ele>77.9</ele>
        <time>2022-05-25T13:55:46Z</time>
      </trkpt>
      <trkpt lat="49.91529" lon="1.95576">
        <ele>78</ele>
        <time>2022-05-25T13:55:47Z</time>
      </trkpt>
      <trkpt lat="49.91527" lon="1.95579">
        <ele>78.2</ele>
        <time>2022-05-25T13:55:49Z</time>
      </trkpt>
      <trkpt lat="49.91527" lon="1.9558">
        <ele>78.3</ele>
        <time>2022-05-25T13:55:51Z</time>
      </trkpt>
      <trkpt lat="49.91526" lon="1.95581">
        <ele>78.3</ele>
        <time>2022-05-25T13:55:52Z</time>
      </trkpt>
      <trkpt lat="49.91526" lon="1.95582">
        <ele>78.4</ele>
        <time>2022-05-25T13:55:53Z</time>
      </trkpt>
      <trkpt lat="49.91524" lon="1.95584">
        <ele>78.4</ele>
        <time>2022-05-25T13:55:54Z</time>
      </trkpt>
      <trkpt lat="49.91523" lon="1.95585">
        <ele>78.5</ele>
        <time>2022-05-25T13:55:55Z</time>
      </trkpt>
      <trkpt lat="49.91523" lon="1.95586">
        <ele>78.6</ele>
        <time>2022-05-25T13:55:56Z</time>
      </trkpt>
      <trkpt lat="49.91521" lon="1.95588">
        <ele>78.7</ele>
        <time>2022-05-25T13:55:58Z</time>
      </trkpt>
      <trkpt lat="49.9152" lon="1.95589">
        <ele>78.7</ele>
        <time>2022-05-25T13:56:00Z</time>
      </trkpt>
      <trkpt lat="49.91519" lon="1.95591">
        <ele>78.8</ele>
        <time>2022-05-25T13:56:01Z</time>
      </trkpt>
      <trkpt lat="49.91518" lon="1.95592">
        <ele>78.9</ele>
        <time>2022-05-25T13:56:02Z</time>
      </trkpt>
      <trkpt lat="49.91517" lon="1.95595">
        <ele>79</ele>
        <time>2022-05-25T13:56:03Z</time>
      </trkpt>
      <trkpt lat="49.91516" lon="1.95595">
        <ele>79.1</ele>
        <time>2022-05-25T13:56:05Z</time>
      </trkpt>
      <trkpt lat="49.91516" lon="1.95596">
        <ele>79.1</ele>
        <time>2022-05-25T13:56:06Z</time>
      </trkpt>
      <trkpt lat="49.91514" lon="1.95599">
        <ele>79.2</ele>
        <time>2022-05-25T13:56:07Z</time>
      </trkpt>
      <trkpt lat="49.91513" lon="1.956">
        <ele>79.3</ele>
        <time>2022-05-25T13:56:08Z</time>
      </trkpt>
      <trkpt lat="49.91512" lon="1.95601">
        <ele>79.4</ele>
        <time>2022-05-25T13:56:10Z</time>
      </trkpt>
      <trkpt lat="49.91512" lon="1.95602">
        <ele>79.4</ele>
        <time>2022-05-25T13:56:11Z</time>
      </trkpt>
      <trkpt lat="49.91511" lon="1.95603">
        <ele>79.5</ele>
        <time>2022-05-25T13:56:13Z</time>
      </trkpt>
      <trkpt lat="49.9151" lon="1.95604">
        <ele>79.5</ele>
        <time>2022-05-25T13:56:14Z</time>
      </trkpt>
      <trkpt lat="49.91509" lon="1.95606">
        <ele>79.6</ele>
        <time>2022-05-25T13:56:15Z</time>
      </trkpt>
      <trkpt lat="49.91508" lon="1.95607">
        <ele>79.7</ele>
        <time>2022-05-25T13:56:16Z</time>
      </trkpt>
      <trkpt lat="49.91508" lon="1.95608">
        <ele>79.7</ele>
        <time>2022-05-25T13:56:18Z</time>
      </trkpt>
      <trkpt lat="49.91507" lon="1.9561">
        <ele>79.8</ele>
        <time>2022-05-25T13:56:19Z</time>
      </trkpt>
      <trkpt lat="49.91506" lon="1.95611">
        <ele>79.9</ele>
        <time>2022-05-25T13:56:20Z</time>
      </trkpt>
      <trkpt lat="49.91505" lon="1.95612">
        <ele>79.9</ele>
        <time>2022-05-25T13:56:21Z</time>
      </trkpt>
      <trkpt lat="49.91505" lon="1.95613">
        <ele>80</ele>
        <time>2022-05-25T13:56:23Z</time>
      </trkpt>
      <trkpt lat="49.91504" lon="1.95615">
        <ele>80.1</ele>
        <time>2022-05-25T13:56:24Z</time>
      </trkpt>
      <trkpt lat="49.91504" lon="1.95616">
        <ele>80.1</ele>
        <time>2022-05-25T13:56:25Z</time>
      </trkpt>
      <trkpt lat="49.91503" lon="1.95617">
        <ele>80.1</ele>
        <time>2022-05-25T13:56:26Z</time>
      </trkpt>
      <trkpt lat="49.91503" lon="1.95619">
        <ele>80.2</ele>
        <time>2022-05-25T13:56:28Z</time>
      </trkpt>
      <trkpt lat="49.91502" lon="1.95621">
        <ele>80.3</ele>
        <time>2022-05-25T13:56:29Z</time>
      </trkpt>
      <trkpt lat="49.91502" lon="1.95622">
        <ele>80.3</ele>
        <time>2022-05-25T13:56:30Z</time>
      </trkpt>
      <trkpt lat="49.91501" lon="1.95623">
        <ele>80.4</ele>
        <time>2022-05-25T13:56:31Z</time>
      </trkpt>
      <trkpt lat="49.91501" lon="1.95624">
        <ele>80.4</ele>
        <time>2022-05-25T13:56:33Z</time>
      </trkpt>
      <trkpt lat="49.915" lon="1.95625">
        <ele>80.5</ele>
        <time>2022-05-25T13:56:34Z</time>
      </trkpt>
      <trkpt lat="49.915" lon="1.95626">
        <ele>80.5</ele>
        <time>2022-05-25T13:56:35Z</time>
      </trkpt>
      <trkpt lat="49.91499" lon="1.95627">
        <ele>80.6</ele>
        <time>2022-05-25T13:56:36Z</time>
      </trkpt>
      <trkpt lat="49.91498" lon="1.95629">
        <ele>80.7</ele>
        <time>2022-05-25T13:56:38Z</time>
      </trkpt>
      <trkpt lat="49.91497" lon="1.9563">
        <ele>80.7</ele>
        <time>2022-05-25T13:56:40Z</time>
      </trkpt>
      <trkpt lat="49.91497" lon="1.95632">
        <ele>80.8</ele>
        <time>2022-05-25T13:56:41Z</time>
      </trkpt>
      <trkpt lat="49.91496" lon="1.95633">
        <ele>80.8</ele>
        <time>2022-05-25T13:56:42Z</time>
      </trkpt>
      <trkpt lat="49.91495" lon="1.95636">
        <ele>80.9</ele>
        <time>2022-05-25T13:56:43Z</time>
      </trkpt>
      <trkpt lat="49.91494" lon="1.95637">
        <ele>81</ele>
        <time>2022-05-25T13:56:45Z</time>
      </trkpt>
      <trkpt lat="49.91494" lon="1.95639">
        <ele>81.1</ele>
        <time>2022-05-25T13:56:47Z</time>
      </trkpt>
      <trkpt lat="49.91493" lon="1.9564">
        <ele>81.1</ele>
        <time>2022-05-25T13:56:49Z</time>
      </trkpt>
      <trkpt lat="49.91492" lon="1.95642">
        <ele>81.2</ele>
        <time>2022-05-25T13:56:51Z</time>
      </trkpt>
      <trkpt lat="49.91492" lon="1.95643">
        <ele>81.3</ele>
        <time>2022-05-25T13:56:52Z</time>
      </trkpt>
      <trkpt lat="49.91491" lon="1.95645">
        <ele>81.3</ele>
        <time>2022-05-25T13:56:53Z</time>
      </trkpt>
      <trkpt lat="49.9149" lon="1.95646">
        <ele>81.4</ele>
        <time>2022-05-25T13:56:54Z</time>
      </trkpt>
      <trkpt lat="49.91489" lon="1.95648">
        <ele>81.5</ele>
        <time>2022-05-25T13:56:56Z</time>
      </trkpt>
      <trkpt lat="49.91488" lon="1.95649">
        <ele>81.6</ele>
        <time>2022-05-25T13:56:57Z</time>
      </trkpt>
      <trkpt lat="49.91487" lon="1.95651">
        <ele>81.7</ele>
        <time>2022-05-25T13:56:58Z</time>
      </trkpt>
      <trkpt lat="49.91486" lon="1.95652">
        <ele>81.7</ele>
        <time>2022-05-25T13:57:00Z</time>
      </trkpt>
      <trkpt lat="49.91485" lon="1.95653">
        <ele>81.8</ele>
        <time>2022-05-25T13:57:01Z</time>
      </trkpt>
      <trkpt lat="49.91483" lon="1.95655">
        <ele>81.9</ele>
        <time>2022-05-25T13:57:02Z</time>
      </trkpt>
      <trkpt lat="49.91482" lon="1.95656">
        <ele>82</ele>
        <time>2022-05-25T13:57:03Z</time>
      </trkpt>
      <trkpt lat="49.91482" lon="1.95657">
        <ele>82</ele>
        <time>2022-05-25T13:57:05Z</time>
      </trkpt>
      <trkpt lat="49.91481" lon="1.95658">
        <ele>82.1</ele>
        <time>2022-05-25T13:57:06Z</time>
      </trkpt>
      <trkpt lat="49.9148" lon="1.95659">
        <ele>82.1</ele>
        <time>2022-05-25T13:57:07Z</time>
      </trkpt>
      <trkpt lat="49.91479" lon="1.9566">
        <ele>82.2</ele>
        <time>2022-05-25T13:57:08Z</time>
      </trkpt>
      <trkpt lat="49.91479" lon="1.95661">
        <ele>82.2</ele>
        <time>2022-05-25T13:57:09Z</time>
      </trkpt>
      <trkpt lat="49.91478" lon="1.95662">
        <ele>82.3</ele>
        <time>2022-05-25T13:57:10Z</time>
      </trkpt>
      <trkpt lat="49.91478" lon="1.95663">
        <ele>82.3</ele>
        <time>2022-05-25T13:57:12Z</time>
      </trkpt>
      <trkpt lat="49.91477" lon="1.95664">
        <ele>82.4</ele>
        <time>2022-05-25T13:57:13Z</time>
      </trkpt>
      <trkpt lat="49.91476" lon="1.95666">
        <ele>82.5</ele>
        <time>2022-05-25T13:57:14Z</time>
      </trkpt>
      <trkpt lat="49.91476" lon="1.95667">
        <ele>82.5</ele>
        <time>2022-05-25T13:57:15Z</time>
      </trkpt>
      <trkpt lat="49.91475" lon="1.95668">
        <ele>82.6</ele>
        <time>2022-05-25T13:57:16Z</time>
      </trkpt>
      <trkpt lat="49.91475" lon="1.95669">
        <ele>82.6</ele>
        <time>2022-05-25T13:57:18Z</time>
      </trkpt>
      <trkpt lat="49.91474" lon="1.95671">
        <ele>82.7</ele>
        <time>2022-05-25T13:57:19Z</time>
      </trkpt>
      <trkpt lat="49.91473" lon="1.95672">
        <ele>82.7</ele>
        <time>2022-05-25T13:57:20Z</time>
      </trkpt>
      <trkpt lat="49.91472" lon="1.95673">
        <ele>82.8</ele>
        <time>2022-05-25T13:57:21Z</time>
      </trkpt>
      <trkpt lat="49.91471" lon="1.95675">
        <ele>82.9</ele>
        <time>2022-05-25T13:57:23Z</time>
      </trkpt>
      <trkpt lat="49.9147" lon="1.95676">
        <ele>83</ele>
        <time>2022-05-25T13:57:25Z</time>
      </trkpt>
      <trkpt lat="49.9147" lon="1.95678">
        <ele>83</ele>
        <time>2022-05-25T13:57:26Z</time>
      </trkpt>
      <trkpt lat="49.91469" lon="1.95679">
        <ele>83.1</ele>
        <time>2022-05-25T13:57:27Z</time>
      </trkpt>
      <trkpt lat="49.91467" lon="1.95681">
        <ele>83.2</ele>
        <time>2022-05-25T13:57:28Z</time>
      </trkpt>
      <trkpt lat="49.91467" lon="1.95681">
        <ele>83.2</ele>
        <time>2022-05-25T13:57:30Z</time>
      </trkpt>
      <trkpt lat="49.91466" lon="1.95683">
        <ele>83.3</ele>
        <time>2022-05-25T13:57:31Z</time>
      </trkpt>
      <trkpt lat="49.91466" lon="1.95684">
        <ele>83.4</ele>
        <time>2022-05-25T13:57:32Z</time>
      </trkpt>
      <trkpt lat="49.91465" lon="1.95685">
        <ele>83.4</ele>
        <time>2022-05-25T13:57:33Z</time>
      </trkpt>
      <trkpt lat="49.91464" lon="1.95687">
        <ele>83.5</ele>
        <time>2022-05-25T13:57:35Z</time>
      </trkpt>
      <trkpt lat="49.91463" lon="1.95688">
        <ele>83.6</ele>
        <time>2022-05-25T13:57:37Z</time>
      </trkpt>
      <trkpt lat="49.91462" lon="1.9569">
        <ele>83.6</ele>
        <time>2022-05-25T13:57:39Z</time>
      </trkpt>
      <trkpt lat="49.91461" lon="1.95691">
        <ele>83.7</ele>
        <time>2022-05-25T13:57:40Z</time>
      </trkpt>
      <trkpt lat="49.9146" lon="1.95693">
        <ele>83.8</ele>
        <time>2022-05-25T13:57:41Z</time>
      </trkpt>
      <trkpt lat="49.9146" lon="1.95693">
        <ele>83.8</ele>
        <time>2022-05-25T13:57:42Z</time>
      </trkpt>
      <trkpt lat="49.91458" lon="1.95695">
        <ele>83.9</ele>
        <time>2022-05-25T13:57:43Z</time>
      </trkpt>
      <trkpt lat="49.91458" lon="1.95696">
        <ele>84</ele>
        <time>2022-05-25T13:57:44Z</time>
      </trkpt>
      <trkpt lat="49.91457" lon="1.95697">
        <ele>84</ele>
        <time>2022-05-25T13:57:46Z</time>
      </trkpt>
      <trkpt lat="49.91457" lon="1.95698">
        <ele>84.1</ele>
        <time>2022-05-25T13:57:47Z</time>
      </trkpt>
      <trkpt lat="49.91456" lon="1.95699">
        <ele>84.1</ele>
        <time>2022-05-25T13:57:48Z</time>
      </trkpt>
      <trkpt lat="49.91455" lon="1.957">
        <ele>84.2</ele>
        <time>2022-05-25T13:57:50Z</time>
      </trkpt>
      <trkpt lat="49.91454" lon="1.95702">
        <ele>84.3</ele>
        <time>2022-05-25T13:57:51Z</time>
      </trkpt>
      <trkpt lat="49.91453" lon="1.95705">
        <ele>84.4</ele>
        <time>2022-05-25T13:57:53Z</time>
      </trkpt>
      <trkpt lat="49.91453" lon="1.95706">
        <ele>84.4</ele>
        <time>2022-05-25T13:57:54Z</time>
      </trkpt>
      <trkpt lat="49.91452" lon="1.95707">
        <ele>84.5</ele>
        <time>2022-05-25T13:57:56Z</time>
      </trkpt>
      <trkpt lat="49.91451" lon="1.95709">
        <ele>84.6</ele>
        <time>2022-05-25T13:57:57Z</time>
      </trkpt>
      <trkpt lat="49.91451" lon="1.95711">
        <ele>84.6</ele>
        <time>2022-05-25T13:57:59Z</time>
      </trkpt>
      <trkpt lat="49.9145" lon="1.95713">
        <ele>84.7</ele>
        <time>2022-05-25T13:58:00Z</time>
      </trkpt>
      <trkpt lat="49.9145" lon="1.95714">
        <ele>84.8</ele>
        <time>2022-05-25T13:58:02Z</time>
      </trkpt>
      <trkpt lat="49.91449" lon="1.95716">
        <ele>84.8</ele>
        <time>2022-05-25T13:58:03Z</time>
      </trkpt>
      <trkpt lat="49.91448" lon="1.95717">
        <ele>84.9</ele>
        <time>2022-05-25T13:58:04Z</time>
      </trkpt>
      <trkpt lat="49.91448" lon="1.95718">
        <ele>84.9</ele>
        <time>2022-05-25T13:58:06Z</time>
      </trkpt>
      <trkpt lat="49.91448" lon="1.95719">
        <ele>85</ele>
        <time>2022-05-25T13:58:07Z</time>
      </trkpt>
      <trkpt lat="49.91447" lon="1.9572">
        <ele>85</ele>
        <time>2022-05-25T13:58:08Z</time>
      </trkpt>
      <trkpt lat="49.91447" lon="1.95721">
        <ele>85.1</ele>
        <time>2022-05-25T13:58:09Z</time>
      </trkpt>
      <trkpt lat="49.91446" lon="1.95723">
        <ele>85.1</ele>
        <time>2022-05-25T13:58:10Z</time>
      </trkpt>
      <trkpt lat="49.91445" lon="1.95724">
        <ele>85.2</ele>
        <time>2022-05-25T13:58:11Z</time>
      </trkpt>
      <trkpt lat="49.91445" lon="1.95725">
        <ele>85.2</ele>
        <time>2022-05-25T13:58:12Z</time>
      </trkpt>
      <trkpt lat="49.91444" lon="1.95726">
        <ele>85.3</ele>
        <time>2022-05-25T13:58:13Z</time>
      </trkpt>
      <trkpt lat="49.91444" lon="1.95726">
        <ele>85.3</ele>
        <time>2022-05-25T13:58:15Z</time>
      </trkpt>
      <trkpt lat="49.91443" lon="1.95727">
        <ele>85.4</ele>
        <time>2022-05-25T13:58:16Z</time>
      </trkpt>
      <trkpt lat="49.91442" lon="1.95728">
        <ele>85.4</ele>
        <time>2022-05-25T13:58:17Z</time>
      </trkpt>
      <trkpt lat="49.91443" lon="1.95728">
        <ele>85.5</ele>
        <time>2022-05-25T13:58:20Z</time>
      </trkpt>
      <trkpt lat="49.91444" lon="1.95728">
        <ele>85.5</ele>
        <time>2022-05-25T13:58:21Z</time>
      </trkpt>
      <trkpt lat="49.91444" lon="1.95728">
        <ele>85.6</ele>
        <time>2022-05-25T13:58:22Z</time>
      </trkpt>
      <trkpt lat="49.91445" lon="1.95728">
        <ele>85.6</ele>
        <time>2022-05-25T13:58:23Z</time>
      </trkpt>
      <trkpt lat="49.91446" lon="1.95728">
        <ele>85.6</ele>
        <time>2022-05-25T13:58:25Z</time>
      </trkpt>
      <trkpt lat="49.91446" lon="1.95728">
        <ele>85.6</ele>
        <time>2022-05-25T13:58:26Z</time>
      </trkpt>
      <trkpt lat="49.91446" lon="1.95728">
        <ele>85.6</ele>
        <time>2022-05-25T13:58:27Z</time>
      </trkpt>
      <trkpt lat="49.91446" lon="1.95728">
        <ele>85.7</ele>
        <time>2022-05-25T13:58:28Z</time>
      </trkpt>
      <trkpt lat="49.91446" lon="1.95728">
        <ele>85.7</ele>
        <time>2022-05-25T13:58:30Z</time>
      </trkpt>
      <trkpt lat="49.91447" lon="1.95728">
        <ele>85.7</ele>
        <time>2022-05-25T13:58:32Z</time>
      </trkpt>
      <trkpt lat="49.91447" lon="1.95728">
        <ele>85.7</ele>
        <time>2022-05-25T13:58:34Z</time>
      </trkpt>
      <trkpt lat="49.91447" lon="1.95728">
        <ele>85.7</ele>
        <time>2022-05-25T13:58:36Z</time>
      </trkpt>
      <trkpt lat="49.91447" lon="1.95728">
        <ele>85.7</ele>
        <time>2022-05-25T13:58:37Z</time>
      </trkpt>
      <trkpt lat="49.91447" lon="1.95729">
        <ele>85.7</ele>
        <time>2022-05-25T13:58:38Z</time>
      </trkpt>
      <trkpt lat="49.91447" lon="1.95729">
        <ele>85.8</ele>
        <time>2022-05-25T13:58:39Z</time>
      </trkpt>
      <trkpt lat="49.91446" lon="1.95728">
        <ele>85.8</ele>
        <time>2022-05-25T13:58:41Z</time>
      </trkpt>
      <trkpt lat="49.91446" lon="1.95728">
        <ele>85.8</ele>
        <time>2022-05-25T13:58:42Z</time>
      </trkpt>
      <trkpt lat="49.91446" lon="1.95726">
        <ele>85.9</ele>
        <time>2022-05-25T13:58:43Z</time>
      </trkpt>
      <trkpt lat="49.91446" lon="1.95726">
        <ele>85.9</ele>
        <time>2022-05-25T13:58:44Z</time>
      </trkpt>
      <trkpt lat="49.91446" lon="1.95725">
        <ele>85.9</ele>
        <time>2022-05-25T13:58:45Z</time>
      </trkpt>
      <trkpt lat="49.91445" lon="1.95725">
        <ele>85.9</ele>
        <time>2022-05-25T13:58:46Z</time>
      </trkpt>
      <trkpt lat="49.91445" lon="1.95724">
        <ele>86</ele>
        <time>2022-05-25T13:58:47Z</time>
      </trkpt>
      <trkpt lat="49.91445" lon="1.95724">
        <ele>86</ele>
        <time>2022-05-25T13:58:48Z</time>
      </trkpt>
      <trkpt lat="49.91444" lon="1.95724">
        <ele>86</ele>
        <time>2022-05-25T13:58:49Z</time>
      </trkpt>
      <trkpt lat="49.91444" lon="1.95724">
        <ele>86</ele>
        <time>2022-05-25T13:58:50Z</time>
      </trkpt>
      <trkpt lat="49.91444" lon="1.95724">
        <ele>86</ele>
        <time>2022-05-25T13:58:51Z</time>
      </trkpt>
      <trkpt lat="49.91444" lon="1.95724">
        <ele>86</ele>
        <time>2022-05-25T13:58:52Z</time>
      </trkpt>
      <trkpt lat="49.91444" lon="1.95724">
        <ele>86.1</ele>
        <time>2022-05-25T13:58:53Z</time>
      </trkpt>
      <trkpt lat="49.91443" lon="1.95724">
        <ele>86.1</ele>
        <time>2022-05-25T13:58:54Z</time>
      </trkpt>
      <trkpt lat="49.91443" lon="1.95724">
        <ele>86.1</ele>
        <time>2022-05-25T13:58:56Z</time>
      </trkpt>
      <trkpt lat="49.91444" lon="1.95725">
        <ele>86.1</ele>
        <time>2022-05-25T13:58:57Z</time>
      </trkpt>
      <trkpt lat="49.91444" lon="1.95725">
        <ele>86.1</ele>
        <time>2022-05-25T13:58:58Z</time>
      </trkpt>
      <trkpt lat="49.91444" lon="1.95725">
        <ele>86.1</ele>
        <time>2022-05-25T13:58:59Z</time>
      </trkpt>
      <trkpt lat="49.91444" lon="1.95725">
        <ele>86.1</ele>
        <time>2022-05-25T13:59:00Z</time>
      </trkpt>
      <trkpt lat="49.91444" lon="1.95725">
        <ele>86.1</ele>
        <time>2022-05-25T13:59:02Z</time>
      </trkpt>
      <trkpt lat="49.91444" lon="1.95725">
        <ele>86.1</ele>
        <time>2022-05-25T13:59:03Z</time>
      </trkpt>
      <trkpt lat="49.91444" lon="1.95725">
        <ele>86.1</ele>
        <time>2022-05-25T13:59:04Z</time>
      </trkpt>
      <trkpt lat="49.91444" lon="1.95725">
        <ele>86.1</ele>
        <time>2022-05-25T13:59:05Z</time>
      </trkpt>
      <trkpt lat="49.91444" lon="1.95725">
        <ele>86.1</ele>
        <time>2022-05-25T13:59:06Z</time>
      </trkpt>
      <trkpt lat="49.91444" lon="1.95725">
        <ele>86.1</ele>
        <time>2022-05-25T13:59:07Z</time>
      </trkpt>
      <trkpt lat="49.91444" lon="1.95725">
        <ele>86.1</ele>
        <time>2022-05-25T13:59:08Z</time>
      </trkpt>
      <trkpt lat="49.91444" lon="1.95725">
        <ele>86.1</ele>
        <time>2022-05-25T13:59:09Z</time>
      </trkpt>
      <trkpt lat="49.91444" lon="1.95725">
        <ele>86.1</ele>
        <time>2022-05-25T13:59:10Z</time>
      </trkpt>
      <trkpt lat="49.91444" lon="1.95725">
        <ele>86.1</ele>
        <time>2022-05-25T13:59:11Z</time>
      </trkpt>
      <trkpt lat="49.91444" lon="1.95725">
        <ele>86.1</ele>
        <time>2022-05-25T13:59:12Z</time>
      </trkpt>
      <trkpt lat="49.91444" lon="1.95725">
        <ele>86.1</ele>
        <time>2022-05-25T13:59:13Z</time>
      </trkpt>
      <trkpt lat="49.91444" lon="1.95725">
        <ele>86.1</ele>
        <time>2022-05-25T13:59:14Z</time>
      </trkpt>
      <trkpt lat="49.91444" lon="1.95725">
        <ele>86.1</ele>
        <time>2022-05-25T13:59:15Z</time>
      </trkpt>
      <trkpt lat="49.91444" lon="1.95725">
        <ele>86.1</ele>
        <time>2022-05-25T13:59:16Z</time>
      </trkpt>
      <trkpt lat="49.91444" lon="1.95725">
        <ele>86.1</ele>
        <time>2022-05-25T13:59:17Z</time>
      </trkpt>
      <trkpt lat="49.91444" lon="1.95725">
        <ele>86.1</ele>
        <time>2022-05-25T13:59:18Z</time>
      </trkpt>
      <trkpt lat="49.91444" lon="1.95725">
        <ele>86.1</ele>
        <time>2022-05-25T13:59:19Z</time>
      </trkpt>
      <trkpt lat="49.91444" lon="1.95725">
        <ele>86.1</ele>
        <time>2022-05-25T13:59:20Z</time>
      </trkpt>
      <trkpt lat="49.91444" lon="1.95724">
        <ele>86.1</ele>
        <time>2022-05-25T13:59:21Z</time>
      </trkpt>
      <trkpt lat="49.91444" lon="1.95725">
        <ele>86.1</ele>
        <time>2022-05-25T13:59:22Z</time>
      </trkpt>
      <trkpt lat="49.91444" lon="1.95725">
        <ele>86.1</ele>
        <time>2022-05-25T13:59:23Z</time>
      </trkpt>
      <trkpt lat="49.91444" lon="1.95725">
        <ele>86.1</ele>
        <time>2022-05-25T13:59:24Z</time>
      </trkpt>
      <trkpt lat="49.91444" lon="1.95725">
        <ele>86.1</ele>
        <time>2022-05-25T13:59:25Z</time>
      </trkpt>
      <trkpt lat="49.91444" lon="1.95724">
        <ele>86.2</ele>
        <time>2022-05-25T13:59:27Z</time>
      </trkpt>
      <trkpt lat="49.91443" lon="1.95723">
        <ele>86.2</ele>
        <time>2022-05-25T13:59:28Z</time>
      </trkpt>
      <trkpt lat="49.91443" lon="1.95722">
        <ele>86.2</ele>
        <time>2022-05-25T13:59:29Z</time>
      </trkpt>
      <trkpt lat="49.91442" lon="1.95722">
        <ele>86.3</ele>
        <time>2022-05-25T13:59:30Z</time>
      </trkpt>
      <trkpt lat="49.91441" lon="1.95724">
        <ele>86.4</ele>
        <time>2022-05-25T13:59:32Z</time>
      </trkpt>
      <trkpt lat="49.9144" lon="1.95726">
        <ele>86.5</ele>
        <time>2022-05-25T13:59:33Z</time>
      </trkpt>
      <trkpt lat="49.91439" lon="1.95728">
        <ele>86.6</ele>
        <time>2022-05-25T13:59:34Z</time>
      </trkpt>
      <trkpt lat="49.91438" lon="1.95731">
        <ele>86.7</ele>
        <time>2022-05-25T13:59:35Z</time>
      </trkpt>
      <trkpt lat="49.91437" lon="1.95732">
        <ele>86.8</ele>
        <time>2022-05-25T13:59:36Z</time>
      </trkpt>
      <trkpt lat="49.91437" lon="1.95733">
        <ele>86.8</ele>
        <time>2022-05-25T13:59:38Z</time>
      </trkpt>
      <trkpt lat="49.91436" lon="1.95734">
        <ele>86.9</ele>
        <time>2022-05-25T13:59:39Z</time>
      </trkpt>
      <trkpt lat="49.91436" lon="1.95736">
        <ele>86.9</ele>
        <time>2022-05-25T13:59:40Z</time>
      </trkpt>
      <trkpt lat="49.91436" lon="1.95737">
        <ele>87</ele>
        <time>2022-05-25T13:59:41Z</time>
      </trkpt>
      <trkpt lat="49.91436" lon="1.95739">
        <ele>87</ele>
        <time>2022-05-25T13:59:43Z</time>
      </trkpt>
      <trkpt lat="49.91435" lon="1.9574">
        <ele>87.1</ele>
        <time>2022-05-25T13:59:44Z</time>
      </trkpt>
      <trkpt lat="49.91435" lon="1.95742">
        <ele>87.1</ele>
        <time>2022-05-25T13:59:45Z</time>
      </trkpt>
      <trkpt lat="49.91435" lon="1.95743">
        <ele>87.2</ele>
        <time>2022-05-25T13:59:46Z</time>
      </trkpt>
      <trkpt lat="49.91435" lon="1.95744">
        <ele>87.2</ele>
        <time>2022-05-25T13:59:47Z</time>
      </trkpt>
      <trkpt lat="49.91434" lon="1.95746">
        <ele>87.3</ele>
        <time>2022-05-25T13:59:48Z</time>
      </trkpt>
      <trkpt lat="49.91433" lon="1.95747">
        <ele>87.3</ele>
        <time>2022-05-25T13:59:49Z</time>
      </trkpt>
      <trkpt lat="49.91433" lon="1.95748">
        <ele>87.4</ele>
        <time>2022-05-25T13:59:51Z</time>
      </trkpt>
      <trkpt lat="49.91433" lon="1.95749">
        <ele>87.4</ele>
        <time>2022-05-25T13:59:52Z</time>
      </trkpt>
      <trkpt lat="49.91433" lon="1.9575">
        <ele>87.4</ele>
        <time>2022-05-25T13:59:53Z</time>
      </trkpt>
      <trkpt lat="49.91433" lon="1.9575">
        <ele>87.5</ele>
        <time>2022-05-25T13:59:54Z</time>
      </trkpt>
      <trkpt lat="49.91433" lon="1.95751">
        <ele>87.5</ele>
        <time>2022-05-25T13:59:55Z</time>
      </trkpt>
      <trkpt lat="49.91433" lon="1.95751">
        <ele>87.5</ele>
        <time>2022-05-25T13:59:56Z</time>
      </trkpt>
      <trkpt lat="49.91433" lon="1.9575">
        <ele>87.5</ele>
        <time>2022-05-25T13:59:57Z</time>
      </trkpt>
      <trkpt lat="49.91433" lon="1.9575">
        <ele>87.6</ele>
        <time>2022-05-25T13:59:59Z</time>
      </trkpt>
      <trkpt lat="49.91433" lon="1.95749">
        <ele>87.6</ele>
        <time>2022-05-25T14:00:00Z</time>
      </trkpt>
      <trkpt lat="49.91433" lon="1.95749">
        <ele>87.6</ele>
        <time>2022-05-25T14:00:01Z</time>
      </trkpt>
      <trkpt lat="49.91433" lon="1.95749">
        <ele>87.6</ele>
        <time>2022-05-25T14:00:02Z</time>
      </trkpt>
      <trkpt lat="49.91433" lon="1.95748">
        <ele>87.6</ele>
        <time>2022-05-25T14:00:03Z</time>
      </trkpt>
      <trkpt lat="49.91433" lon="1.95748">
        <ele>87.6</ele>
        <time>2022-05-25T14:00:04Z</time>
      </trkpt>
      <trkpt lat="49.91433" lon="1.95748">
        <ele>87.6</ele>
        <time>2022-05-25T14:00:05Z</time>
      </trkpt>
      <trkpt lat="49.91433" lon="1.95748">
        <ele>87.6</ele>
        <time>2022-05-25T14:00:06Z</time>
      </trkpt>
      <trkpt lat="49.91433" lon="1.95748">
        <ele>87.6</ele>
        <time>2022-05-25T14:00:07Z</time>
      </trkpt>
      <trkpt lat="49.91433" lon="1.95747">
        <ele>87.6</ele>
        <time>2022-05-25T14:00:08Z</time>
      </trkpt>
      <trkpt lat="49.91433" lon="1.95747">
        <ele>87.7</ele>
        <time>2022-05-25T14:00:09Z</time>
      </trkpt>
      <trkpt lat="49.91433" lon="1.95747">
        <ele>87.7</ele>
        <time>2022-05-25T14:00:10Z</time>
      </trkpt>
      <trkpt lat="49.91433" lon="1.95747">
        <ele>87.7</ele>
        <time>2022-05-25T14:00:11Z</time>
      </trkpt>
      <trkpt lat="49.91432" lon="1.95746">
        <ele>87.7</ele>
        <time>2022-05-25T14:00:12Z</time>
      </trkpt>
      <trkpt lat="49.91432" lon="1.95745">
        <ele>87.7</ele>
        <time>2022-05-25T14:00:13Z</time>
      </trkpt>
      <trkpt lat="49.91432" lon="1.95745">
        <ele>87.7</ele>
        <time>2022-05-25T14:00:14Z</time>
      </trkpt>
      <trkpt lat="49.91432" lon="1.95745">
        <ele>87.7</ele>
        <time>2022-05-25T14:00:15Z</time>
      </trkpt>
      <trkpt lat="49.91432" lon="1.95745">
        <ele>87.7</ele>
        <time>2022-05-25T14:00:16Z</time>
      </trkpt>
      <trkpt lat="49.91432" lon="1.95745">
        <ele>87.8</ele>
        <time>2022-05-25T14:00:17Z</time>
      </trkpt>
      <trkpt lat="49.91432" lon="1.95745">
        <ele>87.8</ele>
        <time>2022-05-25T14:00:19Z</time>
      </trkpt>
      <trkpt lat="49.91432" lon="1.95745">
        <ele>87.8</ele>
        <time>2022-05-25T14:00:20Z</time>
      </trkpt>
      <trkpt lat="49.91432" lon="1.95745">
        <ele>87.8</ele>
        <time>2022-05-25T14:00:21Z</time>
      </trkpt>
      <trkpt lat="49.91432" lon="1.95745">
        <ele>87.8</ele>
        <time>2022-05-25T14:00:22Z</time>
      </trkpt>
      <trkpt lat="49.91432" lon="1.95745">
        <ele>87.8</ele>
        <time>2022-05-25T14:00:23Z</time>
      </trkpt>
      <trkpt lat="49.91432" lon="1.95745">
        <ele>87.8</ele>
        <time>2022-05-25T14:00:24Z</time>
      </trkpt>
      <trkpt lat="49.91432" lon="1.95745">
        <ele>87.8</ele>
        <time>2022-05-25T14:00:25Z</time>
      </trkpt>
      <trkpt lat="49.91432" lon="1.95745">
        <ele>87.8</ele>
        <time>2022-05-25T14:00:26Z</time>
      </trkpt>
      <trkpt lat="49.91432" lon="1.95745">
        <ele>87.8</ele>
        <time>2022-05-25T14:00:27Z</time>
      </trkpt>
      <trkpt lat="49.91432" lon="1.95745">
        <ele>87.8</ele>
        <time>2022-05-25T14:00:28Z</time>
      </trkpt>
      <trkpt lat="49.91432" lon="1.95745">
        <ele>87.8</ele>
        <time>2022-05-25T14:00:29Z</time>
      </trkpt>
      <trkpt lat="49.91432" lon="1.95745">
        <ele>87.8</ele>
        <time>2022-05-25T14:00:30Z</time>
      </trkpt>
      <trkpt lat="49.91432" lon="1.95745">
        <ele>87.8</ele>
        <time>2022-05-25T14:00:31Z</time>
      </trkpt>
      <trkpt lat="49.91432" lon="1.95745">
        <ele>87.8</ele>
        <time>2022-05-25T14:00:33Z</time>
      </trkpt>
      <trkpt lat="49.91432" lon="1.95745">
        <ele>87.8</ele>
        <time>2022-05-25T14:00:34Z</time>
      </trkpt>
      <trkpt lat="49.91432" lon="1.95745">
        <ele>87.8</ele>
        <time>2022-05-25T14:00:35Z</time>
      </trkpt>
      <trkpt lat="49.91432" lon="1.95745">
        <ele>87.8</ele>
        <time>2022-05-25T14:00:36Z</time>
      </trkpt>
      <trkpt lat="49.91432" lon="1.95745">
        <ele>87.8</ele>
        <time>2022-05-25T14:00:37Z</time>
      </trkpt>
      <trkpt lat="49.91432" lon="1.95745">
        <ele>87.8</ele>
        <time>2022-05-25T14:00:39Z</time>
      </trkpt>
      <trkpt lat="49.91432" lon="1.95745">
        <ele>87.8</ele>
        <time>2022-05-25T14:00:40Z</time>
      </trkpt>
      <trkpt lat="49.91432" lon="1.95745">
        <ele>87.8</ele>
        <time>2022-05-25T14:00:42Z</time>
      </trkpt>
      <trkpt lat="49.91432" lon="1.95745">
        <ele>87.8</ele>
        <time>2022-05-25T14:00:44Z</time>
      </trkpt>
      <trkpt lat="49.91432" lon="1.95745">
        <ele>87.8</ele>
        <time>2022-05-25T14:00:45Z</time>
      </trkpt>
      <trkpt lat="49.91432" lon="1.95745">
        <ele>87.8</ele>
        <time>2022-05-25T14:00:46Z</time>
      </trkpt>
      <trkpt lat="49.91432" lon="1.95745">
        <ele>87.8</ele>
        <time>2022-05-25T14:00:47Z</time>
      </trkpt>
      <trkpt lat="49.91432" lon="1.95745">
        <ele>87.8</ele>
        <time>2022-05-25T14:00:48Z</time>
      </trkpt>
      <trkpt lat="49.91432" lon="1.95745">
        <ele>87.8</ele>
        <time>2022-05-25T14:00:49Z</time>
      </trkpt>
      <trkpt lat="49.91432" lon="1.95745">
        <ele>87.8</ele>
        <time>2022-05-25T14:00:50Z</time>
      </trkpt>
      <trkpt lat="49.91432" lon="1.95745">
        <ele>87.8</ele>
        <time>2022-05-25T14:00:51Z</time>
      </trkpt>
      <trkpt lat="49.91432" lon="1.95745">
        <ele>87.8</ele>
        <time>2022-05-25T14:00:52Z</time>
      </trkpt>
      <trkpt lat="49.91432" lon="1.95745">
        <ele>87.8</ele>
        <time>2022-05-25T14:00:53Z</time>
      </trkpt>
      <trkpt lat="49.91432" lon="1.95745">
        <ele>87.8</ele>
        <time>2022-05-25T14:00:54Z</time>
      </trkpt>
      <trkpt lat="49.91432" lon="1.95745">
        <ele>87.8</ele>
        <time>2022-05-25T14:00:55Z</time>
      </trkpt>
      <trkpt lat="49.91432" lon="1.95745">
        <ele>87.8</ele>
        <time>2022-05-25T14:00:56Z</time>
      </trkpt>
      <trkpt lat="49.91432" lon="1.95745">
        <ele>87.8</ele>
        <time>2022-05-25T14:00:57Z</time>
      </trkpt>
      <trkpt lat="49.91432" lon="1.95745">
        <ele>87.8</ele>
        <time>2022-05-25T14:00:58Z</time>
      </trkpt>
      <trkpt lat="49.91432" lon="1.95745">
        <ele>87.8</ele>
        <time>2022-05-25T14:01:00Z</time>
      </trkpt>
      <trkpt lat="49.91432" lon="1.95745">
        <ele>87.8</ele>
        <time>2022-05-25T14:01:01Z</time>
      </trkpt>
      <trkpt lat="49.91432" lon="1.95745">
        <ele>87.8</ele>
        <time>2022-05-25T14:01:02Z</time>
      </trkpt>
      <trkpt lat="49.91432" lon="1.95745">
        <ele>87.8</ele>
        <time>2022-05-25T14:01:03Z</time>
      </trkpt>
      <trkpt lat="49.91432" lon="1.95745">
        <ele>87.8</ele>
        <time>2022-05-25T14:01:04Z</time>
      </trkpt>
      <trkpt lat="49.91432" lon="1.95745">
        <ele>87.8</ele>
        <time>2022-05-25T14:01:05Z</time>
      </trkpt>
      <trkpt lat="49.91432" lon="1.95745">
        <ele>87.8</ele>
        <time>2022-05-25T14:01:06Z</time>
      </trkpt>
      <trkpt lat="49.91432" lon="1.95745">
        <ele>87.8</ele>
        <time>2022-05-25T14:01:07Z</time>
      </trkpt>
      <trkpt lat="49.91432" lon="1.95745">
        <ele>87.8</ele>
        <time>2022-05-25T14:01:08Z</time>
      </trkpt>
      <trkpt lat="49.91432" lon="1.95745">
        <ele>87.8</ele>
        <time>2022-05-25T14:01:09Z</time>
      </trkpt>
      <trkpt lat="49.91432" lon="1.95745">
        <ele>87.8</ele>
        <time>2022-05-25T14:01:10Z</time>
      </trkpt>
      <trkpt lat="49.91432" lon="1.95745">
        <ele>87.8</ele>
        <time>2022-05-25T14:01:11Z</time>
      </trkpt>
      <trkpt lat="49.91432" lon="1.95745">
        <ele>87.8</ele>
        <time>2022-05-25T14:01:12Z</time>
      </trkpt>
      <trkpt lat="49.91432" lon="1.95745">
        <ele>87.8</ele>
        <time>2022-05-25T14:01:13Z</time>
      </trkpt>
      <trkpt lat="49.91432" lon="1.95745">
        <ele>87.8</ele>
        <time>2022-05-25T14:01:14Z</time>
      </trkpt>
      <trkpt lat="49.91432" lon="1.95745">
        <ele>87.8</ele>
        <time>2022-05-25T14:01:15Z</time>
      </trkpt>
      <trkpt lat="49.91432" lon="1.95745">
        <ele>87.8</ele>
        <time>2022-05-25T14:01:16Z</time>
      </trkpt>
      <trkpt lat="49.91432" lon="1.95745">
        <ele>87.8</ele>
        <time>2022-05-25T14:01:17Z</time>
      </trkpt>
      <trkpt lat="49.91432" lon="1.95745">
        <ele>87.8</ele>
        <time>2022-05-25T14:01:18Z</time>
      </trkpt>
      <trkpt lat="49.91432" lon="1.95745">
        <ele>87.8</ele>
        <time>2022-05-25T14:01:20Z</time>
      </trkpt>
      <trkpt lat="49.91432" lon="1.95745">
        <ele>87.8</ele>
        <time>2022-05-25T14:01:21Z</time>
      </trkpt>
      <trkpt lat="49.91432" lon="1.95745">
        <ele>87.8</ele>
        <time>2022-05-25T14:01:22Z</time>
      </trkpt>
      <trkpt lat="49.91432" lon="1.95745">
        <ele>87.8</ele>
        <time>2022-05-25T14:01:23Z</time>
      </trkpt>
      <trkpt lat="49.91432" lon="1.95745">
        <ele>87.8</ele>
        <time>2022-05-25T14:01:24Z</time>
      </trkpt>
      <trkpt lat="49.91432" lon="1.95745">
        <ele>87.8</ele>
        <time>2022-05-25T14:01:25Z</time>
      </trkpt>
      <trkpt lat="49.91432" lon="1.95745">
        <ele>87.8</ele>
        <time>2022-05-25T14:01:27Z</time>
      </trkpt>
      <trkpt lat="49.91432" lon="1.95745">
        <ele>87.8</ele>
        <time>2022-05-25T14:01:29Z</time>
      </trkpt>
      <trkpt lat="49.91432" lon="1.95745">
        <ele>87.8</ele>
        <time>2022-05-25T14:01:30Z</time>
      </trkpt>
      <trkpt lat="49.91432" lon="1.95745">
        <ele>87.8</ele>
        <time>2022-05-25T14:01:32Z</time>
      </trkpt>
      <trkpt lat="49.91432" lon="1.95745">
        <ele>87.8</ele>
        <time>2022-05-25T14:01:33Z</time>
      </trkpt>
      <trkpt lat="49.91432" lon="1.95745">
        <ele>87.8</ele>
        <time>2022-05-25T14:01:35Z</time>
      </trkpt>
      <trkpt lat="49.91432" lon="1.95745">
        <ele>87.8</ele>
        <time>2022-05-25T14:01:36Z</time>
      </trkpt>
      <trkpt lat="49.91432" lon="1.95745">
        <ele>87.8</ele>
        <time>2022-05-25T14:01:37Z</time>
      </trkpt>
      <trkpt lat="49.91432" lon="1.95745">
        <ele>87.8</ele>
        <time>2022-05-25T14:01:38Z</time>
      </trkpt>
      <trkpt lat="49.91432" lon="1.95745">
        <ele>87.8</ele>
        <time>2022-05-25T14:01:39Z</time>
      </trkpt>
      <trkpt lat="49.91432" lon="1.95745">
        <ele>87.8</ele>
        <time>2022-05-25T14:01:40Z</time>
      </trkpt>
      <trkpt lat="49.91432" lon="1.95745">
        <ele>87.8</ele>
        <time>2022-05-25T14:01:41Z</time>
      </trkpt>
      <trkpt lat="49.91432" lon="1.95745">
        <ele>87.8</ele>
        <time>2022-05-25T14:01:42Z</time>
      </trkpt>
      <trkpt lat="49.91432" lon="1.95745">
        <ele>87.8</ele>
        <time>2022-05-25T14:01:43Z</time>
      </trkpt>
      <trkpt lat="49.91432" lon="1.95745">
        <ele>87.8</ele>
        <time>2022-05-25T14:01:44Z</time>
      </trkpt>
      <trkpt lat="49.91432" lon="1.95745">
        <ele>87.8</ele>
        <time>2022-05-25T14:01:45Z</time>
      </trkpt>
      <trkpt lat="49.91432" lon="1.95745">
        <ele>87.8</ele>
        <time>2022-05-25T14:01:46Z</time>
      </trkpt>
      <trkpt lat="49.91432" lon="1.95745">
        <ele>87.8</ele>
        <time>2022-05-25T14:01:48Z</time>
      </trkpt>
      <trkpt lat="49.91432" lon="1.95745">
        <ele>87.8</ele>
        <time>2022-05-25T14:01:50Z</time>
      </trkpt>
      <trkpt lat="49.91432" lon="1.95745">
        <ele>87.8</ele>
        <time>2022-05-25T14:01:51Z</time>
      </trkpt>
      <trkpt lat="49.91432" lon="1.95745">
        <ele>87.8</ele>
        <time>2022-05-25T14:01:52Z</time>
      </trkpt>
      <trkpt lat="49.91432" lon="1.95745">
        <ele>87.8</ele>
        <time>2022-05-25T14:01:54Z</time>
      </trkpt>
      <trkpt lat="49.91432" lon="1.95745">
        <ele>87.8</ele>
        <time>2022-05-25T14:01:55Z</time>
      </trkpt>
      <trkpt lat="49.91432" lon="1.95745">
        <ele>87.8</ele>
        <time>2022-05-25T14:01:56Z</time>
      </trkpt>
      <trkpt lat="49.91432" lon="1.95745">
        <ele>87.8</ele>
        <time>2022-05-25T14:01:57Z</time>
      </trkpt>
      <trkpt lat="49.91432" lon="1.95745">
        <ele>87.8</ele>
        <time>2022-05-25T14:01:58Z</time>
      </trkpt>
      <trkpt lat="49.91432" lon="1.95745">
        <ele>87.8</ele>
        <time>2022-05-25T14:01:59Z</time>
      </trkpt>
      <trkpt lat="49.91432" lon="1.95745">
        <ele>87.8</ele>
        <time>2022-05-25T14:02:00Z</time>
      </trkpt>
      <trkpt lat="49.91432" lon="1.95745">
        <ele>87.8</ele>
        <time>2022-05-25T14:02:01Z</time>
      </trkpt>
      <trkpt lat="49.91432" lon="1.95745">
        <ele>87.8</ele>
        <time>2022-05-25T14:02:02Z</time>
      </trkpt>
      <trkpt lat="49.91432" lon="1.95745">
        <ele>87.8</ele>
        <time>2022-05-25T14:02:03Z</time>
      </trkpt>
      <trkpt lat="49.91432" lon="1.95745">
        <ele>87.8</ele>
        <time>2022-05-25T14:02:04Z</time>
      </trkpt>
      <trkpt lat="49.91432" lon="1.95745">
        <ele>87.8</ele>
        <time>2022-05-25T14:02:05Z</time>
      </trkpt>
      <trkpt lat="49.91432" lon="1.95745">
        <ele>87.8</ele>
        <time>2022-05-25T14:02:07Z</time>
      </trkpt>
      <trkpt lat="49.91432" lon="1.95745">
        <ele>87.8</ele>
        <time>2022-05-25T14:02:08Z</time>
      </trkpt>
      <trkpt lat="49.91432" lon="1.95745">
        <ele>87.8</ele>
        <time>2022-05-25T14:02:09Z</time>
      </trkpt>
      <trkpt lat="49.91432" lon="1.95745">
        <ele>87.8</ele>
        <time>2022-05-25T14:02:10Z</time>
      </trkpt>
      <trkpt lat="49.91432" lon="1.95745">
        <ele>87.8</ele>
        <time>2022-05-25T14:02:11Z</time>
      </trkpt>
      <trkpt lat="49.91432" lon="1.95745">
        <ele>87.8</ele>
        <time>2022-05-25T14:02:12Z</time>
      </trkpt>
      <trkpt lat="49.91432" lon="1.95745">
        <ele>87.8</ele>
        <time>2022-05-25T14:02:13Z</time>
      </trkpt>
      <trkpt lat="49.91432" lon="1.95745">
        <ele>87.8</ele>
        <time>2022-05-25T14:02:15Z</time>
      </trkpt>
      <trkpt lat="49.91432" lon="1.95745">
        <ele>87.8</ele>
        <time>2022-05-25T14:02:16Z</time>
      </trkpt>
      <trkpt lat="49.91432" lon="1.95745">
        <ele>87.8</ele>
        <time>2022-05-25T14:02:17Z</time>
      </trkpt>
      <trkpt lat="49.91432" lon="1.95745">
        <ele>87.8</ele>
        <time>2022-05-25T14:02:18Z</time>
      </trkpt>
      <trkpt lat="49.91432" lon="1.95745">
        <ele>87.8</ele>
        <time>2022-05-25T14:02:19Z</time>
      </trkpt>
      <trkpt lat="49.91432" lon="1.95745">
        <ele>87.8</ele>
        <time>2022-05-25T14:02:20Z</time>
      </trkpt>
      <trkpt lat="49.91432" lon="1.95745">
        <ele>87.8</ele>
        <time>2022-05-25T14:02:22Z</time>
      </trkpt>
      <trkpt lat="49.91432" lon="1.95745">
        <ele>87.8</ele>
        <time>2022-05-25T14:02:23Z</time>
      </trkpt>
      <trkpt lat="49.91432" lon="1.95745">
        <ele>87.8</ele>
        <time>2022-05-25T14:02:24Z</time>
      </trkpt>
      <trkpt lat="49.91432" lon="1.95745">
        <ele>87.8</ele>
        <time>2022-05-25T14:02:25Z</time>
      </trkpt>
      <trkpt lat="49.91432" lon="1.95745">
        <ele>87.8</ele>
        <time>2022-05-25T14:02:26Z</time>
      </trkpt>
      <trkpt lat="49.91432" lon="1.95745">
        <ele>87.8</ele>
        <time>2022-05-25T14:02:27Z</time>
      </trkpt>
      <trkpt lat="49.91432" lon="1.95745">
        <ele>87.8</ele>
        <time>2022-05-25T14:02:28Z</time>
      </trkpt>
      <trkpt lat="49.91432" lon="1.95745">
        <ele>87.8</ele>
        <time>2022-05-25T14:02:29Z</time>
      </trkpt>
      <trkpt lat="49.91432" lon="1.95745">
        <ele>87.8</ele>
        <time>2022-05-25T14:02:31Z</time>
      </trkpt>
      <trkpt lat="49.91432" lon="1.95745">
        <ele>87.8</ele>
        <time>2022-05-25T14:02:32Z</time>
      </trkpt>
      <trkpt lat="49.91432" lon="1.95745">
        <ele>87.8</ele>
        <time>2022-05-25T14:02:33Z</time>
      </trkpt>
      <trkpt lat="49.91432" lon="1.95745">
        <ele>87.8</ele>
        <time>2022-05-25T14:02:34Z</time>
      </trkpt>
      <trkpt lat="49.91432" lon="1.95745">
        <ele>87.8</ele>
        <time>2022-05-25T14:02:35Z</time>
      </trkpt>
      <trkpt lat="49.91432" lon="1.95745">
        <ele>87.8</ele>
        <time>2022-05-25T14:02:37Z</time>
      </trkpt>
      <trkpt lat="49.91432" lon="1.95745">
        <ele>87.8</ele>
        <time>2022-05-25T14:02:38Z</time>
      </trkpt>
      <trkpt lat="49.91432" lon="1.95745">
        <ele>87.8</ele>
        <time>2022-05-25T14:02:39Z</time>
      </trkpt>
      <trkpt lat="49.91432" lon="1.95745">
        <ele>87.8</ele>
        <time>2022-05-25T14:02:40Z</time>
      </trkpt>
      <trkpt lat="49.91432" lon="1.95745">
        <ele>87.8</ele>
        <time>2022-05-25T14:02:41Z</time>
      </trkpt>
      <trkpt lat="49.91432" lon="1.95745">
        <ele>87.8</ele>
        <time>2022-05-25T14:02:43Z</time>
      </trkpt>
      <trkpt lat="49.91432" lon="1.95745">
        <ele>87.8</ele>
        <time>2022-05-25T14:02:44Z</time>
      </trkpt>
      <trkpt lat="49.91432" lon="1.95745">
        <ele>87.8</ele>
        <time>2022-05-25T14:02:45Z</time>
      </trkpt>
      <trkpt lat="49.91432" lon="1.95745">
        <ele>87.8</ele>
        <time>2022-05-25T14:02:46Z</time>
      </trkpt>
      <trkpt lat="49.91432" lon="1.95745">
        <ele>87.8</ele>
        <time>2022-05-25T14:02:47Z</time>
      </trkpt>
      <trkpt lat="49.91432" lon="1.95745">
        <ele>87.8</ele>
        <time>2022-05-25T14:02:48Z</time>
      </trkpt>
      <trkpt lat="49.91432" lon="1.95745">
        <ele>87.8</ele>
        <time>2022-05-25T14:02:49Z</time>
      </trkpt>
      <trkpt lat="49.91432" lon="1.95745">
        <ele>87.8</ele>
        <time>2022-05-25T14:02:51Z</time>
      </trkpt>
      <trkpt lat="49.91432" lon="1.95745">
        <ele>87.8</ele>
        <time>2022-05-25T14:02:52Z</time>
      </trkpt>
      <trkpt lat="49.91432" lon="1.95745">
        <ele>87.8</ele>
        <time>2022-05-25T14:02:53Z</time>
      </trkpt>
      <trkpt lat="49.91432" lon="1.95745">
        <ele>87.8</ele>
        <time>2022-05-25T14:02:55Z</time>
      </trkpt>
      <trkpt lat="49.91432" lon="1.95745">
        <ele>87.8</ele>
        <time>2022-05-25T14:02:56Z</time>
      </trkpt>
      <trkpt lat="49.91432" lon="1.95745">
        <ele>87.8</ele>
        <time>2022-05-25T14:02:57Z</time>
      </trkpt>
      <trkpt lat="49.91431" lon="1.95746">
        <ele>87.8</ele>
        <time>2022-05-25T14:02:58Z</time>
      </trkpt>
      <trkpt lat="49.9143" lon="1.95747">
        <ele>87.9</ele>
        <time>2022-05-25T14:02:59Z</time>
      </trkpt>
      <trkpt lat="49.9143" lon="1.95747">
        <ele>87.9</ele>
        <time>2022-05-25T14:03:00Z</time>
      </trkpt>
      <trkpt lat="49.9143" lon="1.95747">
        <ele>87.9</ele>
        <time>2022-05-25T14:03:01Z</time>
      </trkpt>
      <trkpt lat="49.9143" lon="1.95747">
        <ele>87.9</ele>
        <time>2022-05-25T14:03:02Z</time>
      </trkpt>
      <trkpt lat="49.9143" lon="1.95747">
        <ele>87.9</ele>
        <time>2022-05-25T14:03:03Z</time>
      </trkpt>
      <trkpt lat="49.9143" lon="1.95747">
        <ele>87.9</ele>
        <time>2022-05-25T14:03:04Z</time>
      </trkpt>
      <trkpt lat="49.9143" lon="1.95747">
        <ele>87.9</ele>
        <time>2022-05-25T14:03:05Z</time>
      </trkpt>
      <trkpt lat="49.9143" lon="1.95747">
        <ele>87.9</ele>
        <time>2022-05-25T14:03:06Z</time>
      </trkpt>
      <trkpt lat="49.9143" lon="1.95747">
        <ele>88</ele>
        <time>2022-05-25T14:03:07Z</time>
      </trkpt>
      <trkpt lat="49.91431" lon="1.95747">
        <ele>88</ele>
        <time>2022-05-25T14:03:08Z</time>
      </trkpt>
      <trkpt lat="49.91431" lon="1.95749">
        <ele>88</ele>
        <time>2022-05-25T14:03:10Z</time>
      </trkpt>
      <trkpt lat="49.91431" lon="1.95751">
        <ele>88.1</ele>
        <time>2022-05-25T14:03:11Z</time>
      </trkpt>
      <trkpt lat="49.9143" lon="1.95753">
        <ele>88.2</ele>
        <time>2022-05-25T14:03:12Z</time>
      </trkpt>
      <trkpt lat="49.9143" lon="1.95755">
        <ele>88.3</ele>
        <time>2022-05-25T14:03:13Z</time>
      </trkpt>
      <trkpt lat="49.91429" lon="1.95757">
        <ele>88.4</ele>
        <time>2022-05-25T14:03:14Z</time>
      </trkpt>
      <trkpt lat="49.91428" lon="1.95758">
        <ele>88.4</ele>
        <time>2022-05-25T14:03:15Z</time>
      </trkpt>
      <trkpt lat="49.91427" lon="1.95761">
        <ele>88.5</ele>
        <time>2022-05-25T14:03:17Z</time>
      </trkpt>
      <trkpt lat="49.91426" lon="1.95762">
        <ele>88.6</ele>
        <time>2022-05-25T14:03:18Z</time>
      </trkpt>
      <trkpt lat="49.91426" lon="1.95763">
        <ele>88.6</ele>
        <time>2022-05-25T14:03:19Z</time>
      </trkpt>
      <trkpt lat="49.91425" lon="1.95764">
        <ele>88.7</ele>
        <time>2022-05-25T14:03:20Z</time>
      </trkpt>
      <trkpt lat="49.91424" lon="1.95766">
        <ele>88.8</ele>
        <time>2022-05-25T14:03:21Z</time>
      </trkpt>
      <trkpt lat="49.91423" lon="1.95767">
        <ele>88.8</ele>
        <time>2022-05-25T14:03:22Z</time>
      </trkpt>
      <trkpt lat="49.91423" lon="1.95768">
        <ele>88.9</ele>
        <time>2022-05-25T14:03:24Z</time>
      </trkpt>
      <trkpt lat="49.91422" lon="1.95768">
        <ele>88.9</ele>
        <time>2022-05-25T14:03:25Z</time>
      </trkpt>
      <trkpt lat="49.91421" lon="1.95771">
        <ele>89</ele>
        <time>2022-05-25T14:03:26Z</time>
      </trkpt>
      <trkpt lat="49.9142" lon="1.95772">
        <ele>89.1</ele>
        <time>2022-05-25T14:03:27Z</time>
      </trkpt>
      <trkpt lat="49.9142" lon="1.95773">
        <ele>89.1</ele>
        <time>2022-05-25T14:03:28Z</time>
      </trkpt>
      <trkpt lat="49.91419" lon="1.95774">
        <ele>89.2</ele>
        <time>2022-05-25T14:03:30Z</time>
      </trkpt>
      <trkpt lat="49.91418" lon="1.95776">
        <ele>89.3</ele>
        <time>2022-05-25T14:03:31Z</time>
      </trkpt>
      <trkpt lat="49.91418" lon="1.95778">
        <ele>89.3</ele>
        <time>2022-05-25T14:03:32Z</time>
      </trkpt>
      <trkpt lat="49.91417" lon="1.95778">
        <ele>89.4</ele>
        <time>2022-05-25T14:03:33Z</time>
      </trkpt>
      <trkpt lat="49.91417" lon="1.95779">
        <ele>89.4</ele>
        <time>2022-05-25T14:03:34Z</time>
      </trkpt>
      <trkpt lat="49.91416" lon="1.9578">
        <ele>89.5</ele>
        <time>2022-05-25T14:03:36Z</time>
      </trkpt>
      <trkpt lat="49.91415" lon="1.95783">
        <ele>89.6</ele>
        <time>2022-05-25T14:03:37Z</time>
      </trkpt>
      <trkpt lat="49.91413" lon="1.95787">
        <ele>89.8</ele>
        <time>2022-05-25T14:03:39Z</time>
      </trkpt>
      <trkpt lat="49.91413" lon="1.95788">
        <ele>89.8</ele>
        <time>2022-05-25T14:03:40Z</time>
      </trkpt>
      <trkpt lat="49.91412" lon="1.95789">
        <ele>89.9</ele>
        <time>2022-05-25T14:03:42Z</time>
      </trkpt>
      <trkpt lat="49.91411" lon="1.95792">
        <ele>90</ele>
        <time>2022-05-25T14:03:43Z</time>
      </trkpt>
      <trkpt lat="49.9141" lon="1.95795">
        <ele>90.1</ele>
        <time>2022-05-25T14:03:44Z</time>
      </trkpt>
      <trkpt lat="49.9141" lon="1.95796">
        <ele>90.1</ele>
        <time>2022-05-25T14:03:45Z</time>
      </trkpt>
      <trkpt lat="49.9141" lon="1.95797">
        <ele>90.2</ele>
        <time>2022-05-25T14:03:46Z</time>
      </trkpt>
      <trkpt lat="49.91407" lon="1.95799">
        <ele>90.3</ele>
        <time>2022-05-25T14:03:48Z</time>
      </trkpt>
      <trkpt lat="49.91406" lon="1.958">
        <ele>90.4</ele>
        <time>2022-05-25T14:03:49Z</time>
      </trkpt>
      <trkpt lat="49.91405" lon="1.958">
        <ele>90.4</ele>
        <time>2022-05-25T14:03:51Z</time>
      </trkpt>
      <trkpt lat="49.91404" lon="1.95802">
        <ele>90.5</ele>
        <time>2022-05-25T14:03:52Z</time>
      </trkpt>
      <trkpt lat="49.91403" lon="1.95803">
        <ele>90.6</ele>
        <time>2022-05-25T14:03:54Z</time>
      </trkpt>
      <trkpt lat="49.91402" lon="1.95805">
        <ele>90.7</ele>
        <time>2022-05-25T14:03:55Z</time>
      </trkpt>
      <trkpt lat="49.91401" lon="1.95806">
        <ele>90.8</ele>
        <time>2022-05-25T14:03:57Z</time>
      </trkpt>
      <trkpt lat="49.914" lon="1.95808">
        <ele>90.8</ele>
        <time>2022-05-25T14:03:58Z</time>
      </trkpt>
      <trkpt lat="49.914" lon="1.95809">
        <ele>90.9</ele>
        <time>2022-05-25T14:03:59Z</time>
      </trkpt>
      <trkpt lat="49.91399" lon="1.95811">
        <ele>91</ele>
        <time>2022-05-25T14:04:01Z</time>
      </trkpt>
      <trkpt lat="49.91398" lon="1.95812">
        <ele>91</ele>
        <time>2022-05-25T14:04:02Z</time>
      </trkpt>
      <trkpt lat="49.91398" lon="1.95813">
        <ele>91.1</ele>
        <time>2022-05-25T14:04:03Z</time>
      </trkpt>
      <trkpt lat="49.91397" lon="1.95815">
        <ele>91.1</ele>
        <time>2022-05-25T14:04:04Z</time>
      </trkpt>
      <trkpt lat="49.91397" lon="1.95815">
        <ele>91.2</ele>
        <time>2022-05-25T14:04:06Z</time>
      </trkpt>
      <trkpt lat="49.91396" lon="1.95817">
        <ele>91.2</ele>
        <time>2022-05-25T14:04:07Z</time>
      </trkpt>
      <trkpt lat="49.91395" lon="1.95819">
        <ele>91.3</ele>
        <time>2022-05-25T14:04:08Z</time>
      </trkpt>
      <trkpt lat="49.91395" lon="1.95821">
        <ele>91.4</ele>
        <time>2022-05-25T14:04:09Z</time>
      </trkpt>
      <trkpt lat="49.91394" lon="1.95822">
        <ele>91.5</ele>
        <time>2022-05-25T14:04:10Z</time>
      </trkpt>
      <trkpt lat="49.91394" lon="1.95824">
        <ele>91.5</ele>
        <time>2022-05-25T14:04:12Z</time>
      </trkpt>
      <trkpt lat="49.91393" lon="1.95826">
        <ele>91.6</ele>
        <time>2022-05-25T14:04:13Z</time>
      </trkpt>
      <trkpt lat="49.91393" lon="1.95827">
        <ele>91.7</ele>
        <time>2022-05-25T14:04:14Z</time>
      </trkpt>
      <trkpt lat="49.91392" lon="1.95829">
        <ele>91.7</ele>
        <time>2022-05-25T14:04:15Z</time>
      </trkpt>
      <trkpt lat="49.91391" lon="1.95832">
        <ele>91.9</ele>
        <time>2022-05-25T14:04:16Z</time>
      </trkpt>
      <trkpt lat="49.9139" lon="1.95833">
        <ele>91.9</ele>
        <time>2022-05-25T14:04:17Z</time>
      </trkpt>
      <trkpt lat="49.91389" lon="1.95834">
        <ele>92</ele>
        <time>2022-05-25T14:04:19Z</time>
      </trkpt>
      <trkpt lat="49.91389" lon="1.95835">
        <ele>92</ele>
        <time>2022-05-25T14:04:20Z</time>
      </trkpt>
      <trkpt lat="49.91388" lon="1.95836">
        <ele>92.1</ele>
        <time>2022-05-25T14:04:21Z</time>
      </trkpt>
      <trkpt lat="49.91387" lon="1.95837">
        <ele>92.1</ele>
        <time>2022-05-25T14:04:22Z</time>
      </trkpt>
      <trkpt lat="49.91387" lon="1.95838">
        <ele>92.2</ele>
        <time>2022-05-25T14:04:23Z</time>
      </trkpt>
      <trkpt lat="49.91385" lon="1.9584">
        <ele>92.3</ele>
        <time>2022-05-25T14:04:25Z</time>
      </trkpt>
      <trkpt lat="49.91385" lon="1.95841">
        <ele>92.3</ele>
        <time>2022-05-25T14:04:26Z</time>
      </trkpt>
      <trkpt lat="49.91384" lon="1.95842">
        <ele>92.4</ele>
        <time>2022-05-25T14:04:27Z</time>
      </trkpt>
      <trkpt lat="49.91383" lon="1.95843">
        <ele>92.4</ele>
        <time>2022-05-25T14:04:28Z</time>
      </trkpt>
      <trkpt lat="49.91382" lon="1.95845">
        <ele>92.5</ele>
        <time>2022-05-25T14:04:29Z</time>
      </trkpt>
      <trkpt lat="49.91382" lon="1.95846">
        <ele>92.6</ele>
        <time>2022-05-25T14:04:31Z</time>
      </trkpt>
      <trkpt lat="49.91381" lon="1.95847">
        <ele>92.6</ele>
        <time>2022-05-25T14:04:32Z</time>
      </trkpt>
      <trkpt lat="49.9138" lon="1.95848">
        <ele>92.7</ele>
        <time>2022-05-25T14:04:33Z</time>
      </trkpt>
      <trkpt lat="49.91378" lon="1.9585">
        <ele>92.8</ele>
        <time>2022-05-25T14:04:35Z</time>
      </trkpt>
      <trkpt lat="49.91378" lon="1.95851">
        <ele>92.9</ele>
        <time>2022-05-25T14:04:36Z</time>
      </trkpt>
      <trkpt lat="49.91377" lon="1.95852">
        <ele>92.9</ele>
        <time>2022-05-25T14:04:37Z</time>
      </trkpt>
      <trkpt lat="49.91377" lon="1.95853">
        <ele>93</ele>
        <time>2022-05-25T14:04:38Z</time>
      </trkpt>
      <trkpt lat="49.91376" lon="1.95855">
        <ele>93</ele>
        <time>2022-05-25T14:04:39Z</time>
      </trkpt>
      <trkpt lat="49.91376" lon="1.95855">
        <ele>93.1</ele>
        <time>2022-05-25T14:04:41Z</time>
      </trkpt>
      <trkpt lat="49.91375" lon="1.95856">
        <ele>93.1</ele>
        <time>2022-05-25T14:04:42Z</time>
      </trkpt>
      <trkpt lat="49.91374" lon="1.95857">
        <ele>93.2</ele>
        <time>2022-05-25T14:04:43Z</time>
      </trkpt>
      <trkpt lat="49.91373" lon="1.95858">
        <ele>93.2</ele>
        <time>2022-05-25T14:04:44Z</time>
      </trkpt>
      <trkpt lat="49.91372" lon="1.95859">
        <ele>93.3</ele>
        <time>2022-05-25T14:04:45Z</time>
      </trkpt>
      <trkpt lat="49.91372" lon="1.9586">
        <ele>93.3</ele>
        <time>2022-05-25T14:04:46Z</time>
      </trkpt>
      <trkpt lat="49.91371" lon="1.95862">
        <ele>93.4</ele>
        <time>2022-05-25T14:04:48Z</time>
      </trkpt>
      <trkpt lat="49.9137" lon="1.95864">
        <ele>93.5</ele>
        <time>2022-05-25T14:04:49Z</time>
      </trkpt>
      <trkpt lat="49.91369" lon="1.95865">
        <ele>93.5</ele>
        <time>2022-05-25T14:04:50Z</time>
      </trkpt>
      <trkpt lat="49.91368" lon="1.95866">
        <ele>93.6</ele>
        <time>2022-05-25T14:04:51Z</time>
      </trkpt>
      <trkpt lat="49.91367" lon="1.95867">
        <ele>93.7</ele>
        <time>2022-05-25T14:04:53Z</time>
      </trkpt>
      <trkpt lat="49.91366" lon="1.95869">
        <ele>93.8</ele>
        <time>2022-05-25T14:04:55Z</time>
      </trkpt>
      <trkpt lat="49.91364" lon="1.95871">
        <ele>93.9</ele>
        <time>2022-05-25T14:04:57Z</time>
      </trkpt>
      <trkpt lat="49.91364" lon="1.95872">
        <ele>93.9</ele>
        <time>2022-05-25T14:04:58Z</time>
      </trkpt>
      <trkpt lat="49.91362" lon="1.95872">
        <ele>94</ele>
        <time>2022-05-25T14:05:00Z</time>
      </trkpt>
      <trkpt lat="49.91361" lon="1.95873">
        <ele>94.1</ele>
        <time>2022-05-25T14:05:01Z</time>
      </trkpt>
      <trkpt lat="49.9136" lon="1.95875">
        <ele>94.1</ele>
        <time>2022-05-25T14:05:02Z</time>
      </trkpt>
      <trkpt lat="49.9136" lon="1.95876">
        <ele>94.2</ele>
        <time>2022-05-25T14:05:04Z</time>
      </trkpt>
      <trkpt lat="49.91359" lon="1.95877">
        <ele>94.3</ele>
        <time>2022-05-25T14:05:05Z</time>
      </trkpt>
      <trkpt lat="49.91358" lon="1.95878">
        <ele>94.3</ele>
        <time>2022-05-25T14:05:07Z</time>
      </trkpt>
      <trkpt lat="49.91357" lon="1.95877">
        <ele>94.4</ele>
        <time>2022-05-25T14:05:08Z</time>
      </trkpt>
      <trkpt lat="49.91357" lon="1.95876">
        <ele>94.4</ele>
        <time>2022-05-25T14:05:10Z</time>
      </trkpt>
      <trkpt lat="49.91357" lon="1.95875">
        <ele>94.4</ele>
        <time>2022-05-25T14:05:11Z</time>
      </trkpt>
      <trkpt lat="49.91357" lon="1.95875">
        <ele>94.5</ele>
        <time>2022-05-25T14:05:12Z</time>
      </trkpt>
      <trkpt lat="49.91357" lon="1.95875">
        <ele>94.5</ele>
        <time>2022-05-25T14:05:13Z</time>
      </trkpt>
      <trkpt lat="49.91357" lon="1.95875">
        <ele>94.5</ele>
        <time>2022-05-25T14:05:15Z</time>
      </trkpt>
      <trkpt lat="49.91357" lon="1.95875">
        <ele>94.5</ele>
        <time>2022-05-25T14:05:16Z</time>
      </trkpt>
      <trkpt lat="49.91356" lon="1.95876">
        <ele>94.5</ele>
        <time>2022-05-25T14:05:17Z</time>
      </trkpt>
      <trkpt lat="49.91355" lon="1.95877">
        <ele>94.6</ele>
        <time>2022-05-25T14:05:18Z</time>
      </trkpt>
      <trkpt lat="49.91354" lon="1.95879">
        <ele>94.7</ele>
        <time>2022-05-25T14:05:19Z</time>
      </trkpt>
      <trkpt lat="49.91353" lon="1.9588">
        <ele>94.7</ele>
        <time>2022-05-25T14:05:21Z</time>
      </trkpt>
      <trkpt lat="49.91353" lon="1.9588">
        <ele>94.8</ele>
        <time>2022-05-25T14:05:22Z</time>
      </trkpt>
      <trkpt lat="49.91352" lon="1.95883">
        <ele>94.9</ele>
        <time>2022-05-25T14:05:23Z</time>
      </trkpt>
      <trkpt lat="49.91351" lon="1.95884">
        <ele>95</ele>
        <time>2022-05-25T14:05:24Z</time>
      </trkpt>
      <trkpt lat="49.91349" lon="1.95886">
        <ele>95</ele>
        <time>2022-05-25T14:05:25Z</time>
      </trkpt>
      <trkpt lat="49.91348" lon="1.95887">
        <ele>95.2</ele>
        <time>2022-05-25T14:05:27Z</time>
      </trkpt>
      <trkpt lat="49.91347" lon="1.95888">
        <ele>95.2</ele>
        <time>2022-05-25T14:05:29Z</time>
      </trkpt>
      <trkpt lat="49.91346" lon="1.9589">
        <ele>95.3</ele>
        <time>2022-05-25T14:05:30Z</time>
      </trkpt>
      <trkpt lat="49.91345" lon="1.95891">
        <ele>95.3</ele>
        <time>2022-05-25T14:05:31Z</time>
      </trkpt>
      <trkpt lat="49.91345" lon="1.95892">
        <ele>95.4</ele>
        <time>2022-05-25T14:05:32Z</time>
      </trkpt>
      <trkpt lat="49.91344" lon="1.95892">
        <ele>95.4</ele>
        <time>2022-05-25T14:05:33Z</time>
      </trkpt>
      <trkpt lat="49.91343" lon="1.95894">
        <ele>95.5</ele>
        <time>2022-05-25T14:05:35Z</time>
      </trkpt>
      <trkpt lat="49.91342" lon="1.95895">
        <ele>95.6</ele>
        <time>2022-05-25T14:05:36Z</time>
      </trkpt>
      <trkpt lat="49.91341" lon="1.95896">
        <ele>95.6</ele>
        <time>2022-05-25T14:05:37Z</time>
      </trkpt>
      <trkpt lat="49.91341" lon="1.95897">
        <ele>95.7</ele>
        <time>2022-05-25T14:05:38Z</time>
      </trkpt>
      <trkpt lat="49.9134" lon="1.95899">
        <ele>95.8</ele>
        <time>2022-05-25T14:05:40Z</time>
      </trkpt>
      <trkpt lat="49.91339" lon="1.959">
        <ele>95.8</ele>
        <time>2022-05-25T14:05:41Z</time>
      </trkpt>
      <trkpt lat="49.91338" lon="1.95901">
        <ele>95.9</ele>
        <time>2022-05-25T14:05:42Z</time>
      </trkpt>
      <trkpt lat="49.91337" lon="1.95902">
        <ele>96</ele>
        <time>2022-05-25T14:05:43Z</time>
      </trkpt>
      <trkpt lat="49.91335" lon="1.95904">
        <ele>96.1</ele>
        <time>2022-05-25T14:05:45Z</time>
      </trkpt>
      <trkpt lat="49.91335" lon="1.95905">
        <ele>96.1</ele>
        <time>2022-05-25T14:05:46Z</time>
      </trkpt>
      <trkpt lat="49.91333" lon="1.95906">
        <ele>96.3</ele>
        <time>2022-05-25T14:05:47Z</time>
      </trkpt>
      <trkpt lat="49.91332" lon="1.95907">
        <ele>96.3</ele>
        <time>2022-05-25T14:05:49Z</time>
      </trkpt>
      <trkpt lat="49.91331" lon="1.95908">
        <ele>96.4</ele>
        <time>2022-05-25T14:05:50Z</time>
      </trkpt>
      <trkpt lat="49.9133" lon="1.95909">
        <ele>96.4</ele>
        <time>2022-05-25T14:05:51Z</time>
      </trkpt>
      <trkpt lat="49.91329" lon="1.9591">
        <ele>96.5</ele>
        <time>2022-05-25T14:05:52Z</time>
      </trkpt>
      <trkpt lat="49.91328" lon="1.95911">
        <ele>96.6</ele>
        <time>2022-05-25T14:05:54Z</time>
      </trkpt>
      <trkpt lat="49.91326" lon="1.95913">
        <ele>96.7</ele>
        <time>2022-05-25T14:05:55Z</time>
      </trkpt>
      <trkpt lat="49.91324" lon="1.95914">
        <ele>96.8</ele>
        <time>2022-05-25T14:05:56Z</time>
      </trkpt>
      <trkpt lat="49.91324" lon="1.95915">
        <ele>96.8</ele>
        <time>2022-05-25T14:05:57Z</time>
      </trkpt>
      <trkpt lat="49.91323" lon="1.95915">
        <ele>96.9</ele>
        <time>2022-05-25T14:05:58Z</time>
      </trkpt>
      <trkpt lat="49.91321" lon="1.95917">
        <ele>97</ele>
        <time>2022-05-25T14:06:00Z</time>
      </trkpt>
      <trkpt lat="49.9132" lon="1.95918">
        <ele>97.1</ele>
        <time>2022-05-25T14:06:01Z</time>
      </trkpt>
      <trkpt lat="49.91319" lon="1.95919">
        <ele>97.2</ele>
        <time>2022-05-25T14:06:02Z</time>
      </trkpt>
      <trkpt lat="49.91318" lon="1.9592">
        <ele>97.2</ele>
        <time>2022-05-25T14:06:03Z</time>
      </trkpt>
      <trkpt lat="49.91316" lon="1.95921">
        <ele>97.3</ele>
        <time>2022-05-25T14:06:05Z</time>
      </trkpt>
      <trkpt lat="49.91315" lon="1.95923">
        <ele>97.4</ele>
        <time>2022-05-25T14:06:06Z</time>
      </trkpt>
      <trkpt lat="49.91314" lon="1.95924">
        <ele>97.5</ele>
        <time>2022-05-25T14:06:07Z</time>
      </trkpt>
      <trkpt lat="49.91313" lon="1.95924">
        <ele>97.5</ele>
        <time>2022-05-25T14:06:08Z</time>
      </trkpt>
      <trkpt lat="49.91312" lon="1.95927">
        <ele>97.6</ele>
        <time>2022-05-25T14:06:10Z</time>
      </trkpt>
      <trkpt lat="49.91311" lon="1.95928">
        <ele>97.7</ele>
        <time>2022-05-25T14:06:11Z</time>
      </trkpt>
      <trkpt lat="49.9131" lon="1.95929">
        <ele>97.8</ele>
        <time>2022-05-25T14:06:12Z</time>
      </trkpt>
      <trkpt lat="49.91309" lon="1.95929">
        <ele>97.8</ele>
        <time>2022-05-25T14:06:13Z</time>
      </trkpt>
      <trkpt lat="49.91307" lon="1.9593">
        <ele>97.9</ele>
        <time>2022-05-25T14:06:15Z</time>
      </trkpt>
      <trkpt lat="49.91306" lon="1.95931">
        <ele>98</ele>
        <time>2022-05-25T14:06:16Z</time>
      </trkpt>
      <trkpt lat="49.91305" lon="1.95933">
        <ele>98.1</ele>
        <time>2022-05-25T14:06:17Z</time>
      </trkpt>
      <trkpt lat="49.91304" lon="1.95934">
        <ele>98.1</ele>
        <time>2022-05-25T14:06:18Z</time>
      </trkpt>
      <trkpt lat="49.91303" lon="1.95935">
        <ele>98.2</ele>
        <time>2022-05-25T14:06:20Z</time>
      </trkpt>
      <trkpt lat="49.91302" lon="1.95936">
        <ele>98.3</ele>
        <time>2022-05-25T14:06:21Z</time>
      </trkpt>
      <trkpt lat="49.913" lon="1.95938">
        <ele>98.4</ele>
        <time>2022-05-25T14:06:22Z</time>
      </trkpt>
      <trkpt lat="49.913" lon="1.95939">
        <ele>98.5</ele>
        <time>2022-05-25T14:06:24Z</time>
      </trkpt>
      <trkpt lat="49.91299" lon="1.9594">
        <ele>98.5</ele>
        <time>2022-05-25T14:06:25Z</time>
      </trkpt>
      <trkpt lat="49.91298" lon="1.95941">
        <ele>98.6</ele>
        <time>2022-05-25T14:06:26Z</time>
      </trkpt>
      <trkpt lat="49.91297" lon="1.95942">
        <ele>98.6</ele>
        <time>2022-05-25T14:06:27Z</time>
      </trkpt>
      <trkpt lat="49.91296" lon="1.95942">
        <ele>98.7</ele>
        <time>2022-05-25T14:06:28Z</time>
      </trkpt>
      <trkpt lat="49.91294" lon="1.95944">
        <ele>98.8</ele>
        <time>2022-05-25T14:06:30Z</time>
      </trkpt>
      <trkpt lat="49.91293" lon="1.95945">
        <ele>98.9</ele>
        <time>2022-05-25T14:06:31Z</time>
      </trkpt>
      <trkpt lat="49.91292" lon="1.95946">
        <ele>99</ele>
        <time>2022-05-25T14:06:33Z</time>
      </trkpt>
      <trkpt lat="49.91291" lon="1.95947">
        <ele>99</ele>
        <time>2022-05-25T14:06:34Z</time>
      </trkpt>
      <trkpt lat="49.9129" lon="1.95947">
        <ele>99.1</ele>
        <time>2022-05-25T14:06:35Z</time>
      </trkpt>
      <trkpt lat="49.91289" lon="1.95948">
        <ele>99.1</ele>
        <time>2022-05-25T14:06:36Z</time>
      </trkpt>
      <trkpt lat="49.91288" lon="1.95949">
        <ele>99.2</ele>
        <time>2022-05-25T14:06:37Z</time>
      </trkpt>
      <trkpt lat="49.91288" lon="1.9595">
        <ele>99.2</ele>
        <time>2022-05-25T14:06:38Z</time>
      </trkpt>
      <trkpt lat="49.91286" lon="1.95952">
        <ele>99.4</ele>
        <time>2022-05-25T14:06:39Z</time>
      </trkpt>
      <trkpt lat="49.91285" lon="1.95953">
        <ele>99.4</ele>
        <time>2022-05-25T14:06:41Z</time>
      </trkpt>
      <trkpt lat="49.91284" lon="1.95954">
        <ele>99.5</ele>
        <time>2022-05-25T14:06:42Z</time>
      </trkpt>
      <trkpt lat="49.91284" lon="1.95955">
        <ele>99.5</ele>
        <time>2022-05-25T14:06:43Z</time>
      </trkpt>
      <trkpt lat="49.91283" lon="1.95956">
        <ele>99.6</ele>
        <time>2022-05-25T14:06:44Z</time>
      </trkpt>
      <trkpt lat="49.91282" lon="1.95958">
        <ele>99.7</ele>
        <time>2022-05-25T14:06:45Z</time>
      </trkpt>
      <trkpt lat="49.91281" lon="1.95959">
        <ele>99.7</ele>
        <time>2022-05-25T14:06:47Z</time>
      </trkpt>
      <trkpt lat="49.9128" lon="1.9596">
        <ele>99.8</ele>
        <time>2022-05-25T14:06:48Z</time>
      </trkpt>
      <trkpt lat="49.91279" lon="1.95961">
        <ele>99.8</ele>
        <time>2022-05-25T14:06:49Z</time>
      </trkpt>
      <trkpt lat="49.91278" lon="1.95962">
        <ele>99.9</ele>
        <time>2022-05-25T14:06:50Z</time>
      </trkpt>
      <trkpt lat="49.91278" lon="1.95963">
        <ele>100</ele>
        <time>2022-05-25T14:06:51Z</time>
      </trkpt>
      <trkpt lat="49.91277" lon="1.95964">
        <ele>100</ele>
        <time>2022-05-25T14:06:53Z</time>
      </trkpt>
      <trkpt lat="49.91276" lon="1.95965">
        <ele>100.1</ele>
        <time>2022-05-25T14:06:54Z</time>
      </trkpt>
      <trkpt lat="49.91275" lon="1.95966">
        <ele>100.2</ele>
        <time>2022-05-25T14:06:55Z</time>
      </trkpt>
      <trkpt lat="49.91274" lon="1.95967">
        <ele>100.2</ele>
        <time>2022-05-25T14:06:56Z</time>
      </trkpt>
      <trkpt lat="49.91273" lon="1.95968">
        <ele>100.3</ele>
        <time>2022-05-25T14:06:57Z</time>
      </trkpt>
      <trkpt lat="49.91272" lon="1.95968">
        <ele>100.3</ele>
        <time>2022-05-25T14:06:58Z</time>
      </trkpt>
      <trkpt lat="49.91271" lon="1.95969">
        <ele>100.4</ele>
        <time>2022-05-25T14:06:59Z</time>
      </trkpt>
      <trkpt lat="49.9127" lon="1.95971">
        <ele>100.5</ele>
        <time>2022-05-25T14:07:01Z</time>
      </trkpt>
      <trkpt lat="49.9127" lon="1.95972">
        <ele>100.5</ele>
        <time>2022-05-25T14:07:02Z</time>
      </trkpt>
      <trkpt lat="49.91269" lon="1.95973">
        <ele>100.6</ele>
        <time>2022-05-25T14:07:03Z</time>
      </trkpt>
      <trkpt lat="49.91268" lon="1.95974">
        <ele>100.6</ele>
        <time>2022-05-25T14:07:04Z</time>
      </trkpt>
      <trkpt lat="49.91267" lon="1.95975">
        <ele>100.7</ele>
        <time>2022-05-25T14:07:06Z</time>
      </trkpt>
      <trkpt lat="49.91265" lon="1.95977">
        <ele>100.8</ele>
        <time>2022-05-25T14:07:07Z</time>
      </trkpt>
      <trkpt lat="49.91264" lon="1.95977">
        <ele>100.9</ele>
        <time>2022-05-25T14:07:08Z</time>
      </trkpt>
      <trkpt lat="49.91263" lon="1.95979">
        <ele>101</ele>
        <time>2022-05-25T14:07:10Z</time>
      </trkpt>
      <trkpt lat="49.91262" lon="1.9598">
        <ele>101</ele>
        <time>2022-05-25T14:07:12Z</time>
      </trkpt>
      <trkpt lat="49.9126" lon="1.95982">
        <ele>101.2</ele>
        <time>2022-05-25T14:07:13Z</time>
      </trkpt>
      <trkpt lat="49.91259" lon="1.95983">
        <ele>101.2</ele>
        <time>2022-05-25T14:07:15Z</time>
      </trkpt>
      <trkpt lat="49.91258" lon="1.95984">
        <ele>101.3</ele>
        <time>2022-05-25T14:07:16Z</time>
      </trkpt>
      <trkpt lat="49.91257" lon="1.95985">
        <ele>101.3</ele>
        <time>2022-05-25T14:07:17Z</time>
      </trkpt>
      <trkpt lat="49.91256" lon="1.95986">
        <ele>101.4</ele>
        <time>2022-05-25T14:07:18Z</time>
      </trkpt>
      <trkpt lat="49.91255" lon="1.95987">
        <ele>101.5</ele>
        <time>2022-05-25T14:07:19Z</time>
      </trkpt>
      <trkpt lat="49.91254" lon="1.95988">
        <ele>101.5</ele>
        <time>2022-05-25T14:07:21Z</time>
      </trkpt>
      <trkpt lat="49.91253" lon="1.95988">
        <ele>101.6</ele>
        <time>2022-05-25T14:07:22Z</time>
      </trkpt>
      <trkpt lat="49.91251" lon="1.9599">
        <ele>101.7</ele>
        <time>2022-05-25T14:07:23Z</time>
      </trkpt>
      <trkpt lat="49.9125" lon="1.95991">
        <ele>101.8</ele>
        <time>2022-05-25T14:07:24Z</time>
      </trkpt>
      <trkpt lat="49.9125" lon="1.95992">
        <ele>101.9</ele>
        <time>2022-05-25T14:07:25Z</time>
      </trkpt>
      <trkpt lat="49.91249" lon="1.95993">
        <ele>101.9</ele>
        <time>2022-05-25T14:07:26Z</time>
      </trkpt>
      <trkpt lat="49.91248" lon="1.95995">
        <ele>102</ele>
        <time>2022-05-25T14:07:28Z</time>
      </trkpt>
      <trkpt lat="49.91247" lon="1.95996">
        <ele>102</ele>
        <time>2022-05-25T14:07:29Z</time>
      </trkpt>
      <trkpt lat="49.91245" lon="1.95998">
        <ele>102.2</ele>
        <time>2022-05-25T14:07:30Z</time>
      </trkpt>
      <trkpt lat="49.91245" lon="1.95998">
        <ele>102.2</ele>
        <time>2022-05-25T14:07:31Z</time>
      </trkpt>
      <trkpt lat="49.91244" lon="1.95999">
        <ele>102.2</ele>
        <time>2022-05-25T14:07:32Z</time>
      </trkpt>
      <trkpt lat="49.91243" lon="1.95999">
        <ele>102.3</ele>
        <time>2022-05-25T14:07:34Z</time>
      </trkpt>
      <trkpt lat="49.91242" lon="1.96">
        <ele>102.3</ele>
        <time>2022-05-25T14:07:35Z</time>
      </trkpt>
      <trkpt lat="49.91242" lon="1.96001">
        <ele>102.4</ele>
        <time>2022-05-25T14:07:36Z</time>
      </trkpt>
      <trkpt lat="49.91241" lon="1.96003">
        <ele>102.5</ele>
        <time>2022-05-25T14:07:37Z</time>
      </trkpt>
      <trkpt lat="49.9124" lon="1.96004">
        <ele>102.5</ele>
        <time>2022-05-25T14:07:38Z</time>
      </trkpt>
      <trkpt lat="49.91239" lon="1.96004">
        <ele>102.6</ele>
        <time>2022-05-25T14:07:39Z</time>
      </trkpt>
      <trkpt lat="49.91238" lon="1.96005">
        <ele>102.6</ele>
        <time>2022-05-25T14:07:40Z</time>
      </trkpt>
      <trkpt lat="49.91238" lon="1.96006">
        <ele>102.7</ele>
        <time>2022-05-25T14:07:42Z</time>
      </trkpt>
      <trkpt lat="49.91237" lon="1.96007">
        <ele>102.7</ele>
        <time>2022-05-25T14:07:43Z</time>
      </trkpt>
      <trkpt lat="49.91237" lon="1.96009">
        <ele>102.8</ele>
        <time>2022-05-25T14:07:44Z</time>
      </trkpt>
      <trkpt lat="49.91236" lon="1.9601">
        <ele>102.9</ele>
        <time>2022-05-25T14:07:45Z</time>
      </trkpt>
      <trkpt lat="49.91236" lon="1.96011">
        <ele>102.9</ele>
        <time>2022-05-25T14:07:46Z</time>
      </trkpt>
      <trkpt lat="49.91234" lon="1.96013">
        <ele>103</ele>
        <time>2022-05-25T14:07:48Z</time>
      </trkpt>
      <trkpt lat="49.91233" lon="1.96014">
        <ele>103.1</ele>
        <time>2022-05-25T14:07:50Z</time>
      </trkpt>
      <trkpt lat="49.91233" lon="1.96015">
        <ele>103.1</ele>
        <time>2022-05-25T14:07:51Z</time>
      </trkpt>
      <trkpt lat="49.91232" lon="1.96015">
        <ele>103.2</ele>
        <time>2022-05-25T14:07:52Z</time>
      </trkpt>
      <trkpt lat="49.91231" lon="1.96016">
        <ele>103.2</ele>
        <time>2022-05-25T14:07:53Z</time>
      </trkpt>
      <trkpt lat="49.9123" lon="1.96017">
        <ele>103.3</ele>
        <time>2022-05-25T14:07:54Z</time>
      </trkpt>
      <trkpt lat="49.91229" lon="1.96018">
        <ele>103.3</ele>
        <time>2022-05-25T14:07:56Z</time>
      </trkpt>
      <trkpt lat="49.91228" lon="1.96018">
        <ele>103.4</ele>
        <time>2022-05-25T14:07:57Z</time>
      </trkpt>
      <trkpt lat="49.91227" lon="1.96019">
        <ele>103.5</ele>
        <time>2022-05-25T14:07:58Z</time>
      </trkpt>
      <trkpt lat="49.91226" lon="1.9602">
        <ele>103.5</ele>
        <time>2022-05-25T14:07:59Z</time>
      </trkpt>
      <trkpt lat="49.91225" lon="1.9602">
        <ele>103.6</ele>
        <time>2022-05-25T14:08:01Z</time>
      </trkpt>
      <trkpt lat="49.91224" lon="1.96021">
        <ele>103.6</ele>
        <time>2022-05-25T14:08:02Z</time>
      </trkpt>
      <trkpt lat="49.91223" lon="1.96023">
        <ele>103.7</ele>
        <time>2022-05-25T14:08:03Z</time>
      </trkpt>
      <trkpt lat="49.91222" lon="1.96024">
        <ele>103.8</ele>
        <time>2022-05-25T14:08:04Z</time>
      </trkpt>
      <trkpt lat="49.91221" lon="1.96025">
        <ele>103.9</ele>
        <time>2022-05-25T14:08:05Z</time>
      </trkpt>
      <trkpt lat="49.9122" lon="1.96026">
        <ele>103.9</ele>
        <time>2022-05-25T14:08:06Z</time>
      </trkpt>
      <trkpt lat="49.9122" lon="1.96027">
        <ele>104</ele>
        <time>2022-05-25T14:08:07Z</time>
      </trkpt>
      <trkpt lat="49.91218" lon="1.96028">
        <ele>104</ele>
        <time>2022-05-25T14:08:09Z</time>
      </trkpt>
      <trkpt lat="49.91217" lon="1.9603">
        <ele>104.1</ele>
        <time>2022-05-25T14:08:10Z</time>
      </trkpt>
      <trkpt lat="49.91216" lon="1.9603">
        <ele>104.2</ele>
        <time>2022-05-25T14:08:11Z</time>
      </trkpt>
      <trkpt lat="49.91216" lon="1.96031">
        <ele>104.2</ele>
        <time>2022-05-25T14:08:13Z</time>
      </trkpt>
      <trkpt lat="49.91215" lon="1.96032">
        <ele>104.3</ele>
        <time>2022-05-25T14:08:14Z</time>
      </trkpt>
      <trkpt lat="49.91213" lon="1.96033">
        <ele>104.4</ele>
        <time>2022-05-25T14:08:15Z</time>
      </trkpt>
      <trkpt lat="49.91212" lon="1.96034">
        <ele>104.5</ele>
        <time>2022-05-25T14:08:16Z</time>
      </trkpt>
      <trkpt lat="49.91211" lon="1.96035">
        <ele>104.5</ele>
        <time>2022-05-25T14:08:17Z</time>
      </trkpt>
      <trkpt lat="49.91211" lon="1.96036">
        <ele>104.6</ele>
        <time>2022-05-25T14:08:19Z</time>
      </trkpt>
      <trkpt lat="49.9121" lon="1.96037">
        <ele>104.6</ele>
        <time>2022-05-25T14:08:20Z</time>
      </trkpt>
      <trkpt lat="49.91208" lon="1.96039">
        <ele>104.7</ele>
        <time>2022-05-25T14:08:21Z</time>
      </trkpt>
      <trkpt lat="49.91208" lon="1.9604">
        <ele>104.8</ele>
        <time>2022-05-25T14:08:22Z</time>
      </trkpt>
      <trkpt lat="49.91207" lon="1.96041">
        <ele>104.9</ele>
        <time>2022-05-25T14:08:23Z</time>
      </trkpt>
      <trkpt lat="49.91206" lon="1.96042">
        <ele>104.9</ele>
        <time>2022-05-25T14:08:25Z</time>
      </trkpt>
      <trkpt lat="49.91204" lon="1.96044">
        <ele>105</ele>
        <time>2022-05-25T14:08:26Z</time>
      </trkpt>
      <trkpt lat="49.91203" lon="1.96044">
        <ele>105.1</ele>
        <time>2022-05-25T14:08:27Z</time>
      </trkpt>
      <trkpt lat="49.91202" lon="1.96046">
        <ele>105.2</ele>
        <time>2022-05-25T14:08:29Z</time>
      </trkpt>
      <trkpt lat="49.91201" lon="1.96047">
        <ele>105.2</ele>
        <time>2022-05-25T14:08:30Z</time>
      </trkpt>
      <trkpt lat="49.912" lon="1.96048">
        <ele>105.3</ele>
        <time>2022-05-25T14:08:31Z</time>
      </trkpt>
      <trkpt lat="49.91199" lon="1.96049">
        <ele>105.4</ele>
        <time>2022-05-25T14:08:32Z</time>
      </trkpt>
      <trkpt lat="49.91198" lon="1.9605">
        <ele>105.4</ele>
        <time>2022-05-25T14:08:34Z</time>
      </trkpt>
      <trkpt lat="49.91197" lon="1.96052">
        <ele>105.5</ele>
        <time>2022-05-25T14:08:35Z</time>
      </trkpt>
      <trkpt lat="49.91195" lon="1.96054">
        <ele>105.6</ele>
        <time>2022-05-25T14:08:37Z</time>
      </trkpt>
      <trkpt lat="49.91194" lon="1.96054">
        <ele>105.7</ele>
        <time>2022-05-25T14:08:38Z</time>
      </trkpt>
      <trkpt lat="49.91194" lon="1.96055">
        <ele>105.7</ele>
        <time>2022-05-25T14:08:39Z</time>
      </trkpt>
      <trkpt lat="49.91192" lon="1.96056">
        <ele>105.8</ele>
        <time>2022-05-25T14:08:41Z</time>
      </trkpt>
      <trkpt lat="49.91191" lon="1.96057">
        <ele>105.9</ele>
        <time>2022-05-25T14:08:43Z</time>
      </trkpt>
      <trkpt lat="49.9119" lon="1.96059">
        <ele>106</ele>
        <time>2022-05-25T14:08:44Z</time>
      </trkpt>
      <trkpt lat="49.91189" lon="1.9606">
        <ele>106.1</ele>
        <time>2022-05-25T14:08:45Z</time>
      </trkpt>
      <trkpt lat="49.91188" lon="1.96061">
        <ele>106.1</ele>
        <time>2022-05-25T14:08:46Z</time>
      </trkpt>
      <trkpt lat="49.91187" lon="1.96062">
        <ele>106.2</ele>
        <time>2022-05-25T14:08:47Z</time>
      </trkpt>
      <trkpt lat="49.91186" lon="1.96063">
        <ele>106.2</ele>
        <time>2022-05-25T14:08:48Z</time>
      </trkpt>
      <trkpt lat="49.91184" lon="1.96064">
        <ele>106.4</ele>
        <time>2022-05-25T14:08:50Z</time>
      </trkpt>
      <trkpt lat="49.91183" lon="1.96065">
        <ele>106.4</ele>
        <time>2022-05-25T14:08:51Z</time>
      </trkpt>
      <trkpt lat="49.91183" lon="1.96065">
        <ele>106.5</ele>
        <time>2022-05-25T14:08:52Z</time>
      </trkpt>
      <trkpt lat="49.91181" lon="1.96067">
        <ele>106.6</ele>
        <time>2022-05-25T14:08:53Z</time>
      </trkpt>
      <trkpt lat="49.9118" lon="1.96068">
        <ele>106.6</ele>
        <time>2022-05-25T14:08:54Z</time>
      </trkpt>
      <trkpt lat="49.91179" lon="1.96068">
        <ele>106.7</ele>
        <time>2022-05-25T14:08:56Z</time>
      </trkpt>
      <trkpt lat="49.91178" lon="1.96069">
        <ele>106.7</ele>
        <time>2022-05-25T14:08:57Z</time>
      </trkpt>
      <trkpt lat="49.91177" lon="1.9607">
        <ele>106.8</ele>
        <time>2022-05-25T14:08:58Z</time>
      </trkpt>
      <trkpt lat="49.91176" lon="1.96071">
        <ele>106.9</ele>
        <time>2022-05-25T14:08:59Z</time>
      </trkpt>
      <trkpt lat="49.91175" lon="1.96073">
        <ele>107</ele>
        <time>2022-05-25T14:09:01Z</time>
      </trkpt>
      <trkpt lat="49.91174" lon="1.96074">
        <ele>107</ele>
        <time>2022-05-25T14:09:02Z</time>
      </trkpt>
      <trkpt lat="49.91173" lon="1.96075">
        <ele>107.1</ele>
        <time>2022-05-25T14:09:03Z</time>
      </trkpt>
      <trkpt lat="49.91173" lon="1.96076">
        <ele>107.1</ele>
        <time>2022-05-25T14:09:04Z</time>
      </trkpt>
      <trkpt lat="49.91172" lon="1.96077">
        <ele>107.2</ele>
        <time>2022-05-25T14:09:06Z</time>
      </trkpt>
      <trkpt lat="49.91171" lon="1.96078">
        <ele>107.3</ele>
        <time>2022-05-25T14:09:07Z</time>
      </trkpt>
      <trkpt lat="49.91169" lon="1.9608">
        <ele>107.4</ele>
        <time>2022-05-25T14:09:08Z</time>
      </trkpt>
      <trkpt lat="49.91169" lon="1.9608">
        <ele>107.4</ele>
        <time>2022-05-25T14:09:09Z</time>
      </trkpt>
      <trkpt lat="49.91168" lon="1.96081">
        <ele>107.5</ele>
        <time>2022-05-25T14:09:10Z</time>
      </trkpt>
      <trkpt lat="49.91166" lon="1.96083">
        <ele>107.6</ele>
        <time>2022-05-25T14:09:12Z</time>
      </trkpt>
      <trkpt lat="49.91165" lon="1.96083">
        <ele>107.6</ele>
        <time>2022-05-25T14:09:13Z</time>
      </trkpt>
      <trkpt lat="49.91164" lon="1.96084">
        <ele>107.7</ele>
        <time>2022-05-25T14:09:14Z</time>
      </trkpt>
      <trkpt lat="49.91162" lon="1.96086">
        <ele>107.8</ele>
        <time>2022-05-25T14:09:15Z</time>
      </trkpt>
      <trkpt lat="49.91162" lon="1.96087">
        <ele>107.9</ele>
        <time>2022-05-25T14:09:16Z</time>
      </trkpt>
      <trkpt lat="49.91161" lon="1.96087">
        <ele>107.9</ele>
        <time>2022-05-25T14:09:17Z</time>
      </trkpt>
      <trkpt lat="49.91159" lon="1.96089">
        <ele>108</ele>
        <time>2022-05-25T14:09:19Z</time>
      </trkpt>
      <trkpt lat="49.91159" lon="1.9609">
        <ele>108.1</ele>
        <time>2022-05-25T14:09:20Z</time>
      </trkpt>
      <trkpt lat="49.91158" lon="1.96091">
        <ele>108.1</ele>
        <time>2022-05-25T14:09:21Z</time>
      </trkpt>
      <trkpt lat="49.91156" lon="1.96092">
        <ele>108.2</ele>
        <time>2022-05-25T14:09:22Z</time>
      </trkpt>
      <trkpt lat="49.91155" lon="1.96093">
        <ele>108.3</ele>
        <time>2022-05-25T14:09:24Z</time>
      </trkpt>
      <trkpt lat="49.91154" lon="1.96094">
        <ele>108.4</ele>
        <time>2022-05-25T14:09:25Z</time>
      </trkpt>
      <trkpt lat="49.91153" lon="1.96095">
        <ele>108.4</ele>
        <time>2022-05-25T14:09:26Z</time>
      </trkpt>
      <trkpt lat="49.91152" lon="1.96096">
        <ele>108.5</ele>
        <time>2022-05-25T14:09:27Z</time>
      </trkpt>
      <trkpt lat="49.91151" lon="1.96098">
        <ele>108.6</ele>
        <time>2022-05-25T14:09:29Z</time>
      </trkpt>
      <trkpt lat="49.9115" lon="1.96099">
        <ele>108.6</ele>
        <time>2022-05-25T14:09:30Z</time>
      </trkpt>
      <trkpt lat="49.9115" lon="1.961">
        <ele>108.7</ele>
        <time>2022-05-25T14:09:32Z</time>
      </trkpt>
      <trkpt lat="49.91149" lon="1.96101">
        <ele>108.8</ele>
        <time>2022-05-25T14:09:34Z</time>
      </trkpt>
      <trkpt lat="49.91149" lon="1.96102">
        <ele>108.8</ele>
        <time>2022-05-25T14:09:35Z</time>
      </trkpt>
      <trkpt lat="49.91148" lon="1.96102">
        <ele>108.8</ele>
        <time>2022-05-25T14:09:36Z</time>
      </trkpt>
      <trkpt lat="49.91148" lon="1.96102">
        <ele>108.8</ele>
        <time>2022-05-25T14:09:37Z</time>
      </trkpt>
      <trkpt lat="49.91148" lon="1.96102">
        <ele>108.8</ele>
        <time>2022-05-25T14:09:38Z</time>
      </trkpt>
      <trkpt lat="49.91147" lon="1.96101">
        <ele>108.9</ele>
        <time>2022-05-25T14:09:39Z</time>
      </trkpt>
      <trkpt lat="49.91148" lon="1.96101">
        <ele>108.9</ele>
        <time>2022-05-25T14:09:41Z</time>
      </trkpt>
      <trkpt lat="49.91148" lon="1.961">
        <ele>108.9</ele>
        <time>2022-05-25T14:09:43Z</time>
      </trkpt>
      <trkpt lat="49.91148" lon="1.961">
        <ele>108.9</ele>
        <time>2022-05-25T14:09:44Z</time>
      </trkpt>
      <trkpt lat="49.91148" lon="1.961">
        <ele>108.9</ele>
        <time>2022-05-25T14:09:45Z</time>
      </trkpt>
      <trkpt lat="49.91148" lon="1.961">
        <ele>108.9</ele>
        <time>2022-05-25T14:09:46Z</time>
      </trkpt>
      <trkpt lat="49.91148" lon="1.961">
        <ele>108.9</ele>
        <time>2022-05-25T14:09:47Z</time>
      </trkpt>
      <trkpt lat="49.91148" lon="1.961">
        <ele>108.9</ele>
        <time>2022-05-25T14:09:48Z</time>
      </trkpt>
      <trkpt lat="49.91148" lon="1.961">
        <ele>108.9</ele>
        <time>2022-05-25T14:09:49Z</time>
      </trkpt>
      <trkpt lat="49.91148" lon="1.961">
        <ele>108.9</ele>
        <time>2022-05-25T14:09:50Z</time>
      </trkpt>
      <trkpt lat="49.91148" lon="1.961">
        <ele>108.9</ele>
        <time>2022-05-25T14:09:51Z</time>
      </trkpt>
      <trkpt lat="49.91148" lon="1.961">
        <ele>109</ele>
        <time>2022-05-25T14:09:52Z</time>
      </trkpt>
      <trkpt lat="49.91149" lon="1.961">
        <ele>109</ele>
        <time>2022-05-25T14:09:53Z</time>
      </trkpt>
      <trkpt lat="49.91149" lon="1.961">
        <ele>109</ele>
        <time>2022-05-25T14:09:54Z</time>
      </trkpt>
      <trkpt lat="49.91149" lon="1.961">
        <ele>109</ele>
        <time>2022-05-25T14:09:55Z</time>
      </trkpt>
      <trkpt lat="49.91149" lon="1.961">
        <ele>109</ele>
        <time>2022-05-25T14:09:56Z</time>
      </trkpt>
      <trkpt lat="49.91149" lon="1.961">
        <ele>109</ele>
        <time>2022-05-25T14:09:57Z</time>
      </trkpt>
      <trkpt lat="49.91149" lon="1.961">
        <ele>109</ele>
        <time>2022-05-25T14:09:58Z</time>
      </trkpt>
      <trkpt lat="49.91149" lon="1.961">
        <ele>109</ele>
        <time>2022-05-25T14:09:59Z</time>
      </trkpt>
      <trkpt lat="49.91149" lon="1.961">
        <ele>109</ele>
        <time>2022-05-25T14:10:00Z</time>
      </trkpt>
      <trkpt lat="49.91149" lon="1.961">
        <ele>109</ele>
        <time>2022-05-25T14:10:01Z</time>
      </trkpt>
      <trkpt lat="49.91149" lon="1.961">
        <ele>109</ele>
        <time>2022-05-25T14:10:02Z</time>
      </trkpt>
      <trkpt lat="49.91149" lon="1.961">
        <ele>109</ele>
        <time>2022-05-25T14:10:03Z</time>
      </trkpt>
      <trkpt lat="49.91149" lon="1.961">
        <ele>109</ele>
        <time>2022-05-25T14:10:04Z</time>
      </trkpt>
      <trkpt lat="49.91149" lon="1.961">
        <ele>109</ele>
        <time>2022-05-25T14:10:05Z</time>
      </trkpt>
      <trkpt lat="49.91149" lon="1.961">
        <ele>109</ele>
        <time>2022-05-25T14:10:06Z</time>
      </trkpt>
      <trkpt lat="49.91149" lon="1.961">
        <ele>109</ele>
        <time>2022-05-25T14:10:07Z</time>
      </trkpt>
      <trkpt lat="49.91149" lon="1.961">
        <ele>109</ele>
        <time>2022-05-25T14:10:08Z</time>
      </trkpt>
      <trkpt lat="49.91149" lon="1.961">
        <ele>109</ele>
        <time>2022-05-25T14:10:09Z</time>
      </trkpt>
      <trkpt lat="49.91149" lon="1.961">
        <ele>109</ele>
        <time>2022-05-25T14:10:10Z</time>
      </trkpt>
      <trkpt lat="49.91149" lon="1.961">
        <ele>109</ele>
        <time>2022-05-25T14:10:11Z</time>
      </trkpt>
      <trkpt lat="49.91149" lon="1.961">
        <ele>109</ele>
        <time>2022-05-25T14:10:12Z</time>
      </trkpt>
      <trkpt lat="49.91149" lon="1.961">
        <ele>109</ele>
        <time>2022-05-25T14:10:13Z</time>
      </trkpt>
      <trkpt lat="49.91149" lon="1.961">
        <ele>109</ele>
        <time>2022-05-25T14:10:14Z</time>
      </trkpt>
      <trkpt lat="49.91149" lon="1.961">
        <ele>109</ele>
        <time>2022-05-25T14:10:15Z</time>
      </trkpt>
      <trkpt lat="49.91149" lon="1.961">
        <ele>109</ele>
        <time>2022-05-25T14:10:16Z</time>
      </trkpt>
      <trkpt lat="49.91149" lon="1.961">
        <ele>109</ele>
        <time>2022-05-25T14:10:17Z</time>
      </trkpt>
      <trkpt lat="49.91149" lon="1.961">
        <ele>109</ele>
        <time>2022-05-25T14:10:18Z</time>
      </trkpt>
      <trkpt lat="49.91149" lon="1.961">
        <ele>109</ele>
        <time>2022-05-25T14:10:20Z</time>
      </trkpt>
      <trkpt lat="49.91149" lon="1.961">
        <ele>109</ele>
        <time>2022-05-25T14:10:21Z</time>
      </trkpt>
      <trkpt lat="49.91149" lon="1.961">
        <ele>109</ele>
        <time>2022-05-25T14:10:22Z</time>
      </trkpt>
      <trkpt lat="49.91149" lon="1.961">
        <ele>109</ele>
        <time>2022-05-25T14:10:23Z</time>
      </trkpt>
      <trkpt lat="49.91149" lon="1.961">
        <ele>109</ele>
        <time>2022-05-25T14:10:24Z</time>
      </trkpt>
      <trkpt lat="49.91149" lon="1.961">
        <ele>109</ele>
        <time>2022-05-25T14:10:25Z</time>
      </trkpt>
      <trkpt lat="49.91149" lon="1.961">
        <ele>109</ele>
        <time>2022-05-25T14:10:26Z</time>
      </trkpt>
      <trkpt lat="49.91149" lon="1.961">
        <ele>109</ele>
        <time>2022-05-25T14:10:27Z</time>
      </trkpt>
      <trkpt lat="49.91152" lon="1.96098">
        <ele>109.2</ele>
        <time>2022-05-25T14:10:29Z</time>
      </trkpt>
      <trkpt lat="49.91152" lon="1.96097">
        <ele>109.2</ele>
        <time>2022-05-25T14:10:30Z</time>
      </trkpt>
      <trkpt lat="49.91152" lon="1.96097">
        <ele>109.2</ele>
        <time>2022-05-25T14:10:32Z</time>
      </trkpt>
      <trkpt lat="49.91152" lon="1.96098">
        <ele>109.2</ele>
        <time>2022-05-25T14:10:33Z</time>
      </trkpt>
      <trkpt lat="49.91152" lon="1.96098">
        <ele>109.2</ele>
        <time>2022-05-25T14:10:34Z</time>
      </trkpt>
      <trkpt lat="49.91152" lon="1.96098">
        <ele>109.2</ele>
        <time>2022-05-25T14:10:35Z</time>
      </trkpt>
      <trkpt lat="49.91151" lon="1.96098">
        <ele>109.3</ele>
        <time>2022-05-25T14:10:36Z</time>
      </trkpt>
      <trkpt lat="49.91151" lon="1.96098">
        <ele>109.3</ele>
        <time>2022-05-25T14:10:37Z</time>
      </trkpt>
      <trkpt lat="49.91151" lon="1.96099">
        <ele>109.3</ele>
        <time>2022-05-25T14:10:39Z</time>
      </trkpt>
      <trkpt lat="49.91151" lon="1.96099">
        <ele>109.3</ele>
        <time>2022-05-25T14:10:40Z</time>
      </trkpt>
      <trkpt lat="49.9115" lon="1.961">
        <ele>109.4</ele>
        <time>2022-05-25T14:10:41Z</time>
      </trkpt>
      <trkpt lat="49.9115" lon="1.96102">
        <ele>109.4</ele>
        <time>2022-05-25T14:10:42Z</time>
      </trkpt>
      <trkpt lat="49.91149" lon="1.96103">
        <ele>109.5</ele>
        <time>2022-05-25T14:10:43Z</time>
      </trkpt>
      <trkpt lat="49.91148" lon="1.96104">
        <ele>109.6</ele>
        <time>2022-05-25T14:10:45Z</time>
      </trkpt>
      <trkpt lat="49.91146" lon="1.96105">
        <ele>109.7</ele>
        <time>2022-05-25T14:10:46Z</time>
      </trkpt>
      <trkpt lat="49.91145" lon="1.96106">
        <ele>109.7</ele>
        <time>2022-05-25T14:10:47Z</time>
      </trkpt>
      <trkpt lat="49.91144" lon="1.96107">
        <ele>109.8</ele>
        <time>2022-05-25T14:10:48Z</time>
      </trkpt>
      <trkpt lat="49.91143" lon="1.96108">
        <ele>109.9</ele>
        <time>2022-05-25T14:10:50Z</time>
      </trkpt>
      <trkpt lat="49.91142" lon="1.9611">
        <ele>110</ele>
        <time>2022-05-25T14:10:51Z</time>
      </trkpt>
      <trkpt lat="49.9114" lon="1.96111">
        <ele>110.1</ele>
        <time>2022-05-25T14:10:53Z</time>
      </trkpt>
      <trkpt lat="49.9114" lon="1.96112">
        <ele>110.1</ele>
        <time>2022-05-25T14:10:54Z</time>
      </trkpt>
      <trkpt lat="49.91139" lon="1.96113">
        <ele>110.2</ele>
        <time>2022-05-25T14:10:55Z</time>
      </trkpt>
      <trkpt lat="49.91138" lon="1.96115">
        <ele>110.2</ele>
        <time>2022-05-25T14:10:56Z</time>
      </trkpt>
      <trkpt lat="49.91137" lon="1.96116">
        <ele>110.3</ele>
        <time>2022-05-25T14:10:58Z</time>
      </trkpt>
      <trkpt lat="49.91136" lon="1.96117">
        <ele>110.4</ele>
        <time>2022-05-25T14:10:59Z</time>
      </trkpt>
      <trkpt lat="49.91134" lon="1.96117">
        <ele>110.5</ele>
        <time>2022-05-25T14:11:01Z</time>
      </trkpt>
      <trkpt lat="49.91133" lon="1.96118">
        <ele>110.5</ele>
        <time>2022-05-25T14:11:02Z</time>
      </trkpt>
      <trkpt lat="49.91133" lon="1.96118">
        <ele>110.6</ele>
        <time>2022-05-25T14:11:04Z</time>
      </trkpt>
      <trkpt lat="49.91132" lon="1.96119">
        <ele>110.6</ele>
        <time>2022-05-25T14:11:05Z</time>
      </trkpt>
      <trkpt lat="49.91131" lon="1.96119">
        <ele>110.7</ele>
        <time>2022-05-25T14:11:06Z</time>
      </trkpt>
      <trkpt lat="49.9113" lon="1.96119">
        <ele>110.7</ele>
        <time>2022-05-25T14:11:07Z</time>
      </trkpt>
      <trkpt lat="49.9113" lon="1.96119">
        <ele>110.7</ele>
        <time>2022-05-25T14:11:09Z</time>
      </trkpt>
      <trkpt lat="49.91129" lon="1.9612">
        <ele>110.8</ele>
        <time>2022-05-25T14:11:10Z</time>
      </trkpt>
      <trkpt lat="49.91129" lon="1.96121">
        <ele>110.8</ele>
        <time>2022-05-25T14:11:11Z</time>
      </trkpt>
      <trkpt lat="49.91128" lon="1.96122">
        <ele>110.9</ele>
        <time>2022-05-25T14:11:12Z</time>
      </trkpt>
      <trkpt lat="49.91127" lon="1.96124">
        <ele>111</ele>
        <time>2022-05-25T14:11:14Z</time>
      </trkpt>
      <trkpt lat="49.91126" lon="1.96125">
        <ele>111</ele>
        <time>2022-05-25T14:11:16Z</time>
      </trkpt>
      <trkpt lat="49.91126" lon="1.96126">
        <ele>111.1</ele>
        <time>2022-05-25T14:11:17Z</time>
      </trkpt>
      <trkpt lat="49.91125" lon="1.96126">
        <ele>111.1</ele>
        <time>2022-05-25T14:11:18Z</time>
      </trkpt>
      <trkpt lat="49.91124" lon="1.96127">
        <ele>111.2</ele>
        <time>2022-05-25T14:11:20Z</time>
      </trkpt>
      <trkpt lat="49.91123" lon="1.96127">
        <ele>111.3</ele>
        <time>2022-05-25T14:11:21Z</time>
      </trkpt>
      <trkpt lat="49.91121" lon="1.96127">
        <ele>111.3</ele>
        <time>2022-05-25T14:11:22Z</time>
      </trkpt>
      <trkpt lat="49.9112" lon="1.96128">
        <ele>111.4</ele>
        <time>2022-05-25T14:11:25Z</time>
      </trkpt>
      <trkpt lat="49.91119" lon="1.96128">
        <ele>111.5</ele>
        <time>2022-05-25T14:11:26Z</time>
      </trkpt>
      <trkpt lat="49.91118" lon="1.96128">
        <ele>111.5</ele>
        <time>2022-05-25T14:11:28Z</time>
      </trkpt>
      <trkpt lat="49.91117" lon="1.96129">
        <ele>111.5</ele>
        <time>2022-05-25T14:11:29Z</time>
      </trkpt>
      <trkpt lat="49.91117" lon="1.96129">
        <ele>111.6</ele>
        <time>2022-05-25T14:11:31Z</time>
      </trkpt>
      <trkpt lat="49.91116" lon="1.9613">
        <ele>111.6</ele>
        <time>2022-05-25T14:11:32Z</time>
      </trkpt>
      <trkpt lat="49.91115" lon="1.9613">
        <ele>111.7</ele>
        <time>2022-05-25T14:11:33Z</time>
      </trkpt>
      <trkpt lat="49.91114" lon="1.9613">
        <ele>111.7</ele>
        <time>2022-05-25T14:11:35Z</time>
      </trkpt>
      <trkpt lat="49.91114" lon="1.96131">
        <ele>111.7</ele>
        <time>2022-05-25T14:11:37Z</time>
      </trkpt>
      <trkpt lat="49.91114" lon="1.96133">
        <ele>111.8</ele>
        <time>2022-05-25T14:11:38Z</time>
      </trkpt>
      <trkpt lat="49.91114" lon="1.96134">
        <ele>111.8</ele>
        <time>2022-05-25T14:11:39Z</time>
      </trkpt>
      <trkpt lat="49.91114" lon="1.96135">
        <ele>111.9</ele>
        <time>2022-05-25T14:11:40Z</time>
      </trkpt>
      <trkpt lat="49.91113" lon="1.96136">
        <ele>111.9</ele>
        <time>2022-05-25T14:11:41Z</time>
      </trkpt>
      <trkpt lat="49.91113" lon="1.96137">
        <ele>111.9</ele>
        <time>2022-05-25T14:11:42Z</time>
      </trkpt>
      <trkpt lat="49.91114" lon="1.96139">
        <ele>112</ele>
        <time>2022-05-25T14:11:44Z</time>
      </trkpt>
      <trkpt lat="49.91114" lon="1.9614">
        <ele>112</ele>
        <time>2022-05-25T14:11:45Z</time>
      </trkpt>
      <trkpt lat="49.91115" lon="1.96143">
        <ele>112.1</ele>
        <time>2022-05-25T14:11:47Z</time>
      </trkpt>
      <trkpt lat="49.91115" lon="1.96144">
        <ele>112.2</ele>
        <time>2022-05-25T14:11:49Z</time>
      </trkpt>
      <trkpt lat="49.91114" lon="1.96146">
        <ele>112.2</ele>
        <time>2022-05-25T14:11:50Z</time>
      </trkpt>
      <trkpt lat="49.91114" lon="1.96147">
        <ele>112.3</ele>
        <time>2022-05-25T14:11:52Z</time>
      </trkpt>
      <trkpt lat="49.91113" lon="1.96148">
        <ele>112.3</ele>
        <time>2022-05-25T14:11:53Z</time>
      </trkpt>
      <trkpt lat="49.91112" lon="1.9615">
        <ele>112.4</ele>
        <time>2022-05-25T14:11:54Z</time>
      </trkpt>
      <trkpt lat="49.91112" lon="1.96151">
        <ele>112.4</ele>
        <time>2022-05-25T14:11:55Z</time>
      </trkpt>
      <trkpt lat="49.91111" lon="1.96152">
        <ele>112.4</ele>
        <time>2022-05-25T14:11:56Z</time>
      </trkpt>
      <trkpt lat="49.9111" lon="1.96153">
        <ele>112.5</ele>
        <time>2022-05-25T14:11:57Z</time>
      </trkpt>
      <trkpt lat="49.91108" lon="1.96154">
        <ele>112.6</ele>
        <time>2022-05-25T14:11:58Z</time>
      </trkpt>
      <trkpt lat="49.91108" lon="1.96155">
        <ele>112.6</ele>
        <time>2022-05-25T14:11:59Z</time>
      </trkpt>
      <trkpt lat="49.91107" lon="1.96156">
        <ele>112.7</ele>
        <time>2022-05-25T14:12:00Z</time>
      </trkpt>
      <trkpt lat="49.91106" lon="1.96156">
        <ele>112.8</ele>
        <time>2022-05-25T14:12:01Z</time>
      </trkpt>
      <trkpt lat="49.91105" lon="1.96157">
        <ele>112.8</ele>
        <time>2022-05-25T14:12:02Z</time>
      </trkpt>
      <trkpt lat="49.91104" lon="1.96157">
        <ele>112.9</ele>
        <time>2022-05-25T14:12:04Z</time>
      </trkpt>
      <trkpt lat="49.91103" lon="1.96158">
        <ele>112.9</ele>
        <time>2022-05-25T14:12:05Z</time>
      </trkpt>
      <trkpt lat="49.91103" lon="1.96159">
        <ele>112.9</ele>
        <time>2022-05-25T14:12:06Z</time>
      </trkpt>
      <trkpt lat="49.91102" lon="1.9616">
        <ele>113</ele>
        <time>2022-05-25T14:12:07Z</time>
      </trkpt>
      <trkpt lat="49.91101" lon="1.96161">
        <ele>113</ele>
        <time>2022-05-25T14:12:08Z</time>
      </trkpt>
      <trkpt lat="49.91101" lon="1.96162">
        <ele>113.1</ele>
        <time>2022-05-25T14:12:10Z</time>
      </trkpt>
      <trkpt lat="49.911" lon="1.96163">
        <ele>113.2</ele>
        <time>2022-05-25T14:12:11Z</time>
      </trkpt>
      <trkpt lat="49.91099" lon="1.96163">
        <ele>113.2</ele>
        <time>2022-05-25T14:12:12Z</time>
      </trkpt>
      <trkpt lat="49.91098" lon="1.96165">
        <ele>113.3</ele>
        <time>2022-05-25T14:12:13Z</time>
      </trkpt>
      <trkpt lat="49.91097" lon="1.96166">
        <ele>113.4</ele>
        <time>2022-05-25T14:12:14Z</time>
      </trkpt>
      <trkpt lat="49.91097" lon="1.96167">
        <ele>113.4</ele>
        <time>2022-05-25T14:12:15Z</time>
      </trkpt>
      <trkpt lat="49.91096" lon="1.9617">
        <ele>113.5</ele>
        <time>2022-05-25T14:12:17Z</time>
      </trkpt>
      <trkpt lat="49.91095" lon="1.96171">
        <ele>113.6</ele>
        <time>2022-05-25T14:12:18Z</time>
      </trkpt>
      <trkpt lat="49.91094" lon="1.96172">
        <ele>113.6</ele>
        <time>2022-05-25T14:12:20Z</time>
      </trkpt>
      <trkpt lat="49.91094" lon="1.96173">
        <ele>113.7</ele>
        <time>2022-05-25T14:12:21Z</time>
      </trkpt>
      <trkpt lat="49.91093" lon="1.96175">
        <ele>113.8</ele>
        <time>2022-05-25T14:12:22Z</time>
      </trkpt>
      <trkpt lat="49.91093" lon="1.96176">
        <ele>113.8</ele>
        <time>2022-05-25T14:12:23Z</time>
      </trkpt>
      <trkpt lat="49.91092" lon="1.96177">
        <ele>113.9</ele>
        <time>2022-05-25T14:12:25Z</time>
      </trkpt>
      <trkpt lat="49.91091" lon="1.96178">
        <ele>114</ele>
        <time>2022-05-25T14:12:26Z</time>
      </trkpt>
      <trkpt lat="49.9109" lon="1.96179">
        <ele>114</ele>
        <time>2022-05-25T14:12:27Z</time>
      </trkpt>
      <trkpt lat="49.91089" lon="1.9618">
        <ele>114.1</ele>
        <time>2022-05-25T14:12:28Z</time>
      </trkpt>
      <trkpt lat="49.91088" lon="1.9618">
        <ele>114.2</ele>
        <time>2022-05-25T14:12:29Z</time>
      </trkpt>
      <trkpt lat="49.91086" lon="1.96182">
        <ele>114.3</ele>
        <time>2022-05-25T14:12:31Z</time>
      </trkpt>
      <trkpt lat="49.91085" lon="1.96183">
        <ele>114.3</ele>
        <time>2022-05-25T14:12:33Z</time>
      </trkpt>
      <trkpt lat="49.91085" lon="1.96184">
        <ele>114.4</ele>
        <time>2022-05-25T14:12:34Z</time>
      </trkpt>
      <trkpt lat="49.91084" lon="1.96185">
        <ele>114.4</ele>
        <time>2022-05-25T14:12:35Z</time>
      </trkpt>
      <trkpt lat="49.91083" lon="1.96186">
        <ele>114.5</ele>
        <time>2022-05-25T14:12:36Z</time>
      </trkpt>
      <trkpt lat="49.91082" lon="1.96186">
        <ele>114.5</ele>
        <time>2022-05-25T14:12:37Z</time>
      </trkpt>
      <trkpt lat="49.91082" lon="1.96187">
        <ele>114.6</ele>
        <time>2022-05-25T14:12:39Z</time>
      </trkpt>
      <trkpt lat="49.9108" lon="1.96187">
        <ele>114.7</ele>
        <time>2022-05-25T14:12:40Z</time>
      </trkpt>
      <trkpt lat="49.91079" lon="1.96187">
        <ele>114.7</ele>
        <time>2022-05-25T14:12:42Z</time>
      </trkpt>
      <trkpt lat="49.91078" lon="1.96187">
        <ele>114.8</ele>
        <time>2022-05-25T14:12:43Z</time>
      </trkpt>
      <trkpt lat="49.91077" lon="1.96188">
        <ele>114.9</ele>
        <time>2022-05-25T14:12:44Z</time>
      </trkpt>
      <trkpt lat="49.91077" lon="1.96188">
        <ele>114.9</ele>
        <time>2022-05-25T14:12:45Z</time>
      </trkpt>
      <trkpt lat="49.91076" lon="1.96188">
        <ele>114.9</ele>
        <time>2022-05-25T14:12:47Z</time>
      </trkpt>
      <trkpt lat="49.91076" lon="1.96189">
        <ele>115</ele>
        <time>2022-05-25T14:12:48Z</time>
      </trkpt>
      <trkpt lat="49.91075" lon="1.96189">
        <ele>115</ele>
        <time>2022-05-25T14:12:49Z</time>
      </trkpt>
      <trkpt lat="49.91074" lon="1.9619">
        <ele>115.1</ele>
        <time>2022-05-25T14:12:50Z</time>
      </trkpt>
      <trkpt lat="49.91074" lon="1.96192">
        <ele>115.2</ele>
        <time>2022-05-25T14:12:52Z</time>
      </trkpt>
      <trkpt lat="49.91074" lon="1.96193">
        <ele>115.2</ele>
        <time>2022-05-25T14:12:53Z</time>
      </trkpt>
      <trkpt lat="49.91073" lon="1.96195">
        <ele>115.3</ele>
        <time>2022-05-25T14:12:54Z</time>
      </trkpt>
      <trkpt lat="49.91073" lon="1.96197">
        <ele>115.4</ele>
        <time>2022-05-25T14:12:55Z</time>
      </trkpt>
      <trkpt lat="49.91072" lon="1.96198">
        <ele>115.5</ele>
        <time>2022-05-25T14:12:57Z</time>
      </trkpt>
      <trkpt lat="49.91072" lon="1.962">
        <ele>115.6</ele>
        <time>2022-05-25T14:12:58Z</time>
      </trkpt>
      <trkpt lat="49.91071" lon="1.96202">
        <ele>115.7</ele>
        <time>2022-05-25T14:12:59Z</time>
      </trkpt>
      <trkpt lat="49.9107" lon="1.96204">
        <ele>115.9</ele>
        <time>2022-05-25T14:13:00Z</time>
      </trkpt>
      <trkpt lat="49.91069" lon="1.96205">
        <ele>116</ele>
        <time>2022-05-25T14:13:01Z</time>
      </trkpt>
      <trkpt lat="49.91068" lon="1.96206">
        <ele>116.1</ele>
        <time>2022-05-25T14:13:03Z</time>
      </trkpt>
      <trkpt lat="49.91067" lon="1.96208">
        <ele>116.2</ele>
        <time>2022-05-25T14:13:04Z</time>
      </trkpt>
      <trkpt lat="49.91066" lon="1.9621">
        <ele>116.3</ele>
        <time>2022-05-25T14:13:05Z</time>
      </trkpt>
      <trkpt lat="49.91065" lon="1.96211">
        <ele>116.4</ele>
        <time>2022-05-25T14:13:06Z</time>
      </trkpt>
      <trkpt lat="49.91064" lon="1.96214">
        <ele>116.6</ele>
        <time>2022-05-25T14:13:08Z</time>
      </trkpt>
      <trkpt lat="49.91064" lon="1.96215">
        <ele>116.6</ele>
        <time>2022-05-25T14:13:09Z</time>
      </trkpt>
      <trkpt lat="49.91063" lon="1.96216">
        <ele>116.7</ele>
        <time>2022-05-25T14:13:10Z</time>
      </trkpt>
      <trkpt lat="49.91062" lon="1.96219">
        <ele>116.8</ele>
        <time>2022-05-25T14:13:11Z</time>
      </trkpt>
      <trkpt lat="49.91061" lon="1.9622">
        <ele>116.9</ele>
        <time>2022-05-25T14:13:12Z</time>
      </trkpt>
      <trkpt lat="49.91061" lon="1.96221">
        <ele>116.9</ele>
        <time>2022-05-25T14:13:13Z</time>
      </trkpt>
      <trkpt lat="49.9106" lon="1.96222">
        <ele>117</ele>
        <time>2022-05-25T14:13:15Z</time>
      </trkpt>
      <trkpt lat="49.91059" lon="1.96225">
        <ele>117.1</ele>
        <time>2022-05-25T14:13:16Z</time>
      </trkpt>
      <trkpt lat="49.91058" lon="1.96226">
        <ele>117.2</ele>
        <time>2022-05-25T14:13:18Z</time>
      </trkpt>
      <trkpt lat="49.91057" lon="1.96228">
        <ele>117.3</ele>
        <time>2022-05-25T14:13:19Z</time>
      </trkpt>
      <trkpt lat="49.91056" lon="1.9623">
        <ele>117.3</ele>
        <time>2022-05-25T14:13:20Z</time>
      </trkpt>
      <trkpt lat="49.91056" lon="1.96232">
        <ele>117.4</ele>
        <time>2022-05-25T14:13:21Z</time>
      </trkpt>
      <trkpt lat="49.91055" lon="1.96233">
        <ele>117.4</ele>
        <time>2022-05-25T14:13:23Z</time>
      </trkpt>
      <trkpt lat="49.91054" lon="1.96235">
        <ele>117.5</ele>
        <time>2022-05-25T14:13:24Z</time>
      </trkpt>
      <trkpt lat="49.91053" lon="1.96237">
        <ele>117.6</ele>
        <time>2022-05-25T14:13:25Z</time>
      </trkpt>
      <trkpt lat="49.91052" lon="1.96239">
        <ele>117.6</ele>
        <time>2022-05-25T14:13:26Z</time>
      </trkpt>
      <trkpt lat="49.91052" lon="1.9624">
        <ele>117.7</ele>
        <time>2022-05-25T14:13:27Z</time>
      </trkpt>
      <trkpt lat="49.91051" lon="1.96243">
        <ele>117.7</ele>
        <time>2022-05-25T14:13:29Z</time>
      </trkpt>
      <trkpt lat="49.9105" lon="1.96245">
        <ele>117.8</ele>
        <time>2022-05-25T14:13:31Z</time>
      </trkpt>
      <trkpt lat="49.91049" lon="1.96247">
        <ele>117.9</ele>
        <time>2022-05-25T14:13:32Z</time>
      </trkpt>
      <trkpt lat="49.91049" lon="1.96248">
        <ele>118</ele>
        <time>2022-05-25T14:13:33Z</time>
      </trkpt>
      <trkpt lat="49.91048" lon="1.9625">
        <ele>118</ele>
        <time>2022-05-25T14:13:35Z</time>
      </trkpt>
      <trkpt lat="49.91047" lon="1.96252">
        <ele>118.1</ele>
        <time>2022-05-25T14:13:36Z</time>
      </trkpt>
      <trkpt lat="49.91047" lon="1.96253">
        <ele>118.2</ele>
        <time>2022-05-25T14:13:38Z</time>
      </trkpt>
      <trkpt lat="49.91047" lon="1.96254">
        <ele>118.2</ele>
        <time>2022-05-25T14:13:39Z</time>
      </trkpt>
      <trkpt lat="49.91046" lon="1.96255">
        <ele>118.3</ele>
        <time>2022-05-25T14:13:40Z</time>
      </trkpt>
      <trkpt lat="49.91045" lon="1.96257">
        <ele>118.4</ele>
        <time>2022-05-25T14:13:41Z</time>
      </trkpt>
      <trkpt lat="49.91044" lon="1.96258">
        <ele>118.5</ele>
        <time>2022-05-25T14:13:43Z</time>
      </trkpt>
      <trkpt lat="49.91043" lon="1.9626">
        <ele>118.6</ele>
        <time>2022-05-25T14:13:44Z</time>
      </trkpt>
      <trkpt lat="49.91042" lon="1.96261">
        <ele>118.7</ele>
        <time>2022-05-25T14:13:46Z</time>
      </trkpt>
      <trkpt lat="49.91041" lon="1.96263">
        <ele>118.8</ele>
        <time>2022-05-25T14:13:47Z</time>
      </trkpt>
      <trkpt lat="49.91041" lon="1.96265">
        <ele>118.9</ele>
        <time>2022-05-25T14:13:48Z</time>
      </trkpt>
      <trkpt lat="49.9104" lon="1.96266">
        <ele>119</ele>
        <time>2022-05-25T14:13:49Z</time>
      </trkpt>
      <trkpt lat="49.9104" lon="1.96267">
        <ele>119.1</ele>
        <time>2022-05-25T14:13:50Z</time>
      </trkpt>
      <trkpt lat="49.91039" lon="1.96269">
        <ele>119.2</ele>
        <time>2022-05-25T14:13:52Z</time>
      </trkpt>
      <trkpt lat="49.91038" lon="1.9627">
        <ele>119.3</ele>
        <time>2022-05-25T14:13:53Z</time>
      </trkpt>
      <trkpt lat="49.91037" lon="1.96271">
        <ele>119.3</ele>
        <time>2022-05-25T14:13:54Z</time>
      </trkpt>
      <trkpt lat="49.91037" lon="1.96272">
        <ele>119.4</ele>
        <time>2022-05-25T14:13:56Z</time>
      </trkpt>
      <trkpt lat="49.91035" lon="1.96274">
        <ele>119.6</ele>
        <time>2022-05-25T14:13:57Z</time>
      </trkpt>
      <trkpt lat="49.91035" lon="1.96274">
        <ele>119.6</ele>
        <time>2022-05-25T14:13:59Z</time>
      </trkpt>
      <trkpt lat="49.91034" lon="1.96275">
        <ele>119.7</ele>
        <time>2022-05-25T14:14:00Z</time>
      </trkpt>
      <trkpt lat="49.91033" lon="1.96276">
        <ele>119.8</ele>
        <time>2022-05-25T14:14:01Z</time>
      </trkpt>
      <trkpt lat="49.91032" lon="1.96278">
        <ele>119.9</ele>
        <time>2022-05-25T14:14:02Z</time>
      </trkpt>
      <trkpt lat="49.91031" lon="1.96279">
        <ele>119.9</ele>
        <time>2022-05-25T14:14:03Z</time>
      </trkpt>
      <trkpt lat="49.91031" lon="1.9628">
        <ele>120</ele>
        <time>2022-05-25T14:14:04Z</time>
      </trkpt>
      <trkpt lat="49.9103" lon="1.96281">
        <ele>120.1</ele>
        <time>2022-05-25T14:14:05Z</time>
      </trkpt>
      <trkpt lat="49.9103" lon="1.96282">
        <ele>120.1</ele>
        <time>2022-05-25T14:14:06Z</time>
      </trkpt>
      <trkpt lat="49.91029" lon="1.96283">
        <ele>120.2</ele>
        <time>2022-05-25T14:14:08Z</time>
      </trkpt>
      <trkpt lat="49.91028" lon="1.96285">
        <ele>120.3</ele>
        <time>2022-05-25T14:14:09Z</time>
      </trkpt>
      <trkpt lat="49.91028" lon="1.96287">
        <ele>120.4</ele>
        <time>2022-05-25T14:14:11Z</time>
      </trkpt>
      <trkpt lat="49.91027" lon="1.96288">
        <ele>120.5</ele>
        <time>2022-05-25T14:14:12Z</time>
      </trkpt>
      <trkpt lat="49.91027" lon="1.9629">
        <ele>120.5</ele>
        <time>2022-05-25T14:14:13Z</time>
      </trkpt>
      <trkpt lat="49.91026" lon="1.96291">
        <ele>120.6</ele>
        <time>2022-05-25T14:14:14Z</time>
      </trkpt>
      <trkpt lat="49.91026" lon="1.96292">
        <ele>120.7</ele>
        <time>2022-05-25T14:14:16Z</time>
      </trkpt>
      <trkpt lat="49.91026" lon="1.96294">
        <ele>120.7</ele>
        <time>2022-05-25T14:14:17Z</time>
      </trkpt>
      <trkpt lat="49.91025" lon="1.96295">
        <ele>120.8</ele>
        <time>2022-05-25T14:14:18Z</time>
      </trkpt>
      <trkpt lat="49.91024" lon="1.96297">
        <ele>120.9</ele>
        <time>2022-05-25T14:14:19Z</time>
      </trkpt>
      <trkpt lat="49.91024" lon="1.96298">
        <ele>120.9</ele>
        <time>2022-05-25T14:14:21Z</time>
      </trkpt>
      <trkpt lat="49.91023" lon="1.96299">
        <ele>121</ele>
        <time>2022-05-25T14:14:22Z</time>
      </trkpt>
      <trkpt lat="49.91023" lon="1.963">
        <ele>121</ele>
        <time>2022-05-25T14:14:23Z</time>
      </trkpt>
      <trkpt lat="49.91023" lon="1.96301">
        <ele>121.1</ele>
        <time>2022-05-25T14:14:24Z</time>
      </trkpt>
      <trkpt lat="49.91022" lon="1.96303">
        <ele>121.2</ele>
        <time>2022-05-25T14:14:25Z</time>
      </trkpt>
      <trkpt lat="49.91022" lon="1.96304">
        <ele>121.2</ele>
        <time>2022-05-25T14:14:26Z</time>
      </trkpt>
      <trkpt lat="49.91021" lon="1.96305">
        <ele>121.3</ele>
        <time>2022-05-25T14:14:28Z</time>
      </trkpt>
      <trkpt lat="49.91021" lon="1.96308">
        <ele>121.4</ele>
        <time>2022-05-25T14:14:29Z</time>
      </trkpt>
      <trkpt lat="49.9102" lon="1.96309">
        <ele>121.5</ele>
        <time>2022-05-25T14:14:31Z</time>
      </trkpt>
      <trkpt lat="49.9102" lon="1.96311">
        <ele>121.6</ele>
        <time>2022-05-25T14:14:32Z</time>
      </trkpt>
      <trkpt lat="49.91019" lon="1.96312">
        <ele>121.6</ele>
        <time>2022-05-25T14:14:33Z</time>
      </trkpt>
      <trkpt lat="49.91019" lon="1.96314">
        <ele>121.8</ele>
        <time>2022-05-25T14:14:35Z</time>
      </trkpt>
      <trkpt lat="49.91019" lon="1.96316">
        <ele>121.8</ele>
        <time>2022-05-25T14:14:36Z</time>
      </trkpt>
      <trkpt lat="49.91018" lon="1.96318">
        <ele>121.9</ele>
        <time>2022-05-25T14:14:37Z</time>
      </trkpt>
      <trkpt lat="49.91018" lon="1.96319">
        <ele>122</ele>
        <time>2022-05-25T14:14:39Z</time>
      </trkpt>
      <trkpt lat="49.91017" lon="1.96321">
        <ele>122.1</ele>
        <time>2022-05-25T14:14:40Z</time>
      </trkpt>
      <trkpt lat="49.91017" lon="1.96322">
        <ele>122.2</ele>
        <time>2022-05-25T14:14:41Z</time>
      </trkpt>
      <trkpt lat="49.91016" lon="1.96324">
        <ele>122.2</ele>
        <time>2022-05-25T14:14:42Z</time>
      </trkpt>
      <trkpt lat="49.91016" lon="1.96325">
        <ele>122.3</ele>
        <time>2022-05-25T14:14:43Z</time>
      </trkpt>
      <trkpt lat="49.91015" lon="1.96326">
        <ele>122.4</ele>
        <time>2022-05-25T14:14:45Z</time>
      </trkpt>
      <trkpt lat="49.91014" lon="1.96329">
        <ele>122.5</ele>
        <time>2022-05-25T14:14:46Z</time>
      </trkpt>
      <trkpt lat="49.91014" lon="1.9633">
        <ele>122.6</ele>
        <time>2022-05-25T14:14:48Z</time>
      </trkpt>
      <trkpt lat="49.91013" lon="1.96331">
        <ele>122.7</ele>
        <time>2022-05-25T14:14:49Z</time>
      </trkpt>
      <trkpt lat="49.91012" lon="1.96334">
        <ele>122.8</ele>
        <time>2022-05-25T14:14:50Z</time>
      </trkpt>
      <trkpt lat="49.91011" lon="1.96335">
        <ele>122.8</ele>
        <time>2022-05-25T14:14:51Z</time>
      </trkpt>
      <trkpt lat="49.91011" lon="1.96336">
        <ele>122.9</ele>
        <time>2022-05-25T14:14:52Z</time>
      </trkpt>
      <trkpt lat="49.9101" lon="1.96337">
        <ele>122.9</ele>
        <time>2022-05-25T14:14:53Z</time>
      </trkpt>
      <trkpt lat="49.91009" lon="1.96339">
        <ele>123</ele>
        <time>2022-05-25T14:14:54Z</time>
      </trkpt>
      <trkpt lat="49.91009" lon="1.9634">
        <ele>123.1</ele>
        <time>2022-05-25T14:14:56Z</time>
      </trkpt>
      <trkpt lat="49.91008" lon="1.96342">
        <ele>123.2</ele>
        <time>2022-05-25T14:14:57Z</time>
      </trkpt>
      <trkpt lat="49.91008" lon="1.96344">
        <ele>123.2</ele>
        <time>2022-05-25T14:14:58Z</time>
      </trkpt>
      <trkpt lat="49.91007" lon="1.96345">
        <ele>123.3</ele>
        <time>2022-05-25T14:15:00Z</time>
      </trkpt>
      <trkpt lat="49.91007" lon="1.96347">
        <ele>123.3</ele>
        <time>2022-05-25T14:15:01Z</time>
      </trkpt>
      <trkpt lat="49.91006" lon="1.96348">
        <ele>123.4</ele>
        <time>2022-05-25T14:15:02Z</time>
      </trkpt>
      <trkpt lat="49.91005" lon="1.9635">
        <ele>123.4</ele>
        <time>2022-05-25T14:15:03Z</time>
      </trkpt>
      <trkpt lat="49.91005" lon="1.96351">
        <ele>123.5</ele>
        <time>2022-05-25T14:15:04Z</time>
      </trkpt>
      <trkpt lat="49.91004" lon="1.96352">
        <ele>123.5</ele>
        <time>2022-05-25T14:15:06Z</time>
      </trkpt>
      <trkpt lat="49.91003" lon="1.96354">
        <ele>123.6</ele>
        <time>2022-05-25T14:15:07Z</time>
      </trkpt>
      <trkpt lat="49.91003" lon="1.96355">
        <ele>123.6</ele>
        <time>2022-05-25T14:15:08Z</time>
      </trkpt>
      <trkpt lat="49.91002" lon="1.96356">
        <ele>123.7</ele>
        <time>2022-05-25T14:15:09Z</time>
      </trkpt>
      <trkpt lat="49.91001" lon="1.96357">
        <ele>123.7</ele>
        <time>2022-05-25T14:15:10Z</time>
      </trkpt>
      <trkpt lat="49.91" lon="1.96359">
        <ele>123.8</ele>
        <time>2022-05-25T14:15:11Z</time>
      </trkpt>
      <trkpt lat="49.91" lon="1.9636">
        <ele>123.8</ele>
        <time>2022-05-25T14:15:12Z</time>
      </trkpt>
      <trkpt lat="49.90999" lon="1.96361">
        <ele>123.8</ele>
        <time>2022-05-25T14:15:13Z</time>
      </trkpt>
      <trkpt lat="49.90999" lon="1.96362">
        <ele>123.8</ele>
        <time>2022-05-25T14:15:15Z</time>
      </trkpt>
      <trkpt lat="49.90998" lon="1.96363">
        <ele>123.9</ele>
        <time>2022-05-25T14:15:16Z</time>
      </trkpt>
      <trkpt lat="49.90997" lon="1.96364">
        <ele>123.9</ele>
        <time>2022-05-25T14:15:17Z</time>
      </trkpt>
      <trkpt lat="49.90997" lon="1.96366">
        <ele>123.9</ele>
        <time>2022-05-25T14:15:18Z</time>
      </trkpt>
      <trkpt lat="49.90996" lon="1.96367">
        <ele>123.9</ele>
        <time>2022-05-25T14:15:19Z</time>
      </trkpt>
      <trkpt lat="49.90996" lon="1.96368">
        <ele>124</ele>
        <time>2022-05-25T14:15:21Z</time>
      </trkpt>
      <trkpt lat="49.90995" lon="1.96369">
        <ele>124</ele>
        <time>2022-05-25T14:15:22Z</time>
      </trkpt>
      <trkpt lat="49.90994" lon="1.9637">
        <ele>124</ele>
        <time>2022-05-25T14:15:23Z</time>
      </trkpt>
      <trkpt lat="49.90994" lon="1.96371">
        <ele>124</ele>
        <time>2022-05-25T14:15:24Z</time>
      </trkpt>
      <trkpt lat="49.90993" lon="1.96372">
        <ele>124</ele>
        <time>2022-05-25T14:15:25Z</time>
      </trkpt>
      <trkpt lat="49.90993" lon="1.96373">
        <ele>124</ele>
        <time>2022-05-25T14:15:26Z</time>
      </trkpt>
      <trkpt lat="49.90992" lon="1.96374">
        <ele>124</ele>
        <time>2022-05-25T14:15:28Z</time>
      </trkpt>
      <trkpt lat="49.90992" lon="1.96375">
        <ele>124.1</ele>
        <time>2022-05-25T14:15:29Z</time>
      </trkpt>
      <trkpt lat="49.90991" lon="1.96378">
        <ele>124.1</ele>
        <time>2022-05-25T14:15:30Z</time>
      </trkpt>
      <trkpt lat="49.90991" lon="1.96379">
        <ele>124.1</ele>
        <time>2022-05-25T14:15:31Z</time>
      </trkpt>
      <trkpt lat="49.9099" lon="1.9638">
        <ele>124.1</ele>
        <time>2022-05-25T14:15:32Z</time>
      </trkpt>
      <trkpt lat="49.9099" lon="1.96382">
        <ele>124.1</ele>
        <time>2022-05-25T14:15:33Z</time>
      </trkpt>
      <trkpt lat="49.90989" lon="1.96383">
        <ele>124.1</ele>
        <time>2022-05-25T14:15:34Z</time>
      </trkpt>
      <trkpt lat="49.90988" lon="1.96385">
        <ele>124.1</ele>
        <time>2022-05-25T14:15:36Z</time>
      </trkpt>
      <trkpt lat="49.90987" lon="1.96387">
        <ele>124.1</ele>
        <time>2022-05-25T14:15:37Z</time>
      </trkpt>
      <trkpt lat="49.90986" lon="1.96389">
        <ele>124.1</ele>
        <time>2022-05-25T14:15:38Z</time>
      </trkpt>
      <trkpt lat="49.90984" lon="1.9639">
        <ele>124.1</ele>
        <time>2022-05-25T14:15:39Z</time>
      </trkpt>
      <trkpt lat="49.90983" lon="1.96392">
        <ele>124.1</ele>
        <time>2022-05-25T14:15:40Z</time>
      </trkpt>
      <trkpt lat="49.90982" lon="1.96394">
        <ele>124.1</ele>
        <time>2022-05-25T14:15:42Z</time>
      </trkpt>
      <trkpt lat="49.90981" lon="1.96396">
        <ele>124.1</ele>
        <time>2022-05-25T14:15:43Z</time>
      </trkpt>
      <trkpt lat="49.9098" lon="1.96397">
        <ele>124.1</ele>
        <time>2022-05-25T14:15:44Z</time>
      </trkpt>
      <trkpt lat="49.90979" lon="1.96399">
        <ele>124.1</ele>
        <time>2022-05-25T14:15:45Z</time>
      </trkpt>
      <trkpt lat="49.90978" lon="1.96401">
        <ele>124</ele>
        <time>2022-05-25T14:15:46Z</time>
      </trkpt>
      <trkpt lat="49.90977" lon="1.96403">
        <ele>124</ele>
        <time>2022-05-25T14:15:47Z</time>
      </trkpt>
      <trkpt lat="49.90976" lon="1.96405">
        <ele>124</ele>
        <time>2022-05-25T14:15:48Z</time>
      </trkpt>
      <trkpt lat="49.90975" lon="1.96406">
        <ele>124</ele>
        <time>2022-05-25T14:15:50Z</time>
      </trkpt>
      <trkpt lat="49.90974" lon="1.96408">
        <ele>123.9</ele>
        <time>2022-05-25T14:15:51Z</time>
      </trkpt>
      <trkpt lat="49.90973" lon="1.9641">
        <ele>123.9</ele>
        <time>2022-05-25T14:15:52Z</time>
      </trkpt>
      <trkpt lat="49.90972" lon="1.96412">
        <ele>123.9</ele>
        <time>2022-05-25T14:15:53Z</time>
      </trkpt>
      <trkpt lat="49.90971" lon="1.96414">
        <ele>123.8</ele>
        <time>2022-05-25T14:15:54Z</time>
      </trkpt>
      <trkpt lat="49.9097" lon="1.96416">
        <ele>123.8</ele>
        <time>2022-05-25T14:15:55Z</time>
      </trkpt>
      <trkpt lat="49.90969" lon="1.96417">
        <ele>123.8</ele>
        <time>2022-05-25T14:15:56Z</time>
      </trkpt>
      <trkpt lat="49.90969" lon="1.96419">
        <ele>123.8</ele>
        <time>2022-05-25T14:15:58Z</time>
      </trkpt>
      <trkpt lat="49.90968" lon="1.9642">
        <ele>123.7</ele>
        <time>2022-05-25T14:15:59Z</time>
      </trkpt>
      <trkpt lat="49.90967" lon="1.96422">
        <ele>123.7</ele>
        <time>2022-05-25T14:16:00Z</time>
      </trkpt>
      <trkpt lat="49.90966" lon="1.96424">
        <ele>123.6</ele>
        <time>2022-05-25T14:16:01Z</time>
      </trkpt>
      <trkpt lat="49.90965" lon="1.96425">
        <ele>123.6</ele>
        <time>2022-05-25T14:16:02Z</time>
      </trkpt>
      <trkpt lat="49.90965" lon="1.96426">
        <ele>123.6</ele>
        <time>2022-05-25T14:16:03Z</time>
      </trkpt>
      <trkpt lat="49.90963" lon="1.96428">
        <ele>123.6</ele>
        <time>2022-05-25T14:16:04Z</time>
      </trkpt>
      <trkpt lat="49.90963" lon="1.96429">
        <ele>123.5</ele>
        <time>2022-05-25T14:16:06Z</time>
      </trkpt>
      <trkpt lat="49.90962" lon="1.9643">
        <ele>123.5</ele>
        <time>2022-05-25T14:16:07Z</time>
      </trkpt>
      <trkpt lat="49.90961" lon="1.96432">
        <ele>123.5</ele>
        <time>2022-05-25T14:16:08Z</time>
      </trkpt>
      <trkpt lat="49.9096" lon="1.96433">
        <ele>123.5</ele>
        <time>2022-05-25T14:16:09Z</time>
      </trkpt>
      <trkpt lat="49.90959" lon="1.96434">
        <ele>123.5</ele>
        <time>2022-05-25T14:16:10Z</time>
      </trkpt>
      <trkpt lat="49.90959" lon="1.96436">
        <ele>123.5</ele>
        <time>2022-05-25T14:16:11Z</time>
      </trkpt>
      <trkpt lat="49.90958" lon="1.96437">
        <ele>123.4</ele>
        <time>2022-05-25T14:16:12Z</time>
      </trkpt>
      <trkpt lat="49.90958" lon="1.96439">
        <ele>123.4</ele>
        <time>2022-05-25T14:16:14Z</time>
      </trkpt>
      <trkpt lat="49.90957" lon="1.9644">
        <ele>123.4</ele>
        <time>2022-05-25T14:16:15Z</time>
      </trkpt>
      <trkpt lat="49.90957" lon="1.96442">
        <ele>123.4</ele>
        <time>2022-05-25T14:16:16Z</time>
      </trkpt>
      <trkpt lat="49.90957" lon="1.96444">
        <ele>123.4</ele>
        <time>2022-05-25T14:16:17Z</time>
      </trkpt>
      <trkpt lat="49.90957" lon="1.96446">
        <ele>123.4</ele>
        <time>2022-05-25T14:16:18Z</time>
      </trkpt>
      <trkpt lat="49.90957" lon="1.96447">
        <ele>123.4</ele>
        <time>2022-05-25T14:16:19Z</time>
      </trkpt>
      <trkpt lat="49.90956" lon="1.96449">
        <ele>123.4</ele>
        <time>2022-05-25T14:16:20Z</time>
      </trkpt>
      <trkpt lat="49.90956" lon="1.9645">
        <ele>123.4</ele>
        <time>2022-05-25T14:16:22Z</time>
      </trkpt>
      <trkpt lat="49.90956" lon="1.96452">
        <ele>123.4</ele>
        <time>2022-05-25T14:16:23Z</time>
      </trkpt>
      <trkpt lat="49.90955" lon="1.96454">
        <ele>123.4</ele>
        <time>2022-05-25T14:16:24Z</time>
      </trkpt>
      <trkpt lat="49.90955" lon="1.96456">
        <ele>123.4</ele>
        <time>2022-05-25T14:16:25Z</time>
      </trkpt>
      <trkpt lat="49.90954" lon="1.96458">
        <ele>123.4</ele>
        <time>2022-05-25T14:16:26Z</time>
      </trkpt>
      <trkpt lat="49.90954" lon="1.96459">
        <ele>123.4</ele>
        <time>2022-05-25T14:16:28Z</time>
      </trkpt>
      <trkpt lat="49.90954" lon="1.96461">
        <ele>123.4</ele>
        <time>2022-05-25T14:16:29Z</time>
      </trkpt>
      <trkpt lat="49.90953" lon="1.96462">
        <ele>123.5</ele>
        <time>2022-05-25T14:16:30Z</time>
      </trkpt>
      <trkpt lat="49.90953" lon="1.96464">
        <ele>123.5</ele>
        <time>2022-05-25T14:16:31Z</time>
      </trkpt>
      <trkpt lat="49.90952" lon="1.96466">
        <ele>123.5</ele>
        <time>2022-05-25T14:16:32Z</time>
      </trkpt>
      <trkpt lat="49.90952" lon="1.96468">
        <ele>123.6</ele>
        <time>2022-05-25T14:16:33Z</time>
      </trkpt>
      <trkpt lat="49.90952" lon="1.96469">
        <ele>123.6</ele>
        <time>2022-05-25T14:16:35Z</time>
      </trkpt>
      <trkpt lat="49.90951" lon="1.9647">
        <ele>123.6</ele>
        <time>2022-05-25T14:16:36Z</time>
      </trkpt>
      <trkpt lat="49.90951" lon="1.96472">
        <ele>123.7</ele>
        <time>2022-05-25T14:16:37Z</time>
      </trkpt>
      <trkpt lat="49.90951" lon="1.96474">
        <ele>123.7</ele>
        <time>2022-05-25T14:16:38Z</time>
      </trkpt>
      <trkpt lat="49.9095" lon="1.96475">
        <ele>123.7</ele>
        <time>2022-05-25T14:16:40Z</time>
      </trkpt>
      <trkpt lat="49.9095" lon="1.96476">
        <ele>123.8</ele>
        <time>2022-05-25T14:16:41Z</time>
      </trkpt>
      <trkpt lat="49.9095" lon="1.96477">
        <ele>123.8</ele>
        <time>2022-05-25T14:16:42Z</time>
      </trkpt>
      <trkpt lat="49.9095" lon="1.96479">
        <ele>123.9</ele>
        <time>2022-05-25T14:16:43Z</time>
      </trkpt>
      <trkpt lat="49.9095" lon="1.96481">
        <ele>123.9</ele>
        <time>2022-05-25T14:16:44Z</time>
      </trkpt>
      <trkpt lat="49.9095" lon="1.96483">
        <ele>124</ele>
        <time>2022-05-25T14:16:46Z</time>
      </trkpt>
      <trkpt lat="49.9095" lon="1.96484">
        <ele>124</ele>
        <time>2022-05-25T14:16:47Z</time>
      </trkpt>
      <trkpt lat="49.9095" lon="1.96486">
        <ele>124.1</ele>
        <time>2022-05-25T14:16:48Z</time>
      </trkpt>
      <trkpt lat="49.9095" lon="1.96488">
        <ele>124.2</ele>
        <time>2022-05-25T14:16:49Z</time>
      </trkpt>
      <trkpt lat="49.9095" lon="1.96489">
        <ele>124.2</ele>
        <time>2022-05-25T14:16:50Z</time>
      </trkpt>
      <trkpt lat="49.9095" lon="1.9649">
        <ele>124.2</ele>
        <time>2022-05-25T14:16:52Z</time>
      </trkpt>
      <trkpt lat="49.90949" lon="1.96491">
        <ele>124.3</ele>
        <time>2022-05-25T14:16:53Z</time>
      </trkpt>
      <trkpt lat="49.90949" lon="1.96493">
        <ele>124.4</ele>
        <time>2022-05-25T14:16:54Z</time>
      </trkpt>
      <trkpt lat="49.90949" lon="1.96495">
        <ele>124.4</ele>
        <time>2022-05-25T14:16:55Z</time>
      </trkpt>
      <trkpt lat="49.90949" lon="1.96497">
        <ele>124.5</ele>
        <time>2022-05-25T14:16:56Z</time>
      </trkpt>
      <trkpt lat="49.90949" lon="1.96498">
        <ele>124.6</ele>
        <time>2022-05-25T14:16:57Z</time>
      </trkpt>
      <trkpt lat="49.90948" lon="1.965">
        <ele>124.6</ele>
        <time>2022-05-25T14:16:59Z</time>
      </trkpt>
      <trkpt lat="49.90948" lon="1.96501">
        <ele>124.7</ele>
        <time>2022-05-25T14:17:00Z</time>
      </trkpt>
      <trkpt lat="49.90948" lon="1.96502">
        <ele>124.7</ele>
        <time>2022-05-25T14:17:01Z</time>
      </trkpt>
      <trkpt lat="49.90948" lon="1.96504">
        <ele>124.8</ele>
        <time>2022-05-25T14:17:02Z</time>
      </trkpt>
      <trkpt lat="49.90948" lon="1.96505">
        <ele>124.8</ele>
        <time>2022-05-25T14:17:03Z</time>
      </trkpt>
      <trkpt lat="49.90948" lon="1.96507">
        <ele>124.9</ele>
        <time>2022-05-25T14:17:04Z</time>
      </trkpt>
      <trkpt lat="49.90948" lon="1.96508">
        <ele>124.9</ele>
        <time>2022-05-25T14:17:05Z</time>
      </trkpt>
      <trkpt lat="49.90948" lon="1.9651">
        <ele>125</ele>
        <time>2022-05-25T14:17:07Z</time>
      </trkpt>
      <trkpt lat="49.90948" lon="1.96511">
        <ele>125</ele>
        <time>2022-05-25T14:17:08Z</time>
      </trkpt>
      <trkpt lat="49.90948" lon="1.96513">
        <ele>125.1</ele>
        <time>2022-05-25T14:17:09Z</time>
      </trkpt>
      <trkpt lat="49.90947" lon="1.96514">
        <ele>125.2</ele>
        <time>2022-05-25T14:17:10Z</time>
      </trkpt>
      <trkpt lat="49.90947" lon="1.96516">
        <ele>125.2</ele>
        <time>2022-05-25T14:17:11Z</time>
      </trkpt>
      <trkpt lat="49.90947" lon="1.96518">
        <ele>125.3</ele>
        <time>2022-05-25T14:17:12Z</time>
      </trkpt>
      <trkpt lat="49.90947" lon="1.9652">
        <ele>125.3</ele>
        <time>2022-05-25T14:17:13Z</time>
      </trkpt>
      <trkpt lat="49.90947" lon="1.96521">
        <ele>125.4</ele>
        <time>2022-05-25T14:17:15Z</time>
      </trkpt>
      <trkpt lat="49.90947" lon="1.96523">
        <ele>125.4</ele>
        <time>2022-05-25T14:17:16Z</time>
      </trkpt>
      <trkpt lat="49.90947" lon="1.96524">
        <ele>125.4</ele>
        <time>2022-05-25T14:17:17Z</time>
      </trkpt>
      <trkpt lat="49.90947" lon="1.96526">
        <ele>125.5</ele>
        <time>2022-05-25T14:17:18Z</time>
      </trkpt>
      <trkpt lat="49.90946" lon="1.96528">
        <ele>125.5</ele>
        <time>2022-05-25T14:17:19Z</time>
      </trkpt>
      <trkpt lat="49.90946" lon="1.9653">
        <ele>125.6</ele>
        <time>2022-05-25T14:17:21Z</time>
      </trkpt>
      <trkpt lat="49.90946" lon="1.96532">
        <ele>125.6</ele>
        <time>2022-05-25T14:17:23Z</time>
      </trkpt>
      <trkpt lat="49.90946" lon="1.96534">
        <ele>125.6</ele>
        <time>2022-05-25T14:17:24Z</time>
      </trkpt>
      <trkpt lat="49.90946" lon="1.96537">
        <ele>125.7</ele>
        <time>2022-05-25T14:17:26Z</time>
      </trkpt>
      <trkpt lat="49.90945" lon="1.9654">
        <ele>125.7</ele>
        <time>2022-05-25T14:17:28Z</time>
      </trkpt>
      <trkpt lat="49.90945" lon="1.96542">
        <ele>125.7</ele>
        <time>2022-05-25T14:17:29Z</time>
      </trkpt>
      <trkpt lat="49.90945" lon="1.96543">
        <ele>125.7</ele>
        <time>2022-05-25T14:17:30Z</time>
      </trkpt>
      <trkpt lat="49.90945" lon="1.96546">
        <ele>125.8</ele>
        <time>2022-05-25T14:17:31Z</time>
      </trkpt>
      <trkpt lat="49.90946" lon="1.96547">
        <ele>125.8</ele>
        <time>2022-05-25T14:17:32Z</time>
      </trkpt>
      <trkpt lat="49.90946" lon="1.96549">
        <ele>125.8</ele>
        <time>2022-05-25T14:17:33Z</time>
      </trkpt>
      <trkpt lat="49.90946" lon="1.96553">
        <ele>125.8</ele>
        <time>2022-05-25T14:17:34Z</time>
      </trkpt>
      <trkpt lat="49.90945" lon="1.96554">
        <ele>125.9</ele>
        <time>2022-05-25T14:17:36Z</time>
      </trkpt>
      <trkpt lat="49.90945" lon="1.96556">
        <ele>125.9</ele>
        <time>2022-05-25T14:17:37Z</time>
      </trkpt>
      <trkpt lat="49.90945" lon="1.96558">
        <ele>125.9</ele>
        <time>2022-05-25T14:17:38Z</time>
      </trkpt>
      <trkpt lat="49.90945" lon="1.96559">
        <ele>125.9</ele>
        <time>2022-05-25T14:17:39Z</time>
      </trkpt>
      <trkpt lat="49.90944" lon="1.96563">
        <ele>126</ele>
        <time>2022-05-25T14:17:40Z</time>
      </trkpt>
      <trkpt lat="49.90944" lon="1.96564">
        <ele>126</ele>
        <time>2022-05-25T14:17:41Z</time>
      </trkpt>
      <trkpt lat="49.90944" lon="1.96565">
        <ele>126</ele>
        <time>2022-05-25T14:17:42Z</time>
      </trkpt>
      <trkpt lat="49.90943" lon="1.96568">
        <ele>126</ele>
        <time>2022-05-25T14:17:43Z</time>
      </trkpt>
      <trkpt lat="49.90942" lon="1.9657">
        <ele>126</ele>
        <time>2022-05-25T14:17:45Z</time>
      </trkpt>
      <trkpt lat="49.90942" lon="1.96571">
        <ele>126.1</ele>
        <time>2022-05-25T14:17:46Z</time>
      </trkpt>
      <trkpt lat="49.90941" lon="1.96574">
        <ele>126.1</ele>
        <time>2022-05-25T14:17:47Z</time>
      </trkpt>
      <trkpt lat="49.90941" lon="1.96575">
        <ele>126.1</ele>
        <time>2022-05-25T14:17:48Z</time>
      </trkpt>
      <trkpt lat="49.90941" lon="1.96576">
        <ele>126.1</ele>
        <time>2022-05-25T14:17:49Z</time>
      </trkpt>
      <trkpt lat="49.9094" lon="1.9658">
        <ele>126.2</ele>
        <time>2022-05-25T14:17:50Z</time>
      </trkpt>
      <trkpt lat="49.9094" lon="1.96581">
        <ele>126.2</ele>
        <time>2022-05-25T14:17:51Z</time>
      </trkpt>
      <trkpt lat="49.9094" lon="1.96582">
        <ele>126.2</ele>
        <time>2022-05-25T14:17:52Z</time>
      </trkpt>
      <trkpt lat="49.90938" lon="1.96586">
        <ele>126.2</ele>
        <time>2022-05-25T14:17:53Z</time>
      </trkpt>
      <trkpt lat="49.90938" lon="1.96587">
        <ele>126.2</ele>
        <time>2022-05-25T14:17:55Z</time>
      </trkpt>
      <trkpt lat="49.90937" lon="1.96588">
        <ele>126.3</ele>
        <time>2022-05-25T14:17:56Z</time>
      </trkpt>
      <trkpt lat="49.90937" lon="1.9659">
        <ele>126.3</ele>
        <time>2022-05-25T14:17:57Z</time>
      </trkpt>
      <trkpt lat="49.90936" lon="1.96591">
        <ele>126.3</ele>
        <time>2022-05-25T14:17:58Z</time>
      </trkpt>
      <trkpt lat="49.90935" lon="1.96594">
        <ele>126.3</ele>
        <time>2022-05-25T14:17:59Z</time>
      </trkpt>
      <trkpt lat="49.90934" lon="1.96595">
        <ele>126.3</ele>
        <time>2022-05-25T14:18:00Z</time>
      </trkpt>
      <trkpt lat="49.90934" lon="1.96596">
        <ele>126.3</ele>
        <time>2022-05-25T14:18:01Z</time>
      </trkpt>
      <trkpt lat="49.90933" lon="1.96598">
        <ele>126.3</ele>
        <time>2022-05-25T14:18:02Z</time>
      </trkpt>
      <trkpt lat="49.90932" lon="1.96598">
        <ele>126.3</ele>
        <time>2022-05-25T14:18:04Z</time>
      </trkpt>
      <trkpt lat="49.90932" lon="1.966">
        <ele>126.3</ele>
        <time>2022-05-25T14:18:05Z</time>
      </trkpt>
      <trkpt lat="49.90931" lon="1.96601">
        <ele>126.3</ele>
        <time>2022-05-25T14:18:06Z</time>
      </trkpt>
      <trkpt lat="49.9093" lon="1.96603">
        <ele>126.3</ele>
        <time>2022-05-25T14:18:07Z</time>
      </trkpt>
      <trkpt lat="49.9093" lon="1.96604">
        <ele>126.2</ele>
        <time>2022-05-25T14:18:08Z</time>
      </trkpt>
      <trkpt lat="49.90929" lon="1.96605">
        <ele>126.2</ele>
        <time>2022-05-25T14:18:09Z</time>
      </trkpt>
      <trkpt lat="49.90928" lon="1.96606">
        <ele>126.2</ele>
        <time>2022-05-25T14:18:10Z</time>
      </trkpt>
      <trkpt lat="49.90927" lon="1.96607">
        <ele>126.2</ele>
        <time>2022-05-25T14:18:12Z</time>
      </trkpt>
      <trkpt lat="49.90926" lon="1.96608">
        <ele>126.2</ele>
        <time>2022-05-25T14:18:13Z</time>
      </trkpt>
      <trkpt lat="49.90925" lon="1.96609">
        <ele>126.2</ele>
        <time>2022-05-25T14:18:14Z</time>
      </trkpt>
      <trkpt lat="49.90924" lon="1.9661">
        <ele>126.2</ele>
        <time>2022-05-25T14:18:15Z</time>
      </trkpt>
      <trkpt lat="49.90923" lon="1.96611">
        <ele>126.2</ele>
        <time>2022-05-25T14:18:16Z</time>
      </trkpt>
      <trkpt lat="49.90922" lon="1.96613">
        <ele>126.2</ele>
        <time>2022-05-25T14:18:17Z</time>
      </trkpt>
      <trkpt lat="49.90922" lon="1.96614">
        <ele>126.2</ele>
        <time>2022-05-25T14:18:18Z</time>
      </trkpt>
      <trkpt lat="49.90921" lon="1.96615">
        <ele>126.1</ele>
        <time>2022-05-25T14:18:19Z</time>
      </trkpt>
      <trkpt lat="49.9092" lon="1.96617">
        <ele>126.1</ele>
        <time>2022-05-25T14:18:21Z</time>
      </trkpt>
      <trkpt lat="49.90919" lon="1.96618">
        <ele>126.1</ele>
        <time>2022-05-25T14:18:22Z</time>
      </trkpt>
      <trkpt lat="49.90919" lon="1.9662">
        <ele>126.1</ele>
        <time>2022-05-25T14:18:23Z</time>
      </trkpt>
      <trkpt lat="49.90917" lon="1.96622">
        <ele>126</ele>
        <time>2022-05-25T14:18:24Z</time>
      </trkpt>
      <trkpt lat="49.90917" lon="1.96623">
        <ele>126</ele>
        <time>2022-05-25T14:18:25Z</time>
      </trkpt>
      <trkpt lat="49.90916" lon="1.96625">
        <ele>126</ele>
        <time>2022-05-25T14:18:26Z</time>
      </trkpt>
      <trkpt lat="49.90915" lon="1.96626">
        <ele>126</ele>
        <time>2022-05-25T14:18:27Z</time>
      </trkpt>
      <trkpt lat="49.90915" lon="1.96627">
        <ele>125.9</ele>
        <time>2022-05-25T14:18:29Z</time>
      </trkpt>
      <trkpt lat="49.90914" lon="1.96628">
        <ele>125.9</ele>
        <time>2022-05-25T14:18:30Z</time>
      </trkpt>
      <trkpt lat="49.90913" lon="1.96629">
        <ele>125.9</ele>
        <time>2022-05-25T14:18:31Z</time>
      </trkpt>
      <trkpt lat="49.90912" lon="1.9663">
        <ele>125.8</ele>
        <time>2022-05-25T14:18:32Z</time>
      </trkpt>
      <trkpt lat="49.90912" lon="1.96632">
        <ele>125.8</ele>
        <time>2022-05-25T14:18:33Z</time>
      </trkpt>
      <trkpt lat="49.90911" lon="1.96633">
        <ele>125.7</ele>
        <time>2022-05-25T14:18:34Z</time>
      </trkpt>
      <trkpt lat="49.9091" lon="1.96634">
        <ele>125.7</ele>
        <time>2022-05-25T14:18:35Z</time>
      </trkpt>
      <trkpt lat="49.9091" lon="1.96635">
        <ele>125.7</ele>
        <time>2022-05-25T14:18:36Z</time>
      </trkpt>
      <trkpt lat="49.90909" lon="1.96636">
        <ele>125.7</ele>
        <time>2022-05-25T14:18:38Z</time>
      </trkpt>
      <trkpt lat="49.90908" lon="1.96637">
        <ele>125.6</ele>
        <time>2022-05-25T14:18:39Z</time>
      </trkpt>
      <trkpt lat="49.90907" lon="1.96638">
        <ele>125.6</ele>
        <time>2022-05-25T14:18:40Z</time>
      </trkpt>
      <trkpt lat="49.90907" lon="1.96639">
        <ele>125.6</ele>
        <time>2022-05-25T14:18:41Z</time>
      </trkpt>
      <trkpt lat="49.90906" lon="1.9664">
        <ele>125.5</ele>
        <time>2022-05-25T14:18:42Z</time>
      </trkpt>
      <trkpt lat="49.90905" lon="1.9664">
        <ele>125.5</ele>
        <time>2022-05-25T14:18:43Z</time>
      </trkpt>
      <trkpt lat="49.90905" lon="1.9664">
        <ele>125.5</ele>
        <time>2022-05-25T14:18:44Z</time>
      </trkpt>
      <trkpt lat="49.90904" lon="1.96641">
        <ele>125.4</ele>
        <time>2022-05-25T14:18:45Z</time>
      </trkpt>
      <trkpt lat="49.90903" lon="1.96642">
        <ele>125.4</ele>
        <time>2022-05-25T14:18:47Z</time>
      </trkpt>
      <trkpt lat="49.90903" lon="1.96643">
        <ele>125.4</ele>
        <time>2022-05-25T14:18:48Z</time>
      </trkpt>
      <trkpt lat="49.90902" lon="1.96644">
        <ele>125.4</ele>
        <time>2022-05-25T14:18:49Z</time>
      </trkpt>
      <trkpt lat="49.90901" lon="1.96646">
        <ele>125.3</ele>
        <time>2022-05-25T14:18:50Z</time>
      </trkpt>
      <trkpt lat="49.90899" lon="1.96648">
        <ele>125.3</ele>
        <time>2022-05-25T14:18:51Z</time>
      </trkpt>
      <trkpt lat="49.90898" lon="1.96649">
        <ele>125.2</ele>
        <time>2022-05-25T14:18:52Z</time>
      </trkpt>
      <trkpt lat="49.90897" lon="1.96649">
        <ele>125.2</ele>
        <time>2022-05-25T14:18:53Z</time>
      </trkpt>
      <trkpt lat="49.90896" lon="1.96651">
        <ele>125.2</ele>
        <time>2022-05-25T14:18:54Z</time>
      </trkpt>
      <trkpt lat="49.90895" lon="1.96652">
        <ele>125.1</ele>
        <time>2022-05-25T14:18:56Z</time>
      </trkpt>
      <trkpt lat="49.90893" lon="1.96653">
        <ele>125.1</ele>
        <time>2022-05-25T14:18:57Z</time>
      </trkpt>
      <trkpt lat="49.90892" lon="1.96654">
        <ele>125</ele>
        <time>2022-05-25T14:18:58Z</time>
      </trkpt>
      <trkpt lat="49.9089" lon="1.96655">
        <ele>125</ele>
        <time>2022-05-25T14:18:59Z</time>
      </trkpt>
      <trkpt lat="49.90889" lon="1.96657">
        <ele>125</ele>
        <time>2022-05-25T14:19:00Z</time>
      </trkpt>
      <trkpt lat="49.90888" lon="1.96658">
        <ele>124.9</ele>
        <time>2022-05-25T14:19:01Z</time>
      </trkpt>
      <trkpt lat="49.90887" lon="1.96659">
        <ele>124.9</ele>
        <time>2022-05-25T14:19:02Z</time>
      </trkpt>
      <trkpt lat="49.90886" lon="1.9666">
        <ele>124.9</ele>
        <time>2022-05-25T14:19:03Z</time>
      </trkpt>
      <trkpt lat="49.90885" lon="1.96662">
        <ele>124.8</ele>
        <time>2022-05-25T14:19:05Z</time>
      </trkpt>
      <trkpt lat="49.90884" lon="1.96663">
        <ele>124.8</ele>
        <time>2022-05-25T14:19:06Z</time>
      </trkpt>
      <trkpt lat="49.90883" lon="1.96663">
        <ele>124.8</ele>
        <time>2022-05-25T14:19:07Z</time>
      </trkpt>
      <trkpt lat="49.90882" lon="1.96664">
        <ele>124.7</ele>
        <time>2022-05-25T14:19:08Z</time>
      </trkpt>
      <trkpt lat="49.90881" lon="1.96665">
        <ele>124.7</ele>
        <time>2022-05-25T14:19:09Z</time>
      </trkpt>
      <trkpt lat="49.90881" lon="1.96666">
        <ele>124.7</ele>
        <time>2022-05-25T14:19:10Z</time>
      </trkpt>
      <trkpt lat="49.9088" lon="1.96666">
        <ele>124.7</ele>
        <time>2022-05-25T14:19:11Z</time>
      </trkpt>
      <trkpt lat="49.9088" lon="1.96666">
        <ele>124.7</ele>
        <time>2022-05-25T14:19:13Z</time>
      </trkpt>
      <trkpt lat="49.9088" lon="1.96666">
        <ele>124.7</ele>
        <time>2022-05-25T14:19:14Z</time>
      </trkpt>
      <trkpt lat="49.90879" lon="1.96667">
        <ele>124.7</ele>
        <time>2022-05-25T14:19:15Z</time>
      </trkpt>
      <trkpt lat="49.90879" lon="1.96668">
        <ele>124.6</ele>
        <time>2022-05-25T14:19:16Z</time>
      </trkpt>
      <trkpt lat="49.90878" lon="1.96668">
        <ele>124.6</ele>
        <time>2022-05-25T14:19:17Z</time>
      </trkpt>
      <trkpt lat="49.90877" lon="1.96669">
        <ele>124.6</ele>
        <time>2022-05-25T14:19:18Z</time>
      </trkpt>
      <trkpt lat="49.90876" lon="1.9667">
        <ele>124.6</ele>
        <time>2022-05-25T14:19:19Z</time>
      </trkpt>
      <trkpt lat="49.90875" lon="1.9667">
        <ele>124.5</ele>
        <time>2022-05-25T14:19:20Z</time>
      </trkpt>
      <trkpt lat="49.90874" lon="1.96671">
        <ele>124.5</ele>
        <time>2022-05-25T14:19:22Z</time>
      </trkpt>
      <trkpt lat="49.90873" lon="1.96672">
        <ele>124.5</ele>
        <time>2022-05-25T14:19:23Z</time>
      </trkpt>
      <trkpt lat="49.90873" lon="1.96673">
        <ele>124.5</ele>
        <time>2022-05-25T14:19:24Z</time>
      </trkpt>
      <trkpt lat="49.90872" lon="1.96673">
        <ele>124.4</ele>
        <time>2022-05-25T14:19:25Z</time>
      </trkpt>
      <trkpt lat="49.9087" lon="1.96675">
        <ele>124.4</ele>
        <time>2022-05-25T14:19:26Z</time>
      </trkpt>
      <trkpt lat="49.9087" lon="1.96675">
        <ele>124.3</ele>
        <time>2022-05-25T14:19:27Z</time>
      </trkpt>
      <trkpt lat="49.90869" lon="1.96676">
        <ele>124.3</ele>
        <time>2022-05-25T14:19:28Z</time>
      </trkpt>
      <trkpt lat="49.90867" lon="1.96677">
        <ele>124.2</ele>
        <time>2022-05-25T14:19:30Z</time>
      </trkpt>
      <trkpt lat="49.90867" lon="1.96677">
        <ele>124.2</ele>
        <time>2022-05-25T14:19:31Z</time>
      </trkpt>
      <trkpt lat="49.90866" lon="1.96678">
        <ele>124.2</ele>
        <time>2022-05-25T14:19:32Z</time>
      </trkpt>
      <trkpt lat="49.90865" lon="1.96679">
        <ele>124.1</ele>
        <time>2022-05-25T14:19:33Z</time>
      </trkpt>
      <trkpt lat="49.90864" lon="1.96679">
        <ele>124.1</ele>
        <time>2022-05-25T14:19:34Z</time>
      </trkpt>
      <trkpt lat="49.90863" lon="1.9668">
        <ele>124</ele>
        <time>2022-05-25T14:19:35Z</time>
      </trkpt>
      <trkpt lat="49.90862" lon="1.9668">
        <ele>124</ele>
        <time>2022-05-25T14:19:37Z</time>
      </trkpt>
      <trkpt lat="49.90861" lon="1.9668">
        <ele>124</ele>
        <time>2022-05-25T14:19:38Z</time>
      </trkpt>
      <trkpt lat="49.9086" lon="1.96681">
        <ele>123.9</ele>
        <time>2022-05-25T14:19:39Z</time>
      </trkpt>
      <trkpt lat="49.90859" lon="1.96682">
        <ele>123.9</ele>
        <time>2022-05-25T14:19:40Z</time>
      </trkpt>
      <trkpt lat="49.90858" lon="1.96683">
        <ele>123.8</ele>
        <time>2022-05-25T14:19:41Z</time>
      </trkpt>
      <trkpt lat="49.90857" lon="1.96684">
        <ele>123.8</ele>
        <time>2022-05-25T14:19:42Z</time>
      </trkpt>
      <trkpt lat="49.90856" lon="1.96685">
        <ele>123.8</ele>
        <time>2022-05-25T14:19:43Z</time>
      </trkpt>
      <trkpt lat="49.90855" lon="1.96686">
        <ele>123.7</ele>
        <time>2022-05-25T14:19:44Z</time>
      </trkpt>
      <trkpt lat="49.90855" lon="1.96687">
        <ele>123.7</ele>
        <time>2022-05-25T14:19:45Z</time>
      </trkpt>
      <trkpt lat="49.90852" lon="1.96689">
        <ele>123.6</ele>
        <time>2022-05-25T14:19:47Z</time>
      </trkpt>
      <trkpt lat="49.90851" lon="1.9669">
        <ele>123.6</ele>
        <time>2022-05-25T14:19:48Z</time>
      </trkpt>
      <trkpt lat="49.9085" lon="1.96691">
        <ele>123.6</ele>
        <time>2022-05-25T14:19:49Z</time>
      </trkpt>
      <trkpt lat="49.90849" lon="1.96692">
        <ele>123.5</ele>
        <time>2022-05-25T14:19:50Z</time>
      </trkpt>
      <trkpt lat="49.90848" lon="1.96693">
        <ele>123.5</ele>
        <time>2022-05-25T14:19:51Z</time>
      </trkpt>
      <trkpt lat="49.90847" lon="1.96694">
        <ele>123.5</ele>
        <time>2022-05-25T14:19:52Z</time>
      </trkpt>
      <trkpt lat="49.90845" lon="1.96695">
        <ele>123.5</ele>
        <time>2022-05-25T14:19:53Z</time>
      </trkpt>
      <trkpt lat="49.90843" lon="1.96696">
        <ele>123.4</ele>
        <time>2022-05-25T14:19:55Z</time>
      </trkpt>
      <trkpt lat="49.90843" lon="1.96697">
        <ele>123.4</ele>
        <time>2022-05-25T14:19:56Z</time>
      </trkpt>
      <trkpt lat="49.90842" lon="1.96698">
        <ele>123.4</ele>
        <time>2022-05-25T14:19:57Z</time>
      </trkpt>
      <trkpt lat="49.9084" lon="1.96699">
        <ele>123.4</ele>
        <time>2022-05-25T14:19:58Z</time>
      </trkpt>
      <trkpt lat="49.90839" lon="1.967">
        <ele>123.4</ele>
        <time>2022-05-25T14:19:59Z</time>
      </trkpt>
      <trkpt lat="49.90838" lon="1.96701">
        <ele>123.4</ele>
        <time>2022-05-25T14:20:00Z</time>
      </trkpt>
      <trkpt lat="49.90837" lon="1.96702">
        <ele>123.4</ele>
        <time>2022-05-25T14:20:02Z</time>
      </trkpt>
      <trkpt lat="49.90836" lon="1.96703">
        <ele>123.4</ele>
        <time>2022-05-25T14:20:03Z</time>
      </trkpt>
      <trkpt lat="49.90834" lon="1.96704">
        <ele>123.4</ele>
        <time>2022-05-25T14:20:04Z</time>
      </trkpt>
      <trkpt lat="49.90833" lon="1.96705">
        <ele>123.4</ele>
        <time>2022-05-25T14:20:05Z</time>
      </trkpt>
      <trkpt lat="49.90831" lon="1.96707">
        <ele>123.4</ele>
        <time>2022-05-25T14:20:07Z</time>
      </trkpt>
      <trkpt lat="49.90831" lon="1.96708">
        <ele>123.4</ele>
        <time>2022-05-25T14:20:08Z</time>
      </trkpt>
      <trkpt lat="49.9083" lon="1.96708">
        <ele>123.4</ele>
        <time>2022-05-25T14:20:09Z</time>
      </trkpt>
      <trkpt lat="49.90829" lon="1.96709">
        <ele>123.4</ele>
        <time>2022-05-25T14:20:10Z</time>
      </trkpt>
      <trkpt lat="49.90828" lon="1.9671">
        <ele>123.4</ele>
        <time>2022-05-25T14:20:11Z</time>
      </trkpt>
      <trkpt lat="49.90827" lon="1.9671">
        <ele>123.4</ele>
        <time>2022-05-25T14:20:12Z</time>
      </trkpt>
      <trkpt lat="49.90826" lon="1.96711">
        <ele>123.4</ele>
        <time>2022-05-25T14:20:13Z</time>
      </trkpt>
      <trkpt lat="49.90825" lon="1.96712">
        <ele>123.4</ele>
        <time>2022-05-25T14:20:14Z</time>
      </trkpt>
      <trkpt lat="49.90824" lon="1.96713">
        <ele>123.4</ele>
        <time>2022-05-25T14:20:15Z</time>
      </trkpt>
      <trkpt lat="49.90823" lon="1.96713">
        <ele>123.4</ele>
        <time>2022-05-25T14:20:17Z</time>
      </trkpt>
      <trkpt lat="49.90822" lon="1.96714">
        <ele>123.4</ele>
        <time>2022-05-25T14:20:18Z</time>
      </trkpt>
      <trkpt lat="49.90821" lon="1.96714">
        <ele>123.4</ele>
        <time>2022-05-25T14:20:19Z</time>
      </trkpt>
      <trkpt lat="49.90819" lon="1.96714">
        <ele>123.4</ele>
        <time>2022-05-25T14:20:20Z</time>
      </trkpt>
      <trkpt lat="49.90819" lon="1.96714">
        <ele>123.5</ele>
        <time>2022-05-25T14:20:21Z</time>
      </trkpt>
      <trkpt lat="49.90818" lon="1.96715">
        <ele>123.5</ele>
        <time>2022-05-25T14:20:22Z</time>
      </trkpt>
      <trkpt lat="49.90817" lon="1.96715">
        <ele>123.5</ele>
        <time>2022-05-25T14:20:23Z</time>
      </trkpt>
      <trkpt lat="49.90815" lon="1.96716">
        <ele>123.5</ele>
        <time>2022-05-25T14:20:25Z</time>
      </trkpt>
      <trkpt lat="49.90815" lon="1.96716">
        <ele>123.5</ele>
        <time>2022-05-25T14:20:26Z</time>
      </trkpt>
      <trkpt lat="49.90813" lon="1.96717">
        <ele>123.5</ele>
        <time>2022-05-25T14:20:27Z</time>
      </trkpt>
      <trkpt lat="49.90812" lon="1.96717">
        <ele>123.5</ele>
        <time>2022-05-25T14:20:28Z</time>
      </trkpt>
      <trkpt lat="49.90811" lon="1.96717">
        <ele>123.5</ele>
        <time>2022-05-25T14:20:29Z</time>
      </trkpt>
      <trkpt lat="49.9081" lon="1.96718">
        <ele>123.6</ele>
        <time>2022-05-25T14:20:30Z</time>
      </trkpt>
      <trkpt lat="49.90809" lon="1.96718">
        <ele>123.6</ele>
        <time>2022-05-25T14:20:31Z</time>
      </trkpt>
      <trkpt lat="49.90809" lon="1.96718">
        <ele>123.6</ele>
        <time>2022-05-25T14:20:32Z</time>
      </trkpt>
      <trkpt lat="49.90808" lon="1.96718">
        <ele>123.6</ele>
        <time>2022-05-25T14:20:34Z</time>
      </trkpt>
      <trkpt lat="49.90807" lon="1.96718">
        <ele>123.6</ele>
        <time>2022-05-25T14:20:35Z</time>
      </trkpt>
      <trkpt lat="49.90806" lon="1.96719">
        <ele>123.6</ele>
        <time>2022-05-25T14:20:36Z</time>
      </trkpt>
      <trkpt lat="49.90805" lon="1.96719">
        <ele>123.7</ele>
        <time>2022-05-25T14:20:37Z</time>
      </trkpt>
      <trkpt lat="49.90804" lon="1.96719">
        <ele>123.7</ele>
        <time>2022-05-25T14:20:38Z</time>
      </trkpt>
      <trkpt lat="49.90803" lon="1.96719">
        <ele>123.7</ele>
        <time>2022-05-25T14:20:39Z</time>
      </trkpt>
      <trkpt lat="49.90802" lon="1.96718">
        <ele>123.7</ele>
        <time>2022-05-25T14:20:40Z</time>
      </trkpt>
      <trkpt lat="49.90801" lon="1.96718">
        <ele>123.8</ele>
        <time>2022-05-25T14:20:42Z</time>
      </trkpt>
      <trkpt lat="49.90801" lon="1.96717">
        <ele>123.8</ele>
        <time>2022-05-25T14:20:43Z</time>
      </trkpt>
      <trkpt lat="49.908" lon="1.96717">
        <ele>123.8</ele>
        <time>2022-05-25T14:20:44Z</time>
      </trkpt>
      <trkpt lat="49.90799" lon="1.96716">
        <ele>123.8</ele>
        <time>2022-05-25T14:20:45Z</time>
      </trkpt>
      <trkpt lat="49.90798" lon="1.96716">
        <ele>123.9</ele>
        <time>2022-05-25T14:20:46Z</time>
      </trkpt>
      <trkpt lat="49.90797" lon="1.96715">
        <ele>123.9</ele>
        <time>2022-05-25T14:20:47Z</time>
      </trkpt>
      <trkpt lat="49.90796" lon="1.96715">
        <ele>123.9</ele>
        <time>2022-05-25T14:20:48Z</time>
      </trkpt>
      <trkpt lat="49.90795" lon="1.96715">
        <ele>123.9</ele>
        <time>2022-05-25T14:20:49Z</time>
      </trkpt>
      <trkpt lat="49.90793" lon="1.96714">
        <ele>124</ele>
        <time>2022-05-25T14:20:50Z</time>
      </trkpt>
      <trkpt lat="49.90792" lon="1.96714">
        <ele>124.1</ele>
        <time>2022-05-25T14:20:52Z</time>
      </trkpt>
      <trkpt lat="49.90791" lon="1.96714">
        <ele>124.1</ele>
        <time>2022-05-25T14:20:53Z</time>
      </trkpt>
      <trkpt lat="49.9079" lon="1.96714">
        <ele>124.1</ele>
        <time>2022-05-25T14:20:54Z</time>
      </trkpt>
      <trkpt lat="49.90788" lon="1.96714">
        <ele>124.2</ele>
        <time>2022-05-25T14:20:55Z</time>
      </trkpt>
      <trkpt lat="49.90786" lon="1.96714">
        <ele>124.3</ele>
        <time>2022-05-25T14:20:56Z</time>
      </trkpt>
      <trkpt lat="49.90785" lon="1.96714">
        <ele>124.3</ele>
        <time>2022-05-25T14:20:57Z</time>
      </trkpt>
      <trkpt lat="49.90784" lon="1.96714">
        <ele>124.4</ele>
        <time>2022-05-25T14:20:58Z</time>
      </trkpt>
      <trkpt lat="49.90781" lon="1.96715">
        <ele>124.5</ele>
        <time>2022-05-25T14:21:00Z</time>
      </trkpt>
      <trkpt lat="49.90779" lon="1.96716">
        <ele>124.6</ele>
        <time>2022-05-25T14:21:01Z</time>
      </trkpt>
      <trkpt lat="49.90777" lon="1.96718">
        <ele>124.7</ele>
        <time>2022-05-25T14:21:02Z</time>
      </trkpt>
      <trkpt lat="49.90776" lon="1.96719">
        <ele>124.7</ele>
        <time>2022-05-25T14:21:04Z</time>
      </trkpt>
      <trkpt lat="49.90774" lon="1.9672">
        <ele>124.8</ele>
        <time>2022-05-25T14:21:05Z</time>
      </trkpt>
      <trkpt lat="49.90773" lon="1.96721">
        <ele>124.8</ele>
        <time>2022-05-25T14:21:06Z</time>
      </trkpt>
      <trkpt lat="49.90772" lon="1.96722">
        <ele>124.9</ele>
        <time>2022-05-25T14:21:07Z</time>
      </trkpt>
      <trkpt lat="49.90771" lon="1.96723">
        <ele>124.9</ele>
        <time>2022-05-25T14:21:09Z</time>
      </trkpt>
      <trkpt lat="49.9077" lon="1.96723">
        <ele>125</ele>
        <time>2022-05-25T14:21:10Z</time>
      </trkpt>
      <trkpt lat="49.90769" lon="1.96723">
        <ele>125</ele>
        <time>2022-05-25T14:21:11Z</time>
      </trkpt>
      <trkpt lat="49.90768" lon="1.96722">
        <ele>125</ele>
        <time>2022-05-25T14:21:12Z</time>
      </trkpt>
      <trkpt lat="49.90768" lon="1.96722">
        <ele>125.1</ele>
        <time>2022-05-25T14:21:13Z</time>
      </trkpt>
      <trkpt lat="49.90768" lon="1.96722">
        <ele>125.1</ele>
        <time>2022-05-25T14:21:14Z</time>
      </trkpt>
      <trkpt lat="49.90768" lon="1.96722">
        <ele>125.1</ele>
        <time>2022-05-25T14:21:15Z</time>
      </trkpt>
      <trkpt lat="49.90768" lon="1.96722">
        <ele>125.1</ele>
        <time>2022-05-25T14:21:16Z</time>
      </trkpt>
      <trkpt lat="49.90767" lon="1.96722">
        <ele>125.1</ele>
        <time>2022-05-25T14:21:17Z</time>
      </trkpt>
      <trkpt lat="49.90767" lon="1.96722">
        <ele>125.1</ele>
        <time>2022-05-25T14:21:18Z</time>
      </trkpt>
      <trkpt lat="49.90767" lon="1.96722">
        <ele>125.1</ele>
        <time>2022-05-25T14:21:19Z</time>
      </trkpt>
      <trkpt lat="49.90767" lon="1.96722">
        <ele>125.1</ele>
        <time>2022-05-25T14:21:20Z</time>
      </trkpt>
      <trkpt lat="49.90767" lon="1.96722">
        <ele>125.1</ele>
        <time>2022-05-25T14:21:21Z</time>
      </trkpt>
      <trkpt lat="49.90767" lon="1.96722">
        <ele>125.1</ele>
        <time>2022-05-25T14:21:22Z</time>
      </trkpt>
      <trkpt lat="49.90767" lon="1.96722">
        <ele>125.1</ele>
        <time>2022-05-25T14:21:23Z</time>
      </trkpt>
      <trkpt lat="49.90767" lon="1.96722">
        <ele>125.1</ele>
        <time>2022-05-25T14:21:24Z</time>
      </trkpt>
      <trkpt lat="49.90767" lon="1.96722">
        <ele>125.1</ele>
        <time>2022-05-25T14:21:25Z</time>
      </trkpt>
      <trkpt lat="49.90767" lon="1.96722">
        <ele>125.1</ele>
        <time>2022-05-25T14:21:26Z</time>
      </trkpt>
      <trkpt lat="49.90767" lon="1.96721">
        <ele>125.1</ele>
        <time>2022-05-25T14:21:27Z</time>
      </trkpt>
      <trkpt lat="49.90767" lon="1.96721">
        <ele>125.1</ele>
        <time>2022-05-25T14:21:28Z</time>
      </trkpt>
      <trkpt lat="49.90768" lon="1.96722">
        <ele>125.1</ele>
        <time>2022-05-25T14:21:29Z</time>
      </trkpt>
      <trkpt lat="49.90768" lon="1.96722">
        <ele>125.1</ele>
        <time>2022-05-25T14:21:30Z</time>
      </trkpt>
      <trkpt lat="49.90768" lon="1.96722">
        <ele>125.1</ele>
        <time>2022-05-25T14:21:31Z</time>
      </trkpt>
      <trkpt lat="49.90768" lon="1.96722">
        <ele>125.1</ele>
        <time>2022-05-25T14:21:32Z</time>
      </trkpt>
      <trkpt lat="49.90768" lon="1.96722">
        <ele>125.1</ele>
        <time>2022-05-25T14:21:33Z</time>
      </trkpt>
      <trkpt lat="49.90768" lon="1.96722">
        <ele>125.1</ele>
        <time>2022-05-25T14:21:34Z</time>
      </trkpt>
      <trkpt lat="49.90768" lon="1.96722">
        <ele>125.1</ele>
        <time>2022-05-25T14:21:36Z</time>
      </trkpt>
      <trkpt lat="49.90768" lon="1.96722">
        <ele>125.1</ele>
        <time>2022-05-25T14:21:37Z</time>
      </trkpt>
      <trkpt lat="49.90768" lon="1.96722">
        <ele>125.1</ele>
        <time>2022-05-25T14:21:38Z</time>
      </trkpt>
      <trkpt lat="49.90768" lon="1.96722">
        <ele>125.1</ele>
        <time>2022-05-25T14:21:39Z</time>
      </trkpt>
      <trkpt lat="49.90768" lon="1.96722">
        <ele>125.1</ele>
        <time>2022-05-25T14:21:40Z</time>
      </trkpt>
      <trkpt lat="49.90768" lon="1.96722">
        <ele>125.2</ele>
        <time>2022-05-25T14:21:41Z</time>
      </trkpt>
      <trkpt lat="49.90767" lon="1.96722">
        <ele>125.2</ele>
        <time>2022-05-25T14:21:42Z</time>
      </trkpt>
      <trkpt lat="49.90766" lon="1.96722">
        <ele>125.2</ele>
        <time>2022-05-25T14:21:43Z</time>
      </trkpt>
      <trkpt lat="49.90765" lon="1.96723">
        <ele>125.3</ele>
        <time>2022-05-25T14:21:45Z</time>
      </trkpt>
      <trkpt lat="49.90765" lon="1.96723">
        <ele>125.3</ele>
        <time>2022-05-25T14:21:47Z</time>
      </trkpt>
      <trkpt lat="49.90764" lon="1.96724">
        <ele>125.3</ele>
        <time>2022-05-25T14:21:48Z</time>
      </trkpt>
      <trkpt lat="49.90764" lon="1.96726">
        <ele>125.4</ele>
        <time>2022-05-25T14:21:49Z</time>
      </trkpt>
      <trkpt lat="49.90763" lon="1.96727">
        <ele>125.4</ele>
        <time>2022-05-25T14:21:51Z</time>
      </trkpt>
      <trkpt lat="49.90763" lon="1.96729">
        <ele>125.4</ele>
        <time>2022-05-25T14:21:52Z</time>
      </trkpt>
      <trkpt lat="49.90762" lon="1.96731">
        <ele>125.5</ele>
        <time>2022-05-25T14:21:53Z</time>
      </trkpt>
      <trkpt lat="49.90762" lon="1.96734">
        <ele>125.5</ele>
        <time>2022-05-25T14:21:54Z</time>
      </trkpt>
      <trkpt lat="49.90761" lon="1.96735">
        <ele>125.5</ele>
        <time>2022-05-25T14:21:56Z</time>
      </trkpt>
      <trkpt lat="49.90761" lon="1.96736">
        <ele>125.6</ele>
        <time>2022-05-25T14:21:57Z</time>
      </trkpt>
      <trkpt lat="49.9076" lon="1.96737">
        <ele>125.6</ele>
        <time>2022-05-25T14:21:58Z</time>
      </trkpt>
      <trkpt lat="49.90758" lon="1.96739">
        <ele>125.6</ele>
        <time>2022-05-25T14:22:00Z</time>
      </trkpt>
      <trkpt lat="49.90757" lon="1.9674">
        <ele>125.6</ele>
        <time>2022-05-25T14:22:01Z</time>
      </trkpt>
      <trkpt lat="49.90756" lon="1.96741">
        <ele>125.7</ele>
        <time>2022-05-25T14:22:02Z</time>
      </trkpt>
      <trkpt lat="49.90755" lon="1.96742">
        <ele>125.7</ele>
        <time>2022-05-25T14:22:03Z</time>
      </trkpt>
      <trkpt lat="49.90755" lon="1.96743">
        <ele>125.7</ele>
        <time>2022-05-25T14:22:04Z</time>
      </trkpt>
      <trkpt lat="49.90754" lon="1.96743">
        <ele>125.7</ele>
        <time>2022-05-25T14:22:05Z</time>
      </trkpt>
      <trkpt lat="49.90753" lon="1.96744">
        <ele>125.7</ele>
        <time>2022-05-25T14:22:07Z</time>
      </trkpt>
      <trkpt lat="49.90752" lon="1.96744">
        <ele>125.7</ele>
        <time>2022-05-25T14:22:08Z</time>
      </trkpt>
      <trkpt lat="49.90751" lon="1.96744">
        <ele>125.7</ele>
        <time>2022-05-25T14:22:09Z</time>
      </trkpt>
      <trkpt lat="49.9075" lon="1.96744">
        <ele>125.7</ele>
        <time>2022-05-25T14:22:10Z</time>
      </trkpt>
      <trkpt lat="49.90749" lon="1.96744">
        <ele>125.7</ele>
        <time>2022-05-25T14:22:11Z</time>
      </trkpt>
      <trkpt lat="49.90748" lon="1.96745">
        <ele>125.7</ele>
        <time>2022-05-25T14:22:12Z</time>
      </trkpt>
      <trkpt lat="49.90748" lon="1.96745">
        <ele>125.7</ele>
        <time>2022-05-25T14:22:14Z</time>
      </trkpt>
      <trkpt lat="49.90747" lon="1.96746">
        <ele>125.7</ele>
        <time>2022-05-25T14:22:15Z</time>
      </trkpt>
      <trkpt lat="49.90746" lon="1.96746">
        <ele>125.7</ele>
        <time>2022-05-25T14:22:16Z</time>
      </trkpt>
      <trkpt lat="49.90746" lon="1.96747">
        <ele>125.7</ele>
        <time>2022-05-25T14:22:18Z</time>
      </trkpt>
      <trkpt lat="49.90745" lon="1.96749">
        <ele>125.6</ele>
        <time>2022-05-25T14:22:19Z</time>
      </trkpt>
      <trkpt lat="49.90744" lon="1.9675">
        <ele>125.6</ele>
        <time>2022-05-25T14:22:21Z</time>
      </trkpt>
      <trkpt lat="49.90743" lon="1.96751">
        <ele>125.6</ele>
        <time>2022-05-25T14:22:22Z</time>
      </trkpt>
      <trkpt lat="49.90743" lon="1.96752">
        <ele>125.6</ele>
        <time>2022-05-25T14:22:23Z</time>
      </trkpt>
      <trkpt lat="49.90742" lon="1.96753">
        <ele>125.6</ele>
        <time>2022-05-25T14:22:24Z</time>
      </trkpt>
      <trkpt lat="49.90741" lon="1.96754">
        <ele>125.6</ele>
        <time>2022-05-25T14:22:26Z</time>
      </trkpt>
      <trkpt lat="49.90741" lon="1.96755">
        <ele>125.6</ele>
        <time>2022-05-25T14:22:27Z</time>
      </trkpt>
      <trkpt lat="49.9074" lon="1.96757">
        <ele>125.6</ele>
        <time>2022-05-25T14:22:28Z</time>
      </trkpt>
      <trkpt lat="49.90739" lon="1.96759">
        <ele>125.6</ele>
        <time>2022-05-25T14:22:30Z</time>
      </trkpt>
      <trkpt lat="49.90738" lon="1.9676">
        <ele>125.6</ele>
        <time>2022-05-25T14:22:32Z</time>
      </trkpt>
      <trkpt lat="49.90737" lon="1.96761">
        <ele>125.6</ele>
        <time>2022-05-25T14:22:33Z</time>
      </trkpt>
      <trkpt lat="49.90736" lon="1.96762">
        <ele>125.6</ele>
        <time>2022-05-25T14:22:34Z</time>
      </trkpt>
      <trkpt lat="49.90735" lon="1.96764">
        <ele>125.6</ele>
        <time>2022-05-25T14:22:36Z</time>
      </trkpt>
      <trkpt lat="49.90733" lon="1.96766">
        <ele>125.7</ele>
        <time>2022-05-25T14:22:37Z</time>
      </trkpt>
      <trkpt lat="49.90733" lon="1.96767">
        <ele>125.7</ele>
        <time>2022-05-25T14:22:38Z</time>
      </trkpt>
      <trkpt lat="49.90732" lon="1.96767">
        <ele>125.7</ele>
        <time>2022-05-25T14:22:39Z</time>
      </trkpt>
      <trkpt lat="49.9073" lon="1.96769">
        <ele>125.7</ele>
        <time>2022-05-25T14:22:41Z</time>
      </trkpt>
      <trkpt lat="49.90729" lon="1.9677">
        <ele>125.7</ele>
        <time>2022-05-25T14:22:42Z</time>
      </trkpt>
      <trkpt lat="49.90729" lon="1.96771">
        <ele>125.8</ele>
        <time>2022-05-25T14:22:43Z</time>
      </trkpt>
      <trkpt lat="49.90727" lon="1.96773">
        <ele>125.8</ele>
        <time>2022-05-25T14:22:44Z</time>
      </trkpt>
      <trkpt lat="49.90726" lon="1.96773">
        <ele>125.8</ele>
        <time>2022-05-25T14:22:45Z</time>
      </trkpt>
      <trkpt lat="49.90726" lon="1.96774">
        <ele>125.9</ele>
        <time>2022-05-25T14:22:46Z</time>
      </trkpt>
      <trkpt lat="49.90724" lon="1.96776">
        <ele>125.9</ele>
        <time>2022-05-25T14:22:48Z</time>
      </trkpt>
      <trkpt lat="49.90723" lon="1.96777">
        <ele>125.9</ele>
        <time>2022-05-25T14:22:50Z</time>
      </trkpt>
      <trkpt lat="49.90722" lon="1.96779">
        <ele>126</ele>
        <time>2022-05-25T14:22:51Z</time>
      </trkpt>
      <trkpt lat="49.90721" lon="1.9678">
        <ele>126</ele>
        <time>2022-05-25T14:22:52Z</time>
      </trkpt>
      <trkpt lat="49.9072" lon="1.96781">
        <ele>126</ele>
        <time>2022-05-25T14:22:54Z</time>
      </trkpt>
      <trkpt lat="49.90719" lon="1.96782">
        <ele>126.1</ele>
        <time>2022-05-25T14:22:55Z</time>
      </trkpt>
      <trkpt lat="49.90718" lon="1.96783">
        <ele>126.1</ele>
        <time>2022-05-25T14:22:57Z</time>
      </trkpt>
      <trkpt lat="49.90717" lon="1.96784">
        <ele>126.1</ele>
        <time>2022-05-25T14:22:58Z</time>
      </trkpt>
      <trkpt lat="49.90717" lon="1.96785">
        <ele>126.1</ele>
        <time>2022-05-25T14:22:59Z</time>
      </trkpt>
      <trkpt lat="49.90716" lon="1.96787">
        <ele>126.1</ele>
        <time>2022-05-25T14:23:00Z</time>
      </trkpt>
      <trkpt lat="49.90715" lon="1.96788">
        <ele>126.2</ele>
        <time>2022-05-25T14:23:01Z</time>
      </trkpt>
      <trkpt lat="49.90714" lon="1.96789">
        <ele>126.2</ele>
        <time>2022-05-25T14:23:02Z</time>
      </trkpt>
      <trkpt lat="49.90714" lon="1.9679">
        <ele>126.2</ele>
        <time>2022-05-25T14:23:03Z</time>
      </trkpt>
      <trkpt lat="49.90713" lon="1.96791">
        <ele>126.2</ele>
        <time>2022-05-25T14:23:04Z</time>
      </trkpt>
      <trkpt lat="49.90712" lon="1.96792">
        <ele>126.2</ele>
        <time>2022-05-25T14:23:06Z</time>
      </trkpt>
      <trkpt lat="49.90711" lon="1.96795">
        <ele>126.2</ele>
        <time>2022-05-25T14:23:07Z</time>
      </trkpt>
      <trkpt lat="49.90711" lon="1.96796">
        <ele>126.2</ele>
        <time>2022-05-25T14:23:09Z</time>
      </trkpt>
      <trkpt lat="49.9071" lon="1.96798">
        <ele>126.2</ele>
        <time>2022-05-25T14:23:10Z</time>
      </trkpt>
      <trkpt lat="49.90709" lon="1.968">
        <ele>126.2</ele>
        <time>2022-05-25T14:23:11Z</time>
      </trkpt>
      <trkpt lat="49.90709" lon="1.96801">
        <ele>126.2</ele>
        <time>2022-05-25T14:23:12Z</time>
      </trkpt>
      <trkpt lat="49.90708" lon="1.96802">
        <ele>126.2</ele>
        <time>2022-05-25T14:23:13Z</time>
      </trkpt>
      <trkpt lat="49.90707" lon="1.96804">
        <ele>126.2</ele>
        <time>2022-05-25T14:23:14Z</time>
      </trkpt>
      <trkpt lat="49.90707" lon="1.96806">
        <ele>126.2</ele>
        <time>2022-05-25T14:23:15Z</time>
      </trkpt>
      <trkpt lat="49.90706" lon="1.96807">
        <ele>126.2</ele>
        <time>2022-05-25T14:23:17Z</time>
      </trkpt>
      <trkpt lat="49.90705" lon="1.96808">
        <ele>126.2</ele>
        <time>2022-05-25T14:23:18Z</time>
      </trkpt>
      <trkpt lat="49.90705" lon="1.96809">
        <ele>126.2</ele>
        <time>2022-05-25T14:23:20Z</time>
      </trkpt>
      <trkpt lat="49.90704" lon="1.9681">
        <ele>126.2</ele>
        <time>2022-05-25T14:23:21Z</time>
      </trkpt>
      <trkpt lat="49.90704" lon="1.96811">
        <ele>126.2</ele>
        <time>2022-05-25T14:23:22Z</time>
      </trkpt>
      <trkpt lat="49.90703" lon="1.96813">
        <ele>126.2</ele>
        <time>2022-05-25T14:23:24Z</time>
      </trkpt>
      <trkpt lat="49.90703" lon="1.96815">
        <ele>126.3</ele>
        <time>2022-05-25T14:23:25Z</time>
      </trkpt>
      <trkpt lat="49.90701" lon="1.96818">
        <ele>126.3</ele>
        <time>2022-05-25T14:23:27Z</time>
      </trkpt>
      <trkpt lat="49.907" lon="1.96819">
        <ele>126.3</ele>
        <time>2022-05-25T14:23:28Z</time>
      </trkpt>
      <trkpt lat="49.907" lon="1.9682">
        <ele>126.3</ele>
        <time>2022-05-25T14:23:30Z</time>
      </trkpt>
      <trkpt lat="49.90699" lon="1.9682">
        <ele>126.3</ele>
        <time>2022-05-25T14:23:31Z</time>
      </trkpt>
      <trkpt lat="49.90698" lon="1.96821">
        <ele>126.4</ele>
        <time>2022-05-25T14:23:33Z</time>
      </trkpt>
      <trkpt lat="49.90698" lon="1.96822">
        <ele>126.4</ele>
        <time>2022-05-25T14:23:34Z</time>
      </trkpt>
      <trkpt lat="49.90696" lon="1.96824">
        <ele>126.5</ele>
        <time>2022-05-25T14:23:35Z</time>
      </trkpt>
      <trkpt lat="49.90695" lon="1.96825">
        <ele>126.5</ele>
        <time>2022-05-25T14:23:37Z</time>
      </trkpt>
      <trkpt lat="49.90694" lon="1.96826">
        <ele>126.5</ele>
        <time>2022-05-25T14:23:38Z</time>
      </trkpt>
      <trkpt lat="49.90693" lon="1.96827">
        <ele>126.6</ele>
        <time>2022-05-25T14:23:39Z</time>
      </trkpt>
      <trkpt lat="49.90692" lon="1.96829">
        <ele>126.6</ele>
        <time>2022-05-25T14:23:40Z</time>
      </trkpt>
      <trkpt lat="49.9069" lon="1.9683">
        <ele>126.7</ele>
        <time>2022-05-25T14:23:41Z</time>
      </trkpt>
      <trkpt lat="49.90689" lon="1.96831">
        <ele>126.7</ele>
        <time>2022-05-25T14:23:42Z</time>
      </trkpt>
      <trkpt lat="49.90687" lon="1.96832">
        <ele>126.8</ele>
        <time>2022-05-25T14:23:44Z</time>
      </trkpt>
      <trkpt lat="49.90686" lon="1.96833">
        <ele>126.9</ele>
        <time>2022-05-25T14:23:45Z</time>
      </trkpt>
      <trkpt lat="49.90684" lon="1.96835">
        <ele>127</ele>
        <time>2022-05-25T14:23:47Z</time>
      </trkpt>
      <trkpt lat="49.90683" lon="1.96837">
        <ele>127</ele>
        <time>2022-05-25T14:23:49Z</time>
      </trkpt>
      <trkpt lat="49.90683" lon="1.96837">
        <ele>127.1</ele>
        <time>2022-05-25T14:23:50Z</time>
      </trkpt>
      <trkpt lat="49.90682" lon="1.96838">
        <ele>127.1</ele>
        <time>2022-05-25T14:23:51Z</time>
      </trkpt>
      <trkpt lat="49.90681" lon="1.96839">
        <ele>127.2</ele>
        <time>2022-05-25T14:23:52Z</time>
      </trkpt>
      <trkpt lat="49.9068" lon="1.9684">
        <ele>127.2</ele>
        <time>2022-05-25T14:23:53Z</time>
      </trkpt>
      <trkpt lat="49.9068" lon="1.96841">
        <ele>127.3</ele>
        <time>2022-05-25T14:23:55Z</time>
      </trkpt>
      <trkpt lat="49.90679" lon="1.96843">
        <ele>127.3</ele>
        <time>2022-05-25T14:23:56Z</time>
      </trkpt>
      <trkpt lat="49.90679" lon="1.96844">
        <ele>127.4</ele>
        <time>2022-05-25T14:23:57Z</time>
      </trkpt>
      <trkpt lat="49.90678" lon="1.96845">
        <ele>127.4</ele>
        <time>2022-05-25T14:23:58Z</time>
      </trkpt>
      <trkpt lat="49.90678" lon="1.96847">
        <ele>127.5</ele>
        <time>2022-05-25T14:23:59Z</time>
      </trkpt>
      <trkpt lat="49.90677" lon="1.96848">
        <ele>127.5</ele>
        <time>2022-05-25T14:24:01Z</time>
      </trkpt>
      <trkpt lat="49.90677" lon="1.96849">
        <ele>127.5</ele>
        <time>2022-05-25T14:24:02Z</time>
      </trkpt>
      <trkpt lat="49.90676" lon="1.96851">
        <ele>127.6</ele>
        <time>2022-05-25T14:24:03Z</time>
      </trkpt>
      <trkpt lat="49.90676" lon="1.96852">
        <ele>127.6</ele>
        <time>2022-05-25T14:24:04Z</time>
      </trkpt>
      <trkpt lat="49.90675" lon="1.96853">
        <ele>127.7</ele>
        <time>2022-05-25T14:24:05Z</time>
      </trkpt>
      <trkpt lat="49.90675" lon="1.96854">
        <ele>127.7</ele>
        <time>2022-05-25T14:24:06Z</time>
      </trkpt>
      <trkpt lat="49.90674" lon="1.96856">
        <ele>127.8</ele>
        <time>2022-05-25T14:24:07Z</time>
      </trkpt>
      <trkpt lat="49.90673" lon="1.96856">
        <ele>127.8</ele>
        <time>2022-05-25T14:24:09Z</time>
      </trkpt>
      <trkpt lat="49.90672" lon="1.96857">
        <ele>127.9</ele>
        <time>2022-05-25T14:24:10Z</time>
      </trkpt>
      <trkpt lat="49.90671" lon="1.96859">
        <ele>128</ele>
        <time>2022-05-25T14:24:11Z</time>
      </trkpt>
      <trkpt lat="49.9067" lon="1.96859">
        <ele>128</ele>
        <time>2022-05-25T14:24:12Z</time>
      </trkpt>
      <trkpt lat="49.90669" lon="1.9686">
        <ele>128</ele>
        <time>2022-05-25T14:24:13Z</time>
      </trkpt>
      <trkpt lat="49.90668" lon="1.96861">
        <ele>128.1</ele>
        <time>2022-05-25T14:24:14Z</time>
      </trkpt>
      <trkpt lat="49.90666" lon="1.96863">
        <ele>128.2</ele>
        <time>2022-05-25T14:24:16Z</time>
      </trkpt>
      <trkpt lat="49.90665" lon="1.96863">
        <ele>128.2</ele>
        <time>2022-05-25T14:24:17Z</time>
      </trkpt>
      <trkpt lat="49.90665" lon="1.96864">
        <ele>128.2</ele>
        <time>2022-05-25T14:24:18Z</time>
      </trkpt>
      <trkpt lat="49.90664" lon="1.96864">
        <ele>128.3</ele>
        <time>2022-05-25T14:24:19Z</time>
      </trkpt>
      <trkpt lat="49.90663" lon="1.96865">
        <ele>128.3</ele>
        <time>2022-05-25T14:24:20Z</time>
      </trkpt>
      <trkpt lat="49.90662" lon="1.96865">
        <ele>128.3</ele>
        <time>2022-05-25T14:24:22Z</time>
      </trkpt>
      <trkpt lat="49.90661" lon="1.96865">
        <ele>128.3</ele>
        <time>2022-05-25T14:24:23Z</time>
      </trkpt>
      <trkpt lat="49.90661" lon="1.96866">
        <ele>128.3</ele>
        <time>2022-05-25T14:24:24Z</time>
      </trkpt>
      <trkpt lat="49.9066" lon="1.96866">
        <ele>128.4</ele>
        <time>2022-05-25T14:24:25Z</time>
      </trkpt>
      <trkpt lat="49.90659" lon="1.96866">
        <ele>128.4</ele>
        <time>2022-05-25T14:24:26Z</time>
      </trkpt>
      <trkpt lat="49.90658" lon="1.96867">
        <ele>128.4</ele>
        <time>2022-05-25T14:24:27Z</time>
      </trkpt>
      <trkpt lat="49.90657" lon="1.96867">
        <ele>128.4</ele>
        <time>2022-05-25T14:24:28Z</time>
      </trkpt>
      <trkpt lat="49.90657" lon="1.96868">
        <ele>128.4</ele>
        <time>2022-05-25T14:24:30Z</time>
      </trkpt>
      <trkpt lat="49.90656" lon="1.96868">
        <ele>128.5</ele>
        <time>2022-05-25T14:24:31Z</time>
      </trkpt>
      <trkpt lat="49.90655" lon="1.96869">
        <ele>128.5</ele>
        <time>2022-05-25T14:24:32Z</time>
      </trkpt>
      <trkpt lat="49.90654" lon="1.9687">
        <ele>128.5</ele>
        <time>2022-05-25T14:24:33Z</time>
      </trkpt>
      <trkpt lat="49.90653" lon="1.96871">
        <ele>128.5</ele>
        <time>2022-05-25T14:24:34Z</time>
      </trkpt>
      <trkpt lat="49.90653" lon="1.96871">
        <ele>128.5</ele>
        <time>2022-05-25T14:24:35Z</time>
      </trkpt>
      <trkpt lat="49.90653" lon="1.96872">
        <ele>128.5</ele>
        <time>2022-05-25T14:24:36Z</time>
      </trkpt>
      <trkpt lat="49.90652" lon="1.96873">
        <ele>128.5</ele>
        <time>2022-05-25T14:24:38Z</time>
      </trkpt>
      <trkpt lat="49.90652" lon="1.96874">
        <ele>128.5</ele>
        <time>2022-05-25T14:24:39Z</time>
      </trkpt>
      <trkpt lat="49.90651" lon="1.96875">
        <ele>128.5</ele>
        <time>2022-05-25T14:24:40Z</time>
      </trkpt>
      <trkpt lat="49.90651" lon="1.96876">
        <ele>128.5</ele>
        <time>2022-05-25T14:24:41Z</time>
      </trkpt>
      <trkpt lat="49.90651" lon="1.96877">
        <ele>128.5</ele>
        <time>2022-05-25T14:24:42Z</time>
      </trkpt>
      <trkpt lat="49.90651" lon="1.96878">
        <ele>128.5</ele>
        <time>2022-05-25T14:24:44Z</time>
      </trkpt>
      <trkpt lat="49.9065" lon="1.9688">
        <ele>128.5</ele>
        <time>2022-05-25T14:24:45Z</time>
      </trkpt>
      <trkpt lat="49.9065" lon="1.96881">
        <ele>128.6</ele>
        <time>2022-05-25T14:24:46Z</time>
      </trkpt>
      <trkpt lat="49.9065" lon="1.96882">
        <ele>128.6</ele>
        <time>2022-05-25T14:24:47Z</time>
      </trkpt>
      <trkpt lat="49.90649" lon="1.96884">
        <ele>128.6</ele>
        <time>2022-05-25T14:24:48Z</time>
      </trkpt>
      <trkpt lat="49.90648" lon="1.96885">
        <ele>128.6</ele>
        <time>2022-05-25T14:24:49Z</time>
      </trkpt>
      <trkpt lat="49.90647" lon="1.96887">
        <ele>128.6</ele>
        <time>2022-05-25T14:24:50Z</time>
      </trkpt>
      <trkpt lat="49.90646" lon="1.96888">
        <ele>128.6</ele>
        <time>2022-05-25T14:24:52Z</time>
      </trkpt>
      <trkpt lat="49.90645" lon="1.96889">
        <ele>128.6</ele>
        <time>2022-05-25T14:24:53Z</time>
      </trkpt>
      <trkpt lat="49.90644" lon="1.96891">
        <ele>128.6</ele>
        <time>2022-05-25T14:24:54Z</time>
      </trkpt>
      <trkpt lat="49.90644" lon="1.96892">
        <ele>128.6</ele>
        <time>2022-05-25T14:24:55Z</time>
      </trkpt>
      <trkpt lat="49.90643" lon="1.96894">
        <ele>128.6</ele>
        <time>2022-05-25T14:24:56Z</time>
      </trkpt>
      <trkpt lat="49.90641" lon="1.96896">
        <ele>128.6</ele>
        <time>2022-05-25T14:24:57Z</time>
      </trkpt>
      <trkpt lat="49.9064" lon="1.96897">
        <ele>128.6</ele>
        <time>2022-05-25T14:24:58Z</time>
      </trkpt>
      <trkpt lat="49.9064" lon="1.96898">
        <ele>128.6</ele>
        <time>2022-05-25T14:24:59Z</time>
      </trkpt>
      <trkpt lat="49.90638" lon="1.96899">
        <ele>128.6</ele>
        <time>2022-05-25T14:25:01Z</time>
      </trkpt>
      <trkpt lat="49.90637" lon="1.96901">
        <ele>128.6</ele>
        <time>2022-05-25T14:25:02Z</time>
      </trkpt>
      <trkpt lat="49.90636" lon="1.96902">
        <ele>128.6</ele>
        <time>2022-05-25T14:25:03Z</time>
      </trkpt>
      <trkpt lat="49.90635" lon="1.96903">
        <ele>128.6</ele>
        <time>2022-05-25T14:25:04Z</time>
      </trkpt>
      <trkpt lat="49.90634" lon="1.96905">
        <ele>128.6</ele>
        <time>2022-05-25T14:25:05Z</time>
      </trkpt>
      <trkpt lat="49.90633" lon="1.96906">
        <ele>128.6</ele>
        <time>2022-05-25T14:25:06Z</time>
      </trkpt>
      <trkpt lat="49.90632" lon="1.96907">
        <ele>128.6</ele>
        <time>2022-05-25T14:25:08Z</time>
      </trkpt>
      <trkpt lat="49.90631" lon="1.96908">
        <ele>128.6</ele>
        <time>2022-05-25T14:25:09Z</time>
      </trkpt>
      <trkpt lat="49.90629" lon="1.9691">
        <ele>128.6</ele>
        <time>2022-05-25T14:25:10Z</time>
      </trkpt>
      <trkpt lat="49.90629" lon="1.9691">
        <ele>128.6</ele>
        <time>2022-05-25T14:25:11Z</time>
      </trkpt>
      <trkpt lat="49.90628" lon="1.96911">
        <ele>128.6</ele>
        <time>2022-05-25T14:25:12Z</time>
      </trkpt>
      <trkpt lat="49.90627" lon="1.96912">
        <ele>128.6</ele>
        <time>2022-05-25T14:25:14Z</time>
      </trkpt>
      <trkpt lat="49.90626" lon="1.96914">
        <ele>128.6</ele>
        <time>2022-05-25T14:25:15Z</time>
      </trkpt>
      <trkpt lat="49.90625" lon="1.96915">
        <ele>128.6</ele>
        <time>2022-05-25T14:25:16Z</time>
      </trkpt>
      <trkpt lat="49.90624" lon="1.96916">
        <ele>128.6</ele>
        <time>2022-05-25T14:25:17Z</time>
      </trkpt>
      <trkpt lat="49.90622" lon="1.96917">
        <ele>128.5</ele>
        <time>2022-05-25T14:25:19Z</time>
      </trkpt>
      <trkpt lat="49.90622" lon="1.96918">
        <ele>128.5</ele>
        <time>2022-05-25T14:25:20Z</time>
      </trkpt>
      <trkpt lat="49.90621" lon="1.96919">
        <ele>128.5</ele>
        <time>2022-05-25T14:25:21Z</time>
      </trkpt>
      <trkpt lat="49.90619" lon="1.96921">
        <ele>128.5</ele>
        <time>2022-05-25T14:25:22Z</time>
      </trkpt>
      <trkpt lat="49.90619" lon="1.96922">
        <ele>128.5</ele>
        <time>2022-05-25T14:25:23Z</time>
      </trkpt>
      <trkpt lat="49.90618" lon="1.96923">
        <ele>128.5</ele>
        <time>2022-05-25T14:25:25Z</time>
      </trkpt>
      <trkpt lat="49.90617" lon="1.96924">
        <ele>128.5</ele>
        <time>2022-05-25T14:25:26Z</time>
      </trkpt>
      <trkpt lat="49.90616" lon="1.96926">
        <ele>128.5</ele>
        <time>2022-05-25T14:25:27Z</time>
      </trkpt>
      <trkpt lat="49.90616" lon="1.96927">
        <ele>128.5</ele>
        <time>2022-05-25T14:25:28Z</time>
      </trkpt>
      <trkpt lat="49.90615" lon="1.96928">
        <ele>128.5</ele>
        <time>2022-05-25T14:25:29Z</time>
      </trkpt>
      <trkpt lat="49.90614" lon="1.9693">
        <ele>128.5</ele>
        <time>2022-05-25T14:25:30Z</time>
      </trkpt>
      <trkpt lat="49.90613" lon="1.96932">
        <ele>128.4</ele>
        <time>2022-05-25T14:25:31Z</time>
      </trkpt>
      <trkpt lat="49.90612" lon="1.96935">
        <ele>128.4</ele>
        <time>2022-05-25T14:25:33Z</time>
      </trkpt>
      <trkpt lat="49.90611" lon="1.96936">
        <ele>128.4</ele>
        <time>2022-05-25T14:25:34Z</time>
      </trkpt>
      <trkpt lat="49.9061" lon="1.96937">
        <ele>128.4</ele>
        <time>2022-05-25T14:25:35Z</time>
      </trkpt>
      <trkpt lat="49.90609" lon="1.96938">
        <ele>128.3</ele>
        <time>2022-05-25T14:25:36Z</time>
      </trkpt>
      <trkpt lat="49.90608" lon="1.9694">
        <ele>128.3</ele>
        <time>2022-05-25T14:25:37Z</time>
      </trkpt>
      <trkpt lat="49.90607" lon="1.96941">
        <ele>128.3</ele>
        <time>2022-05-25T14:25:38Z</time>
      </trkpt>
      <trkpt lat="49.90606" lon="1.96942">
        <ele>128.3</ele>
        <time>2022-05-25T14:25:39Z</time>
      </trkpt>
      <trkpt lat="49.90606" lon="1.96943">
        <ele>128.2</ele>
        <time>2022-05-25T14:25:41Z</time>
      </trkpt>
      <trkpt lat="49.90605" lon="1.96945">
        <ele>128.2</ele>
        <time>2022-05-25T14:25:42Z</time>
      </trkpt>
      <trkpt lat="49.90604" lon="1.96945">
        <ele>128.2</ele>
        <time>2022-05-25T14:25:43Z</time>
      </trkpt>
      <trkpt lat="49.90603" lon="1.96946">
        <ele>128.1</ele>
        <time>2022-05-25T14:25:44Z</time>
      </trkpt>
      <trkpt lat="49.90602" lon="1.96946">
        <ele>128.1</ele>
        <time>2022-05-25T14:25:45Z</time>
      </trkpt>
      <trkpt lat="49.90601" lon="1.96947">
        <ele>128.1</ele>
        <time>2022-05-25T14:25:47Z</time>
      </trkpt>
      <trkpt lat="49.906" lon="1.96947">
        <ele>128.1</ele>
        <time>2022-05-25T14:25:48Z</time>
      </trkpt>
      <trkpt lat="49.90599" lon="1.96946">
        <ele>128</ele>
        <time>2022-05-25T14:25:49Z</time>
      </trkpt>
      <trkpt lat="49.90599" lon="1.96945">
        <ele>128</ele>
        <time>2022-05-25T14:25:51Z</time>
      </trkpt>
      <trkpt lat="49.90598" lon="1.96945">
        <ele>128</ele>
        <time>2022-05-25T14:25:53Z</time>
      </trkpt>
      <trkpt lat="49.90598" lon="1.96945">
        <ele>128</ele>
        <time>2022-05-25T14:25:54Z</time>
      </trkpt>
      <trkpt lat="49.90599" lon="1.96945">
        <ele>128</ele>
        <time>2022-05-25T14:25:56Z</time>
      </trkpt>
      <trkpt lat="49.90599" lon="1.96944">
        <ele>128</ele>
        <time>2022-05-25T14:25:57Z</time>
      </trkpt>
      <trkpt lat="49.90599" lon="1.96944">
        <ele>128</ele>
        <time>2022-05-25T14:25:59Z</time>
      </trkpt>
      <trkpt lat="49.90598" lon="1.96943">
        <ele>128</ele>
        <time>2022-05-25T14:26:00Z</time>
      </trkpt>
      <trkpt lat="49.90598" lon="1.96942">
        <ele>127.9</ele>
        <time>2022-05-25T14:26:02Z</time>
      </trkpt>
      <trkpt lat="49.90597" lon="1.96941">
        <ele>127.9</ele>
        <time>2022-05-25T14:26:04Z</time>
      </trkpt>
      <trkpt lat="49.90598" lon="1.96941">
        <ele>127.9</ele>
        <time>2022-05-25T14:26:05Z</time>
      </trkpt>
      <trkpt lat="49.90598" lon="1.96941">
        <ele>127.9</ele>
        <time>2022-05-25T14:26:06Z</time>
      </trkpt>
      <trkpt lat="49.90598" lon="1.9694">
        <ele>127.9</ele>
        <time>2022-05-25T14:26:07Z</time>
      </trkpt>
      <trkpt lat="49.90599" lon="1.9694">
        <ele>127.9</ele>
        <time>2022-05-25T14:26:09Z</time>
      </trkpt>
      <trkpt lat="49.90599" lon="1.9694">
        <ele>127.9</ele>
        <time>2022-05-25T14:26:10Z</time>
      </trkpt>
      <trkpt lat="49.90599" lon="1.9694">
        <ele>127.9</ele>
        <time>2022-05-25T14:26:11Z</time>
      </trkpt>
      <trkpt lat="49.90599" lon="1.9694">
        <ele>127.9</ele>
        <time>2022-05-25T14:26:12Z</time>
      </trkpt>
      <trkpt lat="49.906" lon="1.9694">
        <ele>127.8</ele>
        <time>2022-05-25T14:26:13Z</time>
      </trkpt>
      <trkpt lat="49.906" lon="1.9694">
        <ele>127.8</ele>
        <time>2022-05-25T14:26:14Z</time>
      </trkpt>
      <trkpt lat="49.906" lon="1.96939">
        <ele>127.8</ele>
        <time>2022-05-25T14:26:15Z</time>
      </trkpt>
      <trkpt lat="49.906" lon="1.96939">
        <ele>127.8</ele>
        <time>2022-05-25T14:26:16Z</time>
      </trkpt>
      <trkpt lat="49.90601" lon="1.96939">
        <ele>127.8</ele>
        <time>2022-05-25T14:26:17Z</time>
      </trkpt>
      <trkpt lat="49.90601" lon="1.96939">
        <ele>127.8</ele>
        <time>2022-05-25T14:26:18Z</time>
      </trkpt>
      <trkpt lat="49.90601" lon="1.96939">
        <ele>127.8</ele>
        <time>2022-05-25T14:26:19Z</time>
      </trkpt>
      <trkpt lat="49.90601" lon="1.96939">
        <ele>127.8</ele>
        <time>2022-05-25T14:26:20Z</time>
      </trkpt>
      <trkpt lat="49.90603" lon="1.96939">
        <ele>127.8</ele>
        <time>2022-05-25T14:26:21Z</time>
      </trkpt>
      <trkpt lat="49.90603" lon="1.96939">
        <ele>127.7</ele>
        <time>2022-05-25T14:26:22Z</time>
      </trkpt>
      <trkpt lat="49.90605" lon="1.96938">
        <ele>127.7</ele>
        <time>2022-05-25T14:26:23Z</time>
      </trkpt>
      <trkpt lat="49.90606" lon="1.96938">
        <ele>127.7</ele>
        <time>2022-05-25T14:26:24Z</time>
      </trkpt>
      <trkpt lat="49.90607" lon="1.96937">
        <ele>127.6</ele>
        <time>2022-05-25T14:26:25Z</time>
      </trkpt>
      <trkpt lat="49.90608" lon="1.96936">
        <ele>127.6</ele>
        <time>2022-05-25T14:26:26Z</time>
      </trkpt>
      <trkpt lat="49.90608" lon="1.96936">
        <ele>127.6</ele>
        <time>2022-05-25T14:26:27Z</time>
      </trkpt>
      <trkpt lat="49.90609" lon="1.96936">
        <ele>127.6</ele>
        <time>2022-05-25T14:26:28Z</time>
      </trkpt>
      <trkpt lat="49.90608" lon="1.96936">
        <ele>127.6</ele>
        <time>2022-05-25T14:26:30Z</time>
      </trkpt>
      <trkpt lat="49.90608" lon="1.96936">
        <ele>127.6</ele>
        <time>2022-05-25T14:26:31Z</time>
      </trkpt>
      <trkpt lat="49.90608" lon="1.96936">
        <ele>127.6</ele>
        <time>2022-05-25T14:26:32Z</time>
      </trkpt>
      <trkpt lat="49.90609" lon="1.96936">
        <ele>127.5</ele>
        <time>2022-05-25T14:26:33Z</time>
      </trkpt>
      <trkpt lat="49.90609" lon="1.96936">
        <ele>127.5</ele>
        <time>2022-05-25T14:26:35Z</time>
      </trkpt>
      <trkpt lat="49.90609" lon="1.96936">
        <ele>127.5</ele>
        <time>2022-05-25T14:26:36Z</time>
      </trkpt>
      <trkpt lat="49.90609" lon="1.96936">
        <ele>127.5</ele>
        <time>2022-05-25T14:26:37Z</time>
      </trkpt>
      <trkpt lat="49.90609" lon="1.96936">
        <ele>127.5</ele>
        <time>2022-05-25T14:26:39Z</time>
      </trkpt>
      <trkpt lat="49.90609" lon="1.96936">
        <ele>127.5</ele>
        <time>2022-05-25T14:26:40Z</time>
      </trkpt>
      <trkpt lat="49.9061" lon="1.96936">
        <ele>127.5</ele>
        <time>2022-05-25T14:26:41Z</time>
      </trkpt>
      <trkpt lat="49.9061" lon="1.96936">
        <ele>127.5</ele>
        <time>2022-05-25T14:26:43Z</time>
      </trkpt>
      <trkpt lat="49.9061" lon="1.96936">
        <ele>127.5</ele>
        <time>2022-05-25T14:26:44Z</time>
      </trkpt>
      <trkpt lat="49.9061" lon="1.96936">
        <ele>127.5</ele>
        <time>2022-05-25T14:26:45Z</time>
      </trkpt>
      <trkpt lat="49.9061" lon="1.96936">
        <ele>127.5</ele>
        <time>2022-05-25T14:26:46Z</time>
      </trkpt>
      <trkpt lat="49.9061" lon="1.96936">
        <ele>127.5</ele>
        <time>2022-05-25T14:26:47Z</time>
      </trkpt>
      <trkpt lat="49.9061" lon="1.96936">
        <ele>127.5</ele>
        <time>2022-05-25T14:26:48Z</time>
      </trkpt>
      <trkpt lat="49.9061" lon="1.96936">
        <ele>127.5</ele>
        <time>2022-05-25T14:26:49Z</time>
      </trkpt>
      <trkpt lat="49.90611" lon="1.96935">
        <ele>127.5</ele>
        <time>2022-05-25T14:26:50Z</time>
      </trkpt>
      <trkpt lat="49.90611" lon="1.96936">
        <ele>127.5</ele>
        <time>2022-05-25T14:26:52Z</time>
      </trkpt>
      <trkpt lat="49.90611" lon="1.96936">
        <ele>127.5</ele>
        <time>2022-05-25T14:26:53Z</time>
      </trkpt>
      <trkpt lat="49.90611" lon="1.96936">
        <ele>127.5</ele>
        <time>2022-05-25T14:26:54Z</time>
      </trkpt>
      <trkpt lat="49.90611" lon="1.96933">
        <ele>127.4</ele>
        <time>2022-05-25T14:26:55Z</time>
      </trkpt>
      <trkpt lat="49.90611" lon="1.96932">
        <ele>127.4</ele>
        <time>2022-05-25T14:26:56Z</time>
      </trkpt>
      <trkpt lat="49.90611" lon="1.96931">
        <ele>127.3</ele>
        <time>2022-05-25T14:26:57Z</time>
      </trkpt>
      <trkpt lat="49.90612" lon="1.96931">
        <ele>127.3</ele>
        <time>2022-05-25T14:26:59Z</time>
      </trkpt>
      <trkpt lat="49.90612" lon="1.9693">
        <ele>127.3</ele>
        <time>2022-05-25T14:27:00Z</time>
      </trkpt>
      <trkpt lat="49.90613" lon="1.96929">
        <ele>127.3</ele>
        <time>2022-05-25T14:27:02Z</time>
      </trkpt>
      <trkpt lat="49.90613" lon="1.9693">
        <ele>127.2</ele>
        <time>2022-05-25T14:27:04Z</time>
      </trkpt>
      <trkpt lat="49.90614" lon="1.9693">
        <ele>127.2</ele>
        <time>2022-05-25T14:27:05Z</time>
      </trkpt>
      <trkpt lat="49.90614" lon="1.9693">
        <ele>127.2</ele>
        <time>2022-05-25T14:27:06Z</time>
      </trkpt>
      <trkpt lat="49.90615" lon="1.96929">
        <ele>127.1</ele>
        <time>2022-05-25T14:27:07Z</time>
      </trkpt>
      <trkpt lat="49.90615" lon="1.9693">
        <ele>127.1</ele>
        <time>2022-05-25T14:27:08Z</time>
      </trkpt>
      <trkpt lat="49.90613" lon="1.9693">
        <ele>127</ele>
        <time>2022-05-25T14:27:10Z</time>
      </trkpt>
      <trkpt lat="49.90613" lon="1.9693">
        <ele>127</ele>
        <time>2022-05-25T14:27:11Z</time>
      </trkpt>
      <trkpt lat="49.90613" lon="1.9693">
        <ele>127</ele>
        <time>2022-05-25T14:27:13Z</time>
      </trkpt>
      <trkpt lat="49.90613" lon="1.9693">
        <ele>127</ele>
        <time>2022-05-25T14:27:14Z</time>
      </trkpt>
      <trkpt lat="49.90611" lon="1.9693">
        <ele>126.9</ele>
        <time>2022-05-25T14:27:16Z</time>
      </trkpt>
      <trkpt lat="49.9061" lon="1.9693">
        <ele>126.8</ele>
        <time>2022-05-25T14:27:17Z</time>
      </trkpt>
      <trkpt lat="49.9061" lon="1.96928">
        <ele>126.8</ele>
        <time>2022-05-25T14:27:18Z</time>
      </trkpt>
      <trkpt lat="49.9061" lon="1.96928">
        <ele>126.7</ele>
        <time>2022-05-25T14:27:19Z</time>
      </trkpt>
      <trkpt lat="49.9061" lon="1.96926">
        <ele>126.7</ele>
        <time>2022-05-25T14:27:20Z</time>
      </trkpt>
      <trkpt lat="49.90611" lon="1.96925">
        <ele>126.6</ele>
        <time>2022-05-25T14:27:21Z</time>
      </trkpt>
      <trkpt lat="49.90608" lon="1.96927">
        <ele>126.3</ele>
        <time>2022-05-25T14:27:23Z</time>
      </trkpt>
      <trkpt lat="49.90604" lon="1.96931">
        <ele>126</ele>
        <time>2022-05-25T14:27:24Z</time>
      </trkpt>
      <trkpt lat="49.90597" lon="1.96941">
        <ele>125.3</ele>
        <time>2022-05-25T14:27:25Z</time>
      </trkpt>
      <trkpt lat="49.90594" lon="1.96944">
        <ele>125</ele>
        <time>2022-05-25T14:27:26Z</time>
      </trkpt>
      <trkpt lat="49.9059" lon="1.96945">
        <ele>124.8</ele>
        <time>2022-05-25T14:27:27Z</time>
      </trkpt>
      <trkpt lat="49.90589" lon="1.96946">
        <ele>124.7</ele>
        <time>2022-05-25T14:27:28Z</time>
      </trkpt>
      <trkpt lat="49.90584" lon="1.96948">
        <ele>124.5</ele>
        <time>2022-05-25T14:27:30Z</time>
      </trkpt>
      <trkpt lat="49.90583" lon="1.96948">
        <ele>124.4</ele>
        <time>2022-05-25T14:27:31Z</time>
      </trkpt>
      <trkpt lat="49.90581" lon="1.96949">
        <ele>124.3</ele>
        <time>2022-05-25T14:27:32Z</time>
      </trkpt>
      <trkpt lat="49.90579" lon="1.96949">
        <ele>123</ele>
        <time>2022-05-25T14:27:33Z</time>
      </trkpt>
      <trkpt lat="49.90577" lon="1.96949">
        <ele>122.9</ele>
        <time>2022-05-25T14:27:35Z</time>
      </trkpt>
      <trkpt lat="49.90575" lon="1.96949">
        <ele>122.6</ele>
        <time>2022-05-25T14:27:36Z</time>
      </trkpt>
      <trkpt lat="49.90571" lon="1.96948">
        <ele>122.4</ele>
        <time>2022-05-25T14:27:38Z</time>
      </trkpt>
      <trkpt lat="49.9057" lon="1.96947">
        <ele>122.2</ele>
        <time>2022-05-25T14:27:40Z</time>
      </trkpt>
      <trkpt lat="49.90568" lon="1.96947">
        <ele>122.1</ele>
        <time>2022-05-25T14:27:41Z</time>
      </trkpt>
      <trkpt lat="49.90567" lon="1.96946">
        <ele>122</ele>
        <time>2022-05-25T14:27:42Z</time>
      </trkpt>
      <trkpt lat="49.90565" lon="1.96945">
        <ele>121.9</ele>
        <time>2022-05-25T14:27:43Z</time>
      </trkpt>
      <trkpt lat="49.90563" lon="1.96944">
        <ele>121.7</ele>
        <time>2022-05-25T14:27:45Z</time>
      </trkpt>
      <trkpt lat="49.90563" lon="1.96943">
        <ele>121.7</ele>
        <time>2022-05-25T14:27:46Z</time>
      </trkpt>
      <trkpt lat="49.90562" lon="1.96942">
        <ele>121.6</ele>
        <time>2022-05-25T14:27:47Z</time>
      </trkpt>
      <trkpt lat="49.9056" lon="1.96941">
        <ele>121.5</ele>
        <time>2022-05-25T14:27:49Z</time>
      </trkpt>
      <trkpt lat="49.90559" lon="1.9694">
        <ele>121.4</ele>
        <time>2022-05-25T14:27:50Z</time>
      </trkpt>
      <trkpt lat="49.90558" lon="1.96938">
        <ele>121.3</ele>
        <time>2022-05-25T14:27:51Z</time>
      </trkpt>
      <trkpt lat="49.90557" lon="1.96936">
        <ele>121.2</ele>
        <time>2022-05-25T14:27:52Z</time>
      </trkpt>
      <trkpt lat="49.90555" lon="1.96935">
        <ele>121.1</ele>
        <time>2022-05-25T14:27:53Z</time>
      </trkpt>
      <trkpt lat="49.90554" lon="1.96933">
        <ele>121</ele>
        <time>2022-05-25T14:27:55Z</time>
      </trkpt>
      <trkpt lat="49.90554" lon="1.96932">
        <ele>120.9</ele>
        <time>2022-05-25T14:27:56Z</time>
      </trkpt>
      <trkpt lat="49.90552" lon="1.9693">
        <ele>120.8</ele>
        <time>2022-05-25T14:27:57Z</time>
      </trkpt>
      <trkpt lat="49.9055" lon="1.96928">
        <ele>120.7</ele>
        <time>2022-05-25T14:27:58Z</time>
      </trkpt>
      <trkpt lat="49.9055" lon="1.96927">
        <ele>120.6</ele>
        <time>2022-05-25T14:27:59Z</time>
      </trkpt>
      <trkpt lat="49.90547" lon="1.96924">
        <ele>120.4</ele>
        <time>2022-05-25T14:28:00Z</time>
      </trkpt>
      <trkpt lat="49.90546" lon="1.96923">
        <ele>120.4</ele>
        <time>2022-05-25T14:28:02Z</time>
      </trkpt>
      <trkpt lat="49.90545" lon="1.96921">
        <ele>120.3</ele>
        <time>2022-05-25T14:28:03Z</time>
      </trkpt>
      <trkpt lat="49.90544" lon="1.96919">
        <ele>120.3</ele>
        <time>2022-05-25T14:28:04Z</time>
      </trkpt>
      <trkpt lat="49.90543" lon="1.96918">
        <ele>120.2</ele>
        <time>2022-05-25T14:28:05Z</time>
      </trkpt>
      <trkpt lat="49.90543" lon="1.96917">
        <ele>120.2</ele>
        <time>2022-05-25T14:28:06Z</time>
      </trkpt>
      <trkpt lat="49.90542" lon="1.96915">
        <ele>120.1</ele>
        <time>2022-05-25T14:28:07Z</time>
      </trkpt>
      <trkpt lat="49.90542" lon="1.96914">
        <ele>120.1</ele>
        <time>2022-05-25T14:28:09Z</time>
      </trkpt>
      <trkpt lat="49.90541" lon="1.96912">
        <ele>120</ele>
        <time>2022-05-25T14:28:10Z</time>
      </trkpt>
      <trkpt lat="49.9054" lon="1.96911">
        <ele>120</ele>
        <time>2022-05-25T14:28:11Z</time>
      </trkpt>
      <trkpt lat="49.9054" lon="1.9691">
        <ele>119.9</ele>
        <time>2022-05-25T14:28:12Z</time>
      </trkpt>
      <trkpt lat="49.9054" lon="1.96909">
        <ele>119.9</ele>
        <time>2022-05-25T14:28:13Z</time>
      </trkpt>
      <trkpt lat="49.90539" lon="1.96908">
        <ele>119.9</ele>
        <time>2022-05-25T14:28:14Z</time>
      </trkpt>
      <trkpt lat="49.90539" lon="1.96907">
        <ele>119.9</ele>
        <time>2022-05-25T14:28:16Z</time>
      </trkpt>
      <trkpt lat="49.90538" lon="1.96906">
        <ele>119.8</ele>
        <time>2022-05-25T14:28:17Z</time>
      </trkpt>
      <trkpt lat="49.90537" lon="1.96903">
        <ele>119.7</ele>
        <time>2022-05-25T14:28:19Z</time>
      </trkpt>
      <trkpt lat="49.90537" lon="1.96902">
        <ele>119.7</ele>
        <time>2022-05-25T14:28:21Z</time>
      </trkpt>
      <trkpt lat="49.90536" lon="1.96901">
        <ele>119.7</ele>
        <time>2022-05-25T14:28:22Z</time>
      </trkpt>
      <trkpt lat="49.90534" lon="1.96898">
        <ele>119.6</ele>
        <time>2022-05-25T14:28:23Z</time>
      </trkpt>
      <trkpt lat="49.90533" lon="1.96896">
        <ele>119.5</ele>
        <time>2022-05-25T14:28:25Z</time>
      </trkpt>
      <trkpt lat="49.90532" lon="1.96895">
        <ele>119.4</ele>
        <time>2022-05-25T14:28:26Z</time>
      </trkpt>
      <trkpt lat="49.90531" lon="1.96894">
        <ele>119.4</ele>
        <time>2022-05-25T14:28:27Z</time>
      </trkpt>
      <trkpt lat="49.9053" lon="1.96893">
        <ele>119.3</ele>
        <time>2022-05-25T14:28:28Z</time>
      </trkpt>
      <trkpt lat="49.90529" lon="1.96891">
        <ele>119.3</ele>
        <time>2022-05-25T14:28:29Z</time>
      </trkpt>
      <trkpt lat="49.90528" lon="1.9689">
        <ele>119.2</ele>
        <time>2022-05-25T14:28:31Z</time>
      </trkpt>
      <trkpt lat="49.90527" lon="1.96888">
        <ele>119.1</ele>
        <time>2022-05-25T14:28:33Z</time>
      </trkpt>
      <trkpt lat="49.90526" lon="1.96886">
        <ele>119</ele>
        <time>2022-05-25T14:28:35Z</time>
      </trkpt>
      <trkpt lat="49.90525" lon="1.96885">
        <ele>119</ele>
        <time>2022-05-25T14:28:36Z</time>
      </trkpt>
      <trkpt lat="49.90525" lon="1.96884">
        <ele>118.9</ele>
        <time>2022-05-25T14:28:37Z</time>
      </trkpt>
      <trkpt lat="49.90524" lon="1.96882">
        <ele>118.8</ele>
        <time>2022-05-25T14:28:38Z</time>
      </trkpt>
      <trkpt lat="49.90524" lon="1.96881">
        <ele>118.8</ele>
        <time>2022-05-25T14:28:40Z</time>
      </trkpt>
      <trkpt lat="49.90523" lon="1.96879">
        <ele>118.7</ele>
        <time>2022-05-25T14:28:41Z</time>
      </trkpt>
      <trkpt lat="49.90523" lon="1.96877">
        <ele>118.6</ele>
        <time>2022-05-25T14:28:42Z</time>
      </trkpt>
      <trkpt lat="49.90522" lon="1.96876">
        <ele>118.6</ele>
        <time>2022-05-25T14:28:43Z</time>
      </trkpt>
      <trkpt lat="49.90521" lon="1.96874">
        <ele>118.5</ele>
        <time>2022-05-25T14:28:45Z</time>
      </trkpt>
      <trkpt lat="49.90519" lon="1.9687">
        <ele>118.3</ele>
        <time>2022-05-25T14:28:46Z</time>
      </trkpt>
      <trkpt lat="49.90519" lon="1.96868">
        <ele>118.2</ele>
        <time>2022-05-25T14:28:47Z</time>
      </trkpt>
      <trkpt lat="49.90518" lon="1.96866">
        <ele>118.1</ele>
        <time>2022-05-25T14:28:48Z</time>
      </trkpt>
      <trkpt lat="49.90518" lon="1.96865">
        <ele>118.1</ele>
        <time>2022-05-25T14:28:50Z</time>
      </trkpt>
      <trkpt lat="49.90517" lon="1.96863">
        <ele>118</ele>
        <time>2022-05-25T14:28:51Z</time>
      </trkpt>
      <trkpt lat="49.90516" lon="1.9686">
        <ele>117.9</ele>
        <time>2022-05-25T14:28:52Z</time>
      </trkpt>
      <trkpt lat="49.90515" lon="1.96857">
        <ele>117.8</ele>
        <time>2022-05-25T14:28:53Z</time>
      </trkpt>
      <trkpt lat="49.90515" lon="1.96856">
        <ele>117.7</ele>
        <time>2022-05-25T14:28:54Z</time>
      </trkpt>
      <trkpt lat="49.90514" lon="1.96854">
        <ele>117.6</ele>
        <time>2022-05-25T14:28:56Z</time>
      </trkpt>
      <trkpt lat="49.90514" lon="1.96852">
        <ele>117.6</ele>
        <time>2022-05-25T14:28:57Z</time>
      </trkpt>
      <trkpt lat="49.90514" lon="1.96851">
        <ele>117.5</ele>
        <time>2022-05-25T14:28:58Z</time>
      </trkpt>
      <trkpt lat="49.90514" lon="1.96849">
        <ele>117.4</ele>
        <time>2022-05-25T14:28:59Z</time>
      </trkpt>
      <trkpt lat="49.90513" lon="1.96846">
        <ele>117.3</ele>
        <time>2022-05-25T14:29:01Z</time>
      </trkpt>
      <trkpt lat="49.90513" lon="1.96844">
        <ele>117.2</ele>
        <time>2022-05-25T14:29:02Z</time>
      </trkpt>
      <trkpt lat="49.90512" lon="1.96842">
        <ele>117.2</ele>
        <time>2022-05-25T14:29:04Z</time>
      </trkpt>
      <trkpt lat="49.90511" lon="1.96839">
        <ele>117.1</ele>
        <time>2022-05-25T14:29:05Z</time>
      </trkpt>
      <trkpt lat="49.90511" lon="1.96838">
        <ele>117</ele>
        <time>2022-05-25T14:29:07Z</time>
      </trkpt>
      <trkpt lat="49.90511" lon="1.96836">
        <ele>117</ele>
        <time>2022-05-25T14:29:08Z</time>
      </trkpt>
      <trkpt lat="49.9051" lon="1.96835">
        <ele>116.9</ele>
        <time>2022-05-25T14:29:09Z</time>
      </trkpt>
      <trkpt lat="49.9051" lon="1.96834">
        <ele>116.9</ele>
        <time>2022-05-25T14:29:10Z</time>
      </trkpt>
      <trkpt lat="49.9051" lon="1.96833">
        <ele>116.8</ele>
        <time>2022-05-25T14:29:11Z</time>
      </trkpt>
      <trkpt lat="49.90509" lon="1.96831">
        <ele>116.8</ele>
        <time>2022-05-25T14:29:13Z</time>
      </trkpt>
      <trkpt lat="49.90509" lon="1.9683">
        <ele>116.8</ele>
        <time>2022-05-25T14:29:14Z</time>
      </trkpt>
      <trkpt lat="49.90508" lon="1.96828">
        <ele>116.7</ele>
        <time>2022-05-25T14:29:15Z</time>
      </trkpt>
      <trkpt lat="49.90508" lon="1.96827">
        <ele>116.6</ele>
        <time>2022-05-25T14:29:16Z</time>
      </trkpt>
      <trkpt lat="49.90507" lon="1.96825">
        <ele>116.6</ele>
        <time>2022-05-25T14:29:17Z</time>
      </trkpt>
      <trkpt lat="49.90507" lon="1.96824">
        <ele>116.5</ele>
        <time>2022-05-25T14:29:19Z</time>
      </trkpt>
      <trkpt lat="49.90507" lon="1.96823">
        <ele>116.5</ele>
        <time>2022-05-25T14:29:20Z</time>
      </trkpt>
      <trkpt lat="49.90506" lon="1.96821">
        <ele>116.4</ele>
        <time>2022-05-25T14:29:21Z</time>
      </trkpt>
      <trkpt lat="49.90505" lon="1.96818">
        <ele>116.3</ele>
        <time>2022-05-25T14:29:22Z</time>
      </trkpt>
      <trkpt lat="49.90504" lon="1.96817">
        <ele>116.3</ele>
        <time>2022-05-25T14:29:23Z</time>
      </trkpt>
      <trkpt lat="49.90504" lon="1.96815">
        <ele>116.2</ele>
        <time>2022-05-25T14:29:24Z</time>
      </trkpt>
      <trkpt lat="49.90503" lon="1.96814">
        <ele>116.2</ele>
        <time>2022-05-25T14:29:25Z</time>
      </trkpt>
      <trkpt lat="49.90503" lon="1.96812">
        <ele>116.1</ele>
        <time>2022-05-25T14:29:27Z</time>
      </trkpt>
      <trkpt lat="49.90502" lon="1.9681">
        <ele>116.1</ele>
        <time>2022-05-25T14:29:28Z</time>
      </trkpt>
      <trkpt lat="49.90501" lon="1.96808">
        <ele>116</ele>
        <time>2022-05-25T14:29:29Z</time>
      </trkpt>
      <trkpt lat="49.90499" lon="1.96806">
        <ele>115.9</ele>
        <time>2022-05-25T14:29:30Z</time>
      </trkpt>
      <trkpt lat="49.90499" lon="1.96804">
        <ele>115.9</ele>
        <time>2022-05-25T14:29:31Z</time>
      </trkpt>
      <trkpt lat="49.90498" lon="1.96803">
        <ele>115.8</ele>
        <time>2022-05-25T14:29:32Z</time>
      </trkpt>
      <trkpt lat="49.90497" lon="1.96801">
        <ele>115.7</ele>
        <time>2022-05-25T14:29:34Z</time>
      </trkpt>
      <trkpt lat="49.90496" lon="1.96799">
        <ele>115.7</ele>
        <time>2022-05-25T14:29:35Z</time>
      </trkpt>
      <trkpt lat="49.90495" lon="1.96797">
        <ele>115.6</ele>
        <time>2022-05-25T14:29:36Z</time>
      </trkpt>
      <trkpt lat="49.90495" lon="1.96796">
        <ele>115.6</ele>
        <time>2022-05-25T14:29:37Z</time>
      </trkpt>
      <trkpt lat="49.90494" lon="1.96794">
        <ele>115.5</ele>
        <time>2022-05-25T14:29:38Z</time>
      </trkpt>
      <trkpt lat="49.90493" lon="1.96793">
        <ele>115.5</ele>
        <time>2022-05-25T14:29:40Z</time>
      </trkpt>
      <trkpt lat="49.90492" lon="1.96791">
        <ele>115.5</ele>
        <time>2022-05-25T14:29:41Z</time>
      </trkpt>
      <trkpt lat="49.90492" lon="1.9679">
        <ele>115.4</ele>
        <time>2022-05-25T14:29:42Z</time>
      </trkpt>
      <trkpt lat="49.9049" lon="1.96788">
        <ele>115.3</ele>
        <time>2022-05-25T14:29:43Z</time>
      </trkpt>
      <trkpt lat="49.9049" lon="1.96786">
        <ele>115.3</ele>
        <time>2022-05-25T14:29:44Z</time>
      </trkpt>
      <trkpt lat="49.90489" lon="1.96785">
        <ele>115.3</ele>
        <time>2022-05-25T14:29:45Z</time>
      </trkpt>
      <trkpt lat="49.90488" lon="1.96783">
        <ele>115.2</ele>
        <time>2022-05-25T14:29:47Z</time>
      </trkpt>
      <trkpt lat="49.90488" lon="1.96782">
        <ele>115.2</ele>
        <time>2022-05-25T14:29:48Z</time>
      </trkpt>
      <trkpt lat="49.90487" lon="1.96781">
        <ele>115.2</ele>
        <time>2022-05-25T14:29:49Z</time>
      </trkpt>
      <trkpt lat="49.90486" lon="1.96778">
        <ele>115.1</ele>
        <time>2022-05-25T14:29:50Z</time>
      </trkpt>
      <trkpt lat="49.90486" lon="1.96777">
        <ele>115.1</ele>
        <time>2022-05-25T14:29:51Z</time>
      </trkpt>
      <trkpt lat="49.90485" lon="1.96775">
        <ele>115</ele>
        <time>2022-05-25T14:29:52Z</time>
      </trkpt>
      <trkpt lat="49.90484" lon="1.96773">
        <ele>115</ele>
        <time>2022-05-25T14:29:53Z</time>
      </trkpt>
      <trkpt lat="49.90482" lon="1.96771">
        <ele>114.9</ele>
        <time>2022-05-25T14:29:55Z</time>
      </trkpt>
      <trkpt lat="49.90482" lon="1.9677">
        <ele>114.9</ele>
        <time>2022-05-25T14:29:56Z</time>
      </trkpt>
      <trkpt lat="49.9048" lon="1.96767">
        <ele>114.8</ele>
        <time>2022-05-25T14:29:57Z</time>
      </trkpt>
      <trkpt lat="49.9048" lon="1.96766">
        <ele>114.8</ele>
        <time>2022-05-25T14:29:58Z</time>
      </trkpt>
      <trkpt lat="49.90479" lon="1.96765">
        <ele>114.7</ele>
        <time>2022-05-25T14:29:59Z</time>
      </trkpt>
      <trkpt lat="49.90478" lon="1.96762">
        <ele>114.7</ele>
        <time>2022-05-25T14:30:01Z</time>
      </trkpt>
      <trkpt lat="49.90478" lon="1.96761">
        <ele>114.7</ele>
        <time>2022-05-25T14:30:02Z</time>
      </trkpt>
      <trkpt lat="49.90476" lon="1.96759">
        <ele>114.6</ele>
        <time>2022-05-25T14:30:03Z</time>
      </trkpt>
      <trkpt lat="49.90475" lon="1.96757">
        <ele>114.6</ele>
        <time>2022-05-25T14:30:04Z</time>
      </trkpt>
      <trkpt lat="49.90475" lon="1.96756">
        <ele>114.5</ele>
        <time>2022-05-25T14:30:05Z</time>
      </trkpt>
      <trkpt lat="49.90474" lon="1.96755">
        <ele>114.5</ele>
        <time>2022-05-25T14:30:06Z</time>
      </trkpt>
      <trkpt lat="49.90474" lon="1.96754">
        <ele>114.5</ele>
        <time>2022-05-25T14:30:07Z</time>
      </trkpt>
      <trkpt lat="49.90473" lon="1.96752">
        <ele>114.5</ele>
        <time>2022-05-25T14:30:09Z</time>
      </trkpt>
      <trkpt lat="49.90473" lon="1.96751">
        <ele>114.4</ele>
        <time>2022-05-25T14:30:10Z</time>
      </trkpt>
      <trkpt lat="49.90473" lon="1.96749">
        <ele>114.4</ele>
        <time>2022-05-25T14:30:11Z</time>
      </trkpt>
      <trkpt lat="49.90472" lon="1.96748">
        <ele>114.4</ele>
        <time>2022-05-25T14:30:12Z</time>
      </trkpt>
      <trkpt lat="49.90472" lon="1.96746">
        <ele>114.3</ele>
        <time>2022-05-25T14:30:13Z</time>
      </trkpt>
      <trkpt lat="49.90472" lon="1.96745">
        <ele>114.3</ele>
        <time>2022-05-25T14:30:14Z</time>
      </trkpt>
      <trkpt lat="49.90471" lon="1.96743">
        <ele>114.3</ele>
        <time>2022-05-25T14:30:15Z</time>
      </trkpt>
      <trkpt lat="49.90471" lon="1.96743">
        <ele>114.2</ele>
        <time>2022-05-25T14:30:17Z</time>
      </trkpt>
      <trkpt lat="49.9047" lon="1.96741">
        <ele>114.2</ele>
        <time>2022-05-25T14:30:18Z</time>
      </trkpt>
      <trkpt lat="49.9047" lon="1.96739">
        <ele>114.2</ele>
        <time>2022-05-25T14:30:19Z</time>
      </trkpt>
      <trkpt lat="49.90469" lon="1.96737">
        <ele>114.1</ele>
        <time>2022-05-25T14:30:20Z</time>
      </trkpt>
      <trkpt lat="49.90469" lon="1.96736">
        <ele>114.1</ele>
        <time>2022-05-25T14:30:21Z</time>
      </trkpt>
      <trkpt lat="49.90468" lon="1.96735">
        <ele>114</ele>
        <time>2022-05-25T14:30:22Z</time>
      </trkpt>
      <trkpt lat="49.90467" lon="1.96732">
        <ele>114</ele>
        <time>2022-05-25T14:30:23Z</time>
      </trkpt>
      <trkpt lat="49.90467" lon="1.96731">
        <ele>113.9</ele>
        <time>2022-05-25T14:30:25Z</time>
      </trkpt>
      <trkpt lat="49.90466" lon="1.9673">
        <ele>113.9</ele>
        <time>2022-05-25T14:30:26Z</time>
      </trkpt>
      <trkpt lat="49.90465" lon="1.96728">
        <ele>113.9</ele>
        <time>2022-05-25T14:30:27Z</time>
      </trkpt>
      <trkpt lat="49.90465" lon="1.96726">
        <ele>113.8</ele>
        <time>2022-05-25T14:30:28Z</time>
      </trkpt>
      <trkpt lat="49.90464" lon="1.96725">
        <ele>113.8</ele>
        <time>2022-05-25T14:30:29Z</time>
      </trkpt>
      <trkpt lat="49.90464" lon="1.96723">
        <ele>113.7</ele>
        <time>2022-05-25T14:30:30Z</time>
      </trkpt>
      <trkpt lat="49.90463" lon="1.96721">
        <ele>113.7</ele>
        <time>2022-05-25T14:30:31Z</time>
      </trkpt>
      <trkpt lat="49.90462" lon="1.9672">
        <ele>113.6</ele>
        <time>2022-05-25T14:30:33Z</time>
      </trkpt>
      <trkpt lat="49.90462" lon="1.96718">
        <ele>113.6</ele>
        <time>2022-05-25T14:30:34Z</time>
      </trkpt>
      <trkpt lat="49.90461" lon="1.96716">
        <ele>113.5</ele>
        <time>2022-05-25T14:30:35Z</time>
      </trkpt>
      <trkpt lat="49.90461" lon="1.96714">
        <ele>113.5</ele>
        <time>2022-05-25T14:30:36Z</time>
      </trkpt>
      <trkpt lat="49.9046" lon="1.96712">
        <ele>113.4</ele>
        <time>2022-05-25T14:30:37Z</time>
      </trkpt>
      <trkpt lat="49.9046" lon="1.96711">
        <ele>113.4</ele>
        <time>2022-05-25T14:30:38Z</time>
      </trkpt>
      <trkpt lat="49.90459" lon="1.9671">
        <ele>113.4</ele>
        <time>2022-05-25T14:30:39Z</time>
      </trkpt>
      <trkpt lat="49.90458" lon="1.96708">
        <ele>113.3</ele>
        <time>2022-05-25T14:30:41Z</time>
      </trkpt>
      <trkpt lat="49.90457" lon="1.96706">
        <ele>113.2</ele>
        <time>2022-05-25T14:30:42Z</time>
      </trkpt>
      <trkpt lat="49.90457" lon="1.96705">
        <ele>113.2</ele>
        <time>2022-05-25T14:30:43Z</time>
      </trkpt>
      <trkpt lat="49.90456" lon="1.96704">
        <ele>113.2</ele>
        <time>2022-05-25T14:30:44Z</time>
      </trkpt>
      <trkpt lat="49.90455" lon="1.96701">
        <ele>113.1</ele>
        <time>2022-05-25T14:30:45Z</time>
      </trkpt>
      <trkpt lat="49.90455" lon="1.96699">
        <ele>113</ele>
        <time>2022-05-25T14:30:46Z</time>
      </trkpt>
      <trkpt lat="49.90454" lon="1.96698">
        <ele>113</ele>
        <time>2022-05-25T14:30:48Z</time>
      </trkpt>
      <trkpt lat="49.90454" lon="1.96697">
        <ele>113</ele>
        <time>2022-05-25T14:30:49Z</time>
      </trkpt>
      <trkpt lat="49.90454" lon="1.96695">
        <ele>112.9</ele>
        <time>2022-05-25T14:30:50Z</time>
      </trkpt>
      <trkpt lat="49.90453" lon="1.96694">
        <ele>112.9</ele>
        <time>2022-05-25T14:30:51Z</time>
      </trkpt>
      <trkpt lat="49.90453" lon="1.96693">
        <ele>112.8</ele>
        <time>2022-05-25T14:30:52Z</time>
      </trkpt>
      <trkpt lat="49.90452" lon="1.96691">
        <ele>112.8</ele>
        <time>2022-05-25T14:30:53Z</time>
      </trkpt>
      <trkpt lat="49.90452" lon="1.96689">
        <ele>112.8</ele>
        <time>2022-05-25T14:30:54Z</time>
      </trkpt>
      <trkpt lat="49.9045" lon="1.96686">
        <ele>112.7</ele>
        <time>2022-05-25T14:30:55Z</time>
      </trkpt>
      <trkpt lat="49.9045" lon="1.96686">
        <ele>112.6</ele>
        <time>2022-05-25T14:30:57Z</time>
      </trkpt>
      <trkpt lat="49.90449" lon="1.96685">
        <ele>112.6</ele>
        <time>2022-05-25T14:30:58Z</time>
      </trkpt>
      <trkpt lat="49.90449" lon="1.96683">
        <ele>112.6</ele>
        <time>2022-05-25T14:30:59Z</time>
      </trkpt>
      <trkpt lat="49.90448" lon="1.96681">
        <ele>112.5</ele>
        <time>2022-05-25T14:31:00Z</time>
      </trkpt>
      <trkpt lat="49.90447" lon="1.9668">
        <ele>112.4</ele>
        <time>2022-05-25T14:31:01Z</time>
      </trkpt>
      <trkpt lat="49.90447" lon="1.96679">
        <ele>112.4</ele>
        <time>2022-05-25T14:31:03Z</time>
      </trkpt>
      <trkpt lat="49.90446" lon="1.96677">
        <ele>112.3</ele>
        <time>2022-05-25T14:31:04Z</time>
      </trkpt>
      <trkpt lat="49.90445" lon="1.96676">
        <ele>112.3</ele>
        <time>2022-05-25T14:31:05Z</time>
      </trkpt>
      <trkpt lat="49.90445" lon="1.96674">
        <ele>112.2</ele>
        <time>2022-05-25T14:31:06Z</time>
      </trkpt>
      <trkpt lat="49.90444" lon="1.96673">
        <ele>112.2</ele>
        <time>2022-05-25T14:31:08Z</time>
      </trkpt>
      <trkpt lat="49.90443" lon="1.96671">
        <ele>112.1</ele>
        <time>2022-05-25T14:31:09Z</time>
      </trkpt>
      <trkpt lat="49.90442" lon="1.9667">
        <ele>112</ele>
        <time>2022-05-25T14:31:11Z</time>
      </trkpt>
      <trkpt lat="49.90442" lon="1.96669">
        <ele>112</ele>
        <time>2022-05-25T14:31:12Z</time>
      </trkpt>
      <trkpt lat="49.90442" lon="1.96667">
        <ele>112</ele>
        <time>2022-05-25T14:31:13Z</time>
      </trkpt>
      <trkpt lat="49.90441" lon="1.96666">
        <ele>111.9</ele>
        <time>2022-05-25T14:31:14Z</time>
      </trkpt>
      <trkpt lat="49.90441" lon="1.96665">
        <ele>111.9</ele>
        <time>2022-05-25T14:31:15Z</time>
      </trkpt>
      <trkpt lat="49.9044" lon="1.96664">
        <ele>111.8</ele>
        <time>2022-05-25T14:31:16Z</time>
      </trkpt>
      <trkpt lat="49.9044" lon="1.96663">
        <ele>111.8</ele>
        <time>2022-05-25T14:31:17Z</time>
      </trkpt>
      <trkpt lat="49.9044" lon="1.96662">
        <ele>111.8</ele>
        <time>2022-05-25T14:31:19Z</time>
      </trkpt>
      <trkpt lat="49.9044" lon="1.96662">
        <ele>111.7</ele>
        <time>2022-05-25T14:31:20Z</time>
      </trkpt>
      <trkpt lat="49.9044" lon="1.96661">
        <ele>111.7</ele>
        <time>2022-05-25T14:31:21Z</time>
      </trkpt>
      <trkpt lat="49.90439" lon="1.9666">
        <ele>111.7</ele>
        <time>2022-05-25T14:31:22Z</time>
      </trkpt>
      <trkpt lat="49.90438" lon="1.9666">
        <ele>111.6</ele>
        <time>2022-05-25T14:31:24Z</time>
      </trkpt>
      <trkpt lat="49.90437" lon="1.9666">
        <ele>111.6</ele>
        <time>2022-05-25T14:31:26Z</time>
      </trkpt>
      <trkpt lat="49.90436" lon="1.96661">
        <ele>111.5</ele>
        <time>2022-05-25T14:31:27Z</time>
      </trkpt>
      <trkpt lat="49.90436" lon="1.96661">
        <ele>111.5</ele>
        <time>2022-05-25T14:31:28Z</time>
      </trkpt>
      <trkpt lat="49.90435" lon="1.96662">
        <ele>111.5</ele>
        <time>2022-05-25T14:31:30Z</time>
      </trkpt>
      <trkpt lat="49.90435" lon="1.96663">
        <ele>111.4</ele>
        <time>2022-05-25T14:31:31Z</time>
      </trkpt>
      <trkpt lat="49.90435" lon="1.96663">
        <ele>111.4</ele>
        <time>2022-05-25T14:31:32Z</time>
      </trkpt>
      <trkpt lat="49.90435" lon="1.96664">
        <ele>111.4</ele>
        <time>2022-05-25T14:31:33Z</time>
      </trkpt>
      <trkpt lat="49.90435" lon="1.96665">
        <ele>111.3</ele>
        <time>2022-05-25T14:31:34Z</time>
      </trkpt>
      <trkpt lat="49.90435" lon="1.96666">
        <ele>111.3</ele>
        <time>2022-05-25T14:31:35Z</time>
      </trkpt>
      <trkpt lat="49.90435" lon="1.96666">
        <ele>111.3</ele>
        <time>2022-05-25T14:31:37Z</time>
      </trkpt>
      <trkpt lat="49.90435" lon="1.96667">
        <ele>111.3</ele>
        <time>2022-05-25T14:31:38Z</time>
      </trkpt>
      <trkpt lat="49.90435" lon="1.96667">
        <ele>111.2</ele>
        <time>2022-05-25T14:31:39Z</time>
      </trkpt>
      <trkpt lat="49.90435" lon="1.96668">
        <ele>111.2</ele>
        <time>2022-05-25T14:31:40Z</time>
      </trkpt>
      <trkpt lat="49.90435" lon="1.96669">
        <ele>111.2</ele>
        <time>2022-05-25T14:31:41Z</time>
      </trkpt>
      <trkpt lat="49.90435" lon="1.96669">
        <ele>111.2</ele>
        <time>2022-05-25T14:31:42Z</time>
      </trkpt>
      <trkpt lat="49.90435" lon="1.96669">
        <ele>111.2</ele>
        <time>2022-05-25T14:31:43Z</time>
      </trkpt>
      <trkpt lat="49.90435" lon="1.96669">
        <ele>111.2</ele>
        <time>2022-05-25T14:31:44Z</time>
      </trkpt>
      <trkpt lat="49.90435" lon="1.96668">
        <ele>111.2</ele>
        <time>2022-05-25T14:31:45Z</time>
      </trkpt>
      <trkpt lat="49.90435" lon="1.96667">
        <ele>111.1</ele>
        <time>2022-05-25T14:31:46Z</time>
      </trkpt>
      <trkpt lat="49.90435" lon="1.96667">
        <ele>111.1</ele>
        <time>2022-05-25T14:31:47Z</time>
      </trkpt>
      <trkpt lat="49.90435" lon="1.96666">
        <ele>111.1</ele>
        <time>2022-05-25T14:31:48Z</time>
      </trkpt>
      <trkpt lat="49.90435" lon="1.96666">
        <ele>111.1</ele>
        <time>2022-05-25T14:31:50Z</time>
      </trkpt>
      <trkpt lat="49.90435" lon="1.96665">
        <ele>111.1</ele>
        <time>2022-05-25T14:31:52Z</time>
      </trkpt>
      <trkpt lat="49.90435" lon="1.96665">
        <ele>111</ele>
        <time>2022-05-25T14:31:54Z</time>
      </trkpt>
      <trkpt lat="49.90435" lon="1.96664">
        <ele>111</ele>
        <time>2022-05-25T14:31:55Z</time>
      </trkpt>
      <trkpt lat="49.90435" lon="1.96664">
        <ele>111</ele>
        <time>2022-05-25T14:31:56Z</time>
      </trkpt>
      <trkpt lat="49.90435" lon="1.96663">
        <ele>111</ele>
        <time>2022-05-25T14:31:57Z</time>
      </trkpt>
      <trkpt lat="49.90435" lon="1.96663">
        <ele>111</ele>
        <time>2022-05-25T14:31:58Z</time>
      </trkpt>
      <trkpt lat="49.90435" lon="1.96662">
        <ele>111</ele>
        <time>2022-05-25T14:32:00Z</time>
      </trkpt>
      <trkpt lat="49.90435" lon="1.96661">
        <ele>110.9</ele>
        <time>2022-05-25T14:32:01Z</time>
      </trkpt>
      <trkpt lat="49.90435" lon="1.96661">
        <ele>110.9</ele>
        <time>2022-05-25T14:32:03Z</time>
      </trkpt>
      <trkpt lat="49.90436" lon="1.9666">
        <ele>110.9</ele>
        <time>2022-05-25T14:32:04Z</time>
      </trkpt>
      <trkpt lat="49.90436" lon="1.9666">
        <ele>110.9</ele>
        <time>2022-05-25T14:32:05Z</time>
      </trkpt>
      <trkpt lat="49.90436" lon="1.96659">
        <ele>110.9</ele>
        <time>2022-05-25T14:32:06Z</time>
      </trkpt>
      <trkpt lat="49.90436" lon="1.96659">
        <ele>110.9</ele>
        <time>2022-05-25T14:32:07Z</time>
      </trkpt>
      <trkpt lat="49.90436" lon="1.96658">
        <ele>110.8</ele>
        <time>2022-05-25T14:32:09Z</time>
      </trkpt>
      <trkpt lat="49.90436" lon="1.96658">
        <ele>110.8</ele>
        <time>2022-05-25T14:32:10Z</time>
      </trkpt>
      <trkpt lat="49.90436" lon="1.96657">
        <ele>110.8</ele>
        <time>2022-05-25T14:32:11Z</time>
      </trkpt>
      <trkpt lat="49.90436" lon="1.96656">
        <ele>110.8</ele>
        <time>2022-05-25T14:32:13Z</time>
      </trkpt>
      <trkpt lat="49.90436" lon="1.96656">
        <ele>110.8</ele>
        <time>2022-05-25T14:32:14Z</time>
      </trkpt>
      <trkpt lat="49.90436" lon="1.96655">
        <ele>110.8</ele>
        <time>2022-05-25T14:32:15Z</time>
      </trkpt>
      <trkpt lat="49.90436" lon="1.96655">
        <ele>110.7</ele>
        <time>2022-05-25T14:32:16Z</time>
      </trkpt>
      <trkpt lat="49.90436" lon="1.96653">
        <ele>110.7</ele>
        <time>2022-05-25T14:32:17Z</time>
      </trkpt>
      <trkpt lat="49.90435" lon="1.96651">
        <ele>110.6</ele>
        <time>2022-05-25T14:32:18Z</time>
      </trkpt>
      <trkpt lat="49.90434" lon="1.96648">
        <ele>110.5</ele>
        <time>2022-05-25T14:32:20Z</time>
      </trkpt>
      <trkpt lat="49.90434" lon="1.96647">
        <ele>110.5</ele>
        <time>2022-05-25T14:32:21Z</time>
      </trkpt>
      <trkpt lat="49.90433" lon="1.96646">
        <ele>110.4</ele>
        <time>2022-05-25T14:32:22Z</time>
      </trkpt>
      <trkpt lat="49.90432" lon="1.96645">
        <ele>110.4</ele>
        <time>2022-05-25T14:32:23Z</time>
      </trkpt>
      <trkpt lat="49.90431" lon="1.96643">
        <ele>110.3</ele>
        <time>2022-05-25T14:32:24Z</time>
      </trkpt>
      <trkpt lat="49.9043" lon="1.96642">
        <ele>110.2</ele>
        <time>2022-05-25T14:32:25Z</time>
      </trkpt>
      <trkpt lat="49.90429" lon="1.96641">
        <ele>110.2</ele>
        <time>2022-05-25T14:32:26Z</time>
      </trkpt>
      <trkpt lat="49.90429" lon="1.96639">
        <ele>110.1</ele>
        <time>2022-05-25T14:32:27Z</time>
      </trkpt>
      <trkpt lat="49.90427" lon="1.96636">
        <ele>110</ele>
        <time>2022-05-25T14:32:29Z</time>
      </trkpt>
      <trkpt lat="49.90426" lon="1.96634">
        <ele>109.9</ele>
        <time>2022-05-25T14:32:31Z</time>
      </trkpt>
      <trkpt lat="49.90425" lon="1.96633">
        <ele>109.8</ele>
        <time>2022-05-25T14:32:33Z</time>
      </trkpt>
      <trkpt lat="49.90425" lon="1.96632">
        <ele>109.8</ele>
        <time>2022-05-25T14:32:34Z</time>
      </trkpt>
      <trkpt lat="49.90424" lon="1.96631">
        <ele>109.7</ele>
        <time>2022-05-25T14:32:35Z</time>
      </trkpt>
      <trkpt lat="49.90423" lon="1.96629">
        <ele>109.6</ele>
        <time>2022-05-25T14:32:36Z</time>
      </trkpt>
      <trkpt lat="49.90422" lon="1.96628">
        <ele>109.6</ele>
        <time>2022-05-25T14:32:37Z</time>
      </trkpt>
      <trkpt lat="49.90422" lon="1.96628">
        <ele>109.5</ele>
        <time>2022-05-25T14:32:38Z</time>
      </trkpt>
      <trkpt lat="49.90421" lon="1.96627">
        <ele>109.5</ele>
        <time>2022-05-25T14:32:39Z</time>
      </trkpt>
      <trkpt lat="49.9042" lon="1.96626">
        <ele>109.4</ele>
        <time>2022-05-25T14:32:41Z</time>
      </trkpt>
      <trkpt lat="49.9042" lon="1.96625">
        <ele>109.3</ele>
        <time>2022-05-25T14:32:42Z</time>
      </trkpt>
      <trkpt lat="49.90419" lon="1.96624">
        <ele>109.3</ele>
        <time>2022-05-25T14:32:43Z</time>
      </trkpt>
      <trkpt lat="49.90418" lon="1.96622">
        <ele>109.2</ele>
        <time>2022-05-25T14:32:44Z</time>
      </trkpt>
      <trkpt lat="49.90418" lon="1.96621">
        <ele>109.2</ele>
        <time>2022-05-25T14:32:45Z</time>
      </trkpt>
      <trkpt lat="49.90417" lon="1.9662">
        <ele>109.1</ele>
        <time>2022-05-25T14:32:46Z</time>
      </trkpt>
      <trkpt lat="49.90417" lon="1.96619">
        <ele>109</ele>
        <time>2022-05-25T14:32:48Z</time>
      </trkpt>
      <trkpt lat="49.90416" lon="1.96618">
        <ele>109</ele>
        <time>2022-05-25T14:32:49Z</time>
      </trkpt>
      <trkpt lat="49.90415" lon="1.96617">
        <ele>108.9</ele>
        <time>2022-05-25T14:32:50Z</time>
      </trkpt>
      <trkpt lat="49.90414" lon="1.96615">
        <ele>108.8</ele>
        <time>2022-05-25T14:32:51Z</time>
      </trkpt>
      <trkpt lat="49.90414" lon="1.96615">
        <ele>108.7</ele>
        <time>2022-05-25T14:32:52Z</time>
      </trkpt>
      <trkpt lat="49.90413" lon="1.96613">
        <ele>108.6</ele>
        <time>2022-05-25T14:32:53Z</time>
      </trkpt>
      <trkpt lat="49.90412" lon="1.96612">
        <ele>108.6</ele>
        <time>2022-05-25T14:32:54Z</time>
      </trkpt>
      <trkpt lat="49.90412" lon="1.96611">
        <ele>108.5</ele>
        <time>2022-05-25T14:32:55Z</time>
      </trkpt>
      <trkpt lat="49.90411" lon="1.9661">
        <ele>108.4</ele>
        <time>2022-05-25T14:32:56Z</time>
      </trkpt>
      <trkpt lat="49.9041" lon="1.96609">
        <ele>108.3</ele>
        <time>2022-05-25T14:32:57Z</time>
      </trkpt>
      <trkpt lat="49.90409" lon="1.96607">
        <ele>108.2</ele>
        <time>2022-05-25T14:32:59Z</time>
      </trkpt>
      <trkpt lat="49.90408" lon="1.96606">
        <ele>108.1</ele>
        <time>2022-05-25T14:33:00Z</time>
      </trkpt>
      <trkpt lat="49.90407" lon="1.96603">
        <ele>107.9</ele>
        <time>2022-05-25T14:33:01Z</time>
      </trkpt>
      <trkpt lat="49.90407" lon="1.96602">
        <ele>107.9</ele>
        <time>2022-05-25T14:33:02Z</time>
      </trkpt>
      <trkpt lat="49.90405" lon="1.966">
        <ele>107.7</ele>
        <time>2022-05-25T14:33:03Z</time>
      </trkpt>
      <trkpt lat="49.90405" lon="1.96599">
        <ele>107.6</ele>
        <time>2022-05-25T14:33:04Z</time>
      </trkpt>
      <trkpt lat="49.90404" lon="1.96597">
        <ele>107.5</ele>
        <time>2022-05-25T14:33:05Z</time>
      </trkpt>
      <trkpt lat="49.90403" lon="1.96596">
        <ele>107.4</ele>
        <time>2022-05-25T14:33:07Z</time>
      </trkpt>
      <trkpt lat="49.90402" lon="1.96594">
        <ele>107.3</ele>
        <time>2022-05-25T14:33:08Z</time>
      </trkpt>
      <trkpt lat="49.90401" lon="1.96592">
        <ele>107</ele>
        <time>2022-05-25T14:33:09Z</time>
      </trkpt>
      <trkpt lat="49.90401" lon="1.9659">
        <ele>107</ele>
        <time>2022-05-25T14:33:10Z</time>
      </trkpt>
      <trkpt lat="49.904" lon="1.96589">
        <ele>106.9</ele>
        <time>2022-05-25T14:33:11Z</time>
      </trkpt>
      <trkpt lat="49.904" lon="1.96587">
        <ele>106.7</ele>
        <time>2022-05-25T14:33:12Z</time>
      </trkpt>
      <trkpt lat="49.904" lon="1.96586">
        <ele>106.7</ele>
        <time>2022-05-25T14:33:13Z</time>
      </trkpt>
      <trkpt lat="49.90399" lon="1.96585">
        <ele>106.6</ele>
        <time>2022-05-25T14:33:14Z</time>
      </trkpt>
      <trkpt lat="49.90399" lon="1.96584">
        <ele>106.5</ele>
        <time>2022-05-25T14:33:15Z</time>
      </trkpt>
      <trkpt lat="49.90399" lon="1.96582">
        <ele>106.4</ele>
        <time>2022-05-25T14:33:17Z</time>
      </trkpt>
      <trkpt lat="49.90399" lon="1.96581">
        <ele>106.3</ele>
        <time>2022-05-25T14:33:18Z</time>
      </trkpt>
      <trkpt lat="49.90399" lon="1.96579">
        <ele>106.2</ele>
        <time>2022-05-25T14:33:19Z</time>
      </trkpt>
      <trkpt lat="49.90398" lon="1.96578">
        <ele>106.1</ele>
        <time>2022-05-25T14:33:20Z</time>
      </trkpt>
      <trkpt lat="49.90398" lon="1.96576">
        <ele>106</ele>
        <time>2022-05-25T14:33:21Z</time>
      </trkpt>
      <trkpt lat="49.90398" lon="1.96575">
        <ele>105.9</ele>
        <time>2022-05-25T14:33:22Z</time>
      </trkpt>
      <trkpt lat="49.90397" lon="1.96574">
        <ele>105.8</ele>
        <time>2022-05-25T14:33:23Z</time>
      </trkpt>
      <trkpt lat="49.90397" lon="1.96572">
        <ele>105.7</ele>
        <time>2022-05-25T14:33:25Z</time>
      </trkpt>
      <trkpt lat="49.90396" lon="1.96571">
        <ele>105.6</ele>
        <time>2022-05-25T14:33:26Z</time>
      </trkpt>
      <trkpt lat="49.90395" lon="1.96569">
        <ele>105.5</ele>
        <time>2022-05-25T14:33:27Z</time>
      </trkpt>
      <trkpt lat="49.90395" lon="1.96568">
        <ele>105.4</ele>
        <time>2022-05-25T14:33:28Z</time>
      </trkpt>
      <trkpt lat="49.90394" lon="1.96566">
        <ele>105.3</ele>
        <time>2022-05-25T14:33:29Z</time>
      </trkpt>
      <trkpt lat="49.90394" lon="1.96565">
        <ele>105.2</ele>
        <time>2022-05-25T14:33:30Z</time>
      </trkpt>
      <trkpt lat="49.90393" lon="1.96564">
        <ele>105.1</ele>
        <time>2022-05-25T14:33:32Z</time>
      </trkpt>
      <trkpt lat="49.90393" lon="1.96563">
        <ele>105</ele>
        <time>2022-05-25T14:33:33Z</time>
      </trkpt>
      <trkpt lat="49.90393" lon="1.96562">
        <ele>104.9</ele>
        <time>2022-05-25T14:33:34Z</time>
      </trkpt>
      <trkpt lat="49.90392" lon="1.96561">
        <ele>104.9</ele>
        <time>2022-05-25T14:33:35Z</time>
      </trkpt>
      <trkpt lat="49.90392" lon="1.96559">
        <ele>104.8</ele>
        <time>2022-05-25T14:33:36Z</time>
      </trkpt>
      <trkpt lat="49.90391" lon="1.96558">
        <ele>104.7</ele>
        <time>2022-05-25T14:33:37Z</time>
      </trkpt>
      <trkpt lat="49.90391" lon="1.96557">
        <ele>104.6</ele>
        <time>2022-05-25T14:33:38Z</time>
      </trkpt>
      <trkpt lat="49.9039" lon="1.96556">
        <ele>104.5</ele>
        <time>2022-05-25T14:33:40Z</time>
      </trkpt>
      <trkpt lat="49.90389" lon="1.96554">
        <ele>104.3</ele>
        <time>2022-05-25T14:33:41Z</time>
      </trkpt>
      <trkpt lat="49.90389" lon="1.96553">
        <ele>104.3</ele>
        <time>2022-05-25T14:33:42Z</time>
      </trkpt>
      <trkpt lat="49.90388" lon="1.9655">
        <ele>104.1</ele>
        <time>2022-05-25T14:33:43Z</time>
      </trkpt>
      <trkpt lat="49.90388" lon="1.96549">
        <ele>104</ele>
        <time>2022-05-25T14:33:44Z</time>
      </trkpt>
      <trkpt lat="49.90388" lon="1.96548">
        <ele>103.9</ele>
        <time>2022-05-25T14:33:46Z</time>
      </trkpt>
      <trkpt lat="49.90387" lon="1.96546">
        <ele>103.8</ele>
        <time>2022-05-25T14:33:47Z</time>
      </trkpt>
      <trkpt lat="49.90387" lon="1.96544">
        <ele>103.7</ele>
        <time>2022-05-25T14:33:49Z</time>
      </trkpt>
      <trkpt lat="49.90387" lon="1.96543">
        <ele>103.6</ele>
        <time>2022-05-25T14:33:50Z</time>
      </trkpt>
      <trkpt lat="49.90386" lon="1.96542">
        <ele>103.5</ele>
        <time>2022-05-25T14:33:51Z</time>
      </trkpt>
      <trkpt lat="49.90386" lon="1.96541">
        <ele>103.5</ele>
        <time>2022-05-25T14:33:52Z</time>
      </trkpt>
      <trkpt lat="49.90385" lon="1.9654">
        <ele>103.4</ele>
        <time>2022-05-25T14:33:53Z</time>
      </trkpt>
      <trkpt lat="49.90385" lon="1.96538">
        <ele>103.3</ele>
        <time>2022-05-25T14:33:54Z</time>
      </trkpt>
      <trkpt lat="49.90385" lon="1.96537">
        <ele>103.2</ele>
        <time>2022-05-25T14:33:55Z</time>
      </trkpt>
      <trkpt lat="49.90384" lon="1.96536">
        <ele>103.1</ele>
        <time>2022-05-25T14:33:56Z</time>
      </trkpt>
      <trkpt lat="49.90384" lon="1.96535">
        <ele>103</ele>
        <time>2022-05-25T14:33:57Z</time>
      </trkpt>
      <trkpt lat="49.90383" lon="1.96534">
        <ele>102.9</ele>
        <time>2022-05-25T14:33:59Z</time>
      </trkpt>
      <trkpt lat="49.90383" lon="1.96533">
        <ele>102.8</ele>
        <time>2022-05-25T14:34:00Z</time>
      </trkpt>
      <trkpt lat="49.90382" lon="1.9653">
        <ele>102.7</ele>
        <time>2022-05-25T14:34:01Z</time>
      </trkpt>
      <trkpt lat="49.90382" lon="1.96529">
        <ele>102.6</ele>
        <time>2022-05-25T14:34:02Z</time>
      </trkpt>
      <trkpt lat="49.90382" lon="1.96529">
        <ele>102.5</ele>
        <time>2022-05-25T14:34:03Z</time>
      </trkpt>
      <trkpt lat="49.90381" lon="1.96528">
        <ele>102.5</ele>
        <time>2022-05-25T14:34:05Z</time>
      </trkpt>
      <trkpt lat="49.90381" lon="1.96527">
        <ele>102.4</ele>
        <time>2022-05-25T14:34:06Z</time>
      </trkpt>
      <trkpt lat="49.90381" lon="1.96526">
        <ele>102.3</ele>
        <time>2022-05-25T14:34:07Z</time>
      </trkpt>
      <trkpt lat="49.9038" lon="1.96525">
        <ele>102.3</ele>
        <time>2022-05-25T14:34:08Z</time>
      </trkpt>
      <trkpt lat="49.9038" lon="1.96524">
        <ele>102.2</ele>
        <time>2022-05-25T14:34:09Z</time>
      </trkpt>
      <trkpt lat="49.9038" lon="1.96522">
        <ele>102</ele>
        <time>2022-05-25T14:34:10Z</time>
      </trkpt>
      <trkpt lat="49.90379" lon="1.9652">
        <ele>101.9</ele>
        <time>2022-05-25T14:34:11Z</time>
      </trkpt>
      <trkpt lat="49.90379" lon="1.96519">
        <ele>101.8</ele>
        <time>2022-05-25T14:34:13Z</time>
      </trkpt>
      <trkpt lat="49.90379" lon="1.96517">
        <ele>101.7</ele>
        <time>2022-05-25T14:34:14Z</time>
      </trkpt>
      <trkpt lat="49.90379" lon="1.96516">
        <ele>101.6</ele>
        <time>2022-05-25T14:34:15Z</time>
      </trkpt>
      <trkpt lat="49.90378" lon="1.96513">
        <ele>101.4</ele>
        <time>2022-05-25T14:34:16Z</time>
      </trkpt>
      <trkpt lat="49.90377" lon="1.96512">
        <ele>101.3</ele>
        <time>2022-05-25T14:34:17Z</time>
      </trkpt>
      <trkpt lat="49.90377" lon="1.96511">
        <ele>101.1</ele>
        <time>2022-05-25T14:34:18Z</time>
      </trkpt>
      <trkpt lat="49.90376" lon="1.96509">
        <ele>101</ele>
        <time>2022-05-25T14:34:19Z</time>
      </trkpt>
      <trkpt lat="49.90376" lon="1.96507">
        <ele>100.9</ele>
        <time>2022-05-25T14:34:20Z</time>
      </trkpt>
      <trkpt lat="49.90375" lon="1.96505">
        <ele>100.7</ele>
        <time>2022-05-25T14:34:22Z</time>
      </trkpt>
      <trkpt lat="49.90375" lon="1.96504">
        <ele>100.6</ele>
        <time>2022-05-25T14:34:23Z</time>
      </trkpt>
      <trkpt lat="49.90374" lon="1.96502">
        <ele>100.4</ele>
        <time>2022-05-25T14:34:24Z</time>
      </trkpt>
      <trkpt lat="49.90374" lon="1.965">
        <ele>100.3</ele>
        <time>2022-05-25T14:34:25Z</time>
      </trkpt>
      <trkpt lat="49.90374" lon="1.96499">
        <ele>100.2</ele>
        <time>2022-05-25T14:34:26Z</time>
      </trkpt>
      <trkpt lat="49.90373" lon="1.96498">
        <ele>100.1</ele>
        <time>2022-05-25T14:34:27Z</time>
      </trkpt>
      <trkpt lat="49.90373" lon="1.96496">
        <ele>100</ele>
        <time>2022-05-25T14:34:28Z</time>
      </trkpt>
      <trkpt lat="49.90373" lon="1.96495">
        <ele>99.8</ele>
        <time>2022-05-25T14:34:29Z</time>
      </trkpt>
      <trkpt lat="49.90372" lon="1.96494">
        <ele>99.7</ele>
        <time>2022-05-25T14:34:31Z</time>
      </trkpt>
      <trkpt lat="49.90372" lon="1.96492">
        <ele>99.6</ele>
        <time>2022-05-25T14:34:32Z</time>
      </trkpt>
      <trkpt lat="49.90372" lon="1.9649">
        <ele>99.5</ele>
        <time>2022-05-25T14:34:33Z</time>
      </trkpt>
      <trkpt lat="49.90372" lon="1.96489">
        <ele>99.3</ele>
        <time>2022-05-25T14:34:34Z</time>
      </trkpt>
      <trkpt lat="49.90371" lon="1.96487">
        <ele>99.2</ele>
        <time>2022-05-25T14:34:35Z</time>
      </trkpt>
      <trkpt lat="49.9037" lon="1.96486">
        <ele>99.1</ele>
        <time>2022-05-25T14:34:36Z</time>
      </trkpt>
      <trkpt lat="49.9037" lon="1.96485">
        <ele>99</ele>
        <time>2022-05-25T14:34:37Z</time>
      </trkpt>
      <trkpt lat="49.90369" lon="1.96484">
        <ele>98.9</ele>
        <time>2022-05-25T14:34:39Z</time>
      </trkpt>
      <trkpt lat="49.90369" lon="1.96483">
        <ele>98.8</ele>
        <time>2022-05-25T14:34:40Z</time>
      </trkpt>
      <trkpt lat="49.90368" lon="1.96481">
        <ele>98.6</ele>
        <time>2022-05-25T14:34:41Z</time>
      </trkpt>
      <trkpt lat="49.90368" lon="1.9648">
        <ele>98.6</ele>
        <time>2022-05-25T14:34:42Z</time>
      </trkpt>
      <trkpt lat="49.90367" lon="1.96478">
        <ele>98.4</ele>
        <time>2022-05-25T14:34:43Z</time>
      </trkpt>
      <trkpt lat="49.90367" lon="1.96477">
        <ele>98.3</ele>
        <time>2022-05-25T14:34:45Z</time>
      </trkpt>
      <trkpt lat="49.90367" lon="1.96476">
        <ele>98.2</ele>
        <time>2022-05-25T14:34:46Z</time>
      </trkpt>
      <trkpt lat="49.90367" lon="1.96475">
        <ele>98.2</ele>
        <time>2022-05-25T14:34:47Z</time>
      </trkpt>
      <trkpt lat="49.90367" lon="1.96472">
        <ele>98</ele>
        <time>2022-05-25T14:34:48Z</time>
      </trkpt>
      <trkpt lat="49.90366" lon="1.96471">
        <ele>97.9</ele>
        <time>2022-05-25T14:34:49Z</time>
      </trkpt>
      <trkpt lat="49.90366" lon="1.9647">
        <ele>97.8</ele>
        <time>2022-05-25T14:34:50Z</time>
      </trkpt>
      <trkpt lat="49.90366" lon="1.96469">
        <ele>97.7</ele>
        <time>2022-05-25T14:34:51Z</time>
      </trkpt>
      <trkpt lat="49.90366" lon="1.96467">
        <ele>97.6</ele>
        <time>2022-05-25T14:34:53Z</time>
      </trkpt>
      <trkpt lat="49.90366" lon="1.96466">
        <ele>97.5</ele>
        <time>2022-05-25T14:34:54Z</time>
      </trkpt>
      <trkpt lat="49.90366" lon="1.96464">
        <ele>97.4</ele>
        <time>2022-05-25T14:34:55Z</time>
      </trkpt>
      <trkpt lat="49.90366" lon="1.96463">
        <ele>97.4</ele>
        <time>2022-05-25T14:34:56Z</time>
      </trkpt>
      <trkpt lat="49.90366" lon="1.96463">
        <ele>97.3</ele>
        <time>2022-05-25T14:34:57Z</time>
      </trkpt>
      <trkpt lat="49.90366" lon="1.96462">
        <ele>97.2</ele>
        <time>2022-05-25T14:34:58Z</time>
      </trkpt>
      <trkpt lat="49.90365" lon="1.96461">
        <ele>97.2</ele>
        <time>2022-05-25T14:34:59Z</time>
      </trkpt>
      <trkpt lat="49.90365" lon="1.9646">
        <ele>97.1</ele>
        <time>2022-05-25T14:35:00Z</time>
      </trkpt>
      <trkpt lat="49.90365" lon="1.96459">
        <ele>97</ele>
        <time>2022-05-25T14:35:02Z</time>
      </trkpt>
      <trkpt lat="49.90365" lon="1.96458">
        <ele>96.9</ele>
        <time>2022-05-25T14:35:03Z</time>
      </trkpt>
      <trkpt lat="49.90364" lon="1.96456">
        <ele>96.8</ele>
        <time>2022-05-25T14:35:04Z</time>
      </trkpt>
      <trkpt lat="49.90364" lon="1.96455">
        <ele>96.7</ele>
        <time>2022-05-25T14:35:05Z</time>
      </trkpt>
      <trkpt lat="49.90364" lon="1.96453">
        <ele>96.6</ele>
        <time>2022-05-25T14:35:06Z</time>
      </trkpt>
      <trkpt lat="49.90363" lon="1.96452">
        <ele>96.5</ele>
        <time>2022-05-25T14:35:07Z</time>
      </trkpt>
      <trkpt lat="49.90363" lon="1.9645">
        <ele>96.4</ele>
        <time>2022-05-25T14:35:08Z</time>
      </trkpt>
      <trkpt lat="49.90362" lon="1.96447">
        <ele>96.2</ele>
        <time>2022-05-25T14:35:10Z</time>
      </trkpt>
      <trkpt lat="49.90362" lon="1.96446">
        <ele>96.1</ele>
        <time>2022-05-25T14:35:11Z</time>
      </trkpt>
      <trkpt lat="49.90362" lon="1.96445">
        <ele>96</ele>
        <time>2022-05-25T14:35:12Z</time>
      </trkpt>
      <trkpt lat="49.90361" lon="1.96443">
        <ele>95.9</ele>
        <time>2022-05-25T14:35:13Z</time>
      </trkpt>
      <trkpt lat="49.90361" lon="1.96442">
        <ele>95.8</ele>
        <time>2022-05-25T14:35:14Z</time>
      </trkpt>
      <trkpt lat="49.90361" lon="1.9644">
        <ele>95.7</ele>
        <time>2022-05-25T14:35:15Z</time>
      </trkpt>
      <trkpt lat="49.9036" lon="1.96437">
        <ele>95.4</ele>
        <time>2022-05-25T14:35:16Z</time>
      </trkpt>
      <trkpt lat="49.90359" lon="1.96436">
        <ele>95.3</ele>
        <time>2022-05-25T14:35:17Z</time>
      </trkpt>
      <trkpt lat="49.90359" lon="1.96435">
        <ele>95.2</ele>
        <time>2022-05-25T14:35:18Z</time>
      </trkpt>
      <trkpt lat="49.90358" lon="1.96432">
        <ele>95</ele>
        <time>2022-05-25T14:35:20Z</time>
      </trkpt>
      <trkpt lat="49.90357" lon="1.96431">
        <ele>94.9</ele>
        <time>2022-05-25T14:35:21Z</time>
      </trkpt>
      <trkpt lat="49.90357" lon="1.9643">
        <ele>94.8</ele>
        <time>2022-05-25T14:35:22Z</time>
      </trkpt>
      <trkpt lat="49.90357" lon="1.96428">
        <ele>94.7</ele>
        <time>2022-05-25T14:35:23Z</time>
      </trkpt>
      <trkpt lat="49.90356" lon="1.96426">
        <ele>94.5</ele>
        <time>2022-05-25T14:35:24Z</time>
      </trkpt>
      <trkpt lat="49.90356" lon="1.96424">
        <ele>94.4</ele>
        <time>2022-05-25T14:35:25Z</time>
      </trkpt>
      <trkpt lat="49.90355" lon="1.96421">
        <ele>94.1</ele>
        <time>2022-05-25T14:35:27Z</time>
      </trkpt>
      <trkpt lat="49.90354" lon="1.9642">
        <ele>94</ele>
        <time>2022-05-25T14:35:28Z</time>
      </trkpt>
      <trkpt lat="49.90354" lon="1.96418">
        <ele>93.9</ele>
        <time>2022-05-25T14:35:29Z</time>
      </trkpt>
      <trkpt lat="49.90353" lon="1.96416">
        <ele>93.7</ele>
        <time>2022-05-25T14:35:30Z</time>
      </trkpt>
      <trkpt lat="49.90353" lon="1.96413">
        <ele>93.5</ele>
        <time>2022-05-25T14:35:31Z</time>
      </trkpt>
      <trkpt lat="49.90352" lon="1.96411">
        <ele>93.4</ele>
        <time>2022-05-25T14:35:32Z</time>
      </trkpt>
      <trkpt lat="49.90351" lon="1.9641">
        <ele>93.2</ele>
        <time>2022-05-25T14:35:33Z</time>
      </trkpt>
      <trkpt lat="49.90351" lon="1.96408">
        <ele>93</ele>
        <time>2022-05-25T14:35:35Z</time>
      </trkpt>
      <trkpt lat="49.9035" lon="1.96406">
        <ele>92.9</ele>
        <time>2022-05-25T14:35:36Z</time>
      </trkpt>
      <trkpt lat="49.90349" lon="1.96404">
        <ele>92.7</ele>
        <time>2022-05-25T14:35:37Z</time>
      </trkpt>
      <trkpt lat="49.90348" lon="1.96401">
        <ele>92.4</ele>
        <time>2022-05-25T14:35:38Z</time>
      </trkpt>
      <trkpt lat="49.90347" lon="1.964">
        <ele>92.3</ele>
        <time>2022-05-25T14:35:39Z</time>
      </trkpt>
      <trkpt lat="49.90347" lon="1.96399">
        <ele>92.2</ele>
        <time>2022-05-25T14:35:40Z</time>
      </trkpt>
      <trkpt lat="49.90345" lon="1.96395">
        <ele>91.8</ele>
        <time>2022-05-25T14:35:41Z</time>
      </trkpt>
      <trkpt lat="49.90345" lon="1.96393">
        <ele>91.7</ele>
        <time>2022-05-25T14:35:43Z</time>
      </trkpt>
      <trkpt lat="49.90344" lon="1.96392">
        <ele>91.6</ele>
        <time>2022-05-25T14:35:44Z</time>
      </trkpt>
      <trkpt lat="49.90344" lon="1.96391">
        <ele>91.4</ele>
        <time>2022-05-25T14:35:45Z</time>
      </trkpt>
      <trkpt lat="49.90343" lon="1.96389">
        <ele>91.3</ele>
        <time>2022-05-25T14:35:46Z</time>
      </trkpt>
      <trkpt lat="49.90342" lon="1.96386">
        <ele>91</ele>
        <time>2022-05-25T14:35:47Z</time>
      </trkpt>
      <trkpt lat="49.90342" lon="1.96385">
        <ele>90.9</ele>
        <time>2022-05-25T14:35:48Z</time>
      </trkpt>
      <trkpt lat="49.90342" lon="1.96384">
        <ele>90.8</ele>
        <time>2022-05-25T14:35:49Z</time>
      </trkpt>
      <trkpt lat="49.90341" lon="1.96382">
        <ele>90.6</ele>
        <time>2022-05-25T14:35:50Z</time>
      </trkpt>
      <trkpt lat="49.90341" lon="1.96379">
        <ele>90.3</ele>
        <time>2022-05-25T14:35:52Z</time>
      </trkpt>
      <trkpt lat="49.90341" lon="1.96377">
        <ele>90.2</ele>
        <time>2022-05-25T14:35:53Z</time>
      </trkpt>
      <trkpt lat="49.90341" lon="1.96375">
        <ele>90.1</ele>
        <time>2022-05-25T14:35:54Z</time>
      </trkpt>
      <trkpt lat="49.90341" lon="1.96374">
        <ele>89.9</ele>
        <time>2022-05-25T14:35:55Z</time>
      </trkpt>
      <trkpt lat="49.9034" lon="1.96371">
        <ele>89.7</ele>
        <time>2022-05-25T14:35:56Z</time>
      </trkpt>
      <trkpt lat="49.9034" lon="1.9637">
        <ele>89.6</ele>
        <time>2022-05-25T14:35:57Z</time>
      </trkpt>
      <trkpt lat="49.9034" lon="1.96369">
        <ele>89.4</ele>
        <time>2022-05-25T14:35:58Z</time>
      </trkpt>
      <trkpt lat="49.9034" lon="1.96367">
        <ele>89.2</ele>
        <time>2022-05-25T14:35:59Z</time>
      </trkpt>
      <trkpt lat="49.90339" lon="1.96365">
        <ele>89.1</ele>
        <time>2022-05-25T14:36:01Z</time>
      </trkpt>
      <trkpt lat="49.90339" lon="1.96364">
        <ele>88.9</ele>
        <time>2022-05-25T14:36:02Z</time>
      </trkpt>
      <trkpt lat="49.90338" lon="1.96362">
        <ele>88.8</ele>
        <time>2022-05-25T14:36:03Z</time>
      </trkpt>
      <trkpt lat="49.90338" lon="1.96361">
        <ele>88.7</ele>
        <time>2022-05-25T14:36:04Z</time>
      </trkpt>
      <trkpt lat="49.90338" lon="1.96359">
        <ele>88.5</ele>
        <time>2022-05-25T14:36:05Z</time>
      </trkpt>
      <trkpt lat="49.90337" lon="1.96358">
        <ele>88.4</ele>
        <time>2022-05-25T14:36:06Z</time>
      </trkpt>
      <trkpt lat="49.90336" lon="1.96357">
        <ele>88.3</ele>
        <time>2022-05-25T14:36:07Z</time>
      </trkpt>
      <trkpt lat="49.90336" lon="1.96356">
        <ele>88.2</ele>
        <time>2022-05-25T14:36:09Z</time>
      </trkpt>
      <trkpt lat="49.90335" lon="1.96355">
        <ele>88.1</ele>
        <time>2022-05-25T14:36:10Z</time>
      </trkpt>
      <trkpt lat="49.90335" lon="1.96354">
        <ele>88</ele>
        <time>2022-05-25T14:36:11Z</time>
      </trkpt>
      <trkpt lat="49.90335" lon="1.96353">
        <ele>87.9</ele>
        <time>2022-05-25T14:36:12Z</time>
      </trkpt>
      <trkpt lat="49.90335" lon="1.96352">
        <ele>87.8</ele>
        <time>2022-05-25T14:36:14Z</time>
      </trkpt>
      <trkpt lat="49.90335" lon="1.96351">
        <ele>87.7</ele>
        <time>2022-05-25T14:36:15Z</time>
      </trkpt>
      <trkpt lat="49.90336" lon="1.96351">
        <ele>87.7</ele>
        <time>2022-05-25T14:36:16Z</time>
      </trkpt>
      <trkpt lat="49.90336" lon="1.9635">
        <ele>87.6</ele>
        <time>2022-05-25T14:36:17Z</time>
      </trkpt>
      <trkpt lat="49.90336" lon="1.9635">
        <ele>87.5</ele>
        <time>2022-05-25T14:36:18Z</time>
      </trkpt>
      <trkpt lat="49.90336" lon="1.96349">
        <ele>87.5</ele>
        <time>2022-05-25T14:36:19Z</time>
      </trkpt>
      <trkpt lat="49.90336" lon="1.96348">
        <ele>87.4</ele>
        <time>2022-05-25T14:36:20Z</time>
      </trkpt>
      <trkpt lat="49.90336" lon="1.96346">
        <ele>87.2</ele>
        <time>2022-05-25T14:36:22Z</time>
      </trkpt>
      <trkpt lat="49.90335" lon="1.96345">
        <ele>87.2</ele>
        <time>2022-05-25T14:36:23Z</time>
      </trkpt>
      <trkpt lat="49.90334" lon="1.96343">
        <ele>87</ele>
        <time>2022-05-25T14:36:24Z</time>
      </trkpt>
      <trkpt lat="49.90334" lon="1.96342">
        <ele>86.9</ele>
        <time>2022-05-25T14:36:25Z</time>
      </trkpt>
      <trkpt lat="49.90333" lon="1.9634">
        <ele>86.8</ele>
        <time>2022-05-25T14:36:26Z</time>
      </trkpt>
      <trkpt lat="49.90332" lon="1.96338">
        <ele>86.6</ele>
        <time>2022-05-25T14:36:27Z</time>
      </trkpt>
      <trkpt lat="49.90331" lon="1.96336">
        <ele>86.4</ele>
        <time>2022-05-25T14:36:28Z</time>
      </trkpt>
      <trkpt lat="49.90331" lon="1.96334">
        <ele>86.3</ele>
        <time>2022-05-25T14:36:29Z</time>
      </trkpt>
      <trkpt lat="49.90329" lon="1.9633">
        <ele>86</ele>
        <time>2022-05-25T14:36:31Z</time>
      </trkpt>
      <trkpt lat="49.90329" lon="1.96329">
        <ele>86</ele>
        <time>2022-05-25T14:36:32Z</time>
      </trkpt>
      <trkpt lat="49.90328" lon="1.96327">
        <ele>85.8</ele>
        <time>2022-05-25T14:36:33Z</time>
      </trkpt>
      <trkpt lat="49.90327" lon="1.96325">
        <ele>85.7</ele>
        <time>2022-05-25T14:36:34Z</time>
      </trkpt>
      <trkpt lat="49.90327" lon="1.96323">
        <ele>85.6</ele>
        <time>2022-05-25T14:36:35Z</time>
      </trkpt>
      <trkpt lat="49.90326" lon="1.9632">
        <ele>85.4</ele>
        <time>2022-05-25T14:36:36Z</time>
      </trkpt>
      <trkpt lat="49.90326" lon="1.96318">
        <ele>85.3</ele>
        <time>2022-05-25T14:36:38Z</time>
      </trkpt>
      <trkpt lat="49.90325" lon="1.96315">
        <ele>85.2</ele>
        <time>2022-05-25T14:36:39Z</time>
      </trkpt>
      <trkpt lat="49.90325" lon="1.96313">
        <ele>85.1</ele>
        <time>2022-05-25T14:36:40Z</time>
      </trkpt>
      <trkpt lat="49.90325" lon="1.9631">
        <ele>85</ele>
        <time>2022-05-25T14:36:41Z</time>
      </trkpt>
      <trkpt lat="49.90324" lon="1.96307">
        <ele>84.9</ele>
        <time>2022-05-25T14:36:42Z</time>
      </trkpt>
      <trkpt lat="49.90324" lon="1.96305">
        <ele>84.8</ele>
        <time>2022-05-25T14:36:43Z</time>
      </trkpt>
      <trkpt lat="49.90324" lon="1.96303">
        <ele>84.7</ele>
        <time>2022-05-25T14:36:45Z</time>
      </trkpt>
      <trkpt lat="49.90323" lon="1.96301">
        <ele>84.6</ele>
        <time>2022-05-25T14:36:46Z</time>
      </trkpt>
      <trkpt lat="49.90323" lon="1.96298">
        <ele>84.5</ele>
        <time>2022-05-25T14:36:47Z</time>
      </trkpt>
      <trkpt lat="49.90322" lon="1.96296">
        <ele>84.5</ele>
        <time>2022-05-25T14:36:48Z</time>
      </trkpt>
      <trkpt lat="49.90322" lon="1.96294">
        <ele>84.4</ele>
        <time>2022-05-25T14:36:49Z</time>
      </trkpt>
      <trkpt lat="49.90321" lon="1.96292">
        <ele>84.3</ele>
        <time>2022-05-25T14:36:50Z</time>
      </trkpt>
      <trkpt lat="49.90321" lon="1.96289">
        <ele>84.2</ele>
        <time>2022-05-25T14:36:52Z</time>
      </trkpt>
      <trkpt lat="49.9032" lon="1.96288">
        <ele>84.1</ele>
        <time>2022-05-25T14:36:53Z</time>
      </trkpt>
      <trkpt lat="49.90319" lon="1.96284">
        <ele>84</ele>
        <time>2022-05-25T14:36:54Z</time>
      </trkpt>
      <trkpt lat="49.90319" lon="1.96283">
        <ele>83.9</ele>
        <time>2022-05-25T14:36:56Z</time>
      </trkpt>
      <trkpt lat="49.90318" lon="1.96281">
        <ele>83.9</ele>
        <time>2022-05-25T14:36:57Z</time>
      </trkpt>
      <trkpt lat="49.90318" lon="1.9628">
        <ele>83.8</ele>
        <time>2022-05-25T14:36:58Z</time>
      </trkpt>
      <trkpt lat="49.90317" lon="1.96278">
        <ele>83.7</ele>
        <time>2022-05-25T14:36:59Z</time>
      </trkpt>
      <trkpt lat="49.90317" lon="1.96275">
        <ele>83.6</ele>
        <time>2022-05-25T14:37:00Z</time>
      </trkpt>
      <trkpt lat="49.90316" lon="1.96273">
        <ele>83.6</ele>
        <time>2022-05-25T14:37:01Z</time>
      </trkpt>
      <trkpt lat="49.90316" lon="1.96272">
        <ele>83.5</ele>
        <time>2022-05-25T14:37:02Z</time>
      </trkpt>
      <trkpt lat="49.90315" lon="1.96271">
        <ele>83.5</ele>
        <time>2022-05-25T14:37:03Z</time>
      </trkpt>
      <trkpt lat="49.90315" lon="1.96269">
        <ele>83.4</ele>
        <time>2022-05-25T14:37:05Z</time>
      </trkpt>
      <trkpt lat="49.90315" lon="1.96268">
        <ele>83.4</ele>
        <time>2022-05-25T14:37:06Z</time>
      </trkpt>
      <trkpt lat="49.90314" lon="1.96266">
        <ele>83.3</ele>
        <time>2022-05-25T14:37:07Z</time>
      </trkpt>
      <trkpt lat="49.90314" lon="1.96264">
        <ele>83.2</ele>
        <time>2022-05-25T14:37:08Z</time>
      </trkpt>
      <trkpt lat="49.90313" lon="1.96263">
        <ele>83.2</ele>
        <time>2022-05-25T14:37:09Z</time>
      </trkpt>
      <trkpt lat="49.90313" lon="1.96261">
        <ele>83.1</ele>
        <time>2022-05-25T14:37:10Z</time>
      </trkpt>
      <trkpt lat="49.90312" lon="1.96259">
        <ele>83</ele>
        <time>2022-05-25T14:37:11Z</time>
      </trkpt>
      <trkpt lat="49.90312" lon="1.96257">
        <ele>83</ele>
        <time>2022-05-25T14:37:13Z</time>
      </trkpt>
      <trkpt lat="49.90311" lon="1.96256">
        <ele>82.9</ele>
        <time>2022-05-25T14:37:14Z</time>
      </trkpt>
      <trkpt lat="49.90311" lon="1.96255">
        <ele>82.9</ele>
        <time>2022-05-25T14:37:15Z</time>
      </trkpt>
      <trkpt lat="49.90311" lon="1.96254">
        <ele>82.8</ele>
        <time>2022-05-25T14:37:16Z</time>
      </trkpt>
      <trkpt lat="49.9031" lon="1.96251">
        <ele>82.7</ele>
        <time>2022-05-25T14:37:17Z</time>
      </trkpt>
      <trkpt lat="49.90309" lon="1.9625">
        <ele>82.7</ele>
        <time>2022-05-25T14:37:18Z</time>
      </trkpt>
      <trkpt lat="49.90309" lon="1.96249">
        <ele>82.6</ele>
        <time>2022-05-25T14:37:19Z</time>
      </trkpt>
      <trkpt lat="49.90309" lon="1.96247">
        <ele>82.6</ele>
        <time>2022-05-25T14:37:20Z</time>
      </trkpt>
      <trkpt lat="49.90308" lon="1.96245">
        <ele>82.5</ele>
        <time>2022-05-25T14:37:22Z</time>
      </trkpt>
      <trkpt lat="49.90308" lon="1.96244">
        <ele>82.5</ele>
        <time>2022-05-25T14:37:23Z</time>
      </trkpt>
      <trkpt lat="49.90307" lon="1.96241">
        <ele>82.4</ele>
        <time>2022-05-25T14:37:24Z</time>
      </trkpt>
      <trkpt lat="49.90307" lon="1.9624">
        <ele>82.3</ele>
        <time>2022-05-25T14:37:25Z</time>
      </trkpt>
      <trkpt lat="49.90306" lon="1.96239">
        <ele>82.3</ele>
        <time>2022-05-25T14:37:26Z</time>
      </trkpt>
      <trkpt lat="49.90306" lon="1.96236">
        <ele>82.2</ele>
        <time>2022-05-25T14:37:27Z</time>
      </trkpt>
      <trkpt lat="49.90305" lon="1.96235">
        <ele>82.1</ele>
        <time>2022-05-25T14:37:28Z</time>
      </trkpt>
      <trkpt lat="49.90305" lon="1.96234">
        <ele>82.1</ele>
        <time>2022-05-25T14:37:29Z</time>
      </trkpt>
      <trkpt lat="49.90304" lon="1.96231">
        <ele>82</ele>
        <time>2022-05-25T14:37:31Z</time>
      </trkpt>
      <trkpt lat="49.90304" lon="1.96229">
        <ele>82</ele>
        <time>2022-05-25T14:37:32Z</time>
      </trkpt>
      <trkpt lat="49.90304" lon="1.96228">
        <ele>81.9</ele>
        <time>2022-05-25T14:37:33Z</time>
      </trkpt>
      <trkpt lat="49.90303" lon="1.96226">
        <ele>81.9</ele>
        <time>2022-05-25T14:37:34Z</time>
      </trkpt>
      <trkpt lat="49.90303" lon="1.96225">
        <ele>81.8</ele>
        <time>2022-05-25T14:37:35Z</time>
      </trkpt>
      <trkpt lat="49.90302" lon="1.96223">
        <ele>81.8</ele>
        <time>2022-05-25T14:37:37Z</time>
      </trkpt>
      <trkpt lat="49.90302" lon="1.96221">
        <ele>81.7</ele>
        <time>2022-05-25T14:37:38Z</time>
      </trkpt>
      <trkpt lat="49.90302" lon="1.9622">
        <ele>81.7</ele>
        <time>2022-05-25T14:37:39Z</time>
      </trkpt>
      <trkpt lat="49.90301" lon="1.96218">
        <ele>81.7</ele>
        <time>2022-05-25T14:37:40Z</time>
      </trkpt>
      <trkpt lat="49.90301" lon="1.96216">
        <ele>81.6</ele>
        <time>2022-05-25T14:37:41Z</time>
      </trkpt>
      <trkpt lat="49.903" lon="1.96213">
        <ele>81.6</ele>
        <time>2022-05-25T14:37:42Z</time>
      </trkpt>
      <trkpt lat="49.903" lon="1.96212">
        <ele>81.6</ele>
        <time>2022-05-25T14:37:44Z</time>
      </trkpt>
      <trkpt lat="49.90299" lon="1.96211">
        <ele>81.5</ele>
        <time>2022-05-25T14:37:45Z</time>
      </trkpt>
      <trkpt lat="49.90299" lon="1.96209">
        <ele>81.5</ele>
        <time>2022-05-25T14:37:46Z</time>
      </trkpt>
      <trkpt lat="49.90298" lon="1.96207">
        <ele>81.5</ele>
        <time>2022-05-25T14:37:47Z</time>
      </trkpt>
      <trkpt lat="49.90298" lon="1.96205">
        <ele>81.5</ele>
        <time>2022-05-25T14:37:48Z</time>
      </trkpt>
      <trkpt lat="49.90297" lon="1.96203">
        <ele>81.4</ele>
        <time>2022-05-25T14:37:49Z</time>
      </trkpt>
      <trkpt lat="49.90297" lon="1.96202">
        <ele>81.4</ele>
        <time>2022-05-25T14:37:50Z</time>
      </trkpt>
      <trkpt lat="49.90296" lon="1.962">
        <ele>81.4</ele>
        <time>2022-05-25T14:37:52Z</time>
      </trkpt>
      <trkpt lat="49.90295" lon="1.96197">
        <ele>81.4</ele>
        <time>2022-05-25T14:37:53Z</time>
      </trkpt>
      <trkpt lat="49.90295" lon="1.96196">
        <ele>81.4</ele>
        <time>2022-05-25T14:37:54Z</time>
      </trkpt>
      <trkpt lat="49.90294" lon="1.96195">
        <ele>81.4</ele>
        <time>2022-05-25T14:37:55Z</time>
      </trkpt>
      <trkpt lat="49.90294" lon="1.96193">
        <ele>81.3</ele>
        <time>2022-05-25T14:37:56Z</time>
      </trkpt>
      <trkpt lat="49.90293" lon="1.96191">
        <ele>81.3</ele>
        <time>2022-05-25T14:37:57Z</time>
      </trkpt>
      <trkpt lat="49.90292" lon="1.96187">
        <ele>81.3</ele>
        <time>2022-05-25T14:37:59Z</time>
      </trkpt>
      <trkpt lat="49.90291" lon="1.96185">
        <ele>81.3</ele>
        <time>2022-05-25T14:38:01Z</time>
      </trkpt>
      <trkpt lat="49.90291" lon="1.96184">
        <ele>81.3</ele>
        <time>2022-05-25T14:38:02Z</time>
      </trkpt>
      <trkpt lat="49.9029" lon="1.96182">
        <ele>81.3</ele>
        <time>2022-05-25T14:38:03Z</time>
      </trkpt>
      <trkpt lat="49.9029" lon="1.96181">
        <ele>81.3</ele>
        <time>2022-05-25T14:38:04Z</time>
      </trkpt>
      <trkpt lat="49.90289" lon="1.96178">
        <ele>81.3</ele>
        <time>2022-05-25T14:38:05Z</time>
      </trkpt>
      <trkpt lat="49.90289" lon="1.96176">
        <ele>81.3</ele>
        <time>2022-05-25T14:38:07Z</time>
      </trkpt>
      <trkpt lat="49.90288" lon="1.96175">
        <ele>81.3</ele>
        <time>2022-05-25T14:38:08Z</time>
      </trkpt>
      <trkpt lat="49.90288" lon="1.96172">
        <ele>81.3</ele>
        <time>2022-05-25T14:38:09Z</time>
      </trkpt>
      <trkpt lat="49.90288" lon="1.96171">
        <ele>81.3</ele>
        <time>2022-05-25T14:38:10Z</time>
      </trkpt>
      <trkpt lat="49.90287" lon="1.9617">
        <ele>81.3</ele>
        <time>2022-05-25T14:38:11Z</time>
      </trkpt>
      <trkpt lat="49.90287" lon="1.96167">
        <ele>81.3</ele>
        <time>2022-05-25T14:38:12Z</time>
      </trkpt>
      <trkpt lat="49.90286" lon="1.96166">
        <ele>81.3</ele>
        <time>2022-05-25T14:38:13Z</time>
      </trkpt>
      <trkpt lat="49.90286" lon="1.96163">
        <ele>81.3</ele>
        <time>2022-05-25T14:38:15Z</time>
      </trkpt>
      <trkpt lat="49.90286" lon="1.96161">
        <ele>81.3</ele>
        <time>2022-05-25T14:38:16Z</time>
      </trkpt>
      <trkpt lat="49.90285" lon="1.9616">
        <ele>81.3</ele>
        <time>2022-05-25T14:38:17Z</time>
      </trkpt>
      <trkpt lat="49.90285" lon="1.96158">
        <ele>81.3</ele>
        <time>2022-05-25T14:38:18Z</time>
      </trkpt>
      <trkpt lat="49.90285" lon="1.96156">
        <ele>81.3</ele>
        <time>2022-05-25T14:38:19Z</time>
      </trkpt>
      <trkpt lat="49.90284" lon="1.96154">
        <ele>81.3</ele>
        <time>2022-05-25T14:38:20Z</time>
      </trkpt>
      <trkpt lat="49.90284" lon="1.96153">
        <ele>81.3</ele>
        <time>2022-05-25T14:38:21Z</time>
      </trkpt>
      <trkpt lat="49.90283" lon="1.96151">
        <ele>81.3</ele>
        <time>2022-05-25T14:38:23Z</time>
      </trkpt>
      <trkpt lat="49.90283" lon="1.96149">
        <ele>81.3</ele>
        <time>2022-05-25T14:38:24Z</time>
      </trkpt>
      <trkpt lat="49.90282" lon="1.96146">
        <ele>81.3</ele>
        <time>2022-05-25T14:38:25Z</time>
      </trkpt>
      <trkpt lat="49.90282" lon="1.96145">
        <ele>81.3</ele>
        <time>2022-05-25T14:38:26Z</time>
      </trkpt>
      <trkpt lat="49.90281" lon="1.96143">
        <ele>81.3</ele>
        <time>2022-05-25T14:38:27Z</time>
      </trkpt>
      <trkpt lat="49.90281" lon="1.96141">
        <ele>81.3</ele>
        <time>2022-05-25T14:38:28Z</time>
      </trkpt>
      <trkpt lat="49.9028" lon="1.96139">
        <ele>81.4</ele>
        <time>2022-05-25T14:38:29Z</time>
      </trkpt>
      <trkpt lat="49.9028" lon="1.96138">
        <ele>81.4</ele>
        <time>2022-05-25T14:38:31Z</time>
      </trkpt>
      <trkpt lat="49.9028" lon="1.96137">
        <ele>81.4</ele>
        <time>2022-05-25T14:38:32Z</time>
      </trkpt>
      <trkpt lat="49.90279" lon="1.96135">
        <ele>81.4</ele>
        <time>2022-05-25T14:38:33Z</time>
      </trkpt>
      <trkpt lat="49.90279" lon="1.96134">
        <ele>81.4</ele>
        <time>2022-05-25T14:38:34Z</time>
      </trkpt>
      <trkpt lat="49.90278" lon="1.96132">
        <ele>81.4</ele>
        <time>2022-05-25T14:38:35Z</time>
      </trkpt>
      <trkpt lat="49.90278" lon="1.9613">
        <ele>81.4</ele>
        <time>2022-05-25T14:38:36Z</time>
      </trkpt>
      <trkpt lat="49.90278" lon="1.96128">
        <ele>81.5</ele>
        <time>2022-05-25T14:38:38Z</time>
      </trkpt>
      <trkpt lat="49.90277" lon="1.96127">
        <ele>81.5</ele>
        <time>2022-05-25T14:38:39Z</time>
      </trkpt>
      <trkpt lat="49.90277" lon="1.96125">
        <ele>81.5</ele>
        <time>2022-05-25T14:38:40Z</time>
      </trkpt>
      <trkpt lat="49.90277" lon="1.96123">
        <ele>81.5</ele>
        <time>2022-05-25T14:38:41Z</time>
      </trkpt>
      <trkpt lat="49.90276" lon="1.9612">
        <ele>81.6</ele>
        <time>2022-05-25T14:38:42Z</time>
      </trkpt>
      <trkpt lat="49.90275" lon="1.96119">
        <ele>81.6</ele>
        <time>2022-05-25T14:38:43Z</time>
      </trkpt>
      <trkpt lat="49.90275" lon="1.96118">
        <ele>81.6</ele>
        <time>2022-05-25T14:38:44Z</time>
      </trkpt>
      <trkpt lat="49.90275" lon="1.96116">
        <ele>81.6</ele>
        <time>2022-05-25T14:38:45Z</time>
      </trkpt>
      <trkpt lat="49.90274" lon="1.96115">
        <ele>81.6</ele>
        <time>2022-05-25T14:38:47Z</time>
      </trkpt>
      <trkpt lat="49.90274" lon="1.96113">
        <ele>81.7</ele>
        <time>2022-05-25T14:38:48Z</time>
      </trkpt>
      <trkpt lat="49.90273" lon="1.96112">
        <ele>81.7</ele>
        <time>2022-05-25T14:38:49Z</time>
      </trkpt>
      <trkpt lat="49.90273" lon="1.9611">
        <ele>81.7</ele>
        <time>2022-05-25T14:38:50Z</time>
      </trkpt>
      <trkpt lat="49.90273" lon="1.96109">
        <ele>81.7</ele>
        <time>2022-05-25T14:38:51Z</time>
      </trkpt>
      <trkpt lat="49.90273" lon="1.96106">
        <ele>81.8</ele>
        <time>2022-05-25T14:38:52Z</time>
      </trkpt>
      <trkpt lat="49.90272" lon="1.96105">
        <ele>81.8</ele>
        <time>2022-05-25T14:38:53Z</time>
      </trkpt>
      <trkpt lat="49.90272" lon="1.96104">
        <ele>81.8</ele>
        <time>2022-05-25T14:38:55Z</time>
      </trkpt>
      <trkpt lat="49.90272" lon="1.96103">
        <ele>81.8</ele>
        <time>2022-05-25T14:38:56Z</time>
      </trkpt>
      <trkpt lat="49.90271" lon="1.96101">
        <ele>81.9</ele>
        <time>2022-05-25T14:38:57Z</time>
      </trkpt>
      <trkpt lat="49.90271" lon="1.96099">
        <ele>81.9</ele>
        <time>2022-05-25T14:38:58Z</time>
      </trkpt>
      <trkpt lat="49.90271" lon="1.96098">
        <ele>81.9</ele>
        <time>2022-05-25T14:38:59Z</time>
      </trkpt>
      <trkpt lat="49.90271" lon="1.96096">
        <ele>81.9</ele>
        <time>2022-05-25T14:39:00Z</time>
      </trkpt>
      <trkpt lat="49.9027" lon="1.96095">
        <ele>82</ele>
        <time>2022-05-25T14:39:01Z</time>
      </trkpt>
      <trkpt lat="49.9027" lon="1.96093">
        <ele>82</ele>
        <time>2022-05-25T14:39:02Z</time>
      </trkpt>
      <trkpt lat="49.90269" lon="1.96092">
        <ele>82</ele>
        <time>2022-05-25T14:39:04Z</time>
      </trkpt>
      <trkpt lat="49.90269" lon="1.9609">
        <ele>82</ele>
        <time>2022-05-25T14:39:05Z</time>
      </trkpt>
      <trkpt lat="49.90268" lon="1.96089">
        <ele>82.1</ele>
        <time>2022-05-25T14:39:06Z</time>
      </trkpt>
      <trkpt lat="49.90268" lon="1.96086">
        <ele>82.1</ele>
        <time>2022-05-25T14:39:07Z</time>
      </trkpt>
      <trkpt lat="49.90267" lon="1.96085">
        <ele>82.1</ele>
        <time>2022-05-25T14:39:08Z</time>
      </trkpt>
      <trkpt lat="49.90267" lon="1.96083">
        <ele>82.1</ele>
        <time>2022-05-25T14:39:09Z</time>
      </trkpt>
      <trkpt lat="49.90267" lon="1.96081">
        <ele>82.2</ele>
        <time>2022-05-25T14:39:11Z</time>
      </trkpt>
      <trkpt lat="49.90266" lon="1.9608">
        <ele>82.2</ele>
        <time>2022-05-25T14:39:12Z</time>
      </trkpt>
      <trkpt lat="49.90266" lon="1.96078">
        <ele>82.2</ele>
        <time>2022-05-25T14:39:13Z</time>
      </trkpt>
      <trkpt lat="49.90266" lon="1.96076">
        <ele>82.2</ele>
        <time>2022-05-25T14:39:14Z</time>
      </trkpt>
      <trkpt lat="49.90265" lon="1.96073">
        <ele>82.3</ele>
        <time>2022-05-25T14:39:15Z</time>
      </trkpt>
      <trkpt lat="49.90264" lon="1.96072">
        <ele>82.3</ele>
        <time>2022-05-25T14:39:16Z</time>
      </trkpt>
      <trkpt lat="49.90264" lon="1.9607">
        <ele>82.3</ele>
        <time>2022-05-25T14:39:17Z</time>
      </trkpt>
      <trkpt lat="49.90264" lon="1.96069">
        <ele>82.3</ele>
        <time>2022-05-25T14:39:18Z</time>
      </trkpt>
      <trkpt lat="49.90263" lon="1.96068">
        <ele>82.4</ele>
        <time>2022-05-25T14:39:20Z</time>
      </trkpt>
      <trkpt lat="49.90263" lon="1.96066">
        <ele>82.4</ele>
        <time>2022-05-25T14:39:21Z</time>
      </trkpt>
      <trkpt lat="49.90262" lon="1.96062">
        <ele>82.5</ele>
        <time>2022-05-25T14:39:22Z</time>
      </trkpt>
      <trkpt lat="49.90262" lon="1.9606">
        <ele>82.5</ele>
        <time>2022-05-25T14:39:24Z</time>
      </trkpt>
      <trkpt lat="49.90261" lon="1.96059">
        <ele>82.5</ele>
        <time>2022-05-25T14:39:25Z</time>
      </trkpt>
      <trkpt lat="49.90261" lon="1.96057">
        <ele>82.5</ele>
        <time>2022-05-25T14:39:26Z</time>
      </trkpt>
      <trkpt lat="49.90261" lon="1.96056">
        <ele>82.6</ele>
        <time>2022-05-25T14:39:27Z</time>
      </trkpt>
      <trkpt lat="49.9026" lon="1.96054">
        <ele>82.6</ele>
        <time>2022-05-25T14:39:28Z</time>
      </trkpt>
      <trkpt lat="49.9026" lon="1.96053">
        <ele>82.6</ele>
        <time>2022-05-25T14:39:29Z</time>
      </trkpt>
      <trkpt lat="49.9026" lon="1.96051">
        <ele>82.6</ele>
        <time>2022-05-25T14:39:31Z</time>
      </trkpt>
      <trkpt lat="49.90259" lon="1.9605">
        <ele>82.7</ele>
        <time>2022-05-25T14:39:32Z</time>
      </trkpt>
      <trkpt lat="49.90259" lon="1.96048">
        <ele>82.7</ele>
        <time>2022-05-25T14:39:33Z</time>
      </trkpt>
      <trkpt lat="49.90258" lon="1.96046">
        <ele>82.7</ele>
        <time>2022-05-25T14:39:34Z</time>
      </trkpt>
      <trkpt lat="49.90258" lon="1.96045">
        <ele>82.8</ele>
        <time>2022-05-25T14:39:35Z</time>
      </trkpt>
      <trkpt lat="49.90257" lon="1.96043">
        <ele>82.8</ele>
        <time>2022-05-25T14:39:36Z</time>
      </trkpt>
      <trkpt lat="49.90257" lon="1.96041">
        <ele>82.8</ele>
        <time>2022-05-25T14:39:38Z</time>
      </trkpt>
      <trkpt lat="49.90256" lon="1.9604">
        <ele>82.9</ele>
        <time>2022-05-25T14:39:39Z</time>
      </trkpt>
      <trkpt lat="49.90256" lon="1.96038">
        <ele>82.9</ele>
        <time>2022-05-25T14:39:40Z</time>
      </trkpt>
      <trkpt lat="49.90255" lon="1.96037">
        <ele>82.9</ele>
        <time>2022-05-25T14:39:41Z</time>
      </trkpt>
      <trkpt lat="49.90255" lon="1.96035">
        <ele>83</ele>
        <time>2022-05-25T14:39:42Z</time>
      </trkpt>
      <trkpt lat="49.90255" lon="1.96033">
        <ele>83</ele>
        <time>2022-05-25T14:39:43Z</time>
      </trkpt>
      <trkpt lat="49.90254" lon="1.96032">
        <ele>83</ele>
        <time>2022-05-25T14:39:45Z</time>
      </trkpt>
      <trkpt lat="49.90254" lon="1.9603">
        <ele>83.1</ele>
        <time>2022-05-25T14:39:46Z</time>
      </trkpt>
      <trkpt lat="49.90253" lon="1.96028">
        <ele>83.1</ele>
        <time>2022-05-25T14:39:48Z</time>
      </trkpt>
      <trkpt lat="49.90253" lon="1.96027">
        <ele>83.1</ele>
        <time>2022-05-25T14:39:49Z</time>
      </trkpt>
      <trkpt lat="49.90252" lon="1.96025">
        <ele>83.2</ele>
        <time>2022-05-25T14:39:50Z</time>
      </trkpt>
      <trkpt lat="49.90252" lon="1.96024">
        <ele>83.2</ele>
        <time>2022-05-25T14:39:51Z</time>
      </trkpt>
      <trkpt lat="49.90252" lon="1.96022">
        <ele>83.3</ele>
        <time>2022-05-25T14:39:52Z</time>
      </trkpt>
      <trkpt lat="49.90251" lon="1.96021">
        <ele>83.3</ele>
        <time>2022-05-25T14:39:53Z</time>
      </trkpt>
      <trkpt lat="49.90251" lon="1.96019">
        <ele>83.3</ele>
        <time>2022-05-25T14:39:55Z</time>
      </trkpt>
      <trkpt lat="49.90251" lon="1.96018">
        <ele>83.4</ele>
        <time>2022-05-25T14:39:56Z</time>
      </trkpt>
      <trkpt lat="49.9025" lon="1.96015">
        <ele>83.4</ele>
        <time>2022-05-25T14:39:58Z</time>
      </trkpt>
      <trkpt lat="49.9025" lon="1.96014">
        <ele>83.4</ele>
        <time>2022-05-25T14:39:59Z</time>
      </trkpt>
      <trkpt lat="49.90249" lon="1.96012">
        <ele>83.5</ele>
        <time>2022-05-25T14:40:00Z</time>
      </trkpt>
      <trkpt lat="49.90249" lon="1.9601">
        <ele>83.5</ele>
        <time>2022-05-25T14:40:01Z</time>
      </trkpt>
      <trkpt lat="49.90248" lon="1.96008">
        <ele>83.6</ele>
        <time>2022-05-25T14:40:02Z</time>
      </trkpt>
      <trkpt lat="49.90248" lon="1.96007">
        <ele>83.6</ele>
        <time>2022-05-25T14:40:04Z</time>
      </trkpt>
      <trkpt lat="49.90248" lon="1.96005">
        <ele>83.6</ele>
        <time>2022-05-25T14:40:05Z</time>
      </trkpt>
      <trkpt lat="49.90247" lon="1.96002">
        <ele>83.7</ele>
        <time>2022-05-25T14:40:06Z</time>
      </trkpt>
      <trkpt lat="49.90247" lon="1.96001">
        <ele>83.7</ele>
        <time>2022-05-25T14:40:07Z</time>
      </trkpt>
      <trkpt lat="49.90247" lon="1.96">
        <ele>83.7</ele>
        <time>2022-05-25T14:40:08Z</time>
      </trkpt>
      <trkpt lat="49.90246" lon="1.95999">
        <ele>83.8</ele>
        <time>2022-05-25T14:40:09Z</time>
      </trkpt>
      <trkpt lat="49.90246" lon="1.95997">
        <ele>83.8</ele>
        <time>2022-05-25T14:40:11Z</time>
      </trkpt>
      <trkpt lat="49.90245" lon="1.95996">
        <ele>83.8</ele>
        <time>2022-05-25T14:40:12Z</time>
      </trkpt>
      <trkpt lat="49.90244" lon="1.95994">
        <ele>83.9</ele>
        <time>2022-05-25T14:40:13Z</time>
      </trkpt>
      <trkpt lat="49.90244" lon="1.95993">
        <ele>83.9</ele>
        <time>2022-05-25T14:40:15Z</time>
      </trkpt>
      <trkpt lat="49.90244" lon="1.95991">
        <ele>83.9</ele>
        <time>2022-05-25T14:40:16Z</time>
      </trkpt>
      <trkpt lat="49.90244" lon="1.9599">
        <ele>84</ele>
        <time>2022-05-25T14:40:17Z</time>
      </trkpt>
      <trkpt lat="49.90243" lon="1.95988">
        <ele>84</ele>
        <time>2022-05-25T14:40:19Z</time>
      </trkpt>
      <trkpt lat="49.90242" lon="1.95988">
        <ele>84</ele>
        <time>2022-05-25T14:40:20Z</time>
      </trkpt>
      <trkpt lat="49.90242" lon="1.95988">
        <ele>84</ele>
        <time>2022-05-25T14:40:22Z</time>
      </trkpt>
      <trkpt lat="49.90242" lon="1.95988">
        <ele>84.1</ele>
        <time>2022-05-25T14:40:23Z</time>
      </trkpt>
      <trkpt lat="49.90241" lon="1.95988">
        <ele>84.1</ele>
        <time>2022-05-25T14:40:24Z</time>
      </trkpt>
      <trkpt lat="49.90241" lon="1.95988">
        <ele>84.1</ele>
        <time>2022-05-25T14:40:25Z</time>
      </trkpt>
      <trkpt lat="49.90241" lon="1.95988">
        <ele>84.1</ele>
        <time>2022-05-25T14:40:26Z</time>
      </trkpt>
      <trkpt lat="49.90241" lon="1.95988">
        <ele>84.1</ele>
        <time>2022-05-25T14:40:27Z</time>
      </trkpt>
      <trkpt lat="49.90242" lon="1.95988">
        <ele>84.1</ele>
        <time>2022-05-25T14:40:28Z</time>
      </trkpt>
      <trkpt lat="49.90242" lon="1.95989">
        <ele>84.1</ele>
        <time>2022-05-25T14:40:29Z</time>
      </trkpt>
      <trkpt lat="49.90242" lon="1.95989">
        <ele>84.1</ele>
        <time>2022-05-25T14:40:30Z</time>
      </trkpt>
      <trkpt lat="49.90242" lon="1.95988">
        <ele>84.1</ele>
        <time>2022-05-25T14:40:31Z</time>
      </trkpt>
      <trkpt lat="49.90242" lon="1.95988">
        <ele>84.1</ele>
        <time>2022-05-25T14:40:32Z</time>
      </trkpt>
      <trkpt lat="49.90242" lon="1.95988">
        <ele>84.1</ele>
        <time>2022-05-25T14:40:33Z</time>
      </trkpt>
      <trkpt lat="49.90242" lon="1.95988">
        <ele>84.1</ele>
        <time>2022-05-25T14:40:34Z</time>
      </trkpt>
      <trkpt lat="49.90242" lon="1.95988">
        <ele>84.1</ele>
        <time>2022-05-25T14:40:35Z</time>
      </trkpt>
      <trkpt lat="49.90242" lon="1.95988">
        <ele>84.1</ele>
        <time>2022-05-25T14:40:37Z</time>
      </trkpt>
      <trkpt lat="49.90242" lon="1.95989">
        <ele>84.1</ele>
        <time>2022-05-25T14:40:38Z</time>
      </trkpt>
      <trkpt lat="49.90242" lon="1.95989">
        <ele>84.1</ele>
        <time>2022-05-25T14:40:39Z</time>
      </trkpt>
      <trkpt lat="49.90242" lon="1.95989">
        <ele>84.1</ele>
        <time>2022-05-25T14:40:40Z</time>
      </trkpt>
      <trkpt lat="49.90242" lon="1.95989">
        <ele>84.1</ele>
        <time>2022-05-25T14:40:41Z</time>
      </trkpt>
      <trkpt lat="49.90242" lon="1.95989">
        <ele>84.1</ele>
        <time>2022-05-25T14:40:42Z</time>
      </trkpt>
      <trkpt lat="49.90242" lon="1.9599">
        <ele>84.1</ele>
        <time>2022-05-25T14:40:43Z</time>
      </trkpt>
      <trkpt lat="49.90242" lon="1.9599">
        <ele>84.1</ele>
        <time>2022-05-25T14:40:44Z</time>
      </trkpt>
      <trkpt lat="49.90242" lon="1.9599">
        <ele>84.1</ele>
        <time>2022-05-25T14:40:45Z</time>
      </trkpt>
      <trkpt lat="49.90242" lon="1.9599">
        <ele>84.1</ele>
        <time>2022-05-25T14:40:46Z</time>
      </trkpt>
      <trkpt lat="49.90242" lon="1.9599">
        <ele>84.1</ele>
        <time>2022-05-25T14:40:47Z</time>
      </trkpt>
      <trkpt lat="49.90242" lon="1.9599">
        <ele>84.1</ele>
        <time>2022-05-25T14:40:48Z</time>
      </trkpt>
      <trkpt lat="49.90242" lon="1.9599">
        <ele>84.1</ele>
        <time>2022-05-25T14:40:49Z</time>
      </trkpt>
      <trkpt lat="49.90242" lon="1.9599">
        <ele>84.1</ele>
        <time>2022-05-25T14:40:50Z</time>
      </trkpt>
      <trkpt lat="49.90242" lon="1.9599">
        <ele>84.1</ele>
        <time>2022-05-25T14:40:51Z</time>
      </trkpt>
      <trkpt lat="49.90242" lon="1.9599">
        <ele>84.1</ele>
        <time>2022-05-25T14:40:52Z</time>
      </trkpt>
      <trkpt lat="49.90242" lon="1.9599">
        <ele>84.1</ele>
        <time>2022-05-25T14:40:53Z</time>
      </trkpt>
      <trkpt lat="49.90242" lon="1.9599">
        <ele>84.1</ele>
        <time>2022-05-25T14:40:54Z</time>
      </trkpt>
      <trkpt lat="49.90242" lon="1.9599">
        <ele>84.1</ele>
        <time>2022-05-25T14:40:55Z</time>
      </trkpt>
      <trkpt lat="49.90242" lon="1.9599">
        <ele>84.1</ele>
        <time>2022-05-25T14:40:57Z</time>
      </trkpt>
      <trkpt lat="49.90242" lon="1.9599">
        <ele>84.2</ele>
        <time>2022-05-25T14:40:58Z</time>
      </trkpt>
      <trkpt lat="49.90243" lon="1.95991">
        <ele>84.2</ele>
        <time>2022-05-25T14:40:59Z</time>
      </trkpt>
      <trkpt lat="49.90243" lon="1.95991">
        <ele>84.2</ele>
        <time>2022-05-25T14:41:00Z</time>
      </trkpt>
      <trkpt lat="49.90243" lon="1.95992">
        <ele>84.2</ele>
        <time>2022-05-25T14:41:01Z</time>
      </trkpt>
      <trkpt lat="49.90244" lon="1.95992">
        <ele>84.2</ele>
        <time>2022-05-25T14:41:03Z</time>
      </trkpt>
      <trkpt lat="49.90244" lon="1.95993">
        <ele>84.2</ele>
        <time>2022-05-25T14:41:04Z</time>
      </trkpt>
      <trkpt lat="49.90244" lon="1.95993">
        <ele>84.2</ele>
        <time>2022-05-25T14:41:05Z</time>
      </trkpt>
      <trkpt lat="49.90244" lon="1.95994">
        <ele>84.3</ele>
        <time>2022-05-25T14:41:06Z</time>
      </trkpt>
      <trkpt lat="49.90243" lon="1.95994">
        <ele>84.3</ele>
        <time>2022-05-25T14:41:07Z</time>
      </trkpt>
      <trkpt lat="49.90243" lon="1.95993">
        <ele>84.3</ele>
        <time>2022-05-25T14:41:08Z</time>
      </trkpt>
      <trkpt lat="49.90242" lon="1.95992">
        <ele>84.3</ele>
        <time>2022-05-25T14:41:09Z</time>
      </trkpt>
      <trkpt lat="49.90242" lon="1.95992">
        <ele>84.4</ele>
        <time>2022-05-25T14:41:10Z</time>
      </trkpt>
      <trkpt lat="49.90242" lon="1.95993">
        <ele>84.4</ele>
        <time>2022-05-25T14:41:11Z</time>
      </trkpt>
      <trkpt lat="49.90242" lon="1.95993">
        <ele>84.4</ele>
        <time>2022-05-25T14:41:12Z</time>
      </trkpt>
      <trkpt lat="49.90241" lon="1.95994">
        <ele>84.4</ele>
        <time>2022-05-25T14:41:14Z</time>
      </trkpt>
      <trkpt lat="49.90241" lon="1.95994">
        <ele>84.4</ele>
        <time>2022-05-25T14:41:15Z</time>
      </trkpt>
      <trkpt lat="49.9024" lon="1.95995">
        <ele>84.5</ele>
        <time>2022-05-25T14:41:16Z</time>
      </trkpt>
      <trkpt lat="49.9024" lon="1.95996">
        <ele>84.5</ele>
        <time>2022-05-25T14:41:17Z</time>
      </trkpt>
      <trkpt lat="49.90239" lon="1.95996">
        <ele>84.5</ele>
        <time>2022-05-25T14:41:18Z</time>
      </trkpt>
      <trkpt lat="49.90239" lon="1.95995">
        <ele>84.5</ele>
        <time>2022-05-25T14:41:19Z</time>
      </trkpt>
      <trkpt lat="49.9024" lon="1.95994">
        <ele>84.6</ele>
        <time>2022-05-25T14:41:20Z</time>
      </trkpt>
      <trkpt lat="49.9024" lon="1.95994">
        <ele>84.6</ele>
        <time>2022-05-25T14:41:21Z</time>
      </trkpt>
      <trkpt lat="49.90241" lon="1.95993">
        <ele>84.6</ele>
        <time>2022-05-25T14:41:22Z</time>
      </trkpt>
      <trkpt lat="49.90241" lon="1.95993">
        <ele>84.6</ele>
        <time>2022-05-25T14:41:23Z</time>
      </trkpt>
      <trkpt lat="49.90241" lon="1.95993">
        <ele>84.6</ele>
        <time>2022-05-25T14:41:24Z</time>
      </trkpt>
      <trkpt lat="49.90242" lon="1.95993">
        <ele>84.6</ele>
        <time>2022-05-25T14:41:25Z</time>
      </trkpt>
      <trkpt lat="49.90242" lon="1.95993">
        <ele>84.6</ele>
        <time>2022-05-25T14:41:27Z</time>
      </trkpt>
      <trkpt lat="49.90242" lon="1.95993">
        <ele>84.7</ele>
        <time>2022-05-25T14:41:29Z</time>
      </trkpt>
      <trkpt lat="49.90242" lon="1.95993">
        <ele>84.7</ele>
        <time>2022-05-25T14:41:30Z</time>
      </trkpt>
      <trkpt lat="49.90241" lon="1.95993">
        <ele>84.7</ele>
        <time>2022-05-25T14:41:31Z</time>
      </trkpt>
      <trkpt lat="49.90241" lon="1.95993">
        <ele>84.7</ele>
        <time>2022-05-25T14:41:32Z</time>
      </trkpt>
      <trkpt lat="49.9024" lon="1.95993">
        <ele>84.7</ele>
        <time>2022-05-25T14:41:34Z</time>
      </trkpt>
      <trkpt lat="49.9024" lon="1.95993">
        <ele>84.7</ele>
        <time>2022-05-25T14:41:36Z</time>
      </trkpt>
      <trkpt lat="49.9024" lon="1.95993">
        <ele>84.7</ele>
        <time>2022-05-25T14:41:37Z</time>
      </trkpt>
      <trkpt lat="49.9024" lon="1.95993">
        <ele>84.7</ele>
        <time>2022-05-25T14:41:38Z</time>
      </trkpt>
      <trkpt lat="49.9024" lon="1.95993">
        <ele>84.8</ele>
        <time>2022-05-25T14:41:39Z</time>
      </trkpt>
      <trkpt lat="49.9024" lon="1.95992">
        <ele>84.8</ele>
        <time>2022-05-25T14:41:40Z</time>
      </trkpt>
      <trkpt lat="49.9024" lon="1.95991">
        <ele>84.8</ele>
        <time>2022-05-25T14:41:41Z</time>
      </trkpt>
      <trkpt lat="49.9024" lon="1.9599">
        <ele>84.8</ele>
        <time>2022-05-25T14:41:42Z</time>
      </trkpt>
      <trkpt lat="49.9024" lon="1.95988">
        <ele>84.9</ele>
        <time>2022-05-25T14:41:43Z</time>
      </trkpt>
      <trkpt lat="49.90239" lon="1.95986">
        <ele>84.9</ele>
        <time>2022-05-25T14:41:44Z</time>
      </trkpt>
      <trkpt lat="49.90239" lon="1.95981">
        <ele>85.1</ele>
        <time>2022-05-25T14:41:45Z</time>
      </trkpt>
      <trkpt lat="49.90238" lon="1.9598">
        <ele>85.1</ele>
        <time>2022-05-25T14:41:46Z</time>
      </trkpt>
      <trkpt lat="49.90238" lon="1.95975">
        <ele>85.2</ele>
        <time>2022-05-25T14:41:47Z</time>
      </trkpt>
      <trkpt lat="49.90238" lon="1.95973">
        <ele>85.3</ele>
        <time>2022-05-25T14:41:49Z</time>
      </trkpt>
      <trkpt lat="49.90237" lon="1.95971">
        <ele>85.3</ele>
        <time>2022-05-25T14:41:50Z</time>
      </trkpt>
      <trkpt lat="49.90237" lon="1.95969">
        <ele>85.3</ele>
        <time>2022-05-25T14:41:51Z</time>
      </trkpt>
      <trkpt lat="49.90236" lon="1.95965">
        <ele>85.3</ele>
        <time>2022-05-25T14:41:52Z</time>
      </trkpt>
      <trkpt lat="49.90236" lon="1.95964">
        <ele>85.4</ele>
        <time>2022-05-25T14:41:53Z</time>
      </trkpt>
      <trkpt lat="49.90236" lon="1.95963">
        <ele>85.4</ele>
        <time>2022-05-25T14:41:54Z</time>
      </trkpt>
      <trkpt lat="49.90235" lon="1.9596">
        <ele>85.4</ele>
        <time>2022-05-25T14:41:55Z</time>
      </trkpt>
      <trkpt lat="49.90234" lon="1.95959">
        <ele>85.4</ele>
        <time>2022-05-25T14:41:57Z</time>
      </trkpt>
      <trkpt lat="49.90234" lon="1.95958">
        <ele>85.4</ele>
        <time>2022-05-25T14:41:58Z</time>
      </trkpt>
      <trkpt lat="49.90233" lon="1.95956">
        <ele>85.4</ele>
        <time>2022-05-25T14:41:59Z</time>
      </trkpt>
      <trkpt lat="49.90233" lon="1.95956">
        <ele>85.4</ele>
        <time>2022-05-25T14:42:00Z</time>
      </trkpt>
      <trkpt lat="49.90232" lon="1.95955">
        <ele>85.4</ele>
        <time>2022-05-25T14:42:01Z</time>
      </trkpt>
      <trkpt lat="49.90231" lon="1.95953">
        <ele>85.4</ele>
        <time>2022-05-25T14:42:03Z</time>
      </trkpt>
      <trkpt lat="49.90231" lon="1.95952">
        <ele>85.4</ele>
        <time>2022-05-25T14:42:04Z</time>
      </trkpt>
      <trkpt lat="49.9023" lon="1.9595">
        <ele>85.4</ele>
        <time>2022-05-25T14:42:05Z</time>
      </trkpt>
      <trkpt lat="49.90229" lon="1.95946">
        <ele>85.5</ele>
        <time>2022-05-25T14:42:07Z</time>
      </trkpt>
      <trkpt lat="49.90229" lon="1.95945">
        <ele>85.5</ele>
        <time>2022-05-25T14:42:09Z</time>
      </trkpt>
      <trkpt lat="49.90228" lon="1.95943">
        <ele>85.5</ele>
        <time>2022-05-25T14:42:10Z</time>
      </trkpt>
      <trkpt lat="49.90228" lon="1.95942">
        <ele>85.5</ele>
        <time>2022-05-25T14:42:11Z</time>
      </trkpt>
      <trkpt lat="49.90228" lon="1.9594">
        <ele>85.5</ele>
        <time>2022-05-25T14:42:12Z</time>
      </trkpt>
      <trkpt lat="49.90227" lon="1.95938">
        <ele>85.5</ele>
        <time>2022-05-25T14:42:13Z</time>
      </trkpt>
      <trkpt lat="49.90227" lon="1.95935">
        <ele>85.5</ele>
        <time>2022-05-25T14:42:15Z</time>
      </trkpt>
      <trkpt lat="49.90227" lon="1.95933">
        <ele>85.6</ele>
        <time>2022-05-25T14:42:16Z</time>
      </trkpt>
      <trkpt lat="49.90227" lon="1.95931">
        <ele>85.6</ele>
        <time>2022-05-25T14:42:17Z</time>
      </trkpt>
      <trkpt lat="49.90226" lon="1.9593">
        <ele>85.6</ele>
        <time>2022-05-25T14:42:18Z</time>
      </trkpt>
      <trkpt lat="49.90226" lon="1.95928">
        <ele>85.6</ele>
        <time>2022-05-25T14:42:19Z</time>
      </trkpt>
      <trkpt lat="49.90225" lon="1.95926">
        <ele>85.6</ele>
        <time>2022-05-25T14:42:20Z</time>
      </trkpt>
      <trkpt lat="49.90225" lon="1.95925">
        <ele>85.6</ele>
        <time>2022-05-25T14:42:21Z</time>
      </trkpt>
      <trkpt lat="49.90224" lon="1.95923">
        <ele>85.6</ele>
        <time>2022-05-25T14:42:22Z</time>
      </trkpt>
      <trkpt lat="49.90224" lon="1.95922">
        <ele>85.6</ele>
        <time>2022-05-25T14:42:23Z</time>
      </trkpt>
      <trkpt lat="49.90224" lon="1.9592">
        <ele>85.7</ele>
        <time>2022-05-25T14:42:25Z</time>
      </trkpt>
      <trkpt lat="49.90223" lon="1.95918">
        <ele>85.7</ele>
        <time>2022-05-25T14:42:26Z</time>
      </trkpt>
      <trkpt lat="49.90222" lon="1.95915">
        <ele>85.7</ele>
        <time>2022-05-25T14:42:27Z</time>
      </trkpt>
      <trkpt lat="49.90222" lon="1.95913">
        <ele>85.7</ele>
        <time>2022-05-25T14:42:28Z</time>
      </trkpt>
      <trkpt lat="49.90222" lon="1.95912">
        <ele>85.7</ele>
        <time>2022-05-25T14:42:29Z</time>
      </trkpt>
      <trkpt lat="49.90221" lon="1.9591">
        <ele>85.7</ele>
        <time>2022-05-25T14:42:30Z</time>
      </trkpt>
      <trkpt lat="49.90221" lon="1.95908">
        <ele>85.8</ele>
        <time>2022-05-25T14:42:31Z</time>
      </trkpt>
      <trkpt lat="49.9022" lon="1.95907">
        <ele>85.8</ele>
        <time>2022-05-25T14:42:33Z</time>
      </trkpt>
      <trkpt lat="49.9022" lon="1.95905">
        <ele>85.8</ele>
        <time>2022-05-25T14:42:34Z</time>
      </trkpt>
      <trkpt lat="49.90219" lon="1.95903">
        <ele>85.8</ele>
        <time>2022-05-25T14:42:35Z</time>
      </trkpt>
      <trkpt lat="49.90219" lon="1.95902">
        <ele>85.9</ele>
        <time>2022-05-25T14:42:36Z</time>
      </trkpt>
      <trkpt lat="49.9022" lon="1.959">
        <ele>85.9</ele>
        <time>2022-05-25T14:42:38Z</time>
      </trkpt>
      <trkpt lat="49.9022" lon="1.95899">
        <ele>85.9</ele>
        <time>2022-05-25T14:42:39Z</time>
      </trkpt>
      <trkpt lat="49.9022" lon="1.95897">
        <ele>86</ele>
        <time>2022-05-25T14:42:40Z</time>
      </trkpt>
      <trkpt lat="49.9022" lon="1.95896">
        <ele>86</ele>
        <time>2022-05-25T14:42:41Z</time>
      </trkpt>
      <trkpt lat="49.9022" lon="1.95894">
        <ele>86</ele>
        <time>2022-05-25T14:42:42Z</time>
      </trkpt>
      <trkpt lat="49.9022" lon="1.95893">
        <ele>86.1</ele>
        <time>2022-05-25T14:42:43Z</time>
      </trkpt>
      <trkpt lat="49.9022" lon="1.95892">
        <ele>86.1</ele>
        <time>2022-05-25T14:42:44Z</time>
      </trkpt>
      <trkpt lat="49.9022" lon="1.95891">
        <ele>86.1</ele>
        <time>2022-05-25T14:42:45Z</time>
      </trkpt>
      <trkpt lat="49.90219" lon="1.9589">
        <ele>86.1</ele>
        <time>2022-05-25T14:42:46Z</time>
      </trkpt>
      <trkpt lat="49.90219" lon="1.9589">
        <ele>86.1</ele>
        <time>2022-05-25T14:42:48Z</time>
      </trkpt>
      <trkpt lat="49.90218" lon="1.95889">
        <ele>86.2</ele>
        <time>2022-05-25T14:42:49Z</time>
      </trkpt>
      <trkpt lat="49.90218" lon="1.95888">
        <ele>86.2</ele>
        <time>2022-05-25T14:42:50Z</time>
      </trkpt>
      <trkpt lat="49.90217" lon="1.95887">
        <ele>86.2</ele>
        <time>2022-05-25T14:42:51Z</time>
      </trkpt>
      <trkpt lat="49.90216" lon="1.95887">
        <ele>86.2</ele>
        <time>2022-05-25T14:42:52Z</time>
      </trkpt>
      <trkpt lat="49.90216" lon="1.95886">
        <ele>86.3</ele>
        <time>2022-05-25T14:42:54Z</time>
      </trkpt>
      <trkpt lat="49.90215" lon="1.95885">
        <ele>86.3</ele>
        <time>2022-05-25T14:42:55Z</time>
      </trkpt>
      <trkpt lat="49.90215" lon="1.95883">
        <ele>86.3</ele>
        <time>2022-05-25T14:42:56Z</time>
      </trkpt>
      <trkpt lat="49.90215" lon="1.95882">
        <ele>86.4</ele>
        <time>2022-05-25T14:42:57Z</time>
      </trkpt>
      <trkpt lat="49.90214" lon="1.9588">
        <ele>86.4</ele>
        <time>2022-05-25T14:42:58Z</time>
      </trkpt>
      <trkpt lat="49.90214" lon="1.95879">
        <ele>86.4</ele>
        <time>2022-05-25T14:43:00Z</time>
      </trkpt>
      <trkpt lat="49.90214" lon="1.95876">
        <ele>86.5</ele>
        <time>2022-05-25T14:43:01Z</time>
      </trkpt>
      <trkpt lat="49.90213" lon="1.95873">
        <ele>86.5</ele>
        <time>2022-05-25T14:43:03Z</time>
      </trkpt>
      <trkpt lat="49.90213" lon="1.95872">
        <ele>86.5</ele>
        <time>2022-05-25T14:43:05Z</time>
      </trkpt>
      <trkpt lat="49.90212" lon="1.9587">
        <ele>86.6</ele>
        <time>2022-05-25T14:43:06Z</time>
      </trkpt>
      <trkpt lat="49.90212" lon="1.95868">
        <ele>86.6</ele>
        <time>2022-05-25T14:43:07Z</time>
      </trkpt>
      <trkpt lat="49.90212" lon="1.95866">
        <ele>86.6</ele>
        <time>2022-05-25T14:43:08Z</time>
      </trkpt>
      <trkpt lat="49.90212" lon="1.95863">
        <ele>86.7</ele>
        <time>2022-05-25T14:43:09Z</time>
      </trkpt>
      <trkpt lat="49.90211" lon="1.95861">
        <ele>86.7</ele>
        <time>2022-05-25T14:43:11Z</time>
      </trkpt>
      <trkpt lat="49.90211" lon="1.95859">
        <ele>86.8</ele>
        <time>2022-05-25T14:43:14Z</time>
      </trkpt>
      <trkpt lat="49.90211" lon="1.95858">
        <ele>86.8</ele>
        <time>2022-05-25T14:43:15Z</time>
      </trkpt>
      <trkpt lat="49.9021" lon="1.95856">
        <ele>86.8</ele>
        <time>2022-05-25T14:43:16Z</time>
      </trkpt>
      <trkpt lat="49.9021" lon="1.95854">
        <ele>86.9</ele>
        <time>2022-05-25T14:43:17Z</time>
      </trkpt>
      <trkpt lat="49.90209" lon="1.9585">
        <ele>86.9</ele>
        <time>2022-05-25T14:43:18Z</time>
      </trkpt>
      <trkpt lat="49.90209" lon="1.95848">
        <ele>87</ele>
        <time>2022-05-25T14:43:20Z</time>
      </trkpt>
      <trkpt lat="49.90209" lon="1.95846">
        <ele>87</ele>
        <time>2022-05-25T14:43:21Z</time>
      </trkpt>
      <trkpt lat="49.90208" lon="1.95844">
        <ele>87</ele>
        <time>2022-05-25T14:43:22Z</time>
      </trkpt>
      <trkpt lat="49.90208" lon="1.95842">
        <ele>87.1</ele>
        <time>2022-05-25T14:43:23Z</time>
      </trkpt>
      <trkpt lat="49.90208" lon="1.9584">
        <ele>87.1</ele>
        <time>2022-05-25T14:43:25Z</time>
      </trkpt>
      <trkpt lat="49.90207" lon="1.95839">
        <ele>87.1</ele>
        <time>2022-05-25T14:43:26Z</time>
      </trkpt>
      <trkpt lat="49.90206" lon="1.95837">
        <ele>87.2</ele>
        <time>2022-05-25T14:43:27Z</time>
      </trkpt>
      <trkpt lat="49.90205" lon="1.95835">
        <ele>87.2</ele>
        <time>2022-05-25T14:43:28Z</time>
      </trkpt>
      <trkpt lat="49.90205" lon="1.95833">
        <ele>87.2</ele>
        <time>2022-05-25T14:43:29Z</time>
      </trkpt>
      <trkpt lat="49.90204" lon="1.95832">
        <ele>87.3</ele>
        <time>2022-05-25T14:43:30Z</time>
      </trkpt>
      <trkpt lat="49.90203" lon="1.9583">
        <ele>87.3</ele>
        <time>2022-05-25T14:43:32Z</time>
      </trkpt>
      <trkpt lat="49.90203" lon="1.95828">
        <ele>87.4</ele>
        <time>2022-05-25T14:43:34Z</time>
      </trkpt>
      <trkpt lat="49.90203" lon="1.95827">
        <ele>87.4</ele>
        <time>2022-05-25T14:43:35Z</time>
      </trkpt>
      <trkpt lat="49.90203" lon="1.95826">
        <ele>87.4</ele>
        <time>2022-05-25T14:43:36Z</time>
      </trkpt>
      <trkpt lat="49.90202" lon="1.95822">
        <ele>87.6</ele>
        <time>2022-05-25T14:43:37Z</time>
      </trkpt>
      <trkpt lat="49.90202" lon="1.9582">
        <ele>87.6</ele>
        <time>2022-05-25T14:43:39Z</time>
      </trkpt>
      <trkpt lat="49.90201" lon="1.95819">
        <ele>87.6</ele>
        <time>2022-05-25T14:43:40Z</time>
      </trkpt>
      <trkpt lat="49.90201" lon="1.95817">
        <ele>87.7</ele>
        <time>2022-05-25T14:43:42Z</time>
      </trkpt>
      <trkpt lat="49.90201" lon="1.95815">
        <ele>87.8</ele>
        <time>2022-05-25T14:43:43Z</time>
      </trkpt>
      <trkpt lat="49.902" lon="1.95814">
        <ele>87.8</ele>
        <time>2022-05-25T14:43:44Z</time>
      </trkpt>
      <trkpt lat="49.902" lon="1.95813">
        <ele>87.8</ele>
        <time>2022-05-25T14:43:45Z</time>
      </trkpt>
      <trkpt lat="49.902" lon="1.95811">
        <ele>87.9</ele>
        <time>2022-05-25T14:43:47Z</time>
      </trkpt>
      <trkpt lat="49.902" lon="1.9581">
        <ele>88</ele>
        <time>2022-05-25T14:43:48Z</time>
      </trkpt>
      <trkpt lat="49.902" lon="1.95808">
        <ele>88</ele>
        <time>2022-05-25T14:43:49Z</time>
      </trkpt>
      <trkpt lat="49.902" lon="1.95806">
        <ele>88.1</ele>
        <time>2022-05-25T14:43:50Z</time>
      </trkpt>
      <trkpt lat="49.90199" lon="1.95805">
        <ele>88.1</ele>
        <time>2022-05-25T14:43:51Z</time>
      </trkpt>
      <trkpt lat="49.90199" lon="1.95803">
        <ele>88.2</ele>
        <time>2022-05-25T14:43:52Z</time>
      </trkpt>
      <trkpt lat="49.90199" lon="1.95801">
        <ele>88.3</ele>
        <time>2022-05-25T14:43:53Z</time>
      </trkpt>
      <trkpt lat="49.90198" lon="1.95798">
        <ele>88.4</ele>
        <time>2022-05-25T14:43:55Z</time>
      </trkpt>
      <trkpt lat="49.90198" lon="1.95797">
        <ele>88.4</ele>
        <time>2022-05-25T14:43:57Z</time>
      </trkpt>
      <trkpt lat="49.90197" lon="1.95796">
        <ele>88.5</ele>
        <time>2022-05-25T14:43:58Z</time>
      </trkpt>
      <trkpt lat="49.90197" lon="1.95795">
        <ele>88.6</ele>
        <time>2022-05-25T14:43:59Z</time>
      </trkpt>
      <trkpt lat="49.90196" lon="1.95793">
        <ele>88.6</ele>
        <time>2022-05-25T14:44:01Z</time>
      </trkpt>
      <trkpt lat="49.90195" lon="1.95791">
        <ele>88.7</ele>
        <time>2022-05-25T14:44:02Z</time>
      </trkpt>
      <trkpt lat="49.90195" lon="1.95789">
        <ele>88.8</ele>
        <time>2022-05-25T14:44:03Z</time>
      </trkpt>
      <trkpt lat="49.90194" lon="1.95788">
        <ele>88.9</ele>
        <time>2022-05-25T14:44:05Z</time>
      </trkpt>
      <trkpt lat="49.90194" lon="1.95787">
        <ele>88.9</ele>
        <time>2022-05-25T14:44:06Z</time>
      </trkpt>
      <trkpt lat="49.90194" lon="1.95785">
        <ele>89</ele>
        <time>2022-05-25T14:44:07Z</time>
      </trkpt>
      <trkpt lat="49.90193" lon="1.95781">
        <ele>89.1</ele>
        <time>2022-05-25T14:44:09Z</time>
      </trkpt>
      <trkpt lat="49.90193" lon="1.9578">
        <ele>89.2</ele>
        <time>2022-05-25T14:44:11Z</time>
      </trkpt>
      <trkpt lat="49.90192" lon="1.95778">
        <ele>89.3</ele>
        <time>2022-05-25T14:44:12Z</time>
      </trkpt>
      <trkpt lat="49.90191" lon="1.95774">
        <ele>89.5</ele>
        <time>2022-05-25T14:44:13Z</time>
      </trkpt>
      <trkpt lat="49.90191" lon="1.95773">
        <ele>89.5</ele>
        <time>2022-05-25T14:44:15Z</time>
      </trkpt>
      <trkpt lat="49.9019" lon="1.95772">
        <ele>89.6</ele>
        <time>2022-05-25T14:44:16Z</time>
      </trkpt>
      <trkpt lat="49.9019" lon="1.9577">
        <ele>89.6</ele>
        <time>2022-05-25T14:44:17Z</time>
      </trkpt>
      <trkpt lat="49.90189" lon="1.95769">
        <ele>89.7</ele>
        <time>2022-05-25T14:44:18Z</time>
      </trkpt>
      <trkpt lat="49.90189" lon="1.95768">
        <ele>89.7</ele>
        <time>2022-05-25T14:44:20Z</time>
      </trkpt>
      <trkpt lat="49.90188" lon="1.95765">
        <ele>89.9</ele>
        <time>2022-05-25T14:44:21Z</time>
      </trkpt>
      <trkpt lat="49.90187" lon="1.95764">
        <ele>89.9</ele>
        <time>2022-05-25T14:44:23Z</time>
      </trkpt>
      <trkpt lat="49.90186" lon="1.95762">
        <ele>90</ele>
        <time>2022-05-25T14:44:24Z</time>
      </trkpt>
      <trkpt lat="49.90185" lon="1.95761">
        <ele>90.1</ele>
        <time>2022-05-25T14:44:25Z</time>
      </trkpt>
      <trkpt lat="49.90184" lon="1.9576">
        <ele>90.2</ele>
        <time>2022-05-25T14:44:26Z</time>
      </trkpt>
      <trkpt lat="49.90183" lon="1.95759">
        <ele>90.2</ele>
        <time>2022-05-25T14:44:28Z</time>
      </trkpt>
      <trkpt lat="49.90181" lon="1.95756">
        <ele>90.4</ele>
        <time>2022-05-25T14:44:29Z</time>
      </trkpt>
      <trkpt lat="49.9018" lon="1.95755">
        <ele>90.5</ele>
        <time>2022-05-25T14:44:31Z</time>
      </trkpt>
      <trkpt lat="49.90179" lon="1.95753">
        <ele>90.6</ele>
        <time>2022-05-25T14:44:32Z</time>
      </trkpt>
      <trkpt lat="49.90177" lon="1.95751">
        <ele>90.7</ele>
        <time>2022-05-25T14:44:34Z</time>
      </trkpt>
      <trkpt lat="49.90177" lon="1.9575">
        <ele>90.8</ele>
        <time>2022-05-25T14:44:35Z</time>
      </trkpt>
      <trkpt lat="49.90176" lon="1.95749">
        <ele>90.8</ele>
        <time>2022-05-25T14:44:36Z</time>
      </trkpt>
      <trkpt lat="49.90174" lon="1.95748">
        <ele>90.9</ele>
        <time>2022-05-25T14:44:37Z</time>
      </trkpt>
      <trkpt lat="49.90173" lon="1.95746">
        <ele>91.1</ele>
        <time>2022-05-25T14:44:38Z</time>
      </trkpt>
      <trkpt lat="49.90172" lon="1.95745">
        <ele>91.2</ele>
        <time>2022-05-25T14:44:39Z</time>
      </trkpt>
      <trkpt lat="49.90171" lon="1.95744">
        <ele>91.2</ele>
        <time>2022-05-25T14:44:40Z</time>
      </trkpt>
      <trkpt lat="49.90169" lon="1.95742">
        <ele>91.4</ele>
        <time>2022-05-25T14:44:42Z</time>
      </trkpt>
      <trkpt lat="49.90168" lon="1.95741">
        <ele>91.5</ele>
        <time>2022-05-25T14:44:43Z</time>
      </trkpt>
      <trkpt lat="49.90167" lon="1.95741">
        <ele>91.5</ele>
        <time>2022-05-25T14:44:45Z</time>
      </trkpt>
      <trkpt lat="49.90165" lon="1.95739">
        <ele>91.7</ele>
        <time>2022-05-25T14:44:46Z</time>
      </trkpt>
      <trkpt lat="49.90163" lon="1.95738">
        <ele>91.9</ele>
        <time>2022-05-25T14:44:48Z</time>
      </trkpt>
      <trkpt lat="49.90162" lon="1.95737">
        <ele>91.9</ele>
        <time>2022-05-25T14:44:49Z</time>
      </trkpt>
      <trkpt lat="49.90161" lon="1.95736">
        <ele>92</ele>
        <time>2022-05-25T14:44:50Z</time>
      </trkpt>
      <trkpt lat="49.9016" lon="1.95736">
        <ele>92.1</ele>
        <time>2022-05-25T14:44:51Z</time>
      </trkpt>
      <trkpt lat="49.90159" lon="1.95735">
        <ele>92.2</ele>
        <time>2022-05-25T14:44:52Z</time>
      </trkpt>
      <trkpt lat="49.90157" lon="1.95733">
        <ele>92.3</ele>
        <time>2022-05-25T14:44:54Z</time>
      </trkpt>
      <trkpt lat="49.90156" lon="1.95733">
        <ele>92.4</ele>
        <time>2022-05-25T14:44:55Z</time>
      </trkpt>
      <trkpt lat="49.90156" lon="1.95732">
        <ele>92.4</ele>
        <time>2022-05-25T14:44:56Z</time>
      </trkpt>
      <trkpt lat="49.90154" lon="1.95731">
        <ele>92.5</ele>
        <time>2022-05-25T14:44:58Z</time>
      </trkpt>
      <trkpt lat="49.90153" lon="1.9573">
        <ele>92.6</ele>
        <time>2022-05-25T14:44:59Z</time>
      </trkpt>
      <trkpt lat="49.90152" lon="1.9573">
        <ele>92.6</ele>
        <time>2022-05-25T14:45:00Z</time>
      </trkpt>
      <trkpt lat="49.90152" lon="1.95729">
        <ele>92.7</ele>
        <time>2022-05-25T14:45:01Z</time>
      </trkpt>
      <trkpt lat="49.90151" lon="1.95728">
        <ele>92.7</ele>
        <time>2022-05-25T14:45:02Z</time>
      </trkpt>
      <trkpt lat="49.9015" lon="1.95727">
        <ele>92.8</ele>
        <time>2022-05-25T14:45:04Z</time>
      </trkpt>
      <trkpt lat="49.90149" lon="1.95726">
        <ele>92.8</ele>
        <time>2022-05-25T14:45:05Z</time>
      </trkpt>
      <trkpt lat="49.90148" lon="1.95725">
        <ele>92.9</ele>
        <time>2022-05-25T14:45:07Z</time>
      </trkpt>
      <trkpt lat="49.90147" lon="1.95723">
        <ele>93</ele>
        <time>2022-05-25T14:45:08Z</time>
      </trkpt>
      <trkpt lat="49.90146" lon="1.95722">
        <ele>93</ele>
        <time>2022-05-25T14:45:10Z</time>
      </trkpt>
      <trkpt lat="49.90146" lon="1.95721">
        <ele>93.1</ele>
        <time>2022-05-25T14:45:11Z</time>
      </trkpt>
      <trkpt lat="49.90146" lon="1.9572">
        <ele>93.1</ele>
        <time>2022-05-25T14:45:12Z</time>
      </trkpt>
      <trkpt lat="49.90145" lon="1.95718">
        <ele>93.2</ele>
        <time>2022-05-25T14:45:13Z</time>
      </trkpt>
      <trkpt lat="49.90145" lon="1.95717">
        <ele>93.2</ele>
        <time>2022-05-25T14:45:15Z</time>
      </trkpt>
      <trkpt lat="49.90145" lon="1.95715">
        <ele>93.3</ele>
        <time>2022-05-25T14:45:16Z</time>
      </trkpt>
      <trkpt lat="49.90145" lon="1.95713">
        <ele>93.3</ele>
        <time>2022-05-25T14:45:17Z</time>
      </trkpt>
      <trkpt lat="49.90144" lon="1.9571">
        <ele>93.4</ele>
        <time>2022-05-25T14:45:18Z</time>
      </trkpt>
      <trkpt lat="49.90144" lon="1.95709">
        <ele>93.5</ele>
        <time>2022-05-25T14:45:19Z</time>
      </trkpt>
      <trkpt lat="49.90144" lon="1.95708">
        <ele>93.5</ele>
        <time>2022-05-25T14:45:21Z</time>
      </trkpt>
      <trkpt lat="49.90144" lon="1.95706">
        <ele>93.6</ele>
        <time>2022-05-25T14:45:22Z</time>
      </trkpt>
      <trkpt lat="49.90143" lon="1.95703">
        <ele>93.6</ele>
        <time>2022-05-25T14:45:23Z</time>
      </trkpt>
      <trkpt lat="49.90143" lon="1.95702">
        <ele>93.7</ele>
        <time>2022-05-25T14:45:24Z</time>
      </trkpt>
      <trkpt lat="49.90143" lon="1.95701">
        <ele>93.7</ele>
        <time>2022-05-25T14:45:25Z</time>
      </trkpt>
      <trkpt lat="49.90142" lon="1.95698">
        <ele>93.8</ele>
        <time>2022-05-25T14:45:27Z</time>
      </trkpt>
      <trkpt lat="49.90142" lon="1.95696">
        <ele>93.9</ele>
        <time>2022-05-25T14:45:29Z</time>
      </trkpt>
      <trkpt lat="49.90141" lon="1.95694">
        <ele>93.9</ele>
        <time>2022-05-25T14:45:30Z</time>
      </trkpt>
      <trkpt lat="49.90141" lon="1.95693">
        <ele>93.9</ele>
        <time>2022-05-25T14:45:31Z</time>
      </trkpt>
      <trkpt lat="49.90141" lon="1.95691">
        <ele>94</ele>
        <time>2022-05-25T14:45:32Z</time>
      </trkpt>
      <trkpt lat="49.9014" lon="1.95688">
        <ele>94.1</ele>
        <time>2022-05-25T14:45:33Z</time>
      </trkpt>
      <trkpt lat="49.9014" lon="1.95688">
        <ele>94.1</ele>
        <time>2022-05-25T14:45:35Z</time>
      </trkpt>
      <trkpt lat="49.90139" lon="1.95686">
        <ele>94.1</ele>
        <time>2022-05-25T14:45:36Z</time>
      </trkpt>
      <trkpt lat="49.90139" lon="1.95685">
        <ele>94.1</ele>
        <time>2022-05-25T14:45:37Z</time>
      </trkpt>
      <trkpt lat="49.90138" lon="1.95682">
        <ele>94.2</ele>
        <time>2022-05-25T14:45:38Z</time>
      </trkpt>
      <trkpt lat="49.90137" lon="1.95679">
        <ele>94.2</ele>
        <time>2022-05-25T14:45:39Z</time>
      </trkpt>
      <trkpt lat="49.90137" lon="1.95678">
        <ele>94.3</ele>
        <time>2022-05-25T14:45:40Z</time>
      </trkpt>
      <trkpt lat="49.90136" lon="1.95677">
        <ele>94.3</ele>
        <time>2022-05-25T14:45:42Z</time>
      </trkpt>
      <trkpt lat="49.90136" lon="1.95675">
        <ele>94.3</ele>
        <time>2022-05-25T14:45:43Z</time>
      </trkpt>
      <trkpt lat="49.90135" lon="1.95674">
        <ele>94.4</ele>
        <time>2022-05-25T14:45:44Z</time>
      </trkpt>
      <trkpt lat="49.90135" lon="1.95673">
        <ele>94.4</ele>
        <time>2022-05-25T14:45:45Z</time>
      </trkpt>
      <trkpt lat="49.90134" lon="1.95671">
        <ele>94.4</ele>
        <time>2022-05-25T14:45:46Z</time>
      </trkpt>
      <trkpt lat="49.90133" lon="1.95669">
        <ele>94.5</ele>
        <time>2022-05-25T14:45:47Z</time>
      </trkpt>
      <trkpt lat="49.90131" lon="1.95666">
        <ele>94.6</ele>
        <time>2022-05-25T14:45:48Z</time>
      </trkpt>
      <trkpt lat="49.90131" lon="1.95665">
        <ele>94.6</ele>
        <time>2022-05-25T14:45:50Z</time>
      </trkpt>
      <trkpt lat="49.9013" lon="1.95663">
        <ele>94.6</ele>
        <time>2022-05-25T14:45:51Z</time>
      </trkpt>
      <trkpt lat="49.90129" lon="1.95662">
        <ele>94.7</ele>
        <time>2022-05-25T14:45:52Z</time>
      </trkpt>
      <trkpt lat="49.90129" lon="1.95661">
        <ele>94.7</ele>
        <time>2022-05-25T14:45:53Z</time>
      </trkpt>
      <trkpt lat="49.90128" lon="1.95659">
        <ele>94.7</ele>
        <time>2022-05-25T14:45:54Z</time>
      </trkpt>
      <trkpt lat="49.90127" lon="1.95657">
        <ele>94.8</ele>
        <time>2022-05-25T14:45:55Z</time>
      </trkpt>
      <trkpt lat="49.90126" lon="1.95655">
        <ele>94.8</ele>
        <time>2022-05-25T14:45:57Z</time>
      </trkpt>
      <trkpt lat="49.90125" lon="1.95653">
        <ele>94.9</ele>
        <time>2022-05-25T14:45:58Z</time>
      </trkpt>
      <trkpt lat="49.90124" lon="1.95651">
        <ele>95</ele>
        <time>2022-05-25T14:45:59Z</time>
      </trkpt>
      <trkpt lat="49.90123" lon="1.95649">
        <ele>95</ele>
        <time>2022-05-25T14:46:00Z</time>
      </trkpt>
      <trkpt lat="49.90122" lon="1.95648">
        <ele>95.1</ele>
        <time>2022-05-25T14:46:01Z</time>
      </trkpt>
      <trkpt lat="49.90121" lon="1.95646">
        <ele>95.1</ele>
        <time>2022-05-25T14:46:02Z</time>
      </trkpt>
      <trkpt lat="49.9012" lon="1.95643">
        <ele>95.2</ele>
        <time>2022-05-25T14:46:03Z</time>
      </trkpt>
      <trkpt lat="49.90119" lon="1.95642">
        <ele>95.2</ele>
        <time>2022-05-25T14:46:05Z</time>
      </trkpt>
      <trkpt lat="49.90119" lon="1.95642">
        <ele>95.2</ele>
        <time>2022-05-25T14:46:06Z</time>
      </trkpt>
      <trkpt lat="49.90119" lon="1.95641">
        <ele>95.2</ele>
        <time>2022-05-25T14:46:07Z</time>
      </trkpt>
      <trkpt lat="49.90118" lon="1.95639">
        <ele>95.3</ele>
        <time>2022-05-25T14:46:08Z</time>
      </trkpt>
      <trkpt lat="49.90117" lon="1.95637">
        <ele>95.3</ele>
        <time>2022-05-25T14:46:09Z</time>
      </trkpt>
      <trkpt lat="49.90116" lon="1.95636">
        <ele>95.3</ele>
        <time>2022-05-25T14:46:10Z</time>
      </trkpt>
      <trkpt lat="49.90115" lon="1.95632">
        <ele>95.4</ele>
        <time>2022-05-25T14:46:12Z</time>
      </trkpt>
      <trkpt lat="49.90115" lon="1.95631">
        <ele>95.4</ele>
        <time>2022-05-25T14:46:14Z</time>
      </trkpt>
      <trkpt lat="49.90115" lon="1.9563">
        <ele>95.4</ele>
        <time>2022-05-25T14:46:15Z</time>
      </trkpt>
      <trkpt lat="49.90114" lon="1.95627">
        <ele>95.4</ele>
        <time>2022-05-25T14:46:16Z</time>
      </trkpt>
      <trkpt lat="49.90114" lon="1.95625">
        <ele>95.4</ele>
        <time>2022-05-25T14:46:18Z</time>
      </trkpt>
      <trkpt lat="49.90113" lon="1.95624">
        <ele>95.4</ele>
        <time>2022-05-25T14:46:19Z</time>
      </trkpt>
      <trkpt lat="49.90113" lon="1.95622">
        <ele>95.4</ele>
        <time>2022-05-25T14:46:20Z</time>
      </trkpt>
      <trkpt lat="49.90113" lon="1.95619">
        <ele>95.4</ele>
        <time>2022-05-25T14:46:21Z</time>
      </trkpt>
      <trkpt lat="49.90113" lon="1.95617">
        <ele>95.4</ele>
        <time>2022-05-25T14:46:22Z</time>
      </trkpt>
      <trkpt lat="49.90112" lon="1.95616">
        <ele>95.4</ele>
        <time>2022-05-25T14:46:23Z</time>
      </trkpt>
      <trkpt lat="49.90112" lon="1.95614">
        <ele>95.4</ele>
        <time>2022-05-25T14:46:25Z</time>
      </trkpt>
      <trkpt lat="49.90111" lon="1.95612">
        <ele>95.3</ele>
        <time>2022-05-25T14:46:26Z</time>
      </trkpt>
      <trkpt lat="49.90111" lon="1.95611">
        <ele>95.3</ele>
        <time>2022-05-25T14:46:27Z</time>
      </trkpt>
      <trkpt lat="49.9011" lon="1.95609">
        <ele>95.3</ele>
        <time>2022-05-25T14:46:29Z</time>
      </trkpt>
      <trkpt lat="49.9011" lon="1.95608">
        <ele>95.3</ele>
        <time>2022-05-25T14:46:31Z</time>
      </trkpt>
      <trkpt lat="49.90109" lon="1.95605">
        <ele>95.2</ele>
        <time>2022-05-25T14:46:32Z</time>
      </trkpt>
      <trkpt lat="49.90108" lon="1.95602">
        <ele>95.2</ele>
        <time>2022-05-25T14:46:33Z</time>
      </trkpt>
      <trkpt lat="49.90108" lon="1.95601">
        <ele>95.1</ele>
        <time>2022-05-25T14:46:35Z</time>
      </trkpt>
      <trkpt lat="49.90107" lon="1.95599">
        <ele>95.1</ele>
        <time>2022-05-25T14:46:37Z</time>
      </trkpt>
      <trkpt lat="49.90107" lon="1.95598">
        <ele>95.1</ele>
        <time>2022-05-25T14:46:38Z</time>
      </trkpt>
      <trkpt lat="49.90106" lon="1.95596">
        <ele>95</ele>
        <time>2022-05-25T14:46:39Z</time>
      </trkpt>
      <trkpt lat="49.90106" lon="1.95594">
        <ele>95</ele>
        <time>2022-05-25T14:46:40Z</time>
      </trkpt>
      <trkpt lat="49.90105" lon="1.95591">
        <ele>94.9</ele>
        <time>2022-05-25T14:46:41Z</time>
      </trkpt>
      <trkpt lat="49.90105" lon="1.9559">
        <ele>94.9</ele>
        <time>2022-05-25T14:46:42Z</time>
      </trkpt>
      <trkpt lat="49.90105" lon="1.95588">
        <ele>94.8</ele>
        <time>2022-05-25T14:46:43Z</time>
      </trkpt>
      <trkpt lat="49.90105" lon="1.95587">
        <ele>94.8</ele>
        <time>2022-05-25T14:46:45Z</time>
      </trkpt>
      <trkpt lat="49.90105" lon="1.95584">
        <ele>94.7</ele>
        <time>2022-05-25T14:46:46Z</time>
      </trkpt>
      <trkpt lat="49.90104" lon="1.95583">
        <ele>94.7</ele>
        <time>2022-05-25T14:46:47Z</time>
      </trkpt>
      <trkpt lat="49.90104" lon="1.95582">
        <ele>94.6</ele>
        <time>2022-05-25T14:46:48Z</time>
      </trkpt>
      <trkpt lat="49.90104" lon="1.95579">
        <ele>94.5</ele>
        <time>2022-05-25T14:46:49Z</time>
      </trkpt>
      <trkpt lat="49.90104" lon="1.95577">
        <ele>94.5</ele>
        <time>2022-05-25T14:46:50Z</time>
      </trkpt>
      <trkpt lat="49.90104" lon="1.95576">
        <ele>94.4</ele>
        <time>2022-05-25T14:46:51Z</time>
      </trkpt>
      <trkpt lat="49.90104" lon="1.95574">
        <ele>94.4</ele>
        <time>2022-05-25T14:46:52Z</time>
      </trkpt>
      <trkpt lat="49.90104" lon="1.95572">
        <ele>94.3</ele>
        <time>2022-05-25T14:46:54Z</time>
      </trkpt>
      <trkpt lat="49.90104" lon="1.9557">
        <ele>94.3</ele>
        <time>2022-05-25T14:46:55Z</time>
      </trkpt>
      <trkpt lat="49.90104" lon="1.95566">
        <ele>94.1</ele>
        <time>2022-05-25T14:46:56Z</time>
      </trkpt>
      <trkpt lat="49.90104" lon="1.95565">
        <ele>94.1</ele>
        <time>2022-05-25T14:46:57Z</time>
      </trkpt>
      <trkpt lat="49.90104" lon="1.95563">
        <ele>94</ele>
        <time>2022-05-25T14:46:59Z</time>
      </trkpt>
      <trkpt lat="49.90104" lon="1.95561">
        <ele>94</ele>
        <time>2022-05-25T14:47:00Z</time>
      </trkpt>
      <trkpt lat="49.90104" lon="1.95559">
        <ele>93.9</ele>
        <time>2022-05-25T14:47:01Z</time>
      </trkpt>
      <trkpt lat="49.90104" lon="1.95556">
        <ele>93.8</ele>
        <time>2022-05-25T14:47:02Z</time>
      </trkpt>
      <trkpt lat="49.90104" lon="1.95555">
        <ele>93.8</ele>
        <time>2022-05-25T14:47:03Z</time>
      </trkpt>
      <trkpt lat="49.90104" lon="1.95553">
        <ele>93.7</ele>
        <time>2022-05-25T14:47:04Z</time>
      </trkpt>
      <trkpt lat="49.90104" lon="1.95552">
        <ele>93.7</ele>
        <time>2022-05-25T14:47:05Z</time>
      </trkpt>
      <trkpt lat="49.90104" lon="1.9555">
        <ele>93.7</ele>
        <time>2022-05-25T14:47:06Z</time>
      </trkpt>
      <trkpt lat="49.90104" lon="1.95548">
        <ele>93.6</ele>
        <time>2022-05-25T14:47:07Z</time>
      </trkpt>
      <trkpt lat="49.90104" lon="1.95545">
        <ele>93.5</ele>
        <time>2022-05-25T14:47:09Z</time>
      </trkpt>
      <trkpt lat="49.90104" lon="1.95543">
        <ele>93.5</ele>
        <time>2022-05-25T14:47:11Z</time>
      </trkpt>
      <trkpt lat="49.90104" lon="1.95541">
        <ele>93.4</ele>
        <time>2022-05-25T14:47:12Z</time>
      </trkpt>
      <trkpt lat="49.90104" lon="1.95539">
        <ele>93.4</ele>
        <time>2022-05-25T14:47:13Z</time>
      </trkpt>
      <trkpt lat="49.90105" lon="1.95537">
        <ele>93.3</ele>
        <time>2022-05-25T14:47:14Z</time>
      </trkpt>
      <trkpt lat="49.90105" lon="1.95535">
        <ele>93.3</ele>
        <time>2022-05-25T14:47:15Z</time>
      </trkpt>
      <trkpt lat="49.90105" lon="1.95533">
        <ele>93.3</ele>
        <time>2022-05-25T14:47:16Z</time>
      </trkpt>
      <trkpt lat="49.90106" lon="1.9553">
        <ele>93.2</ele>
        <time>2022-05-25T14:47:17Z</time>
      </trkpt>
      <trkpt lat="49.90106" lon="1.95529">
        <ele>93.2</ele>
        <time>2022-05-25T14:47:18Z</time>
      </trkpt>
      <trkpt lat="49.90106" lon="1.95528">
        <ele>93.2</ele>
        <time>2022-05-25T14:47:19Z</time>
      </trkpt>
      <trkpt lat="49.90106" lon="1.95526">
        <ele>93.2</ele>
        <time>2022-05-25T14:47:21Z</time>
      </trkpt>
      <trkpt lat="49.90106" lon="1.95523">
        <ele>93.2</ele>
        <time>2022-05-25T14:47:22Z</time>
      </trkpt>
      <trkpt lat="49.90106" lon="1.95521">
        <ele>93.1</ele>
        <time>2022-05-25T14:47:23Z</time>
      </trkpt>
      <trkpt lat="49.90107" lon="1.9552">
        <ele>93.1</ele>
        <time>2022-05-25T14:47:24Z</time>
      </trkpt>
      <trkpt lat="49.90107" lon="1.95518">
        <ele>93.1</ele>
        <time>2022-05-25T14:47:25Z</time>
      </trkpt>
      <trkpt lat="49.90106" lon="1.95518">
        <ele>93.1</ele>
        <time>2022-05-25T14:47:26Z</time>
      </trkpt>
      <trkpt lat="49.90107" lon="1.95517">
        <ele>93.1</ele>
        <time>2022-05-25T14:47:27Z</time>
      </trkpt>
      <trkpt lat="49.90107" lon="1.95515">
        <ele>93.1</ele>
        <time>2022-05-25T14:47:28Z</time>
      </trkpt>
      <trkpt lat="49.90107" lon="1.95514">
        <ele>93.1</ele>
        <time>2022-05-25T14:47:30Z</time>
      </trkpt>
      <trkpt lat="49.90107" lon="1.95512">
        <ele>93.1</ele>
        <time>2022-05-25T14:47:31Z</time>
      </trkpt>
      <trkpt lat="49.90107" lon="1.95509">
        <ele>93.1</ele>
        <time>2022-05-25T14:47:32Z</time>
      </trkpt>
      <trkpt lat="49.90107" lon="1.95507">
        <ele>93.1</ele>
        <time>2022-05-25T14:47:33Z</time>
      </trkpt>
      <trkpt lat="49.90106" lon="1.95506">
        <ele>93.1</ele>
        <time>2022-05-25T14:47:34Z</time>
      </trkpt>
      <trkpt lat="49.90106" lon="1.95504">
        <ele>93.1</ele>
        <time>2022-05-25T14:47:35Z</time>
      </trkpt>
      <trkpt lat="49.90106" lon="1.95503">
        <ele>93.1</ele>
        <time>2022-05-25T14:47:36Z</time>
      </trkpt>
      <trkpt lat="49.90106" lon="1.955">
        <ele>93.1</ele>
        <time>2022-05-25T14:47:38Z</time>
      </trkpt>
      <trkpt lat="49.90106" lon="1.95499">
        <ele>93.1</ele>
        <time>2022-05-25T14:47:39Z</time>
      </trkpt>
      <trkpt lat="49.90106" lon="1.95496">
        <ele>93.1</ele>
        <time>2022-05-25T14:47:40Z</time>
      </trkpt>
      <trkpt lat="49.90106" lon="1.95494">
        <ele>93.1</ele>
        <time>2022-05-25T14:47:41Z</time>
      </trkpt>
      <trkpt lat="49.90105" lon="1.95493">
        <ele>93.1</ele>
        <time>2022-05-25T14:47:42Z</time>
      </trkpt>
      <trkpt lat="49.90105" lon="1.95492">
        <ele>93.1</ele>
        <time>2022-05-25T14:47:43Z</time>
      </trkpt>
      <trkpt lat="49.90105" lon="1.9549">
        <ele>93.1</ele>
        <time>2022-05-25T14:47:44Z</time>
      </trkpt>
      <trkpt lat="49.90104" lon="1.95488">
        <ele>93.1</ele>
        <time>2022-05-25T14:47:45Z</time>
      </trkpt>
      <trkpt lat="49.90103" lon="1.95486">
        <ele>93.1</ele>
        <time>2022-05-25T14:47:47Z</time>
      </trkpt>
      <trkpt lat="49.90103" lon="1.95484">
        <ele>93.1</ele>
        <time>2022-05-25T14:47:48Z</time>
      </trkpt>
      <trkpt lat="49.90103" lon="1.95483">
        <ele>93.1</ele>
        <time>2022-05-25T14:47:49Z</time>
      </trkpt>
      <trkpt lat="49.90102" lon="1.9548">
        <ele>93.2</ele>
        <time>2022-05-25T14:47:50Z</time>
      </trkpt>
      <trkpt lat="49.90102" lon="1.95478">
        <ele>93.2</ele>
        <time>2022-05-25T14:47:51Z</time>
      </trkpt>
      <trkpt lat="49.90101" lon="1.95477">
        <ele>93.2</ele>
        <time>2022-05-25T14:47:52Z</time>
      </trkpt>
      <trkpt lat="49.90101" lon="1.95476">
        <ele>93.2</ele>
        <time>2022-05-25T14:47:53Z</time>
      </trkpt>
      <trkpt lat="49.90101" lon="1.95474">
        <ele>93.2</ele>
        <time>2022-05-25T14:47:54Z</time>
      </trkpt>
      <trkpt lat="49.90101" lon="1.95472">
        <ele>93.2</ele>
        <time>2022-05-25T14:47:56Z</time>
      </trkpt>
      <trkpt lat="49.90101" lon="1.9547">
        <ele>93.2</ele>
        <time>2022-05-25T14:47:57Z</time>
      </trkpt>
      <trkpt lat="49.90101" lon="1.95468">
        <ele>93.2</ele>
        <time>2022-05-25T14:47:58Z</time>
      </trkpt>
      <trkpt lat="49.90101" lon="1.95466">
        <ele>93.2</ele>
        <time>2022-05-25T14:47:59Z</time>
      </trkpt>
      <trkpt lat="49.90101" lon="1.95464">
        <ele>93.2</ele>
        <time>2022-05-25T14:48:00Z</time>
      </trkpt>
      <trkpt lat="49.90101" lon="1.95463">
        <ele>93.2</ele>
        <time>2022-05-25T14:48:01Z</time>
      </trkpt>
      <trkpt lat="49.901" lon="1.9546">
        <ele>93.2</ele>
        <time>2022-05-25T14:48:02Z</time>
      </trkpt>
      <trkpt lat="49.901" lon="1.95459">
        <ele>93.1</ele>
        <time>2022-05-25T14:48:03Z</time>
      </trkpt>
      <trkpt lat="49.901" lon="1.95455">
        <ele>93.1</ele>
        <time>2022-05-25T14:48:05Z</time>
      </trkpt>
      <trkpt lat="49.90099" lon="1.95453">
        <ele>93.1</ele>
        <time>2022-05-25T14:48:07Z</time>
      </trkpt>
      <trkpt lat="49.90099" lon="1.95449">
        <ele>93.1</ele>
        <time>2022-05-25T14:48:08Z</time>
      </trkpt>
      <trkpt lat="49.90099" lon="1.95448">
        <ele>93.1</ele>
        <time>2022-05-25T14:48:09Z</time>
      </trkpt>
      <trkpt lat="49.90099" lon="1.95447">
        <ele>93.1</ele>
        <time>2022-05-25T14:48:10Z</time>
      </trkpt>
      <trkpt lat="49.90099" lon="1.95445">
        <ele>93.1</ele>
        <time>2022-05-25T14:48:11Z</time>
      </trkpt>
      <trkpt lat="49.90099" lon="1.95442">
        <ele>93.1</ele>
        <time>2022-05-25T14:48:12Z</time>
      </trkpt>
      <trkpt lat="49.90098" lon="1.95441">
        <ele>93.1</ele>
        <time>2022-05-25T14:48:13Z</time>
      </trkpt>
      <trkpt lat="49.90098" lon="1.95439">
        <ele>93.1</ele>
        <time>2022-05-25T14:48:14Z</time>
      </trkpt>
      <trkpt lat="49.90098" lon="1.95437">
        <ele>93.1</ele>
        <time>2022-05-25T14:48:15Z</time>
      </trkpt>
      <trkpt lat="49.90098" lon="1.95435">
        <ele>93.2</ele>
        <time>2022-05-25T14:48:17Z</time>
      </trkpt>
      <trkpt lat="49.90097" lon="1.95433">
        <ele>93.2</ele>
        <time>2022-05-25T14:48:18Z</time>
      </trkpt>
      <trkpt lat="49.90097" lon="1.9543">
        <ele>93.2</ele>
        <time>2022-05-25T14:48:19Z</time>
      </trkpt>
      <trkpt lat="49.90097" lon="1.95428">
        <ele>93.2</ele>
        <time>2022-05-25T14:48:20Z</time>
      </trkpt>
      <trkpt lat="49.90097" lon="1.95427">
        <ele>93.2</ele>
        <time>2022-05-25T14:48:21Z</time>
      </trkpt>
      <trkpt lat="49.90097" lon="1.95425">
        <ele>93.2</ele>
        <time>2022-05-25T14:48:22Z</time>
      </trkpt>
      <trkpt lat="49.90097" lon="1.95423">
        <ele>93.2</ele>
        <time>2022-05-25T14:48:23Z</time>
      </trkpt>
      <trkpt lat="49.90097" lon="1.95421">
        <ele>93.3</ele>
        <time>2022-05-25T14:48:25Z</time>
      </trkpt>
      <trkpt lat="49.90097" lon="1.95418">
        <ele>93.3</ele>
        <time>2022-05-25T14:48:26Z</time>
      </trkpt>
      <trkpt lat="49.90097" lon="1.95416">
        <ele>93.4</ele>
        <time>2022-05-25T14:48:27Z</time>
      </trkpt>
      <trkpt lat="49.90097" lon="1.95415">
        <ele>93.4</ele>
        <time>2022-05-25T14:48:28Z</time>
      </trkpt>
      <trkpt lat="49.90097" lon="1.95414">
        <ele>93.4</ele>
        <time>2022-05-25T14:48:29Z</time>
      </trkpt>
      <trkpt lat="49.90097" lon="1.95412">
        <ele>93.4</ele>
        <time>2022-05-25T14:48:30Z</time>
      </trkpt>
      <trkpt lat="49.90097" lon="1.95408">
        <ele>93.5</ele>
        <time>2022-05-25T14:48:31Z</time>
      </trkpt>
      <trkpt lat="49.90097" lon="1.95407">
        <ele>93.5</ele>
        <time>2022-05-25T14:48:33Z</time>
      </trkpt>
      <trkpt lat="49.90096" lon="1.95405">
        <ele>93.6</ele>
        <time>2022-05-25T14:48:34Z</time>
      </trkpt>
      <trkpt lat="49.90096" lon="1.95404">
        <ele>93.6</ele>
        <time>2022-05-25T14:48:35Z</time>
      </trkpt>
      <trkpt lat="49.90096" lon="1.95402">
        <ele>93.7</ele>
        <time>2022-05-25T14:48:36Z</time>
      </trkpt>
      <trkpt lat="49.90096" lon="1.954">
        <ele>93.7</ele>
        <time>2022-05-25T14:48:37Z</time>
      </trkpt>
      <trkpt lat="49.90096" lon="1.95398">
        <ele>93.8</ele>
        <time>2022-05-25T14:48:38Z</time>
      </trkpt>
      <trkpt lat="49.90096" lon="1.95397">
        <ele>93.8</ele>
        <time>2022-05-25T14:48:39Z</time>
      </trkpt>
      <trkpt lat="49.90096" lon="1.95395">
        <ele>93.8</ele>
        <time>2022-05-25T14:48:40Z</time>
      </trkpt>
      <trkpt lat="49.90095" lon="1.95394">
        <ele>93.9</ele>
        <time>2022-05-25T14:48:42Z</time>
      </trkpt>
      <trkpt lat="49.90095" lon="1.95392">
        <ele>93.9</ele>
        <time>2022-05-25T14:48:43Z</time>
      </trkpt>
      <trkpt lat="49.90094" lon="1.95389">
        <ele>94</ele>
        <time>2022-05-25T14:48:44Z</time>
      </trkpt>
      <trkpt lat="49.90094" lon="1.95387">
        <ele>94</ele>
        <time>2022-05-25T14:48:45Z</time>
      </trkpt>
      <trkpt lat="49.90094" lon="1.95386">
        <ele>94.1</ele>
        <time>2022-05-25T14:48:46Z</time>
      </trkpt>
      <trkpt lat="49.90094" lon="1.95385">
        <ele>94.1</ele>
        <time>2022-05-25T14:48:47Z</time>
      </trkpt>
      <trkpt lat="49.90094" lon="1.95383">
        <ele>94.1</ele>
        <time>2022-05-25T14:48:49Z</time>
      </trkpt>
      <trkpt lat="49.90094" lon="1.95381">
        <ele>94.2</ele>
        <time>2022-05-25T14:48:50Z</time>
      </trkpt>
      <trkpt lat="49.90093" lon="1.95379">
        <ele>94.2</ele>
        <time>2022-05-25T14:48:51Z</time>
      </trkpt>
      <trkpt lat="49.90093" lon="1.95376">
        <ele>94.3</ele>
        <time>2022-05-25T14:48:52Z</time>
      </trkpt>
      <trkpt lat="49.90093" lon="1.95373">
        <ele>94.4</ele>
        <time>2022-05-25T14:48:53Z</time>
      </trkpt>
      <trkpt lat="49.90093" lon="1.95372">
        <ele>94.4</ele>
        <time>2022-05-25T14:48:54Z</time>
      </trkpt>
      <trkpt lat="49.90093" lon="1.9537">
        <ele>94.4</ele>
        <time>2022-05-25T14:48:55Z</time>
      </trkpt>
      <trkpt lat="49.90092" lon="1.95368">
        <ele>94.5</ele>
        <time>2022-05-25T14:48:56Z</time>
      </trkpt>
      <trkpt lat="49.90092" lon="1.95367">
        <ele>94.5</ele>
        <time>2022-05-25T14:48:58Z</time>
      </trkpt>
      <trkpt lat="49.90092" lon="1.95364">
        <ele>94.6</ele>
        <time>2022-05-25T14:48:59Z</time>
      </trkpt>
      <trkpt lat="49.90092" lon="1.95362">
        <ele>94.6</ele>
        <time>2022-05-25T14:49:00Z</time>
      </trkpt>
      <trkpt lat="49.90091" lon="1.95359">
        <ele>94.7</ele>
        <time>2022-05-25T14:49:01Z</time>
      </trkpt>
      <trkpt lat="49.90091" lon="1.95358">
        <ele>94.7</ele>
        <time>2022-05-25T14:49:02Z</time>
      </trkpt>
      <trkpt lat="49.90091" lon="1.95357">
        <ele>94.7</ele>
        <time>2022-05-25T14:49:03Z</time>
      </trkpt>
      <trkpt lat="49.9009" lon="1.95355">
        <ele>94.8</ele>
        <time>2022-05-25T14:49:04Z</time>
      </trkpt>
      <trkpt lat="49.9009" lon="1.95354">
        <ele>94.8</ele>
        <time>2022-05-25T14:49:05Z</time>
      </trkpt>
      <trkpt lat="49.9009" lon="1.95352">
        <ele>94.8</ele>
        <time>2022-05-25T14:49:07Z</time>
      </trkpt>
      <trkpt lat="49.90089" lon="1.95349">
        <ele>94.9</ele>
        <time>2022-05-25T14:49:08Z</time>
      </trkpt>
      <trkpt lat="49.90089" lon="1.95347">
        <ele>94.9</ele>
        <time>2022-05-25T14:49:09Z</time>
      </trkpt>
      <trkpt lat="49.90089" lon="1.95346">
        <ele>95</ele>
        <time>2022-05-25T14:49:10Z</time>
      </trkpt>
      <trkpt lat="49.90088" lon="1.95344">
        <ele>95</ele>
        <time>2022-05-25T14:49:11Z</time>
      </trkpt>
      <trkpt lat="49.90088" lon="1.95343">
        <ele>95</ele>
        <time>2022-05-25T14:49:12Z</time>
      </trkpt>
      <trkpt lat="49.90087" lon="1.9534">
        <ele>95</ele>
        <time>2022-05-25T14:49:14Z</time>
      </trkpt>
      <trkpt lat="49.90087" lon="1.95339">
        <ele>95.1</ele>
        <time>2022-05-25T14:49:15Z</time>
      </trkpt>
      <trkpt lat="49.90086" lon="1.95335">
        <ele>95.1</ele>
        <time>2022-05-25T14:49:16Z</time>
      </trkpt>
      <trkpt lat="49.90086" lon="1.95333">
        <ele>95.1</ele>
        <time>2022-05-25T14:49:17Z</time>
      </trkpt>
      <trkpt lat="49.90086" lon="1.95332">
        <ele>95.1</ele>
        <time>2022-05-25T14:49:18Z</time>
      </trkpt>
      <trkpt lat="49.90086" lon="1.9533">
        <ele>95.2</ele>
        <time>2022-05-25T14:49:19Z</time>
      </trkpt>
      <trkpt lat="49.90086" lon="1.95329">
        <ele>95.2</ele>
        <time>2022-05-25T14:49:20Z</time>
      </trkpt>
      <trkpt lat="49.90086" lon="1.95328">
        <ele>95.2</ele>
        <time>2022-05-25T14:49:22Z</time>
      </trkpt>
      <trkpt lat="49.90085" lon="1.95326">
        <ele>95.2</ele>
        <time>2022-05-25T14:49:23Z</time>
      </trkpt>
      <trkpt lat="49.90085" lon="1.95323">
        <ele>95.3</ele>
        <time>2022-05-25T14:49:24Z</time>
      </trkpt>
      <trkpt lat="49.90085" lon="1.95322">
        <ele>95.3</ele>
        <time>2022-05-25T14:49:25Z</time>
      </trkpt>
      <trkpt lat="49.90085" lon="1.95321">
        <ele>95.3</ele>
        <time>2022-05-25T14:49:26Z</time>
      </trkpt>
      <trkpt lat="49.90084" lon="1.95319">
        <ele>95.3</ele>
        <time>2022-05-25T14:49:27Z</time>
      </trkpt>
      <trkpt lat="49.90084" lon="1.95316">
        <ele>95.3</ele>
        <time>2022-05-25T14:49:28Z</time>
      </trkpt>
      <trkpt lat="49.90084" lon="1.95315">
        <ele>95.3</ele>
        <time>2022-05-25T14:49:30Z</time>
      </trkpt>
      <trkpt lat="49.90083" lon="1.95314">
        <ele>95.4</ele>
        <time>2022-05-25T14:49:31Z</time>
      </trkpt>
      <trkpt lat="49.90083" lon="1.95312">
        <ele>95.4</ele>
        <time>2022-05-25T14:49:32Z</time>
      </trkpt>
      <trkpt lat="49.90082" lon="1.9531">
        <ele>95.4</ele>
        <time>2022-05-25T14:49:33Z</time>
      </trkpt>
      <trkpt lat="49.90082" lon="1.95309">
        <ele>95.4</ele>
        <time>2022-05-25T14:49:34Z</time>
      </trkpt>
      <trkpt lat="49.90082" lon="1.95308">
        <ele>95.4</ele>
        <time>2022-05-25T14:49:35Z</time>
      </trkpt>
      <trkpt lat="49.90081" lon="1.95305">
        <ele>95.4</ele>
        <time>2022-05-25T14:49:36Z</time>
      </trkpt>
      <trkpt lat="49.9008" lon="1.95304">
        <ele>95.5</ele>
        <time>2022-05-25T14:49:38Z</time>
      </trkpt>
      <trkpt lat="49.9008" lon="1.95303">
        <ele>95.5</ele>
        <time>2022-05-25T14:49:39Z</time>
      </trkpt>
      <trkpt lat="49.90079" lon="1.95301">
        <ele>95.5</ele>
        <time>2022-05-25T14:49:40Z</time>
      </trkpt>
      <trkpt lat="49.90079" lon="1.953">
        <ele>95.5</ele>
        <time>2022-05-25T14:49:41Z</time>
      </trkpt>
      <trkpt lat="49.90079" lon="1.95298">
        <ele>95.5</ele>
        <time>2022-05-25T14:49:42Z</time>
      </trkpt>
      <trkpt lat="49.90079" lon="1.95296">
        <ele>95.5</ele>
        <time>2022-05-25T14:49:43Z</time>
      </trkpt>
      <trkpt lat="49.90079" lon="1.95294">
        <ele>95.6</ele>
        <time>2022-05-25T14:49:45Z</time>
      </trkpt>
      <trkpt lat="49.90079" lon="1.95292">
        <ele>95.6</ele>
        <time>2022-05-25T14:49:46Z</time>
      </trkpt>
      <trkpt lat="49.90079" lon="1.95291">
        <ele>95.6</ele>
        <time>2022-05-25T14:49:47Z</time>
      </trkpt>
      <trkpt lat="49.90079" lon="1.95288">
        <ele>95.6</ele>
        <time>2022-05-25T14:49:48Z</time>
      </trkpt>
      <trkpt lat="49.90078" lon="1.95286">
        <ele>95.6</ele>
        <time>2022-05-25T14:49:50Z</time>
      </trkpt>
      <trkpt lat="49.90078" lon="1.95285">
        <ele>95.6</ele>
        <time>2022-05-25T14:49:51Z</time>
      </trkpt>
      <trkpt lat="49.90078" lon="1.95283">
        <ele>95.6</ele>
        <time>2022-05-25T14:49:52Z</time>
      </trkpt>
      <trkpt lat="49.90079" lon="1.9528">
        <ele>95.6</ele>
        <time>2022-05-25T14:49:53Z</time>
      </trkpt>
      <trkpt lat="49.90079" lon="1.95278">
        <ele>95.6</ele>
        <time>2022-05-25T14:49:54Z</time>
      </trkpt>
      <trkpt lat="49.90079" lon="1.95277">
        <ele>95.6</ele>
        <time>2022-05-25T14:49:55Z</time>
      </trkpt>
      <trkpt lat="49.90079" lon="1.95275">
        <ele>95.6</ele>
        <time>2022-05-25T14:49:56Z</time>
      </trkpt>
      <trkpt lat="49.90079" lon="1.95273">
        <ele>95.6</ele>
        <time>2022-05-25T14:49:58Z</time>
      </trkpt>
      <trkpt lat="49.90079" lon="1.95271">
        <ele>95.6</ele>
        <time>2022-05-25T14:49:59Z</time>
      </trkpt>
      <trkpt lat="49.90079" lon="1.9527">
        <ele>95.6</ele>
        <time>2022-05-25T14:50:00Z</time>
      </trkpt>
      <trkpt lat="49.90079" lon="1.95268">
        <ele>95.6</ele>
        <time>2022-05-25T14:50:01Z</time>
      </trkpt>
      <trkpt lat="49.90079" lon="1.95266">
        <ele>95.6</ele>
        <time>2022-05-25T14:50:02Z</time>
      </trkpt>
      <trkpt lat="49.90079" lon="1.95264">
        <ele>95.6</ele>
        <time>2022-05-25T14:50:03Z</time>
      </trkpt>
      <trkpt lat="49.90079" lon="1.95263">
        <ele>95.6</ele>
        <time>2022-05-25T14:50:04Z</time>
      </trkpt>
      <trkpt lat="49.90078" lon="1.95261">
        <ele>95.6</ele>
        <time>2022-05-25T14:50:05Z</time>
      </trkpt>
      <trkpt lat="49.90078" lon="1.95259">
        <ele>95.6</ele>
        <time>2022-05-25T14:50:07Z</time>
      </trkpt>
      <trkpt lat="49.90077" lon="1.95258">
        <ele>95.6</ele>
        <time>2022-05-25T14:50:08Z</time>
      </trkpt>
      <trkpt lat="49.90076" lon="1.95256">
        <ele>95.6</ele>
        <time>2022-05-25T14:50:09Z</time>
      </trkpt>
      <trkpt lat="49.90075" lon="1.95253">
        <ele>95.6</ele>
        <time>2022-05-25T14:50:10Z</time>
      </trkpt>
      <trkpt lat="49.90074" lon="1.95252">
        <ele>95.6</ele>
        <time>2022-05-25T14:50:11Z</time>
      </trkpt>
      <trkpt lat="49.90074" lon="1.95251">
        <ele>95.6</ele>
        <time>2022-05-25T14:50:12Z</time>
      </trkpt>
      <trkpt lat="49.90072" lon="1.95249">
        <ele>95.6</ele>
        <time>2022-05-25T14:50:13Z</time>
      </trkpt>
      <trkpt lat="49.90072" lon="1.95247">
        <ele>95.6</ele>
        <time>2022-05-25T14:50:14Z</time>
      </trkpt>
      <trkpt lat="49.9007" lon="1.95245">
        <ele>95.6</ele>
        <time>2022-05-25T14:50:16Z</time>
      </trkpt>
      <trkpt lat="49.9007" lon="1.95244">
        <ele>95.6</ele>
        <time>2022-05-25T14:50:17Z</time>
      </trkpt>
      <trkpt lat="49.90069" lon="1.95242">
        <ele>95.6</ele>
        <time>2022-05-25T14:50:18Z</time>
      </trkpt>
      <trkpt lat="49.90068" lon="1.95241">
        <ele>95.6</ele>
        <time>2022-05-25T14:50:19Z</time>
      </trkpt>
      <trkpt lat="49.90068" lon="1.95239">
        <ele>95.5</ele>
        <time>2022-05-25T14:50:21Z</time>
      </trkpt>
      <trkpt lat="49.90067" lon="1.95238">
        <ele>95.5</ele>
        <time>2022-05-25T14:50:22Z</time>
      </trkpt>
      <trkpt lat="49.90066" lon="1.95236">
        <ele>95.5</ele>
        <time>2022-05-25T14:50:23Z</time>
      </trkpt>
      <trkpt lat="49.90066" lon="1.95235">
        <ele>95.5</ele>
        <time>2022-05-25T14:50:24Z</time>
      </trkpt>
      <trkpt lat="49.90065" lon="1.95233">
        <ele>95.5</ele>
        <time>2022-05-25T14:50:25Z</time>
      </trkpt>
      <trkpt lat="49.90065" lon="1.95232">
        <ele>95.5</ele>
        <time>2022-05-25T14:50:26Z</time>
      </trkpt>
      <trkpt lat="49.90065" lon="1.9523">
        <ele>95.5</ele>
        <time>2022-05-25T14:50:27Z</time>
      </trkpt>
      <trkpt lat="49.90065" lon="1.95227">
        <ele>95.4</ele>
        <time>2022-05-25T14:50:29Z</time>
      </trkpt>
      <trkpt lat="49.90065" lon="1.95224">
        <ele>95.4</ele>
        <time>2022-05-25T14:50:30Z</time>
      </trkpt>
      <trkpt lat="49.90065" lon="1.95223">
        <ele>95.4</ele>
        <time>2022-05-25T14:50:31Z</time>
      </trkpt>
      <trkpt lat="49.90065" lon="1.95222">
        <ele>95.4</ele>
        <time>2022-05-25T14:50:32Z</time>
      </trkpt>
      <trkpt lat="49.90065" lon="1.95219">
        <ele>95.4</ele>
        <time>2022-05-25T14:50:33Z</time>
      </trkpt>
      <trkpt lat="49.90064" lon="1.95218">
        <ele>95.3</ele>
        <time>2022-05-25T14:50:34Z</time>
      </trkpt>
      <trkpt lat="49.90064" lon="1.95216">
        <ele>95.3</ele>
        <time>2022-05-25T14:50:35Z</time>
      </trkpt>
      <trkpt lat="49.90063" lon="1.95213">
        <ele>95.3</ele>
        <time>2022-05-25T14:50:36Z</time>
      </trkpt>
      <trkpt lat="49.90063" lon="1.95211">
        <ele>95.2</ele>
        <time>2022-05-25T14:50:37Z</time>
      </trkpt>
      <trkpt lat="49.90063" lon="1.9521">
        <ele>95.2</ele>
        <time>2022-05-25T14:50:38Z</time>
      </trkpt>
      <trkpt lat="49.90062" lon="1.95206">
        <ele>95.2</ele>
        <time>2022-05-25T14:50:41Z</time>
      </trkpt>
      <trkpt lat="49.90061" lon="1.95205">
        <ele>95.1</ele>
        <time>2022-05-25T14:50:42Z</time>
      </trkpt>
      <trkpt lat="49.90061" lon="1.95203">
        <ele>95.1</ele>
        <time>2022-05-25T14:50:43Z</time>
      </trkpt>
      <trkpt lat="49.9006" lon="1.95201">
        <ele>95</ele>
        <time>2022-05-25T14:50:44Z</time>
      </trkpt>
      <trkpt lat="49.9006" lon="1.95199">
        <ele>95</ele>
        <time>2022-05-25T14:50:45Z</time>
      </trkpt>
      <trkpt lat="49.90059" lon="1.95197">
        <ele>95</ele>
        <time>2022-05-25T14:50:46Z</time>
      </trkpt>
      <trkpt lat="49.90059" lon="1.95195">
        <ele>94.9</ele>
        <time>2022-05-25T14:50:47Z</time>
      </trkpt>
      <trkpt lat="49.90058" lon="1.95193">
        <ele>94.9</ele>
        <time>2022-05-25T14:50:48Z</time>
      </trkpt>
      <trkpt lat="49.90058" lon="1.95191">
        <ele>94.9</ele>
        <time>2022-05-25T14:50:50Z</time>
      </trkpt>
      <trkpt lat="49.90058" lon="1.95189">
        <ele>94.8</ele>
        <time>2022-05-25T14:50:51Z</time>
      </trkpt>
      <trkpt lat="49.90058" lon="1.95188">
        <ele>94.8</ele>
        <time>2022-05-25T14:50:52Z</time>
      </trkpt>
      <trkpt lat="49.90058" lon="1.95186">
        <ele>94.7</ele>
        <time>2022-05-25T14:50:53Z</time>
      </trkpt>
      <trkpt lat="49.90058" lon="1.95182">
        <ele>94.6</ele>
        <time>2022-05-25T14:50:54Z</time>
      </trkpt>
      <trkpt lat="49.90057" lon="1.95181">
        <ele>94.6</ele>
        <time>2022-05-25T14:50:56Z</time>
      </trkpt>
      <trkpt lat="49.90057" lon="1.95179">
        <ele>94.6</ele>
        <time>2022-05-25T14:50:57Z</time>
      </trkpt>
      <trkpt lat="49.90057" lon="1.95178">
        <ele>94.5</ele>
        <time>2022-05-25T14:50:58Z</time>
      </trkpt>
      <trkpt lat="49.90058" lon="1.95176">
        <ele>94.5</ele>
        <time>2022-05-25T14:50:59Z</time>
      </trkpt>
      <trkpt lat="49.90057" lon="1.95174">
        <ele>94.4</ele>
        <time>2022-05-25T14:51:00Z</time>
      </trkpt>
      <trkpt lat="49.90056" lon="1.95173">
        <ele>94.4</ele>
        <time>2022-05-25T14:51:01Z</time>
      </trkpt>
      <trkpt lat="49.90055" lon="1.95172">
        <ele>94.3</ele>
        <time>2022-05-25T14:51:02Z</time>
      </trkpt>
      <trkpt lat="49.90053" lon="1.9517">
        <ele>94.3</ele>
        <time>2022-05-25T14:51:03Z</time>
      </trkpt>
      <trkpt lat="49.90052" lon="1.95169">
        <ele>94.2</ele>
        <time>2022-05-25T14:51:04Z</time>
      </trkpt>
      <trkpt lat="49.90051" lon="1.95169">
        <ele>94.2</ele>
        <time>2022-05-25T14:51:06Z</time>
      </trkpt>
      <trkpt lat="49.9005" lon="1.95169">
        <ele>94.2</ele>
        <time>2022-05-25T14:51:07Z</time>
      </trkpt>
      <trkpt lat="49.9005" lon="1.95168">
        <ele>94.1</ele>
        <time>2022-05-25T14:51:08Z</time>
      </trkpt>
      <trkpt lat="49.90049" lon="1.95167">
        <ele>94.1</ele>
        <time>2022-05-25T14:51:09Z</time>
      </trkpt>
      <trkpt lat="49.90049" lon="1.95166">
        <ele>94.1</ele>
        <time>2022-05-25T14:51:10Z</time>
      </trkpt>
      <trkpt lat="49.90048" lon="1.95164">
        <ele>94.1</ele>
        <time>2022-05-25T14:51:12Z</time>
      </trkpt>
      <trkpt lat="49.90048" lon="1.95163">
        <ele>94</ele>
        <time>2022-05-25T14:51:13Z</time>
      </trkpt>
      <trkpt lat="49.90048" lon="1.95162">
        <ele>94</ele>
        <time>2022-05-25T14:51:14Z</time>
      </trkpt>
      <trkpt lat="49.90048" lon="1.95161">
        <ele>94</ele>
        <time>2022-05-25T14:51:15Z</time>
      </trkpt>
      <trkpt lat="49.90047" lon="1.95159">
        <ele>94</ele>
        <time>2022-05-25T14:51:16Z</time>
      </trkpt>
      <trkpt lat="49.90048" lon="1.95158">
        <ele>93.9</ele>
        <time>2022-05-25T14:51:17Z</time>
      </trkpt>
      <trkpt lat="49.90048" lon="1.95156">
        <ele>93.9</ele>
        <time>2022-05-25T14:51:19Z</time>
      </trkpt>
      <trkpt lat="49.90047" lon="1.95154">
        <ele>93.9</ele>
        <time>2022-05-25T14:51:20Z</time>
      </trkpt>
      <trkpt lat="49.90046" lon="1.95151">
        <ele>93.8</ele>
        <time>2022-05-25T14:51:21Z</time>
      </trkpt>
      <trkpt lat="49.90045" lon="1.9515">
        <ele>93.8</ele>
        <time>2022-05-25T14:51:22Z</time>
      </trkpt>
      <trkpt lat="49.90045" lon="1.95148">
        <ele>93.8</ele>
        <time>2022-05-25T14:51:23Z</time>
      </trkpt>
      <trkpt lat="49.90044" lon="1.95144">
        <ele>93.7</ele>
        <time>2022-05-25T14:51:24Z</time>
      </trkpt>
      <trkpt lat="49.90043" lon="1.95143">
        <ele>93.7</ele>
        <time>2022-05-25T14:51:25Z</time>
      </trkpt>
      <trkpt lat="49.90043" lon="1.95141">
        <ele>93.7</ele>
        <time>2022-05-25T14:51:26Z</time>
      </trkpt>
      <trkpt lat="49.90042" lon="1.95138">
        <ele>93.7</ele>
        <time>2022-05-25T14:51:27Z</time>
      </trkpt>
      <trkpt lat="49.90041" lon="1.95136">
        <ele>93.6</ele>
        <time>2022-05-25T14:51:28Z</time>
      </trkpt>
      <trkpt lat="49.9004" lon="1.95134">
        <ele>93.6</ele>
        <time>2022-05-25T14:51:29Z</time>
      </trkpt>
      <trkpt lat="49.9004" lon="1.95131">
        <ele>93.6</ele>
        <time>2022-05-25T14:51:30Z</time>
      </trkpt>
      <trkpt lat="49.90039" lon="1.95129">
        <ele>93.6</ele>
        <time>2022-05-25T14:51:31Z</time>
      </trkpt>
      <trkpt lat="49.90038" lon="1.95127">
        <ele>93.6</ele>
        <time>2022-05-25T14:51:33Z</time>
      </trkpt>
      <trkpt lat="49.90038" lon="1.95125">
        <ele>93.5</ele>
        <time>2022-05-25T14:51:34Z</time>
      </trkpt>
      <trkpt lat="49.90036" lon="1.95121">
        <ele>93.5</ele>
        <time>2022-05-25T14:51:35Z</time>
      </trkpt>
      <trkpt lat="49.90036" lon="1.9512">
        <ele>93.5</ele>
        <time>2022-05-25T14:51:36Z</time>
      </trkpt>
      <trkpt lat="49.90035" lon="1.95118">
        <ele>93.5</ele>
        <time>2022-05-25T14:51:37Z</time>
      </trkpt>
      <trkpt lat="49.90035" lon="1.95116">
        <ele>93.5</ele>
        <time>2022-05-25T14:51:38Z</time>
      </trkpt>
      <trkpt lat="49.90034" lon="1.95115">
        <ele>93.5</ele>
        <time>2022-05-25T14:51:40Z</time>
      </trkpt>
      <trkpt lat="49.90034" lon="1.95113">
        <ele>93.5</ele>
        <time>2022-05-25T14:51:41Z</time>
      </trkpt>
      <trkpt lat="49.90033" lon="1.95111">
        <ele>93.5</ele>
        <time>2022-05-25T14:51:42Z</time>
      </trkpt>
      <trkpt lat="49.90032" lon="1.95109">
        <ele>93.4</ele>
        <time>2022-05-25T14:51:43Z</time>
      </trkpt>
      <trkpt lat="49.90032" lon="1.95108">
        <ele>93.4</ele>
        <time>2022-05-25T14:51:44Z</time>
      </trkpt>
      <trkpt lat="49.90031" lon="1.95107">
        <ele>93.4</ele>
        <time>2022-05-25T14:51:45Z</time>
      </trkpt>
      <trkpt lat="49.9003" lon="1.95104">
        <ele>93.4</ele>
        <time>2022-05-25T14:51:46Z</time>
      </trkpt>
      <trkpt lat="49.90029" lon="1.95103">
        <ele>93.4</ele>
        <time>2022-05-25T14:51:47Z</time>
      </trkpt>
      <trkpt lat="49.90028" lon="1.95102">
        <ele>93.4</ele>
        <time>2022-05-25T14:51:48Z</time>
      </trkpt>
      <trkpt lat="49.90027" lon="1.951">
        <ele>93.4</ele>
        <time>2022-05-25T14:51:50Z</time>
      </trkpt>
      <trkpt lat="49.90026" lon="1.95099">
        <ele>93.4</ele>
        <time>2022-05-25T14:51:51Z</time>
      </trkpt>
      <trkpt lat="49.90025" lon="1.95097">
        <ele>93.3</ele>
        <time>2022-05-25T14:51:52Z</time>
      </trkpt>
      <trkpt lat="49.90024" lon="1.95096">
        <ele>93.3</ele>
        <time>2022-05-25T14:51:53Z</time>
      </trkpt>
      <trkpt lat="49.90023" lon="1.95095">
        <ele>93.3</ele>
        <time>2022-05-25T14:51:54Z</time>
      </trkpt>
      <trkpt lat="49.90022" lon="1.95092">
        <ele>93.3</ele>
        <time>2022-05-25T14:51:55Z</time>
      </trkpt>
      <trkpt lat="49.90022" lon="1.95091">
        <ele>93.3</ele>
        <time>2022-05-25T14:51:57Z</time>
      </trkpt>
      <trkpt lat="49.90021" lon="1.9509">
        <ele>93.3</ele>
        <time>2022-05-25T14:51:58Z</time>
      </trkpt>
      <trkpt lat="49.9002" lon="1.95087">
        <ele>93.2</ele>
        <time>2022-05-25T14:51:59Z</time>
      </trkpt>
      <trkpt lat="49.90019" lon="1.95083">
        <ele>93.2</ele>
        <time>2022-05-25T14:52:01Z</time>
      </trkpt>
      <trkpt lat="49.90019" lon="1.95082">
        <ele>93.2</ele>
        <time>2022-05-25T14:52:02Z</time>
      </trkpt>
      <trkpt lat="49.90018" lon="1.9508">
        <ele>93.2</ele>
        <time>2022-05-25T14:52:04Z</time>
      </trkpt>
      <trkpt lat="49.90017" lon="1.95079">
        <ele>93.2</ele>
        <time>2022-05-25T14:52:05Z</time>
      </trkpt>
      <trkpt lat="49.90016" lon="1.95076">
        <ele>93.2</ele>
        <time>2022-05-25T14:52:06Z</time>
      </trkpt>
      <trkpt lat="49.90015" lon="1.95075">
        <ele>93.2</ele>
        <time>2022-05-25T14:52:07Z</time>
      </trkpt>
      <trkpt lat="49.90014" lon="1.95074">
        <ele>93.2</ele>
        <time>2022-05-25T14:52:08Z</time>
      </trkpt>
      <trkpt lat="49.90013" lon="1.95073">
        <ele>93.2</ele>
        <time>2022-05-25T14:52:09Z</time>
      </trkpt>
      <trkpt lat="49.90011" lon="1.95071">
        <ele>93.2</ele>
        <time>2022-05-25T14:52:11Z</time>
      </trkpt>
      <trkpt lat="49.9001" lon="1.9507">
        <ele>93.2</ele>
        <time>2022-05-25T14:52:12Z</time>
      </trkpt>
      <trkpt lat="49.90008" lon="1.95067">
        <ele>93.2</ele>
        <time>2022-05-25T14:52:14Z</time>
      </trkpt>
      <trkpt lat="49.90007" lon="1.95066">
        <ele>93.2</ele>
        <time>2022-05-25T14:52:15Z</time>
      </trkpt>
      <trkpt lat="49.90007" lon="1.95064">
        <ele>93.2</ele>
        <time>2022-05-25T14:52:16Z</time>
      </trkpt>
      <trkpt lat="49.90006" lon="1.95063">
        <ele>93.2</ele>
        <time>2022-05-25T14:52:18Z</time>
      </trkpt>
      <trkpt lat="49.90006" lon="1.95061">
        <ele>93.2</ele>
        <time>2022-05-25T14:52:19Z</time>
      </trkpt>
      <trkpt lat="49.90005" lon="1.95059">
        <ele>93.2</ele>
        <time>2022-05-25T14:52:20Z</time>
      </trkpt>
      <trkpt lat="49.90004" lon="1.95057">
        <ele>93.2</ele>
        <time>2022-05-25T14:52:21Z</time>
      </trkpt>
      <trkpt lat="49.90004" lon="1.95055">
        <ele>93.2</ele>
        <time>2022-05-25T14:52:22Z</time>
      </trkpt>
      <trkpt lat="49.90003" lon="1.95054">
        <ele>93.2</ele>
        <time>2022-05-25T14:52:23Z</time>
      </trkpt>
      <trkpt lat="49.90003" lon="1.95052">
        <ele>93.2</ele>
        <time>2022-05-25T14:52:24Z</time>
      </trkpt>
      <trkpt lat="49.90003" lon="1.95051">
        <ele>93.3</ele>
        <time>2022-05-25T14:52:25Z</time>
      </trkpt>
      <trkpt lat="49.90002" lon="1.95049">
        <ele>93.3</ele>
        <time>2022-05-25T14:52:26Z</time>
      </trkpt>
      <trkpt lat="49.90001" lon="1.95047">
        <ele>93.3</ele>
        <time>2022-05-25T14:52:27Z</time>
      </trkpt>
      <trkpt lat="49.90001" lon="1.95046">
        <ele>93.3</ele>
        <time>2022-05-25T14:52:29Z</time>
      </trkpt>
      <trkpt lat="49.9" lon="1.95043">
        <ele>93.3</ele>
        <time>2022-05-25T14:52:30Z</time>
      </trkpt>
      <trkpt lat="49.9" lon="1.95041">
        <ele>93.3</ele>
        <time>2022-05-25T14:52:31Z</time>
      </trkpt>
      <trkpt lat="49.9" lon="1.9504">
        <ele>93.4</ele>
        <time>2022-05-25T14:52:32Z</time>
      </trkpt>
      <trkpt lat="49.89999" lon="1.95038">
        <ele>93.4</ele>
        <time>2022-05-25T14:52:33Z</time>
      </trkpt>
      <trkpt lat="49.89999" lon="1.95037">
        <ele>93.4</ele>
        <time>2022-05-25T14:52:34Z</time>
      </trkpt>
      <trkpt lat="49.89998" lon="1.95035">
        <ele>93.4</ele>
        <time>2022-05-25T14:52:35Z</time>
      </trkpt>
      <trkpt lat="49.89997" lon="1.95033">
        <ele>93.5</ele>
        <time>2022-05-25T14:52:36Z</time>
      </trkpt>
      <trkpt lat="49.89996" lon="1.95031">
        <ele>93.5</ele>
        <time>2022-05-25T14:52:37Z</time>
      </trkpt>
      <trkpt lat="49.89995" lon="1.95028">
        <ele>93.5</ele>
        <time>2022-05-25T14:52:38Z</time>
      </trkpt>
      <trkpt lat="49.89994" lon="1.95027">
        <ele>93.6</ele>
        <time>2022-05-25T14:52:40Z</time>
      </trkpt>
      <trkpt lat="49.89994" lon="1.95026">
        <ele>93.6</ele>
        <time>2022-05-25T14:52:41Z</time>
      </trkpt>
      <trkpt lat="49.89993" lon="1.95025">
        <ele>93.6</ele>
        <time>2022-05-25T14:52:42Z</time>
      </trkpt>
      <trkpt lat="49.89992" lon="1.95023">
        <ele>93.6</ele>
        <time>2022-05-25T14:52:43Z</time>
      </trkpt>
      <trkpt lat="49.89992" lon="1.95022">
        <ele>93.7</ele>
        <time>2022-05-25T14:52:44Z</time>
      </trkpt>
      <trkpt lat="49.89991" lon="1.9502">
        <ele>93.7</ele>
        <time>2022-05-25T14:52:46Z</time>
      </trkpt>
      <trkpt lat="49.8999" lon="1.95019">
        <ele>93.7</ele>
        <time>2022-05-25T14:52:47Z</time>
      </trkpt>
      <trkpt lat="49.89989" lon="1.95017">
        <ele>93.8</ele>
        <time>2022-05-25T14:52:48Z</time>
      </trkpt>
      <trkpt lat="49.89988" lon="1.95015">
        <ele>93.8</ele>
        <time>2022-05-25T14:52:49Z</time>
      </trkpt>
      <trkpt lat="49.89988" lon="1.95013">
        <ele>93.8</ele>
        <time>2022-05-25T14:52:50Z</time>
      </trkpt>
      <trkpt lat="49.89987" lon="1.95012">
        <ele>93.9</ele>
        <time>2022-05-25T14:52:51Z</time>
      </trkpt>
      <trkpt lat="49.89987" lon="1.95011">
        <ele>93.9</ele>
        <time>2022-05-25T14:52:52Z</time>
      </trkpt>
      <trkpt lat="49.89986" lon="1.95009">
        <ele>93.9</ele>
        <time>2022-05-25T14:52:53Z</time>
      </trkpt>
      <trkpt lat="49.89986" lon="1.95007">
        <ele>93.9</ele>
        <time>2022-05-25T14:52:55Z</time>
      </trkpt>
      <trkpt lat="49.89985" lon="1.95006">
        <ele>94</ele>
        <time>2022-05-25T14:52:56Z</time>
      </trkpt>
      <trkpt lat="49.89985" lon="1.95003">
        <ele>94</ele>
        <time>2022-05-25T14:52:57Z</time>
      </trkpt>
      <trkpt lat="49.89984" lon="1.95002">
        <ele>94</ele>
        <time>2022-05-25T14:52:58Z</time>
      </trkpt>
      <trkpt lat="49.89984" lon="1.95">
        <ele>94.1</ele>
        <time>2022-05-25T14:52:59Z</time>
      </trkpt>
      <trkpt lat="49.89984" lon="1.94998">
        <ele>94.1</ele>
        <time>2022-05-25T14:53:00Z</time>
      </trkpt>
      <trkpt lat="49.89984" lon="1.94995">
        <ele>94.2</ele>
        <time>2022-05-25T14:53:01Z</time>
      </trkpt>
      <trkpt lat="49.89984" lon="1.94994">
        <ele>94.2</ele>
        <time>2022-05-25T14:53:02Z</time>
      </trkpt>
      <trkpt lat="49.89984" lon="1.94993">
        <ele>94.2</ele>
        <time>2022-05-25T14:53:03Z</time>
      </trkpt>
      <trkpt lat="49.89984" lon="1.94992">
        <ele>94.2</ele>
        <time>2022-05-25T14:53:05Z</time>
      </trkpt>
      <trkpt lat="49.89984" lon="1.9499">
        <ele>94.3</ele>
        <time>2022-05-25T14:53:06Z</time>
      </trkpt>
      <trkpt lat="49.89984" lon="1.94988">
        <ele>94.3</ele>
        <time>2022-05-25T14:53:07Z</time>
      </trkpt>
      <trkpt lat="49.89984" lon="1.94987">
        <ele>94.3</ele>
        <time>2022-05-25T14:53:08Z</time>
      </trkpt>
      <trkpt lat="49.89984" lon="1.94985">
        <ele>94.4</ele>
        <time>2022-05-25T14:53:09Z</time>
      </trkpt>
      <trkpt lat="49.89983" lon="1.94983">
        <ele>94.4</ele>
        <time>2022-05-25T14:53:10Z</time>
      </trkpt>
      <trkpt lat="49.89982" lon="1.94979">
        <ele>94.5</ele>
        <time>2022-05-25T14:53:12Z</time>
      </trkpt>
      <trkpt lat="49.89982" lon="1.94977">
        <ele>94.6</ele>
        <time>2022-05-25T14:53:14Z</time>
      </trkpt>
      <trkpt lat="49.89981" lon="1.94975">
        <ele>94.6</ele>
        <time>2022-05-25T14:53:15Z</time>
      </trkpt>
      <trkpt lat="49.89981" lon="1.94973">
        <ele>94.7</ele>
        <time>2022-05-25T14:53:17Z</time>
      </trkpt>
      <trkpt lat="49.8998" lon="1.94971">
        <ele>94.8</ele>
        <time>2022-05-25T14:53:18Z</time>
      </trkpt>
      <trkpt lat="49.8998" lon="1.9497">
        <ele>94.8</ele>
        <time>2022-05-25T14:53:19Z</time>
      </trkpt>
      <trkpt lat="49.89979" lon="1.94968">
        <ele>94.9</ele>
        <time>2022-05-25T14:53:20Z</time>
      </trkpt>
      <trkpt lat="49.89978" lon="1.94965">
        <ele>95</ele>
        <time>2022-05-25T14:53:21Z</time>
      </trkpt>
      <trkpt lat="49.89978" lon="1.94963">
        <ele>95</ele>
        <time>2022-05-25T14:53:22Z</time>
      </trkpt>
      <trkpt lat="49.89977" lon="1.94961">
        <ele>95.1</ele>
        <time>2022-05-25T14:53:23Z</time>
      </trkpt>
      <trkpt lat="49.89977" lon="1.9496">
        <ele>95.1</ele>
        <time>2022-05-25T14:53:25Z</time>
      </trkpt>
      <trkpt lat="49.89977" lon="1.94958">
        <ele>95.2</ele>
        <time>2022-05-25T14:53:26Z</time>
      </trkpt>
      <trkpt lat="49.89976" lon="1.94955">
        <ele>95.3</ele>
        <time>2022-05-25T14:53:27Z</time>
      </trkpt>
      <trkpt lat="49.89975" lon="1.94954">
        <ele>95.4</ele>
        <time>2022-05-25T14:53:28Z</time>
      </trkpt>
      <trkpt lat="49.89975" lon="1.94953">
        <ele>95.4</ele>
        <time>2022-05-25T14:53:29Z</time>
      </trkpt>
      <trkpt lat="49.89974" lon="1.94951">
        <ele>95.5</ele>
        <time>2022-05-25T14:53:30Z</time>
      </trkpt>
      <trkpt lat="49.89973" lon="1.94948">
        <ele>95.6</ele>
        <time>2022-05-25T14:53:31Z</time>
      </trkpt>
      <trkpt lat="49.89973" lon="1.94948">
        <ele>95.6</ele>
        <time>2022-05-25T14:53:33Z</time>
      </trkpt>
      <trkpt lat="49.89972" lon="1.94946">
        <ele>95.7</ele>
        <time>2022-05-25T14:53:34Z</time>
      </trkpt>
      <trkpt lat="49.89971" lon="1.94945">
        <ele>95.7</ele>
        <time>2022-05-25T14:53:35Z</time>
      </trkpt>
      <trkpt lat="49.8997" lon="1.94942">
        <ele>95.8</ele>
        <time>2022-05-25T14:53:36Z</time>
      </trkpt>
      <trkpt lat="49.8997" lon="1.94941">
        <ele>95.8</ele>
        <time>2022-05-25T14:53:37Z</time>
      </trkpt>
      <trkpt lat="49.89969" lon="1.9494">
        <ele>95.9</ele>
        <time>2022-05-25T14:53:38Z</time>
      </trkpt>
      <trkpt lat="49.89969" lon="1.94938">
        <ele>96</ele>
        <time>2022-05-25T14:53:39Z</time>
      </trkpt>
      <trkpt lat="49.89968" lon="1.94937">
        <ele>96</ele>
        <time>2022-05-25T14:53:41Z</time>
      </trkpt>
      <trkpt lat="49.89968" lon="1.94936">
        <ele>96.1</ele>
        <time>2022-05-25T14:53:42Z</time>
      </trkpt>
      <trkpt lat="49.89967" lon="1.94934">
        <ele>96.1</ele>
        <time>2022-05-25T14:53:43Z</time>
      </trkpt>
      <trkpt lat="49.89966" lon="1.94933">
        <ele>96.2</ele>
        <time>2022-05-25T14:53:44Z</time>
      </trkpt>
      <trkpt lat="49.89966" lon="1.94932">
        <ele>96.2</ele>
        <time>2022-05-25T14:53:45Z</time>
      </trkpt>
      <trkpt lat="49.89965" lon="1.9493">
        <ele>96.3</ele>
        <time>2022-05-25T14:53:46Z</time>
      </trkpt>
      <trkpt lat="49.89964" lon="1.94929">
        <ele>96.4</ele>
        <time>2022-05-25T14:53:47Z</time>
      </trkpt>
      <trkpt lat="49.89964" lon="1.94928">
        <ele>96.4</ele>
        <time>2022-05-25T14:53:49Z</time>
      </trkpt>
      <trkpt lat="49.89963" lon="1.94926">
        <ele>96.5</ele>
        <time>2022-05-25T14:53:50Z</time>
      </trkpt>
      <trkpt lat="49.89963" lon="1.94925">
        <ele>96.5</ele>
        <time>2022-05-25T14:53:51Z</time>
      </trkpt>
      <trkpt lat="49.89962" lon="1.94923">
        <ele>96.6</ele>
        <time>2022-05-25T14:53:52Z</time>
      </trkpt>
      <trkpt lat="49.89962" lon="1.94921">
        <ele>96.7</ele>
        <time>2022-05-25T14:53:53Z</time>
      </trkpt>
      <trkpt lat="49.89962" lon="1.9492">
        <ele>96.7</ele>
        <time>2022-05-25T14:53:54Z</time>
      </trkpt>
      <trkpt lat="49.89962" lon="1.94918">
        <ele>96.8</ele>
        <time>2022-05-25T14:53:55Z</time>
      </trkpt>
      <trkpt lat="49.89962" lon="1.94916">
        <ele>96.8</ele>
        <time>2022-05-25T14:53:57Z</time>
      </trkpt>
      <trkpt lat="49.89961" lon="1.94915">
        <ele>96.9</ele>
        <time>2022-05-25T14:53:58Z</time>
      </trkpt>
      <trkpt lat="49.89961" lon="1.94913">
        <ele>97</ele>
        <time>2022-05-25T14:53:59Z</time>
      </trkpt>
      <trkpt lat="49.8996" lon="1.94912">
        <ele>97</ele>
        <time>2022-05-25T14:54:00Z</time>
      </trkpt>
      <trkpt lat="49.89959" lon="1.9491">
        <ele>97.1</ele>
        <time>2022-05-25T14:54:01Z</time>
      </trkpt>
      <trkpt lat="49.89958" lon="1.94908">
        <ele>97.2</ele>
        <time>2022-05-25T14:54:03Z</time>
      </trkpt>
      <trkpt lat="49.89957" lon="1.94907">
        <ele>97.3</ele>
        <time>2022-05-25T14:54:05Z</time>
      </trkpt>
      <trkpt lat="49.89955" lon="1.94905">
        <ele>97.4</ele>
        <time>2022-05-25T14:54:07Z</time>
      </trkpt>
      <trkpt lat="49.89954" lon="1.94904">
        <ele>97.5</ele>
        <time>2022-05-25T14:54:08Z</time>
      </trkpt>
      <trkpt lat="49.89952" lon="1.94902">
        <ele>97.6</ele>
        <time>2022-05-25T14:54:09Z</time>
      </trkpt>
      <trkpt lat="49.89952" lon="1.94901">
        <ele>97.6</ele>
        <time>2022-05-25T14:54:10Z</time>
      </trkpt>
      <trkpt lat="49.89951" lon="1.94901">
        <ele>97.7</ele>
        <time>2022-05-25T14:54:11Z</time>
      </trkpt>
      <trkpt lat="49.8995" lon="1.949">
        <ele>97.7</ele>
        <time>2022-05-25T14:54:12Z</time>
      </trkpt>
      <trkpt lat="49.89949" lon="1.94899">
        <ele>97.8</ele>
        <time>2022-05-25T14:54:14Z</time>
      </trkpt>
      <trkpt lat="49.89948" lon="1.94897">
        <ele>97.9</ele>
        <time>2022-05-25T14:54:15Z</time>
      </trkpt>
      <trkpt lat="49.89947" lon="1.94896">
        <ele>98</ele>
        <time>2022-05-25T14:54:16Z</time>
      </trkpt>
      <trkpt lat="49.89946" lon="1.94894">
        <ele>98.1</ele>
        <time>2022-05-25T14:54:17Z</time>
      </trkpt>
      <trkpt lat="49.89946" lon="1.94893">
        <ele>98.1</ele>
        <time>2022-05-25T14:54:19Z</time>
      </trkpt>
      <trkpt lat="49.89945" lon="1.94892">
        <ele>98.2</ele>
        <time>2022-05-25T14:54:20Z</time>
      </trkpt>
      <trkpt lat="49.89944" lon="1.9489">
        <ele>98.3</ele>
        <time>2022-05-25T14:54:21Z</time>
      </trkpt>
      <trkpt lat="49.89943" lon="1.94888">
        <ele>98.4</ele>
        <time>2022-05-25T14:54:22Z</time>
      </trkpt>
      <trkpt lat="49.89942" lon="1.94887">
        <ele>98.4</ele>
        <time>2022-05-25T14:54:23Z</time>
      </trkpt>
      <trkpt lat="49.89942" lon="1.94886">
        <ele>98.5</ele>
        <time>2022-05-25T14:54:25Z</time>
      </trkpt>
      <trkpt lat="49.89942" lon="1.94885">
        <ele>98.5</ele>
        <time>2022-05-25T14:54:26Z</time>
      </trkpt>
      <trkpt lat="49.89942" lon="1.94883">
        <ele>98.6</ele>
        <time>2022-05-25T14:54:27Z</time>
      </trkpt>
      <trkpt lat="49.89941" lon="1.94882">
        <ele>98.7</ele>
        <time>2022-05-25T14:54:28Z</time>
      </trkpt>
      <trkpt lat="49.89941" lon="1.9488">
        <ele>98.7</ele>
        <time>2022-05-25T14:54:29Z</time>
      </trkpt>
      <trkpt lat="49.89941" lon="1.94877">
        <ele>98.8</ele>
        <time>2022-05-25T14:54:30Z</time>
      </trkpt>
      <trkpt lat="49.89941" lon="1.94874">
        <ele>99</ele>
        <time>2022-05-25T14:54:32Z</time>
      </trkpt>
      <trkpt lat="49.89941" lon="1.94872">
        <ele>99</ele>
        <time>2022-05-25T14:54:33Z</time>
      </trkpt>
      <trkpt lat="49.89941" lon="1.94869">
        <ele>99.2</ele>
        <time>2022-05-25T14:54:35Z</time>
      </trkpt>
      <trkpt lat="49.89941" lon="1.94867">
        <ele>99.2</ele>
        <time>2022-05-25T14:54:36Z</time>
      </trkpt>
      <trkpt lat="49.89941" lon="1.94866">
        <ele>99.3</ele>
        <time>2022-05-25T14:54:37Z</time>
      </trkpt>
      <trkpt lat="49.89941" lon="1.94864">
        <ele>99.3</ele>
        <time>2022-05-25T14:54:38Z</time>
      </trkpt>
      <trkpt lat="49.89941" lon="1.94862">
        <ele>99.4</ele>
        <time>2022-05-25T14:54:40Z</time>
      </trkpt>
      <trkpt lat="49.8994" lon="1.94861">
        <ele>99.5</ele>
        <time>2022-05-25T14:54:41Z</time>
      </trkpt>
      <trkpt lat="49.8994" lon="1.94858">
        <ele>99.6</ele>
        <time>2022-05-25T14:54:42Z</time>
      </trkpt>
      <trkpt lat="49.89939" lon="1.94857">
        <ele>99.6</ele>
        <time>2022-05-25T14:54:44Z</time>
      </trkpt>
      <trkpt lat="49.89939" lon="1.94855">
        <ele>99.7</ele>
        <time>2022-05-25T14:54:45Z</time>
      </trkpt>
      <trkpt lat="49.89939" lon="1.94854">
        <ele>99.7</ele>
        <time>2022-05-25T14:54:46Z</time>
      </trkpt>
      <trkpt lat="49.89939" lon="1.94851">
        <ele>99.8</ele>
        <time>2022-05-25T14:54:47Z</time>
      </trkpt>
      <trkpt lat="49.89938" lon="1.9485">
        <ele>99.8</ele>
        <time>2022-05-25T14:54:48Z</time>
      </trkpt>
      <trkpt lat="49.89938" lon="1.94848">
        <ele>99.9</ele>
        <time>2022-05-25T14:54:49Z</time>
      </trkpt>
      <trkpt lat="49.89938" lon="1.94846">
        <ele>99.9</ele>
        <time>2022-05-25T14:54:50Z</time>
      </trkpt>
      <trkpt lat="49.89937" lon="1.94843">
        <ele>100</ele>
        <time>2022-05-25T14:54:52Z</time>
      </trkpt>
      <trkpt lat="49.89937" lon="1.94842">
        <ele>100.1</ele>
        <time>2022-05-25T14:54:53Z</time>
      </trkpt>
      <trkpt lat="49.89936" lon="1.94841">
        <ele>100.1</ele>
        <time>2022-05-25T14:54:55Z</time>
      </trkpt>
      <trkpt lat="49.89936" lon="1.94839">
        <ele>100.1</ele>
        <time>2022-05-25T14:54:56Z</time>
      </trkpt>
      <trkpt lat="49.89935" lon="1.94837">
        <ele>100.2</ele>
        <time>2022-05-25T14:54:57Z</time>
      </trkpt>
      <trkpt lat="49.89934" lon="1.94835">
        <ele>100.3</ele>
        <time>2022-05-25T14:54:58Z</time>
      </trkpt>
      <trkpt lat="49.89933" lon="1.94834">
        <ele>100.3</ele>
        <time>2022-05-25T14:54:59Z</time>
      </trkpt>
      <trkpt lat="49.89932" lon="1.94833">
        <ele>100.3</ele>
        <time>2022-05-25T14:55:01Z</time>
      </trkpt>
      <trkpt lat="49.89931" lon="1.94833">
        <ele>100.4</ele>
        <time>2022-05-25T14:55:02Z</time>
      </trkpt>
      <trkpt lat="49.8993" lon="1.94832">
        <ele>100.5</ele>
        <time>2022-05-25T14:55:03Z</time>
      </trkpt>
      <trkpt lat="49.8993" lon="1.94831">
        <ele>100.7</ele>
        <time>2022-05-25T14:55:04Z</time>
      </trkpt>
      <trkpt lat="49.89928" lon="1.94831">
        <ele>101</ele>
        <time>2022-05-25T14:55:06Z</time>
      </trkpt>
      <trkpt lat="49.89927" lon="1.94831">
        <ele>101.2</ele>
        <time>2022-05-25T14:55:07Z</time>
      </trkpt>
      <trkpt lat="49.89926" lon="1.94831">
        <ele>101.3</ele>
        <time>2022-05-25T14:55:08Z</time>
      </trkpt>
      <trkpt lat="49.89923" lon="1.94831">
        <ele>101.7</ele>
        <time>2022-05-25T14:55:09Z</time>
      </trkpt>
      <trkpt lat="49.89922" lon="1.94831">
        <ele>101.9</ele>
        <time>2022-05-25T14:55:11Z</time>
      </trkpt>
      <trkpt lat="49.89921" lon="1.94832">
        <ele>102.1</ele>
        <time>2022-05-25T14:55:12Z</time>
      </trkpt>
      <trkpt lat="49.8992" lon="1.94832">
        <ele>102.1</ele>
        <time>2022-05-25T14:55:13Z</time>
      </trkpt>
      <trkpt lat="49.8992" lon="1.94832">
        <ele>102.2</ele>
        <time>2022-05-25T14:55:14Z</time>
      </trkpt>
      <trkpt lat="49.89919" lon="1.94833">
        <ele>102.2</ele>
        <time>2022-05-25T14:55:16Z</time>
      </trkpt>
      <trkpt lat="49.89918" lon="1.94834">
        <ele>102.3</ele>
        <time>2022-05-25T14:55:17Z</time>
      </trkpt>
      <trkpt lat="49.89917" lon="1.94835">
        <ele>102.3</ele>
        <time>2022-05-25T14:55:18Z</time>
      </trkpt>
      <trkpt lat="49.89917" lon="1.94835">
        <ele>102.4</ele>
        <time>2022-05-25T14:55:19Z</time>
      </trkpt>
      <trkpt lat="49.89916" lon="1.94836">
        <ele>102.4</ele>
        <time>2022-05-25T14:55:20Z</time>
      </trkpt>
      <trkpt lat="49.89915" lon="1.94838">
        <ele>102.5</ele>
        <time>2022-05-25T14:55:22Z</time>
      </trkpt>
      <trkpt lat="49.89914" lon="1.94838">
        <ele>102.5</ele>
        <time>2022-05-25T14:55:23Z</time>
      </trkpt>
      <trkpt lat="49.89913" lon="1.94838">
        <ele>102.6</ele>
        <time>2022-05-25T14:55:25Z</time>
      </trkpt>
      <trkpt lat="49.89912" lon="1.94838">
        <ele>102.6</ele>
        <time>2022-05-25T14:55:26Z</time>
      </trkpt>
      <trkpt lat="49.89911" lon="1.94838">
        <ele>102.7</ele>
        <time>2022-05-25T14:55:27Z</time>
      </trkpt>
      <trkpt lat="49.8991" lon="1.94839">
        <ele>102.8</ele>
        <time>2022-05-25T14:55:28Z</time>
      </trkpt>
      <trkpt lat="49.89908" lon="1.9484">
        <ele>102.8</ele>
        <time>2022-05-25T14:55:29Z</time>
      </trkpt>
      <trkpt lat="49.89908" lon="1.94841">
        <ele>102.9</ele>
        <time>2022-05-25T14:55:31Z</time>
      </trkpt>
      <trkpt lat="49.89906" lon="1.94842">
        <ele>102.9</ele>
        <time>2022-05-25T14:55:32Z</time>
      </trkpt>
      <trkpt lat="49.89906" lon="1.94843">
        <ele>103</ele>
        <time>2022-05-25T14:55:33Z</time>
      </trkpt>
      <trkpt lat="49.89905" lon="1.94844">
        <ele>103.1</ele>
        <time>2022-05-25T14:55:34Z</time>
      </trkpt>
      <trkpt lat="49.89904" lon="1.94844">
        <ele>103.1</ele>
        <time>2022-05-25T14:55:35Z</time>
      </trkpt>
      <trkpt lat="49.89902" lon="1.94846">
        <ele>103.2</ele>
        <time>2022-05-25T14:55:37Z</time>
      </trkpt>
      <trkpt lat="49.89901" lon="1.94846">
        <ele>103.3</ele>
        <time>2022-05-25T14:55:39Z</time>
      </trkpt>
      <trkpt lat="49.899" lon="1.94847">
        <ele>103.3</ele>
        <time>2022-05-25T14:55:40Z</time>
      </trkpt>
      <trkpt lat="49.89899" lon="1.94847">
        <ele>103.3</ele>
        <time>2022-05-25T14:55:41Z</time>
      </trkpt>
      <trkpt lat="49.89898" lon="1.94848">
        <ele>103.4</ele>
        <time>2022-05-25T14:55:42Z</time>
      </trkpt>
      <trkpt lat="49.89897" lon="1.94849">
        <ele>103.5</ele>
        <time>2022-05-25T14:55:43Z</time>
      </trkpt>
      <trkpt lat="49.89897" lon="1.94849">
        <ele>103.5</ele>
        <time>2022-05-25T14:55:44Z</time>
      </trkpt>
      <trkpt lat="49.89896" lon="1.9485">
        <ele>103.6</ele>
        <time>2022-05-25T14:55:45Z</time>
      </trkpt>
      <trkpt lat="49.89895" lon="1.94851">
        <ele>103.6</ele>
        <time>2022-05-25T14:55:47Z</time>
      </trkpt>
      <trkpt lat="49.89894" lon="1.94852">
        <ele>103.7</ele>
        <time>2022-05-25T14:55:48Z</time>
      </trkpt>
      <trkpt lat="49.89892" lon="1.94852">
        <ele>103.7</ele>
        <time>2022-05-25T14:55:49Z</time>
      </trkpt>
      <trkpt lat="49.89892" lon="1.94853">
        <ele>103.8</ele>
        <time>2022-05-25T14:55:50Z</time>
      </trkpt>
      <trkpt lat="49.89891" lon="1.94853">
        <ele>103.8</ele>
        <time>2022-05-25T14:55:51Z</time>
      </trkpt>
      <trkpt lat="49.8989" lon="1.94854">
        <ele>103.9</ele>
        <time>2022-05-25T14:55:52Z</time>
      </trkpt>
      <trkpt lat="49.89889" lon="1.94855">
        <ele>103.9</ele>
        <time>2022-05-25T14:55:53Z</time>
      </trkpt>
      <trkpt lat="49.89888" lon="1.94855">
        <ele>104</ele>
        <time>2022-05-25T14:55:54Z</time>
      </trkpt>
      <trkpt lat="49.89888" lon="1.94856">
        <ele>104</ele>
        <time>2022-05-25T14:55:56Z</time>
      </trkpt>
      <trkpt lat="49.89887" lon="1.94856">
        <ele>104.1</ele>
        <time>2022-05-25T14:55:57Z</time>
      </trkpt>
      <trkpt lat="49.89886" lon="1.94858">
        <ele>104.1</ele>
        <time>2022-05-25T14:55:58Z</time>
      </trkpt>
      <trkpt lat="49.89885" lon="1.94859">
        <ele>104.2</ele>
        <time>2022-05-25T14:55:59Z</time>
      </trkpt>
      <trkpt lat="49.89884" lon="1.94859">
        <ele>104.2</ele>
        <time>2022-05-25T14:56:01Z</time>
      </trkpt>
      <trkpt lat="49.89884" lon="1.9486">
        <ele>104.3</ele>
        <time>2022-05-25T14:56:02Z</time>
      </trkpt>
      <trkpt lat="49.89883" lon="1.94861">
        <ele>104.3</ele>
        <time>2022-05-25T14:56:03Z</time>
      </trkpt>
      <trkpt lat="49.89882" lon="1.94861">
        <ele>104.4</ele>
        <time>2022-05-25T14:56:04Z</time>
      </trkpt>
      <trkpt lat="49.89882" lon="1.94862">
        <ele>104.4</ele>
        <time>2022-05-25T14:56:05Z</time>
      </trkpt>
      <trkpt lat="49.89879" lon="1.94864">
        <ele>104.6</ele>
        <time>2022-05-25T14:56:06Z</time>
      </trkpt>
      <trkpt lat="49.89878" lon="1.94865">
        <ele>104.6</ele>
        <time>2022-05-25T14:56:07Z</time>
      </trkpt>
      <trkpt lat="49.89877" lon="1.94865">
        <ele>104.7</ele>
        <time>2022-05-25T14:56:08Z</time>
      </trkpt>
      <trkpt lat="49.89876" lon="1.94865">
        <ele>104.7</ele>
        <time>2022-05-25T14:56:10Z</time>
      </trkpt>
      <trkpt lat="49.89875" lon="1.94866">
        <ele>104.8</ele>
        <time>2022-05-25T14:56:11Z</time>
      </trkpt>
      <trkpt lat="49.89874" lon="1.94867">
        <ele>104.9</ele>
        <time>2022-05-25T14:56:13Z</time>
      </trkpt>
      <trkpt lat="49.89872" lon="1.94868">
        <ele>105</ele>
        <time>2022-05-25T14:56:14Z</time>
      </trkpt>
      <trkpt lat="49.89872" lon="1.94868">
        <ele>105.1</ele>
        <time>2022-05-25T14:56:16Z</time>
      </trkpt>
      <trkpt lat="49.8987" lon="1.9487">
        <ele>105.2</ele>
        <time>2022-05-25T14:56:17Z</time>
      </trkpt>
      <trkpt lat="49.89868" lon="1.94871">
        <ele>105.2</ele>
        <time>2022-05-25T14:56:19Z</time>
      </trkpt>
      <trkpt lat="49.89868" lon="1.94872">
        <ele>105.3</ele>
        <time>2022-05-25T14:56:20Z</time>
      </trkpt>
      <trkpt lat="49.89867" lon="1.94872">
        <ele>105.4</ele>
        <time>2022-05-25T14:56:21Z</time>
      </trkpt>
      <trkpt lat="49.89866" lon="1.94873">
        <ele>105.4</ele>
        <time>2022-05-25T14:56:22Z</time>
      </trkpt>
      <trkpt lat="49.89865" lon="1.94874">
        <ele>105.5</ele>
        <time>2022-05-25T14:56:23Z</time>
      </trkpt>
      <trkpt lat="49.89864" lon="1.94875">
        <ele>105.5</ele>
        <time>2022-05-25T14:56:24Z</time>
      </trkpt>
      <trkpt lat="49.89862" lon="1.94876">
        <ele>105.7</ele>
        <time>2022-05-25T14:56:26Z</time>
      </trkpt>
      <trkpt lat="49.89861" lon="1.94876">
        <ele>105.7</ele>
        <time>2022-05-25T14:56:27Z</time>
      </trkpt>
      <trkpt lat="49.8986" lon="1.94876">
        <ele>105.7</ele>
        <time>2022-05-25T14:56:28Z</time>
      </trkpt>
      <trkpt lat="49.89859" lon="1.94877">
        <ele>105.8</ele>
        <time>2022-05-25T14:56:29Z</time>
      </trkpt>
      <trkpt lat="49.89859" lon="1.94878">
        <ele>105.9</ele>
        <time>2022-05-25T14:56:30Z</time>
      </trkpt>
      <trkpt lat="49.89858" lon="1.94879">
        <ele>105.9</ele>
        <time>2022-05-25T14:56:32Z</time>
      </trkpt>
      <trkpt lat="49.89857" lon="1.9488">
        <ele>106</ele>
        <time>2022-05-25T14:56:33Z</time>
      </trkpt>
      <trkpt lat="49.89856" lon="1.9488">
        <ele>106</ele>
        <time>2022-05-25T14:56:34Z</time>
      </trkpt>
      <trkpt lat="49.89855" lon="1.9488">
        <ele>106.1</ele>
        <time>2022-05-25T14:56:35Z</time>
      </trkpt>
      <trkpt lat="49.89854" lon="1.94881">
        <ele>106.1</ele>
        <time>2022-05-25T14:56:36Z</time>
      </trkpt>
      <trkpt lat="49.89854" lon="1.94881">
        <ele>106.2</ele>
        <time>2022-05-25T14:56:38Z</time>
      </trkpt>
      <trkpt lat="49.89853" lon="1.94882">
        <ele>106.2</ele>
        <time>2022-05-25T14:56:39Z</time>
      </trkpt>
      <trkpt lat="49.89852" lon="1.94883">
        <ele>106.3</ele>
        <time>2022-05-25T14:56:40Z</time>
      </trkpt>
      <trkpt lat="49.89852" lon="1.94883">
        <ele>106.3</ele>
        <time>2022-05-25T14:56:41Z</time>
      </trkpt>
      <trkpt lat="49.8985" lon="1.94884">
        <ele>106.4</ele>
        <time>2022-05-25T14:56:42Z</time>
      </trkpt>
      <trkpt lat="49.8985" lon="1.94885">
        <ele>106.4</ele>
        <time>2022-05-25T14:56:43Z</time>
      </trkpt>
      <trkpt lat="49.89849" lon="1.94885">
        <ele>106.5</ele>
        <time>2022-05-25T14:56:44Z</time>
      </trkpt>
      <trkpt lat="49.89848" lon="1.94886">
        <ele>106.5</ele>
        <time>2022-05-25T14:56:46Z</time>
      </trkpt>
      <trkpt lat="49.89848" lon="1.94887">
        <ele>106.6</ele>
        <time>2022-05-25T14:56:47Z</time>
      </trkpt>
      <trkpt lat="49.89847" lon="1.94888">
        <ele>106.6</ele>
        <time>2022-05-25T14:56:48Z</time>
      </trkpt>
      <trkpt lat="49.89846" lon="1.94889">
        <ele>106.7</ele>
        <time>2022-05-25T14:56:49Z</time>
      </trkpt>
      <trkpt lat="49.89845" lon="1.9489">
        <ele>106.7</ele>
        <time>2022-05-25T14:56:50Z</time>
      </trkpt>
      <trkpt lat="49.89844" lon="1.9489">
        <ele>106.8</ele>
        <time>2022-05-25T14:56:52Z</time>
      </trkpt>
      <trkpt lat="49.89844" lon="1.94891">
        <ele>106.9</ele>
        <time>2022-05-25T14:56:53Z</time>
      </trkpt>
      <trkpt lat="49.89843" lon="1.94892">
        <ele>106.9</ele>
        <time>2022-05-25T14:56:54Z</time>
      </trkpt>
      <trkpt lat="49.89842" lon="1.94894">
        <ele>107</ele>
        <time>2022-05-25T14:56:55Z</time>
      </trkpt>
      <trkpt lat="49.89841" lon="1.94895">
        <ele>107.1</ele>
        <time>2022-05-25T14:56:56Z</time>
      </trkpt>
      <trkpt lat="49.8984" lon="1.94896">
        <ele>107.1</ele>
        <time>2022-05-25T14:56:58Z</time>
      </trkpt>
      <trkpt lat="49.89839" lon="1.94897">
        <ele>107.2</ele>
        <time>2022-05-25T14:56:59Z</time>
      </trkpt>
      <trkpt lat="49.89838" lon="1.94899">
        <ele>107.3</ele>
        <time>2022-05-25T14:57:01Z</time>
      </trkpt>
      <trkpt lat="49.89838" lon="1.94899">
        <ele>107.4</ele>
        <time>2022-05-25T14:57:02Z</time>
      </trkpt>
      <trkpt lat="49.89837" lon="1.949">
        <ele>107.4</ele>
        <time>2022-05-25T14:57:03Z</time>
      </trkpt>
      <trkpt lat="49.89837" lon="1.94901">
        <ele>107.5</ele>
        <time>2022-05-25T14:57:04Z</time>
      </trkpt>
      <trkpt lat="49.89835" lon="1.94902">
        <ele>107.6</ele>
        <time>2022-05-25T14:57:05Z</time>
      </trkpt>
      <trkpt lat="49.89834" lon="1.94903">
        <ele>107.6</ele>
        <time>2022-05-25T14:57:06Z</time>
      </trkpt>
      <trkpt lat="49.89833" lon="1.94903">
        <ele>107.7</ele>
        <time>2022-05-25T14:57:07Z</time>
      </trkpt>
      <trkpt lat="49.89832" lon="1.94903">
        <ele>107.8</ele>
        <time>2022-05-25T14:57:09Z</time>
      </trkpt>
      <trkpt lat="49.89831" lon="1.94903">
        <ele>107.8</ele>
        <time>2022-05-25T14:57:10Z</time>
      </trkpt>
      <trkpt lat="49.89829" lon="1.94903">
        <ele>108</ele>
        <time>2022-05-25T14:57:11Z</time>
      </trkpt>
      <trkpt lat="49.89828" lon="1.94903">
        <ele>108</ele>
        <time>2022-05-25T14:57:13Z</time>
      </trkpt>
      <trkpt lat="49.89827" lon="1.94903">
        <ele>108.1</ele>
        <time>2022-05-25T14:57:14Z</time>
      </trkpt>
      <trkpt lat="49.89825" lon="1.94903">
        <ele>108.2</ele>
        <time>2022-05-25T14:57:16Z</time>
      </trkpt>
      <trkpt lat="49.89824" lon="1.94903">
        <ele>108.2</ele>
        <time>2022-05-25T14:57:17Z</time>
      </trkpt>
      <trkpt lat="49.89823" lon="1.94903">
        <ele>108.3</ele>
        <time>2022-05-25T14:57:18Z</time>
      </trkpt>
      <trkpt lat="49.89822" lon="1.94903">
        <ele>108.4</ele>
        <time>2022-05-25T14:57:19Z</time>
      </trkpt>
      <trkpt lat="49.8982" lon="1.94902">
        <ele>108.5</ele>
        <time>2022-05-25T14:57:21Z</time>
      </trkpt>
      <trkpt lat="49.8982" lon="1.94901">
        <ele>108.5</ele>
        <time>2022-05-25T14:57:23Z</time>
      </trkpt>
      <trkpt lat="49.89819" lon="1.94899">
        <ele>108.6</ele>
        <time>2022-05-25T14:57:24Z</time>
      </trkpt>
      <trkpt lat="49.89818" lon="1.94898">
        <ele>108.7</ele>
        <time>2022-05-25T14:57:25Z</time>
      </trkpt>
      <trkpt lat="49.89818" lon="1.94896">
        <ele>108.7</ele>
        <time>2022-05-25T14:57:27Z</time>
      </trkpt>
      <trkpt lat="49.89818" lon="1.94895">
        <ele>108.8</ele>
        <time>2022-05-25T14:57:28Z</time>
      </trkpt>
      <trkpt lat="49.89818" lon="1.94894">
        <ele>108.8</ele>
        <time>2022-05-25T14:57:29Z</time>
      </trkpt>
      <trkpt lat="49.89818" lon="1.94893">
        <ele>108.9</ele>
        <time>2022-05-25T14:57:30Z</time>
      </trkpt>
      <trkpt lat="49.89818" lon="1.94892">
        <ele>108.9</ele>
        <time>2022-05-25T14:57:31Z</time>
      </trkpt>
      <trkpt lat="49.89818" lon="1.94883">
        <ele>109.2</ele>
        <time>2022-05-25T15:01:12Z</time>
      </trkpt>
      <trkpt lat="49.89818" lon="1.94883">
        <ele>109.3</ele>
        <time>2022-05-25T15:01:14Z</time>
      </trkpt>
      <trkpt lat="49.89818" lon="1.94883">
        <ele>109.3</ele>
        <time>2022-05-25T15:01:15Z</time>
      </trkpt>
    </trkseg>
  </trk>
</gpx>